<?xml version="1.0" encoding="UTF-8" standalone="no" ?>
<gpx xmlns="http://www.topografix.com/GPX/1/1" xmlns:xsi="http://www.w3.org/2001/XMLSchema-instance" xsi:schemaLocation="http://www.topografix.com/GPX/1/1 http://www.topografix.com/GPX/1/1/gpx.xsd" version="1.1" creator="VisuGPX - https://www.visugpx.com">
  <metadata>
    <name>Les 3 cols col des Champs Allos Cayolle</name>
    <desc><![CDATA[Sortie Route mythique, à partir de Guillaume, on commence par le col des champs, ensuite un petite partie un peu moins agréable lorsqu'on rejoint la route d'Allos avec des voitures, puis la montée relativement facile du col d'allos pour finir par le retour par le col de la Cayolle qui ne nous a rien épargné avec un gros orage en plein été nous sommes arrivé gelé au sommet et la descente à été un calvaire...heureusement le chocolat chaud à la Cantonniere le gite avant Esteinc nous à remis en selle pour le retour sur Guillaume.]]></desc>
  </metadata>
  <trk>
    <name><![CDATA[Guillaumes Cyclisme]]></name>
    <trkseg>
      <trkpt lat="44.08875" lon="6.85386">
        <ele>805.79998779297</ele>
        <time>2020-08-13T06:30:34.000Z</time>
      </trkpt>
      <trkpt lat="44.08875" lon="6.85386">
        <ele>805.79998779297</ele>
        <time>2020-08-13T06:30:34.000Z</time>
      </trkpt>
      <trkpt lat="44.08876" lon="6.85386">
        <ele>806</ele>
        <time>2020-08-13T06:30:44.000Z</time>
      </trkpt>
      <trkpt lat="44.08875" lon="6.85386">
        <ele>805.79998779297</ele>
        <time>2020-08-13T06:30:52.000Z</time>
      </trkpt>
      <trkpt lat="44.08875" lon="6.85385">
        <ele>805.79998779297</ele>
        <time>2020-08-13T06:30:57.000Z</time>
      </trkpt>
      <trkpt lat="44.08875" lon="6.85383">
        <ele>805.79998779297</ele>
        <time>2020-08-13T06:31:01.000Z</time>
      </trkpt>
      <trkpt lat="44.08875" lon="6.8538">
        <ele>805.79998779297</ele>
        <time>2020-08-13T06:31:03.000Z</time>
      </trkpt>
      <trkpt lat="44.08879" lon="6.85374">
        <ele>805.79998779297</ele>
        <time>2020-08-13T06:31:07.000Z</time>
      </trkpt>
      <trkpt lat="44.08883" lon="6.85372">
        <ele>805.59997558594</ele>
        <time>2020-08-13T06:31:09.000Z</time>
      </trkpt>
      <trkpt lat="44.08895" lon="6.85372">
        <ele>805.40002441406</ele>
        <time>2020-08-13T06:31:14.000Z</time>
      </trkpt>
      <trkpt lat="44.0891" lon="6.85364">
        <ele>805.20001220703</ele>
        <time>2020-08-13T06:31:20.000Z</time>
      </trkpt>
      <trkpt lat="44.08921" lon="6.85361">
        <ele>804.79998779297</ele>
        <time>2020-08-13T06:31:23.000Z</time>
      </trkpt>
      <trkpt lat="44.08926" lon="6.85361">
        <ele>804.59997558594</ele>
        <time>2020-08-13T06:31:24.000Z</time>
      </trkpt>
      <trkpt lat="44.08934" lon="6.8536">
        <ele>804.20001220703</ele>
        <time>2020-08-13T06:31:26.000Z</time>
      </trkpt>
      <trkpt lat="44.08943" lon="6.85358">
        <ele>803.59997558594</ele>
        <time>2020-08-13T06:31:28.000Z</time>
      </trkpt>
      <trkpt lat="44.08947" lon="6.85356">
        <ele>803.40002441406</ele>
        <time>2020-08-13T06:31:29.000Z</time>
      </trkpt>
      <trkpt lat="44.08963" lon="6.85353">
        <ele>802.59997558594</ele>
        <time>2020-08-13T06:31:33.000Z</time>
      </trkpt>
      <trkpt lat="44.08967" lon="6.85354">
        <ele>802.59997558594</ele>
        <time>2020-08-13T06:31:34.000Z</time>
      </trkpt>
      <trkpt lat="44.08984" lon="6.85348">
        <ele>802.79998779297</ele>
        <time>2020-08-13T06:31:39.000Z</time>
      </trkpt>
      <trkpt lat="44.09008" lon="6.85339">
        <ele>802.20001220703</ele>
        <time>2020-08-13T06:31:45.000Z</time>
      </trkpt>
      <trkpt lat="44.0904" lon="6.85328">
        <ele>801.59997558594</ele>
        <time>2020-08-13T06:31:52.000Z</time>
      </trkpt>
      <trkpt lat="44.09044" lon="6.85325">
        <ele>801.59997558594</ele>
        <time>2020-08-13T06:31:53.000Z</time>
      </trkpt>
      <trkpt lat="44.09063" lon="6.85312">
        <ele>802.40002441406</ele>
        <time>2020-08-13T06:31:58.000Z</time>
      </trkpt>
      <trkpt lat="44.09072" lon="6.85309">
        <ele>802.59997558594</ele>
        <time>2020-08-13T06:32:00.000Z</time>
      </trkpt>
      <trkpt lat="44.09075" lon="6.85307">
        <ele>802.79998779297</ele>
        <time>2020-08-13T06:32:01.000Z</time>
      </trkpt>
      <trkpt lat="44.09112" lon="6.85289">
        <ele>803.59997558594</ele>
        <time>2020-08-13T06:32:10.000Z</time>
      </trkpt>
      <trkpt lat="44.09149" lon="6.85268">
        <ele>804.40002441406</ele>
        <time>2020-08-13T06:32:19.000Z</time>
      </trkpt>
      <trkpt lat="44.09162" lon="6.85262">
        <ele>804.79998779297</ele>
        <time>2020-08-13T06:32:22.000Z</time>
      </trkpt>
      <trkpt lat="44.09166" lon="6.85261">
        <ele>804.79998779297</ele>
        <time>2020-08-13T06:32:23.000Z</time>
      </trkpt>
      <trkpt lat="44.09175" lon="6.85258">
        <ele>805</ele>
        <time>2020-08-13T06:32:25.000Z</time>
      </trkpt>
      <trkpt lat="44.09188" lon="6.85253">
        <ele>805.20001220703</ele>
        <time>2020-08-13T06:32:28.000Z</time>
      </trkpt>
      <trkpt lat="44.092" lon="6.85247">
        <ele>805.59997558594</ele>
        <time>2020-08-13T06:32:31.000Z</time>
      </trkpt>
      <trkpt lat="44.09204" lon="6.85245">
        <ele>805.79998779297</ele>
        <time>2020-08-13T06:32:32.000Z</time>
      </trkpt>
      <trkpt lat="44.09232" lon="6.85232">
        <ele>806.79998779297</ele>
        <time>2020-08-13T06:32:39.000Z</time>
      </trkpt>
      <trkpt lat="44.09256" lon="6.85224">
        <ele>807.59997558594</ele>
        <time>2020-08-13T06:32:46.000Z</time>
      </trkpt>
      <trkpt lat="44.09262" lon="6.85226">
        <ele>808</ele>
        <time>2020-08-13T06:32:48.000Z</time>
      </trkpt>
      <trkpt lat="44.09271" lon="6.85229">
        <ele>809</ele>
        <time>2020-08-13T06:32:51.000Z</time>
      </trkpt>
      <trkpt lat="44.09286" lon="6.85237">
        <ele>810</ele>
        <time>2020-08-13T06:32:56.000Z</time>
      </trkpt>
      <trkpt lat="44.09289" lon="6.85241">
        <ele>810.40002441406</ele>
        <time>2020-08-13T06:32:58.000Z</time>
      </trkpt>
      <trkpt lat="44.093" lon="6.85249">
        <ele>810.79998779297</ele>
        <time>2020-08-13T06:33:02.000Z</time>
      </trkpt>
      <trkpt lat="44.09308" lon="6.85252">
        <ele>811.20001220703</ele>
        <time>2020-08-13T06:33:04.000Z</time>
      </trkpt>
      <trkpt lat="44.09319" lon="6.85255">
        <ele>812</ele>
        <time>2020-08-13T06:33:07.000Z</time>
      </trkpt>
      <trkpt lat="44.09323" lon="6.85255">
        <ele>812.40002441406</ele>
        <time>2020-08-13T06:33:08.000Z</time>
      </trkpt>
      <trkpt lat="44.09336" lon="6.85252">
        <ele>813.20001220703</ele>
        <time>2020-08-13T06:33:12.000Z</time>
      </trkpt>
      <trkpt lat="44.0934" lon="6.85251">
        <ele>813.59997558594</ele>
        <time>2020-08-13T06:33:13.000Z</time>
      </trkpt>
      <trkpt lat="44.09341" lon="6.85247">
        <ele>813.79998779297</ele>
        <time>2020-08-13T06:33:14.000Z</time>
      </trkpt>
      <trkpt lat="44.09347" lon="6.85243">
        <ele>814</ele>
        <time>2020-08-13T06:33:16.000Z</time>
      </trkpt>
      <trkpt lat="44.09354" lon="6.85242">
        <ele>814.40002441406</ele>
        <time>2020-08-13T06:33:18.000Z</time>
      </trkpt>
      <trkpt lat="44.0936" lon="6.85242">
        <ele>814.79998779297</ele>
        <time>2020-08-13T06:33:20.000Z</time>
      </trkpt>
      <trkpt lat="44.09363" lon="6.8524">
        <ele>815</ele>
        <time>2020-08-13T06:33:21.000Z</time>
      </trkpt>
      <trkpt lat="44.09401" lon="6.85233">
        <ele>816.79998779297</ele>
        <time>2020-08-13T06:33:32.000Z</time>
      </trkpt>
      <trkpt lat="44.09407" lon="6.85233">
        <ele>817</ele>
        <time>2020-08-13T06:33:33.000Z</time>
      </trkpt>
      <trkpt lat="44.09423" lon="6.85237">
        <ele>817.59997558594</ele>
        <time>2020-08-13T06:33:36.000Z</time>
      </trkpt>
      <trkpt lat="44.09448" lon="6.85223">
        <ele>817.79998779297</ele>
        <time>2020-08-13T06:33:42.000Z</time>
      </trkpt>
      <trkpt lat="44.09489" lon="6.85213">
        <ele>819.20001220703</ele>
        <time>2020-08-13T06:33:52.000Z</time>
      </trkpt>
      <trkpt lat="44.09492" lon="6.85211">
        <ele>819.40002441406</ele>
        <time>2020-08-13T06:33:53.000Z</time>
      </trkpt>
      <trkpt lat="44.09504" lon="6.85215">
        <ele>819.79998779297</ele>
        <time>2020-08-13T06:33:57.000Z</time>
      </trkpt>
      <trkpt lat="44.09505" lon="6.85214">
        <ele>819.79998779297</ele>
        <time>2020-08-13T06:33:58.000Z</time>
      </trkpt>
      <trkpt lat="44.09516" lon="6.852">
        <ele>820.20001220703</ele>
        <time>2020-08-13T06:34:01.000Z</time>
      </trkpt>
      <trkpt lat="44.09525" lon="6.85179">
        <ele>820.59997558594</ele>
        <time>2020-08-13T06:34:04.000Z</time>
      </trkpt>
      <trkpt lat="44.09531" lon="6.85171">
        <ele>821</ele>
        <time>2020-08-13T06:34:06.000Z</time>
      </trkpt>
      <trkpt lat="44.09615" lon="6.85089">
        <ele>823</ele>
        <time>2020-08-13T06:34:26.000Z</time>
      </trkpt>
      <trkpt lat="44.09617" lon="6.85098">
        <ele>823.20001220703</ele>
        <time>2020-08-13T06:34:27.000Z</time>
      </trkpt>
      <trkpt lat="44.09624" lon="6.85098">
        <ele>823.40002441406</ele>
        <time>2020-08-13T06:34:29.000Z</time>
      </trkpt>
      <trkpt lat="44.09637" lon="6.85089">
        <ele>824</ele>
        <time>2020-08-13T06:34:33.000Z</time>
      </trkpt>
      <trkpt lat="44.09641" lon="6.85075">
        <ele>824.40002441406</ele>
        <time>2020-08-13T06:34:35.000Z</time>
      </trkpt>
      <trkpt lat="44.09655" lon="6.85061">
        <ele>825.20001220703</ele>
        <time>2020-08-13T06:34:40.000Z</time>
      </trkpt>
      <trkpt lat="44.0966" lon="6.85053">
        <ele>825.59997558594</ele>
        <time>2020-08-13T06:34:42.000Z</time>
      </trkpt>
      <trkpt lat="44.09676" lon="6.8503">
        <ele>826.40002441406</ele>
        <time>2020-08-13T06:34:48.000Z</time>
      </trkpt>
      <trkpt lat="44.09678" lon="6.85027">
        <ele>826.59997558594</ele>
        <time>2020-08-13T06:34:49.000Z</time>
      </trkpt>
      <trkpt lat="44.097" lon="6.85004">
        <ele>827.79998779297</ele>
        <time>2020-08-13T06:34:56.000Z</time>
      </trkpt>
      <trkpt lat="44.09707" lon="6.84998">
        <ele>828</ele>
        <time>2020-08-13T06:34:58.000Z</time>
      </trkpt>
      <trkpt lat="44.09727" lon="6.84984">
        <ele>828.79998779297</ele>
        <time>2020-08-13T06:35:04.000Z</time>
      </trkpt>
      <trkpt lat="44.09741" lon="6.84975">
        <ele>829.79998779297</ele>
        <time>2020-08-13T06:35:08.000Z</time>
      </trkpt>
      <trkpt lat="44.09744" lon="6.84973">
        <ele>830</ele>
        <time>2020-08-13T06:35:09.000Z</time>
      </trkpt>
      <trkpt lat="44.09765" lon="6.84961">
        <ele>831</ele>
        <time>2020-08-13T06:35:15.000Z</time>
      </trkpt>
      <trkpt lat="44.09772" lon="6.84958">
        <ele>831.40002441406</ele>
        <time>2020-08-13T06:35:17.000Z</time>
      </trkpt>
      <trkpt lat="44.09795" lon="6.84949">
        <ele>832</ele>
        <time>2020-08-13T06:35:23.000Z</time>
      </trkpt>
      <trkpt lat="44.09815" lon="6.84939">
        <ele>832.79998779297</ele>
        <time>2020-08-13T06:35:28.000Z</time>
      </trkpt>
      <trkpt lat="44.09831" lon="6.84931">
        <ele>833</ele>
        <time>2020-08-13T06:35:32.000Z</time>
      </trkpt>
      <trkpt lat="44.09852" lon="6.84927">
        <ele>833.59997558594</ele>
        <time>2020-08-13T06:35:37.000Z</time>
      </trkpt>
      <trkpt lat="44.09869" lon="6.84928">
        <ele>834</ele>
        <time>2020-08-13T06:35:41.000Z</time>
      </trkpt>
      <trkpt lat="44.09877" lon="6.84927">
        <ele>834</ele>
        <time>2020-08-13T06:35:43.000Z</time>
      </trkpt>
      <trkpt lat="44.09886" lon="6.84925">
        <ele>834.20001220703</ele>
        <time>2020-08-13T06:35:45.000Z</time>
      </trkpt>
      <trkpt lat="44.09901" lon="6.84917">
        <ele>834.40002441406</ele>
        <time>2020-08-13T06:35:49.000Z</time>
      </trkpt>
      <trkpt lat="44.09906" lon="6.84915">
        <ele>834.40002441406</ele>
        <time>2020-08-13T06:35:50.000Z</time>
      </trkpt>
      <trkpt lat="44.09914" lon="6.84914">
        <ele>834.79998779297</ele>
        <time>2020-08-13T06:35:52.000Z</time>
      </trkpt>
      <trkpt lat="44.09922" lon="6.84912">
        <ele>835</ele>
        <time>2020-08-13T06:35:54.000Z</time>
      </trkpt>
      <trkpt lat="44.09926" lon="6.84911">
        <ele>835.20001220703</ele>
        <time>2020-08-13T06:35:55.000Z</time>
      </trkpt>
      <trkpt lat="44.09954" lon="6.84904">
        <ele>836.20001220703</ele>
        <time>2020-08-13T06:36:02.000Z</time>
      </trkpt>
      <trkpt lat="44.09957" lon="6.84903">
        <ele>836.40002441406</ele>
        <time>2020-08-13T06:36:03.000Z</time>
      </trkpt>
      <trkpt lat="44.09971" lon="6.84898">
        <ele>837.20001220703</ele>
        <time>2020-08-13T06:36:07.000Z</time>
      </trkpt>
      <trkpt lat="44.10014" lon="6.84892">
        <ele>839.59997558594</ele>
        <time>2020-08-13T06:36:19.000Z</time>
      </trkpt>
      <trkpt lat="44.10022" lon="6.84889">
        <ele>840</ele>
        <time>2020-08-13T06:36:21.000Z</time>
      </trkpt>
      <trkpt lat="44.10033" lon="6.8488">
        <ele>840.59997558594</ele>
        <time>2020-08-13T06:36:24.000Z</time>
      </trkpt>
      <trkpt lat="44.10044" lon="6.84872">
        <ele>841</ele>
        <time>2020-08-13T06:36:27.000Z</time>
      </trkpt>
      <trkpt lat="44.10061" lon="6.8486">
        <ele>841.79998779297</ele>
        <time>2020-08-13T06:36:32.000Z</time>
      </trkpt>
      <trkpt lat="44.10064" lon="6.84855">
        <ele>841.79998779297</ele>
        <time>2020-08-13T06:36:33.000Z</time>
      </trkpt>
      <trkpt lat="44.10083" lon="6.84852">
        <ele>842.59997558594</ele>
        <time>2020-08-13T06:36:38.000Z</time>
      </trkpt>
      <trkpt lat="44.1009" lon="6.84854">
        <ele>842.79998779297</ele>
        <time>2020-08-13T06:36:40.000Z</time>
      </trkpt>
      <trkpt lat="44.10101" lon="6.84861">
        <ele>843.40002441406</ele>
        <time>2020-08-13T06:36:43.000Z</time>
      </trkpt>
      <trkpt lat="44.10116" lon="6.84871">
        <ele>843.79998779297</ele>
        <time>2020-08-13T06:36:47.000Z</time>
      </trkpt>
      <trkpt lat="44.10135" lon="6.84885">
        <ele>844.40002441406</ele>
        <time>2020-08-13T06:36:52.000Z</time>
      </trkpt>
      <trkpt lat="44.10155" lon="6.84895">
        <ele>845</ele>
        <time>2020-08-13T06:36:57.000Z</time>
      </trkpt>
      <trkpt lat="44.10169" lon="6.84902">
        <ele>845.40002441406</ele>
        <time>2020-08-13T06:37:01.000Z</time>
      </trkpt>
      <trkpt lat="44.10184" lon="6.84909">
        <ele>846</ele>
        <time>2020-08-13T06:37:05.000Z</time>
      </trkpt>
      <trkpt lat="44.10195" lon="6.84915">
        <ele>846.59997558594</ele>
        <time>2020-08-13T06:37:08.000Z</time>
      </trkpt>
      <trkpt lat="44.10211" lon="6.84921">
        <ele>847.20001220703</ele>
        <time>2020-08-13T06:37:12.000Z</time>
      </trkpt>
      <trkpt lat="44.10235" lon="6.84926">
        <ele>848.40002441406</ele>
        <time>2020-08-13T06:37:18.000Z</time>
      </trkpt>
      <trkpt lat="44.10267" lon="6.84932">
        <ele>849.40002441406</ele>
        <time>2020-08-13T06:37:26.000Z</time>
      </trkpt>
      <trkpt lat="44.10279" lon="6.84934">
        <ele>849.79998779297</ele>
        <time>2020-08-13T06:37:29.000Z</time>
      </trkpt>
      <trkpt lat="44.10295" lon="6.84937">
        <ele>850.40002441406</ele>
        <time>2020-08-13T06:37:33.000Z</time>
      </trkpt>
      <trkpt lat="44.10323" lon="6.84941">
        <ele>851.59997558594</ele>
        <time>2020-08-13T06:37:40.000Z</time>
      </trkpt>
      <trkpt lat="44.10347" lon="6.84946">
        <ele>852.59997558594</ele>
        <time>2020-08-13T06:37:46.000Z</time>
      </trkpt>
      <trkpt lat="44.10363" lon="6.84948">
        <ele>853.20001220703</ele>
        <time>2020-08-13T06:37:50.000Z</time>
      </trkpt>
      <trkpt lat="44.10376" lon="6.84949">
        <ele>853.59997558594</ele>
        <time>2020-08-13T06:37:53.000Z</time>
      </trkpt>
      <trkpt lat="44.1038" lon="6.84949">
        <ele>853.79998779297</ele>
        <time>2020-08-13T06:37:54.000Z</time>
      </trkpt>
      <trkpt lat="44.10391" lon="6.8494">
        <ele>854.20001220703</ele>
        <time>2020-08-13T06:37:57.000Z</time>
      </trkpt>
      <trkpt lat="44.10396" lon="6.84923">
        <ele>854.40002441406</ele>
        <time>2020-08-13T06:38:00.000Z</time>
      </trkpt>
      <trkpt lat="44.10398" lon="6.84906">
        <ele>854.79998779297</ele>
        <time>2020-08-13T06:38:03.000Z</time>
      </trkpt>
      <trkpt lat="44.10402" lon="6.84892">
        <ele>855.59997558594</ele>
        <time>2020-08-13T06:38:06.000Z</time>
      </trkpt>
      <trkpt lat="44.10403" lon="6.84886">
        <ele>855.79998779297</ele>
        <time>2020-08-13T06:38:07.000Z</time>
      </trkpt>
      <trkpt lat="44.1041" lon="6.84864">
        <ele>856.79998779297</ele>
        <time>2020-08-13T06:38:12.000Z</time>
      </trkpt>
      <trkpt lat="44.10414" lon="6.84856">
        <ele>857.40002441406</ele>
        <time>2020-08-13T06:38:14.000Z</time>
      </trkpt>
      <trkpt lat="44.10421" lon="6.84846">
        <ele>858</ele>
        <time>2020-08-13T06:38:17.000Z</time>
      </trkpt>
      <trkpt lat="44.10432" lon="6.84836">
        <ele>858.79998779297</ele>
        <time>2020-08-13T06:38:21.000Z</time>
      </trkpt>
      <trkpt lat="44.10438" lon="6.84829">
        <ele>859.20001220703</ele>
        <time>2020-08-13T06:38:23.000Z</time>
      </trkpt>
      <trkpt lat="44.10449" lon="6.84809">
        <ele>860.20001220703</ele>
        <time>2020-08-13T06:38:28.000Z</time>
      </trkpt>
      <trkpt lat="44.10451" lon="6.84805">
        <ele>860.40002441406</ele>
        <time>2020-08-13T06:38:29.000Z</time>
      </trkpt>
      <trkpt lat="44.1046" lon="6.84788">
        <ele>861.59997558594</ele>
        <time>2020-08-13T06:38:33.000Z</time>
      </trkpt>
      <trkpt lat="44.1047" lon="6.84774">
        <ele>862.40002441406</ele>
        <time>2020-08-13T06:38:37.000Z</time>
      </trkpt>
      <trkpt lat="44.10475" lon="6.84768">
        <ele>862.79998779297</ele>
        <time>2020-08-13T06:38:39.000Z</time>
      </trkpt>
      <trkpt lat="44.1049" lon="6.84752">
        <ele>863.79998779297</ele>
        <time>2020-08-13T06:38:44.000Z</time>
      </trkpt>
      <trkpt lat="44.10492" lon="6.84748">
        <ele>864</ele>
        <time>2020-08-13T06:38:45.000Z</time>
      </trkpt>
      <trkpt lat="44.10501" lon="6.84734">
        <ele>865</ele>
        <time>2020-08-13T06:38:49.000Z</time>
      </trkpt>
      <trkpt lat="44.1051" lon="6.84717">
        <ele>865.79998779297</ele>
        <time>2020-08-13T06:38:53.000Z</time>
      </trkpt>
      <trkpt lat="44.10512" lon="6.84713">
        <ele>866</ele>
        <time>2020-08-13T06:38:54.000Z</time>
      </trkpt>
      <trkpt lat="44.10525" lon="6.84697">
        <ele>867.20001220703</ele>
        <time>2020-08-13T06:38:59.000Z</time>
      </trkpt>
      <trkpt lat="44.10533" lon="6.84685">
        <ele>867.79998779297</ele>
        <time>2020-08-13T06:39:02.000Z</time>
      </trkpt>
      <trkpt lat="44.1054" lon="6.84678">
        <ele>868.20001220703</ele>
        <time>2020-08-13T06:39:04.000Z</time>
      </trkpt>
      <trkpt lat="44.10555" lon="6.84658">
        <ele>868.79998779297</ele>
        <time>2020-08-13T06:39:09.000Z</time>
      </trkpt>
      <trkpt lat="44.10571" lon="6.84638">
        <ele>869.20001220703</ele>
        <time>2020-08-13T06:39:14.000Z</time>
      </trkpt>
      <trkpt lat="44.10587" lon="6.84617">
        <ele>869.59997558594</ele>
        <time>2020-08-13T06:39:19.000Z</time>
      </trkpt>
      <trkpt lat="44.10603" lon="6.84597">
        <ele>870.20001220703</ele>
        <time>2020-08-13T06:39:24.000Z</time>
      </trkpt>
      <trkpt lat="44.10606" lon="6.84592">
        <ele>870.40002441406</ele>
        <time>2020-08-13T06:39:25.000Z</time>
      </trkpt>
      <trkpt lat="44.10623" lon="6.84545">
        <ele>870.40002441406</ele>
        <time>2020-08-13T06:39:33.000Z</time>
      </trkpt>
      <trkpt lat="44.1064" lon="6.8449">
        <ele>870.20001220703</ele>
        <time>2020-08-13T06:39:42.000Z</time>
      </trkpt>
      <trkpt lat="44.10645" lon="6.84457">
        <ele>870.40002441406</ele>
        <time>2020-08-13T06:39:47.000Z</time>
      </trkpt>
      <trkpt lat="44.10647" lon="6.84451">
        <ele>870.40002441406</ele>
        <time>2020-08-13T06:39:48.000Z</time>
      </trkpt>
      <trkpt lat="44.10662" lon="6.84435">
        <ele>870.59997558594</ele>
        <time>2020-08-13T06:39:52.000Z</time>
      </trkpt>
      <trkpt lat="44.10672" lon="6.84412">
        <ele>870.79998779297</ele>
        <time>2020-08-13T06:39:56.000Z</time>
      </trkpt>
      <trkpt lat="44.10668" lon="6.84391">
        <ele>870.79998779297</ele>
        <time>2020-08-13T06:39:59.000Z</time>
      </trkpt>
      <trkpt lat="44.10666" lon="6.84383">
        <ele>870.59997558594</ele>
        <time>2020-08-13T06:40:00.000Z</time>
      </trkpt>
      <trkpt lat="44.10663" lon="6.84362">
        <ele>870.79998779297</ele>
        <time>2020-08-13T06:40:03.000Z</time>
      </trkpt>
      <trkpt lat="44.10663" lon="6.84355">
        <ele>870.79998779297</ele>
        <time>2020-08-13T06:40:04.000Z</time>
      </trkpt>
      <trkpt lat="44.10668" lon="6.84335">
        <ele>871</ele>
        <time>2020-08-13T06:40:07.000Z</time>
      </trkpt>
      <trkpt lat="44.1067" lon="6.84328">
        <ele>871.20001220703</ele>
        <time>2020-08-13T06:40:08.000Z</time>
      </trkpt>
      <trkpt lat="44.10677" lon="6.8431">
        <ele>871.40002441406</ele>
        <time>2020-08-13T06:40:11.000Z</time>
      </trkpt>
      <trkpt lat="44.10688" lon="6.84279">
        <ele>871.59997558594</ele>
        <time>2020-08-13T06:40:16.000Z</time>
      </trkpt>
      <trkpt lat="44.10703" lon="6.84239">
        <ele>872.59997558594</ele>
        <time>2020-08-13T06:40:23.000Z</time>
      </trkpt>
      <trkpt lat="44.10708" lon="6.84227">
        <ele>873</ele>
        <time>2020-08-13T06:40:25.000Z</time>
      </trkpt>
      <trkpt lat="44.10714" lon="6.8421">
        <ele>873.40002441406</ele>
        <time>2020-08-13T06:40:28.000Z</time>
      </trkpt>
      <trkpt lat="44.10716" lon="6.84198">
        <ele>873.40002441406</ele>
        <time>2020-08-13T06:40:30.000Z</time>
      </trkpt>
      <trkpt lat="44.10717" lon="6.84191">
        <ele>873.59997558594</ele>
        <time>2020-08-13T06:40:31.000Z</time>
      </trkpt>
      <trkpt lat="44.10718" lon="6.84184">
        <ele>873.79998779297</ele>
        <time>2020-08-13T06:40:32.000Z</time>
      </trkpt>
      <trkpt lat="44.1072" lon="6.84166">
        <ele>874.40002441406</ele>
        <time>2020-08-13T06:40:35.000Z</time>
      </trkpt>
      <trkpt lat="44.10721" lon="6.84147">
        <ele>874.59997558594</ele>
        <time>2020-08-13T06:40:38.000Z</time>
      </trkpt>
      <trkpt lat="44.10724" lon="6.84135">
        <ele>875</ele>
        <time>2020-08-13T06:40:40.000Z</time>
      </trkpt>
      <trkpt lat="44.10731" lon="6.84118">
        <ele>875.20001220703</ele>
        <time>2020-08-13T06:40:43.000Z</time>
      </trkpt>
      <trkpt lat="44.10734" lon="6.84113">
        <ele>875.40002441406</ele>
        <time>2020-08-13T06:40:44.000Z</time>
      </trkpt>
      <trkpt lat="44.10737" lon="6.84108">
        <ele>875.59997558594</ele>
        <time>2020-08-13T06:40:45.000Z</time>
      </trkpt>
      <trkpt lat="44.10749" lon="6.84086">
        <ele>875.79998779297</ele>
        <time>2020-08-13T06:40:49.000Z</time>
      </trkpt>
      <trkpt lat="44.10768" lon="6.84038">
        <ele>876</ele>
        <time>2020-08-13T06:40:57.000Z</time>
      </trkpt>
      <trkpt lat="44.1078" lon="6.84007">
        <ele>876.40002441406</ele>
        <time>2020-08-13T06:41:02.000Z</time>
      </trkpt>
      <trkpt lat="44.10784" lon="6.83994">
        <ele>876.59997558594</ele>
        <time>2020-08-13T06:41:04.000Z</time>
      </trkpt>
      <trkpt lat="44.10785" lon="6.83975">
        <ele>876.79998779297</ele>
        <time>2020-08-13T06:41:07.000Z</time>
      </trkpt>
      <trkpt lat="44.10785" lon="6.83966">
        <ele>876.79998779297</ele>
        <time>2020-08-13T06:41:08.000Z</time>
      </trkpt>
      <trkpt lat="44.10785" lon="6.83952">
        <ele>876.59997558594</ele>
        <time>2020-08-13T06:41:10.000Z</time>
      </trkpt>
      <trkpt lat="44.10792" lon="6.83932">
        <ele>876.79998779297</ele>
        <time>2020-08-13T06:41:13.000Z</time>
      </trkpt>
      <trkpt lat="44.10795" lon="6.83925">
        <ele>876.79998779297</ele>
        <time>2020-08-13T06:41:14.000Z</time>
      </trkpt>
      <trkpt lat="44.108" lon="6.83913">
        <ele>877</ele>
        <time>2020-08-13T06:41:16.000Z</time>
      </trkpt>
      <trkpt lat="44.10806" lon="6.83891">
        <ele>876.79998779297</ele>
        <time>2020-08-13T06:41:19.000Z</time>
      </trkpt>
      <trkpt lat="44.10811" lon="6.83866">
        <ele>876.59997558594</ele>
        <time>2020-08-13T06:41:23.000Z</time>
      </trkpt>
      <trkpt lat="44.1082" lon="6.83851">
        <ele>876.79998779297</ele>
        <time>2020-08-13T06:41:25.000Z</time>
      </trkpt>
      <trkpt lat="44.10833" lon="6.83836">
        <ele>876.79998779297</ele>
        <time>2020-08-13T06:41:28.000Z</time>
      </trkpt>
      <trkpt lat="44.10842" lon="6.83828">
        <ele>876.79998779297</ele>
        <time>2020-08-13T06:41:30.000Z</time>
      </trkpt>
      <trkpt lat="44.10866" lon="6.83806">
        <ele>876.79998779297</ele>
        <time>2020-08-13T06:41:35.000Z</time>
      </trkpt>
      <trkpt lat="44.10871" lon="6.83803">
        <ele>876.79998779297</ele>
        <time>2020-08-13T06:41:36.000Z</time>
      </trkpt>
      <trkpt lat="44.10886" lon="6.83794">
        <ele>876.79998779297</ele>
        <time>2020-08-13T06:41:39.000Z</time>
      </trkpt>
      <trkpt lat="44.10902" lon="6.83786">
        <ele>877</ele>
        <time>2020-08-13T06:41:42.000Z</time>
      </trkpt>
      <trkpt lat="44.10929" lon="6.83778">
        <ele>877</ele>
        <time>2020-08-13T06:41:47.000Z</time>
      </trkpt>
      <trkpt lat="44.10934" lon="6.83776">
        <ele>877</ele>
        <time>2020-08-13T06:41:48.000Z</time>
      </trkpt>
      <trkpt lat="44.10954" lon="6.83762">
        <ele>877.20001220703</ele>
        <time>2020-08-13T06:41:52.000Z</time>
      </trkpt>
      <trkpt lat="44.10989" lon="6.83736">
        <ele>877</ele>
        <time>2020-08-13T06:41:59.000Z</time>
      </trkpt>
      <trkpt lat="44.11016" lon="6.8372">
        <ele>877</ele>
        <time>2020-08-13T06:42:04.000Z</time>
      </trkpt>
      <trkpt lat="44.11026" lon="6.83713">
        <ele>877.20001220703</ele>
        <time>2020-08-13T06:42:06.000Z</time>
      </trkpt>
      <trkpt lat="44.11042" lon="6.83706">
        <ele>877</ele>
        <time>2020-08-13T06:42:09.000Z</time>
      </trkpt>
      <trkpt lat="44.11071" lon="6.837">
        <ele>877</ele>
        <time>2020-08-13T06:42:14.000Z</time>
      </trkpt>
      <trkpt lat="44.11088" lon="6.83697">
        <ele>877.20001220703</ele>
        <time>2020-08-13T06:42:17.000Z</time>
      </trkpt>
      <trkpt lat="44.11105" lon="6.83696">
        <ele>877.20001220703</ele>
        <time>2020-08-13T06:42:20.000Z</time>
      </trkpt>
      <trkpt lat="44.11133" lon="6.83694">
        <ele>877.20001220703</ele>
        <time>2020-08-13T06:42:25.000Z</time>
      </trkpt>
      <trkpt lat="44.11145" lon="6.83694">
        <ele>877.20001220703</ele>
        <time>2020-08-13T06:42:27.000Z</time>
      </trkpt>
      <trkpt lat="44.1115" lon="6.83693">
        <ele>877.20001220703</ele>
        <time>2020-08-13T06:42:28.000Z</time>
      </trkpt>
      <trkpt lat="44.11173" lon="6.83689">
        <ele>877.20001220703</ele>
        <time>2020-08-13T06:42:32.000Z</time>
      </trkpt>
      <trkpt lat="44.11199" lon="6.8368">
        <ele>878</ele>
        <time>2020-08-13T06:42:37.000Z</time>
      </trkpt>
      <trkpt lat="44.11208" lon="6.83671">
        <ele>878.20001220703</ele>
        <time>2020-08-13T06:42:39.000Z</time>
      </trkpt>
      <trkpt lat="44.11216" lon="6.83643">
        <ele>878.20001220703</ele>
        <time>2020-08-13T06:42:43.000Z</time>
      </trkpt>
      <trkpt lat="44.11217" lon="6.83634">
        <ele>878.40002441406</ele>
        <time>2020-08-13T06:42:44.000Z</time>
      </trkpt>
      <trkpt lat="44.11222" lon="6.83572">
        <ele>878.59997558594</ele>
        <time>2020-08-13T06:42:52.000Z</time>
      </trkpt>
      <trkpt lat="44.11222" lon="6.83564">
        <ele>878.59997558594</ele>
        <time>2020-08-13T06:42:53.000Z</time>
      </trkpt>
      <trkpt lat="44.11214" lon="6.83544">
        <ele>878.79998779297</ele>
        <time>2020-08-13T06:42:56.000Z</time>
      </trkpt>
      <trkpt lat="44.11206" lon="6.83532">
        <ele>878.79998779297</ele>
        <time>2020-08-13T06:42:58.000Z</time>
      </trkpt>
      <trkpt lat="44.11197" lon="6.83519">
        <ele>878.79998779297</ele>
        <time>2020-08-13T06:43:00.000Z</time>
      </trkpt>
      <trkpt lat="44.11177" lon="6.83495">
        <ele>878.79998779297</ele>
        <time>2020-08-13T06:43:05.000Z</time>
      </trkpt>
      <trkpt lat="44.11173" lon="6.8349">
        <ele>879</ele>
        <time>2020-08-13T06:43:06.000Z</time>
      </trkpt>
      <trkpt lat="44.11153" lon="6.8347">
        <ele>880.20001220703</ele>
        <time>2020-08-13T06:43:11.000Z</time>
      </trkpt>
      <trkpt lat="44.11149" lon="6.83465">
        <ele>880.40002441406</ele>
        <time>2020-08-13T06:43:12.000Z</time>
      </trkpt>
      <trkpt lat="44.11121" lon="6.83441">
        <ele>881</ele>
        <time>2020-08-13T06:43:19.000Z</time>
      </trkpt>
      <trkpt lat="44.11117" lon="6.83437">
        <ele>881.20001220703</ele>
        <time>2020-08-13T06:43:20.000Z</time>
      </trkpt>
      <trkpt lat="44.11097" lon="6.83421">
        <ele>882.40002441406</ele>
        <time>2020-08-13T06:43:25.000Z</time>
      </trkpt>
      <trkpt lat="44.11089" lon="6.83416">
        <ele>882.59997558594</ele>
        <time>2020-08-13T06:43:27.000Z</time>
      </trkpt>
      <trkpt lat="44.11068" lon="6.83409">
        <ele>883.59997558594</ele>
        <time>2020-08-13T06:43:32.000Z</time>
      </trkpt>
      <trkpt lat="44.11059" lon="6.83407">
        <ele>883.79998779297</ele>
        <time>2020-08-13T06:43:34.000Z</time>
      </trkpt>
      <trkpt lat="44.11042" lon="6.83404">
        <ele>884.79998779297</ele>
        <time>2020-08-13T06:43:38.000Z</time>
      </trkpt>
      <trkpt lat="44.11016" lon="6.834">
        <ele>885.79998779297</ele>
        <time>2020-08-13T06:43:44.000Z</time>
      </trkpt>
      <trkpt lat="44.10983" lon="6.83388">
        <ele>887</ele>
        <time>2020-08-13T06:43:52.000Z</time>
      </trkpt>
      <trkpt lat="44.10958" lon="6.8337">
        <ele>888</ele>
        <time>2020-08-13T06:43:59.000Z</time>
      </trkpt>
      <trkpt lat="44.10954" lon="6.83367">
        <ele>888.20001220703</ele>
        <time>2020-08-13T06:44:00.000Z</time>
      </trkpt>
      <trkpt lat="44.10939" lon="6.83354">
        <ele>888.59997558594</ele>
        <time>2020-08-13T06:44:04.000Z</time>
      </trkpt>
      <trkpt lat="44.10933" lon="6.83346">
        <ele>889</ele>
        <time>2020-08-13T06:44:06.000Z</time>
      </trkpt>
      <trkpt lat="44.10931" lon="6.83341">
        <ele>889.20001220703</ele>
        <time>2020-08-13T06:44:07.000Z</time>
      </trkpt>
      <trkpt lat="44.10928" lon="6.83336">
        <ele>889.40002441406</ele>
        <time>2020-08-13T06:44:08.000Z</time>
      </trkpt>
      <trkpt lat="44.10925" lon="6.83332">
        <ele>889.59997558594</ele>
        <time>2020-08-13T06:44:09.000Z</time>
      </trkpt>
      <trkpt lat="44.10912" lon="6.83301">
        <ele>890.40002441406</ele>
        <time>2020-08-13T06:44:15.000Z</time>
      </trkpt>
      <trkpt lat="44.1091" lon="6.83296">
        <ele>890.59997558594</ele>
        <time>2020-08-13T06:44:16.000Z</time>
      </trkpt>
      <trkpt lat="44.10907" lon="6.83279">
        <ele>891.40002441406</ele>
        <time>2020-08-13T06:44:19.000Z</time>
      </trkpt>
      <trkpt lat="44.10902" lon="6.8325">
        <ele>892</ele>
        <time>2020-08-13T06:44:24.000Z</time>
      </trkpt>
      <trkpt lat="44.10898" lon="6.83225">
        <ele>892.40002441406</ele>
        <time>2020-08-13T06:44:28.000Z</time>
      </trkpt>
      <trkpt lat="44.10894" lon="6.83197">
        <ele>892.40002441406</ele>
        <time>2020-08-13T06:44:32.000Z</time>
      </trkpt>
      <trkpt lat="44.10887" lon="6.83128">
        <ele>892</ele>
        <time>2020-08-13T06:44:41.000Z</time>
      </trkpt>
      <trkpt lat="44.10887" lon="6.83111">
        <ele>891.79998779297</ele>
        <time>2020-08-13T06:44:43.000Z</time>
      </trkpt>
      <trkpt lat="44.10888" lon="6.83088">
        <ele>892</ele>
        <time>2020-08-13T06:44:46.000Z</time>
      </trkpt>
      <trkpt lat="44.10895" lon="6.83035">
        <ele>893</ele>
        <time>2020-08-13T06:44:53.000Z</time>
      </trkpt>
      <trkpt lat="44.10896" lon="6.8302">
        <ele>893.40002441406</ele>
        <time>2020-08-13T06:44:55.000Z</time>
      </trkpt>
      <trkpt lat="44.10896" lon="6.8299">
        <ele>894</ele>
        <time>2020-08-13T06:44:59.000Z</time>
      </trkpt>
      <trkpt lat="44.10895" lon="6.82981">
        <ele>894.20001220703</ele>
        <time>2020-08-13T06:45:00.000Z</time>
      </trkpt>
      <trkpt lat="44.10885" lon="6.82936">
        <ele>893.59997558594</ele>
        <time>2020-08-13T06:45:06.000Z</time>
      </trkpt>
      <trkpt lat="44.10884" lon="6.82887">
        <ele>894.40002441406</ele>
        <time>2020-08-13T06:45:12.000Z</time>
      </trkpt>
      <trkpt lat="44.10885" lon="6.82864">
        <ele>894.59997558594</ele>
        <time>2020-08-13T06:45:15.000Z</time>
      </trkpt>
      <trkpt lat="44.10888" lon="6.82813">
        <ele>895.40002441406</ele>
        <time>2020-08-13T06:45:22.000Z</time>
      </trkpt>
      <trkpt lat="44.1089" lon="6.82783">
        <ele>895.59997558594</ele>
        <time>2020-08-13T06:45:26.000Z</time>
      </trkpt>
      <trkpt lat="44.10894" lon="6.82767">
        <ele>895.79998779297</ele>
        <time>2020-08-13T06:45:28.000Z</time>
      </trkpt>
      <trkpt lat="44.10898" lon="6.82753">
        <ele>895.79998779297</ele>
        <time>2020-08-13T06:45:30.000Z</time>
      </trkpt>
      <trkpt lat="44.10922" lon="6.82682">
        <ele>896.40002441406</ele>
        <time>2020-08-13T06:45:40.000Z</time>
      </trkpt>
      <trkpt lat="44.10927" lon="6.82659">
        <ele>896.40002441406</ele>
        <time>2020-08-13T06:45:43.000Z</time>
      </trkpt>
      <trkpt lat="44.10926" lon="6.82643">
        <ele>896.20001220703</ele>
        <time>2020-08-13T06:45:45.000Z</time>
      </trkpt>
      <trkpt lat="44.1092" lon="6.8262">
        <ele>896</ele>
        <time>2020-08-13T06:45:48.000Z</time>
      </trkpt>
      <trkpt lat="44.10918" lon="6.82612">
        <ele>896</ele>
        <time>2020-08-13T06:45:49.000Z</time>
      </trkpt>
      <trkpt lat="44.10913" lon="6.82588">
        <ele>896</ele>
        <time>2020-08-13T06:45:52.000Z</time>
      </trkpt>
      <trkpt lat="44.10911" lon="6.82571">
        <ele>896</ele>
        <time>2020-08-13T06:45:54.000Z</time>
      </trkpt>
      <trkpt lat="44.10911" lon="6.82521">
        <ele>895.79998779297</ele>
        <time>2020-08-13T06:46:00.000Z</time>
      </trkpt>
      <trkpt lat="44.10912" lon="6.82458">
        <ele>896.59997558594</ele>
        <time>2020-08-13T06:46:08.000Z</time>
      </trkpt>
      <trkpt lat="44.10917" lon="6.82419">
        <ele>896.79998779297</ele>
        <time>2020-08-13T06:46:13.000Z</time>
      </trkpt>
      <trkpt lat="44.10923" lon="6.82388">
        <ele>896.40002441406</ele>
        <time>2020-08-13T06:46:17.000Z</time>
      </trkpt>
      <trkpt lat="44.10931" lon="6.82357">
        <ele>896.59997558594</ele>
        <time>2020-08-13T06:46:21.000Z</time>
      </trkpt>
      <trkpt lat="44.10935" lon="6.8235">
        <ele>896.59997558594</ele>
        <time>2020-08-13T06:46:22.000Z</time>
      </trkpt>
      <trkpt lat="44.10947" lon="6.82334">
        <ele>896.59997558594</ele>
        <time>2020-08-13T06:46:25.000Z</time>
      </trkpt>
      <trkpt lat="44.10956" lon="6.82322">
        <ele>896.79998779297</ele>
        <time>2020-08-13T06:46:27.000Z</time>
      </trkpt>
      <trkpt lat="44.10969" lon="6.82307">
        <ele>896.79998779297</ele>
        <time>2020-08-13T06:46:30.000Z</time>
      </trkpt>
      <trkpt lat="44.10973" lon="6.82301">
        <ele>897</ele>
        <time>2020-08-13T06:46:31.000Z</time>
      </trkpt>
      <trkpt lat="44.10988" lon="6.82285">
        <ele>896.79998779297</ele>
        <time>2020-08-13T06:46:34.000Z</time>
      </trkpt>
      <trkpt lat="44.10994" lon="6.82283">
        <ele>896.79998779297</ele>
        <time>2020-08-13T06:46:35.000Z</time>
      </trkpt>
      <trkpt lat="44.11017" lon="6.82267">
        <ele>896.59997558594</ele>
        <time>2020-08-13T06:46:39.000Z</time>
      </trkpt>
      <trkpt lat="44.11021" lon="6.82262">
        <ele>896.59997558594</ele>
        <time>2020-08-13T06:46:40.000Z</time>
      </trkpt>
      <trkpt lat="44.11029" lon="6.82238">
        <ele>896.59997558594</ele>
        <time>2020-08-13T06:46:43.000Z</time>
      </trkpt>
      <trkpt lat="44.1104" lon="6.82208">
        <ele>896.40002441406</ele>
        <time>2020-08-13T06:46:47.000Z</time>
      </trkpt>
      <trkpt lat="44.11047" lon="6.82194">
        <ele>896.20001220703</ele>
        <time>2020-08-13T06:46:49.000Z</time>
      </trkpt>
      <trkpt lat="44.11052" lon="6.82179">
        <ele>896.20001220703</ele>
        <time>2020-08-13T06:46:51.000Z</time>
      </trkpt>
      <trkpt lat="44.11059" lon="6.82154">
        <ele>896.20001220703</ele>
        <time>2020-08-13T06:46:54.000Z</time>
      </trkpt>
      <trkpt lat="44.11062" lon="6.82145">
        <ele>896</ele>
        <time>2020-08-13T06:46:55.000Z</time>
      </trkpt>
      <trkpt lat="44.11074" lon="6.82122">
        <ele>895.79998779297</ele>
        <time>2020-08-13T06:46:58.000Z</time>
      </trkpt>
      <trkpt lat="44.11078" lon="6.82114">
        <ele>895.40002441406</ele>
        <time>2020-08-13T06:46:59.000Z</time>
      </trkpt>
      <trkpt lat="44.11084" lon="6.82105">
        <ele>895</ele>
        <time>2020-08-13T06:47:00.000Z</time>
      </trkpt>
      <trkpt lat="44.11101" lon="6.82078">
        <ele>894.20001220703</ele>
        <time>2020-08-13T06:47:03.000Z</time>
      </trkpt>
      <trkpt lat="44.11108" lon="6.82071">
        <ele>893.79998779297</ele>
        <time>2020-08-13T06:47:04.000Z</time>
      </trkpt>
      <trkpt lat="44.11114" lon="6.82065">
        <ele>893.40002441406</ele>
        <time>2020-08-13T06:47:05.000Z</time>
      </trkpt>
      <trkpt lat="44.11122" lon="6.8206">
        <ele>892.79998779297</ele>
        <time>2020-08-13T06:47:06.000Z</time>
      </trkpt>
      <trkpt lat="44.1114" lon="6.82051">
        <ele>891.40002441406</ele>
        <time>2020-08-13T06:47:08.000Z</time>
      </trkpt>
      <trkpt lat="44.1115" lon="6.82048">
        <ele>891</ele>
        <time>2020-08-13T06:47:09.000Z</time>
      </trkpt>
      <trkpt lat="44.1116" lon="6.82044">
        <ele>890.40002441406</ele>
        <time>2020-08-13T06:47:10.000Z</time>
      </trkpt>
      <trkpt lat="44.11177" lon="6.82036">
        <ele>889.59997558594</ele>
        <time>2020-08-13T06:47:12.000Z</time>
      </trkpt>
      <trkpt lat="44.11186" lon="6.8203">
        <ele>889.40002441406</ele>
        <time>2020-08-13T06:47:13.000Z</time>
      </trkpt>
      <trkpt lat="44.11195" lon="6.82023">
        <ele>889</ele>
        <time>2020-08-13T06:47:14.000Z</time>
      </trkpt>
      <trkpt lat="44.11201" lon="6.82013">
        <ele>888.79998779297</ele>
        <time>2020-08-13T06:47:15.000Z</time>
      </trkpt>
      <trkpt lat="44.11205" lon="6.82003">
        <ele>888.40002441406</ele>
        <time>2020-08-13T06:47:16.000Z</time>
      </trkpt>
      <trkpt lat="44.11207" lon="6.81986">
        <ele>887.20001220703</ele>
        <time>2020-08-13T06:47:17.000Z</time>
      </trkpt>
      <trkpt lat="44.11205" lon="6.81972">
        <ele>886.40002441406</ele>
        <time>2020-08-13T06:47:18.000Z</time>
      </trkpt>
      <trkpt lat="44.11201" lon="6.81958">
        <ele>885.40002441406</ele>
        <time>2020-08-13T06:47:19.000Z</time>
      </trkpt>
      <trkpt lat="44.11195" lon="6.81946">
        <ele>884</ele>
        <time>2020-08-13T06:47:20.000Z</time>
      </trkpt>
      <trkpt lat="44.11192" lon="6.81911">
        <ele>883.20001220703</ele>
        <time>2020-08-13T06:47:23.000Z</time>
      </trkpt>
      <trkpt lat="44.11202" lon="6.81888">
        <ele>883.59997558594</ele>
        <time>2020-08-13T06:47:25.000Z</time>
      </trkpt>
      <trkpt lat="44.11207" lon="6.8188">
        <ele>884</ele>
        <time>2020-08-13T06:47:26.000Z</time>
      </trkpt>
      <trkpt lat="44.11227" lon="6.8185">
        <ele>884.79998779297</ele>
        <time>2020-08-13T06:47:30.000Z</time>
      </trkpt>
      <trkpt lat="44.11231" lon="6.81845">
        <ele>885</ele>
        <time>2020-08-13T06:47:31.000Z</time>
      </trkpt>
      <trkpt lat="44.11251" lon="6.81822">
        <ele>885.59997558594</ele>
        <time>2020-08-13T06:47:35.000Z</time>
      </trkpt>
      <trkpt lat="44.11255" lon="6.81817">
        <ele>886</ele>
        <time>2020-08-13T06:47:36.000Z</time>
      </trkpt>
      <trkpt lat="44.11271" lon="6.81799">
        <ele>887.40002441406</ele>
        <time>2020-08-13T06:47:39.000Z</time>
      </trkpt>
      <trkpt lat="44.11285" lon="6.81782">
        <ele>887.59997558594</ele>
        <time>2020-08-13T06:47:42.000Z</time>
      </trkpt>
      <trkpt lat="44.11305" lon="6.8175">
        <ele>886.79998779297</ele>
        <time>2020-08-13T06:47:47.000Z</time>
      </trkpt>
      <trkpt lat="44.1133" lon="6.8171">
        <ele>887.20001220703</ele>
        <time>2020-08-13T06:47:53.000Z</time>
      </trkpt>
      <trkpt lat="44.11361" lon="6.81654">
        <ele>887</ele>
        <time>2020-08-13T06:48:01.000Z</time>
      </trkpt>
      <trkpt lat="44.11373" lon="6.81621">
        <ele>887</ele>
        <time>2020-08-13T06:48:05.000Z</time>
      </trkpt>
      <trkpt lat="44.11384" lon="6.81579">
        <ele>886.40002441406</ele>
        <time>2020-08-13T06:48:10.000Z</time>
      </trkpt>
      <trkpt lat="44.11387" lon="6.81562">
        <ele>887</ele>
        <time>2020-08-13T06:48:12.000Z</time>
      </trkpt>
      <trkpt lat="44.11399" lon="6.81514">
        <ele>886.40002441406</ele>
        <time>2020-08-13T06:48:18.000Z</time>
      </trkpt>
      <trkpt lat="44.11415" lon="6.81457">
        <ele>887.40002441406</ele>
        <time>2020-08-13T06:48:26.000Z</time>
      </trkpt>
      <trkpt lat="44.11429" lon="6.8141">
        <ele>888.40002441406</ele>
        <time>2020-08-13T06:48:33.000Z</time>
      </trkpt>
      <trkpt lat="44.11431" lon="6.81403">
        <ele>888.40002441406</ele>
        <time>2020-08-13T06:48:34.000Z</time>
      </trkpt>
      <trkpt lat="44.11442" lon="6.81362">
        <ele>889.40002441406</ele>
        <time>2020-08-13T06:48:41.000Z</time>
      </trkpt>
      <trkpt lat="44.11444" lon="6.81357">
        <ele>889.79998779297</ele>
        <time>2020-08-13T06:48:42.000Z</time>
      </trkpt>
      <trkpt lat="44.11448" lon="6.81343">
        <ele>890.40002441406</ele>
        <time>2020-08-13T06:48:45.000Z</time>
      </trkpt>
      <trkpt lat="44.11452" lon="6.81323">
        <ele>891.59997558594</ele>
        <time>2020-08-13T06:48:49.000Z</time>
      </trkpt>
      <trkpt lat="44.11459" lon="6.81299">
        <ele>892.79998779297</ele>
        <time>2020-08-13T06:48:54.000Z</time>
      </trkpt>
      <trkpt lat="44.11463" lon="6.81281">
        <ele>893.79998779297</ele>
        <time>2020-08-13T06:48:58.000Z</time>
      </trkpt>
      <trkpt lat="44.11464" lon="6.81277">
        <ele>894</ele>
        <time>2020-08-13T06:48:59.000Z</time>
      </trkpt>
      <trkpt lat="44.11469" lon="6.81254">
        <ele>895</ele>
        <time>2020-08-13T06:49:04.000Z</time>
      </trkpt>
      <trkpt lat="44.11473" lon="6.81236">
        <ele>896.20001220703</ele>
        <time>2020-08-13T06:49:08.000Z</time>
      </trkpt>
      <trkpt lat="44.11477" lon="6.81219">
        <ele>897.20001220703</ele>
        <time>2020-08-13T06:49:12.000Z</time>
      </trkpt>
      <trkpt lat="44.11481" lon="6.81202">
        <ele>898.40002441406</ele>
        <time>2020-08-13T06:49:16.000Z</time>
      </trkpt>
      <trkpt lat="44.11488" lon="6.81173">
        <ele>899.40002441406</ele>
        <time>2020-08-13T06:49:22.000Z</time>
      </trkpt>
      <trkpt lat="44.11489" lon="6.81168">
        <ele>899.79998779297</ele>
        <time>2020-08-13T06:49:23.000Z</time>
      </trkpt>
      <trkpt lat="44.11492" lon="6.81154">
        <ele>900.59997558594</ele>
        <time>2020-08-13T06:49:26.000Z</time>
      </trkpt>
      <trkpt lat="44.11498" lon="6.81128">
        <ele>901.59997558594</ele>
        <time>2020-08-13T06:49:31.000Z</time>
      </trkpt>
      <trkpt lat="44.115" lon="6.81118">
        <ele>902</ele>
        <time>2020-08-13T06:49:33.000Z</time>
      </trkpt>
      <trkpt lat="44.11503" lon="6.81089">
        <ele>902.79998779297</ele>
        <time>2020-08-13T06:49:38.000Z</time>
      </trkpt>
      <trkpt lat="44.11505" lon="6.81072">
        <ele>903.20001220703</ele>
        <time>2020-08-13T06:49:41.000Z</time>
      </trkpt>
      <trkpt lat="44.11506" lon="6.81042">
        <ele>903.79998779297</ele>
        <time>2020-08-13T06:49:46.000Z</time>
      </trkpt>
      <trkpt lat="44.11508" lon="6.81017">
        <ele>904.59997558594</ele>
        <time>2020-08-13T06:49:50.000Z</time>
      </trkpt>
      <trkpt lat="44.11509" lon="6.81005">
        <ele>904.79998779297</ele>
        <time>2020-08-13T06:49:52.000Z</time>
      </trkpt>
      <trkpt lat="44.11511" lon="6.8097">
        <ele>905.79998779297</ele>
        <time>2020-08-13T06:49:58.000Z</time>
      </trkpt>
      <trkpt lat="44.11512" lon="6.80958">
        <ele>906.20001220703</ele>
        <time>2020-08-13T06:50:00.000Z</time>
      </trkpt>
      <trkpt lat="44.11514" lon="6.8094">
        <ele>906.40002441406</ele>
        <time>2020-08-13T06:50:03.000Z</time>
      </trkpt>
      <trkpt lat="44.11519" lon="6.80923">
        <ele>906.79998779297</ele>
        <time>2020-08-13T06:50:06.000Z</time>
      </trkpt>
      <trkpt lat="44.11522" lon="6.80917">
        <ele>907</ele>
        <time>2020-08-13T06:50:07.000Z</time>
      </trkpt>
      <trkpt lat="44.11524" lon="6.80912">
        <ele>907.20001220703</ele>
        <time>2020-08-13T06:50:08.000Z</time>
      </trkpt>
      <trkpt lat="44.1153" lon="6.80903">
        <ele>907.59997558594</ele>
        <time>2020-08-13T06:50:10.000Z</time>
      </trkpt>
      <trkpt lat="44.11538" lon="6.80891">
        <ele>908</ele>
        <time>2020-08-13T06:50:13.000Z</time>
      </trkpt>
      <trkpt lat="44.11541" lon="6.80886">
        <ele>908.20001220703</ele>
        <time>2020-08-13T06:50:14.000Z</time>
      </trkpt>
      <trkpt lat="44.11565" lon="6.80848">
        <ele>909</ele>
        <time>2020-08-13T06:50:22.000Z</time>
      </trkpt>
      <trkpt lat="44.11567" lon="6.80843">
        <ele>909.20001220703</ele>
        <time>2020-08-13T06:50:23.000Z</time>
      </trkpt>
      <trkpt lat="44.11569" lon="6.80838">
        <ele>909.40002441406</ele>
        <time>2020-08-13T06:50:24.000Z</time>
      </trkpt>
      <trkpt lat="44.11579" lon="6.80807">
        <ele>909.59997558594</ele>
        <time>2020-08-13T06:50:29.000Z</time>
      </trkpt>
      <trkpt lat="44.11586" lon="6.80774">
        <ele>910.20001220703</ele>
        <time>2020-08-13T06:50:34.000Z</time>
      </trkpt>
      <trkpt lat="44.11591" lon="6.80748">
        <ele>911</ele>
        <time>2020-08-13T06:50:38.000Z</time>
      </trkpt>
      <trkpt lat="44.11596" lon="6.80723">
        <ele>911.40002441406</ele>
        <time>2020-08-13T06:50:42.000Z</time>
      </trkpt>
      <trkpt lat="44.11606" lon="6.80693">
        <ele>911.79998779297</ele>
        <time>2020-08-13T06:50:47.000Z</time>
      </trkpt>
      <trkpt lat="44.11624" lon="6.80651">
        <ele>912.40002441406</ele>
        <time>2020-08-13T06:50:54.000Z</time>
      </trkpt>
      <trkpt lat="44.11629" lon="6.80639">
        <ele>912.59997558594</ele>
        <time>2020-08-13T06:50:56.000Z</time>
      </trkpt>
      <trkpt lat="44.11644" lon="6.80595">
        <ele>912.79998779297</ele>
        <time>2020-08-13T06:51:03.000Z</time>
      </trkpt>
      <trkpt lat="44.11658" lon="6.80576">
        <ele>913.20001220703</ele>
        <time>2020-08-13T06:51:07.000Z</time>
      </trkpt>
      <trkpt lat="44.11666" lon="6.80567">
        <ele>913.40002441406</ele>
        <time>2020-08-13T06:51:09.000Z</time>
      </trkpt>
      <trkpt lat="44.11669" lon="6.80563">
        <ele>913.59997558594</ele>
        <time>2020-08-13T06:51:10.000Z</time>
      </trkpt>
      <trkpt lat="44.11672" lon="6.80559">
        <ele>913.79998779297</ele>
        <time>2020-08-13T06:51:11.000Z</time>
      </trkpt>
      <trkpt lat="44.11684" lon="6.80535">
        <ele>914</ele>
        <time>2020-08-13T06:51:15.000Z</time>
      </trkpt>
      <trkpt lat="44.11707" lon="6.80487">
        <ele>913.79998779297</ele>
        <time>2020-08-13T06:51:23.000Z</time>
      </trkpt>
      <trkpt lat="44.1172" lon="6.80467">
        <ele>914.40002441406</ele>
        <time>2020-08-13T06:51:27.000Z</time>
      </trkpt>
      <trkpt lat="44.11724" lon="6.80463">
        <ele>914.59997558594</ele>
        <time>2020-08-13T06:51:28.000Z</time>
      </trkpt>
      <trkpt lat="44.11732" lon="6.80454">
        <ele>915</ele>
        <time>2020-08-13T06:51:30.000Z</time>
      </trkpt>
      <trkpt lat="44.11763" lon="6.80428">
        <ele>915.40002441406</ele>
        <time>2020-08-13T06:51:37.000Z</time>
      </trkpt>
      <trkpt lat="44.11768" lon="6.80425">
        <ele>915.20001220703</ele>
        <time>2020-08-13T06:51:38.000Z</time>
      </trkpt>
      <trkpt lat="44.11788" lon="6.80418">
        <ele>915.59997558594</ele>
        <time>2020-08-13T06:51:42.000Z</time>
      </trkpt>
      <trkpt lat="44.11793" lon="6.80417">
        <ele>915.79998779297</ele>
        <time>2020-08-13T06:51:43.000Z</time>
      </trkpt>
      <trkpt lat="44.11835" lon="6.80403">
        <ele>917</ele>
        <time>2020-08-13T06:51:52.000Z</time>
      </trkpt>
      <trkpt lat="44.11843" lon="6.80397">
        <ele>917.40002441406</ele>
        <time>2020-08-13T06:51:54.000Z</time>
      </trkpt>
      <trkpt lat="44.11855" lon="6.80383">
        <ele>917.79998779297</ele>
        <time>2020-08-13T06:51:57.000Z</time>
      </trkpt>
      <trkpt lat="44.11863" lon="6.80358">
        <ele>918</ele>
        <time>2020-08-13T06:52:01.000Z</time>
      </trkpt>
      <trkpt lat="44.11864" lon="6.80349">
        <ele>918</ele>
        <time>2020-08-13T06:52:02.000Z</time>
      </trkpt>
      <trkpt lat="44.11862" lon="6.80324">
        <ele>918.40002441406</ele>
        <time>2020-08-13T06:52:06.000Z</time>
      </trkpt>
      <trkpt lat="44.11855" lon="6.80307">
        <ele>919.40002441406</ele>
        <time>2020-08-13T06:52:09.000Z</time>
      </trkpt>
      <trkpt lat="44.11852" lon="6.80302">
        <ele>919.59997558594</ele>
        <time>2020-08-13T06:52:10.000Z</time>
      </trkpt>
      <trkpt lat="44.1185" lon="6.80299">
        <ele>920</ele>
        <time>2020-08-13T06:52:11.000Z</time>
      </trkpt>
      <trkpt lat="44.11846" lon="6.80294">
        <ele>920</ele>
        <time>2020-08-13T06:52:12.000Z</time>
      </trkpt>
      <trkpt lat="44.1184" lon="6.80287">
        <ele>920.59997558594</ele>
        <time>2020-08-13T06:52:14.000Z</time>
      </trkpt>
      <trkpt lat="44.11833" lon="6.80282">
        <ele>921</ele>
        <time>2020-08-13T06:52:16.000Z</time>
      </trkpt>
      <trkpt lat="44.11825" lon="6.80276">
        <ele>921.59997558594</ele>
        <time>2020-08-13T06:52:18.000Z</time>
      </trkpt>
      <trkpt lat="44.11807" lon="6.80266">
        <ele>922.79998779297</ele>
        <time>2020-08-13T06:52:23.000Z</time>
      </trkpt>
      <trkpt lat="44.118" lon="6.8026">
        <ele>923.40002441406</ele>
        <time>2020-08-13T06:52:25.000Z</time>
      </trkpt>
      <trkpt lat="44.11791" lon="6.8025">
        <ele>924</ele>
        <time>2020-08-13T06:52:28.000Z</time>
      </trkpt>
      <trkpt lat="44.11785" lon="6.80238">
        <ele>924.59997558594</ele>
        <time>2020-08-13T06:52:31.000Z</time>
      </trkpt>
      <trkpt lat="44.11784" lon="6.80228">
        <ele>925</ele>
        <time>2020-08-13T06:52:33.000Z</time>
      </trkpt>
      <trkpt lat="44.11784" lon="6.80219">
        <ele>925.59997558594</ele>
        <time>2020-08-13T06:52:35.000Z</time>
      </trkpt>
      <trkpt lat="44.11784" lon="6.8021">
        <ele>926.20001220703</ele>
        <time>2020-08-13T06:52:37.000Z</time>
      </trkpt>
      <trkpt lat="44.11786" lon="6.802">
        <ele>926.79998779297</ele>
        <time>2020-08-13T06:52:39.000Z</time>
      </trkpt>
      <trkpt lat="44.11791" lon="6.80186">
        <ele>927.40002441406</ele>
        <time>2020-08-13T06:52:42.000Z</time>
      </trkpt>
      <trkpt lat="44.11795" lon="6.80173">
        <ele>927.79998779297</ele>
        <time>2020-08-13T06:52:45.000Z</time>
      </trkpt>
      <trkpt lat="44.11798" lon="6.80165">
        <ele>928.40002441406</ele>
        <time>2020-08-13T06:52:47.000Z</time>
      </trkpt>
      <trkpt lat="44.11808" lon="6.80146">
        <ele>929.40002441406</ele>
        <time>2020-08-13T06:52:52.000Z</time>
      </trkpt>
      <trkpt lat="44.1181" lon="6.80143">
        <ele>929.79998779297</ele>
        <time>2020-08-13T06:52:53.000Z</time>
      </trkpt>
      <trkpt lat="44.11816" lon="6.80132">
        <ele>930.59997558594</ele>
        <time>2020-08-13T06:52:56.000Z</time>
      </trkpt>
      <trkpt lat="44.11824" lon="6.80116">
        <ele>931.59997558594</ele>
        <time>2020-08-13T06:53:00.000Z</time>
      </trkpt>
      <trkpt lat="44.11827" lon="6.80107">
        <ele>932.20001220703</ele>
        <time>2020-08-13T06:53:02.000Z</time>
      </trkpt>
      <trkpt lat="44.1183" lon="6.80094">
        <ele>932.79998779297</ele>
        <time>2020-08-13T06:53:05.000Z</time>
      </trkpt>
      <trkpt lat="44.11831" lon="6.80077">
        <ele>933.40002441406</ele>
        <time>2020-08-13T06:53:08.000Z</time>
      </trkpt>
      <trkpt lat="44.11828" lon="6.80062">
        <ele>933.79998779297</ele>
        <time>2020-08-13T06:53:11.000Z</time>
      </trkpt>
      <trkpt lat="44.11822" lon="6.80047">
        <ele>934.40002441406</ele>
        <time>2020-08-13T06:53:14.000Z</time>
      </trkpt>
      <trkpt lat="44.11817" lon="6.80027">
        <ele>935</ele>
        <time>2020-08-13T06:53:18.000Z</time>
      </trkpt>
      <trkpt lat="44.11814" lon="6.80007">
        <ele>935.59997558594</ele>
        <time>2020-08-13T06:53:22.000Z</time>
      </trkpt>
      <trkpt lat="44.11813" lon="6.79991">
        <ele>936.20001220703</ele>
        <time>2020-08-13T06:53:25.000Z</time>
      </trkpt>
      <trkpt lat="44.11814" lon="6.79972">
        <ele>937</ele>
        <time>2020-08-13T06:53:29.000Z</time>
      </trkpt>
      <trkpt lat="44.11815" lon="6.79966">
        <ele>937.20001220703</ele>
        <time>2020-08-13T06:53:30.000Z</time>
      </trkpt>
      <trkpt lat="44.11817" lon="6.79938">
        <ele>938.40002441406</ele>
        <time>2020-08-13T06:53:36.000Z</time>
      </trkpt>
      <trkpt lat="44.11818" lon="6.79927">
        <ele>938.59997558594</ele>
        <time>2020-08-13T06:53:38.000Z</time>
      </trkpt>
      <trkpt lat="44.11821" lon="6.79908">
        <ele>939.40002441406</ele>
        <time>2020-08-13T06:53:42.000Z</time>
      </trkpt>
      <trkpt lat="44.11823" lon="6.79891">
        <ele>940.20001220703</ele>
        <time>2020-08-13T06:53:46.000Z</time>
      </trkpt>
      <trkpt lat="44.11824" lon="6.79886">
        <ele>940.40002441406</ele>
        <time>2020-08-13T06:53:47.000Z</time>
      </trkpt>
      <trkpt lat="44.11829" lon="6.79863">
        <ele>941.59997558594</ele>
        <time>2020-08-13T06:53:52.000Z</time>
      </trkpt>
      <trkpt lat="44.11832" lon="6.79851">
        <ele>942.20001220703</ele>
        <time>2020-08-13T06:53:55.000Z</time>
      </trkpt>
      <trkpt lat="44.11834" lon="6.79842">
        <ele>942.59997558594</ele>
        <time>2020-08-13T06:53:57.000Z</time>
      </trkpt>
      <trkpt lat="44.11842" lon="6.79819">
        <ele>943.20001220703</ele>
        <time>2020-08-13T06:54:02.000Z</time>
      </trkpt>
      <trkpt lat="44.11844" lon="6.79811">
        <ele>943.79998779297</ele>
        <time>2020-08-13T06:54:04.000Z</time>
      </trkpt>
      <trkpt lat="44.11851" lon="6.79794">
        <ele>944.79998779297</ele>
        <time>2020-08-13T06:54:08.000Z</time>
      </trkpt>
      <trkpt lat="44.11854" lon="6.79785">
        <ele>945.20001220703</ele>
        <time>2020-08-13T06:54:10.000Z</time>
      </trkpt>
      <trkpt lat="44.11863" lon="6.79768">
        <ele>945.79998779297</ele>
        <time>2020-08-13T06:54:14.000Z</time>
      </trkpt>
      <trkpt lat="44.11873" lon="6.79751">
        <ele>946.40002441406</ele>
        <time>2020-08-13T06:54:18.000Z</time>
      </trkpt>
      <trkpt lat="44.11898" lon="6.79718">
        <ele>946.79998779297</ele>
        <time>2020-08-13T06:54:26.000Z</time>
      </trkpt>
      <trkpt lat="44.11915" lon="6.79697">
        <ele>947</ele>
        <time>2020-08-13T06:54:31.000Z</time>
      </trkpt>
      <trkpt lat="44.11931" lon="6.79677">
        <ele>947.59997558594</ele>
        <time>2020-08-13T06:54:36.000Z</time>
      </trkpt>
      <trkpt lat="44.11935" lon="6.79673">
        <ele>947.79998779297</ele>
        <time>2020-08-13T06:54:37.000Z</time>
      </trkpt>
      <trkpt lat="44.11941" lon="6.79665">
        <ele>948.20001220703</ele>
        <time>2020-08-13T06:54:39.000Z</time>
      </trkpt>
      <trkpt lat="44.11954" lon="6.79649">
        <ele>949</ele>
        <time>2020-08-13T06:54:43.000Z</time>
      </trkpt>
      <trkpt lat="44.11957" lon="6.79645">
        <ele>949.20001220703</ele>
        <time>2020-08-13T06:54:44.000Z</time>
      </trkpt>
      <trkpt lat="44.11975" lon="6.79622">
        <ele>950.40002441406</ele>
        <time>2020-08-13T06:54:50.000Z</time>
      </trkpt>
      <trkpt lat="44.11984" lon="6.7961">
        <ele>951</ele>
        <time>2020-08-13T06:54:53.000Z</time>
      </trkpt>
      <trkpt lat="44.1199" lon="6.79601">
        <ele>951.20001220703</ele>
        <time>2020-08-13T06:54:55.000Z</time>
      </trkpt>
      <trkpt lat="44.11992" lon="6.79597">
        <ele>951.40002441406</ele>
        <time>2020-08-13T06:54:56.000Z</time>
      </trkpt>
      <trkpt lat="44.12001" lon="6.79582">
        <ele>951.79998779297</ele>
        <time>2020-08-13T06:54:59.000Z</time>
      </trkpt>
      <trkpt lat="44.1202" lon="6.79545">
        <ele>952.40002441406</ele>
        <time>2020-08-13T06:55:06.000Z</time>
      </trkpt>
      <trkpt lat="44.12023" lon="6.79539">
        <ele>952.40002441406</ele>
        <time>2020-08-13T06:55:07.000Z</time>
      </trkpt>
      <trkpt lat="44.1203" lon="6.79528">
        <ele>952.40002441406</ele>
        <time>2020-08-13T06:55:09.000Z</time>
      </trkpt>
      <trkpt lat="44.12037" lon="6.7952">
        <ele>952.59997558594</ele>
        <time>2020-08-13T06:55:11.000Z</time>
      </trkpt>
      <trkpt lat="44.12045" lon="6.79511">
        <ele>952.59997558594</ele>
        <time>2020-08-13T06:55:13.000Z</time>
      </trkpt>
      <trkpt lat="44.12064" lon="6.79489">
        <ele>953</ele>
        <time>2020-08-13T06:55:18.000Z</time>
      </trkpt>
      <trkpt lat="44.12092" lon="6.79445">
        <ele>953.40002441406</ele>
        <time>2020-08-13T06:55:26.000Z</time>
      </trkpt>
      <trkpt lat="44.12103" lon="6.79428">
        <ele>953.59997558594</ele>
        <time>2020-08-13T06:55:29.000Z</time>
      </trkpt>
      <trkpt lat="44.12125" lon="6.79391">
        <ele>953.59997558594</ele>
        <time>2020-08-13T06:55:35.000Z</time>
      </trkpt>
      <trkpt lat="44.12156" lon="6.7934">
        <ele>953.79998779297</ele>
        <time>2020-08-13T06:55:43.000Z</time>
      </trkpt>
      <trkpt lat="44.12181" lon="6.7931">
        <ele>954.20001220703</ele>
        <time>2020-08-13T06:55:49.000Z</time>
      </trkpt>
      <trkpt lat="44.12188" lon="6.79302">
        <ele>954.59997558594</ele>
        <time>2020-08-13T06:55:51.000Z</time>
      </trkpt>
      <trkpt lat="44.12193" lon="6.79297">
        <ele>954.79998779297</ele>
        <time>2020-08-13T06:55:52.000Z</time>
      </trkpt>
      <trkpt lat="44.12201" lon="6.79287">
        <ele>954.79998779297</ele>
        <time>2020-08-13T06:55:54.000Z</time>
      </trkpt>
      <trkpt lat="44.12211" lon="6.79272">
        <ele>954.59997558594</ele>
        <time>2020-08-13T06:55:57.000Z</time>
      </trkpt>
      <trkpt lat="44.12215" lon="6.79258">
        <ele>954.59997558594</ele>
        <time>2020-08-13T06:55:59.000Z</time>
      </trkpt>
      <trkpt lat="44.12215" lon="6.79227">
        <ele>954.59997558594</ele>
        <time>2020-08-13T06:56:03.000Z</time>
      </trkpt>
      <trkpt lat="44.12214" lon="6.79212">
        <ele>955</ele>
        <time>2020-08-13T06:56:05.000Z</time>
      </trkpt>
      <trkpt lat="44.12214" lon="6.79195">
        <ele>955.40002441406</ele>
        <time>2020-08-13T06:56:07.000Z</time>
      </trkpt>
      <trkpt lat="44.12215" lon="6.79187">
        <ele>955.40002441406</ele>
        <time>2020-08-13T06:56:08.000Z</time>
      </trkpt>
      <trkpt lat="44.12222" lon="6.79165">
        <ele>955</ele>
        <time>2020-08-13T06:56:11.000Z</time>
      </trkpt>
      <trkpt lat="44.12226" lon="6.79161">
        <ele>954.59997558594</ele>
        <time>2020-08-13T06:56:12.000Z</time>
      </trkpt>
      <trkpt lat="44.12248" lon="6.79136">
        <ele>954.79998779297</ele>
        <time>2020-08-13T06:56:17.000Z</time>
      </trkpt>
      <trkpt lat="44.12253" lon="6.79131">
        <ele>954.79998779297</ele>
        <time>2020-08-13T06:56:18.000Z</time>
      </trkpt>
      <trkpt lat="44.12256" lon="6.79125">
        <ele>955</ele>
        <time>2020-08-13T06:56:19.000Z</time>
      </trkpt>
      <trkpt lat="44.12259" lon="6.7911">
        <ele>955.20001220703</ele>
        <time>2020-08-13T06:56:21.000Z</time>
      </trkpt>
      <trkpt lat="44.12261" lon="6.79094">
        <ele>955.79998779297</ele>
        <time>2020-08-13T06:56:23.000Z</time>
      </trkpt>
      <trkpt lat="44.12265" lon="6.7906">
        <ele>955.20001220703</ele>
        <time>2020-08-13T06:56:27.000Z</time>
      </trkpt>
      <trkpt lat="44.12266" lon="6.79044">
        <ele>954.79998779297</ele>
        <time>2020-08-13T06:56:29.000Z</time>
      </trkpt>
      <trkpt lat="44.12269" lon="6.79028">
        <ele>954.79998779297</ele>
        <time>2020-08-13T06:56:31.000Z</time>
      </trkpt>
      <trkpt lat="44.12275" lon="6.79013">
        <ele>954.79998779297</ele>
        <time>2020-08-13T06:56:33.000Z</time>
      </trkpt>
      <trkpt lat="44.12298" lon="6.7896">
        <ele>954.79998779297</ele>
        <time>2020-08-13T06:56:41.000Z</time>
      </trkpt>
      <trkpt lat="44.12303" lon="6.78945">
        <ele>954.79998779297</ele>
        <time>2020-08-13T06:56:43.000Z</time>
      </trkpt>
      <trkpt lat="44.12305" lon="6.78922">
        <ele>955.20001220703</ele>
        <time>2020-08-13T06:56:46.000Z</time>
      </trkpt>
      <trkpt lat="44.12297" lon="6.78892">
        <ele>955.59997558594</ele>
        <time>2020-08-13T06:56:50.000Z</time>
      </trkpt>
      <trkpt lat="44.12294" lon="6.78885">
        <ele>955.59997558594</ele>
        <time>2020-08-13T06:56:51.000Z</time>
      </trkpt>
      <trkpt lat="44.12283" lon="6.78855">
        <ele>955.40002441406</ele>
        <time>2020-08-13T06:56:55.000Z</time>
      </trkpt>
      <trkpt lat="44.12282" lon="6.78839">
        <ele>955.40002441406</ele>
        <time>2020-08-13T06:56:57.000Z</time>
      </trkpt>
      <trkpt lat="44.12282" lon="6.78823">
        <ele>955.59997558594</ele>
        <time>2020-08-13T06:56:59.000Z</time>
      </trkpt>
      <trkpt lat="44.12283" lon="6.78799">
        <ele>955.79998779297</ele>
        <time>2020-08-13T06:57:02.000Z</time>
      </trkpt>
      <trkpt lat="44.12284" lon="6.78791">
        <ele>955.79998779297</ele>
        <time>2020-08-13T06:57:03.000Z</time>
      </trkpt>
      <trkpt lat="44.12286" lon="6.78783">
        <ele>956</ele>
        <time>2020-08-13T06:57:04.000Z</time>
      </trkpt>
      <trkpt lat="44.12301" lon="6.78758">
        <ele>955.79998779297</ele>
        <time>2020-08-13T06:57:08.000Z</time>
      </trkpt>
      <trkpt lat="44.12317" lon="6.7875">
        <ele>955.79998779297</ele>
        <time>2020-08-13T06:57:11.000Z</time>
      </trkpt>
      <trkpt lat="44.12323" lon="6.78747">
        <ele>955.79998779297</ele>
        <time>2020-08-13T06:57:12.000Z</time>
      </trkpt>
      <trkpt lat="44.1235" lon="6.78734">
        <ele>956.20001220703</ele>
        <time>2020-08-13T06:57:17.000Z</time>
      </trkpt>
      <trkpt lat="44.1236" lon="6.78725">
        <ele>956</ele>
        <time>2020-08-13T06:57:19.000Z</time>
      </trkpt>
      <trkpt lat="44.12367" lon="6.78712">
        <ele>956</ele>
        <time>2020-08-13T06:57:21.000Z</time>
      </trkpt>
      <trkpt lat="44.12372" lon="6.78686">
        <ele>955.79998779297</ele>
        <time>2020-08-13T06:57:24.000Z</time>
      </trkpt>
      <trkpt lat="44.12373" lon="6.78677">
        <ele>955.59997558594</ele>
        <time>2020-08-13T06:57:25.000Z</time>
      </trkpt>
      <trkpt lat="44.12382" lon="6.78604">
        <ele>955.79998779297</ele>
        <time>2020-08-13T06:57:34.000Z</time>
      </trkpt>
      <trkpt lat="44.12383" lon="6.78558">
        <ele>956.20001220703</ele>
        <time>2020-08-13T06:57:40.000Z</time>
      </trkpt>
      <trkpt lat="44.12386" lon="6.78552">
        <ele>956.40002441406</ele>
        <time>2020-08-13T06:57:41.000Z</time>
      </trkpt>
      <trkpt lat="44.12404" lon="6.78516">
        <ele>956.79998779297</ele>
        <time>2020-08-13T06:57:47.000Z</time>
      </trkpt>
      <trkpt lat="44.12413" lon="6.78499">
        <ele>957.20001220703</ele>
        <time>2020-08-13T06:57:50.000Z</time>
      </trkpt>
      <trkpt lat="44.12421" lon="6.78489">
        <ele>957.59997558594</ele>
        <time>2020-08-13T06:57:52.000Z</time>
      </trkpt>
      <trkpt lat="44.12431" lon="6.78475">
        <ele>957.79998779297</ele>
        <time>2020-08-13T06:57:55.000Z</time>
      </trkpt>
      <trkpt lat="44.1244" lon="6.78467">
        <ele>958</ele>
        <time>2020-08-13T06:57:57.000Z</time>
      </trkpt>
      <trkpt lat="44.12448" lon="6.78462">
        <ele>958.40002441406</ele>
        <time>2020-08-13T06:57:59.000Z</time>
      </trkpt>
      <trkpt lat="44.12458" lon="6.78459">
        <ele>959</ele>
        <time>2020-08-13T06:58:01.000Z</time>
      </trkpt>
      <trkpt lat="44.1248" lon="6.78453">
        <ele>959.79998779297</ele>
        <time>2020-08-13T06:58:06.000Z</time>
      </trkpt>
      <trkpt lat="44.12485" lon="6.78451">
        <ele>960</ele>
        <time>2020-08-13T06:58:07.000Z</time>
      </trkpt>
      <trkpt lat="44.1249" lon="6.78449">
        <ele>960.20001220703</ele>
        <time>2020-08-13T06:58:08.000Z</time>
      </trkpt>
      <trkpt lat="44.12501" lon="6.78439">
        <ele>960.40002441406</ele>
        <time>2020-08-13T06:58:11.000Z</time>
      </trkpt>
      <trkpt lat="44.1251" lon="6.78423">
        <ele>961</ele>
        <time>2020-08-13T06:58:14.000Z</time>
      </trkpt>
      <trkpt lat="44.12513" lon="6.78417">
        <ele>961.20001220703</ele>
        <time>2020-08-13T06:58:15.000Z</time>
      </trkpt>
      <trkpt lat="44.12517" lon="6.78405">
        <ele>961.59997558594</ele>
        <time>2020-08-13T06:58:17.000Z</time>
      </trkpt>
      <trkpt lat="44.12528" lon="6.78371">
        <ele>962</ele>
        <time>2020-08-13T06:58:22.000Z</time>
      </trkpt>
      <trkpt lat="44.12532" lon="6.78359">
        <ele>962.20001220703</ele>
        <time>2020-08-13T06:58:24.000Z</time>
      </trkpt>
      <trkpt lat="44.12536" lon="6.78353">
        <ele>962.20001220703</ele>
        <time>2020-08-13T06:58:25.000Z</time>
      </trkpt>
      <trkpt lat="44.12543" lon="6.78344">
        <ele>962.59997558594</ele>
        <time>2020-08-13T06:58:27.000Z</time>
      </trkpt>
      <trkpt lat="44.12551" lon="6.78336">
        <ele>962.79998779297</ele>
        <time>2020-08-13T06:58:29.000Z</time>
      </trkpt>
      <trkpt lat="44.12561" lon="6.7833">
        <ele>963.20001220703</ele>
        <time>2020-08-13T06:58:31.000Z</time>
      </trkpt>
      <trkpt lat="44.12566" lon="6.78327">
        <ele>963.20001220703</ele>
        <time>2020-08-13T06:58:32.000Z</time>
      </trkpt>
      <trkpt lat="44.12574" lon="6.78319">
        <ele>963.59997558594</ele>
        <time>2020-08-13T06:58:34.000Z</time>
      </trkpt>
      <trkpt lat="44.1258" lon="6.78309">
        <ele>964</ele>
        <time>2020-08-13T06:58:36.000Z</time>
      </trkpt>
      <trkpt lat="44.12585" lon="6.78296">
        <ele>964.20001220703</ele>
        <time>2020-08-13T06:58:38.000Z</time>
      </trkpt>
      <trkpt lat="44.12589" lon="6.78284">
        <ele>964.59997558594</ele>
        <time>2020-08-13T06:58:40.000Z</time>
      </trkpt>
      <trkpt lat="44.12592" lon="6.78278">
        <ele>964.59997558594</ele>
        <time>2020-08-13T06:58:41.000Z</time>
      </trkpt>
      <trkpt lat="44.12606" lon="6.78256">
        <ele>964.79998779297</ele>
        <time>2020-08-13T06:58:45.000Z</time>
      </trkpt>
      <trkpt lat="44.12614" lon="6.78248">
        <ele>964.79998779297</ele>
        <time>2020-08-13T06:58:47.000Z</time>
      </trkpt>
      <trkpt lat="44.12628" lon="6.7824">
        <ele>965.20001220703</ele>
        <time>2020-08-13T06:58:50.000Z</time>
      </trkpt>
      <trkpt lat="44.12632" lon="6.78239">
        <ele>965.20001220703</ele>
        <time>2020-08-13T06:58:51.000Z</time>
      </trkpt>
      <trkpt lat="44.12637" lon="6.78238">
        <ele>965.59997558594</ele>
        <time>2020-08-13T06:58:52.000Z</time>
      </trkpt>
      <trkpt lat="44.12651" lon="6.78235">
        <ele>966.40002441406</ele>
        <time>2020-08-13T06:58:55.000Z</time>
      </trkpt>
      <trkpt lat="44.12655" lon="6.78234">
        <ele>966.79998779297</ele>
        <time>2020-08-13T06:58:56.000Z</time>
      </trkpt>
      <trkpt lat="44.1266" lon="6.78232">
        <ele>966.79998779297</ele>
        <time>2020-08-13T06:58:57.000Z</time>
      </trkpt>
      <trkpt lat="44.12675" lon="6.78218">
        <ele>967.40002441406</ele>
        <time>2020-08-13T06:59:01.000Z</time>
      </trkpt>
      <trkpt lat="44.12677" lon="6.78212">
        <ele>967.59997558594</ele>
        <time>2020-08-13T06:59:02.000Z</time>
      </trkpt>
      <trkpt lat="44.12682" lon="6.78195">
        <ele>968.20001220703</ele>
        <time>2020-08-13T06:59:05.000Z</time>
      </trkpt>
      <trkpt lat="44.12681" lon="6.78169">
        <ele>968.59997558594</ele>
        <time>2020-08-13T06:59:09.000Z</time>
      </trkpt>
      <trkpt lat="44.1268" lon="6.78163">
        <ele>969</ele>
        <time>2020-08-13T06:59:10.000Z</time>
      </trkpt>
      <trkpt lat="44.12676" lon="6.78143">
        <ele>969.79998779297</ele>
        <time>2020-08-13T06:59:13.000Z</time>
      </trkpt>
      <trkpt lat="44.12675" lon="6.7813">
        <ele>970.20001220703</ele>
        <time>2020-08-13T06:59:15.000Z</time>
      </trkpt>
      <trkpt lat="44.12681" lon="6.78106">
        <ele>970.79998779297</ele>
        <time>2020-08-13T06:59:19.000Z</time>
      </trkpt>
      <trkpt lat="44.12693" lon="6.78087">
        <ele>971.20001220703</ele>
        <time>2020-08-13T06:59:23.000Z</time>
      </trkpt>
      <trkpt lat="44.12696" lon="6.78083">
        <ele>971.59997558594</ele>
        <time>2020-08-13T06:59:24.000Z</time>
      </trkpt>
      <trkpt lat="44.12705" lon="6.7807">
        <ele>972</ele>
        <time>2020-08-13T06:59:27.000Z</time>
      </trkpt>
      <trkpt lat="44.12707" lon="6.78065">
        <ele>972.40002441406</ele>
        <time>2020-08-13T06:59:28.000Z</time>
      </trkpt>
      <trkpt lat="44.12709" lon="6.7806">
        <ele>972.59997558594</ele>
        <time>2020-08-13T06:59:29.000Z</time>
      </trkpt>
      <trkpt lat="44.12713" lon="6.78048">
        <ele>973.20001220703</ele>
        <time>2020-08-13T06:59:31.000Z</time>
      </trkpt>
      <trkpt lat="44.12714" lon="6.78042">
        <ele>973.40002441406</ele>
        <time>2020-08-13T06:59:32.000Z</time>
      </trkpt>
      <trkpt lat="44.12716" lon="6.78029">
        <ele>973.79998779297</ele>
        <time>2020-08-13T06:59:34.000Z</time>
      </trkpt>
      <trkpt lat="44.1272" lon="6.78002">
        <ele>974.59997558594</ele>
        <time>2020-08-13T06:59:38.000Z</time>
      </trkpt>
      <trkpt lat="44.12724" lon="6.77967">
        <ele>975.20001220703</ele>
        <time>2020-08-13T06:59:43.000Z</time>
      </trkpt>
      <trkpt lat="44.12727" lon="6.77946">
        <ele>975.59997558594</ele>
        <time>2020-08-13T06:59:46.000Z</time>
      </trkpt>
      <trkpt lat="44.12729" lon="6.7793">
        <ele>975.79998779297</ele>
        <time>2020-08-13T06:59:48.000Z</time>
      </trkpt>
      <trkpt lat="44.1273" lon="6.77917">
        <ele>975.79998779297</ele>
        <time>2020-08-13T06:59:50.000Z</time>
      </trkpt>
      <trkpt lat="44.12737" lon="6.7785">
        <ele>976.79998779297</ele>
        <time>2020-08-13T06:59:59.000Z</time>
      </trkpt>
      <trkpt lat="44.12749" lon="6.77817">
        <ele>977.20001220703</ele>
        <time>2020-08-13T07:00:04.000Z</time>
      </trkpt>
      <trkpt lat="44.12751" lon="6.77813">
        <ele>977.20001220703</ele>
        <time>2020-08-13T07:00:05.000Z</time>
      </trkpt>
      <trkpt lat="44.12764" lon="6.77791">
        <ele>977.79998779297</ele>
        <time>2020-08-13T07:00:09.000Z</time>
      </trkpt>
      <trkpt lat="44.12773" lon="6.77774">
        <ele>978.20001220703</ele>
        <time>2020-08-13T07:00:12.000Z</time>
      </trkpt>
      <trkpt lat="44.12786" lon="6.77746">
        <ele>978.79998779297</ele>
        <time>2020-08-13T07:00:17.000Z</time>
      </trkpt>
      <trkpt lat="44.12802" lon="6.77727">
        <ele>979.20001220703</ele>
        <time>2020-08-13T07:00:21.000Z</time>
      </trkpt>
      <trkpt lat="44.12807" lon="6.77724">
        <ele>979.40002441406</ele>
        <time>2020-08-13T07:00:22.000Z</time>
      </trkpt>
      <trkpt lat="44.12816" lon="6.77717">
        <ele>979.40002441406</ele>
        <time>2020-08-13T07:00:24.000Z</time>
      </trkpt>
      <trkpt lat="44.12832" lon="6.77698">
        <ele>980</ele>
        <time>2020-08-13T07:00:28.000Z</time>
      </trkpt>
      <trkpt lat="44.1285" lon="6.77665">
        <ele>980.79998779297</ele>
        <time>2020-08-13T07:00:34.000Z</time>
      </trkpt>
      <trkpt lat="44.12852" lon="6.77659">
        <ele>981</ele>
        <time>2020-08-13T07:00:35.000Z</time>
      </trkpt>
      <trkpt lat="44.12861" lon="6.77642">
        <ele>981.59997558594</ele>
        <time>2020-08-13T07:00:38.000Z</time>
      </trkpt>
      <trkpt lat="44.12869" lon="6.77626">
        <ele>981.79998779297</ele>
        <time>2020-08-13T07:00:41.000Z</time>
      </trkpt>
      <trkpt lat="44.12873" lon="6.7762">
        <ele>982</ele>
        <time>2020-08-13T07:00:42.000Z</time>
      </trkpt>
      <trkpt lat="44.12895" lon="6.7758">
        <ele>982.79998779297</ele>
        <time>2020-08-13T07:00:49.000Z</time>
      </trkpt>
      <trkpt lat="44.12902" lon="6.7757">
        <ele>983</ele>
        <time>2020-08-13T07:00:51.000Z</time>
      </trkpt>
      <trkpt lat="44.12919" lon="6.77552">
        <ele>983.40002441406</ele>
        <time>2020-08-13T07:00:55.000Z</time>
      </trkpt>
      <trkpt lat="44.12931" lon="6.77539">
        <ele>984</ele>
        <time>2020-08-13T07:00:58.000Z</time>
      </trkpt>
      <trkpt lat="44.12941" lon="6.77524">
        <ele>984.20001220703</ele>
        <time>2020-08-13T07:01:01.000Z</time>
      </trkpt>
      <trkpt lat="44.12949" lon="6.77489">
        <ele>984.79998779297</ele>
        <time>2020-08-13T07:01:06.000Z</time>
      </trkpt>
      <trkpt lat="44.12949" lon="6.77481">
        <ele>984.79998779297</ele>
        <time>2020-08-13T07:01:07.000Z</time>
      </trkpt>
      <trkpt lat="44.12952" lon="6.77451">
        <ele>985</ele>
        <time>2020-08-13T07:01:11.000Z</time>
      </trkpt>
      <trkpt lat="44.12953" lon="6.77442">
        <ele>985</ele>
        <time>2020-08-13T07:01:12.000Z</time>
      </trkpt>
      <trkpt lat="44.12955" lon="6.77435">
        <ele>985.20001220703</ele>
        <time>2020-08-13T07:01:13.000Z</time>
      </trkpt>
      <trkpt lat="44.12967" lon="6.77412">
        <ele>985.79998779297</ele>
        <time>2020-08-13T07:01:17.000Z</time>
      </trkpt>
      <trkpt lat="44.12971" lon="6.77408">
        <ele>986</ele>
        <time>2020-08-13T07:01:18.000Z</time>
      </trkpt>
      <trkpt lat="44.12984" lon="6.77402">
        <ele>986.79998779297</ele>
        <time>2020-08-13T07:01:21.000Z</time>
      </trkpt>
      <trkpt lat="44.12988" lon="6.774">
        <ele>987</ele>
        <time>2020-08-13T07:01:22.000Z</time>
      </trkpt>
      <trkpt lat="44.12993" lon="6.77399">
        <ele>987.20001220703</ele>
        <time>2020-08-13T07:01:23.000Z</time>
      </trkpt>
      <trkpt lat="44.13008" lon="6.77397">
        <ele>988</ele>
        <time>2020-08-13T07:01:26.000Z</time>
      </trkpt>
      <trkpt lat="44.13013" lon="6.77397">
        <ele>988.20001220703</ele>
        <time>2020-08-13T07:01:27.000Z</time>
      </trkpt>
      <trkpt lat="44.13022" lon="6.77398">
        <ele>988.40002441406</ele>
        <time>2020-08-13T07:01:29.000Z</time>
      </trkpt>
      <trkpt lat="44.13045" lon="6.77401">
        <ele>989.40002441406</ele>
        <time>2020-08-13T07:01:34.000Z</time>
      </trkpt>
      <trkpt lat="44.13076" lon="6.77404">
        <ele>990.40002441406</ele>
        <time>2020-08-13T07:01:41.000Z</time>
      </trkpt>
      <trkpt lat="44.13102" lon="6.7741">
        <ele>991.40002441406</ele>
        <time>2020-08-13T07:01:47.000Z</time>
      </trkpt>
      <trkpt lat="44.13107" lon="6.7741">
        <ele>991.59997558594</ele>
        <time>2020-08-13T07:01:48.000Z</time>
      </trkpt>
      <trkpt lat="44.13116" lon="6.77411">
        <ele>992</ele>
        <time>2020-08-13T07:01:50.000Z</time>
      </trkpt>
      <trkpt lat="44.13129" lon="6.77407">
        <ele>992.59997558594</ele>
        <time>2020-08-13T07:01:53.000Z</time>
      </trkpt>
      <trkpt lat="44.13153" lon="6.77392">
        <ele>993.59997558594</ele>
        <time>2020-08-13T07:01:59.000Z</time>
      </trkpt>
      <trkpt lat="44.13158" lon="6.77389">
        <ele>993.79998779297</ele>
        <time>2020-08-13T07:02:00.000Z</time>
      </trkpt>
      <trkpt lat="44.13176" lon="6.7737">
        <ele>994.79998779297</ele>
        <time>2020-08-13T07:02:05.000Z</time>
      </trkpt>
      <trkpt lat="44.13182" lon="6.7736">
        <ele>995</ele>
        <time>2020-08-13T07:02:07.000Z</time>
      </trkpt>
      <trkpt lat="44.13198" lon="6.7733">
        <ele>995.79998779297</ele>
        <time>2020-08-13T07:02:13.000Z</time>
      </trkpt>
      <trkpt lat="44.13201" lon="6.77325">
        <ele>996</ele>
        <time>2020-08-13T07:02:14.000Z</time>
      </trkpt>
      <trkpt lat="44.13216" lon="6.77301">
        <ele>997</ele>
        <time>2020-08-13T07:02:19.000Z</time>
      </trkpt>
      <trkpt lat="44.13221" lon="6.77291">
        <ele>997.20001220703</ele>
        <time>2020-08-13T07:02:21.000Z</time>
      </trkpt>
      <trkpt lat="44.13234" lon="6.77265">
        <ele>998</ele>
        <time>2020-08-13T07:02:26.000Z</time>
      </trkpt>
      <trkpt lat="44.1324" lon="6.77255">
        <ele>998.40002441406</ele>
        <time>2020-08-13T07:02:28.000Z</time>
      </trkpt>
      <trkpt lat="44.13247" lon="6.77241">
        <ele>999</ele>
        <time>2020-08-13T07:02:31.000Z</time>
      </trkpt>
      <trkpt lat="44.13257" lon="6.77212">
        <ele>999.79998779297</ele>
        <time>2020-08-13T07:02:36.000Z</time>
      </trkpt>
      <trkpt lat="44.13263" lon="6.77193">
        <ele>1000</ele>
        <time>2020-08-13T07:02:39.000Z</time>
      </trkpt>
      <trkpt lat="44.13264" lon="6.77188">
        <ele>1000.200012207</ele>
        <time>2020-08-13T07:02:40.000Z</time>
      </trkpt>
      <trkpt lat="44.13272" lon="6.77168">
        <ele>1001</ele>
        <time>2020-08-13T07:02:43.000Z</time>
      </trkpt>
      <trkpt lat="44.13279" lon="6.7715">
        <ele>1001.4000244141</ele>
        <time>2020-08-13T07:02:46.000Z</time>
      </trkpt>
      <trkpt lat="44.133" lon="6.77105">
        <ele>1002.200012207</ele>
        <time>2020-08-13T07:02:54.000Z</time>
      </trkpt>
      <trkpt lat="44.13308" lon="6.77089">
        <ele>1002.5999755859</ele>
        <time>2020-08-13T07:02:57.000Z</time>
      </trkpt>
      <trkpt lat="44.1332" lon="6.77065">
        <ele>1003.4000244141</ele>
        <time>2020-08-13T07:03:02.000Z</time>
      </trkpt>
      <trkpt lat="44.13325" lon="6.77054">
        <ele>1003.5999755859</ele>
        <time>2020-08-13T07:03:04.000Z</time>
      </trkpt>
      <trkpt lat="44.13341" lon="6.77021">
        <ele>1004.799987793</ele>
        <time>2020-08-13T07:03:10.000Z</time>
      </trkpt>
      <trkpt lat="44.13365" lon="6.76975">
        <ele>1005.4000244141</ele>
        <time>2020-08-13T07:03:18.000Z</time>
      </trkpt>
      <trkpt lat="44.13373" lon="6.76964">
        <ele>1005.4000244141</ele>
        <time>2020-08-13T07:03:20.000Z</time>
      </trkpt>
      <trkpt lat="44.13383" lon="6.76958">
        <ele>1005.4000244141</ele>
        <time>2020-08-13T07:03:22.000Z</time>
      </trkpt>
      <trkpt lat="44.13394" lon="6.76954">
        <ele>1005.4000244141</ele>
        <time>2020-08-13T07:03:24.000Z</time>
      </trkpt>
      <trkpt lat="44.13415" lon="6.76947">
        <ele>1005.799987793</ele>
        <time>2020-08-13T07:03:28.000Z</time>
      </trkpt>
      <trkpt lat="44.13468" lon="6.76928">
        <ele>1006.200012207</ele>
        <time>2020-08-13T07:03:38.000Z</time>
      </trkpt>
      <trkpt lat="44.13496" lon="6.7691">
        <ele>1006.799987793</ele>
        <time>2020-08-13T07:03:44.000Z</time>
      </trkpt>
      <trkpt lat="44.135" lon="6.76906">
        <ele>1006.799987793</ele>
        <time>2020-08-13T07:03:45.000Z</time>
      </trkpt>
      <trkpt lat="44.13526" lon="6.76878">
        <ele>1006.799987793</ele>
        <time>2020-08-13T07:03:51.000Z</time>
      </trkpt>
      <trkpt lat="44.13538" lon="6.76862">
        <ele>1006.4000244141</ele>
        <time>2020-08-13T07:03:54.000Z</time>
      </trkpt>
      <trkpt lat="44.13546" lon="6.76853">
        <ele>1006.4000244141</ele>
        <time>2020-08-13T07:03:56.000Z</time>
      </trkpt>
      <trkpt lat="44.13577" lon="6.76833">
        <ele>1006.799987793</ele>
        <time>2020-08-13T07:04:02.000Z</time>
      </trkpt>
      <trkpt lat="44.13602" lon="6.7682">
        <ele>1006.799987793</ele>
        <time>2020-08-13T07:04:07.000Z</time>
      </trkpt>
      <trkpt lat="44.13611" lon="6.76813">
        <ele>1007</ele>
        <time>2020-08-13T07:04:09.000Z</time>
      </trkpt>
      <trkpt lat="44.13624" lon="6.768">
        <ele>1007.4000244141</ele>
        <time>2020-08-13T07:04:12.000Z</time>
      </trkpt>
      <trkpt lat="44.13631" lon="6.7679">
        <ele>1007.5999755859</ele>
        <time>2020-08-13T07:04:14.000Z</time>
      </trkpt>
      <trkpt lat="44.13637" lon="6.76779">
        <ele>1008</ele>
        <time>2020-08-13T07:04:16.000Z</time>
      </trkpt>
      <trkpt lat="44.13654" lon="6.76745">
        <ele>1008.5999755859</ele>
        <time>2020-08-13T07:04:22.000Z</time>
      </trkpt>
      <trkpt lat="44.13666" lon="6.76715">
        <ele>1009</ele>
        <time>2020-08-13T07:04:27.000Z</time>
      </trkpt>
      <trkpt lat="44.13676" lon="6.76692">
        <ele>1009.4000244141</ele>
        <time>2020-08-13T07:04:31.000Z</time>
      </trkpt>
      <trkpt lat="44.13685" lon="6.76669">
        <ele>1010.200012207</ele>
        <time>2020-08-13T07:04:35.000Z</time>
      </trkpt>
      <trkpt lat="44.13697" lon="6.76641">
        <ele>1011</ele>
        <time>2020-08-13T07:04:40.000Z</time>
      </trkpt>
      <trkpt lat="44.13706" lon="6.76626">
        <ele>1011.200012207</ele>
        <time>2020-08-13T07:04:43.000Z</time>
      </trkpt>
      <trkpt lat="44.13719" lon="6.76608">
        <ele>1011.799987793</ele>
        <time>2020-08-13T07:04:47.000Z</time>
      </trkpt>
      <trkpt lat="44.13727" lon="6.766">
        <ele>1012.4000244141</ele>
        <time>2020-08-13T07:04:49.000Z</time>
      </trkpt>
      <trkpt lat="44.13753" lon="6.76572">
        <ele>1013</ele>
        <time>2020-08-13T07:04:56.000Z</time>
      </trkpt>
      <trkpt lat="44.13761" lon="6.76565">
        <ele>1013.4000244141</ele>
        <time>2020-08-13T07:04:58.000Z</time>
      </trkpt>
      <trkpt lat="44.13784" lon="6.76538">
        <ele>1014</ele>
        <time>2020-08-13T07:05:04.000Z</time>
      </trkpt>
      <trkpt lat="44.13798" lon="6.76523">
        <ele>1014.5999755859</ele>
        <time>2020-08-13T07:05:08.000Z</time>
      </trkpt>
      <trkpt lat="44.13813" lon="6.76509">
        <ele>1015.200012207</ele>
        <time>2020-08-13T07:05:12.000Z</time>
      </trkpt>
      <trkpt lat="44.13825" lon="6.76499">
        <ele>1015.5999755859</ele>
        <time>2020-08-13T07:05:15.000Z</time>
      </trkpt>
      <trkpt lat="44.1384" lon="6.76486">
        <ele>1016.4000244141</ele>
        <time>2020-08-13T07:05:19.000Z</time>
      </trkpt>
      <trkpt lat="44.13853" lon="6.76477">
        <ele>1016.799987793</ele>
        <time>2020-08-13T07:05:22.000Z</time>
      </trkpt>
      <trkpt lat="44.13877" lon="6.76456">
        <ele>1017.200012207</ele>
        <time>2020-08-13T07:05:28.000Z</time>
      </trkpt>
      <trkpt lat="44.13889" lon="6.76447">
        <ele>1017.799987793</ele>
        <time>2020-08-13T07:05:31.000Z</time>
      </trkpt>
      <trkpt lat="44.13906" lon="6.76433">
        <ele>1018</ele>
        <time>2020-08-13T07:05:35.000Z</time>
      </trkpt>
      <trkpt lat="44.13921" lon="6.76416">
        <ele>1018.4000244141</ele>
        <time>2020-08-13T07:05:39.000Z</time>
      </trkpt>
      <trkpt lat="44.13924" lon="6.76412">
        <ele>1018.5999755859</ele>
        <time>2020-08-13T07:05:40.000Z</time>
      </trkpt>
      <trkpt lat="44.13927" lon="6.76408">
        <ele>1018.799987793</ele>
        <time>2020-08-13T07:05:41.000Z</time>
      </trkpt>
      <trkpt lat="44.13934" lon="6.76399">
        <ele>1019</ele>
        <time>2020-08-13T07:05:43.000Z</time>
      </trkpt>
      <trkpt lat="44.13942" lon="6.76392">
        <ele>1019</ele>
        <time>2020-08-13T07:05:45.000Z</time>
      </trkpt>
      <trkpt lat="44.13949" lon="6.76385">
        <ele>1019.4000244141</ele>
        <time>2020-08-13T07:05:47.000Z</time>
      </trkpt>
      <trkpt lat="44.13957" lon="6.76379">
        <ele>1019.799987793</ele>
        <time>2020-08-13T07:05:49.000Z</time>
      </trkpt>
      <trkpt lat="44.13961" lon="6.76376">
        <ele>1020</ele>
        <time>2020-08-13T07:05:50.000Z</time>
      </trkpt>
      <trkpt lat="44.13995" lon="6.76353">
        <ele>1020.799987793</ele>
        <time>2020-08-13T07:05:58.000Z</time>
      </trkpt>
      <trkpt lat="44.14007" lon="6.76346">
        <ele>1021.200012207</ele>
        <time>2020-08-13T07:06:01.000Z</time>
      </trkpt>
      <trkpt lat="44.14027" lon="6.76335">
        <ele>1022.200012207</ele>
        <time>2020-08-13T07:06:06.000Z</time>
      </trkpt>
      <trkpt lat="44.1403" lon="6.76332">
        <ele>1022.4000244141</ele>
        <time>2020-08-13T07:06:07.000Z</time>
      </trkpt>
      <trkpt lat="44.14039" lon="6.76317">
        <ele>1023.4000244141</ele>
        <time>2020-08-13T07:06:11.000Z</time>
      </trkpt>
      <trkpt lat="44.14041" lon="6.76312">
        <ele>1023.5999755859</ele>
        <time>2020-08-13T07:06:12.000Z</time>
      </trkpt>
      <trkpt lat="44.14042" lon="6.76284">
        <ele>1024.4000244141</ele>
        <time>2020-08-13T07:06:17.000Z</time>
      </trkpt>
      <trkpt lat="44.14039" lon="6.76257">
        <ele>1025.5999755859</ele>
        <time>2020-08-13T07:06:22.000Z</time>
      </trkpt>
      <trkpt lat="44.14038" lon="6.76241">
        <ele>1026.1999511719</ele>
        <time>2020-08-13T07:06:25.000Z</time>
      </trkpt>
      <trkpt lat="44.14037" lon="6.76226">
        <ele>1026.8000488281</ele>
        <time>2020-08-13T07:06:28.000Z</time>
      </trkpt>
      <trkpt lat="44.14038" lon="6.7621">
        <ele>1027.4000244141</ele>
        <time>2020-08-13T07:06:31.000Z</time>
      </trkpt>
      <trkpt lat="44.14044" lon="6.76194">
        <ele>1028</ele>
        <time>2020-08-13T07:06:35.000Z</time>
      </trkpt>
      <trkpt lat="44.14049" lon="6.76186">
        <ele>1028.5999755859</ele>
        <time>2020-08-13T07:06:37.000Z</time>
      </trkpt>
      <trkpt lat="44.14053" lon="6.76178">
        <ele>1029</ele>
        <time>2020-08-13T07:06:39.000Z</time>
      </trkpt>
      <trkpt lat="44.14062" lon="6.76166">
        <ele>1029.4000244141</ele>
        <time>2020-08-13T07:06:42.000Z</time>
      </trkpt>
      <trkpt lat="44.14073" lon="6.76153">
        <ele>1030</ele>
        <time>2020-08-13T07:06:46.000Z</time>
      </trkpt>
      <trkpt lat="44.14076" lon="6.7615">
        <ele>1030.4000244141</ele>
        <time>2020-08-13T07:06:47.000Z</time>
      </trkpt>
      <trkpt lat="44.14088" lon="6.76139">
        <ele>1031.1999511719</ele>
        <time>2020-08-13T07:06:51.000Z</time>
      </trkpt>
      <trkpt lat="44.14092" lon="6.76137">
        <ele>1031.4000244141</ele>
        <time>2020-08-13T07:06:52.000Z</time>
      </trkpt>
      <trkpt lat="44.14105" lon="6.7613">
        <ele>1032.1999511719</ele>
        <time>2020-08-13T07:06:56.000Z</time>
      </trkpt>
      <trkpt lat="44.14112" lon="6.76127">
        <ele>1032.8000488281</ele>
        <time>2020-08-13T07:06:58.000Z</time>
      </trkpt>
      <trkpt lat="44.14122" lon="6.76122">
        <ele>1033.4000244141</ele>
        <time>2020-08-13T07:07:01.000Z</time>
      </trkpt>
      <trkpt lat="44.1414" lon="6.76114">
        <ele>1034.1999511719</ele>
        <time>2020-08-13T07:07:06.000Z</time>
      </trkpt>
      <trkpt lat="44.14143" lon="6.76112">
        <ele>1034.4000244141</ele>
        <time>2020-08-13T07:07:07.000Z</time>
      </trkpt>
      <trkpt lat="44.1416" lon="6.76098">
        <ele>1035.5999755859</ele>
        <time>2020-08-13T07:07:12.000Z</time>
      </trkpt>
      <trkpt lat="44.14168" lon="6.76088">
        <ele>1036.1999511719</ele>
        <time>2020-08-13T07:07:15.000Z</time>
      </trkpt>
      <trkpt lat="44.14175" lon="6.76078">
        <ele>1036.5999755859</ele>
        <time>2020-08-13T07:07:18.000Z</time>
      </trkpt>
      <trkpt lat="44.14189" lon="6.76057">
        <ele>1037.8000488281</ele>
        <time>2020-08-13T07:07:24.000Z</time>
      </trkpt>
      <trkpt lat="44.14209" lon="6.76046">
        <ele>1038.5999755859</ele>
        <time>2020-08-13T07:07:30.000Z</time>
      </trkpt>
      <trkpt lat="44.14217" lon="6.76048">
        <ele>1038.8000488281</ele>
        <time>2020-08-13T07:07:32.000Z</time>
      </trkpt>
      <trkpt lat="44.14228" lon="6.76054">
        <ele>1039</ele>
        <time>2020-08-13T07:07:35.000Z</time>
      </trkpt>
      <trkpt lat="44.14241" lon="6.76076">
        <ele>1039</ele>
        <time>2020-08-13T07:07:40.000Z</time>
      </trkpt>
      <trkpt lat="44.14242" lon="6.76104">
        <ele>1039.8000488281</ele>
        <time>2020-08-13T07:07:45.000Z</time>
      </trkpt>
      <trkpt lat="44.14234" lon="6.76122">
        <ele>1040.5999755859</ele>
        <time>2020-08-13T07:07:49.000Z</time>
      </trkpt>
      <trkpt lat="44.14232" lon="6.76125">
        <ele>1041</ele>
        <time>2020-08-13T07:07:50.000Z</time>
      </trkpt>
      <trkpt lat="44.1422" lon="6.76146">
        <ele>1042</ele>
        <time>2020-08-13T07:07:55.000Z</time>
      </trkpt>
      <trkpt lat="44.14207" lon="6.76163">
        <ele>1043.1999511719</ele>
        <time>2020-08-13T07:08:00.000Z</time>
      </trkpt>
      <trkpt lat="44.14205" lon="6.76167">
        <ele>1043.4000244141</ele>
        <time>2020-08-13T07:08:01.000Z</time>
      </trkpt>
      <trkpt lat="44.14195" lon="6.76178">
        <ele>1044.1999511719</ele>
        <time>2020-08-13T07:08:05.000Z</time>
      </trkpt>
      <trkpt lat="44.14182" lon="6.7619">
        <ele>1045</ele>
        <time>2020-08-13T07:08:09.000Z</time>
      </trkpt>
      <trkpt lat="44.14174" lon="6.76199">
        <ele>1045.1999511719</ele>
        <time>2020-08-13T07:08:12.000Z</time>
      </trkpt>
      <trkpt lat="44.1416" lon="6.76222">
        <ele>1046.1999511719</ele>
        <time>2020-08-13T07:08:18.000Z</time>
      </trkpt>
      <trkpt lat="44.14158" lon="6.76226">
        <ele>1046.4000244141</ele>
        <time>2020-08-13T07:08:19.000Z</time>
      </trkpt>
      <trkpt lat="44.14142" lon="6.7625">
        <ele>1047.1999511719</ele>
        <time>2020-08-13T07:08:26.000Z</time>
      </trkpt>
      <trkpt lat="44.14141" lon="6.76254">
        <ele>1047.4000244141</ele>
        <time>2020-08-13T07:08:27.000Z</time>
      </trkpt>
      <trkpt lat="44.14142" lon="6.76259">
        <ele>1047.5999755859</ele>
        <time>2020-08-13T07:08:28.000Z</time>
      </trkpt>
      <trkpt lat="44.14144" lon="6.76262">
        <ele>1047.5999755859</ele>
        <time>2020-08-13T07:08:29.000Z</time>
      </trkpt>
      <trkpt lat="44.14155" lon="6.76258">
        <ele>1047.8000488281</ele>
        <time>2020-08-13T07:08:32.000Z</time>
      </trkpt>
      <trkpt lat="44.14166" lon="6.76239">
        <ele>1048</ele>
        <time>2020-08-13T07:08:36.000Z</time>
      </trkpt>
      <trkpt lat="44.14168" lon="6.76233">
        <ele>1048</ele>
        <time>2020-08-13T07:08:37.000Z</time>
      </trkpt>
      <trkpt lat="44.14176" lon="6.76211">
        <ele>1048.4000244141</ele>
        <time>2020-08-13T07:08:41.000Z</time>
      </trkpt>
      <trkpt lat="44.1418" lon="6.76206">
        <ele>1048.5999755859</ele>
        <time>2020-08-13T07:08:42.000Z</time>
      </trkpt>
      <trkpt lat="44.14192" lon="6.76194">
        <ele>1048.5999755859</ele>
        <time>2020-08-13T07:08:45.000Z</time>
      </trkpt>
      <trkpt lat="44.14227" lon="6.76159">
        <ele>1049.1999511719</ele>
        <time>2020-08-13T07:08:54.000Z</time>
      </trkpt>
      <trkpt lat="44.14261" lon="6.76119">
        <ele>1049</ele>
        <time>2020-08-13T07:09:03.000Z</time>
      </trkpt>
      <trkpt lat="44.14263" lon="6.76114">
        <ele>1048.8000488281</ele>
        <time>2020-08-13T07:09:04.000Z</time>
      </trkpt>
      <trkpt lat="44.14274" lon="6.76093">
        <ele>1048.8000488281</ele>
        <time>2020-08-13T07:09:08.000Z</time>
      </trkpt>
      <trkpt lat="44.14275" lon="6.76088">
        <ele>1049</ele>
        <time>2020-08-13T07:09:09.000Z</time>
      </trkpt>
      <trkpt lat="44.1428" lon="6.76073">
        <ele>1049.5999755859</ele>
        <time>2020-08-13T07:09:12.000Z</time>
      </trkpt>
      <trkpt lat="44.14285" lon="6.76058">
        <ele>1050.4000244141</ele>
        <time>2020-08-13T07:09:15.000Z</time>
      </trkpt>
      <trkpt lat="44.14285" lon="6.76053">
        <ele>1050.8000488281</ele>
        <time>2020-08-13T07:09:16.000Z</time>
      </trkpt>
      <trkpt lat="44.1429" lon="6.76038">
        <ele>1052</ele>
        <time>2020-08-13T07:09:19.000Z</time>
      </trkpt>
      <trkpt lat="44.14292" lon="6.76034">
        <ele>1052.1999511719</ele>
        <time>2020-08-13T07:09:20.000Z</time>
      </trkpt>
      <trkpt lat="44.14303" lon="6.75998">
        <ele>1053</ele>
        <time>2020-08-13T07:09:28.000Z</time>
      </trkpt>
      <trkpt lat="44.14306" lon="6.75989">
        <ele>1053.4000244141</ele>
        <time>2020-08-13T07:09:30.000Z</time>
      </trkpt>
      <trkpt lat="44.1431" lon="6.75975">
        <ele>1054</ele>
        <time>2020-08-13T07:09:33.000Z</time>
      </trkpt>
      <trkpt lat="44.14315" lon="6.75956">
        <ele>1055</ele>
        <time>2020-08-13T07:09:37.000Z</time>
      </trkpt>
      <trkpt lat="44.14316" lon="6.75952">
        <ele>1055.1999511719</ele>
        <time>2020-08-13T07:09:38.000Z</time>
      </trkpt>
      <trkpt lat="44.14324" lon="6.75925">
        <ele>1056.1999511719</ele>
        <time>2020-08-13T07:09:44.000Z</time>
      </trkpt>
      <trkpt lat="44.14328" lon="6.75912">
        <ele>1056.4000244141</ele>
        <time>2020-08-13T07:09:47.000Z</time>
      </trkpt>
      <trkpt lat="44.14332" lon="6.75894">
        <ele>1057.1999511719</ele>
        <time>2020-08-13T07:09:51.000Z</time>
      </trkpt>
      <trkpt lat="44.14331" lon="6.7588">
        <ele>1057.8000488281</ele>
        <time>2020-08-13T07:09:54.000Z</time>
      </trkpt>
      <trkpt lat="44.14327" lon="6.75869">
        <ele>1058.1999511719</ele>
        <time>2020-08-13T07:09:57.000Z</time>
      </trkpt>
      <trkpt lat="44.14323" lon="6.75863">
        <ele>1058.5999755859</ele>
        <time>2020-08-13T07:09:59.000Z</time>
      </trkpt>
      <trkpt lat="44.14315" lon="6.75855">
        <ele>1059.4000244141</ele>
        <time>2020-08-13T07:10:02.000Z</time>
      </trkpt>
      <trkpt lat="44.14306" lon="6.75851">
        <ele>1060</ele>
        <time>2020-08-13T07:10:05.000Z</time>
      </trkpt>
      <trkpt lat="44.14297" lon="6.75851">
        <ele>1060.5999755859</ele>
        <time>2020-08-13T07:10:08.000Z</time>
      </trkpt>
      <trkpt lat="44.14288" lon="6.75854">
        <ele>1061.4000244141</ele>
        <time>2020-08-13T07:10:11.000Z</time>
      </trkpt>
      <trkpt lat="44.14282" lon="6.75857">
        <ele>1061.8000488281</ele>
        <time>2020-08-13T07:10:13.000Z</time>
      </trkpt>
      <trkpt lat="44.14267" lon="6.75863">
        <ele>1062.8000488281</ele>
        <time>2020-08-13T07:10:18.000Z</time>
      </trkpt>
      <trkpt lat="44.14264" lon="6.75864">
        <ele>1063</ele>
        <time>2020-08-13T07:10:19.000Z</time>
      </trkpt>
      <trkpt lat="44.14253" lon="6.75871">
        <ele>1063.8000488281</ele>
        <time>2020-08-13T07:10:23.000Z</time>
      </trkpt>
      <trkpt lat="44.14245" lon="6.75879">
        <ele>1064.1999511719</ele>
        <time>2020-08-13T07:10:26.000Z</time>
      </trkpt>
      <trkpt lat="44.14237" lon="6.75886">
        <ele>1064.8000488281</ele>
        <time>2020-08-13T07:10:29.000Z</time>
      </trkpt>
      <trkpt lat="44.14223" lon="6.75901">
        <ele>1065.8000488281</ele>
        <time>2020-08-13T07:10:35.000Z</time>
      </trkpt>
      <trkpt lat="44.14209" lon="6.75916">
        <ele>1066.8000488281</ele>
        <time>2020-08-13T07:10:41.000Z</time>
      </trkpt>
      <trkpt lat="44.14201" lon="6.75921">
        <ele>1067.8000488281</ele>
        <time>2020-08-13T07:10:44.000Z</time>
      </trkpt>
      <trkpt lat="44.14198" lon="6.75923">
        <ele>1068</ele>
        <time>2020-08-13T07:10:45.000Z</time>
      </trkpt>
      <trkpt lat="44.14188" lon="6.75925">
        <ele>1068.5999755859</ele>
        <time>2020-08-13T07:10:49.000Z</time>
      </trkpt>
      <trkpt lat="44.14183" lon="6.75927">
        <ele>1069</ele>
        <time>2020-08-13T07:10:51.000Z</time>
      </trkpt>
      <trkpt lat="44.1417" lon="6.7593">
        <ele>1070.1999511719</ele>
        <time>2020-08-13T07:10:56.000Z</time>
      </trkpt>
      <trkpt lat="44.14157" lon="6.75933">
        <ele>1071.1999511719</ele>
        <time>2020-08-13T07:11:01.000Z</time>
      </trkpt>
      <trkpt lat="44.1414" lon="6.75942">
        <ele>1072.4000244141</ele>
        <time>2020-08-13T07:11:07.000Z</time>
      </trkpt>
      <trkpt lat="44.14137" lon="6.75945">
        <ele>1072.5999755859</ele>
        <time>2020-08-13T07:11:08.000Z</time>
      </trkpt>
      <trkpt lat="44.14123" lon="6.75956">
        <ele>1073.5999755859</ele>
        <time>2020-08-13T07:11:13.000Z</time>
      </trkpt>
      <trkpt lat="44.14108" lon="6.7597">
        <ele>1074.8000488281</ele>
        <time>2020-08-13T07:11:19.000Z</time>
      </trkpt>
      <trkpt lat="44.14103" lon="6.75974">
        <ele>1075.1999511719</ele>
        <time>2020-08-13T07:11:21.000Z</time>
      </trkpt>
      <trkpt lat="44.14098" lon="6.75979">
        <ele>1075.8000488281</ele>
        <time>2020-08-13T07:11:23.000Z</time>
      </trkpt>
      <trkpt lat="44.14089" lon="6.75988">
        <ele>1076.5999755859</ele>
        <time>2020-08-13T07:11:27.000Z</time>
      </trkpt>
      <trkpt lat="44.14087" lon="6.75991">
        <ele>1076.8000488281</ele>
        <time>2020-08-13T07:11:28.000Z</time>
      </trkpt>
      <trkpt lat="44.14075" lon="6.76005">
        <ele>1077.8000488281</ele>
        <time>2020-08-13T07:11:33.000Z</time>
      </trkpt>
      <trkpt lat="44.14073" lon="6.76008">
        <ele>1077.8000488281</ele>
        <time>2020-08-13T07:11:34.000Z</time>
      </trkpt>
      <trkpt lat="44.14062" lon="6.76021">
        <ele>1079</ele>
        <time>2020-08-13T07:11:39.000Z</time>
      </trkpt>
      <trkpt lat="44.14051" lon="6.76037">
        <ele>1080</ele>
        <time>2020-08-13T07:11:45.000Z</time>
      </trkpt>
      <trkpt lat="44.14043" lon="6.7605">
        <ele>1081</ele>
        <time>2020-08-13T07:11:50.000Z</time>
      </trkpt>
      <trkpt lat="44.14041" lon="6.76051">
        <ele>1081.1999511719</ele>
        <time>2020-08-13T07:11:51.000Z</time>
      </trkpt>
      <trkpt lat="44.14029" lon="6.76064">
        <ele>1082.1999511719</ele>
        <time>2020-08-13T07:11:56.000Z</time>
      </trkpt>
      <trkpt lat="44.14016" lon="6.76077">
        <ele>1083.1999511719</ele>
        <time>2020-08-13T07:12:01.000Z</time>
      </trkpt>
      <trkpt lat="44.14004" lon="6.76091">
        <ele>1084.1999511719</ele>
        <time>2020-08-13T07:12:06.000Z</time>
      </trkpt>
      <trkpt lat="44.14001" lon="6.76093">
        <ele>1084.4000244141</ele>
        <time>2020-08-13T07:12:07.000Z</time>
      </trkpt>
      <trkpt lat="44.13989" lon="6.76107">
        <ele>1085.1999511719</ele>
        <time>2020-08-13T07:12:12.000Z</time>
      </trkpt>
      <trkpt lat="44.13987" lon="6.76109">
        <ele>1085.5999755859</ele>
        <time>2020-08-13T07:12:13.000Z</time>
      </trkpt>
      <trkpt lat="44.13975" lon="6.76123">
        <ele>1086.5999755859</ele>
        <time>2020-08-13T07:12:18.000Z</time>
      </trkpt>
      <trkpt lat="44.13973" lon="6.76126">
        <ele>1086.8000488281</ele>
        <time>2020-08-13T07:12:19.000Z</time>
      </trkpt>
      <trkpt lat="44.1396" lon="6.76144">
        <ele>1087.8000488281</ele>
        <time>2020-08-13T07:12:25.000Z</time>
      </trkpt>
      <trkpt lat="44.13958" lon="6.76147">
        <ele>1088</ele>
        <time>2020-08-13T07:12:26.000Z</time>
      </trkpt>
      <trkpt lat="44.13947" lon="6.76157">
        <ele>1088.8000488281</ele>
        <time>2020-08-13T07:12:30.000Z</time>
      </trkpt>
      <trkpt lat="44.13937" lon="6.76165">
        <ele>1089.5999755859</ele>
        <time>2020-08-13T07:12:34.000Z</time>
      </trkpt>
      <trkpt lat="44.13934" lon="6.76167">
        <ele>1089.8000488281</ele>
        <time>2020-08-13T07:12:35.000Z</time>
      </trkpt>
      <trkpt lat="44.13921" lon="6.76177">
        <ele>1091</ele>
        <time>2020-08-13T07:12:40.000Z</time>
      </trkpt>
      <trkpt lat="44.13911" lon="6.76188">
        <ele>1091.8000488281</ele>
        <time>2020-08-13T07:12:44.000Z</time>
      </trkpt>
      <trkpt lat="44.13909" lon="6.76191">
        <ele>1092</ele>
        <time>2020-08-13T07:12:45.000Z</time>
      </trkpt>
      <trkpt lat="44.13899" lon="6.76206">
        <ele>1093</ele>
        <time>2020-08-13T07:12:50.000Z</time>
      </trkpt>
      <trkpt lat="44.13897" lon="6.76209">
        <ele>1093.1999511719</ele>
        <time>2020-08-13T07:12:51.000Z</time>
      </trkpt>
      <trkpt lat="44.13881" lon="6.76223">
        <ele>1094.1999511719</ele>
        <time>2020-08-13T07:12:57.000Z</time>
      </trkpt>
      <trkpt lat="44.13878" lon="6.76224">
        <ele>1094.4000244141</ele>
        <time>2020-08-13T07:12:58.000Z</time>
      </trkpt>
      <trkpt lat="44.13867" lon="6.7623">
        <ele>1095.1999511719</ele>
        <time>2020-08-13T07:13:02.000Z</time>
      </trkpt>
      <trkpt lat="44.13855" lon="6.76239">
        <ele>1095.8000488281</ele>
        <time>2020-08-13T07:13:06.000Z</time>
      </trkpt>
      <trkpt lat="44.13842" lon="6.76247">
        <ele>1096.1999511719</ele>
        <time>2020-08-13T07:13:10.000Z</time>
      </trkpt>
      <trkpt lat="44.13839" lon="6.76248">
        <ele>1096.4000244141</ele>
        <time>2020-08-13T07:13:11.000Z</time>
      </trkpt>
      <trkpt lat="44.13819" lon="6.76258">
        <ele>1097</ele>
        <time>2020-08-13T07:13:18.000Z</time>
      </trkpt>
      <trkpt lat="44.13816" lon="6.76259">
        <ele>1097.4000244141</ele>
        <time>2020-08-13T07:13:19.000Z</time>
      </trkpt>
      <trkpt lat="44.13805" lon="6.76263">
        <ele>1098.4000244141</ele>
        <time>2020-08-13T07:13:23.000Z</time>
      </trkpt>
      <trkpt lat="44.138" lon="6.76266">
        <ele>1099</ele>
        <time>2020-08-13T07:13:25.000Z</time>
      </trkpt>
      <trkpt lat="44.13793" lon="6.76271">
        <ele>1099.5999755859</ele>
        <time>2020-08-13T07:13:28.000Z</time>
      </trkpt>
      <trkpt lat="44.13789" lon="6.76271">
        <ele>1100</ele>
        <time>2020-08-13T07:13:30.000Z</time>
      </trkpt>
      <trkpt lat="44.13778" lon="6.76271">
        <ele>1100.8000488281</ele>
        <time>2020-08-13T07:13:34.000Z</time>
      </trkpt>
      <trkpt lat="44.13775" lon="6.76271">
        <ele>1101</ele>
        <time>2020-08-13T07:13:35.000Z</time>
      </trkpt>
      <trkpt lat="44.13759" lon="6.76273">
        <ele>1102</ele>
        <time>2020-08-13T07:13:41.000Z</time>
      </trkpt>
      <trkpt lat="44.13756" lon="6.76273">
        <ele>1102.4000244141</ele>
        <time>2020-08-13T07:13:42.000Z</time>
      </trkpt>
      <trkpt lat="44.13744" lon="6.76274">
        <ele>1103.1999511719</ele>
        <time>2020-08-13T07:13:46.000Z</time>
      </trkpt>
      <trkpt lat="44.13727" lon="6.76275">
        <ele>1104.1999511719</ele>
        <time>2020-08-13T07:13:52.000Z</time>
      </trkpt>
      <trkpt lat="44.13724" lon="6.76276">
        <ele>1104.1999511719</ele>
        <time>2020-08-13T07:13:53.000Z</time>
      </trkpt>
      <trkpt lat="44.13707" lon="6.76279">
        <ele>1105.4000244141</ele>
        <time>2020-08-13T07:13:59.000Z</time>
      </trkpt>
      <trkpt lat="44.13692" lon="6.76285">
        <ele>1106.4000244141</ele>
        <time>2020-08-13T07:14:04.000Z</time>
      </trkpt>
      <trkpt lat="44.13689" lon="6.76286">
        <ele>1106.8000488281</ele>
        <time>2020-08-13T07:14:05.000Z</time>
      </trkpt>
      <trkpt lat="44.13673" lon="6.76295">
        <ele>1107.5999755859</ele>
        <time>2020-08-13T07:14:11.000Z</time>
      </trkpt>
      <trkpt lat="44.13667" lon="6.76298">
        <ele>1108</ele>
        <time>2020-08-13T07:14:13.000Z</time>
      </trkpt>
      <trkpt lat="44.13658" lon="6.76303">
        <ele>1108.5999755859</ele>
        <time>2020-08-13T07:14:16.000Z</time>
      </trkpt>
      <trkpt lat="44.13641" lon="6.7631">
        <ele>1109.8000488281</ele>
        <time>2020-08-13T07:14:22.000Z</time>
      </trkpt>
      <trkpt lat="44.13638" lon="6.7631">
        <ele>1110</ele>
        <time>2020-08-13T07:14:23.000Z</time>
      </trkpt>
      <trkpt lat="44.13626" lon="6.7631">
        <ele>1110.8000488281</ele>
        <time>2020-08-13T07:14:27.000Z</time>
      </trkpt>
      <trkpt lat="44.13614" lon="6.76309">
        <ele>1111.5999755859</ele>
        <time>2020-08-13T07:14:31.000Z</time>
      </trkpt>
      <trkpt lat="44.13607" lon="6.76309">
        <ele>1112</ele>
        <time>2020-08-13T07:14:33.000Z</time>
      </trkpt>
      <trkpt lat="44.13588" lon="6.76307">
        <ele>1113</ele>
        <time>2020-08-13T07:14:39.000Z</time>
      </trkpt>
      <trkpt lat="44.13582" lon="6.76306">
        <ele>1113.4000244141</ele>
        <time>2020-08-13T07:14:41.000Z</time>
      </trkpt>
      <trkpt lat="44.13571" lon="6.76302">
        <ele>1114</ele>
        <time>2020-08-13T07:14:45.000Z</time>
      </trkpt>
      <trkpt lat="44.13559" lon="6.76296">
        <ele>1114.8000488281</ele>
        <time>2020-08-13T07:14:49.000Z</time>
      </trkpt>
      <trkpt lat="44.13553" lon="6.76294">
        <ele>1115</ele>
        <time>2020-08-13T07:14:51.000Z</time>
      </trkpt>
      <trkpt lat="44.13535" lon="6.76289">
        <ele>1116</ele>
        <time>2020-08-13T07:14:57.000Z</time>
      </trkpt>
      <trkpt lat="44.13532" lon="6.76289">
        <ele>1116.1999511719</ele>
        <time>2020-08-13T07:14:58.000Z</time>
      </trkpt>
      <trkpt lat="44.13517" lon="6.76289">
        <ele>1117</ele>
        <time>2020-08-13T07:15:03.000Z</time>
      </trkpt>
      <trkpt lat="44.13512" lon="6.76288">
        <ele>1117.1999511719</ele>
        <time>2020-08-13T07:15:05.000Z</time>
      </trkpt>
      <trkpt lat="44.13501" lon="6.76287">
        <ele>1118</ele>
        <time>2020-08-13T07:15:09.000Z</time>
      </trkpt>
      <trkpt lat="44.13496" lon="6.76286">
        <ele>1118.5999755859</ele>
        <time>2020-08-13T07:15:11.000Z</time>
      </trkpt>
      <trkpt lat="44.13482" lon="6.76284">
        <ele>1119.8000488281</ele>
        <time>2020-08-13T07:15:16.000Z</time>
      </trkpt>
      <trkpt lat="44.13478" lon="6.76283">
        <ele>1120.1999511719</ele>
        <time>2020-08-13T07:15:18.000Z</time>
      </trkpt>
      <trkpt lat="44.13471" lon="6.76281">
        <ele>1121</ele>
        <time>2020-08-13T07:15:21.000Z</time>
      </trkpt>
      <trkpt lat="44.13464" lon="6.76281">
        <ele>1121.5999755859</ele>
        <time>2020-08-13T07:15:24.000Z</time>
      </trkpt>
      <trkpt lat="44.13459" lon="6.76281">
        <ele>1122</ele>
        <time>2020-08-13T07:15:26.000Z</time>
      </trkpt>
      <trkpt lat="44.1345" lon="6.76282">
        <ele>1123</ele>
        <time>2020-08-13T07:15:30.000Z</time>
      </trkpt>
      <trkpt lat="44.13447" lon="6.76283">
        <ele>1123.1999511719</ele>
        <time>2020-08-13T07:15:31.000Z</time>
      </trkpt>
      <trkpt lat="44.13437" lon="6.76287">
        <ele>1124.1999511719</ele>
        <time>2020-08-13T07:15:35.000Z</time>
      </trkpt>
      <trkpt lat="44.13427" lon="6.76291">
        <ele>1125</ele>
        <time>2020-08-13T07:15:39.000Z</time>
      </trkpt>
      <trkpt lat="44.13423" lon="6.76293">
        <ele>1125.4000244141</ele>
        <time>2020-08-13T07:15:41.000Z</time>
      </trkpt>
      <trkpt lat="44.13412" lon="6.76296">
        <ele>1126.5999755859</ele>
        <time>2020-08-13T07:15:45.000Z</time>
      </trkpt>
      <trkpt lat="44.13404" lon="6.76298">
        <ele>1127.4000244141</ele>
        <time>2020-08-13T07:15:48.000Z</time>
      </trkpt>
      <trkpt lat="44.13401" lon="6.76299">
        <ele>1127.5999755859</ele>
        <time>2020-08-13T07:15:49.000Z</time>
      </trkpt>
      <trkpt lat="44.13389" lon="6.76301">
        <ele>1128.5999755859</ele>
        <time>2020-08-13T07:15:54.000Z</time>
      </trkpt>
      <trkpt lat="44.13379" lon="6.76302">
        <ele>1129.5999755859</ele>
        <time>2020-08-13T07:15:58.000Z</time>
      </trkpt>
      <trkpt lat="44.13376" lon="6.76303">
        <ele>1129.5999755859</ele>
        <time>2020-08-13T07:15:59.000Z</time>
      </trkpt>
      <trkpt lat="44.13362" lon="6.76302">
        <ele>1130.5999755859</ele>
        <time>2020-08-13T07:16:05.000Z</time>
      </trkpt>
      <trkpt lat="44.1336" lon="6.76301">
        <ele>1131</ele>
        <time>2020-08-13T07:16:06.000Z</time>
      </trkpt>
      <trkpt lat="44.13359" lon="6.76297">
        <ele>1131.1999511719</ele>
        <time>2020-08-13T07:16:07.000Z</time>
      </trkpt>
      <trkpt lat="44.13362" lon="6.76292">
        <ele>1131.5999755859</ele>
        <time>2020-08-13T07:16:09.000Z</time>
      </trkpt>
      <trkpt lat="44.13365" lon="6.76291">
        <ele>1131.8000488281</ele>
        <time>2020-08-13T07:16:10.000Z</time>
      </trkpt>
      <trkpt lat="44.13373" lon="6.76292">
        <ele>1132.4000244141</ele>
        <time>2020-08-13T07:16:13.000Z</time>
      </trkpt>
      <trkpt lat="44.13378" lon="6.76292">
        <ele>1132.8000488281</ele>
        <time>2020-08-13T07:16:15.000Z</time>
      </trkpt>
      <trkpt lat="44.13389" lon="6.76289">
        <ele>1133.4000244141</ele>
        <time>2020-08-13T07:16:19.000Z</time>
      </trkpt>
      <trkpt lat="44.13398" lon="6.76284">
        <ele>1134</ele>
        <time>2020-08-13T07:16:22.000Z</time>
      </trkpt>
      <trkpt lat="44.13406" lon="6.76278">
        <ele>1134.1999511719</ele>
        <time>2020-08-13T07:16:25.000Z</time>
      </trkpt>
      <trkpt lat="44.13421" lon="6.76268">
        <ele>1135.1999511719</ele>
        <time>2020-08-13T07:16:31.000Z</time>
      </trkpt>
      <trkpt lat="44.13423" lon="6.76267">
        <ele>1135.4000244141</ele>
        <time>2020-08-13T07:16:32.000Z</time>
      </trkpt>
      <trkpt lat="44.13433" lon="6.76264">
        <ele>1136.1999511719</ele>
        <time>2020-08-13T07:16:36.000Z</time>
      </trkpt>
      <trkpt lat="44.13438" lon="6.76262">
        <ele>1136.4000244141</ele>
        <time>2020-08-13T07:16:38.000Z</time>
      </trkpt>
      <trkpt lat="44.13442" lon="6.76254">
        <ele>1137.1999511719</ele>
        <time>2020-08-13T07:16:41.000Z</time>
      </trkpt>
      <trkpt lat="44.13442" lon="6.7625">
        <ele>1137.4000244141</ele>
        <time>2020-08-13T07:16:42.000Z</time>
      </trkpt>
      <trkpt lat="44.13435" lon="6.76246">
        <ele>1137.8000488281</ele>
        <time>2020-08-13T07:16:45.000Z</time>
      </trkpt>
      <trkpt lat="44.13427" lon="6.76248">
        <ele>1138.4000244141</ele>
        <time>2020-08-13T07:16:48.000Z</time>
      </trkpt>
      <trkpt lat="44.13422" lon="6.76251">
        <ele>1138.8000488281</ele>
        <time>2020-08-13T07:16:50.000Z</time>
      </trkpt>
      <trkpt lat="44.13414" lon="6.76255">
        <ele>1139.4000244141</ele>
        <time>2020-08-13T07:16:53.000Z</time>
      </trkpt>
      <trkpt lat="44.13401" lon="6.7626">
        <ele>1140.4000244141</ele>
        <time>2020-08-13T07:16:58.000Z</time>
      </trkpt>
      <trkpt lat="44.13399" lon="6.7626">
        <ele>1140.5999755859</ele>
        <time>2020-08-13T07:16:59.000Z</time>
      </trkpt>
      <trkpt lat="44.13382" lon="6.76266">
        <ele>1141.5999755859</ele>
        <time>2020-08-13T07:17:06.000Z</time>
      </trkpt>
      <trkpt lat="44.13366" lon="6.76267">
        <ele>1142.8000488281</ele>
        <time>2020-08-13T07:17:12.000Z</time>
      </trkpt>
      <trkpt lat="44.13359" lon="6.76266">
        <ele>1143.4000244141</ele>
        <time>2020-08-13T07:17:15.000Z</time>
      </trkpt>
      <trkpt lat="44.13354" lon="6.76267">
        <ele>1143.8000488281</ele>
        <time>2020-08-13T07:17:17.000Z</time>
      </trkpt>
      <trkpt lat="44.1335" lon="6.76265">
        <ele>1144.1999511719</ele>
        <time>2020-08-13T07:17:19.000Z</time>
      </trkpt>
      <trkpt lat="44.13349" lon="6.76263">
        <ele>1144.5999755859</ele>
        <time>2020-08-13T07:17:20.000Z</time>
      </trkpt>
      <trkpt lat="44.13351" lon="6.76257">
        <ele>1145</ele>
        <time>2020-08-13T07:17:22.000Z</time>
      </trkpt>
      <trkpt lat="44.13352" lon="6.76256">
        <ele>1145.1999511719</ele>
        <time>2020-08-13T07:17:23.000Z</time>
      </trkpt>
      <trkpt lat="44.1336" lon="6.76255">
        <ele>1145.8000488281</ele>
        <time>2020-08-13T07:17:26.000Z</time>
      </trkpt>
      <trkpt lat="44.13363" lon="6.76254">
        <ele>1146</ele>
        <time>2020-08-13T07:17:27.000Z</time>
      </trkpt>
      <trkpt lat="44.13383" lon="6.76249">
        <ele>1147</ele>
        <time>2020-08-13T07:17:34.000Z</time>
      </trkpt>
      <trkpt lat="44.13402" lon="6.76239">
        <ele>1148</ele>
        <time>2020-08-13T07:17:41.000Z</time>
      </trkpt>
      <trkpt lat="44.13404" lon="6.76236">
        <ele>1148.1999511719</ele>
        <time>2020-08-13T07:17:42.000Z</time>
      </trkpt>
      <trkpt lat="44.13407" lon="6.76225">
        <ele>1148.5999755859</ele>
        <time>2020-08-13T07:17:45.000Z</time>
      </trkpt>
      <trkpt lat="44.134" lon="6.76219">
        <ele>1149</ele>
        <time>2020-08-13T07:17:48.000Z</time>
      </trkpt>
      <trkpt lat="44.13397" lon="6.7622">
        <ele>1149.1999511719</ele>
        <time>2020-08-13T07:17:49.000Z</time>
      </trkpt>
      <trkpt lat="44.1339" lon="6.76224">
        <ele>1149.8000488281</ele>
        <time>2020-08-13T07:17:52.000Z</time>
      </trkpt>
      <trkpt lat="44.13385" lon="6.76227">
        <ele>1150.4000244141</ele>
        <time>2020-08-13T07:17:54.000Z</time>
      </trkpt>
      <trkpt lat="44.13369" lon="6.76233">
        <ele>1151</ele>
        <time>2020-08-13T07:18:00.000Z</time>
      </trkpt>
      <trkpt lat="44.13357" lon="6.76234">
        <ele>1151.4000244141</ele>
        <time>2020-08-13T07:18:04.000Z</time>
      </trkpt>
      <trkpt lat="44.1335" lon="6.76232">
        <ele>1152</ele>
        <time>2020-08-13T07:18:07.000Z</time>
      </trkpt>
      <trkpt lat="44.13345" lon="6.76229">
        <ele>1152.5999755859</ele>
        <time>2020-08-13T07:18:09.000Z</time>
      </trkpt>
      <trkpt lat="44.13334" lon="6.76219">
        <ele>1153.8000488281</ele>
        <time>2020-08-13T07:18:14.000Z</time>
      </trkpt>
      <trkpt lat="44.13329" lon="6.76202">
        <ele>1155</ele>
        <time>2020-08-13T07:18:20.000Z</time>
      </trkpt>
      <trkpt lat="44.1333" lon="6.762">
        <ele>1155.1999511719</ele>
        <time>2020-08-13T07:18:21.000Z</time>
      </trkpt>
      <trkpt lat="44.13335" lon="6.76199">
        <ele>1155.8000488281</ele>
        <time>2020-08-13T07:18:23.000Z</time>
      </trkpt>
      <trkpt lat="44.13337" lon="6.762">
        <ele>1156.1999511719</ele>
        <time>2020-08-13T07:18:24.000Z</time>
      </trkpt>
      <trkpt lat="44.1335" lon="6.76205">
        <ele>1157.1999511719</ele>
        <time>2020-08-13T07:18:29.000Z</time>
      </trkpt>
      <trkpt lat="44.13352" lon="6.76206">
        <ele>1157.4000244141</ele>
        <time>2020-08-13T07:18:30.000Z</time>
      </trkpt>
      <trkpt lat="44.13369" lon="6.76206">
        <ele>1158.1999511719</ele>
        <time>2020-08-13T07:18:36.000Z</time>
      </trkpt>
      <trkpt lat="44.13372" lon="6.76205">
        <ele>1158.5999755859</ele>
        <time>2020-08-13T07:18:37.000Z</time>
      </trkpt>
      <trkpt lat="44.13384" lon="6.76197">
        <ele>1159.1999511719</ele>
        <time>2020-08-13T07:18:42.000Z</time>
      </trkpt>
      <trkpt lat="44.13389" lon="6.76194">
        <ele>1159.5999755859</ele>
        <time>2020-08-13T07:18:44.000Z</time>
      </trkpt>
      <trkpt lat="44.13397" lon="6.76189">
        <ele>1160.5999755859</ele>
        <time>2020-08-13T07:18:48.000Z</time>
      </trkpt>
      <trkpt lat="44.134" lon="6.76189">
        <ele>1160.8000488281</ele>
        <time>2020-08-13T07:18:49.000Z</time>
      </trkpt>
      <trkpt lat="44.13405" lon="6.76187">
        <ele>1161.5999755859</ele>
        <time>2020-08-13T07:18:52.000Z</time>
      </trkpt>
      <trkpt lat="44.13413" lon="6.76188">
        <ele>1162.1999511719</ele>
        <time>2020-08-13T07:18:55.000Z</time>
      </trkpt>
      <trkpt lat="44.13417" lon="6.76187">
        <ele>1162.5999755859</ele>
        <time>2020-08-13T07:18:57.000Z</time>
      </trkpt>
      <trkpt lat="44.13424" lon="6.76189">
        <ele>1163.1999511719</ele>
        <time>2020-08-13T07:19:00.000Z</time>
      </trkpt>
      <trkpt lat="44.13429" lon="6.76193">
        <ele>1163.8000488281</ele>
        <time>2020-08-13T07:19:03.000Z</time>
      </trkpt>
      <trkpt lat="44.13434" lon="6.76195">
        <ele>1164.1999511719</ele>
        <time>2020-08-13T07:19:05.000Z</time>
      </trkpt>
      <trkpt lat="44.13442" lon="6.76198">
        <ele>1165</ele>
        <time>2020-08-13T07:19:08.000Z</time>
      </trkpt>
      <trkpt lat="44.13451" lon="6.76199">
        <ele>1166.1999511719</ele>
        <time>2020-08-13T07:19:12.000Z</time>
      </trkpt>
      <trkpt lat="44.13454" lon="6.76199">
        <ele>1166.4000244141</ele>
        <time>2020-08-13T07:19:13.000Z</time>
      </trkpt>
      <trkpt lat="44.13466" lon="6.76197">
        <ele>1167.1999511719</ele>
        <time>2020-08-13T07:19:18.000Z</time>
      </trkpt>
      <trkpt lat="44.13473" lon="6.76194">
        <ele>1167.8000488281</ele>
        <time>2020-08-13T07:19:21.000Z</time>
      </trkpt>
      <trkpt lat="44.13477" lon="6.76192">
        <ele>1168.4000244141</ele>
        <time>2020-08-13T07:19:23.000Z</time>
      </trkpt>
      <trkpt lat="44.13492" lon="6.76187">
        <ele>1169.1999511719</ele>
        <time>2020-08-13T07:19:29.000Z</time>
      </trkpt>
      <trkpt lat="44.13494" lon="6.76186">
        <ele>1169.4000244141</ele>
        <time>2020-08-13T07:19:30.000Z</time>
      </trkpt>
      <trkpt lat="44.13505" lon="6.76183">
        <ele>1170.4000244141</ele>
        <time>2020-08-13T07:19:34.000Z</time>
      </trkpt>
      <trkpt lat="44.13507" lon="6.76183">
        <ele>1170.5999755859</ele>
        <time>2020-08-13T07:19:35.000Z</time>
      </trkpt>
      <trkpt lat="44.13522" lon="6.76181">
        <ele>1171.4000244141</ele>
        <time>2020-08-13T07:19:41.000Z</time>
      </trkpt>
      <trkpt lat="44.13529" lon="6.76181">
        <ele>1171.5999755859</ele>
        <time>2020-08-13T07:19:43.000Z</time>
      </trkpt>
      <trkpt lat="44.13542" lon="6.76182">
        <ele>1172.5999755859</ele>
        <time>2020-08-13T07:19:48.000Z</time>
      </trkpt>
      <trkpt lat="44.13555" lon="6.76184">
        <ele>1173.5999755859</ele>
        <time>2020-08-13T07:19:53.000Z</time>
      </trkpt>
      <trkpt lat="44.13567" lon="6.76186">
        <ele>1174.8000488281</ele>
        <time>2020-08-13T07:19:58.000Z</time>
      </trkpt>
      <trkpt lat="44.13579" lon="6.76186">
        <ele>1176</ele>
        <time>2020-08-13T07:20:03.000Z</time>
      </trkpt>
      <trkpt lat="44.13589" lon="6.76183">
        <ele>1177</ele>
        <time>2020-08-13T07:20:08.000Z</time>
      </trkpt>
      <trkpt lat="44.13595" lon="6.7618">
        <ele>1177.5999755859</ele>
        <time>2020-08-13T07:20:11.000Z</time>
      </trkpt>
      <trkpt lat="44.13599" lon="6.76178">
        <ele>1178.1999511719</ele>
        <time>2020-08-13T07:20:13.000Z</time>
      </trkpt>
      <trkpt lat="44.13606" lon="6.76165">
        <ele>1179.1999511719</ele>
        <time>2020-08-13T07:20:19.000Z</time>
      </trkpt>
      <trkpt lat="44.13606" lon="6.76163">
        <ele>1179.4000244141</ele>
        <time>2020-08-13T07:20:20.000Z</time>
      </trkpt>
      <trkpt lat="44.13602" lon="6.76156">
        <ele>1180</ele>
        <time>2020-08-13T07:20:23.000Z</time>
      </trkpt>
      <trkpt lat="44.13598" lon="6.76153">
        <ele>1180.4000244141</ele>
        <time>2020-08-13T07:20:25.000Z</time>
      </trkpt>
      <trkpt lat="44.13586" lon="6.76146">
        <ele>1181.5999755859</ele>
        <time>2020-08-13T07:20:31.000Z</time>
      </trkpt>
      <trkpt lat="44.13573" lon="6.76138">
        <ele>1182.5999755859</ele>
        <time>2020-08-13T07:20:37.000Z</time>
      </trkpt>
      <trkpt lat="44.13564" lon="6.76133">
        <ele>1183.1999511719</ele>
        <time>2020-08-13T07:20:41.000Z</time>
      </trkpt>
      <trkpt lat="44.13559" lon="6.7613">
        <ele>1183.5999755859</ele>
        <time>2020-08-13T07:20:43.000Z</time>
      </trkpt>
      <trkpt lat="44.13545" lon="6.76122">
        <ele>1184.8000488281</ele>
        <time>2020-08-13T07:20:49.000Z</time>
      </trkpt>
      <trkpt lat="44.13543" lon="6.7612">
        <ele>1184.8000488281</ele>
        <time>2020-08-13T07:20:50.000Z</time>
      </trkpt>
      <trkpt lat="44.13531" lon="6.76114">
        <ele>1185.8000488281</ele>
        <time>2020-08-13T07:20:56.000Z</time>
      </trkpt>
      <trkpt lat="44.13528" lon="6.76113">
        <ele>1185.8000488281</ele>
        <time>2020-08-13T07:20:57.000Z</time>
      </trkpt>
      <trkpt lat="44.13511" lon="6.76107">
        <ele>1186.4000244141</ele>
        <time>2020-08-13T07:21:04.000Z</time>
      </trkpt>
      <trkpt lat="44.13504" lon="6.76106">
        <ele>1187</ele>
        <time>2020-08-13T07:21:07.000Z</time>
      </trkpt>
      <trkpt lat="44.13498" lon="6.76105">
        <ele>1187.5999755859</ele>
        <time>2020-08-13T07:21:10.000Z</time>
      </trkpt>
      <trkpt lat="44.13489" lon="6.76106">
        <ele>1188.1999511719</ele>
        <time>2020-08-13T07:21:14.000Z</time>
      </trkpt>
      <trkpt lat="44.13484" lon="6.76107">
        <ele>1188.8000488281</ele>
        <time>2020-08-13T07:21:17.000Z</time>
      </trkpt>
      <trkpt lat="44.13473" lon="6.76112">
        <ele>1189.4000244141</ele>
        <time>2020-08-13T07:21:22.000Z</time>
      </trkpt>
      <trkpt lat="44.13466" lon="6.7611">
        <ele>1190.4000244141</ele>
        <time>2020-08-13T07:21:25.000Z</time>
      </trkpt>
      <trkpt lat="44.13465" lon="6.76107">
        <ele>1190.5999755859</ele>
        <time>2020-08-13T07:21:26.000Z</time>
      </trkpt>
      <trkpt lat="44.13467" lon="6.76097">
        <ele>1191.4000244141</ele>
        <time>2020-08-13T07:21:29.000Z</time>
      </trkpt>
      <trkpt lat="44.13469" lon="6.76093">
        <ele>1192</ele>
        <time>2020-08-13T07:21:31.000Z</time>
      </trkpt>
      <trkpt lat="44.13475" lon="6.76087">
        <ele>1192.8000488281</ele>
        <time>2020-08-13T07:21:35.000Z</time>
      </trkpt>
      <trkpt lat="44.13476" lon="6.76086">
        <ele>1193</ele>
        <time>2020-08-13T07:21:36.000Z</time>
      </trkpt>
      <trkpt lat="44.13483" lon="6.76082">
        <ele>1194</ele>
        <time>2020-08-13T07:21:41.000Z</time>
      </trkpt>
      <trkpt lat="44.13491" lon="6.7608">
        <ele>1195.1999511719</ele>
        <time>2020-08-13T07:21:46.000Z</time>
      </trkpt>
      <trkpt lat="44.13492" lon="6.76079">
        <ele>1195.4000244141</ele>
        <time>2020-08-13T07:21:47.000Z</time>
      </trkpt>
      <trkpt lat="44.13499" lon="6.76079">
        <ele>1196.4000244141</ele>
        <time>2020-08-13T07:21:51.000Z</time>
      </trkpt>
      <trkpt lat="44.13502" lon="6.76079">
        <ele>1196.5999755859</ele>
        <time>2020-08-13T07:21:53.000Z</time>
      </trkpt>
      <trkpt lat="44.13509" lon="6.76079">
        <ele>1197.4000244141</ele>
        <time>2020-08-13T07:21:58.000Z</time>
      </trkpt>
      <trkpt lat="44.13511" lon="6.7608">
        <ele>1197.5999755859</ele>
        <time>2020-08-13T07:21:59.000Z</time>
      </trkpt>
      <trkpt lat="44.1352" lon="6.7608">
        <ele>1198.4000244141</ele>
        <time>2020-08-13T07:22:04.000Z</time>
      </trkpt>
      <trkpt lat="44.13522" lon="6.76079">
        <ele>1198.5999755859</ele>
        <time>2020-08-13T07:22:05.000Z</time>
      </trkpt>
      <trkpt lat="44.13532" lon="6.76077">
        <ele>1199.4000244141</ele>
        <time>2020-08-13T07:22:10.000Z</time>
      </trkpt>
      <trkpt lat="44.13537" lon="6.76076">
        <ele>1199.5999755859</ele>
        <time>2020-08-13T07:22:12.000Z</time>
      </trkpt>
      <trkpt lat="44.13542" lon="6.76076">
        <ele>1200.1999511719</ele>
        <time>2020-08-13T07:22:15.000Z</time>
      </trkpt>
      <trkpt lat="44.13545" lon="6.76076">
        <ele>1200.5999755859</ele>
        <time>2020-08-13T07:22:17.000Z</time>
      </trkpt>
      <trkpt lat="44.13547" lon="6.76075">
        <ele>1200.8000488281</ele>
        <time>2020-08-13T07:22:18.000Z</time>
      </trkpt>
      <trkpt lat="44.13554" lon="6.76075">
        <ele>1201.4000244141</ele>
        <time>2020-08-13T07:22:21.000Z</time>
      </trkpt>
      <trkpt lat="44.13562" lon="6.76072">
        <ele>1202</ele>
        <time>2020-08-13T07:22:25.000Z</time>
      </trkpt>
      <trkpt lat="44.13566" lon="6.7607">
        <ele>1202.4000244141</ele>
        <time>2020-08-13T07:22:27.000Z</time>
      </trkpt>
      <trkpt lat="44.13573" lon="6.76065">
        <ele>1203</ele>
        <time>2020-08-13T07:22:31.000Z</time>
      </trkpt>
      <trkpt lat="44.1358" lon="6.76061">
        <ele>1203.5999755859</ele>
        <time>2020-08-13T07:22:34.000Z</time>
      </trkpt>
      <trkpt lat="44.13587" lon="6.76056">
        <ele>1204.1999511719</ele>
        <time>2020-08-13T07:22:37.000Z</time>
      </trkpt>
      <trkpt lat="44.1359" lon="6.76052">
        <ele>1204.4000244141</ele>
        <time>2020-08-13T07:22:39.000Z</time>
      </trkpt>
      <trkpt lat="44.13602" lon="6.76042">
        <ele>1205.4000244141</ele>
        <time>2020-08-13T07:22:45.000Z</time>
      </trkpt>
      <trkpt lat="44.13603" lon="6.7604">
        <ele>1205.4000244141</ele>
        <time>2020-08-13T07:22:46.000Z</time>
      </trkpt>
      <trkpt lat="44.1361" lon="6.76032">
        <ele>1206.1999511719</ele>
        <time>2020-08-13T07:22:50.000Z</time>
      </trkpt>
      <trkpt lat="44.13611" lon="6.7603">
        <ele>1206.4000244141</ele>
        <time>2020-08-13T07:22:51.000Z</time>
      </trkpt>
      <trkpt lat="44.13616" lon="6.76023">
        <ele>1206.8000488281</ele>
        <time>2020-08-13T07:22:54.000Z</time>
      </trkpt>
      <trkpt lat="44.13619" lon="6.76019">
        <ele>1207.4000244141</ele>
        <time>2020-08-13T07:22:56.000Z</time>
      </trkpt>
      <trkpt lat="44.13621" lon="6.76017">
        <ele>1207.4000244141</ele>
        <time>2020-08-13T07:22:57.000Z</time>
      </trkpt>
      <trkpt lat="44.1363" lon="6.76007">
        <ele>1208.5999755859</ele>
        <time>2020-08-13T07:23:02.000Z</time>
      </trkpt>
      <trkpt lat="44.13638" lon="6.76">
        <ele>1209.4000244141</ele>
        <time>2020-08-13T07:23:07.000Z</time>
      </trkpt>
      <trkpt lat="44.1364" lon="6.75999">
        <ele>1209.5999755859</ele>
        <time>2020-08-13T07:23:08.000Z</time>
      </trkpt>
      <trkpt lat="44.13643" lon="6.75999">
        <ele>1210</ele>
        <time>2020-08-13T07:23:10.000Z</time>
      </trkpt>
      <trkpt lat="44.13645" lon="6.75998">
        <ele>1210.1999511719</ele>
        <time>2020-08-13T07:23:11.000Z</time>
      </trkpt>
      <trkpt lat="44.1365" lon="6.75996">
        <ele>1210.8000488281</ele>
        <time>2020-08-13T07:23:14.000Z</time>
      </trkpt>
      <trkpt lat="44.13654" lon="6.75994">
        <ele>1211</ele>
        <time>2020-08-13T07:23:16.000Z</time>
      </trkpt>
      <trkpt lat="44.13667" lon="6.75988">
        <ele>1212</ele>
        <time>2020-08-13T07:23:21.000Z</time>
      </trkpt>
      <trkpt lat="44.13672" lon="6.75985">
        <ele>1212.4000244141</ele>
        <time>2020-08-13T07:23:23.000Z</time>
      </trkpt>
      <trkpt lat="44.13686" lon="6.7598">
        <ele>1213</ele>
        <time>2020-08-13T07:23:28.000Z</time>
      </trkpt>
      <trkpt lat="44.13692" lon="6.75977">
        <ele>1213.5999755859</ele>
        <time>2020-08-13T07:23:31.000Z</time>
      </trkpt>
      <trkpt lat="44.13694" lon="6.75976">
        <ele>1214</ele>
        <time>2020-08-13T07:23:32.000Z</time>
      </trkpt>
      <trkpt lat="44.13706" lon="6.75972">
        <ele>1215.1999511719</ele>
        <time>2020-08-13T07:23:38.000Z</time>
      </trkpt>
      <trkpt lat="44.13716" lon="6.75966">
        <ele>1216.1999511719</ele>
        <time>2020-08-13T07:23:43.000Z</time>
      </trkpt>
      <trkpt lat="44.13719" lon="6.75961">
        <ele>1216.5999755859</ele>
        <time>2020-08-13T07:23:45.000Z</time>
      </trkpt>
      <trkpt lat="44.13719" lon="6.75956">
        <ele>1217.1999511719</ele>
        <time>2020-08-13T07:23:47.000Z</time>
      </trkpt>
      <trkpt lat="44.1372" lon="6.75955">
        <ele>1217.1999511719</ele>
        <time>2020-08-13T07:23:48.000Z</time>
      </trkpt>
      <trkpt lat="44.13718" lon="6.75953">
        <ele>1217.4000244141</ele>
        <time>2020-08-13T07:23:49.000Z</time>
      </trkpt>
      <trkpt lat="44.13706" lon="6.75951">
        <ele>1217.8000488281</ele>
        <time>2020-08-13T07:23:54.000Z</time>
      </trkpt>
      <trkpt lat="44.13704" lon="6.75951">
        <ele>1218</ele>
        <time>2020-08-13T07:23:55.000Z</time>
      </trkpt>
      <trkpt lat="44.13698" lon="6.75952">
        <ele>1218.1999511719</ele>
        <time>2020-08-13T07:23:58.000Z</time>
      </trkpt>
      <trkpt lat="44.1369" lon="6.75953">
        <ele>1219</ele>
        <time>2020-08-13T07:24:02.000Z</time>
      </trkpt>
      <trkpt lat="44.13684" lon="6.75952">
        <ele>1219.4000244141</ele>
        <time>2020-08-13T07:24:05.000Z</time>
      </trkpt>
      <trkpt lat="44.13676" lon="6.75952">
        <ele>1220</ele>
        <time>2020-08-13T07:24:09.000Z</time>
      </trkpt>
      <trkpt lat="44.13667" lon="6.75952">
        <ele>1220.5999755859</ele>
        <time>2020-08-13T07:24:13.000Z</time>
      </trkpt>
      <trkpt lat="44.13659" lon="6.75952">
        <ele>1221.1999511719</ele>
        <time>2020-08-13T07:24:17.000Z</time>
      </trkpt>
      <trkpt lat="44.13656" lon="6.75953">
        <ele>1221.5999755859</ele>
        <time>2020-08-13T07:24:19.000Z</time>
      </trkpt>
      <trkpt lat="44.13646" lon="6.75955">
        <ele>1222.5999755859</ele>
        <time>2020-08-13T07:24:24.000Z</time>
      </trkpt>
      <trkpt lat="44.13644" lon="6.75956">
        <ele>1222.8000488281</ele>
        <time>2020-08-13T07:24:25.000Z</time>
      </trkpt>
      <trkpt lat="44.1364" lon="6.75957">
        <ele>1223.1999511719</ele>
        <time>2020-08-13T07:24:27.000Z</time>
      </trkpt>
      <trkpt lat="44.13634" lon="6.7596">
        <ele>1223.8000488281</ele>
        <time>2020-08-13T07:24:30.000Z</time>
      </trkpt>
      <trkpt lat="44.13632" lon="6.75961">
        <ele>1224</ele>
        <time>2020-08-13T07:24:31.000Z</time>
      </trkpt>
      <trkpt lat="44.13621" lon="6.75965">
        <ele>1225</ele>
        <time>2020-08-13T07:24:37.000Z</time>
      </trkpt>
      <trkpt lat="44.13619" lon="6.75966">
        <ele>1225.4000244141</ele>
        <time>2020-08-13T07:24:38.000Z</time>
      </trkpt>
      <trkpt lat="44.13618" lon="6.75967">
        <ele>1225.5999755859</ele>
        <time>2020-08-13T07:24:39.000Z</time>
      </trkpt>
      <trkpt lat="44.13612" lon="6.7597">
        <ele>1226</ele>
        <time>2020-08-13T07:24:42.000Z</time>
      </trkpt>
      <trkpt lat="44.13609" lon="6.75972">
        <ele>1226.4000244141</ele>
        <time>2020-08-13T07:24:44.000Z</time>
      </trkpt>
      <trkpt lat="44.13602" lon="6.75977">
        <ele>1227.1999511719</ele>
        <time>2020-08-13T07:24:48.000Z</time>
      </trkpt>
      <trkpt lat="44.13597" lon="6.75979">
        <ele>1227.5999755859</ele>
        <time>2020-08-13T07:24:51.000Z</time>
      </trkpt>
      <trkpt lat="44.13592" lon="6.75979">
        <ele>1228</ele>
        <time>2020-08-13T07:24:54.000Z</time>
      </trkpt>
      <trkpt lat="44.13592" lon="6.75977">
        <ele>1228.1999511719</ele>
        <time>2020-08-13T07:24:55.000Z</time>
      </trkpt>
      <trkpt lat="44.13592" lon="6.75974">
        <ele>1228.4000244141</ele>
        <time>2020-08-13T07:24:56.000Z</time>
      </trkpt>
      <trkpt lat="44.13596" lon="6.75969">
        <ele>1228.8000488281</ele>
        <time>2020-08-13T07:24:59.000Z</time>
      </trkpt>
      <trkpt lat="44.13597" lon="6.75967">
        <ele>1229</ele>
        <time>2020-08-13T07:25:00.000Z</time>
      </trkpt>
      <trkpt lat="44.13598" lon="6.75966">
        <ele>1229.1999511719</ele>
        <time>2020-08-13T07:25:01.000Z</time>
      </trkpt>
      <trkpt lat="44.13609" lon="6.75955">
        <ele>1230.1999511719</ele>
        <time>2020-08-13T07:25:08.000Z</time>
      </trkpt>
      <trkpt lat="44.1361" lon="6.75953">
        <ele>1230.5999755859</ele>
        <time>2020-08-13T07:25:09.000Z</time>
      </trkpt>
      <trkpt lat="44.13619" lon="6.75947">
        <ele>1231.5999755859</ele>
        <time>2020-08-13T07:25:14.000Z</time>
      </trkpt>
      <trkpt lat="44.13627" lon="6.75941">
        <ele>1232.8000488281</ele>
        <time>2020-08-13T07:25:19.000Z</time>
      </trkpt>
      <trkpt lat="44.13629" lon="6.7594">
        <ele>1233</ele>
        <time>2020-08-13T07:25:20.000Z</time>
      </trkpt>
      <trkpt lat="44.13636" lon="6.75934">
        <ele>1233.8000488281</ele>
        <time>2020-08-13T07:25:24.000Z</time>
      </trkpt>
      <trkpt lat="44.13642" lon="6.7593">
        <ele>1234.1999511719</ele>
        <time>2020-08-13T07:25:27.000Z</time>
      </trkpt>
      <trkpt lat="44.13649" lon="6.75925">
        <ele>1234.8000488281</ele>
        <time>2020-08-13T07:25:31.000Z</time>
      </trkpt>
      <trkpt lat="44.13653" lon="6.75922">
        <ele>1235.1999511719</ele>
        <time>2020-08-13T07:25:33.000Z</time>
      </trkpt>
      <trkpt lat="44.13661" lon="6.75917">
        <ele>1235.8000488281</ele>
        <time>2020-08-13T07:25:37.000Z</time>
      </trkpt>
      <trkpt lat="44.13667" lon="6.75913">
        <ele>1236.1999511719</ele>
        <time>2020-08-13T07:25:40.000Z</time>
      </trkpt>
      <trkpt lat="44.13676" lon="6.75907">
        <ele>1237</ele>
        <time>2020-08-13T07:25:45.000Z</time>
      </trkpt>
      <trkpt lat="44.13682" lon="6.75904">
        <ele>1237.5999755859</ele>
        <time>2020-08-13T07:25:48.000Z</time>
      </trkpt>
      <trkpt lat="44.13686" lon="6.75901">
        <ele>1238</ele>
        <time>2020-08-13T07:25:50.000Z</time>
      </trkpt>
      <trkpt lat="44.13698" lon="6.75894">
        <ele>1238.8000488281</ele>
        <time>2020-08-13T07:25:56.000Z</time>
      </trkpt>
      <trkpt lat="44.13702" lon="6.75892">
        <ele>1239</ele>
        <time>2020-08-13T07:25:58.000Z</time>
      </trkpt>
      <trkpt lat="44.13713" lon="6.75886">
        <ele>1239.8000488281</ele>
        <time>2020-08-13T07:26:03.000Z</time>
      </trkpt>
      <trkpt lat="44.13719" lon="6.75882">
        <ele>1240.1999511719</ele>
        <time>2020-08-13T07:26:06.000Z</time>
      </trkpt>
      <trkpt lat="44.13727" lon="6.75875">
        <ele>1240.8000488281</ele>
        <time>2020-08-13T07:26:10.000Z</time>
      </trkpt>
      <trkpt lat="44.13733" lon="6.7587">
        <ele>1241.4000244141</ele>
        <time>2020-08-13T07:26:13.000Z</time>
      </trkpt>
      <trkpt lat="44.13744" lon="6.75858">
        <ele>1242.1999511719</ele>
        <time>2020-08-13T07:26:19.000Z</time>
      </trkpt>
      <trkpt lat="44.13746" lon="6.75856">
        <ele>1242.4000244141</ele>
        <time>2020-08-13T07:26:20.000Z</time>
      </trkpt>
      <trkpt lat="44.13758" lon="6.75845">
        <ele>1243.5999755859</ele>
        <time>2020-08-13T07:26:26.000Z</time>
      </trkpt>
      <trkpt lat="44.13769" lon="6.75838">
        <ele>1244.5999755859</ele>
        <time>2020-08-13T07:26:31.000Z</time>
      </trkpt>
      <trkpt lat="44.13777" lon="6.75833">
        <ele>1245.4000244141</ele>
        <time>2020-08-13T07:26:36.000Z</time>
      </trkpt>
      <trkpt lat="44.13783" lon="6.75831">
        <ele>1245.8000488281</ele>
        <time>2020-08-13T07:26:38.000Z</time>
      </trkpt>
      <trkpt lat="44.13786" lon="6.7583">
        <ele>1245.8000488281</ele>
        <time>2020-08-13T07:26:39.000Z</time>
      </trkpt>
      <trkpt lat="44.13797" lon="6.75826">
        <ele>1246.8000488281</ele>
        <time>2020-08-13T07:26:44.000Z</time>
      </trkpt>
      <trkpt lat="44.138" lon="6.75825">
        <ele>1247</ele>
        <time>2020-08-13T07:26:45.000Z</time>
      </trkpt>
      <trkpt lat="44.13813" lon="6.75816">
        <ele>1248</ele>
        <time>2020-08-13T07:26:51.000Z</time>
      </trkpt>
      <trkpt lat="44.13816" lon="6.75813">
        <ele>1248.4000244141</ele>
        <time>2020-08-13T07:26:53.000Z</time>
      </trkpt>
      <trkpt lat="44.13825" lon="6.75806">
        <ele>1249</ele>
        <time>2020-08-13T07:26:57.000Z</time>
      </trkpt>
      <trkpt lat="44.13835" lon="6.75798">
        <ele>1250</ele>
        <time>2020-08-13T07:27:02.000Z</time>
      </trkpt>
      <trkpt lat="44.13837" lon="6.75796">
        <ele>1250.1999511719</ele>
        <time>2020-08-13T07:27:03.000Z</time>
      </trkpt>
      <trkpt lat="44.13842" lon="6.75788">
        <ele>1250.8000488281</ele>
        <time>2020-08-13T07:27:06.000Z</time>
      </trkpt>
      <trkpt lat="44.13847" lon="6.7578">
        <ele>1251.4000244141</ele>
        <time>2020-08-13T07:27:09.000Z</time>
      </trkpt>
      <trkpt lat="44.13853" lon="6.75767">
        <ele>1252.5999755859</ele>
        <time>2020-08-13T07:27:14.000Z</time>
      </trkpt>
      <trkpt lat="44.13856" lon="6.75756">
        <ele>1253.1999511719</ele>
        <time>2020-08-13T07:27:18.000Z</time>
      </trkpt>
      <trkpt lat="44.13858" lon="6.7575">
        <ele>1253.5999755859</ele>
        <time>2020-08-13T07:27:20.000Z</time>
      </trkpt>
      <trkpt lat="44.13863" lon="6.75736">
        <ele>1254.8000488281</ele>
        <time>2020-08-13T07:27:25.000Z</time>
      </trkpt>
      <trkpt lat="44.13868" lon="6.75724">
        <ele>1255.8000488281</ele>
        <time>2020-08-13T07:27:29.000Z</time>
      </trkpt>
      <trkpt lat="44.1387" lon="6.75719">
        <ele>1256</ele>
        <time>2020-08-13T07:27:31.000Z</time>
      </trkpt>
      <trkpt lat="44.13876" lon="6.75704">
        <ele>1256.5999755859</ele>
        <time>2020-08-13T07:27:36.000Z</time>
      </trkpt>
      <trkpt lat="44.13877" lon="6.75701">
        <ele>1256.8000488281</ele>
        <time>2020-08-13T07:27:37.000Z</time>
      </trkpt>
      <trkpt lat="44.13882" lon="6.75687">
        <ele>1258</ele>
        <time>2020-08-13T07:27:42.000Z</time>
      </trkpt>
      <trkpt lat="44.13883" lon="6.75685">
        <ele>1258.1999511719</ele>
        <time>2020-08-13T07:27:43.000Z</time>
      </trkpt>
      <trkpt lat="44.13886" lon="6.75677">
        <ele>1258.5999755859</ele>
        <time>2020-08-13T07:27:46.000Z</time>
      </trkpt>
      <trkpt lat="44.13888" lon="6.75671">
        <ele>1259.1999511719</ele>
        <time>2020-08-13T07:27:48.000Z</time>
      </trkpt>
      <trkpt lat="44.13891" lon="6.75658">
        <ele>1260</ele>
        <time>2020-08-13T07:27:52.000Z</time>
      </trkpt>
      <trkpt lat="44.13893" lon="6.75651">
        <ele>1260.1999511719</ele>
        <time>2020-08-13T07:27:54.000Z</time>
      </trkpt>
      <trkpt lat="44.13895" lon="6.75646">
        <ele>1260.5999755859</ele>
        <time>2020-08-13T07:27:56.000Z</time>
      </trkpt>
      <trkpt lat="44.13901" lon="6.75632">
        <ele>1261.4000244141</ele>
        <time>2020-08-13T07:28:01.000Z</time>
      </trkpt>
      <trkpt lat="44.13906" lon="6.7562">
        <ele>1262.1999511719</ele>
        <time>2020-08-13T07:28:05.000Z</time>
      </trkpt>
      <trkpt lat="44.13909" lon="6.75615">
        <ele>1262.4000244141</ele>
        <time>2020-08-13T07:28:07.000Z</time>
      </trkpt>
      <trkpt lat="44.13913" lon="6.75606">
        <ele>1263.1999511719</ele>
        <time>2020-08-13T07:28:10.000Z</time>
      </trkpt>
      <trkpt lat="44.13915" lon="6.756">
        <ele>1263.5999755859</ele>
        <time>2020-08-13T07:28:12.000Z</time>
      </trkpt>
      <trkpt lat="44.13919" lon="6.75585">
        <ele>1264.8000488281</ele>
        <time>2020-08-13T07:28:17.000Z</time>
      </trkpt>
      <trkpt lat="44.13922" lon="6.75575">
        <ele>1265.4000244141</ele>
        <time>2020-08-13T07:28:20.000Z</time>
      </trkpt>
      <trkpt lat="44.13924" lon="6.75569">
        <ele>1265.8000488281</ele>
        <time>2020-08-13T07:28:22.000Z</time>
      </trkpt>
      <trkpt lat="44.13932" lon="6.75552">
        <ele>1266.8000488281</ele>
        <time>2020-08-13T07:28:28.000Z</time>
      </trkpt>
      <trkpt lat="44.13938" lon="6.75539">
        <ele>1268</ele>
        <time>2020-08-13T07:28:33.000Z</time>
      </trkpt>
      <trkpt lat="44.13941" lon="6.75531">
        <ele>1268.5999755859</ele>
        <time>2020-08-13T07:28:36.000Z</time>
      </trkpt>
      <trkpt lat="44.13944" lon="6.75522">
        <ele>1269</ele>
        <time>2020-08-13T07:28:39.000Z</time>
      </trkpt>
      <trkpt lat="44.13951" lon="6.75511">
        <ele>1269.8000488281</ele>
        <time>2020-08-13T07:28:43.000Z</time>
      </trkpt>
      <trkpt lat="44.13954" lon="6.75505">
        <ele>1270.1999511719</ele>
        <time>2020-08-13T07:28:45.000Z</time>
      </trkpt>
      <trkpt lat="44.13961" lon="6.75493">
        <ele>1271</ele>
        <time>2020-08-13T07:28:50.000Z</time>
      </trkpt>
      <trkpt lat="44.13963" lon="6.75491">
        <ele>1271.4000244141</ele>
        <time>2020-08-13T07:28:51.000Z</time>
      </trkpt>
      <trkpt lat="44.13971" lon="6.75477">
        <ele>1272.4000244141</ele>
        <time>2020-08-13T07:28:57.000Z</time>
      </trkpt>
      <trkpt lat="44.13973" lon="6.75475">
        <ele>1272.8000488281</ele>
        <time>2020-08-13T07:28:58.000Z</time>
      </trkpt>
      <trkpt lat="44.1398" lon="6.75467">
        <ele>1273.8000488281</ele>
        <time>2020-08-13T07:29:02.000Z</time>
      </trkpt>
      <trkpt lat="44.13985" lon="6.75461">
        <ele>1274.4000244141</ele>
        <time>2020-08-13T07:29:05.000Z</time>
      </trkpt>
      <trkpt lat="44.13988" lon="6.75457">
        <ele>1274.8000488281</ele>
        <time>2020-08-13T07:29:07.000Z</time>
      </trkpt>
      <trkpt lat="44.14" lon="6.75447">
        <ele>1275.8000488281</ele>
        <time>2020-08-13T07:29:13.000Z</time>
      </trkpt>
      <trkpt lat="44.14002" lon="6.75446">
        <ele>1276</ele>
        <time>2020-08-13T07:29:14.000Z</time>
      </trkpt>
      <trkpt lat="44.14012" lon="6.75435">
        <ele>1277</ele>
        <time>2020-08-13T07:29:20.000Z</time>
      </trkpt>
      <trkpt lat="44.14014" lon="6.75433">
        <ele>1277.1999511719</ele>
        <time>2020-08-13T07:29:21.000Z</time>
      </trkpt>
      <trkpt lat="44.14023" lon="6.75423">
        <ele>1278.1999511719</ele>
        <time>2020-08-13T07:29:26.000Z</time>
      </trkpt>
      <trkpt lat="44.14027" lon="6.75419">
        <ele>1278.4000244141</ele>
        <time>2020-08-13T07:29:28.000Z</time>
      </trkpt>
      <trkpt lat="44.14037" lon="6.75409">
        <ele>1279.1999511719</ele>
        <time>2020-08-13T07:29:33.000Z</time>
      </trkpt>
      <trkpt lat="44.14043" lon="6.75403">
        <ele>1279.8000488281</ele>
        <time>2020-08-13T07:29:36.000Z</time>
      </trkpt>
      <trkpt lat="44.14047" lon="6.75396">
        <ele>1280.1999511719</ele>
        <time>2020-08-13T07:29:39.000Z</time>
      </trkpt>
      <trkpt lat="44.14056" lon="6.75386">
        <ele>1281.4000244141</ele>
        <time>2020-08-13T07:29:44.000Z</time>
      </trkpt>
      <trkpt lat="44.14058" lon="6.75384">
        <ele>1281.5999755859</ele>
        <time>2020-08-13T07:29:45.000Z</time>
      </trkpt>
      <trkpt lat="44.14067" lon="6.75375">
        <ele>1282.4000244141</ele>
        <time>2020-08-13T07:29:50.000Z</time>
      </trkpt>
      <trkpt lat="44.14071" lon="6.75372">
        <ele>1282.8000488281</ele>
        <time>2020-08-13T07:29:52.000Z</time>
      </trkpt>
      <trkpt lat="44.14074" lon="6.7537">
        <ele>1283.4000244141</ele>
        <time>2020-08-13T07:29:54.000Z</time>
      </trkpt>
      <trkpt lat="44.14082" lon="6.75364">
        <ele>1284.5999755859</ele>
        <time>2020-08-13T07:29:58.000Z</time>
      </trkpt>
      <trkpt lat="44.14086" lon="6.7536">
        <ele>1284.8000488281</ele>
        <time>2020-08-13T07:30:00.000Z</time>
      </trkpt>
      <trkpt lat="44.14093" lon="6.75353">
        <ele>1285.5999755859</ele>
        <time>2020-08-13T07:30:04.000Z</time>
      </trkpt>
      <trkpt lat="44.14097" lon="6.75346">
        <ele>1286.5999755859</ele>
        <time>2020-08-13T07:30:07.000Z</time>
      </trkpt>
      <trkpt lat="44.14104" lon="6.75331">
        <ele>1287.8000488281</ele>
        <time>2020-08-13T07:30:13.000Z</time>
      </trkpt>
      <trkpt lat="44.14106" lon="6.75325">
        <ele>1288.1999511719</ele>
        <time>2020-08-13T07:30:15.000Z</time>
      </trkpt>
      <trkpt lat="44.14112" lon="6.75315">
        <ele>1289.1999511719</ele>
        <time>2020-08-13T07:30:19.000Z</time>
      </trkpt>
      <trkpt lat="44.14116" lon="6.75307">
        <ele>1290</ele>
        <time>2020-08-13T07:30:22.000Z</time>
      </trkpt>
      <trkpt lat="44.14118" lon="6.75305">
        <ele>1290.1999511719</ele>
        <time>2020-08-13T07:30:23.000Z</time>
      </trkpt>
      <trkpt lat="44.14121" lon="6.75301">
        <ele>1290.5999755859</ele>
        <time>2020-08-13T07:30:25.000Z</time>
      </trkpt>
      <trkpt lat="44.14123" lon="6.75297">
        <ele>1291.1999511719</ele>
        <time>2020-08-13T07:30:27.000Z</time>
      </trkpt>
      <trkpt lat="44.14124" lon="6.75294">
        <ele>1291.4000244141</ele>
        <time>2020-08-13T07:30:28.000Z</time>
      </trkpt>
      <trkpt lat="44.14131" lon="6.75283">
        <ele>1292.4000244141</ele>
        <time>2020-08-13T07:30:33.000Z</time>
      </trkpt>
      <trkpt lat="44.14133" lon="6.75279">
        <ele>1293</ele>
        <time>2020-08-13T07:30:35.000Z</time>
      </trkpt>
      <trkpt lat="44.14135" lon="6.75275">
        <ele>1293.4000244141</ele>
        <time>2020-08-13T07:30:37.000Z</time>
      </trkpt>
      <trkpt lat="44.14136" lon="6.75273">
        <ele>1293.5999755859</ele>
        <time>2020-08-13T07:30:38.000Z</time>
      </trkpt>
      <trkpt lat="44.14138" lon="6.75267">
        <ele>1294.1999511719</ele>
        <time>2020-08-13T07:30:41.000Z</time>
      </trkpt>
      <trkpt lat="44.1414" lon="6.75259">
        <ele>1294.8000488281</ele>
        <time>2020-08-13T07:30:44.000Z</time>
      </trkpt>
      <trkpt lat="44.14145" lon="6.75251">
        <ele>1295.5999755859</ele>
        <time>2020-08-13T07:30:48.000Z</time>
      </trkpt>
      <trkpt lat="44.14146" lon="6.75249">
        <ele>1295.8000488281</ele>
        <time>2020-08-13T07:30:49.000Z</time>
      </trkpt>
      <trkpt lat="44.14151" lon="6.75241">
        <ele>1297</ele>
        <time>2020-08-13T07:30:53.000Z</time>
      </trkpt>
      <trkpt lat="44.14152" lon="6.75239">
        <ele>1297.1999511719</ele>
        <time>2020-08-13T07:30:54.000Z</time>
      </trkpt>
      <trkpt lat="44.14153" lon="6.75235">
        <ele>1297.5999755859</ele>
        <time>2020-08-13T07:30:56.000Z</time>
      </trkpt>
      <trkpt lat="44.14155" lon="6.75231">
        <ele>1298</ele>
        <time>2020-08-13T07:30:58.000Z</time>
      </trkpt>
      <trkpt lat="44.14156" lon="6.75226">
        <ele>1298.4000244141</ele>
        <time>2020-08-13T07:31:00.000Z</time>
      </trkpt>
      <trkpt lat="44.14155" lon="6.75224">
        <ele>1298.5999755859</ele>
        <time>2020-08-13T07:31:01.000Z</time>
      </trkpt>
      <trkpt lat="44.14152" lon="6.75221">
        <ele>1299</ele>
        <time>2020-08-13T07:31:03.000Z</time>
      </trkpt>
      <trkpt lat="44.14151" lon="6.75221">
        <ele>1299.1999511719</ele>
        <time>2020-08-13T07:31:04.000Z</time>
      </trkpt>
      <trkpt lat="44.14143" lon="6.75226">
        <ele>1299.5999755859</ele>
        <time>2020-08-13T07:31:08.000Z</time>
      </trkpt>
      <trkpt lat="44.14139" lon="6.75231">
        <ele>1299.5999755859</ele>
        <time>2020-08-13T07:31:10.000Z</time>
      </trkpt>
      <trkpt lat="44.14131" lon="6.75245">
        <ele>1299.5999755859</ele>
        <time>2020-08-13T07:31:14.000Z</time>
      </trkpt>
      <trkpt lat="44.14109" lon="6.75276">
        <ele>1299.8000488281</ele>
        <time>2020-08-13T07:31:22.000Z</time>
      </trkpt>
      <trkpt lat="44.14087" lon="6.753">
        <ele>1300.1999511719</ele>
        <time>2020-08-13T07:31:30.000Z</time>
      </trkpt>
      <trkpt lat="44.14077" lon="6.7531">
        <ele>1301.4000244141</ele>
        <time>2020-08-13T07:31:34.000Z</time>
      </trkpt>
      <trkpt lat="44.14069" lon="6.75316">
        <ele>1302</ele>
        <time>2020-08-13T07:31:37.000Z</time>
      </trkpt>
      <trkpt lat="44.14065" lon="6.7532">
        <ele>1302.5999755859</ele>
        <time>2020-08-13T07:31:39.000Z</time>
      </trkpt>
      <trkpt lat="44.14054" lon="6.75325">
        <ele>1303.4000244141</ele>
        <time>2020-08-13T07:31:43.000Z</time>
      </trkpt>
      <trkpt lat="44.14049" lon="6.75326">
        <ele>1303.5999755859</ele>
        <time>2020-08-13T07:31:45.000Z</time>
      </trkpt>
      <trkpt lat="44.14036" lon="6.75331">
        <ele>1304.8000488281</ele>
        <time>2020-08-13T07:31:50.000Z</time>
      </trkpt>
      <trkpt lat="44.14033" lon="6.75331">
        <ele>1305</ele>
        <time>2020-08-13T07:31:51.000Z</time>
      </trkpt>
      <trkpt lat="44.1402" lon="6.75336">
        <ele>1306</ele>
        <time>2020-08-13T07:31:56.000Z</time>
      </trkpt>
      <trkpt lat="44.14009" lon="6.75342">
        <ele>1306.8000488281</ele>
        <time>2020-08-13T07:32:00.000Z</time>
      </trkpt>
      <trkpt lat="44.14007" lon="6.75344">
        <ele>1307</ele>
        <time>2020-08-13T07:32:01.000Z</time>
      </trkpt>
      <trkpt lat="44.13994" lon="6.75352">
        <ele>1308.1999511719</ele>
        <time>2020-08-13T07:32:06.000Z</time>
      </trkpt>
      <trkpt lat="44.13988" lon="6.75356">
        <ele>1308.5999755859</ele>
        <time>2020-08-13T07:32:08.000Z</time>
      </trkpt>
      <trkpt lat="44.13978" lon="6.75365">
        <ele>1309.1999511719</ele>
        <time>2020-08-13T07:32:12.000Z</time>
      </trkpt>
      <trkpt lat="44.13967" lon="6.75373">
        <ele>1309.8000488281</ele>
        <time>2020-08-13T07:32:16.000Z</time>
      </trkpt>
      <trkpt lat="44.1396" lon="6.75378">
        <ele>1310.4000244141</ele>
        <time>2020-08-13T07:32:19.000Z</time>
      </trkpt>
      <trkpt lat="44.13955" lon="6.75382">
        <ele>1310.8000488281</ele>
        <time>2020-08-13T07:32:21.000Z</time>
      </trkpt>
      <trkpt lat="44.13951" lon="6.75385">
        <ele>1311.4000244141</ele>
        <time>2020-08-13T07:32:23.000Z</time>
      </trkpt>
      <trkpt lat="44.13939" lon="6.75396">
        <ele>1312.5999755859</ele>
        <time>2020-08-13T07:32:28.000Z</time>
      </trkpt>
      <trkpt lat="44.13937" lon="6.75398">
        <ele>1312.8000488281</ele>
        <time>2020-08-13T07:32:29.000Z</time>
      </trkpt>
      <trkpt lat="44.13928" lon="6.7541">
        <ele>1313.8000488281</ele>
        <time>2020-08-13T07:32:34.000Z</time>
      </trkpt>
      <trkpt lat="44.13926" lon="6.75412">
        <ele>1314</ele>
        <time>2020-08-13T07:32:35.000Z</time>
      </trkpt>
      <trkpt lat="44.13918" lon="6.75427">
        <ele>1314.5999755859</ele>
        <time>2020-08-13T07:32:40.000Z</time>
      </trkpt>
      <trkpt lat="44.13913" lon="6.75425">
        <ele>1315</ele>
        <time>2020-08-13T07:32:42.000Z</time>
      </trkpt>
      <trkpt lat="44.13915" lon="6.75418">
        <ele>1315.5999755859</ele>
        <time>2020-08-13T07:32:45.000Z</time>
      </trkpt>
      <trkpt lat="44.13918" lon="6.75413">
        <ele>1316</ele>
        <time>2020-08-13T07:32:47.000Z</time>
      </trkpt>
      <trkpt lat="44.13924" lon="6.75402">
        <ele>1317</ele>
        <time>2020-08-13T07:32:51.000Z</time>
      </trkpt>
      <trkpt lat="44.13925" lon="6.75399">
        <ele>1317.1999511719</ele>
        <time>2020-08-13T07:32:52.000Z</time>
      </trkpt>
      <trkpt lat="44.13937" lon="6.75383">
        <ele>1318</ele>
        <time>2020-08-13T07:32:59.000Z</time>
      </trkpt>
      <trkpt lat="44.13939" lon="6.75381">
        <ele>1318.1999511719</ele>
        <time>2020-08-13T07:33:00.000Z</time>
      </trkpt>
      <trkpt lat="44.13948" lon="6.75371">
        <ele>1319</ele>
        <time>2020-08-13T07:33:05.000Z</time>
      </trkpt>
      <trkpt lat="44.13952" lon="6.75366">
        <ele>1319.4000244141</ele>
        <time>2020-08-13T07:33:07.000Z</time>
      </trkpt>
      <trkpt lat="44.13966" lon="6.75348">
        <ele>1320.4000244141</ele>
        <time>2020-08-13T07:33:14.000Z</time>
      </trkpt>
      <trkpt lat="44.13968" lon="6.75345">
        <ele>1320.4000244141</ele>
        <time>2020-08-13T07:33:15.000Z</time>
      </trkpt>
      <trkpt lat="44.1398" lon="6.75332">
        <ele>1321.1999511719</ele>
        <time>2020-08-13T07:33:21.000Z</time>
      </trkpt>
      <trkpt lat="44.13985" lon="6.75329">
        <ele>1321.5999755859</ele>
        <time>2020-08-13T07:33:23.000Z</time>
      </trkpt>
      <trkpt lat="44.14" lon="6.75314">
        <ele>1322.5999755859</ele>
        <time>2020-08-13T07:33:30.000Z</time>
      </trkpt>
      <trkpt lat="44.14002" lon="6.75312">
        <ele>1322.8000488281</ele>
        <time>2020-08-13T07:33:31.000Z</time>
      </trkpt>
      <trkpt lat="44.14014" lon="6.75301">
        <ele>1323.5999755859</ele>
        <time>2020-08-13T07:33:37.000Z</time>
      </trkpt>
      <trkpt lat="44.14016" lon="6.75299">
        <ele>1323.8000488281</ele>
        <time>2020-08-13T07:33:38.000Z</time>
      </trkpt>
      <trkpt lat="44.14026" lon="6.75295">
        <ele>1325</ele>
        <time>2020-08-13T07:33:43.000Z</time>
      </trkpt>
      <trkpt lat="44.14029" lon="6.75292">
        <ele>1325.4000244141</ele>
        <time>2020-08-13T07:33:45.000Z</time>
      </trkpt>
      <trkpt lat="44.14033" lon="6.75285">
        <ele>1326</ele>
        <time>2020-08-13T07:33:48.000Z</time>
      </trkpt>
      <trkpt lat="44.14032" lon="6.75282">
        <ele>1326.1999511719</ele>
        <time>2020-08-13T07:33:49.000Z</time>
      </trkpt>
      <trkpt lat="44.14032" lon="6.75279">
        <ele>1326.1999511719</ele>
        <time>2020-08-13T07:33:50.000Z</time>
      </trkpt>
      <trkpt lat="44.14023" lon="6.75275">
        <ele>1327</ele>
        <time>2020-08-13T07:33:54.000Z</time>
      </trkpt>
      <trkpt lat="44.1402" lon="6.75277">
        <ele>1327.1999511719</ele>
        <time>2020-08-13T07:33:55.000Z</time>
      </trkpt>
      <trkpt lat="44.14016" lon="6.75279">
        <ele>1327.5999755859</ele>
        <time>2020-08-13T07:33:57.000Z</time>
      </trkpt>
      <trkpt lat="44.14009" lon="6.75284">
        <ele>1328.1999511719</ele>
        <time>2020-08-13T07:34:00.000Z</time>
      </trkpt>
      <trkpt lat="44.1399" lon="6.75301">
        <ele>1329.4000244141</ele>
        <time>2020-08-13T07:34:09.000Z</time>
      </trkpt>
      <trkpt lat="44.13977" lon="6.75309">
        <ele>1330.4000244141</ele>
        <time>2020-08-13T07:34:15.000Z</time>
      </trkpt>
      <trkpt lat="44.13972" lon="6.75314">
        <ele>1331</ele>
        <time>2020-08-13T07:34:18.000Z</time>
      </trkpt>
      <trkpt lat="44.13966" lon="6.75317">
        <ele>1331.5999755859</ele>
        <time>2020-08-13T07:34:21.000Z</time>
      </trkpt>
      <trkpt lat="44.13955" lon="6.75326">
        <ele>1332.4000244141</ele>
        <time>2020-08-13T07:34:27.000Z</time>
      </trkpt>
      <trkpt lat="44.13953" lon="6.75328">
        <ele>1332.5999755859</ele>
        <time>2020-08-13T07:34:28.000Z</time>
      </trkpt>
      <trkpt lat="44.13942" lon="6.75337">
        <ele>1333.8000488281</ele>
        <time>2020-08-13T07:34:34.000Z</time>
      </trkpt>
      <trkpt lat="44.1394" lon="6.75339">
        <ele>1334.1999511719</ele>
        <time>2020-08-13T07:34:35.000Z</time>
      </trkpt>
      <trkpt lat="44.13934" lon="6.75344">
        <ele>1335</ele>
        <time>2020-08-13T07:34:38.000Z</time>
      </trkpt>
      <trkpt lat="44.1393" lon="6.75346">
        <ele>1335.4000244141</ele>
        <time>2020-08-13T07:34:40.000Z</time>
      </trkpt>
      <trkpt lat="44.13922" lon="6.75352">
        <ele>1336</ele>
        <time>2020-08-13T07:34:44.000Z</time>
      </trkpt>
      <trkpt lat="44.13918" lon="6.75355">
        <ele>1336.4000244141</ele>
        <time>2020-08-13T07:34:46.000Z</time>
      </trkpt>
      <trkpt lat="44.13911" lon="6.75363">
        <ele>1337</ele>
        <time>2020-08-13T07:34:50.000Z</time>
      </trkpt>
      <trkpt lat="44.13904" lon="6.75372">
        <ele>1337.8000488281</ele>
        <time>2020-08-13T07:34:54.000Z</time>
      </trkpt>
      <trkpt lat="44.13902" lon="6.75375">
        <ele>1338</ele>
        <time>2020-08-13T07:34:55.000Z</time>
      </trkpt>
      <trkpt lat="44.13892" lon="6.75388">
        <ele>1339.1999511719</ele>
        <time>2020-08-13T07:35:01.000Z</time>
      </trkpt>
      <trkpt lat="44.1389" lon="6.7539">
        <ele>1339.4000244141</ele>
        <time>2020-08-13T07:35:02.000Z</time>
      </trkpt>
      <trkpt lat="44.13883" lon="6.75398">
        <ele>1340.1999511719</ele>
        <time>2020-08-13T07:35:06.000Z</time>
      </trkpt>
      <trkpt lat="44.13875" lon="6.75405">
        <ele>1341</ele>
        <time>2020-08-13T07:35:11.000Z</time>
      </trkpt>
      <trkpt lat="44.13871" lon="6.75408">
        <ele>1341.4000244141</ele>
        <time>2020-08-13T07:35:13.000Z</time>
      </trkpt>
      <trkpt lat="44.13864" lon="6.75417">
        <ele>1342.5999755859</ele>
        <time>2020-08-13T07:35:18.000Z</time>
      </trkpt>
      <trkpt lat="44.13857" lon="6.75428">
        <ele>1343.5999755859</ele>
        <time>2020-08-13T07:35:23.000Z</time>
      </trkpt>
      <trkpt lat="44.13853" lon="6.75435">
        <ele>1344.1999511719</ele>
        <time>2020-08-13T07:35:26.000Z</time>
      </trkpt>
      <trkpt lat="44.13851" lon="6.75439">
        <ele>1344.5999755859</ele>
        <time>2020-08-13T07:35:28.000Z</time>
      </trkpt>
      <trkpt lat="44.13846" lon="6.75448">
        <ele>1345.4000244141</ele>
        <time>2020-08-13T07:35:32.000Z</time>
      </trkpt>
      <trkpt lat="44.13843" lon="6.75451">
        <ele>1345.8000488281</ele>
        <time>2020-08-13T07:35:34.000Z</time>
      </trkpt>
      <trkpt lat="44.13834" lon="6.75462">
        <ele>1346.8000488281</ele>
        <time>2020-08-13T07:35:40.000Z</time>
      </trkpt>
      <trkpt lat="44.13833" lon="6.75464">
        <ele>1347</ele>
        <time>2020-08-13T07:35:41.000Z</time>
      </trkpt>
      <trkpt lat="44.13825" lon="6.75471">
        <ele>1347.8000488281</ele>
        <time>2020-08-13T07:35:46.000Z</time>
      </trkpt>
      <trkpt lat="44.13822" lon="6.75475">
        <ele>1348.4000244141</ele>
        <time>2020-08-13T07:35:48.000Z</time>
      </trkpt>
      <trkpt lat="44.13816" lon="6.7548">
        <ele>1349</ele>
        <time>2020-08-13T07:35:52.000Z</time>
      </trkpt>
      <trkpt lat="44.1381" lon="6.75484">
        <ele>1349.8000488281</ele>
        <time>2020-08-13T07:35:56.000Z</time>
      </trkpt>
      <trkpt lat="44.13808" lon="6.75485">
        <ele>1350.1999511719</ele>
        <time>2020-08-13T07:35:57.000Z</time>
      </trkpt>
      <trkpt lat="44.13799" lon="6.75489">
        <ele>1351.1999511719</ele>
        <time>2020-08-13T07:36:03.000Z</time>
      </trkpt>
      <trkpt lat="44.13788" lon="6.75496">
        <ele>1352.1999511719</ele>
        <time>2020-08-13T07:36:09.000Z</time>
      </trkpt>
      <trkpt lat="44.13783" lon="6.755">
        <ele>1352.8000488281</ele>
        <time>2020-08-13T07:36:12.000Z</time>
      </trkpt>
      <trkpt lat="44.13778" lon="6.75505">
        <ele>1353.4000244141</ele>
        <time>2020-08-13T07:36:15.000Z</time>
      </trkpt>
      <trkpt lat="44.13772" lon="6.7551">
        <ele>1354.5999755859</ele>
        <time>2020-08-13T07:36:19.000Z</time>
      </trkpt>
      <trkpt lat="44.13762" lon="6.75517">
        <ele>1355.8000488281</ele>
        <time>2020-08-13T07:36:25.000Z</time>
      </trkpt>
      <trkpt lat="44.13759" lon="6.7552">
        <ele>1356.1999511719</ele>
        <time>2020-08-13T07:36:27.000Z</time>
      </trkpt>
      <trkpt lat="44.13754" lon="6.75521">
        <ele>1356.8000488281</ele>
        <time>2020-08-13T07:36:30.000Z</time>
      </trkpt>
      <trkpt lat="44.1375" lon="6.75522">
        <ele>1357.5999755859</ele>
        <time>2020-08-13T07:36:33.000Z</time>
      </trkpt>
      <trkpt lat="44.13746" lon="6.75523">
        <ele>1358</ele>
        <time>2020-08-13T07:36:35.000Z</time>
      </trkpt>
      <trkpt lat="44.13737" lon="6.75523">
        <ele>1359</ele>
        <time>2020-08-13T07:36:40.000Z</time>
      </trkpt>
      <trkpt lat="44.13725" lon="6.75525">
        <ele>1360.1999511719</ele>
        <time>2020-08-13T07:36:46.000Z</time>
      </trkpt>
      <trkpt lat="44.13719" lon="6.75528">
        <ele>1360.8000488281</ele>
        <time>2020-08-13T07:36:49.000Z</time>
      </trkpt>
      <trkpt lat="44.13713" lon="6.75531">
        <ele>1361.4000244141</ele>
        <time>2020-08-13T07:36:52.000Z</time>
      </trkpt>
      <trkpt lat="44.13707" lon="6.75538">
        <ele>1362</ele>
        <time>2020-08-13T07:36:56.000Z</time>
      </trkpt>
      <trkpt lat="44.13701" lon="6.75547">
        <ele>1362.5999755859</ele>
        <time>2020-08-13T07:37:00.000Z</time>
      </trkpt>
      <trkpt lat="44.13696" lon="6.75557">
        <ele>1363.1999511719</ele>
        <time>2020-08-13T07:37:04.000Z</time>
      </trkpt>
      <trkpt lat="44.13696" lon="6.7556">
        <ele>1363.5999755859</ele>
        <time>2020-08-13T07:37:05.000Z</time>
      </trkpt>
      <trkpt lat="44.1369" lon="6.75572">
        <ele>1364.1999511719</ele>
        <time>2020-08-13T07:37:10.000Z</time>
      </trkpt>
      <trkpt lat="44.13687" lon="6.75577">
        <ele>1364.5999755859</ele>
        <time>2020-08-13T07:37:12.000Z</time>
      </trkpt>
      <trkpt lat="44.1368" lon="6.75585">
        <ele>1365.5999755859</ele>
        <time>2020-08-13T07:37:17.000Z</time>
      </trkpt>
      <trkpt lat="44.1367" lon="6.75596">
        <ele>1366.5999755859</ele>
        <time>2020-08-13T07:37:23.000Z</time>
      </trkpt>
      <trkpt lat="44.13667" lon="6.756">
        <ele>1367.1999511719</ele>
        <time>2020-08-13T07:37:25.000Z</time>
      </trkpt>
      <trkpt lat="44.13662" lon="6.75605">
        <ele>1367.8000488281</ele>
        <time>2020-08-13T07:37:28.000Z</time>
      </trkpt>
      <trkpt lat="44.13654" lon="6.75612">
        <ele>1368.8000488281</ele>
        <time>2020-08-13T07:37:33.000Z</time>
      </trkpt>
      <trkpt lat="44.13652" lon="6.75613">
        <ele>1369.1999511719</ele>
        <time>2020-08-13T07:37:34.000Z</time>
      </trkpt>
      <trkpt lat="44.13643" lon="6.75625">
        <ele>1370.1999511719</ele>
        <time>2020-08-13T07:37:40.000Z</time>
      </trkpt>
      <trkpt lat="44.13635" lon="6.75638">
        <ele>1371.4000244141</ele>
        <time>2020-08-13T07:37:46.000Z</time>
      </trkpt>
      <trkpt lat="44.13632" lon="6.75643">
        <ele>1371.8000488281</ele>
        <time>2020-08-13T07:37:48.000Z</time>
      </trkpt>
      <trkpt lat="44.13625" lon="6.75653">
        <ele>1372.4000244141</ele>
        <time>2020-08-13T07:37:53.000Z</time>
      </trkpt>
      <trkpt lat="44.13622" lon="6.75658">
        <ele>1372.8000488281</ele>
        <time>2020-08-13T07:37:55.000Z</time>
      </trkpt>
      <trkpt lat="44.13615" lon="6.75668">
        <ele>1373.5999755859</ele>
        <time>2020-08-13T07:38:00.000Z</time>
      </trkpt>
      <trkpt lat="44.1361" lon="6.75672">
        <ele>1373.8000488281</ele>
        <time>2020-08-13T07:38:02.000Z</time>
      </trkpt>
      <trkpt lat="44.136" lon="6.7568">
        <ele>1374.5999755859</ele>
        <time>2020-08-13T07:38:07.000Z</time>
      </trkpt>
      <trkpt lat="44.13595" lon="6.75682">
        <ele>1375</ele>
        <time>2020-08-13T07:38:09.000Z</time>
      </trkpt>
      <trkpt lat="44.13581" lon="6.75685">
        <ele>1375.8000488281</ele>
        <time>2020-08-13T07:38:15.000Z</time>
      </trkpt>
      <trkpt lat="44.13579" lon="6.75685">
        <ele>1376</ele>
        <time>2020-08-13T07:38:16.000Z</time>
      </trkpt>
      <trkpt lat="44.13567" lon="6.75688">
        <ele>1377</ele>
        <time>2020-08-13T07:38:21.000Z</time>
      </trkpt>
      <trkpt lat="44.13562" lon="6.75689">
        <ele>1377.4000244141</ele>
        <time>2020-08-13T07:38:23.000Z</time>
      </trkpt>
      <trkpt lat="44.13555" lon="6.75693">
        <ele>1378</ele>
        <time>2020-08-13T07:38:26.000Z</time>
      </trkpt>
      <trkpt lat="44.13544" lon="6.75703">
        <ele>1378.8000488281</ele>
        <time>2020-08-13T07:38:31.000Z</time>
      </trkpt>
      <trkpt lat="44.13538" lon="6.75711">
        <ele>1379.1999511719</ele>
        <time>2020-08-13T07:38:34.000Z</time>
      </trkpt>
      <trkpt lat="44.1353" lon="6.75721">
        <ele>1380</ele>
        <time>2020-08-13T07:38:39.000Z</time>
      </trkpt>
      <trkpt lat="44.13528" lon="6.75721">
        <ele>1380.4000244141</ele>
        <time>2020-08-13T07:38:40.000Z</time>
      </trkpt>
      <trkpt lat="44.13525" lon="6.75717">
        <ele>1380.8000488281</ele>
        <time>2020-08-13T07:38:42.000Z</time>
      </trkpt>
      <trkpt lat="44.13526" lon="6.7571">
        <ele>1381.5999755859</ele>
        <time>2020-08-13T07:38:45.000Z</time>
      </trkpt>
      <trkpt lat="44.13527" lon="6.75707">
        <ele>1381.8000488281</ele>
        <time>2020-08-13T07:38:46.000Z</time>
      </trkpt>
      <trkpt lat="44.13528" lon="6.75705">
        <ele>1382</ele>
        <time>2020-08-13T07:38:47.000Z</time>
      </trkpt>
      <trkpt lat="44.13531" lon="6.75697">
        <ele>1382.8000488281</ele>
        <time>2020-08-13T07:38:50.000Z</time>
      </trkpt>
      <trkpt lat="44.13538" lon="6.75685">
        <ele>1383.8000488281</ele>
        <time>2020-08-13T07:38:55.000Z</time>
      </trkpt>
      <trkpt lat="44.13541" lon="6.75675">
        <ele>1385</ele>
        <time>2020-08-13T07:38:59.000Z</time>
      </trkpt>
      <trkpt lat="44.13544" lon="6.75668">
        <ele>1385.5999755859</ele>
        <time>2020-08-13T07:39:02.000Z</time>
      </trkpt>
      <trkpt lat="44.13547" lon="6.75664">
        <ele>1386</ele>
        <time>2020-08-13T07:39:04.000Z</time>
      </trkpt>
      <trkpt lat="44.13554" lon="6.75651">
        <ele>1387</ele>
        <time>2020-08-13T07:39:10.000Z</time>
      </trkpt>
      <trkpt lat="44.13555" lon="6.75649">
        <ele>1387.1999511719</ele>
        <time>2020-08-13T07:39:11.000Z</time>
      </trkpt>
      <trkpt lat="44.13559" lon="6.75637">
        <ele>1388.1999511719</ele>
        <time>2020-08-13T07:39:16.000Z</time>
      </trkpt>
      <trkpt lat="44.1356" lon="6.75635">
        <ele>1388.4000244141</ele>
        <time>2020-08-13T07:39:17.000Z</time>
      </trkpt>
      <trkpt lat="44.13565" lon="6.75624">
        <ele>1389.4000244141</ele>
        <time>2020-08-13T07:39:22.000Z</time>
      </trkpt>
      <trkpt lat="44.13565" lon="6.75622">
        <ele>1389.4000244141</ele>
        <time>2020-08-13T07:39:23.000Z</time>
      </trkpt>
      <trkpt lat="44.13572" lon="6.75611">
        <ele>1390.4000244141</ele>
        <time>2020-08-13T07:39:29.000Z</time>
      </trkpt>
      <trkpt lat="44.13573" lon="6.75609">
        <ele>1390.5999755859</ele>
        <time>2020-08-13T07:39:30.000Z</time>
      </trkpt>
      <trkpt lat="44.13578" lon="6.75601">
        <ele>1391.4000244141</ele>
        <time>2020-08-13T07:39:34.000Z</time>
      </trkpt>
      <trkpt lat="44.13579" lon="6.75597">
        <ele>1391.8000488281</ele>
        <time>2020-08-13T07:39:36.000Z</time>
      </trkpt>
      <trkpt lat="44.13581" lon="6.75587">
        <ele>1392.5999755859</ele>
        <time>2020-08-13T07:39:40.000Z</time>
      </trkpt>
      <trkpt lat="44.13583" lon="6.75578">
        <ele>1393.1999511719</ele>
        <time>2020-08-13T07:39:44.000Z</time>
      </trkpt>
      <trkpt lat="44.13584" lon="6.75571">
        <ele>1393.8000488281</ele>
        <time>2020-08-13T07:39:47.000Z</time>
      </trkpt>
      <trkpt lat="44.13586" lon="6.75564">
        <ele>1394.4000244141</ele>
        <time>2020-08-13T07:39:50.000Z</time>
      </trkpt>
      <trkpt lat="44.13589" lon="6.75557">
        <ele>1394.8000488281</ele>
        <time>2020-08-13T07:39:53.000Z</time>
      </trkpt>
      <trkpt lat="44.1359" lon="6.75549">
        <ele>1395.4000244141</ele>
        <time>2020-08-13T07:39:56.000Z</time>
      </trkpt>
      <trkpt lat="44.13592" lon="6.75541">
        <ele>1395.8000488281</ele>
        <time>2020-08-13T07:39:59.000Z</time>
      </trkpt>
      <trkpt lat="44.13594" lon="6.75533">
        <ele>1396.4000244141</ele>
        <time>2020-08-13T07:40:02.000Z</time>
      </trkpt>
      <trkpt lat="44.13598" lon="6.75524">
        <ele>1397</ele>
        <time>2020-08-13T07:40:06.000Z</time>
      </trkpt>
      <trkpt lat="44.13601" lon="6.75519">
        <ele>1397.4000244141</ele>
        <time>2020-08-13T07:40:08.000Z</time>
      </trkpt>
      <trkpt lat="44.13607" lon="6.75513">
        <ele>1398</ele>
        <time>2020-08-13T07:40:12.000Z</time>
      </trkpt>
      <trkpt lat="44.1361" lon="6.7551">
        <ele>1398.4000244141</ele>
        <time>2020-08-13T07:40:14.000Z</time>
      </trkpt>
      <trkpt lat="44.13616" lon="6.75503">
        <ele>1399</ele>
        <time>2020-08-13T07:40:18.000Z</time>
      </trkpt>
      <trkpt lat="44.13621" lon="6.75494">
        <ele>1399.5999755859</ele>
        <time>2020-08-13T07:40:22.000Z</time>
      </trkpt>
      <trkpt lat="44.13625" lon="6.75486">
        <ele>1400.1999511719</ele>
        <time>2020-08-13T07:40:25.000Z</time>
      </trkpt>
      <trkpt lat="44.13628" lon="6.75478">
        <ele>1400.5999755859</ele>
        <time>2020-08-13T07:40:28.000Z</time>
      </trkpt>
      <trkpt lat="44.1363" lon="6.75467">
        <ele>1401.1999511719</ele>
        <time>2020-08-13T07:40:32.000Z</time>
      </trkpt>
      <trkpt lat="44.13632" lon="6.75459">
        <ele>1401.5999755859</ele>
        <time>2020-08-13T07:40:35.000Z</time>
      </trkpt>
      <trkpt lat="44.13637" lon="6.75449">
        <ele>1402.4000244141</ele>
        <time>2020-08-13T07:40:39.000Z</time>
      </trkpt>
      <trkpt lat="44.1364" lon="6.75445">
        <ele>1402.5999755859</ele>
        <time>2020-08-13T07:40:41.000Z</time>
      </trkpt>
      <trkpt lat="44.13649" lon="6.75436">
        <ele>1403.4000244141</ele>
        <time>2020-08-13T07:40:46.000Z</time>
      </trkpt>
      <trkpt lat="44.13658" lon="6.75424">
        <ele>1404.1999511719</ele>
        <time>2020-08-13T07:40:52.000Z</time>
      </trkpt>
      <trkpt lat="44.1366" lon="6.75422">
        <ele>1404.4000244141</ele>
        <time>2020-08-13T07:40:53.000Z</time>
      </trkpt>
      <trkpt lat="44.13672" lon="6.75408">
        <ele>1405.4000244141</ele>
        <time>2020-08-13T07:41:00.000Z</time>
      </trkpt>
      <trkpt lat="44.13675" lon="6.75406">
        <ele>1405.4000244141</ele>
        <time>2020-08-13T07:41:01.000Z</time>
      </trkpt>
      <trkpt lat="44.1369" lon="6.75397">
        <ele>1406.4000244141</ele>
        <time>2020-08-13T07:41:08.000Z</time>
      </trkpt>
      <trkpt lat="44.13693" lon="6.75396">
        <ele>1406.5999755859</ele>
        <time>2020-08-13T07:41:09.000Z</time>
      </trkpt>
      <trkpt lat="44.13706" lon="6.75385">
        <ele>1407.5999755859</ele>
        <time>2020-08-13T07:41:16.000Z</time>
      </trkpt>
      <trkpt lat="44.13715" lon="6.75376">
        <ele>1408.5999755859</ele>
        <time>2020-08-13T07:41:21.000Z</time>
      </trkpt>
      <trkpt lat="44.13716" lon="6.75372">
        <ele>1408.8000488281</ele>
        <time>2020-08-13T07:41:22.000Z</time>
      </trkpt>
      <trkpt lat="44.13722" lon="6.75352">
        <ele>1410</ele>
        <time>2020-08-13T07:41:29.000Z</time>
      </trkpt>
      <trkpt lat="44.13722" lon="6.75349">
        <ele>1410</ele>
        <time>2020-08-13T07:41:30.000Z</time>
      </trkpt>
      <trkpt lat="44.13723" lon="6.75334">
        <ele>1411</ele>
        <time>2020-08-13T07:41:35.000Z</time>
      </trkpt>
      <trkpt lat="44.13724" lon="6.75323">
        <ele>1411.8000488281</ele>
        <time>2020-08-13T07:41:39.000Z</time>
      </trkpt>
      <trkpt lat="44.13725" lon="6.75321">
        <ele>1412</ele>
        <time>2020-08-13T07:41:40.000Z</time>
      </trkpt>
      <trkpt lat="44.13726" lon="6.75311">
        <ele>1412.8000488281</ele>
        <time>2020-08-13T07:41:44.000Z</time>
      </trkpt>
      <trkpt lat="44.13727" lon="6.75306">
        <ele>1413.1999511719</ele>
        <time>2020-08-13T07:41:46.000Z</time>
      </trkpt>
      <trkpt lat="44.13731" lon="6.75298">
        <ele>1413.8000488281</ele>
        <time>2020-08-13T07:41:50.000Z</time>
      </trkpt>
      <trkpt lat="44.13732" lon="6.75295">
        <ele>1413.8000488281</ele>
        <time>2020-08-13T07:41:51.000Z</time>
      </trkpt>
      <trkpt lat="44.13734" lon="6.7529">
        <ele>1414.4000244141</ele>
        <time>2020-08-13T07:41:53.000Z</time>
      </trkpt>
      <trkpt lat="44.13735" lon="6.75288">
        <ele>1414.8000488281</ele>
        <time>2020-08-13T07:41:54.000Z</time>
      </trkpt>
      <trkpt lat="44.1374" lon="6.75281">
        <ele>1415.4000244141</ele>
        <time>2020-08-13T07:41:57.000Z</time>
      </trkpt>
      <trkpt lat="44.13752" lon="6.75268">
        <ele>1416.4000244141</ele>
        <time>2020-08-13T07:42:04.000Z</time>
      </trkpt>
      <trkpt lat="44.13755" lon="6.75264">
        <ele>1417</ele>
        <time>2020-08-13T07:42:06.000Z</time>
      </trkpt>
      <trkpt lat="44.13762" lon="6.75256">
        <ele>1417.5999755859</ele>
        <time>2020-08-13T07:42:10.000Z</time>
      </trkpt>
      <trkpt lat="44.13768" lon="6.75251">
        <ele>1418.4000244141</ele>
        <time>2020-08-13T07:42:13.000Z</time>
      </trkpt>
      <trkpt lat="44.13772" lon="6.75247">
        <ele>1418.8000488281</ele>
        <time>2020-08-13T07:42:15.000Z</time>
      </trkpt>
      <trkpt lat="44.13781" lon="6.75236">
        <ele>1419.5999755859</ele>
        <time>2020-08-13T07:42:20.000Z</time>
      </trkpt>
      <trkpt lat="44.13782" lon="6.75233">
        <ele>1419.8000488281</ele>
        <time>2020-08-13T07:42:21.000Z</time>
      </trkpt>
      <trkpt lat="44.13792" lon="6.75223">
        <ele>1421</ele>
        <time>2020-08-13T07:42:26.000Z</time>
      </trkpt>
      <trkpt lat="44.13794" lon="6.75221">
        <ele>1421</ele>
        <time>2020-08-13T07:42:27.000Z</time>
      </trkpt>
      <trkpt lat="44.13803" lon="6.75212">
        <ele>1422</ele>
        <time>2020-08-13T07:42:32.000Z</time>
      </trkpt>
      <trkpt lat="44.13809" lon="6.75205">
        <ele>1422.5999755859</ele>
        <time>2020-08-13T07:42:35.000Z</time>
      </trkpt>
      <trkpt lat="44.13814" lon="6.75197">
        <ele>1423.1999511719</ele>
        <time>2020-08-13T07:42:38.000Z</time>
      </trkpt>
      <trkpt lat="44.13821" lon="6.75188">
        <ele>1424</ele>
        <time>2020-08-13T07:42:42.000Z</time>
      </trkpt>
      <trkpt lat="44.13825" lon="6.75183">
        <ele>1424.1999511719</ele>
        <time>2020-08-13T07:42:44.000Z</time>
      </trkpt>
      <trkpt lat="44.13834" lon="6.75171">
        <ele>1425.4000244141</ele>
        <time>2020-08-13T07:42:49.000Z</time>
      </trkpt>
      <trkpt lat="44.1384" lon="6.75165">
        <ele>1425.8000488281</ele>
        <time>2020-08-13T07:42:52.000Z</time>
      </trkpt>
      <trkpt lat="44.13846" lon="6.75158">
        <ele>1426.4000244141</ele>
        <time>2020-08-13T07:42:55.000Z</time>
      </trkpt>
      <trkpt lat="44.13854" lon="6.75149">
        <ele>1427.1999511719</ele>
        <time>2020-08-13T07:42:59.000Z</time>
      </trkpt>
      <trkpt lat="44.13858" lon="6.75144">
        <ele>1427.4000244141</ele>
        <time>2020-08-13T07:43:01.000Z</time>
      </trkpt>
      <trkpt lat="44.13869" lon="6.75128">
        <ele>1428.5999755859</ele>
        <time>2020-08-13T07:43:07.000Z</time>
      </trkpt>
      <trkpt lat="44.1387" lon="6.75124">
        <ele>1428.8000488281</ele>
        <time>2020-08-13T07:43:08.000Z</time>
      </trkpt>
      <trkpt lat="44.13874" lon="6.75112">
        <ele>1429.5999755859</ele>
        <time>2020-08-13T07:43:12.000Z</time>
      </trkpt>
      <trkpt lat="44.13877" lon="6.75102">
        <ele>1430</ele>
        <time>2020-08-13T07:43:15.000Z</time>
      </trkpt>
      <trkpt lat="44.13879" lon="6.75092">
        <ele>1430.5999755859</ele>
        <time>2020-08-13T07:43:18.000Z</time>
      </trkpt>
      <trkpt lat="44.13883" lon="6.75081">
        <ele>1431.8000488281</ele>
        <time>2020-08-13T07:43:22.000Z</time>
      </trkpt>
      <trkpt lat="44.13891" lon="6.75063">
        <ele>1432.8000488281</ele>
        <time>2020-08-13T07:43:28.000Z</time>
      </trkpt>
      <trkpt lat="44.13892" lon="6.7506">
        <ele>1433</ele>
        <time>2020-08-13T07:43:29.000Z</time>
      </trkpt>
      <trkpt lat="44.13895" lon="6.75051">
        <ele>1434</ele>
        <time>2020-08-13T07:43:32.000Z</time>
      </trkpt>
      <trkpt lat="44.13896" lon="6.75042">
        <ele>1434.8000488281</ele>
        <time>2020-08-13T07:43:35.000Z</time>
      </trkpt>
      <trkpt lat="44.13897" lon="6.75039">
        <ele>1435</ele>
        <time>2020-08-13T07:43:36.000Z</time>
      </trkpt>
      <trkpt lat="44.139" lon="6.75026">
        <ele>1436</ele>
        <time>2020-08-13T07:43:40.000Z</time>
      </trkpt>
      <trkpt lat="44.13901" lon="6.75023">
        <ele>1436.1999511719</ele>
        <time>2020-08-13T07:43:41.000Z</time>
      </trkpt>
      <trkpt lat="44.13909" lon="6.75009">
        <ele>1437.1999511719</ele>
        <time>2020-08-13T07:43:46.000Z</time>
      </trkpt>
      <trkpt lat="44.13919" lon="6.74998">
        <ele>1438.4000244141</ele>
        <time>2020-08-13T07:43:51.000Z</time>
      </trkpt>
      <trkpt lat="44.13922" lon="6.74996">
        <ele>1438.5999755859</ele>
        <time>2020-08-13T07:43:52.000Z</time>
      </trkpt>
      <trkpt lat="44.13926" lon="6.74992">
        <ele>1439</ele>
        <time>2020-08-13T07:43:54.000Z</time>
      </trkpt>
      <trkpt lat="44.13932" lon="6.74986">
        <ele>1439.4000244141</ele>
        <time>2020-08-13T07:43:57.000Z</time>
      </trkpt>
      <trkpt lat="44.13936" lon="6.74982">
        <ele>1440</ele>
        <time>2020-08-13T07:43:59.000Z</time>
      </trkpt>
      <trkpt lat="44.13946" lon="6.74976">
        <ele>1440.5999755859</ele>
        <time>2020-08-13T07:44:03.000Z</time>
      </trkpt>
      <trkpt lat="44.13951" lon="6.74974">
        <ele>1440.8000488281</ele>
        <time>2020-08-13T07:44:05.000Z</time>
      </trkpt>
      <trkpt lat="44.13967" lon="6.74971">
        <ele>1441.4000244141</ele>
        <time>2020-08-13T07:44:11.000Z</time>
      </trkpt>
      <trkpt lat="44.1397" lon="6.74971">
        <ele>1441.5999755859</ele>
        <time>2020-08-13T07:44:12.000Z</time>
      </trkpt>
      <trkpt lat="44.1399" lon="6.74971">
        <ele>1442</ele>
        <time>2020-08-13T07:44:19.000Z</time>
      </trkpt>
      <trkpt lat="44.14008" lon="6.74961">
        <ele>1442.1999511719</ele>
        <time>2020-08-13T07:44:25.000Z</time>
      </trkpt>
      <trkpt lat="44.14027" lon="6.74941">
        <ele>1441.8000488281</ele>
        <time>2020-08-13T07:44:31.000Z</time>
      </trkpt>
      <trkpt lat="44.14055" lon="6.7492">
        <ele>1440.1999511719</ele>
        <time>2020-08-13T07:44:37.000Z</time>
      </trkpt>
      <trkpt lat="44.14074" lon="6.74907">
        <ele>1439</ele>
        <time>2020-08-13T07:44:40.000Z</time>
      </trkpt>
      <trkpt lat="44.14087" lon="6.74898">
        <ele>1437.8000488281</ele>
        <time>2020-08-13T07:44:42.000Z</time>
      </trkpt>
      <trkpt lat="44.14099" lon="6.74888">
        <ele>1436.8000488281</ele>
        <time>2020-08-13T07:44:44.000Z</time>
      </trkpt>
      <trkpt lat="44.14122" lon="6.74866">
        <ele>1436</ele>
        <time>2020-08-13T07:44:48.000Z</time>
      </trkpt>
      <trkpt lat="44.14141" lon="6.74844">
        <ele>1436.5999755859</ele>
        <time>2020-08-13T07:44:52.000Z</time>
      </trkpt>
      <trkpt lat="44.14152" lon="6.74835">
        <ele>1437.1999511719</ele>
        <time>2020-08-13T07:44:54.000Z</time>
      </trkpt>
      <trkpt lat="44.14188" lon="6.74815">
        <ele>1435.8000488281</ele>
        <time>2020-08-13T07:45:00.000Z</time>
      </trkpt>
      <trkpt lat="44.14194" lon="6.74812">
        <ele>1435.5999755859</ele>
        <time>2020-08-13T07:45:01.000Z</time>
      </trkpt>
      <trkpt lat="44.14234" lon="6.74793">
        <ele>1434.5999755859</ele>
        <time>2020-08-13T07:45:07.000Z</time>
      </trkpt>
      <trkpt lat="44.14241" lon="6.7479">
        <ele>1434.1999511719</ele>
        <time>2020-08-13T07:45:08.000Z</time>
      </trkpt>
      <trkpt lat="44.14262" lon="6.7478">
        <ele>1434</ele>
        <time>2020-08-13T07:45:12.000Z</time>
      </trkpt>
      <trkpt lat="44.14272" lon="6.74776">
        <ele>1435.4000244141</ele>
        <time>2020-08-13T07:45:15.000Z</time>
      </trkpt>
      <trkpt lat="44.14278" lon="6.74774">
        <ele>1436.4000244141</ele>
        <time>2020-08-13T07:45:17.000Z</time>
      </trkpt>
      <trkpt lat="44.14287" lon="6.74773">
        <ele>1437.5999755859</ele>
        <time>2020-08-13T07:45:20.000Z</time>
      </trkpt>
      <trkpt lat="44.14295" lon="6.74771">
        <ele>1438</ele>
        <time>2020-08-13T07:45:23.000Z</time>
      </trkpt>
      <trkpt lat="44.14303" lon="6.74769">
        <ele>1438.5999755859</ele>
        <time>2020-08-13T07:45:26.000Z</time>
      </trkpt>
      <trkpt lat="44.14313" lon="6.74768">
        <ele>1439.5999755859</ele>
        <time>2020-08-13T07:45:30.000Z</time>
      </trkpt>
      <trkpt lat="44.14326" lon="6.74767">
        <ele>1440.8000488281</ele>
        <time>2020-08-13T07:45:35.000Z</time>
      </trkpt>
      <trkpt lat="44.14331" lon="6.74768">
        <ele>1441.1999511719</ele>
        <time>2020-08-13T07:45:37.000Z</time>
      </trkpt>
      <trkpt lat="44.1434" lon="6.74769">
        <ele>1441.8000488281</ele>
        <time>2020-08-13T07:45:41.000Z</time>
      </trkpt>
      <trkpt lat="44.14347" lon="6.74768">
        <ele>1442.5999755859</ele>
        <time>2020-08-13T07:45:44.000Z</time>
      </trkpt>
      <trkpt lat="44.14352" lon="6.74767">
        <ele>1443</ele>
        <time>2020-08-13T07:45:46.000Z</time>
      </trkpt>
      <trkpt lat="44.14364" lon="6.74765">
        <ele>1443.8000488281</ele>
        <time>2020-08-13T07:45:51.000Z</time>
      </trkpt>
      <trkpt lat="44.14366" lon="6.74765">
        <ele>1444.1999511719</ele>
        <time>2020-08-13T07:45:52.000Z</time>
      </trkpt>
      <trkpt lat="44.14378" lon="6.74762">
        <ele>1445.1999511719</ele>
        <time>2020-08-13T07:45:57.000Z</time>
      </trkpt>
      <trkpt lat="44.1438" lon="6.74762">
        <ele>1445.5999755859</ele>
        <time>2020-08-13T07:45:58.000Z</time>
      </trkpt>
      <trkpt lat="44.14389" lon="6.74758">
        <ele>1446.4000244141</ele>
        <time>2020-08-13T07:46:02.000Z</time>
      </trkpt>
      <trkpt lat="44.14396" lon="6.74755">
        <ele>1447.1999511719</ele>
        <time>2020-08-13T07:46:05.000Z</time>
      </trkpt>
      <trkpt lat="44.144" lon="6.74753">
        <ele>1447.5999755859</ele>
        <time>2020-08-13T07:46:07.000Z</time>
      </trkpt>
      <trkpt lat="44.14413" lon="6.74746">
        <ele>1448.5999755859</ele>
        <time>2020-08-13T07:46:13.000Z</time>
      </trkpt>
      <trkpt lat="44.14424" lon="6.74737">
        <ele>1449.8000488281</ele>
        <time>2020-08-13T07:46:18.000Z</time>
      </trkpt>
      <trkpt lat="44.14428" lon="6.74733">
        <ele>1450.1999511719</ele>
        <time>2020-08-13T07:46:20.000Z</time>
      </trkpt>
      <trkpt lat="44.14433" lon="6.74726">
        <ele>1450.8000488281</ele>
        <time>2020-08-13T07:46:23.000Z</time>
      </trkpt>
      <trkpt lat="44.14443" lon="6.74717">
        <ele>1451.8000488281</ele>
        <time>2020-08-13T07:46:28.000Z</time>
      </trkpt>
      <trkpt lat="44.14445" lon="6.74716">
        <ele>1452</ele>
        <time>2020-08-13T07:46:29.000Z</time>
      </trkpt>
      <trkpt lat="44.14459" lon="6.74706">
        <ele>1453</ele>
        <time>2020-08-13T07:46:36.000Z</time>
      </trkpt>
      <trkpt lat="44.14466" lon="6.747">
        <ele>1454</ele>
        <time>2020-08-13T07:46:39.000Z</time>
      </trkpt>
      <trkpt lat="44.14476" lon="6.74688">
        <ele>1455.1999511719</ele>
        <time>2020-08-13T07:46:45.000Z</time>
      </trkpt>
      <trkpt lat="44.1448" lon="6.74683">
        <ele>1455.5999755859</ele>
        <time>2020-08-13T07:46:47.000Z</time>
      </trkpt>
      <trkpt lat="44.14486" lon="6.74677">
        <ele>1456.1999511719</ele>
        <time>2020-08-13T07:46:50.000Z</time>
      </trkpt>
      <trkpt lat="44.14496" lon="6.74669">
        <ele>1457.1999511719</ele>
        <time>2020-08-13T07:46:55.000Z</time>
      </trkpt>
      <trkpt lat="44.14507" lon="6.74665">
        <ele>1458.4000244141</ele>
        <time>2020-08-13T07:47:00.000Z</time>
      </trkpt>
      <trkpt lat="44.14514" lon="6.74661">
        <ele>1459</ele>
        <time>2020-08-13T07:47:03.000Z</time>
      </trkpt>
      <trkpt lat="44.14519" lon="6.74657">
        <ele>1459.4000244141</ele>
        <time>2020-08-13T07:47:06.000Z</time>
      </trkpt>
      <trkpt lat="44.14529" lon="6.74649">
        <ele>1460.4000244141</ele>
        <time>2020-08-13T07:47:11.000Z</time>
      </trkpt>
      <trkpt lat="44.14531" lon="6.74648">
        <ele>1460.5999755859</ele>
        <time>2020-08-13T07:47:12.000Z</time>
      </trkpt>
      <trkpt lat="44.14543" lon="6.74647">
        <ele>1461.5999755859</ele>
        <time>2020-08-13T07:47:18.000Z</time>
      </trkpt>
      <trkpt lat="44.14545" lon="6.74649">
        <ele>1461.5999755859</ele>
        <time>2020-08-13T07:47:19.000Z</time>
      </trkpt>
      <trkpt lat="44.14545" lon="6.74652">
        <ele>1461.8000488281</ele>
        <time>2020-08-13T07:47:20.000Z</time>
      </trkpt>
      <trkpt lat="44.14544" lon="6.74657">
        <ele>1462.4000244141</ele>
        <time>2020-08-13T07:47:22.000Z</time>
      </trkpt>
      <trkpt lat="44.14542" lon="6.74662">
        <ele>1462.8000488281</ele>
        <time>2020-08-13T07:47:24.000Z</time>
      </trkpt>
      <trkpt lat="44.14535" lon="6.74669">
        <ele>1463.5999755859</ele>
        <time>2020-08-13T07:47:28.000Z</time>
      </trkpt>
      <trkpt lat="44.14531" lon="6.74672">
        <ele>1464</ele>
        <time>2020-08-13T07:47:30.000Z</time>
      </trkpt>
      <trkpt lat="44.1452" lon="6.74679">
        <ele>1465</ele>
        <time>2020-08-13T07:47:35.000Z</time>
      </trkpt>
      <trkpt lat="44.14505" lon="6.74688">
        <ele>1466.1999511719</ele>
        <time>2020-08-13T07:47:42.000Z</time>
      </trkpt>
      <trkpt lat="44.14503" lon="6.7469">
        <ele>1466.1999511719</ele>
        <time>2020-08-13T07:47:43.000Z</time>
      </trkpt>
      <trkpt lat="44.14491" lon="6.74699">
        <ele>1467.4000244141</ele>
        <time>2020-08-13T07:47:49.000Z</time>
      </trkpt>
      <trkpt lat="44.14489" lon="6.74704">
        <ele>1467.8000488281</ele>
        <time>2020-08-13T07:47:51.000Z</time>
      </trkpt>
      <trkpt lat="44.14489" lon="6.7471">
        <ele>1468.1999511719</ele>
        <time>2020-08-13T07:47:53.000Z</time>
      </trkpt>
      <trkpt lat="44.14491" lon="6.74716">
        <ele>1468.1999511719</ele>
        <time>2020-08-13T07:47:55.000Z</time>
      </trkpt>
      <trkpt lat="44.14498" lon="6.74717">
        <ele>1468.5999755859</ele>
        <time>2020-08-13T07:47:58.000Z</time>
      </trkpt>
      <trkpt lat="44.145" lon="6.74716">
        <ele>1468.8000488281</ele>
        <time>2020-08-13T07:47:59.000Z</time>
      </trkpt>
      <trkpt lat="44.14503" lon="6.74716">
        <ele>1469</ele>
        <time>2020-08-13T07:48:00.000Z</time>
      </trkpt>
      <trkpt lat="44.14514" lon="6.74711">
        <ele>1469.8000488281</ele>
        <time>2020-08-13T07:48:05.000Z</time>
      </trkpt>
      <trkpt lat="44.14522" lon="6.74709">
        <ele>1470.4000244141</ele>
        <time>2020-08-13T07:48:08.000Z</time>
      </trkpt>
      <trkpt lat="44.14531" lon="6.74707">
        <ele>1470.8000488281</ele>
        <time>2020-08-13T07:48:12.000Z</time>
      </trkpt>
      <trkpt lat="44.14542" lon="6.74707">
        <ele>1471.8000488281</ele>
        <time>2020-08-13T07:48:17.000Z</time>
      </trkpt>
      <trkpt lat="44.14555" lon="6.74708">
        <ele>1473.1999511719</ele>
        <time>2020-08-13T07:48:23.000Z</time>
      </trkpt>
      <trkpt lat="44.14558" lon="6.74708">
        <ele>1473.4000244141</ele>
        <time>2020-08-13T07:48:24.000Z</time>
      </trkpt>
      <trkpt lat="44.14564" lon="6.74709">
        <ele>1474.1999511719</ele>
        <time>2020-08-13T07:48:27.000Z</time>
      </trkpt>
      <trkpt lat="44.14571" lon="6.7471">
        <ele>1474.8000488281</ele>
        <time>2020-08-13T07:48:31.000Z</time>
      </trkpt>
      <trkpt lat="44.14576" lon="6.74711">
        <ele>1475.1999511719</ele>
        <time>2020-08-13T07:48:33.000Z</time>
      </trkpt>
      <trkpt lat="44.14587" lon="6.74713">
        <ele>1476.1999511719</ele>
        <time>2020-08-13T07:48:38.000Z</time>
      </trkpt>
      <trkpt lat="44.14598" lon="6.7471">
        <ele>1477.4000244141</ele>
        <time>2020-08-13T07:48:43.000Z</time>
      </trkpt>
      <trkpt lat="44.146" lon="6.74709">
        <ele>1477.5999755859</ele>
        <time>2020-08-13T07:48:44.000Z</time>
      </trkpt>
      <trkpt lat="44.14609" lon="6.74704">
        <ele>1478.4000244141</ele>
        <time>2020-08-13T07:48:48.000Z</time>
      </trkpt>
      <trkpt lat="44.14613" lon="6.747">
        <ele>1478.8000488281</ele>
        <time>2020-08-13T07:48:50.000Z</time>
      </trkpt>
      <trkpt lat="44.14622" lon="6.7469">
        <ele>1479.5999755859</ele>
        <time>2020-08-13T07:48:55.000Z</time>
      </trkpt>
      <trkpt lat="44.14625" lon="6.74687">
        <ele>1480</ele>
        <time>2020-08-13T07:48:57.000Z</time>
      </trkpt>
      <trkpt lat="44.14629" lon="6.74683">
        <ele>1480.5999755859</ele>
        <time>2020-08-13T07:49:00.000Z</time>
      </trkpt>
      <trkpt lat="44.14635" lon="6.7468">
        <ele>1481.4000244141</ele>
        <time>2020-08-13T07:49:03.000Z</time>
      </trkpt>
      <trkpt lat="44.14639" lon="6.74677">
        <ele>1481.8000488281</ele>
        <time>2020-08-13T07:49:05.000Z</time>
      </trkpt>
      <trkpt lat="44.14651" lon="6.7467">
        <ele>1482.8000488281</ele>
        <time>2020-08-13T07:49:11.000Z</time>
      </trkpt>
      <trkpt lat="44.14655" lon="6.74668">
        <ele>1483.1999511719</ele>
        <time>2020-08-13T07:49:13.000Z</time>
      </trkpt>
      <trkpt lat="44.14664" lon="6.74666">
        <ele>1483.8000488281</ele>
        <time>2020-08-13T07:49:17.000Z</time>
      </trkpt>
      <trkpt lat="44.14669" lon="6.74667">
        <ele>1484.1999511719</ele>
        <time>2020-08-13T07:49:19.000Z</time>
      </trkpt>
      <trkpt lat="44.14678" lon="6.74669">
        <ele>1485.1999511719</ele>
        <time>2020-08-13T07:49:23.000Z</time>
      </trkpt>
      <trkpt lat="44.14689" lon="6.74672">
        <ele>1486</ele>
        <time>2020-08-13T07:49:28.000Z</time>
      </trkpt>
      <trkpt lat="44.14691" lon="6.74672">
        <ele>1486.1999511719</ele>
        <time>2020-08-13T07:49:29.000Z</time>
      </trkpt>
      <trkpt lat="44.14702" lon="6.74672">
        <ele>1487</ele>
        <time>2020-08-13T07:49:34.000Z</time>
      </trkpt>
      <trkpt lat="44.14704" lon="6.74672">
        <ele>1487.1999511719</ele>
        <time>2020-08-13T07:49:35.000Z</time>
      </trkpt>
      <trkpt lat="44.14718" lon="6.74669">
        <ele>1488.1999511719</ele>
        <time>2020-08-13T07:49:41.000Z</time>
      </trkpt>
      <trkpt lat="44.1472" lon="6.74667">
        <ele>1488.4000244141</ele>
        <time>2020-08-13T07:49:42.000Z</time>
      </trkpt>
      <trkpt lat="44.14721" lon="6.74665">
        <ele>1488.4000244141</ele>
        <time>2020-08-13T07:49:43.000Z</time>
      </trkpt>
      <trkpt lat="44.14722" lon="6.74659">
        <ele>1488.8000488281</ele>
        <time>2020-08-13T07:49:45.000Z</time>
      </trkpt>
      <trkpt lat="44.14715" lon="6.74653">
        <ele>1489.5999755859</ele>
        <time>2020-08-13T07:49:49.000Z</time>
      </trkpt>
      <trkpt lat="44.14704" lon="6.74651">
        <ele>1490.5999755859</ele>
        <time>2020-08-13T07:49:54.000Z</time>
      </trkpt>
      <trkpt lat="44.14697" lon="6.74651">
        <ele>1491.1999511719</ele>
        <time>2020-08-13T07:49:57.000Z</time>
      </trkpt>
      <trkpt lat="44.14691" lon="6.74649">
        <ele>1491.8000488281</ele>
        <time>2020-08-13T07:50:00.000Z</time>
      </trkpt>
      <trkpt lat="44.1468" lon="6.74646">
        <ele>1492.5999755859</ele>
        <time>2020-08-13T07:50:05.000Z</time>
      </trkpt>
      <trkpt lat="44.14676" lon="6.74644">
        <ele>1493</ele>
        <time>2020-08-13T07:50:07.000Z</time>
      </trkpt>
      <trkpt lat="44.1467" lon="6.74638">
        <ele>1493.8000488281</ele>
        <time>2020-08-13T07:50:11.000Z</time>
      </trkpt>
      <trkpt lat="44.14669" lon="6.74636">
        <ele>1494</ele>
        <time>2020-08-13T07:50:12.000Z</time>
      </trkpt>
      <trkpt lat="44.14671" lon="6.74626">
        <ele>1494.5999755859</ele>
        <time>2020-08-13T07:50:16.000Z</time>
      </trkpt>
      <trkpt lat="44.14674" lon="6.74622">
        <ele>1495</ele>
        <time>2020-08-13T07:50:18.000Z</time>
      </trkpt>
      <trkpt lat="44.14681" lon="6.74616">
        <ele>1495.8000488281</ele>
        <time>2020-08-13T07:50:22.000Z</time>
      </trkpt>
      <trkpt lat="44.14682" lon="6.74615">
        <ele>1496</ele>
        <time>2020-08-13T07:50:23.000Z</time>
      </trkpt>
      <trkpt lat="44.14691" lon="6.74608">
        <ele>1497.1999511719</ele>
        <time>2020-08-13T07:50:28.000Z</time>
      </trkpt>
      <trkpt lat="44.14693" lon="6.74607">
        <ele>1497.4000244141</ele>
        <time>2020-08-13T07:50:29.000Z</time>
      </trkpt>
      <trkpt lat="44.14702" lon="6.74602">
        <ele>1498.1999511719</ele>
        <time>2020-08-13T07:50:34.000Z</time>
      </trkpt>
      <trkpt lat="44.14708" lon="6.74598">
        <ele>1498.8000488281</ele>
        <time>2020-08-13T07:50:37.000Z</time>
      </trkpt>
      <trkpt lat="44.14714" lon="6.74595">
        <ele>1499.4000244141</ele>
        <time>2020-08-13T07:50:40.000Z</time>
      </trkpt>
      <trkpt lat="44.14723" lon="6.7459">
        <ele>1500.4000244141</ele>
        <time>2020-08-13T07:50:45.000Z</time>
      </trkpt>
      <trkpt lat="44.14727" lon="6.74588">
        <ele>1500.8000488281</ele>
        <time>2020-08-13T07:50:47.000Z</time>
      </trkpt>
      <trkpt lat="44.14731" lon="6.74586">
        <ele>1501.4000244141</ele>
        <time>2020-08-13T07:50:49.000Z</time>
      </trkpt>
      <trkpt lat="44.14741" lon="6.7458">
        <ele>1502.5999755859</ele>
        <time>2020-08-13T07:50:55.000Z</time>
      </trkpt>
      <trkpt lat="44.1475" lon="6.74574">
        <ele>1503.5999755859</ele>
        <time>2020-08-13T07:51:00.000Z</time>
      </trkpt>
      <trkpt lat="44.14754" lon="6.74571">
        <ele>1504</ele>
        <time>2020-08-13T07:51:02.000Z</time>
      </trkpt>
      <trkpt lat="44.14759" lon="6.74568">
        <ele>1504.5999755859</ele>
        <time>2020-08-13T07:51:05.000Z</time>
      </trkpt>
      <trkpt lat="44.14765" lon="6.74564">
        <ele>1505.1999511719</ele>
        <time>2020-08-13T07:51:08.000Z</time>
      </trkpt>
      <trkpt lat="44.14768" lon="6.74561">
        <ele>1505.8000488281</ele>
        <time>2020-08-13T07:51:10.000Z</time>
      </trkpt>
      <trkpt lat="44.1478" lon="6.74555">
        <ele>1506.8000488281</ele>
        <time>2020-08-13T07:51:16.000Z</time>
      </trkpt>
      <trkpt lat="44.14782" lon="6.74554">
        <ele>1507</ele>
        <time>2020-08-13T07:51:17.000Z</time>
      </trkpt>
      <trkpt lat="44.14789" lon="6.7455">
        <ele>1508</ele>
        <time>2020-08-13T07:51:21.000Z</time>
      </trkpt>
      <trkpt lat="44.14795" lon="6.74547">
        <ele>1508.8000488281</ele>
        <time>2020-08-13T07:51:24.000Z</time>
      </trkpt>
      <trkpt lat="44.14797" lon="6.74547">
        <ele>1509</ele>
        <time>2020-08-13T07:51:25.000Z</time>
      </trkpt>
      <trkpt lat="44.14809" lon="6.74541">
        <ele>1510.1999511719</ele>
        <time>2020-08-13T07:51:31.000Z</time>
      </trkpt>
      <trkpt lat="44.14811" lon="6.7454">
        <ele>1510.4000244141</ele>
        <time>2020-08-13T07:51:32.000Z</time>
      </trkpt>
      <trkpt lat="44.14819" lon="6.74536">
        <ele>1511.1999511719</ele>
        <time>2020-08-13T07:51:36.000Z</time>
      </trkpt>
      <trkpt lat="44.14826" lon="6.74532">
        <ele>1512.1999511719</ele>
        <time>2020-08-13T07:51:40.000Z</time>
      </trkpt>
      <trkpt lat="44.14828" lon="6.74532">
        <ele>1512.5999755859</ele>
        <time>2020-08-13T07:51:41.000Z</time>
      </trkpt>
      <trkpt lat="44.14839" lon="6.74525">
        <ele>1513.8000488281</ele>
        <time>2020-08-13T07:51:47.000Z</time>
      </trkpt>
      <trkpt lat="44.14849" lon="6.74518">
        <ele>1514.8000488281</ele>
        <time>2020-08-13T07:51:53.000Z</time>
      </trkpt>
      <trkpt lat="44.14853" lon="6.74516">
        <ele>1515.4000244141</ele>
        <time>2020-08-13T07:51:55.000Z</time>
      </trkpt>
      <trkpt lat="44.14856" lon="6.74514">
        <ele>1515.8000488281</ele>
        <time>2020-08-13T07:51:57.000Z</time>
      </trkpt>
      <trkpt lat="44.14864" lon="6.74507">
        <ele>1517</ele>
        <time>2020-08-13T07:52:02.000Z</time>
      </trkpt>
      <trkpt lat="44.14866" lon="6.74506">
        <ele>1517.1999511719</ele>
        <time>2020-08-13T07:52:03.000Z</time>
      </trkpt>
      <trkpt lat="44.14874" lon="6.74503">
        <ele>1518.1999511719</ele>
        <time>2020-08-13T07:52:08.000Z</time>
      </trkpt>
      <trkpt lat="44.14879" lon="6.745">
        <ele>1518.8000488281</ele>
        <time>2020-08-13T07:52:11.000Z</time>
      </trkpt>
      <trkpt lat="44.14884" lon="6.74497">
        <ele>1519.4000244141</ele>
        <time>2020-08-13T07:52:14.000Z</time>
      </trkpt>
      <trkpt lat="44.14893" lon="6.74493">
        <ele>1520.1999511719</ele>
        <time>2020-08-13T07:52:19.000Z</time>
      </trkpt>
      <trkpt lat="44.14895" lon="6.74492">
        <ele>1520.4000244141</ele>
        <time>2020-08-13T07:52:20.000Z</time>
      </trkpt>
      <trkpt lat="44.14904" lon="6.74486">
        <ele>1521.5999755859</ele>
        <time>2020-08-13T07:52:26.000Z</time>
      </trkpt>
      <trkpt lat="44.14908" lon="6.74483">
        <ele>1521.8000488281</ele>
        <time>2020-08-13T07:52:28.000Z</time>
      </trkpt>
      <trkpt lat="44.14914" lon="6.74479">
        <ele>1522.5999755859</ele>
        <time>2020-08-13T07:52:32.000Z</time>
      </trkpt>
      <trkpt lat="44.1492" lon="6.74474">
        <ele>1523.8000488281</ele>
        <time>2020-08-13T07:52:36.000Z</time>
      </trkpt>
      <trkpt lat="44.14922" lon="6.74472">
        <ele>1523.8000488281</ele>
        <time>2020-08-13T07:52:37.000Z</time>
      </trkpt>
      <trkpt lat="44.14932" lon="6.74465">
        <ele>1524.8000488281</ele>
        <time>2020-08-13T07:52:43.000Z</time>
      </trkpt>
      <trkpt lat="44.14935" lon="6.74463">
        <ele>1525.4000244141</ele>
        <time>2020-08-13T07:52:45.000Z</time>
      </trkpt>
      <trkpt lat="44.14941" lon="6.74461">
        <ele>1526</ele>
        <time>2020-08-13T07:52:48.000Z</time>
      </trkpt>
      <trkpt lat="44.14949" lon="6.74456">
        <ele>1527</ele>
        <time>2020-08-13T07:52:53.000Z</time>
      </trkpt>
      <trkpt lat="44.14961" lon="6.74447">
        <ele>1528.1999511719</ele>
        <time>2020-08-13T07:53:00.000Z</time>
      </trkpt>
      <trkpt lat="44.1497" lon="6.7444">
        <ele>1529.4000244141</ele>
        <time>2020-08-13T07:53:06.000Z</time>
      </trkpt>
      <trkpt lat="44.14974" lon="6.74438">
        <ele>1529.8000488281</ele>
        <time>2020-08-13T07:53:08.000Z</time>
      </trkpt>
      <trkpt lat="44.14978" lon="6.74435">
        <ele>1530.5999755859</ele>
        <time>2020-08-13T07:53:11.000Z</time>
      </trkpt>
      <trkpt lat="44.14984" lon="6.74431">
        <ele>1531</ele>
        <time>2020-08-13T07:53:14.000Z</time>
      </trkpt>
      <trkpt lat="44.14988" lon="6.74427">
        <ele>1531.5999755859</ele>
        <time>2020-08-13T07:53:17.000Z</time>
      </trkpt>
      <trkpt lat="44.14998" lon="6.74419">
        <ele>1532.8000488281</ele>
        <time>2020-08-13T07:53:23.000Z</time>
      </trkpt>
      <trkpt lat="44.15" lon="6.74418">
        <ele>1533</ele>
        <time>2020-08-13T07:53:24.000Z</time>
      </trkpt>
      <trkpt lat="44.15006" lon="6.74413">
        <ele>1533.8000488281</ele>
        <time>2020-08-13T07:53:28.000Z</time>
      </trkpt>
      <trkpt lat="44.15011" lon="6.74411">
        <ele>1534.4000244141</ele>
        <time>2020-08-13T07:53:31.000Z</time>
      </trkpt>
      <trkpt lat="44.15016" lon="6.74408">
        <ele>1535</ele>
        <time>2020-08-13T07:53:34.000Z</time>
      </trkpt>
      <trkpt lat="44.15026" lon="6.74401">
        <ele>1535.8000488281</ele>
        <time>2020-08-13T07:53:40.000Z</time>
      </trkpt>
      <trkpt lat="44.15028" lon="6.744">
        <ele>1536</ele>
        <time>2020-08-13T07:53:41.000Z</time>
      </trkpt>
      <trkpt lat="44.15036" lon="6.74395">
        <ele>1537.4000244141</ele>
        <time>2020-08-13T07:53:46.000Z</time>
      </trkpt>
      <trkpt lat="44.15042" lon="6.74392">
        <ele>1538</ele>
        <time>2020-08-13T07:53:49.000Z</time>
      </trkpt>
      <trkpt lat="44.15045" lon="6.7439">
        <ele>1538.4000244141</ele>
        <time>2020-08-13T07:53:51.000Z</time>
      </trkpt>
      <trkpt lat="44.15052" lon="6.74386">
        <ele>1539.4000244141</ele>
        <time>2020-08-13T07:53:55.000Z</time>
      </trkpt>
      <trkpt lat="44.15054" lon="6.74384">
        <ele>1539.5999755859</ele>
        <time>2020-08-13T07:53:56.000Z</time>
      </trkpt>
      <trkpt lat="44.15062" lon="6.74378">
        <ele>1540.5999755859</ele>
        <time>2020-08-13T07:54:01.000Z</time>
      </trkpt>
      <trkpt lat="44.15066" lon="6.74375">
        <ele>1541</ele>
        <time>2020-08-13T07:54:03.000Z</time>
      </trkpt>
      <trkpt lat="44.15073" lon="6.74369">
        <ele>1541.8000488281</ele>
        <time>2020-08-13T07:54:07.000Z</time>
      </trkpt>
      <trkpt lat="44.15081" lon="6.74363">
        <ele>1543</ele>
        <time>2020-08-13T07:54:12.000Z</time>
      </trkpt>
      <trkpt lat="44.15092" lon="6.74355">
        <ele>1544.1999511719</ele>
        <time>2020-08-13T07:54:18.000Z</time>
      </trkpt>
      <trkpt lat="44.15097" lon="6.74352">
        <ele>1545</ele>
        <time>2020-08-13T07:54:21.000Z</time>
      </trkpt>
      <trkpt lat="44.15101" lon="6.7435">
        <ele>1545.1999511719</ele>
        <time>2020-08-13T07:54:23.000Z</time>
      </trkpt>
      <trkpt lat="44.1511" lon="6.74343">
        <ele>1546.4000244141</ele>
        <time>2020-08-13T07:54:28.000Z</time>
      </trkpt>
      <trkpt lat="44.15112" lon="6.74342">
        <ele>1546.5999755859</ele>
        <time>2020-08-13T07:54:29.000Z</time>
      </trkpt>
      <trkpt lat="44.15122" lon="6.74337">
        <ele>1547.4000244141</ele>
        <time>2020-08-13T07:54:34.000Z</time>
      </trkpt>
      <trkpt lat="44.15126" lon="6.74334">
        <ele>1548</ele>
        <time>2020-08-13T07:54:36.000Z</time>
      </trkpt>
      <trkpt lat="44.1513" lon="6.74332">
        <ele>1548.4000244141</ele>
        <time>2020-08-13T07:54:38.000Z</time>
      </trkpt>
      <trkpt lat="44.15139" lon="6.74326">
        <ele>1549.5999755859</ele>
        <time>2020-08-13T07:54:43.000Z</time>
      </trkpt>
      <trkpt lat="44.15143" lon="6.74324">
        <ele>1549.8000488281</ele>
        <time>2020-08-13T07:54:45.000Z</time>
      </trkpt>
      <trkpt lat="44.15151" lon="6.7432">
        <ele>1550.5999755859</ele>
        <time>2020-08-13T07:54:49.000Z</time>
      </trkpt>
      <trkpt lat="44.15157" lon="6.74317">
        <ele>1551.1999511719</ele>
        <time>2020-08-13T07:54:52.000Z</time>
      </trkpt>
      <trkpt lat="44.15165" lon="6.74313">
        <ele>1551.8000488281</ele>
        <time>2020-08-13T07:54:56.000Z</time>
      </trkpt>
      <trkpt lat="44.15173" lon="6.74309">
        <ele>1552.4000244141</ele>
        <time>2020-08-13T07:55:00.000Z</time>
      </trkpt>
      <trkpt lat="44.15177" lon="6.74307">
        <ele>1552.8000488281</ele>
        <time>2020-08-13T07:55:02.000Z</time>
      </trkpt>
      <trkpt lat="44.1519" lon="6.74298">
        <ele>1553.8000488281</ele>
        <time>2020-08-13T07:55:09.000Z</time>
      </trkpt>
      <trkpt lat="44.15201" lon="6.7429">
        <ele>1555</ele>
        <time>2020-08-13T07:55:15.000Z</time>
      </trkpt>
      <trkpt lat="44.15203" lon="6.74288">
        <ele>1555.1999511719</ele>
        <time>2020-08-13T07:55:16.000Z</time>
      </trkpt>
      <trkpt lat="44.15212" lon="6.74282">
        <ele>1556</ele>
        <time>2020-08-13T07:55:21.000Z</time>
      </trkpt>
      <trkpt lat="44.15218" lon="6.74278">
        <ele>1556.4000244141</ele>
        <time>2020-08-13T07:55:24.000Z</time>
      </trkpt>
      <trkpt lat="44.15228" lon="6.74271">
        <ele>1557.1999511719</ele>
        <time>2020-08-13T07:55:29.000Z</time>
      </trkpt>
      <trkpt lat="44.15237" lon="6.74266">
        <ele>1558.1999511719</ele>
        <time>2020-08-13T07:55:33.000Z</time>
      </trkpt>
      <trkpt lat="44.15239" lon="6.74265">
        <ele>1558.4000244141</ele>
        <time>2020-08-13T07:55:34.000Z</time>
      </trkpt>
      <trkpt lat="44.15253" lon="6.7426">
        <ele>1559.4000244141</ele>
        <time>2020-08-13T07:55:40.000Z</time>
      </trkpt>
      <trkpt lat="44.15271" lon="6.74255">
        <ele>1560.5999755859</ele>
        <time>2020-08-13T07:55:47.000Z</time>
      </trkpt>
      <trkpt lat="44.15276" lon="6.74255">
        <ele>1561</ele>
        <time>2020-08-13T07:55:49.000Z</time>
      </trkpt>
      <trkpt lat="44.15284" lon="6.74253">
        <ele>1561.8000488281</ele>
        <time>2020-08-13T07:55:52.000Z</time>
      </trkpt>
      <trkpt lat="44.15294" lon="6.74249">
        <ele>1562.4000244141</ele>
        <time>2020-08-13T07:55:56.000Z</time>
      </trkpt>
      <trkpt lat="44.15302" lon="6.74246">
        <ele>1563</ele>
        <time>2020-08-13T07:55:59.000Z</time>
      </trkpt>
      <trkpt lat="44.15317" lon="6.74237">
        <ele>1564.1999511719</ele>
        <time>2020-08-13T07:56:05.000Z</time>
      </trkpt>
      <trkpt lat="44.15327" lon="6.7423">
        <ele>1565.1999511719</ele>
        <time>2020-08-13T07:56:09.000Z</time>
      </trkpt>
      <trkpt lat="44.15341" lon="6.7422">
        <ele>1566.4000244141</ele>
        <time>2020-08-13T07:56:15.000Z</time>
      </trkpt>
      <trkpt lat="44.15363" lon="6.74209">
        <ele>1567.4000244141</ele>
        <time>2020-08-13T07:56:23.000Z</time>
      </trkpt>
      <trkpt lat="44.15366" lon="6.74207">
        <ele>1567.5999755859</ele>
        <time>2020-08-13T07:56:24.000Z</time>
      </trkpt>
      <trkpt lat="44.15388" lon="6.74196">
        <ele>1568.5999755859</ele>
        <time>2020-08-13T07:56:31.000Z</time>
      </trkpt>
      <trkpt lat="44.15401" lon="6.74192">
        <ele>1569.1999511719</ele>
        <time>2020-08-13T07:56:35.000Z</time>
      </trkpt>
      <trkpt lat="44.15415" lon="6.74187">
        <ele>1569.5999755859</ele>
        <time>2020-08-13T07:56:39.000Z</time>
      </trkpt>
      <trkpt lat="44.15425" lon="6.74182">
        <ele>1569.8000488281</ele>
        <time>2020-08-13T07:56:42.000Z</time>
      </trkpt>
      <trkpt lat="44.15444" lon="6.74174">
        <ele>1570.8000488281</ele>
        <time>2020-08-13T07:56:48.000Z</time>
      </trkpt>
      <trkpt lat="44.1545" lon="6.74171">
        <ele>1571</ele>
        <time>2020-08-13T07:56:50.000Z</time>
      </trkpt>
      <trkpt lat="44.15476" lon="6.74158">
        <ele>1571.8000488281</ele>
        <time>2020-08-13T07:56:58.000Z</time>
      </trkpt>
      <trkpt lat="44.15482" lon="6.74154">
        <ele>1571.8000488281</ele>
        <time>2020-08-13T07:57:00.000Z</time>
      </trkpt>
      <trkpt lat="44.15508" lon="6.74136">
        <ele>1572.5999755859</ele>
        <time>2020-08-13T07:57:08.000Z</time>
      </trkpt>
      <trkpt lat="44.15517" lon="6.7413">
        <ele>1572.8000488281</ele>
        <time>2020-08-13T07:57:11.000Z</time>
      </trkpt>
      <trkpt lat="44.15534" lon="6.74117">
        <ele>1573.8000488281</ele>
        <time>2020-08-13T07:57:16.000Z</time>
      </trkpt>
      <trkpt lat="44.15538" lon="6.74115">
        <ele>1573.8000488281</ele>
        <time>2020-08-13T07:57:17.000Z</time>
      </trkpt>
      <trkpt lat="44.15558" lon="6.74103">
        <ele>1575</ele>
        <time>2020-08-13T07:57:23.000Z</time>
      </trkpt>
      <trkpt lat="44.15564" lon="6.74098">
        <ele>1575.1999511719</ele>
        <time>2020-08-13T07:57:25.000Z</time>
      </trkpt>
      <trkpt lat="44.15585" lon="6.74086">
        <ele>1576.1999511719</ele>
        <time>2020-08-13T07:57:31.000Z</time>
      </trkpt>
      <trkpt lat="44.15592" lon="6.74082">
        <ele>1576.4000244141</ele>
        <time>2020-08-13T07:57:33.000Z</time>
      </trkpt>
      <trkpt lat="44.15606" lon="6.74076">
        <ele>1577.1999511719</ele>
        <time>2020-08-13T07:57:37.000Z</time>
      </trkpt>
      <trkpt lat="44.15621" lon="6.74064">
        <ele>1578</ele>
        <time>2020-08-13T07:57:42.000Z</time>
      </trkpt>
      <trkpt lat="44.15627" lon="6.74059">
        <ele>1578.1999511719</ele>
        <time>2020-08-13T07:57:44.000Z</time>
      </trkpt>
      <trkpt lat="44.15645" lon="6.7404">
        <ele>1579</ele>
        <time>2020-08-13T07:57:50.000Z</time>
      </trkpt>
      <trkpt lat="44.15651" lon="6.74033">
        <ele>1579.4000244141</ele>
        <time>2020-08-13T07:57:52.000Z</time>
      </trkpt>
      <trkpt lat="44.15674" lon="6.74003">
        <ele>1580.5999755859</ele>
        <time>2020-08-13T07:58:01.000Z</time>
      </trkpt>
      <trkpt lat="44.15687" lon="6.73993">
        <ele>1581.1999511719</ele>
        <time>2020-08-13T07:58:05.000Z</time>
      </trkpt>
      <trkpt lat="44.15689" lon="6.73989">
        <ele>1581.4000244141</ele>
        <time>2020-08-13T07:58:06.000Z</time>
      </trkpt>
      <trkpt lat="44.15698" lon="6.73979">
        <ele>1581.8000488281</ele>
        <time>2020-08-13T07:58:09.000Z</time>
      </trkpt>
      <trkpt lat="44.15706" lon="6.73968">
        <ele>1582.1999511719</ele>
        <time>2020-08-13T07:58:12.000Z</time>
      </trkpt>
      <trkpt lat="44.15717" lon="6.73939">
        <ele>1582.4000244141</ele>
        <time>2020-08-13T07:58:18.000Z</time>
      </trkpt>
      <trkpt lat="44.1572" lon="6.73923">
        <ele>1582.4000244141</ele>
        <time>2020-08-13T07:58:21.000Z</time>
      </trkpt>
      <trkpt lat="44.1572" lon="6.739">
        <ele>1582.1999511719</ele>
        <time>2020-08-13T07:58:25.000Z</time>
      </trkpt>
      <trkpt lat="44.15717" lon="6.73873">
        <ele>1582.8000488281</ele>
        <time>2020-08-13T07:58:30.000Z</time>
      </trkpt>
      <trkpt lat="44.15715" lon="6.73868">
        <ele>1583</ele>
        <time>2020-08-13T07:58:31.000Z</time>
      </trkpt>
      <trkpt lat="44.15704" lon="6.73848">
        <ele>1582.8000488281</ele>
        <time>2020-08-13T07:58:35.000Z</time>
      </trkpt>
      <trkpt lat="44.157" lon="6.73844">
        <ele>1582.8000488281</ele>
        <time>2020-08-13T07:58:36.000Z</time>
      </trkpt>
      <trkpt lat="44.15678" lon="6.73821">
        <ele>1581.8000488281</ele>
        <time>2020-08-13T07:58:41.000Z</time>
      </trkpt>
      <trkpt lat="44.15673" lon="6.73816">
        <ele>1581.5999755859</ele>
        <time>2020-08-13T07:58:42.000Z</time>
      </trkpt>
      <trkpt lat="44.15665" lon="6.73805">
        <ele>1581.5999755859</ele>
        <time>2020-08-13T07:58:44.000Z</time>
      </trkpt>
      <trkpt lat="44.15659" lon="6.73794">
        <ele>1581.8000488281</ele>
        <time>2020-08-13T07:58:46.000Z</time>
      </trkpt>
      <trkpt lat="44.15653" lon="6.73781">
        <ele>1581.4000244141</ele>
        <time>2020-08-13T07:58:48.000Z</time>
      </trkpt>
      <trkpt lat="44.15645" lon="6.73738">
        <ele>1581.4000244141</ele>
        <time>2020-08-13T07:58:54.000Z</time>
      </trkpt>
      <trkpt lat="44.15636" lon="6.73701">
        <ele>1580.8000488281</ele>
        <time>2020-08-13T07:59:00.000Z</time>
      </trkpt>
      <trkpt lat="44.15634" lon="6.73695">
        <ele>1581</ele>
        <time>2020-08-13T07:59:01.000Z</time>
      </trkpt>
      <trkpt lat="44.15624" lon="6.7366">
        <ele>1580.5999755859</ele>
        <time>2020-08-13T07:59:07.000Z</time>
      </trkpt>
      <trkpt lat="44.15622" lon="6.73653">
        <ele>1580.5999755859</ele>
        <time>2020-08-13T07:59:08.000Z</time>
      </trkpt>
      <trkpt lat="44.15619" lon="6.73641">
        <ele>1580.5999755859</ele>
        <time>2020-08-13T07:59:10.000Z</time>
      </trkpt>
      <trkpt lat="44.15612" lon="6.73625">
        <ele>1580.5999755859</ele>
        <time>2020-08-13T07:59:13.000Z</time>
      </trkpt>
      <trkpt lat="44.15609" lon="6.73618">
        <ele>1580.1999511719</ele>
        <time>2020-08-13T07:59:16.000Z</time>
      </trkpt>
      <trkpt lat="44.15609" lon="6.73618">
        <ele>1580.1999511719</ele>
        <time>2020-08-13T07:59:20.000Z</time>
      </trkpt>
      <trkpt lat="44.15608" lon="6.73618">
        <ele>1580.5999755859</ele>
        <time>2020-08-13T07:59:32.000Z</time>
      </trkpt>
      <trkpt lat="44.15607" lon="6.73617">
        <ele>1580.5999755859</ele>
        <time>2020-08-13T07:59:33.000Z</time>
      </trkpt>
      <trkpt lat="44.15601" lon="6.7361">
        <ele>1580.4000244141</ele>
        <time>2020-08-13T07:59:36.000Z</time>
      </trkpt>
      <trkpt lat="44.15594" lon="6.73593">
        <ele>1580.1999511719</ele>
        <time>2020-08-13T07:59:39.000Z</time>
      </trkpt>
      <trkpt lat="44.15592" lon="6.73587">
        <ele>1580.1999511719</ele>
        <time>2020-08-13T07:59:40.000Z</time>
      </trkpt>
      <trkpt lat="44.15584" lon="6.73566">
        <ele>1579.8000488281</ele>
        <time>2020-08-13T07:59:43.000Z</time>
      </trkpt>
      <trkpt lat="44.1558" lon="6.7356">
        <ele>1579.4000244141</ele>
        <time>2020-08-13T07:59:44.000Z</time>
      </trkpt>
      <trkpt lat="44.15575" lon="6.73556">
        <ele>1579.1999511719</ele>
        <time>2020-08-13T07:59:45.000Z</time>
      </trkpt>
      <trkpt lat="44.1556" lon="6.73539">
        <ele>1578.5999755859</ele>
        <time>2020-08-13T07:59:48.000Z</time>
      </trkpt>
      <trkpt lat="44.15553" lon="6.73525">
        <ele>1578.1999511719</ele>
        <time>2020-08-13T07:59:50.000Z</time>
      </trkpt>
      <trkpt lat="44.15547" lon="6.7351">
        <ele>1577.8000488281</ele>
        <time>2020-08-13T07:59:52.000Z</time>
      </trkpt>
      <trkpt lat="44.15544" lon="6.73503">
        <ele>1577.4000244141</ele>
        <time>2020-08-13T07:59:53.000Z</time>
      </trkpt>
      <trkpt lat="44.15539" lon="6.73496">
        <ele>1577.4000244141</ele>
        <time>2020-08-13T07:59:54.000Z</time>
      </trkpt>
      <trkpt lat="44.15534" lon="6.73489">
        <ele>1577.1999511719</ele>
        <time>2020-08-13T07:59:55.000Z</time>
      </trkpt>
      <trkpt lat="44.15516" lon="6.73475">
        <ele>1576.1999511719</ele>
        <time>2020-08-13T07:59:58.000Z</time>
      </trkpt>
      <trkpt lat="44.15509" lon="6.73473">
        <ele>1576</ele>
        <time>2020-08-13T07:59:59.000Z</time>
      </trkpt>
      <trkpt lat="44.15493" lon="6.73475">
        <ele>1574.8000488281</ele>
        <time>2020-08-13T08:00:01.000Z</time>
      </trkpt>
      <trkpt lat="44.15484" lon="6.73476">
        <ele>1574.4000244141</ele>
        <time>2020-08-13T08:00:02.000Z</time>
      </trkpt>
      <trkpt lat="44.15476" lon="6.73474">
        <ele>1574</ele>
        <time>2020-08-13T08:00:03.000Z</time>
      </trkpt>
      <trkpt lat="44.15469" lon="6.73468">
        <ele>1573.5999755859</ele>
        <time>2020-08-13T08:00:04.000Z</time>
      </trkpt>
      <trkpt lat="44.1546" lon="6.73449">
        <ele>1573</ele>
        <time>2020-08-13T08:00:06.000Z</time>
      </trkpt>
      <trkpt lat="44.15453" lon="6.73427">
        <ele>1572.8000488281</ele>
        <time>2020-08-13T08:00:08.000Z</time>
      </trkpt>
      <trkpt lat="44.15448" lon="6.73404">
        <ele>1572.4000244141</ele>
        <time>2020-08-13T08:00:10.000Z</time>
      </trkpt>
      <trkpt lat="44.15447" lon="6.73393">
        <ele>1572.1999511719</ele>
        <time>2020-08-13T08:00:11.000Z</time>
      </trkpt>
      <trkpt lat="44.15446" lon="6.73369">
        <ele>1571.4000244141</ele>
        <time>2020-08-13T08:00:13.000Z</time>
      </trkpt>
      <trkpt lat="44.15446" lon="6.73358">
        <ele>1571.1999511719</ele>
        <time>2020-08-13T08:00:14.000Z</time>
      </trkpt>
      <trkpt lat="44.15447" lon="6.73344">
        <ele>1571.1999511719</ele>
        <time>2020-08-13T08:00:16.000Z</time>
      </trkpt>
      <trkpt lat="44.15445" lon="6.7331">
        <ele>1572.1999511719</ele>
        <time>2020-08-13T08:00:19.000Z</time>
      </trkpt>
      <trkpt lat="44.15442" lon="6.73303">
        <ele>1572</ele>
        <time>2020-08-13T08:00:20.000Z</time>
      </trkpt>
      <trkpt lat="44.15434" lon="6.7329">
        <ele>1572.5999755859</ele>
        <time>2020-08-13T08:00:22.000Z</time>
      </trkpt>
      <trkpt lat="44.15429" lon="6.73285">
        <ele>1572.8000488281</ele>
        <time>2020-08-13T08:00:23.000Z</time>
      </trkpt>
      <trkpt lat="44.15394" lon="6.73246">
        <ele>1573.5999755859</ele>
        <time>2020-08-13T08:00:30.000Z</time>
      </trkpt>
      <trkpt lat="44.15385" lon="6.73232">
        <ele>1573.4000244141</ele>
        <time>2020-08-13T08:00:32.000Z</time>
      </trkpt>
      <trkpt lat="44.15381" lon="6.73215">
        <ele>1573.8000488281</ele>
        <time>2020-08-13T08:00:34.000Z</time>
      </trkpt>
      <trkpt lat="44.15382" lon="6.73205">
        <ele>1573.8000488281</ele>
        <time>2020-08-13T08:00:36.000Z</time>
      </trkpt>
      <trkpt lat="44.15388" lon="6.73189">
        <ele>1574</ele>
        <time>2020-08-13T08:00:37.000Z</time>
      </trkpt>
      <trkpt lat="44.15407" lon="6.73162">
        <ele>1573.4000244141</ele>
        <time>2020-08-13T08:00:41.000Z</time>
      </trkpt>
      <trkpt lat="44.15431" lon="6.7315">
        <ele>1573</ele>
        <time>2020-08-13T08:00:45.000Z</time>
      </trkpt>
      <trkpt lat="44.15463" lon="6.73141">
        <ele>1574.5999755859</ele>
        <time>2020-08-13T08:00:51.000Z</time>
      </trkpt>
      <trkpt lat="44.15469" lon="6.73139">
        <ele>1574.8000488281</ele>
        <time>2020-08-13T08:00:52.000Z</time>
      </trkpt>
      <trkpt lat="44.15494" lon="6.73123">
        <ele>1575.4000244141</ele>
        <time>2020-08-13T08:00:57.000Z</time>
      </trkpt>
      <trkpt lat="44.15519" lon="6.73108">
        <ele>1576</ele>
        <time>2020-08-13T08:01:02.000Z</time>
      </trkpt>
      <trkpt lat="44.1553" lon="6.73104">
        <ele>1576</ele>
        <time>2020-08-13T08:01:04.000Z</time>
      </trkpt>
      <trkpt lat="44.1554" lon="6.73104">
        <ele>1576.4000244141</ele>
        <time>2020-08-13T08:01:06.000Z</time>
      </trkpt>
      <trkpt lat="44.15557" lon="6.73107">
        <ele>1576.5999755859</ele>
        <time>2020-08-13T08:01:09.000Z</time>
      </trkpt>
      <trkpt lat="44.15589" lon="6.73113">
        <ele>1577</ele>
        <time>2020-08-13T08:01:15.000Z</time>
      </trkpt>
      <trkpt lat="44.15594" lon="6.73113">
        <ele>1577</ele>
        <time>2020-08-13T08:01:16.000Z</time>
      </trkpt>
      <trkpt lat="44.15598" lon="6.73112">
        <ele>1577.1999511719</ele>
        <time>2020-08-13T08:01:17.000Z</time>
      </trkpt>
      <trkpt lat="44.15611" lon="6.73109">
        <ele>1578.4000244141</ele>
        <time>2020-08-13T08:01:21.000Z</time>
      </trkpt>
      <trkpt lat="44.15624" lon="6.73106">
        <ele>1579.4000244141</ele>
        <time>2020-08-13T08:01:25.000Z</time>
      </trkpt>
      <trkpt lat="44.15639" lon="6.73102">
        <ele>1580.5999755859</ele>
        <time>2020-08-13T08:01:30.000Z</time>
      </trkpt>
      <trkpt lat="44.1565" lon="6.73098">
        <ele>1581.8000488281</ele>
        <time>2020-08-13T08:01:34.000Z</time>
      </trkpt>
      <trkpt lat="44.15655" lon="6.73096">
        <ele>1582.4000244141</ele>
        <time>2020-08-13T08:01:36.000Z</time>
      </trkpt>
      <trkpt lat="44.1566" lon="6.73095">
        <ele>1582.8000488281</ele>
        <time>2020-08-13T08:01:38.000Z</time>
      </trkpt>
      <trkpt lat="44.15672" lon="6.73091">
        <ele>1584</ele>
        <time>2020-08-13T08:01:43.000Z</time>
      </trkpt>
      <trkpt lat="44.15674" lon="6.73091">
        <ele>1584.1999511719</ele>
        <time>2020-08-13T08:01:44.000Z</time>
      </trkpt>
      <trkpt lat="44.15681" lon="6.73087">
        <ele>1585</ele>
        <time>2020-08-13T08:01:47.000Z</time>
      </trkpt>
      <trkpt lat="44.15688" lon="6.73085">
        <ele>1585.5999755859</ele>
        <time>2020-08-13T08:01:50.000Z</time>
      </trkpt>
      <trkpt lat="44.15695" lon="6.73082">
        <ele>1586.1999511719</ele>
        <time>2020-08-13T08:01:53.000Z</time>
      </trkpt>
      <trkpt lat="44.15708" lon="6.73079">
        <ele>1587.1999511719</ele>
        <time>2020-08-13T08:01:58.000Z</time>
      </trkpt>
      <trkpt lat="44.1571" lon="6.73078">
        <ele>1587.4000244141</ele>
        <time>2020-08-13T08:01:59.000Z</time>
      </trkpt>
      <trkpt lat="44.15722" lon="6.73077">
        <ele>1588.5999755859</ele>
        <time>2020-08-13T08:02:04.000Z</time>
      </trkpt>
      <trkpt lat="44.15729" lon="6.73072">
        <ele>1589.4000244141</ele>
        <time>2020-08-13T08:02:08.000Z</time>
      </trkpt>
      <trkpt lat="44.15729" lon="6.73069">
        <ele>1589.8000488281</ele>
        <time>2020-08-13T08:02:09.000Z</time>
      </trkpt>
      <trkpt lat="44.15721" lon="6.73061">
        <ele>1590.1999511719</ele>
        <time>2020-08-13T08:02:13.000Z</time>
      </trkpt>
      <trkpt lat="44.15718" lon="6.73059">
        <ele>1590.4000244141</ele>
        <time>2020-08-13T08:02:14.000Z</time>
      </trkpt>
      <trkpt lat="44.15709" lon="6.73059">
        <ele>1591</ele>
        <time>2020-08-13T08:02:17.000Z</time>
      </trkpt>
      <trkpt lat="44.15704" lon="6.73059">
        <ele>1591.4000244141</ele>
        <time>2020-08-13T08:02:19.000Z</time>
      </trkpt>
      <trkpt lat="44.15697" lon="6.73056">
        <ele>1592.1999511719</ele>
        <time>2020-08-13T08:02:22.000Z</time>
      </trkpt>
      <trkpt lat="44.1569" lon="6.73056">
        <ele>1592.5999755859</ele>
        <time>2020-08-13T08:02:25.000Z</time>
      </trkpt>
      <trkpt lat="44.15683" lon="6.73057">
        <ele>1593.1999511719</ele>
        <time>2020-08-13T08:02:28.000Z</time>
      </trkpt>
      <trkpt lat="44.1567" lon="6.73058">
        <ele>1594.4000244141</ele>
        <time>2020-08-13T08:02:33.000Z</time>
      </trkpt>
      <trkpt lat="44.15668" lon="6.73059">
        <ele>1594.5999755859</ele>
        <time>2020-08-13T08:02:34.000Z</time>
      </trkpt>
      <trkpt lat="44.15655" lon="6.73059">
        <ele>1595.5999755859</ele>
        <time>2020-08-13T08:02:39.000Z</time>
      </trkpt>
      <trkpt lat="44.15648" lon="6.73059">
        <ele>1596.4000244141</ele>
        <time>2020-08-13T08:02:42.000Z</time>
      </trkpt>
      <trkpt lat="44.15643" lon="6.73059">
        <ele>1596.8000488281</ele>
        <time>2020-08-13T08:02:44.000Z</time>
      </trkpt>
      <trkpt lat="44.15631" lon="6.73059">
        <ele>1598</ele>
        <time>2020-08-13T08:02:49.000Z</time>
      </trkpt>
      <trkpt lat="44.15623" lon="6.73058">
        <ele>1598.4000244141</ele>
        <time>2020-08-13T08:02:52.000Z</time>
      </trkpt>
      <trkpt lat="44.15618" lon="6.73058">
        <ele>1599</ele>
        <time>2020-08-13T08:02:54.000Z</time>
      </trkpt>
      <trkpt lat="44.15607" lon="6.73056">
        <ele>1600</ele>
        <time>2020-08-13T08:02:59.000Z</time>
      </trkpt>
      <trkpt lat="44.15601" lon="6.73055">
        <ele>1600.4000244141</ele>
        <time>2020-08-13T08:03:01.000Z</time>
      </trkpt>
      <trkpt lat="44.15594" lon="6.73054">
        <ele>1601.1999511719</ele>
        <time>2020-08-13T08:03:04.000Z</time>
      </trkpt>
      <trkpt lat="44.15582" lon="6.73051">
        <ele>1602.1999511719</ele>
        <time>2020-08-13T08:03:09.000Z</time>
      </trkpt>
      <trkpt lat="44.15575" lon="6.73049">
        <ele>1603</ele>
        <time>2020-08-13T08:03:12.000Z</time>
      </trkpt>
      <trkpt lat="44.15573" lon="6.73048">
        <ele>1603.4000244141</ele>
        <time>2020-08-13T08:03:13.000Z</time>
      </trkpt>
      <trkpt lat="44.15563" lon="6.73041">
        <ele>1604.4000244141</ele>
        <time>2020-08-13T08:03:18.000Z</time>
      </trkpt>
      <trkpt lat="44.15561" lon="6.73039">
        <ele>1604.5999755859</ele>
        <time>2020-08-13T08:03:19.000Z</time>
      </trkpt>
      <trkpt lat="44.1556" lon="6.73036">
        <ele>1604.8000488281</ele>
        <time>2020-08-13T08:03:20.000Z</time>
      </trkpt>
      <trkpt lat="44.15563" lon="6.73033">
        <ele>1605.4000244141</ele>
        <time>2020-08-13T08:03:22.000Z</time>
      </trkpt>
      <trkpt lat="44.15567" lon="6.73034">
        <ele>1605.8000488281</ele>
        <time>2020-08-13T08:03:24.000Z</time>
      </trkpt>
      <trkpt lat="44.15574" lon="6.73035">
        <ele>1606.4000244141</ele>
        <time>2020-08-13T08:03:27.000Z</time>
      </trkpt>
      <trkpt lat="44.15579" lon="6.73036">
        <ele>1606.4000244141</ele>
        <time>2020-08-13T08:03:29.000Z</time>
      </trkpt>
      <trkpt lat="44.15583" lon="6.73037">
        <ele>1606.8000488281</ele>
        <time>2020-08-13T08:03:31.000Z</time>
      </trkpt>
      <trkpt lat="44.15592" lon="6.73037">
        <ele>1608</ele>
        <time>2020-08-13T08:03:35.000Z</time>
      </trkpt>
      <trkpt lat="44.15597" lon="6.73037">
        <ele>1608.4000244141</ele>
        <time>2020-08-13T08:03:37.000Z</time>
      </trkpt>
      <trkpt lat="44.15604" lon="6.73037">
        <ele>1609.1999511719</ele>
        <time>2020-08-13T08:03:40.000Z</time>
      </trkpt>
      <trkpt lat="44.15613" lon="6.73037">
        <ele>1609.8000488281</ele>
        <time>2020-08-13T08:03:44.000Z</time>
      </trkpt>
      <trkpt lat="44.1562" lon="6.73036">
        <ele>1610.1999511719</ele>
        <time>2020-08-13T08:03:47.000Z</time>
      </trkpt>
      <trkpt lat="44.15632" lon="6.73034">
        <ele>1611.1999511719</ele>
        <time>2020-08-13T08:03:52.000Z</time>
      </trkpt>
      <trkpt lat="44.15634" lon="6.73033">
        <ele>1611.4000244141</ele>
        <time>2020-08-13T08:03:53.000Z</time>
      </trkpt>
      <trkpt lat="44.15647" lon="6.73028">
        <ele>1612.4000244141</ele>
        <time>2020-08-13T08:03:59.000Z</time>
      </trkpt>
      <trkpt lat="44.15654" lon="6.73026">
        <ele>1613</ele>
        <time>2020-08-13T08:04:02.000Z</time>
      </trkpt>
      <trkpt lat="44.15658" lon="6.73023">
        <ele>1613.4000244141</ele>
        <time>2020-08-13T08:04:04.000Z</time>
      </trkpt>
      <trkpt lat="44.15668" lon="6.73016">
        <ele>1614.5999755859</ele>
        <time>2020-08-13T08:04:09.000Z</time>
      </trkpt>
      <trkpt lat="44.15674" lon="6.73002">
        <ele>1615.5999755859</ele>
        <time>2020-08-13T08:04:14.000Z</time>
      </trkpt>
      <trkpt lat="44.15674" lon="6.72999">
        <ele>1616</ele>
        <time>2020-08-13T08:04:15.000Z</time>
      </trkpt>
      <trkpt lat="44.15675" lon="6.72987">
        <ele>1616.8000488281</ele>
        <time>2020-08-13T08:04:19.000Z</time>
      </trkpt>
      <trkpt lat="44.15677" lon="6.72975">
        <ele>1617.8000488281</ele>
        <time>2020-08-13T08:04:23.000Z</time>
      </trkpt>
      <trkpt lat="44.15677" lon="6.72972">
        <ele>1618</ele>
        <time>2020-08-13T08:04:24.000Z</time>
      </trkpt>
      <trkpt lat="44.15679" lon="6.72952">
        <ele>1619.1999511719</ele>
        <time>2020-08-13T08:04:30.000Z</time>
      </trkpt>
      <trkpt lat="44.1568" lon="6.72946">
        <ele>1619.4000244141</ele>
        <time>2020-08-13T08:04:32.000Z</time>
      </trkpt>
      <trkpt lat="44.15682" lon="6.72937">
        <ele>1620.1999511719</ele>
        <time>2020-08-13T08:04:35.000Z</time>
      </trkpt>
      <trkpt lat="44.15684" lon="6.72924">
        <ele>1620.8000488281</ele>
        <time>2020-08-13T08:04:39.000Z</time>
      </trkpt>
      <trkpt lat="44.15685" lon="6.72918">
        <ele>1621.1999511719</ele>
        <time>2020-08-13T08:04:41.000Z</time>
      </trkpt>
      <trkpt lat="44.15688" lon="6.72903">
        <ele>1622.4000244141</ele>
        <time>2020-08-13T08:04:46.000Z</time>
      </trkpt>
      <trkpt lat="44.1569" lon="6.72887">
        <ele>1623.5999755859</ele>
        <time>2020-08-13T08:04:51.000Z</time>
      </trkpt>
      <trkpt lat="44.15692" lon="6.72882">
        <ele>1624</ele>
        <time>2020-08-13T08:04:53.000Z</time>
      </trkpt>
      <trkpt lat="44.15695" lon="6.72873">
        <ele>1624.5999755859</ele>
        <time>2020-08-13T08:04:56.000Z</time>
      </trkpt>
      <trkpt lat="44.15695" lon="6.72858">
        <ele>1625.8000488281</ele>
        <time>2020-08-13T08:05:01.000Z</time>
      </trkpt>
      <trkpt lat="44.15686" lon="6.72859">
        <ele>1626.5999755859</ele>
        <time>2020-08-13T08:05:05.000Z</time>
      </trkpt>
      <trkpt lat="44.15683" lon="6.72865">
        <ele>1626.8000488281</ele>
        <time>2020-08-13T08:05:07.000Z</time>
      </trkpt>
      <trkpt lat="44.15679" lon="6.72874">
        <ele>1627.4000244141</ele>
        <time>2020-08-13T08:05:10.000Z</time>
      </trkpt>
      <trkpt lat="44.15678" lon="6.72877">
        <ele>1627.5999755859</ele>
        <time>2020-08-13T08:05:11.000Z</time>
      </trkpt>
      <trkpt lat="44.15675" lon="6.72883">
        <ele>1628</ele>
        <time>2020-08-13T08:05:13.000Z</time>
      </trkpt>
      <trkpt lat="44.1567" lon="6.72894">
        <ele>1628.8000488281</ele>
        <time>2020-08-13T08:05:17.000Z</time>
      </trkpt>
      <trkpt lat="44.15669" lon="6.72897">
        <ele>1629</ele>
        <time>2020-08-13T08:05:18.000Z</time>
      </trkpt>
      <trkpt lat="44.15665" lon="6.72911">
        <ele>1630.1999511719</ele>
        <time>2020-08-13T08:05:23.000Z</time>
      </trkpt>
      <trkpt lat="44.15664" lon="6.72914">
        <ele>1630.4000244141</ele>
        <time>2020-08-13T08:05:24.000Z</time>
      </trkpt>
      <trkpt lat="44.15659" lon="6.72928">
        <ele>1631.1999511719</ele>
        <time>2020-08-13T08:05:29.000Z</time>
      </trkpt>
      <trkpt lat="44.15655" lon="6.7294">
        <ele>1632</ele>
        <time>2020-08-13T08:05:33.000Z</time>
      </trkpt>
      <trkpt lat="44.15654" lon="6.72946">
        <ele>1632.4000244141</ele>
        <time>2020-08-13T08:05:35.000Z</time>
      </trkpt>
      <trkpt lat="44.15651" lon="6.72957">
        <ele>1633.4000244141</ele>
        <time>2020-08-13T08:05:39.000Z</time>
      </trkpt>
      <trkpt lat="44.15648" lon="6.72966">
        <ele>1634</ele>
        <time>2020-08-13T08:05:42.000Z</time>
      </trkpt>
      <trkpt lat="44.15646" lon="6.72968">
        <ele>1634.1999511719</ele>
        <time>2020-08-13T08:05:43.000Z</time>
      </trkpt>
      <trkpt lat="44.15644" lon="6.72968">
        <ele>1634.4000244141</ele>
        <time>2020-08-13T08:05:44.000Z</time>
      </trkpt>
      <trkpt lat="44.15641" lon="6.72965">
        <ele>1634.8000488281</ele>
        <time>2020-08-13T08:05:46.000Z</time>
      </trkpt>
      <trkpt lat="44.15641" lon="6.7296">
        <ele>1635.4000244141</ele>
        <time>2020-08-13T08:05:48.000Z</time>
      </trkpt>
      <trkpt lat="44.15642" lon="6.72953">
        <ele>1635.8000488281</ele>
        <time>2020-08-13T08:05:50.000Z</time>
      </trkpt>
      <trkpt lat="44.15644" lon="6.72944">
        <ele>1636.5999755859</ele>
        <time>2020-08-13T08:05:53.000Z</time>
      </trkpt>
      <trkpt lat="44.15644" lon="6.72941">
        <ele>1637</ele>
        <time>2020-08-13T08:05:54.000Z</time>
      </trkpt>
      <trkpt lat="44.15646" lon="6.72932">
        <ele>1637.8000488281</ele>
        <time>2020-08-13T08:05:57.000Z</time>
      </trkpt>
      <trkpt lat="44.15646" lon="6.72929">
        <ele>1638</ele>
        <time>2020-08-13T08:05:58.000Z</time>
      </trkpt>
      <trkpt lat="44.15649" lon="6.72913">
        <ele>1638.8000488281</ele>
        <time>2020-08-13T08:06:03.000Z</time>
      </trkpt>
      <trkpt lat="44.1565" lon="6.72904">
        <ele>1639.1999511719</ele>
        <time>2020-08-13T08:06:06.000Z</time>
      </trkpt>
      <trkpt lat="44.15651" lon="6.72895">
        <ele>1640</ele>
        <time>2020-08-13T08:06:09.000Z</time>
      </trkpt>
      <trkpt lat="44.15652" lon="6.72879">
        <ele>1641.1999511719</ele>
        <time>2020-08-13T08:06:14.000Z</time>
      </trkpt>
      <trkpt lat="44.15652" lon="6.72873">
        <ele>1641.5999755859</ele>
        <time>2020-08-13T08:06:16.000Z</time>
      </trkpt>
      <trkpt lat="44.15653" lon="6.72863">
        <ele>1642.1999511719</ele>
        <time>2020-08-13T08:06:19.000Z</time>
      </trkpt>
      <trkpt lat="44.15656" lon="6.72848">
        <ele>1643.4000244141</ele>
        <time>2020-08-13T08:06:24.000Z</time>
      </trkpt>
      <trkpt lat="44.15657" lon="6.72845">
        <ele>1643.5999755859</ele>
        <time>2020-08-13T08:06:25.000Z</time>
      </trkpt>
      <trkpt lat="44.15658" lon="6.72833">
        <ele>1644.4000244141</ele>
        <time>2020-08-13T08:06:29.000Z</time>
      </trkpt>
      <trkpt lat="44.1566" lon="6.7282">
        <ele>1645.1999511719</ele>
        <time>2020-08-13T08:06:33.000Z</time>
      </trkpt>
      <trkpt lat="44.1566" lon="6.72817">
        <ele>1645.4000244141</ele>
        <time>2020-08-13T08:06:34.000Z</time>
      </trkpt>
      <trkpt lat="44.15662" lon="6.72797">
        <ele>1646.5999755859</ele>
        <time>2020-08-13T08:06:40.000Z</time>
      </trkpt>
      <trkpt lat="44.15662" lon="6.72794">
        <ele>1646.8000488281</ele>
        <time>2020-08-13T08:06:41.000Z</time>
      </trkpt>
      <trkpt lat="44.15665" lon="6.72781">
        <ele>1647.5999755859</ele>
        <time>2020-08-13T08:06:45.000Z</time>
      </trkpt>
      <trkpt lat="44.15666" lon="6.72772">
        <ele>1648.4000244141</ele>
        <time>2020-08-13T08:06:48.000Z</time>
      </trkpt>
      <trkpt lat="44.15666" lon="6.72769">
        <ele>1648.8000488281</ele>
        <time>2020-08-13T08:06:49.000Z</time>
      </trkpt>
      <trkpt lat="44.15669" lon="6.72749">
        <ele>1649.8000488281</ele>
        <time>2020-08-13T08:06:55.000Z</time>
      </trkpt>
      <trkpt lat="44.1567" lon="6.72742">
        <ele>1650.1999511719</ele>
        <time>2020-08-13T08:06:57.000Z</time>
      </trkpt>
      <trkpt lat="44.15671" lon="6.72732">
        <ele>1651</ele>
        <time>2020-08-13T08:07:00.000Z</time>
      </trkpt>
      <trkpt lat="44.15672" lon="6.72718">
        <ele>1651.5999755859</ele>
        <time>2020-08-13T08:07:04.000Z</time>
      </trkpt>
      <trkpt lat="44.15673" lon="6.72712">
        <ele>1652.1999511719</ele>
        <time>2020-08-13T08:07:06.000Z</time>
      </trkpt>
      <trkpt lat="44.15681" lon="6.72692">
        <ele>1653.1999511719</ele>
        <time>2020-08-13T08:07:12.000Z</time>
      </trkpt>
      <trkpt lat="44.15696" lon="6.72686">
        <ele>1653.8000488281</ele>
        <time>2020-08-13T08:07:17.000Z</time>
      </trkpt>
      <trkpt lat="44.15707" lon="6.72689">
        <ele>1654.1999511719</ele>
        <time>2020-08-13T08:07:21.000Z</time>
      </trkpt>
      <trkpt lat="44.15715" lon="6.72692">
        <ele>1654.8000488281</ele>
        <time>2020-08-13T08:07:24.000Z</time>
      </trkpt>
      <trkpt lat="44.15722" lon="6.72696">
        <ele>1655.4000244141</ele>
        <time>2020-08-13T08:07:27.000Z</time>
      </trkpt>
      <trkpt lat="44.15733" lon="6.72703">
        <ele>1656.5999755859</ele>
        <time>2020-08-13T08:07:32.000Z</time>
      </trkpt>
      <trkpt lat="44.15746" lon="6.7271">
        <ele>1657.8000488281</ele>
        <time>2020-08-13T08:07:38.000Z</time>
      </trkpt>
      <trkpt lat="44.1575" lon="6.72713">
        <ele>1658.1999511719</ele>
        <time>2020-08-13T08:07:40.000Z</time>
      </trkpt>
      <trkpt lat="44.15756" lon="6.72717">
        <ele>1659</ele>
        <time>2020-08-13T08:07:43.000Z</time>
      </trkpt>
      <trkpt lat="44.15767" lon="6.72724">
        <ele>1660</ele>
        <time>2020-08-13T08:07:48.000Z</time>
      </trkpt>
      <trkpt lat="44.15769" lon="6.72726">
        <ele>1660.1999511719</ele>
        <time>2020-08-13T08:07:49.000Z</time>
      </trkpt>
      <trkpt lat="44.15782" lon="6.72735">
        <ele>1661.1999511719</ele>
        <time>2020-08-13T08:07:55.000Z</time>
      </trkpt>
      <trkpt lat="44.15786" lon="6.72738">
        <ele>1661.8000488281</ele>
        <time>2020-08-13T08:07:57.000Z</time>
      </trkpt>
      <trkpt lat="44.15792" lon="6.72744">
        <ele>1662.1999511719</ele>
        <time>2020-08-13T08:08:00.000Z</time>
      </trkpt>
      <trkpt lat="44.158" lon="6.72756">
        <ele>1663.1999511719</ele>
        <time>2020-08-13T08:08:05.000Z</time>
      </trkpt>
      <trkpt lat="44.15802" lon="6.72758">
        <ele>1663.5999755859</ele>
        <time>2020-08-13T08:08:06.000Z</time>
      </trkpt>
      <trkpt lat="44.15809" lon="6.7277">
        <ele>1664.5999755859</ele>
        <time>2020-08-13T08:08:11.000Z</time>
      </trkpt>
      <trkpt lat="44.15812" lon="6.72776">
        <ele>1664.8000488281</ele>
        <time>2020-08-13T08:08:13.000Z</time>
      </trkpt>
      <trkpt lat="44.15816" lon="6.72784">
        <ele>1665.8000488281</ele>
        <time>2020-08-13T08:08:16.000Z</time>
      </trkpt>
      <trkpt lat="44.15824" lon="6.72798">
        <ele>1666.8000488281</ele>
        <time>2020-08-13T08:08:21.000Z</time>
      </trkpt>
      <trkpt lat="44.15825" lon="6.728">
        <ele>1667</ele>
        <time>2020-08-13T08:08:22.000Z</time>
      </trkpt>
      <trkpt lat="44.15835" lon="6.72805">
        <ele>1668</ele>
        <time>2020-08-13T08:08:27.000Z</time>
      </trkpt>
      <trkpt lat="44.15838" lon="6.72801">
        <ele>1668.4000244141</ele>
        <time>2020-08-13T08:08:29.000Z</time>
      </trkpt>
      <trkpt lat="44.1584" lon="6.72795">
        <ele>1668.5999755859</ele>
        <time>2020-08-13T08:08:31.000Z</time>
      </trkpt>
      <trkpt lat="44.15839" lon="6.72788">
        <ele>1669</ele>
        <time>2020-08-13T08:08:33.000Z</time>
      </trkpt>
      <trkpt lat="44.15837" lon="6.72782">
        <ele>1669.4000244141</ele>
        <time>2020-08-13T08:08:35.000Z</time>
      </trkpt>
      <trkpt lat="44.15836" lon="6.7278">
        <ele>1669.8000488281</ele>
        <time>2020-08-13T08:08:36.000Z</time>
      </trkpt>
      <trkpt lat="44.15833" lon="6.72774">
        <ele>1670.1999511719</ele>
        <time>2020-08-13T08:08:38.000Z</time>
      </trkpt>
      <trkpt lat="44.15827" lon="6.72761">
        <ele>1671.4000244141</ele>
        <time>2020-08-13T08:08:43.000Z</time>
      </trkpt>
      <trkpt lat="44.15824" lon="6.72752">
        <ele>1671.8000488281</ele>
        <time>2020-08-13T08:08:46.000Z</time>
      </trkpt>
      <trkpt lat="44.15821" lon="6.72744">
        <ele>1672.4000244141</ele>
        <time>2020-08-13T08:08:49.000Z</time>
      </trkpt>
      <trkpt lat="44.15815" lon="6.7273">
        <ele>1673.5999755859</ele>
        <time>2020-08-13T08:08:54.000Z</time>
      </trkpt>
      <trkpt lat="44.15814" lon="6.72727">
        <ele>1673.8000488281</ele>
        <time>2020-08-13T08:08:55.000Z</time>
      </trkpt>
      <trkpt lat="44.15808" lon="6.72717">
        <ele>1674.8000488281</ele>
        <time>2020-08-13T08:08:59.000Z</time>
      </trkpt>
      <trkpt lat="44.158" lon="6.72702">
        <ele>1676</ele>
        <time>2020-08-13T08:09:05.000Z</time>
      </trkpt>
      <trkpt lat="44.15792" lon="6.7269">
        <ele>1677.1999511719</ele>
        <time>2020-08-13T08:09:10.000Z</time>
      </trkpt>
      <trkpt lat="44.15786" lon="6.72681">
        <ele>1678.1999511719</ele>
        <time>2020-08-13T08:09:14.000Z</time>
      </trkpt>
      <trkpt lat="44.15785" lon="6.72679">
        <ele>1678.4000244141</ele>
        <time>2020-08-13T08:09:15.000Z</time>
      </trkpt>
      <trkpt lat="44.15776" lon="6.72667">
        <ele>1679.1999511719</ele>
        <time>2020-08-13T08:09:20.000Z</time>
      </trkpt>
      <trkpt lat="44.15766" lon="6.72655">
        <ele>1680.4000244141</ele>
        <time>2020-08-13T08:09:25.000Z</time>
      </trkpt>
      <trkpt lat="44.15758" lon="6.72644">
        <ele>1681.4000244141</ele>
        <time>2020-08-13T08:09:30.000Z</time>
      </trkpt>
      <trkpt lat="44.15752" lon="6.72636">
        <ele>1682</ele>
        <time>2020-08-13T08:09:33.000Z</time>
      </trkpt>
      <trkpt lat="44.15749" lon="6.72632">
        <ele>1682.4000244141</ele>
        <time>2020-08-13T08:09:35.000Z</time>
      </trkpt>
      <trkpt lat="44.15741" lon="6.72619">
        <ele>1683.4000244141</ele>
        <time>2020-08-13T08:09:40.000Z</time>
      </trkpt>
      <trkpt lat="44.15738" lon="6.72614">
        <ele>1683.8000488281</ele>
        <time>2020-08-13T08:09:42.000Z</time>
      </trkpt>
      <trkpt lat="44.15733" lon="6.72607">
        <ele>1684.5999755859</ele>
        <time>2020-08-13T08:09:45.000Z</time>
      </trkpt>
      <trkpt lat="44.15724" lon="6.72592">
        <ele>1685.8000488281</ele>
        <time>2020-08-13T08:09:51.000Z</time>
      </trkpt>
      <trkpt lat="44.15722" lon="6.7259">
        <ele>1686</ele>
        <time>2020-08-13T08:09:52.000Z</time>
      </trkpt>
      <trkpt lat="44.15714" lon="6.72577">
        <ele>1686.8000488281</ele>
        <time>2020-08-13T08:09:57.000Z</time>
      </trkpt>
      <trkpt lat="44.15706" lon="6.72564">
        <ele>1687.8000488281</ele>
        <time>2020-08-13T08:10:02.000Z</time>
      </trkpt>
      <trkpt lat="44.15705" lon="6.72562">
        <ele>1687.8000488281</ele>
        <time>2020-08-13T08:10:03.000Z</time>
      </trkpt>
      <trkpt lat="44.15697" lon="6.7255">
        <ele>1689</ele>
        <time>2020-08-13T08:10:08.000Z</time>
      </trkpt>
      <trkpt lat="44.15693" lon="6.72542">
        <ele>1689.5999755859</ele>
        <time>2020-08-13T08:10:11.000Z</time>
      </trkpt>
      <trkpt lat="44.15688" lon="6.72535">
        <ele>1690</ele>
        <time>2020-08-13T08:10:14.000Z</time>
      </trkpt>
      <trkpt lat="44.15681" lon="6.72522">
        <ele>1691</ele>
        <time>2020-08-13T08:10:19.000Z</time>
      </trkpt>
      <trkpt lat="44.15674" lon="6.7251">
        <ele>1692.1999511719</ele>
        <time>2020-08-13T08:10:24.000Z</time>
      </trkpt>
      <trkpt lat="44.1567" lon="6.72502">
        <ele>1692.8000488281</ele>
        <time>2020-08-13T08:10:27.000Z</time>
      </trkpt>
      <trkpt lat="44.15667" lon="6.72498">
        <ele>1693.1999511719</ele>
        <time>2020-08-13T08:10:29.000Z</time>
      </trkpt>
      <trkpt lat="44.15658" lon="6.72487">
        <ele>1694</ele>
        <time>2020-08-13T08:10:34.000Z</time>
      </trkpt>
      <trkpt lat="44.15657" lon="6.72485">
        <ele>1694.1999511719</ele>
        <time>2020-08-13T08:10:35.000Z</time>
      </trkpt>
      <trkpt lat="44.15646" lon="6.72475">
        <ele>1695.4000244141</ele>
        <time>2020-08-13T08:10:41.000Z</time>
      </trkpt>
      <trkpt lat="44.15644" lon="6.72465">
        <ele>1696.5999755859</ele>
        <time>2020-08-13T08:10:45.000Z</time>
      </trkpt>
      <trkpt lat="44.15652" lon="6.72462">
        <ele>1697.4000244141</ele>
        <time>2020-08-13T08:10:49.000Z</time>
      </trkpt>
      <trkpt lat="44.15655" lon="6.72464">
        <ele>1697.5999755859</ele>
        <time>2020-08-13T08:10:50.000Z</time>
      </trkpt>
      <trkpt lat="44.1566" lon="6.7247">
        <ele>1698.1999511719</ele>
        <time>2020-08-13T08:10:53.000Z</time>
      </trkpt>
      <trkpt lat="44.15664" lon="6.72474">
        <ele>1698.5999755859</ele>
        <time>2020-08-13T08:10:55.000Z</time>
      </trkpt>
      <trkpt lat="44.15673" lon="6.72482">
        <ele>1699.8000488281</ele>
        <time>2020-08-13T08:11:00.000Z</time>
      </trkpt>
      <trkpt lat="44.1568" lon="6.72489">
        <ele>1700.8000488281</ele>
        <time>2020-08-13T08:11:04.000Z</time>
      </trkpt>
      <trkpt lat="44.15682" lon="6.7249">
        <ele>1700.8000488281</ele>
        <time>2020-08-13T08:11:05.000Z</time>
      </trkpt>
      <trkpt lat="44.15692" lon="6.725">
        <ele>1702</ele>
        <time>2020-08-13T08:11:11.000Z</time>
      </trkpt>
      <trkpt lat="44.15696" lon="6.72504">
        <ele>1702.4000244141</ele>
        <time>2020-08-13T08:11:13.000Z</time>
      </trkpt>
      <trkpt lat="44.15703" lon="6.72512">
        <ele>1703.1999511719</ele>
        <time>2020-08-13T08:11:17.000Z</time>
      </trkpt>
      <trkpt lat="44.15711" lon="6.7252">
        <ele>1704.1999511719</ele>
        <time>2020-08-13T08:11:21.000Z</time>
      </trkpt>
      <trkpt lat="44.15713" lon="6.72522">
        <ele>1704.4000244141</ele>
        <time>2020-08-13T08:11:22.000Z</time>
      </trkpt>
      <trkpt lat="44.15722" lon="6.7253">
        <ele>1705.4000244141</ele>
        <time>2020-08-13T08:11:27.000Z</time>
      </trkpt>
      <trkpt lat="44.15729" lon="6.72537">
        <ele>1706.1999511719</ele>
        <time>2020-08-13T08:11:31.000Z</time>
      </trkpt>
      <trkpt lat="44.15731" lon="6.72539">
        <ele>1706.4000244141</ele>
        <time>2020-08-13T08:11:32.000Z</time>
      </trkpt>
      <trkpt lat="44.15738" lon="6.72547">
        <ele>1707.4000244141</ele>
        <time>2020-08-13T08:11:36.000Z</time>
      </trkpt>
      <trkpt lat="44.15746" lon="6.72553">
        <ele>1708.1999511719</ele>
        <time>2020-08-13T08:11:40.000Z</time>
      </trkpt>
      <trkpt lat="44.1575" lon="6.72557">
        <ele>1708.5999755859</ele>
        <time>2020-08-13T08:11:42.000Z</time>
      </trkpt>
      <trkpt lat="44.15759" lon="6.72566">
        <ele>1709.5999755859</ele>
        <time>2020-08-13T08:11:47.000Z</time>
      </trkpt>
      <trkpt lat="44.15761" lon="6.72568">
        <ele>1709.8000488281</ele>
        <time>2020-08-13T08:11:48.000Z</time>
      </trkpt>
      <trkpt lat="44.15769" lon="6.72576">
        <ele>1711</ele>
        <time>2020-08-13T08:11:52.000Z</time>
      </trkpt>
      <trkpt lat="44.15781" lon="6.72587">
        <ele>1711.8000488281</ele>
        <time>2020-08-13T08:11:58.000Z</time>
      </trkpt>
      <trkpt lat="44.15783" lon="6.72589">
        <ele>1712</ele>
        <time>2020-08-13T08:11:59.000Z</time>
      </trkpt>
      <trkpt lat="44.15802" lon="6.72602">
        <ele>1713</ele>
        <time>2020-08-13T08:12:07.000Z</time>
      </trkpt>
      <trkpt lat="44.15807" lon="6.72605">
        <ele>1713.4000244141</ele>
        <time>2020-08-13T08:12:09.000Z</time>
      </trkpt>
      <trkpt lat="44.15822" lon="6.72614">
        <ele>1714.1999511719</ele>
        <time>2020-08-13T08:12:15.000Z</time>
      </trkpt>
      <trkpt lat="44.15824" lon="6.72615">
        <ele>1714.1999511719</ele>
        <time>2020-08-13T08:12:16.000Z</time>
      </trkpt>
      <trkpt lat="44.15837" lon="6.72625">
        <ele>1715.1999511719</ele>
        <time>2020-08-13T08:12:21.000Z</time>
      </trkpt>
      <trkpt lat="44.15847" lon="6.72635">
        <ele>1715.8000488281</ele>
        <time>2020-08-13T08:12:25.000Z</time>
      </trkpt>
      <trkpt lat="44.15852" lon="6.72639">
        <ele>1716.4000244141</ele>
        <time>2020-08-13T08:12:27.000Z</time>
      </trkpt>
      <trkpt lat="44.15865" lon="6.72641">
        <ele>1717.1999511719</ele>
        <time>2020-08-13T08:12:32.000Z</time>
      </trkpt>
      <trkpt lat="44.15867" lon="6.7264">
        <ele>1717.4000244141</ele>
        <time>2020-08-13T08:12:33.000Z</time>
      </trkpt>
      <trkpt lat="44.15874" lon="6.72632">
        <ele>1717.8000488281</ele>
        <time>2020-08-13T08:12:36.000Z</time>
      </trkpt>
      <trkpt lat="44.15889" lon="6.72606">
        <ele>1718.4000244141</ele>
        <time>2020-08-13T08:12:43.000Z</time>
      </trkpt>
      <trkpt lat="44.15896" lon="6.72579">
        <ele>1719.5999755859</ele>
        <time>2020-08-13T08:12:50.000Z</time>
      </trkpt>
      <trkpt lat="44.15897" lon="6.72561">
        <ele>1720.5999755859</ele>
        <time>2020-08-13T08:12:55.000Z</time>
      </trkpt>
      <trkpt lat="44.15897" lon="6.72554">
        <ele>1721</ele>
        <time>2020-08-13T08:12:57.000Z</time>
      </trkpt>
      <trkpt lat="44.15896" lon="6.72543">
        <ele>1721.5999755859</ele>
        <time>2020-08-13T08:13:00.000Z</time>
      </trkpt>
      <trkpt lat="44.15895" lon="6.72526">
        <ele>1722.8000488281</ele>
        <time>2020-08-13T08:13:05.000Z</time>
      </trkpt>
      <trkpt lat="44.15893" lon="6.72507">
        <ele>1723.5999755859</ele>
        <time>2020-08-13T08:13:10.000Z</time>
      </trkpt>
      <trkpt lat="44.15892" lon="6.72504">
        <ele>1723.8000488281</ele>
        <time>2020-08-13T08:13:11.000Z</time>
      </trkpt>
      <trkpt lat="44.15891" lon="6.7249">
        <ele>1724.8000488281</ele>
        <time>2020-08-13T08:13:15.000Z</time>
      </trkpt>
      <trkpt lat="44.1589" lon="6.7248">
        <ele>1725.5999755859</ele>
        <time>2020-08-13T08:13:18.000Z</time>
      </trkpt>
      <trkpt lat="44.15889" lon="6.72477">
        <ele>1726</ele>
        <time>2020-08-13T08:13:19.000Z</time>
      </trkpt>
      <trkpt lat="44.15888" lon="6.7246">
        <ele>1727</ele>
        <time>2020-08-13T08:13:24.000Z</time>
      </trkpt>
      <trkpt lat="44.15887" lon="6.72454">
        <ele>1727.4000244141</ele>
        <time>2020-08-13T08:13:26.000Z</time>
      </trkpt>
      <trkpt lat="44.15886" lon="6.72439">
        <ele>1728.1999511719</ele>
        <time>2020-08-13T08:13:30.000Z</time>
      </trkpt>
      <trkpt lat="44.15885" lon="6.7243">
        <ele>1728.5999755859</ele>
        <time>2020-08-13T08:13:33.000Z</time>
      </trkpt>
      <trkpt lat="44.15883" lon="6.7242">
        <ele>1729.1999511719</ele>
        <time>2020-08-13T08:13:36.000Z</time>
      </trkpt>
      <trkpt lat="44.15882" lon="6.72406">
        <ele>1730.1999511719</ele>
        <time>2020-08-13T08:13:40.000Z</time>
      </trkpt>
      <trkpt lat="44.15882" lon="6.72402">
        <ele>1730.4000244141</ele>
        <time>2020-08-13T08:13:41.000Z</time>
      </trkpt>
      <trkpt lat="44.1588" lon="6.72381">
        <ele>1731.4000244141</ele>
        <time>2020-08-13T08:13:47.000Z</time>
      </trkpt>
      <trkpt lat="44.1588" lon="6.7236">
        <ele>1732.4000244141</ele>
        <time>2020-08-13T08:13:53.000Z</time>
      </trkpt>
      <trkpt lat="44.15881" lon="6.7235">
        <ele>1733</ele>
        <time>2020-08-13T08:13:56.000Z</time>
      </trkpt>
      <trkpt lat="44.15881" lon="6.72343">
        <ele>1733.5999755859</ele>
        <time>2020-08-13T08:13:58.000Z</time>
      </trkpt>
      <trkpt lat="44.15882" lon="6.72327">
        <ele>1734.5999755859</ele>
        <time>2020-08-13T08:14:03.000Z</time>
      </trkpt>
      <trkpt lat="44.15885" lon="6.72304">
        <ele>1735.5999755859</ele>
        <time>2020-08-13T08:14:10.000Z</time>
      </trkpt>
      <trkpt lat="44.15886" lon="6.72297">
        <ele>1736</ele>
        <time>2020-08-13T08:14:12.000Z</time>
      </trkpt>
      <trkpt lat="44.15887" lon="6.72284">
        <ele>1736.8000488281</ele>
        <time>2020-08-13T08:14:16.000Z</time>
      </trkpt>
      <trkpt lat="44.15889" lon="6.7227">
        <ele>1737.5999755859</ele>
        <time>2020-08-13T08:14:20.000Z</time>
      </trkpt>
      <trkpt lat="44.15889" lon="6.72267">
        <ele>1737.8000488281</ele>
        <time>2020-08-13T08:14:21.000Z</time>
      </trkpt>
      <trkpt lat="44.15891" lon="6.72249">
        <ele>1738.8000488281</ele>
        <time>2020-08-13T08:14:27.000Z</time>
      </trkpt>
      <trkpt lat="44.15891" lon="6.72246">
        <ele>1739</ele>
        <time>2020-08-13T08:14:28.000Z</time>
      </trkpt>
      <trkpt lat="44.15892" lon="6.7223">
        <ele>1740.1999511719</ele>
        <time>2020-08-13T08:14:33.000Z</time>
      </trkpt>
      <trkpt lat="44.15893" lon="6.7222">
        <ele>1740.5999755859</ele>
        <time>2020-08-13T08:14:36.000Z</time>
      </trkpt>
      <trkpt lat="44.15893" lon="6.7221">
        <ele>1741.1999511719</ele>
        <time>2020-08-13T08:14:39.000Z</time>
      </trkpt>
      <trkpt lat="44.15893" lon="6.72197">
        <ele>1742.1999511719</ele>
        <time>2020-08-13T08:14:43.000Z</time>
      </trkpt>
      <trkpt lat="44.15893" lon="6.72194">
        <ele>1742.4000244141</ele>
        <time>2020-08-13T08:14:44.000Z</time>
      </trkpt>
      <trkpt lat="44.15892" lon="6.72174">
        <ele>1743.4000244141</ele>
        <time>2020-08-13T08:14:50.000Z</time>
      </trkpt>
      <trkpt lat="44.15892" lon="6.72171">
        <ele>1743.5999755859</ele>
        <time>2020-08-13T08:14:51.000Z</time>
      </trkpt>
      <trkpt lat="44.15893" lon="6.72155">
        <ele>1744.8000488281</ele>
        <time>2020-08-13T08:14:56.000Z</time>
      </trkpt>
      <trkpt lat="44.15892" lon="6.72151">
        <ele>1745</ele>
        <time>2020-08-13T08:14:57.000Z</time>
      </trkpt>
      <trkpt lat="44.15892" lon="6.7213">
        <ele>1745.8000488281</ele>
        <time>2020-08-13T08:15:03.000Z</time>
      </trkpt>
      <trkpt lat="44.15893" lon="6.72113">
        <ele>1747</ele>
        <time>2020-08-13T08:15:08.000Z</time>
      </trkpt>
      <trkpt lat="44.15894" lon="6.72099">
        <ele>1748</ele>
        <time>2020-08-13T08:15:12.000Z</time>
      </trkpt>
      <trkpt lat="44.15895" lon="6.7208">
        <ele>1749.4000244141</ele>
        <time>2020-08-13T08:15:18.000Z</time>
      </trkpt>
      <trkpt lat="44.15895" lon="6.72077">
        <ele>1749.5999755859</ele>
        <time>2020-08-13T08:15:19.000Z</time>
      </trkpt>
      <trkpt lat="44.15893" lon="6.7206">
        <ele>1750.4000244141</ele>
        <time>2020-08-13T08:15:24.000Z</time>
      </trkpt>
      <trkpt lat="44.15893" lon="6.7205">
        <ele>1751</ele>
        <time>2020-08-13T08:15:27.000Z</time>
      </trkpt>
      <trkpt lat="44.15892" lon="6.7204">
        <ele>1751.5999755859</ele>
        <time>2020-08-13T08:15:30.000Z</time>
      </trkpt>
      <trkpt lat="44.15891" lon="6.72027">
        <ele>1752.1999511719</ele>
        <time>2020-08-13T08:15:34.000Z</time>
      </trkpt>
      <trkpt lat="44.15892" lon="6.72016">
        <ele>1752.5999755859</ele>
        <time>2020-08-13T08:15:37.000Z</time>
      </trkpt>
      <trkpt lat="44.15893" lon="6.72">
        <ele>1753.5999755859</ele>
        <time>2020-08-13T08:15:42.000Z</time>
      </trkpt>
      <trkpt lat="44.15893" lon="6.71997">
        <ele>1753.8000488281</ele>
        <time>2020-08-13T08:15:43.000Z</time>
      </trkpt>
      <trkpt lat="44.15892" lon="6.7198">
        <ele>1754.8000488281</ele>
        <time>2020-08-13T08:15:48.000Z</time>
      </trkpt>
      <trkpt lat="44.15891" lon="6.71974">
        <ele>1755.1999511719</ele>
        <time>2020-08-13T08:15:50.000Z</time>
      </trkpt>
      <trkpt lat="44.15886" lon="6.71954">
        <ele>1756.1999511719</ele>
        <time>2020-08-13T08:15:56.000Z</time>
      </trkpt>
      <trkpt lat="44.15886" lon="6.71951">
        <ele>1756.4000244141</ele>
        <time>2020-08-13T08:15:57.000Z</time>
      </trkpt>
      <trkpt lat="44.15884" lon="6.71938">
        <ele>1757.1999511719</ele>
        <time>2020-08-13T08:16:01.000Z</time>
      </trkpt>
      <trkpt lat="44.15884" lon="6.71931">
        <ele>1757.5999755859</ele>
        <time>2020-08-13T08:16:03.000Z</time>
      </trkpt>
      <trkpt lat="44.15882" lon="6.71914">
        <ele>1758.1999511719</ele>
        <time>2020-08-13T08:16:08.000Z</time>
      </trkpt>
      <trkpt lat="44.15879" lon="6.71898">
        <ele>1759.4000244141</ele>
        <time>2020-08-13T08:16:13.000Z</time>
      </trkpt>
      <trkpt lat="44.15874" lon="6.71879">
        <ele>1760.4000244141</ele>
        <time>2020-08-13T08:16:19.000Z</time>
      </trkpt>
      <trkpt lat="44.1587" lon="6.71866">
        <ele>1761</ele>
        <time>2020-08-13T08:16:23.000Z</time>
      </trkpt>
      <trkpt lat="44.15867" lon="6.71857">
        <ele>1761.4000244141</ele>
        <time>2020-08-13T08:16:26.000Z</time>
      </trkpt>
      <trkpt lat="44.15858" lon="6.7183">
        <ele>1762.4000244141</ele>
        <time>2020-08-13T08:16:34.000Z</time>
      </trkpt>
      <trkpt lat="44.15851" lon="6.71806">
        <ele>1763.4000244141</ele>
        <time>2020-08-13T08:16:41.000Z</time>
      </trkpt>
      <trkpt lat="44.15846" lon="6.71788">
        <ele>1764.5999755859</ele>
        <time>2020-08-13T08:16:46.000Z</time>
      </trkpt>
      <trkpt lat="44.15843" lon="6.71778">
        <ele>1764.8000488281</ele>
        <time>2020-08-13T08:16:49.000Z</time>
      </trkpt>
      <trkpt lat="44.15839" lon="6.71762">
        <ele>1765.5999755859</ele>
        <time>2020-08-13T08:16:54.000Z</time>
      </trkpt>
      <trkpt lat="44.15835" lon="6.71752">
        <ele>1766.1999511719</ele>
        <time>2020-08-13T08:16:57.000Z</time>
      </trkpt>
      <trkpt lat="44.15832" lon="6.71742">
        <ele>1766.8000488281</ele>
        <time>2020-08-13T08:17:00.000Z</time>
      </trkpt>
      <trkpt lat="44.15828" lon="6.71725">
        <ele>1767.8000488281</ele>
        <time>2020-08-13T08:17:05.000Z</time>
      </trkpt>
      <trkpt lat="44.15828" lon="6.71722">
        <ele>1768</ele>
        <time>2020-08-13T08:17:06.000Z</time>
      </trkpt>
      <trkpt lat="44.15825" lon="6.71701">
        <ele>1768.8000488281</ele>
        <time>2020-08-13T08:17:12.000Z</time>
      </trkpt>
      <trkpt lat="44.15825" lon="6.71697">
        <ele>1769</ele>
        <time>2020-08-13T08:17:13.000Z</time>
      </trkpt>
      <trkpt lat="44.15827" lon="6.71677">
        <ele>1770</ele>
        <time>2020-08-13T08:17:19.000Z</time>
      </trkpt>
      <trkpt lat="44.15827" lon="6.71674">
        <ele>1770.1999511719</ele>
        <time>2020-08-13T08:17:20.000Z</time>
      </trkpt>
      <trkpt lat="44.15833" lon="6.7166">
        <ele>1771.1999511719</ele>
        <time>2020-08-13T08:17:25.000Z</time>
      </trkpt>
      <trkpt lat="44.15835" lon="6.71657">
        <ele>1771.4000244141</ele>
        <time>2020-08-13T08:17:26.000Z</time>
      </trkpt>
      <trkpt lat="44.1584" lon="6.71644">
        <ele>1772.1999511719</ele>
        <time>2020-08-13T08:17:30.000Z</time>
      </trkpt>
      <trkpt lat="44.15842" lon="6.71633">
        <ele>1773</ele>
        <time>2020-08-13T08:17:33.000Z</time>
      </trkpt>
      <trkpt lat="44.15843" lon="6.71627">
        <ele>1773.4000244141</ele>
        <time>2020-08-13T08:17:35.000Z</time>
      </trkpt>
      <trkpt lat="44.15841" lon="6.71612">
        <ele>1774</ele>
        <time>2020-08-13T08:17:39.000Z</time>
      </trkpt>
      <trkpt lat="44.15839" lon="6.71601">
        <ele>1774.5999755859</ele>
        <time>2020-08-13T08:17:42.000Z</time>
      </trkpt>
      <trkpt lat="44.15838" lon="6.71584">
        <ele>1775.4000244141</ele>
        <time>2020-08-13T08:17:47.000Z</time>
      </trkpt>
      <trkpt lat="44.15838" lon="6.7158">
        <ele>1775.5999755859</ele>
        <time>2020-08-13T08:17:48.000Z</time>
      </trkpt>
      <trkpt lat="44.15841" lon="6.71568">
        <ele>1776.4000244141</ele>
        <time>2020-08-13T08:17:52.000Z</time>
      </trkpt>
      <trkpt lat="44.15843" lon="6.71563">
        <ele>1776.8000488281</ele>
        <time>2020-08-13T08:17:54.000Z</time>
      </trkpt>
      <trkpt lat="44.15848" lon="6.71551">
        <ele>1777.5999755859</ele>
        <time>2020-08-13T08:17:58.000Z</time>
      </trkpt>
      <trkpt lat="44.15851" lon="6.71546">
        <ele>1778</ele>
        <time>2020-08-13T08:18:00.000Z</time>
      </trkpt>
      <trkpt lat="44.15858" lon="6.71533">
        <ele>1779.1999511719</ele>
        <time>2020-08-13T08:18:05.000Z</time>
      </trkpt>
      <trkpt lat="44.15866" lon="6.71522">
        <ele>1780.4000244141</ele>
        <time>2020-08-13T08:18:10.000Z</time>
      </trkpt>
      <trkpt lat="44.15868" lon="6.7152">
        <ele>1780.5999755859</ele>
        <time>2020-08-13T08:18:11.000Z</time>
      </trkpt>
      <trkpt lat="44.1587" lon="6.71518">
        <ele>1780.5999755859</ele>
        <time>2020-08-13T08:18:12.000Z</time>
      </trkpt>
      <trkpt lat="44.15879" lon="6.71506">
        <ele>1781.4000244141</ele>
        <time>2020-08-13T08:18:17.000Z</time>
      </trkpt>
      <trkpt lat="44.15887" lon="6.71499">
        <ele>1782</ele>
        <time>2020-08-13T08:18:21.000Z</time>
      </trkpt>
      <trkpt lat="44.15894" lon="6.71495">
        <ele>1782.5999755859</ele>
        <time>2020-08-13T08:18:24.000Z</time>
      </trkpt>
      <trkpt lat="44.15903" lon="6.71491">
        <ele>1783.8000488281</ele>
        <time>2020-08-13T08:18:28.000Z</time>
      </trkpt>
      <trkpt lat="44.15921" lon="6.7149">
        <ele>1784.8000488281</ele>
        <time>2020-08-13T08:18:36.000Z</time>
      </trkpt>
      <trkpt lat="44.15932" lon="6.71493">
        <ele>1785.8000488281</ele>
        <time>2020-08-13T08:18:41.000Z</time>
      </trkpt>
      <trkpt lat="44.15943" lon="6.71497">
        <ele>1787</ele>
        <time>2020-08-13T08:18:46.000Z</time>
      </trkpt>
      <trkpt lat="44.15946" lon="6.71498">
        <ele>1787.1999511719</ele>
        <time>2020-08-13T08:18:47.000Z</time>
      </trkpt>
      <trkpt lat="44.15956" lon="6.71503">
        <ele>1788.1999511719</ele>
        <time>2020-08-13T08:18:52.000Z</time>
      </trkpt>
      <trkpt lat="44.15962" lon="6.71507">
        <ele>1788.8000488281</ele>
        <time>2020-08-13T08:18:55.000Z</time>
      </trkpt>
      <trkpt lat="44.15967" lon="6.71508">
        <ele>1789.1999511719</ele>
        <time>2020-08-13T08:18:57.000Z</time>
      </trkpt>
      <trkpt lat="44.1598" lon="6.71509">
        <ele>1790</ele>
        <time>2020-08-13T08:19:02.000Z</time>
      </trkpt>
      <trkpt lat="44.15985" lon="6.71507">
        <ele>1790.1999511719</ele>
        <time>2020-08-13T08:19:04.000Z</time>
      </trkpt>
      <trkpt lat="44.16001" lon="6.71501">
        <ele>1790.8000488281</ele>
        <time>2020-08-13T08:19:09.000Z</time>
      </trkpt>
      <trkpt lat="44.16026" lon="6.7149">
        <ele>1790.5999755859</ele>
        <time>2020-08-13T08:19:17.000Z</time>
      </trkpt>
      <trkpt lat="44.16042" lon="6.7147">
        <ele>1790.5999755859</ele>
        <time>2020-08-13T08:19:23.000Z</time>
      </trkpt>
      <trkpt lat="44.16048" lon="6.71444">
        <ele>1790.5999755859</ele>
        <time>2020-08-13T08:19:28.000Z</time>
      </trkpt>
      <trkpt lat="44.16051" lon="6.71427">
        <ele>1790.5999755859</ele>
        <time>2020-08-13T08:19:31.000Z</time>
      </trkpt>
      <trkpt lat="44.16049" lon="6.71409">
        <ele>1790.5999755859</ele>
        <time>2020-08-13T08:19:34.000Z</time>
      </trkpt>
      <trkpt lat="44.16047" lon="6.71398">
        <ele>1790.4000244141</ele>
        <time>2020-08-13T08:19:36.000Z</time>
      </trkpt>
      <trkpt lat="44.16041" lon="6.71379">
        <ele>1790.4000244141</ele>
        <time>2020-08-13T08:19:39.000Z</time>
      </trkpt>
      <trkpt lat="44.1604" lon="6.71373">
        <ele>1790.4000244141</ele>
        <time>2020-08-13T08:19:40.000Z</time>
      </trkpt>
      <trkpt lat="44.16039" lon="6.71347">
        <ele>1789.8000488281</ele>
        <time>2020-08-13T08:19:44.000Z</time>
      </trkpt>
      <trkpt lat="44.1604" lon="6.71334">
        <ele>1789.8000488281</ele>
        <time>2020-08-13T08:19:46.000Z</time>
      </trkpt>
      <trkpt lat="44.16049" lon="6.71306">
        <ele>1789.5999755859</ele>
        <time>2020-08-13T08:19:51.000Z</time>
      </trkpt>
      <trkpt lat="44.16069" lon="6.71268">
        <ele>1789.5999755859</ele>
        <time>2020-08-13T08:19:59.000Z</time>
      </trkpt>
      <trkpt lat="44.16092" lon="6.71232">
        <ele>1789.8000488281</ele>
        <time>2020-08-13T08:20:07.000Z</time>
      </trkpt>
      <trkpt lat="44.16096" lon="6.71229">
        <ele>1789.8000488281</ele>
        <time>2020-08-13T08:20:08.000Z</time>
      </trkpt>
      <trkpt lat="44.16124" lon="6.71208">
        <ele>1789.8000488281</ele>
        <time>2020-08-13T08:20:15.000Z</time>
      </trkpt>
      <trkpt lat="44.16168" lon="6.71181">
        <ele>1789.5999755859</ele>
        <time>2020-08-13T08:20:25.000Z</time>
      </trkpt>
      <trkpt lat="44.16198" lon="6.71164">
        <ele>1789.8000488281</ele>
        <time>2020-08-13T08:20:32.000Z</time>
      </trkpt>
      <trkpt lat="44.16201" lon="6.7116">
        <ele>1789.5999755859</ele>
        <time>2020-08-13T08:20:33.000Z</time>
      </trkpt>
      <trkpt lat="44.16208" lon="6.71152">
        <ele>1789.5999755859</ele>
        <time>2020-08-13T08:20:35.000Z</time>
      </trkpt>
      <trkpt lat="44.16215" lon="6.71136">
        <ele>1789.8000488281</ele>
        <time>2020-08-13T08:20:38.000Z</time>
      </trkpt>
      <trkpt lat="44.16216" lon="6.71131">
        <ele>1790</ele>
        <time>2020-08-13T08:20:39.000Z</time>
      </trkpt>
      <trkpt lat="44.16227" lon="6.71115">
        <ele>1790.5999755859</ele>
        <time>2020-08-13T08:20:43.000Z</time>
      </trkpt>
      <trkpt lat="44.16235" lon="6.71113">
        <ele>1791.1999511719</ele>
        <time>2020-08-13T08:20:45.000Z</time>
      </trkpt>
      <trkpt lat="44.16242" lon="6.71116">
        <ele>1791.8000488281</ele>
        <time>2020-08-13T08:20:47.000Z</time>
      </trkpt>
      <trkpt lat="44.16254" lon="6.7113">
        <ele>1791.8000488281</ele>
        <time>2020-08-13T08:20:51.000Z</time>
      </trkpt>
      <trkpt lat="44.16271" lon="6.71156">
        <ele>1792.4000244141</ele>
        <time>2020-08-13T08:20:58.000Z</time>
      </trkpt>
      <trkpt lat="44.1628" lon="6.71168">
        <ele>1793.4000244141</ele>
        <time>2020-08-13T08:21:02.000Z</time>
      </trkpt>
      <trkpt lat="44.16289" lon="6.71181">
        <ele>1794.4000244141</ele>
        <time>2020-08-13T08:21:06.000Z</time>
      </trkpt>
      <trkpt lat="44.16293" lon="6.71188">
        <ele>1794.8000488281</ele>
        <time>2020-08-13T08:21:08.000Z</time>
      </trkpt>
      <trkpt lat="44.16299" lon="6.71201">
        <ele>1795.5999755859</ele>
        <time>2020-08-13T08:21:12.000Z</time>
      </trkpt>
      <trkpt lat="44.16304" lon="6.71214">
        <ele>1796.8000488281</ele>
        <time>2020-08-13T08:21:16.000Z</time>
      </trkpt>
      <trkpt lat="44.16311" lon="6.71228">
        <ele>1798</ele>
        <time>2020-08-13T08:21:21.000Z</time>
      </trkpt>
      <trkpt lat="44.16317" lon="6.71233">
        <ele>1798.8000488281</ele>
        <time>2020-08-13T08:21:24.000Z</time>
      </trkpt>
      <trkpt lat="44.16319" lon="6.71234">
        <ele>1799</ele>
        <time>2020-08-13T08:21:25.000Z</time>
      </trkpt>
      <trkpt lat="44.16328" lon="6.71232">
        <ele>1799.8000488281</ele>
        <time>2020-08-13T08:21:29.000Z</time>
      </trkpt>
      <trkpt lat="44.16331" lon="6.7123">
        <ele>1800</ele>
        <time>2020-08-13T08:21:31.000Z</time>
      </trkpt>
      <trkpt lat="44.16339" lon="6.71222">
        <ele>1800.8000488281</ele>
        <time>2020-08-13T08:21:35.000Z</time>
      </trkpt>
      <trkpt lat="44.16343" lon="6.71218">
        <ele>1801.1999511719</ele>
        <time>2020-08-13T08:21:37.000Z</time>
      </trkpt>
      <trkpt lat="44.16352" lon="6.71208">
        <ele>1802.4000244141</ele>
        <time>2020-08-13T08:21:42.000Z</time>
      </trkpt>
      <trkpt lat="44.16357" lon="6.71204">
        <ele>1802.8000488281</ele>
        <time>2020-08-13T08:21:44.000Z</time>
      </trkpt>
      <trkpt lat="44.16364" lon="6.71199">
        <ele>1803.5999755859</ele>
        <time>2020-08-13T08:21:47.000Z</time>
      </trkpt>
      <trkpt lat="44.16375" lon="6.71195">
        <ele>1804.4000244141</ele>
        <time>2020-08-13T08:21:51.000Z</time>
      </trkpt>
      <trkpt lat="44.16378" lon="6.71195">
        <ele>1804.5999755859</ele>
        <time>2020-08-13T08:21:52.000Z</time>
      </trkpt>
      <trkpt lat="44.16388" lon="6.71195">
        <ele>1805.8000488281</ele>
        <time>2020-08-13T08:21:56.000Z</time>
      </trkpt>
      <trkpt lat="44.16391" lon="6.71196">
        <ele>1806.1999511719</ele>
        <time>2020-08-13T08:21:57.000Z</time>
      </trkpt>
      <trkpt lat="44.16396" lon="6.71199">
        <ele>1806.8000488281</ele>
        <time>2020-08-13T08:21:59.000Z</time>
      </trkpt>
      <trkpt lat="44.16413" lon="6.71212">
        <ele>1807.8000488281</ele>
        <time>2020-08-13T08:22:06.000Z</time>
      </trkpt>
      <trkpt lat="44.16415" lon="6.71215">
        <ele>1808</ele>
        <time>2020-08-13T08:22:07.000Z</time>
      </trkpt>
      <trkpt lat="44.1642" lon="6.71231">
        <ele>1809.1999511719</ele>
        <time>2020-08-13T08:22:12.000Z</time>
      </trkpt>
      <trkpt lat="44.16425" lon="6.71247">
        <ele>1810.4000244141</ele>
        <time>2020-08-13T08:22:17.000Z</time>
      </trkpt>
      <trkpt lat="44.1643" lon="6.7126">
        <ele>1811.1999511719</ele>
        <time>2020-08-13T08:22:21.000Z</time>
      </trkpt>
      <trkpt lat="44.16432" lon="6.71263">
        <ele>1811.4000244141</ele>
        <time>2020-08-13T08:22:22.000Z</time>
      </trkpt>
      <trkpt lat="44.16444" lon="6.71277">
        <ele>1812.5999755859</ele>
        <time>2020-08-13T08:22:28.000Z</time>
      </trkpt>
      <trkpt lat="44.16459" lon="6.71282">
        <ele>1813.5999755859</ele>
        <time>2020-08-13T08:22:34.000Z</time>
      </trkpt>
      <trkpt lat="44.16461" lon="6.71282">
        <ele>1814</ele>
        <time>2020-08-13T08:22:35.000Z</time>
      </trkpt>
      <trkpt lat="44.16471" lon="6.71284">
        <ele>1814.8000488281</ele>
        <time>2020-08-13T08:22:39.000Z</time>
      </trkpt>
      <trkpt lat="44.16483" lon="6.71289">
        <ele>1815.8000488281</ele>
        <time>2020-08-13T08:22:44.000Z</time>
      </trkpt>
      <trkpt lat="44.16486" lon="6.7129">
        <ele>1816</ele>
        <time>2020-08-13T08:22:45.000Z</time>
      </trkpt>
      <trkpt lat="44.16495" lon="6.71295">
        <ele>1816.8000488281</ele>
        <time>2020-08-13T08:22:49.000Z</time>
      </trkpt>
      <trkpt lat="44.16506" lon="6.71304">
        <ele>1817.8000488281</ele>
        <time>2020-08-13T08:22:54.000Z</time>
      </trkpt>
      <trkpt lat="44.16509" lon="6.71306">
        <ele>1818</ele>
        <time>2020-08-13T08:22:55.000Z</time>
      </trkpt>
      <trkpt lat="44.1652" lon="6.71316">
        <ele>1819</ele>
        <time>2020-08-13T08:23:00.000Z</time>
      </trkpt>
      <trkpt lat="44.1653" lon="6.71322">
        <ele>1819.5999755859</ele>
        <time>2020-08-13T08:23:04.000Z</time>
      </trkpt>
      <trkpt lat="44.16533" lon="6.71322">
        <ele>1820</ele>
        <time>2020-08-13T08:23:05.000Z</time>
      </trkpt>
      <trkpt lat="44.16542" lon="6.71318">
        <ele>1821</ele>
        <time>2020-08-13T08:23:09.000Z</time>
      </trkpt>
      <trkpt lat="44.16545" lon="6.71316">
        <ele>1821.1999511719</ele>
        <time>2020-08-13T08:23:10.000Z</time>
      </trkpt>
      <trkpt lat="44.16558" lon="6.71306">
        <ele>1822.1999511719</ele>
        <time>2020-08-13T08:23:16.000Z</time>
      </trkpt>
      <trkpt lat="44.16563" lon="6.71303">
        <ele>1822.5999755859</ele>
        <time>2020-08-13T08:23:18.000Z</time>
      </trkpt>
      <trkpt lat="44.16569" lon="6.71299">
        <ele>1823.4000244141</ele>
        <time>2020-08-13T08:23:21.000Z</time>
      </trkpt>
      <trkpt lat="44.16581" lon="6.71295">
        <ele>1824.5999755859</ele>
        <time>2020-08-13T08:23:26.000Z</time>
      </trkpt>
      <trkpt lat="44.16583" lon="6.71294">
        <ele>1825</ele>
        <time>2020-08-13T08:23:27.000Z</time>
      </trkpt>
      <trkpt lat="44.16589" lon="6.71293">
        <ele>1825.8000488281</ele>
        <time>2020-08-13T08:23:30.000Z</time>
      </trkpt>
      <trkpt lat="44.16595" lon="6.71287">
        <ele>1826.5999755859</ele>
        <time>2020-08-13T08:23:34.000Z</time>
      </trkpt>
      <trkpt lat="44.16596" lon="6.71285">
        <ele>1826.8000488281</ele>
        <time>2020-08-13T08:23:35.000Z</time>
      </trkpt>
      <trkpt lat="44.16593" lon="6.7128">
        <ele>1827.4000244141</ele>
        <time>2020-08-13T08:23:38.000Z</time>
      </trkpt>
      <trkpt lat="44.16589" lon="6.71279">
        <ele>1827.8000488281</ele>
        <time>2020-08-13T08:23:40.000Z</time>
      </trkpt>
      <trkpt lat="44.16579" lon="6.71278">
        <ele>1828.4000244141</ele>
        <time>2020-08-13T08:23:44.000Z</time>
      </trkpt>
      <trkpt lat="44.16571" lon="6.71279">
        <ele>1829</ele>
        <time>2020-08-13T08:23:47.000Z</time>
      </trkpt>
      <trkpt lat="44.16555" lon="6.71282">
        <ele>1830</ele>
        <time>2020-08-13T08:23:53.000Z</time>
      </trkpt>
      <trkpt lat="44.16545" lon="6.71283">
        <ele>1831.1999511719</ele>
        <time>2020-08-13T08:23:57.000Z</time>
      </trkpt>
      <trkpt lat="44.16535" lon="6.71282">
        <ele>1832.1999511719</ele>
        <time>2020-08-13T08:24:01.000Z</time>
      </trkpt>
      <trkpt lat="44.1653" lon="6.71279">
        <ele>1832.5999755859</ele>
        <time>2020-08-13T08:24:03.000Z</time>
      </trkpt>
      <trkpt lat="44.16524" lon="6.71272">
        <ele>1833.1999511719</ele>
        <time>2020-08-13T08:24:06.000Z</time>
      </trkpt>
      <trkpt lat="44.16516" lon="6.71263">
        <ele>1834.4000244141</ele>
        <time>2020-08-13T08:24:10.000Z</time>
      </trkpt>
      <trkpt lat="44.16514" lon="6.71261">
        <ele>1834.4000244141</ele>
        <time>2020-08-13T08:24:11.000Z</time>
      </trkpt>
      <trkpt lat="44.16504" lon="6.71248">
        <ele>1835.4000244141</ele>
        <time>2020-08-13T08:24:16.000Z</time>
      </trkpt>
      <trkpt lat="44.16497" lon="6.71237">
        <ele>1836.4000244141</ele>
        <time>2020-08-13T08:24:20.000Z</time>
      </trkpt>
      <trkpt lat="44.16496" lon="6.71234">
        <ele>1836.5999755859</ele>
        <time>2020-08-13T08:24:21.000Z</time>
      </trkpt>
      <trkpt lat="44.16491" lon="6.71213">
        <ele>1837.8000488281</ele>
        <time>2020-08-13T08:24:27.000Z</time>
      </trkpt>
      <trkpt lat="44.16487" lon="6.71192">
        <ele>1839</ele>
        <time>2020-08-13T08:24:33.000Z</time>
      </trkpt>
      <trkpt lat="44.16485" lon="6.71182">
        <ele>1839.5999755859</ele>
        <time>2020-08-13T08:24:36.000Z</time>
      </trkpt>
      <trkpt lat="44.16484" lon="6.71175">
        <ele>1840</ele>
        <time>2020-08-13T08:24:38.000Z</time>
      </trkpt>
      <trkpt lat="44.16482" lon="6.71159">
        <ele>1841.1999511719</ele>
        <time>2020-08-13T08:24:43.000Z</time>
      </trkpt>
      <trkpt lat="44.16482" lon="6.71152">
        <ele>1841.5999755859</ele>
        <time>2020-08-13T08:24:45.000Z</time>
      </trkpt>
      <trkpt lat="44.16486" lon="6.71145">
        <ele>1842.4000244141</ele>
        <time>2020-08-13T08:24:48.000Z</time>
      </trkpt>
      <trkpt lat="44.1649" lon="6.71144">
        <ele>1842.8000488281</ele>
        <time>2020-08-13T08:24:50.000Z</time>
      </trkpt>
      <trkpt lat="44.16495" lon="6.71145">
        <ele>1843.5999755859</ele>
        <time>2020-08-13T08:24:52.000Z</time>
      </trkpt>
      <trkpt lat="44.16499" lon="6.71147">
        <ele>1844.1999511719</ele>
        <time>2020-08-13T08:24:54.000Z</time>
      </trkpt>
      <trkpt lat="44.16504" lon="6.71149">
        <ele>1844.8000488281</ele>
        <time>2020-08-13T08:24:56.000Z</time>
      </trkpt>
      <trkpt lat="44.16522" lon="6.71154">
        <ele>1846</ele>
        <time>2020-08-13T08:25:03.000Z</time>
      </trkpt>
      <trkpt lat="44.16524" lon="6.71154">
        <ele>1846.1999511719</ele>
        <time>2020-08-13T08:25:04.000Z</time>
      </trkpt>
      <trkpt lat="44.16535" lon="6.71151">
        <ele>1847.1999511719</ele>
        <time>2020-08-13T08:25:09.000Z</time>
      </trkpt>
      <trkpt lat="44.16544" lon="6.71148">
        <ele>1848.4000244141</ele>
        <time>2020-08-13T08:25:13.000Z</time>
      </trkpt>
      <trkpt lat="44.16553" lon="6.71139">
        <ele>1849.5999755859</ele>
        <time>2020-08-13T08:25:18.000Z</time>
      </trkpt>
      <trkpt lat="44.16558" lon="6.71132">
        <ele>1850</ele>
        <time>2020-08-13T08:25:21.000Z</time>
      </trkpt>
      <trkpt lat="44.16562" lon="6.71122">
        <ele>1850.5999755859</ele>
        <time>2020-08-13T08:25:24.000Z</time>
      </trkpt>
      <trkpt lat="44.16567" lon="6.7111">
        <ele>1851.5999755859</ele>
        <time>2020-08-13T08:25:28.000Z</time>
      </trkpt>
      <trkpt lat="44.16568" lon="6.71107">
        <ele>1851.8000488281</ele>
        <time>2020-08-13T08:25:29.000Z</time>
      </trkpt>
      <trkpt lat="44.16573" lon="6.71093">
        <ele>1853</ele>
        <time>2020-08-13T08:25:34.000Z</time>
      </trkpt>
      <trkpt lat="44.16575" lon="6.71085">
        <ele>1853.5999755859</ele>
        <time>2020-08-13T08:25:37.000Z</time>
      </trkpt>
      <trkpt lat="44.16578" lon="6.71077">
        <ele>1854.1999511719</ele>
        <time>2020-08-13T08:25:40.000Z</time>
      </trkpt>
      <trkpt lat="44.16582" lon="6.71061">
        <ele>1855.4000244141</ele>
        <time>2020-08-13T08:25:46.000Z</time>
      </trkpt>
      <trkpt lat="44.16583" lon="6.71058">
        <ele>1855.5999755859</ele>
        <time>2020-08-13T08:25:47.000Z</time>
      </trkpt>
      <trkpt lat="44.16586" lon="6.71048">
        <ele>1856.5999755859</ele>
        <time>2020-08-13T08:25:51.000Z</time>
      </trkpt>
      <trkpt lat="44.1659" lon="6.71032">
        <ele>1857.5999755859</ele>
        <time>2020-08-13T08:25:57.000Z</time>
      </trkpt>
      <trkpt lat="44.1659" lon="6.71029">
        <ele>1857.8000488281</ele>
        <time>2020-08-13T08:25:58.000Z</time>
      </trkpt>
      <trkpt lat="44.16593" lon="6.71019">
        <ele>1858.8000488281</ele>
        <time>2020-08-13T08:26:02.000Z</time>
      </trkpt>
      <trkpt lat="44.16596" lon="6.71007">
        <ele>1860</ele>
        <time>2020-08-13T08:26:07.000Z</time>
      </trkpt>
      <trkpt lat="44.16597" lon="6.71002">
        <ele>1860.4000244141</ele>
        <time>2020-08-13T08:26:09.000Z</time>
      </trkpt>
      <trkpt lat="44.16601" lon="6.70992">
        <ele>1861</ele>
        <time>2020-08-13T08:26:13.000Z</time>
      </trkpt>
      <trkpt lat="44.16606" lon="6.70981">
        <ele>1862</ele>
        <time>2020-08-13T08:26:18.000Z</time>
      </trkpt>
      <trkpt lat="44.16608" lon="6.70978">
        <ele>1862.1999511719</ele>
        <time>2020-08-13T08:26:19.000Z</time>
      </trkpt>
      <trkpt lat="44.16614" lon="6.70967">
        <ele>1863.1999511719</ele>
        <time>2020-08-13T08:26:24.000Z</time>
      </trkpt>
      <trkpt lat="44.16618" lon="6.7096">
        <ele>1863.8000488281</ele>
        <time>2020-08-13T08:26:27.000Z</time>
      </trkpt>
      <trkpt lat="44.16621" lon="6.70953">
        <ele>1864.1999511719</ele>
        <time>2020-08-13T08:26:30.000Z</time>
      </trkpt>
      <trkpt lat="44.16627" lon="6.70942">
        <ele>1865.1999511719</ele>
        <time>2020-08-13T08:26:35.000Z</time>
      </trkpt>
      <trkpt lat="44.16628" lon="6.7094">
        <ele>1865.4000244141</ele>
        <time>2020-08-13T08:26:36.000Z</time>
      </trkpt>
      <trkpt lat="44.16633" lon="6.70928">
        <ele>1866.4000244141</ele>
        <time>2020-08-13T08:26:41.000Z</time>
      </trkpt>
      <trkpt lat="44.16635" lon="6.70923">
        <ele>1866.8000488281</ele>
        <time>2020-08-13T08:26:43.000Z</time>
      </trkpt>
      <trkpt lat="44.16637" lon="6.70916">
        <ele>1867.5999755859</ele>
        <time>2020-08-13T08:26:46.000Z</time>
      </trkpt>
      <trkpt lat="44.16639" lon="6.70902">
        <ele>1868.4000244141</ele>
        <time>2020-08-13T08:26:51.000Z</time>
      </trkpt>
      <trkpt lat="44.16641" lon="6.70896">
        <ele>1868.5999755859</ele>
        <time>2020-08-13T08:26:53.000Z</time>
      </trkpt>
      <trkpt lat="44.16642" lon="6.70885">
        <ele>1869.5999755859</ele>
        <time>2020-08-13T08:26:57.000Z</time>
      </trkpt>
      <trkpt lat="44.16642" lon="6.7088">
        <ele>1870</ele>
        <time>2020-08-13T08:26:59.000Z</time>
      </trkpt>
      <trkpt lat="44.16645" lon="6.70869">
        <ele>1870.8000488281</ele>
        <time>2020-08-13T08:27:03.000Z</time>
      </trkpt>
      <trkpt lat="44.16647" lon="6.70859">
        <ele>1871.8000488281</ele>
        <time>2020-08-13T08:27:07.000Z</time>
      </trkpt>
      <trkpt lat="44.16648" lon="6.70856">
        <ele>1872</ele>
        <time>2020-08-13T08:27:08.000Z</time>
      </trkpt>
      <trkpt lat="44.16654" lon="6.70841">
        <ele>1873</ele>
        <time>2020-08-13T08:27:14.000Z</time>
      </trkpt>
      <trkpt lat="44.16656" lon="6.70836">
        <ele>1873.4000244141</ele>
        <time>2020-08-13T08:27:16.000Z</time>
      </trkpt>
      <trkpt lat="44.1666" lon="6.70829">
        <ele>1874</ele>
        <time>2020-08-13T08:27:19.000Z</time>
      </trkpt>
      <trkpt lat="44.16665" lon="6.70813">
        <ele>1874.8000488281</ele>
        <time>2020-08-13T08:27:25.000Z</time>
      </trkpt>
      <trkpt lat="44.16665" lon="6.70807">
        <ele>1875.1999511719</ele>
        <time>2020-08-13T08:27:27.000Z</time>
      </trkpt>
      <trkpt lat="44.16661" lon="6.70795">
        <ele>1875.5999755859</ele>
        <time>2020-08-13T08:27:31.000Z</time>
      </trkpt>
      <trkpt lat="44.16651" lon="6.70787">
        <ele>1876.4000244141</ele>
        <time>2020-08-13T08:27:36.000Z</time>
      </trkpt>
      <trkpt lat="44.16637" lon="6.70782">
        <ele>1877.4000244141</ele>
        <time>2020-08-13T08:27:42.000Z</time>
      </trkpt>
      <trkpt lat="44.1663" lon="6.70781">
        <ele>1878</ele>
        <time>2020-08-13T08:27:45.000Z</time>
      </trkpt>
      <trkpt lat="44.1662" lon="6.70781">
        <ele>1878.5999755859</ele>
        <time>2020-08-13T08:27:49.000Z</time>
      </trkpt>
      <trkpt lat="44.16611" lon="6.70782">
        <ele>1879.4000244141</ele>
        <time>2020-08-13T08:27:53.000Z</time>
      </trkpt>
      <trkpt lat="44.16609" lon="6.70782">
        <ele>1879.5999755859</ele>
        <time>2020-08-13T08:27:54.000Z</time>
      </trkpt>
      <trkpt lat="44.16591" lon="6.70783">
        <ele>1880.5999755859</ele>
        <time>2020-08-13T08:28:01.000Z</time>
      </trkpt>
      <trkpt lat="44.16588" lon="6.70784">
        <ele>1880.5999755859</ele>
        <time>2020-08-13T08:28:02.000Z</time>
      </trkpt>
      <trkpt lat="44.16565" lon="6.70791">
        <ele>1881</ele>
        <time>2020-08-13T08:28:10.000Z</time>
      </trkpt>
      <trkpt lat="44.16549" lon="6.70792">
        <ele>1881.5999755859</ele>
        <time>2020-08-13T08:28:16.000Z</time>
      </trkpt>
      <trkpt lat="44.16547" lon="6.70791">
        <ele>1881.8000488281</ele>
        <time>2020-08-13T08:28:17.000Z</time>
      </trkpt>
      <trkpt lat="44.16538" lon="6.70788">
        <ele>1882.8000488281</ele>
        <time>2020-08-13T08:28:21.000Z</time>
      </trkpt>
      <trkpt lat="44.16527" lon="6.70786">
        <ele>1883.8000488281</ele>
        <time>2020-08-13T08:28:26.000Z</time>
      </trkpt>
      <trkpt lat="44.16525" lon="6.70786">
        <ele>1883.8000488281</ele>
        <time>2020-08-13T08:28:27.000Z</time>
      </trkpt>
      <trkpt lat="44.16513" lon="6.70784">
        <ele>1885</ele>
        <time>2020-08-13T08:28:33.000Z</time>
      </trkpt>
      <trkpt lat="44.16511" lon="6.70783">
        <ele>1885.1999511719</ele>
        <time>2020-08-13T08:28:34.000Z</time>
      </trkpt>
      <trkpt lat="44.16507" lon="6.70779">
        <ele>1886</ele>
        <time>2020-08-13T08:28:37.000Z</time>
      </trkpt>
      <trkpt lat="44.16503" lon="6.70772">
        <ele>1886.8000488281</ele>
        <time>2020-08-13T08:28:40.000Z</time>
      </trkpt>
      <trkpt lat="44.16502" lon="6.7077">
        <ele>1887</ele>
        <time>2020-08-13T08:28:41.000Z</time>
      </trkpt>
      <trkpt lat="44.165" lon="6.70757">
        <ele>1888.1999511719</ele>
        <time>2020-08-13T08:28:46.000Z</time>
      </trkpt>
      <trkpt lat="44.16494" lon="6.70743">
        <ele>1889.1999511719</ele>
        <time>2020-08-13T08:28:52.000Z</time>
      </trkpt>
      <trkpt lat="44.1649" lon="6.70737">
        <ele>1889.8000488281</ele>
        <time>2020-08-13T08:28:55.000Z</time>
      </trkpt>
      <trkpt lat="44.16484" lon="6.70732">
        <ele>1890.4000244141</ele>
        <time>2020-08-13T08:28:58.000Z</time>
      </trkpt>
      <trkpt lat="44.16478" lon="6.70731">
        <ele>1890.8000488281</ele>
        <time>2020-08-13T08:29:01.000Z</time>
      </trkpt>
      <trkpt lat="44.16471" lon="6.7073">
        <ele>1891.4000244141</ele>
        <time>2020-08-13T08:29:04.000Z</time>
      </trkpt>
      <trkpt lat="44.16461" lon="6.7073">
        <ele>1892.4000244141</ele>
        <time>2020-08-13T08:29:09.000Z</time>
      </trkpt>
      <trkpt lat="44.16459" lon="6.7073">
        <ele>1892.4000244141</ele>
        <time>2020-08-13T08:29:10.000Z</time>
      </trkpt>
      <trkpt lat="44.16448" lon="6.70728">
        <ele>1893.5999755859</ele>
        <time>2020-08-13T08:29:16.000Z</time>
      </trkpt>
      <trkpt lat="44.16446" lon="6.70728">
        <ele>1893.5999755859</ele>
        <time>2020-08-13T08:29:17.000Z</time>
      </trkpt>
      <trkpt lat="44.16437" lon="6.70724">
        <ele>1894.8000488281</ele>
        <time>2020-08-13T08:29:22.000Z</time>
      </trkpt>
      <trkpt lat="44.16435" lon="6.70723">
        <ele>1895</ele>
        <time>2020-08-13T08:29:23.000Z</time>
      </trkpt>
      <trkpt lat="44.16426" lon="6.70721">
        <ele>1896</ele>
        <time>2020-08-13T08:29:27.000Z</time>
      </trkpt>
      <trkpt lat="44.16419" lon="6.70722">
        <ele>1896.5999755859</ele>
        <time>2020-08-13T08:29:31.000Z</time>
      </trkpt>
      <trkpt lat="44.16415" lon="6.70722">
        <ele>1897</ele>
        <time>2020-08-13T08:29:33.000Z</time>
      </trkpt>
      <trkpt lat="44.16413" lon="6.70721">
        <ele>1897.1999511719</ele>
        <time>2020-08-13T08:29:34.000Z</time>
      </trkpt>
      <trkpt lat="44.16411" lon="6.70716">
        <ele>1897.4000244141</ele>
        <time>2020-08-13T08:29:36.000Z</time>
      </trkpt>
      <trkpt lat="44.16417" lon="6.70709">
        <ele>1898.1999511719</ele>
        <time>2020-08-13T08:29:40.000Z</time>
      </trkpt>
      <trkpt lat="44.16426" lon="6.70704">
        <ele>1899.1999511719</ele>
        <time>2020-08-13T08:29:45.000Z</time>
      </trkpt>
      <trkpt lat="44.16428" lon="6.70704">
        <ele>1899.4000244141</ele>
        <time>2020-08-13T08:29:46.000Z</time>
      </trkpt>
      <trkpt lat="44.16433" lon="6.70703">
        <ele>1900</ele>
        <time>2020-08-13T08:29:48.000Z</time>
      </trkpt>
      <trkpt lat="44.16438" lon="6.70702">
        <ele>1900.5999755859</ele>
        <time>2020-08-13T08:29:51.000Z</time>
      </trkpt>
      <trkpt lat="44.16447" lon="6.70699">
        <ele>1901.8000488281</ele>
        <time>2020-08-13T08:29:56.000Z</time>
      </trkpt>
      <trkpt lat="44.16456" lon="6.70696">
        <ele>1903</ele>
        <time>2020-08-13T08:30:01.000Z</time>
      </trkpt>
      <trkpt lat="44.16457" lon="6.70695">
        <ele>1903.1999511719</ele>
        <time>2020-08-13T08:30:02.000Z</time>
      </trkpt>
      <trkpt lat="44.16467" lon="6.70689">
        <ele>1904</ele>
        <time>2020-08-13T08:30:08.000Z</time>
      </trkpt>
      <trkpt lat="44.16469" lon="6.70687">
        <ele>1904.1999511719</ele>
        <time>2020-08-13T08:30:09.000Z</time>
      </trkpt>
      <trkpt lat="44.16475" lon="6.70682">
        <ele>1905.1999511719</ele>
        <time>2020-08-13T08:30:13.000Z</time>
      </trkpt>
      <trkpt lat="44.16478" lon="6.70676">
        <ele>1905.8000488281</ele>
        <time>2020-08-13T08:30:16.000Z</time>
      </trkpt>
      <trkpt lat="44.16481" lon="6.70671">
        <ele>1906.1999511719</ele>
        <time>2020-08-13T08:30:18.000Z</time>
      </trkpt>
      <trkpt lat="44.16489" lon="6.70663">
        <ele>1907.1999511719</ele>
        <time>2020-08-13T08:30:23.000Z</time>
      </trkpt>
      <trkpt lat="44.16493" lon="6.70661">
        <ele>1907.5999755859</ele>
        <time>2020-08-13T08:30:25.000Z</time>
      </trkpt>
      <trkpt lat="44.165" lon="6.70661">
        <ele>1908.4000244141</ele>
        <time>2020-08-13T08:30:29.000Z</time>
      </trkpt>
      <trkpt lat="44.16507" lon="6.70661">
        <ele>1909</ele>
        <time>2020-08-13T08:30:33.000Z</time>
      </trkpt>
      <trkpt lat="44.16511" lon="6.70661">
        <ele>1909.5999755859</ele>
        <time>2020-08-13T08:30:35.000Z</time>
      </trkpt>
      <trkpt lat="44.1652" lon="6.70663">
        <ele>1910.8000488281</ele>
        <time>2020-08-13T08:30:40.000Z</time>
      </trkpt>
      <trkpt lat="44.16521" lon="6.70663">
        <ele>1911</ele>
        <time>2020-08-13T08:30:41.000Z</time>
      </trkpt>
      <trkpt lat="44.1653" lon="6.70664">
        <ele>1911.8000488281</ele>
        <time>2020-08-13T08:30:46.000Z</time>
      </trkpt>
      <trkpt lat="44.16534" lon="6.70664">
        <ele>1912.1999511719</ele>
        <time>2020-08-13T08:30:48.000Z</time>
      </trkpt>
      <trkpt lat="44.16542" lon="6.70666">
        <ele>1912.8000488281</ele>
        <time>2020-08-13T08:30:52.000Z</time>
      </trkpt>
      <trkpt lat="44.16548" lon="6.70667">
        <ele>1913.5999755859</ele>
        <time>2020-08-13T08:30:55.000Z</time>
      </trkpt>
      <trkpt lat="44.16552" lon="6.70667">
        <ele>1914.1999511719</ele>
        <time>2020-08-13T08:30:57.000Z</time>
      </trkpt>
      <trkpt lat="44.16563" lon="6.70666">
        <ele>1915.1999511719</ele>
        <time>2020-08-13T08:31:03.000Z</time>
      </trkpt>
      <trkpt lat="44.16567" lon="6.70666">
        <ele>1915.5999755859</ele>
        <time>2020-08-13T08:31:05.000Z</time>
      </trkpt>
      <trkpt lat="44.16572" lon="6.70666">
        <ele>1916.4000244141</ele>
        <time>2020-08-13T08:31:08.000Z</time>
      </trkpt>
      <trkpt lat="44.16579" lon="6.70665">
        <ele>1917.4000244141</ele>
        <time>2020-08-13T08:31:12.000Z</time>
      </trkpt>
      <trkpt lat="44.1658" lon="6.70664">
        <ele>1917.4000244141</ele>
        <time>2020-08-13T08:31:13.000Z</time>
      </trkpt>
      <trkpt lat="44.16586" lon="6.70659">
        <ele>1918</ele>
        <time>2020-08-13T08:31:17.000Z</time>
      </trkpt>
      <trkpt lat="44.1659" lon="6.70654">
        <ele>1918.5999755859</ele>
        <time>2020-08-13T08:31:20.000Z</time>
      </trkpt>
      <trkpt lat="44.16595" lon="6.70647">
        <ele>1919.4000244141</ele>
        <time>2020-08-13T08:31:24.000Z</time>
      </trkpt>
      <trkpt lat="44.16597" lon="6.70643">
        <ele>1919.5999755859</ele>
        <time>2020-08-13T08:31:26.000Z</time>
      </trkpt>
      <trkpt lat="44.16602" lon="6.70633">
        <ele>1921</ele>
        <time>2020-08-13T08:31:31.000Z</time>
      </trkpt>
      <trkpt lat="44.16603" lon="6.70631">
        <ele>1921.1999511719</ele>
        <time>2020-08-13T08:31:32.000Z</time>
      </trkpt>
      <trkpt lat="44.16607" lon="6.7062">
        <ele>1922</ele>
        <time>2020-08-13T08:31:37.000Z</time>
      </trkpt>
      <trkpt lat="44.16613" lon="6.70607">
        <ele>1923</ele>
        <time>2020-08-13T08:31:43.000Z</time>
      </trkpt>
      <trkpt lat="44.16618" lon="6.70597">
        <ele>1924.1999511719</ele>
        <time>2020-08-13T08:31:48.000Z</time>
      </trkpt>
      <trkpt lat="44.16625" lon="6.70584">
        <ele>1925.4000244141</ele>
        <time>2020-08-13T08:31:54.000Z</time>
      </trkpt>
      <trkpt lat="44.16631" lon="6.70572">
        <ele>1926.4000244141</ele>
        <time>2020-08-13T08:32:00.000Z</time>
      </trkpt>
      <trkpt lat="44.16634" lon="6.70568">
        <ele>1927</ele>
        <time>2020-08-13T08:32:02.000Z</time>
      </trkpt>
      <trkpt lat="44.16635" lon="6.70564">
        <ele>1927.5999755859</ele>
        <time>2020-08-13T08:32:04.000Z</time>
      </trkpt>
      <trkpt lat="44.16639" lon="6.70559">
        <ele>1928.1999511719</ele>
        <time>2020-08-13T08:32:07.000Z</time>
      </trkpt>
      <trkpt lat="44.16641" lon="6.70555">
        <ele>1928.5999755859</ele>
        <time>2020-08-13T08:32:09.000Z</time>
      </trkpt>
      <trkpt lat="44.16644" lon="6.70548">
        <ele>1929.4000244141</ele>
        <time>2020-08-13T08:32:13.000Z</time>
      </trkpt>
      <trkpt lat="44.16646" lon="6.70544">
        <ele>1929.5999755859</ele>
        <time>2020-08-13T08:32:15.000Z</time>
      </trkpt>
      <trkpt lat="44.16653" lon="6.70534">
        <ele>1930.4000244141</ele>
        <time>2020-08-13T08:32:20.000Z</time>
      </trkpt>
      <trkpt lat="44.16655" lon="6.7053">
        <ele>1931</ele>
        <time>2020-08-13T08:32:22.000Z</time>
      </trkpt>
      <trkpt lat="44.1666" lon="6.7052">
        <ele>1932</ele>
        <time>2020-08-13T08:32:27.000Z</time>
      </trkpt>
      <trkpt lat="44.16661" lon="6.70518">
        <ele>1932.1999511719</ele>
        <time>2020-08-13T08:32:28.000Z</time>
      </trkpt>
      <trkpt lat="44.16667" lon="6.70506">
        <ele>1933.1999511719</ele>
        <time>2020-08-13T08:32:34.000Z</time>
      </trkpt>
      <trkpt lat="44.16668" lon="6.70505">
        <ele>1933.4000244141</ele>
        <time>2020-08-13T08:32:35.000Z</time>
      </trkpt>
      <trkpt lat="44.16672" lon="6.70497">
        <ele>1934.4000244141</ele>
        <time>2020-08-13T08:32:39.000Z</time>
      </trkpt>
      <trkpt lat="44.16678" lon="6.70489">
        <ele>1935.1999511719</ele>
        <time>2020-08-13T08:32:44.000Z</time>
      </trkpt>
      <trkpt lat="44.16679" lon="6.70488">
        <ele>1935.4000244141</ele>
        <time>2020-08-13T08:32:45.000Z</time>
      </trkpt>
      <trkpt lat="44.16687" lon="6.70481">
        <ele>1936.4000244141</ele>
        <time>2020-08-13T08:32:51.000Z</time>
      </trkpt>
      <trkpt lat="44.16696" lon="6.70476">
        <ele>1937.5999755859</ele>
        <time>2020-08-13T08:32:57.000Z</time>
      </trkpt>
      <trkpt lat="44.16705" lon="6.70471">
        <ele>1938.8000488281</ele>
        <time>2020-08-13T08:33:03.000Z</time>
      </trkpt>
      <trkpt lat="44.1671" lon="6.70469">
        <ele>1939.1999511719</ele>
        <time>2020-08-13T08:33:06.000Z</time>
      </trkpt>
      <trkpt lat="44.16715" lon="6.70466">
        <ele>1939.8000488281</ele>
        <time>2020-08-13T08:33:09.000Z</time>
      </trkpt>
      <trkpt lat="44.16723" lon="6.70462">
        <ele>1941</ele>
        <time>2020-08-13T08:33:14.000Z</time>
      </trkpt>
      <trkpt lat="44.16731" lon="6.70458">
        <ele>1942.1999511719</ele>
        <time>2020-08-13T08:33:19.000Z</time>
      </trkpt>
      <trkpt lat="44.16735" lon="6.70456">
        <ele>1942.5999755859</ele>
        <time>2020-08-13T08:33:21.000Z</time>
      </trkpt>
      <trkpt lat="44.16739" lon="6.70453">
        <ele>1943.1999511719</ele>
        <time>2020-08-13T08:33:24.000Z</time>
      </trkpt>
      <trkpt lat="44.16748" lon="6.7045">
        <ele>1944.4000244141</ele>
        <time>2020-08-13T08:33:29.000Z</time>
      </trkpt>
      <trkpt lat="44.1675" lon="6.70449">
        <ele>1944.8000488281</ele>
        <time>2020-08-13T08:33:31.000Z</time>
      </trkpt>
      <trkpt lat="44.16755" lon="6.70445">
        <ele>1945.5999755859</ele>
        <time>2020-08-13T08:33:34.000Z</time>
      </trkpt>
      <trkpt lat="44.16761" lon="6.7044">
        <ele>1946.4000244141</ele>
        <time>2020-08-13T08:33:38.000Z</time>
      </trkpt>
      <trkpt lat="44.16763" lon="6.70438">
        <ele>1946.5999755859</ele>
        <time>2020-08-13T08:33:39.000Z</time>
      </trkpt>
      <trkpt lat="44.16771" lon="6.70429">
        <ele>1947.5999755859</ele>
        <time>2020-08-13T08:33:45.000Z</time>
      </trkpt>
      <trkpt lat="44.16773" lon="6.70428">
        <ele>1947.8000488281</ele>
        <time>2020-08-13T08:33:46.000Z</time>
      </trkpt>
      <trkpt lat="44.16778" lon="6.70421">
        <ele>1948.8000488281</ele>
        <time>2020-08-13T08:33:50.000Z</time>
      </trkpt>
      <trkpt lat="44.16781" lon="6.70419">
        <ele>1949.1999511719</ele>
        <time>2020-08-13T08:33:52.000Z</time>
      </trkpt>
      <trkpt lat="44.16784" lon="6.70415">
        <ele>1949.5999755859</ele>
        <time>2020-08-13T08:33:54.000Z</time>
      </trkpt>
      <trkpt lat="44.16785" lon="6.70414">
        <ele>1949.8000488281</ele>
        <time>2020-08-13T08:33:55.000Z</time>
      </trkpt>
      <trkpt lat="44.16793" lon="6.70405">
        <ele>1950.8000488281</ele>
        <time>2020-08-13T08:34:01.000Z</time>
      </trkpt>
      <trkpt lat="44.16801" lon="6.70397">
        <ele>1952</ele>
        <time>2020-08-13T08:34:06.000Z</time>
      </trkpt>
      <trkpt lat="44.16804" lon="6.70394">
        <ele>1952.5999755859</ele>
        <time>2020-08-13T08:34:08.000Z</time>
      </trkpt>
      <trkpt lat="44.16807" lon="6.70391">
        <ele>1953</ele>
        <time>2020-08-13T08:34:10.000Z</time>
      </trkpt>
      <trkpt lat="44.16815" lon="6.70387">
        <ele>1954.1999511719</ele>
        <time>2020-08-13T08:34:15.000Z</time>
      </trkpt>
      <trkpt lat="44.16817" lon="6.70386">
        <ele>1954.1999511719</ele>
        <time>2020-08-13T08:34:16.000Z</time>
      </trkpt>
      <trkpt lat="44.16825" lon="6.70383">
        <ele>1955.1999511719</ele>
        <time>2020-08-13T08:34:21.000Z</time>
      </trkpt>
      <trkpt lat="44.16829" lon="6.70383">
        <ele>1955.5999755859</ele>
        <time>2020-08-13T08:34:23.000Z</time>
      </trkpt>
      <trkpt lat="44.16833" lon="6.70383">
        <ele>1956</ele>
        <time>2020-08-13T08:34:25.000Z</time>
      </trkpt>
      <trkpt lat="44.16836" lon="6.70386">
        <ele>1956.4000244141</ele>
        <time>2020-08-13T08:34:27.000Z</time>
      </trkpt>
      <trkpt lat="44.16837" lon="6.70388">
        <ele>1956.4000244141</ele>
        <time>2020-08-13T08:34:28.000Z</time>
      </trkpt>
      <trkpt lat="44.16842" lon="6.70394">
        <ele>1957.4000244141</ele>
        <time>2020-08-13T08:34:32.000Z</time>
      </trkpt>
      <trkpt lat="44.16844" lon="6.70395">
        <ele>1957.5999755859</ele>
        <time>2020-08-13T08:34:33.000Z</time>
      </trkpt>
      <trkpt lat="44.1685" lon="6.704">
        <ele>1958.4000244141</ele>
        <time>2020-08-13T08:34:37.000Z</time>
      </trkpt>
      <trkpt lat="44.16851" lon="6.70402">
        <ele>1958.5999755859</ele>
        <time>2020-08-13T08:34:38.000Z</time>
      </trkpt>
      <trkpt lat="44.16857" lon="6.70412">
        <ele>1959.4000244141</ele>
        <time>2020-08-13T08:34:43.000Z</time>
      </trkpt>
      <trkpt lat="44.16859" lon="6.70415">
        <ele>1959.8000488281</ele>
        <time>2020-08-13T08:34:45.000Z</time>
      </trkpt>
      <trkpt lat="44.16865" lon="6.70424">
        <ele>1960.8000488281</ele>
        <time>2020-08-13T08:34:50.000Z</time>
      </trkpt>
      <trkpt lat="44.16867" lon="6.70427">
        <ele>1961</ele>
        <time>2020-08-13T08:34:52.000Z</time>
      </trkpt>
      <trkpt lat="44.16874" lon="6.70429">
        <ele>1962</ele>
        <time>2020-08-13T08:34:56.000Z</time>
      </trkpt>
      <trkpt lat="44.16877" lon="6.70428">
        <ele>1962.1999511719</ele>
        <time>2020-08-13T08:34:58.000Z</time>
      </trkpt>
      <trkpt lat="44.16884" lon="6.7042">
        <ele>1963.1999511719</ele>
        <time>2020-08-13T08:35:03.000Z</time>
      </trkpt>
      <trkpt lat="44.16885" lon="6.70418">
        <ele>1963.4000244141</ele>
        <time>2020-08-13T08:35:04.000Z</time>
      </trkpt>
      <trkpt lat="44.16888" lon="6.70407">
        <ele>1964.4000244141</ele>
        <time>2020-08-13T08:35:09.000Z</time>
      </trkpt>
      <trkpt lat="44.16888" lon="6.70402">
        <ele>1964.5999755859</ele>
        <time>2020-08-13T08:35:11.000Z</time>
      </trkpt>
      <trkpt lat="44.16888" lon="6.70393">
        <ele>1965.4000244141</ele>
        <time>2020-08-13T08:35:15.000Z</time>
      </trkpt>
      <trkpt lat="44.16887" lon="6.70386">
        <ele>1966</ele>
        <time>2020-08-13T08:35:18.000Z</time>
      </trkpt>
      <trkpt lat="44.16885" lon="6.7038">
        <ele>1966.4000244141</ele>
        <time>2020-08-13T08:35:21.000Z</time>
      </trkpt>
      <trkpt lat="44.16883" lon="6.70372">
        <ele>1967.4000244141</ele>
        <time>2020-08-13T08:35:25.000Z</time>
      </trkpt>
      <trkpt lat="44.16882" lon="6.7037">
        <ele>1967.5999755859</ele>
        <time>2020-08-13T08:35:26.000Z</time>
      </trkpt>
      <trkpt lat="44.1688" lon="6.70359">
        <ele>1968.5999755859</ele>
        <time>2020-08-13T08:35:31.000Z</time>
      </trkpt>
      <trkpt lat="44.16879" lon="6.70352">
        <ele>1969.4000244141</ele>
        <time>2020-08-13T08:35:34.000Z</time>
      </trkpt>
      <trkpt lat="44.16879" lon="6.70349">
        <ele>1969.5999755859</ele>
        <time>2020-08-13T08:35:35.000Z</time>
      </trkpt>
      <trkpt lat="44.16877" lon="6.70338">
        <ele>1970.8000488281</ele>
        <time>2020-08-13T08:35:39.000Z</time>
      </trkpt>
      <trkpt lat="44.16877" lon="6.70331">
        <ele>1971.5999755859</ele>
        <time>2020-08-13T08:35:42.000Z</time>
      </trkpt>
      <trkpt lat="44.16877" lon="6.70326">
        <ele>1972</ele>
        <time>2020-08-13T08:35:44.000Z</time>
      </trkpt>
      <trkpt lat="44.16878" lon="6.70311">
        <ele>1973.1999511719</ele>
        <time>2020-08-13T08:35:50.000Z</time>
      </trkpt>
      <trkpt lat="44.16877" lon="6.70309">
        <ele>1973.4000244141</ele>
        <time>2020-08-13T08:35:51.000Z</time>
      </trkpt>
      <trkpt lat="44.16877" lon="6.70296">
        <ele>1974.4000244141</ele>
        <time>2020-08-13T08:35:56.000Z</time>
      </trkpt>
      <trkpt lat="44.16876" lon="6.70289">
        <ele>1975</ele>
        <time>2020-08-13T08:35:59.000Z</time>
      </trkpt>
      <trkpt lat="44.16873" lon="6.70277">
        <ele>1975.5999755859</ele>
        <time>2020-08-13T08:36:04.000Z</time>
      </trkpt>
      <trkpt lat="44.16871" lon="6.70267">
        <ele>1976.4000244141</ele>
        <time>2020-08-13T08:36:08.000Z</time>
      </trkpt>
      <trkpt lat="44.16869" lon="6.70262">
        <ele>1976.5999755859</ele>
        <time>2020-08-13T08:36:10.000Z</time>
      </trkpt>
      <trkpt lat="44.16865" lon="6.70248">
        <ele>1977.8000488281</ele>
        <time>2020-08-13T08:36:16.000Z</time>
      </trkpt>
      <trkpt lat="44.1686" lon="6.70233">
        <ele>1978.8000488281</ele>
        <time>2020-08-13T08:36:22.000Z</time>
      </trkpt>
      <trkpt lat="44.1686" lon="6.70231">
        <ele>1979</ele>
        <time>2020-08-13T08:36:23.000Z</time>
      </trkpt>
      <trkpt lat="44.1685" lon="6.70223">
        <ele>1979.8000488281</ele>
        <time>2020-08-13T08:36:29.000Z</time>
      </trkpt>
      <trkpt lat="44.16838" lon="6.70223">
        <ele>1981</ele>
        <time>2020-08-13T08:36:35.000Z</time>
      </trkpt>
      <trkpt lat="44.16836" lon="6.70224">
        <ele>1981</ele>
        <time>2020-08-13T08:36:36.000Z</time>
      </trkpt>
      <trkpt lat="44.16825" lon="6.7023">
        <ele>1982</ele>
        <time>2020-08-13T08:36:42.000Z</time>
      </trkpt>
      <trkpt lat="44.16822" lon="6.70232">
        <ele>1982.1999511719</ele>
        <time>2020-08-13T08:36:44.000Z</time>
      </trkpt>
      <trkpt lat="44.16816" lon="6.70237">
        <ele>1983</ele>
        <time>2020-08-13T08:36:48.000Z</time>
      </trkpt>
      <trkpt lat="44.16807" lon="6.70243">
        <ele>1984</ele>
        <time>2020-08-13T08:36:53.000Z</time>
      </trkpt>
      <trkpt lat="44.16805" lon="6.70244">
        <ele>1984.1999511719</ele>
        <time>2020-08-13T08:36:54.000Z</time>
      </trkpt>
      <trkpt lat="44.16795" lon="6.70248">
        <ele>1985.1999511719</ele>
        <time>2020-08-13T08:37:00.000Z</time>
      </trkpt>
      <trkpt lat="44.16786" lon="6.70253">
        <ele>1986.1999511719</ele>
        <time>2020-08-13T08:37:05.000Z</time>
      </trkpt>
      <trkpt lat="44.16781" lon="6.70255">
        <ele>1986.8000488281</ele>
        <time>2020-08-13T08:37:08.000Z</time>
      </trkpt>
      <trkpt lat="44.16776" lon="6.70256">
        <ele>1987.1999511719</ele>
        <time>2020-08-13T08:37:11.000Z</time>
      </trkpt>
      <trkpt lat="44.16766" lon="6.70258">
        <ele>1988.1999511719</ele>
        <time>2020-08-13T08:37:16.000Z</time>
      </trkpt>
      <trkpt lat="44.16764" lon="6.70258">
        <ele>1988.4000244141</ele>
        <time>2020-08-13T08:37:17.000Z</time>
      </trkpt>
      <trkpt lat="44.16755" lon="6.70261">
        <ele>1989.4000244141</ele>
        <time>2020-08-13T08:37:22.000Z</time>
      </trkpt>
      <trkpt lat="44.1675" lon="6.70262">
        <ele>1990</ele>
        <time>2020-08-13T08:37:25.000Z</time>
      </trkpt>
      <trkpt lat="44.16745" lon="6.70263">
        <ele>1990.5999755859</ele>
        <time>2020-08-13T08:37:28.000Z</time>
      </trkpt>
      <trkpt lat="44.16736" lon="6.70265">
        <ele>1991.4000244141</ele>
        <time>2020-08-13T08:37:33.000Z</time>
      </trkpt>
      <trkpt lat="44.16733" lon="6.70266">
        <ele>1991.8000488281</ele>
        <time>2020-08-13T08:37:35.000Z</time>
      </trkpt>
      <trkpt lat="44.16726" lon="6.70267">
        <ele>1992.5999755859</ele>
        <time>2020-08-13T08:37:39.000Z</time>
      </trkpt>
      <trkpt lat="44.16721" lon="6.70268">
        <ele>1992.8000488281</ele>
        <time>2020-08-13T08:37:42.000Z</time>
      </trkpt>
      <trkpt lat="44.16713" lon="6.7027">
        <ele>1994</ele>
        <time>2020-08-13T08:37:47.000Z</time>
      </trkpt>
      <trkpt lat="44.16705" lon="6.70272">
        <ele>1995</ele>
        <time>2020-08-13T08:37:52.000Z</time>
      </trkpt>
      <trkpt lat="44.16699" lon="6.70274">
        <ele>1995.5999755859</ele>
        <time>2020-08-13T08:37:55.000Z</time>
      </trkpt>
      <trkpt lat="44.16695" lon="6.70274">
        <ele>1996.1999511719</ele>
        <time>2020-08-13T08:37:58.000Z</time>
      </trkpt>
      <trkpt lat="44.16689" lon="6.70276">
        <ele>1997.1999511719</ele>
        <time>2020-08-13T08:38:02.000Z</time>
      </trkpt>
      <trkpt lat="44.16687" lon="6.70276">
        <ele>1997.4000244141</ele>
        <time>2020-08-13T08:38:03.000Z</time>
      </trkpt>
      <trkpt lat="44.16678" lon="6.70277">
        <ele>1998.1999511719</ele>
        <time>2020-08-13T08:38:09.000Z</time>
      </trkpt>
      <trkpt lat="44.16671" lon="6.70276">
        <ele>1999.4000244141</ele>
        <time>2020-08-13T08:38:14.000Z</time>
      </trkpt>
      <trkpt lat="44.16669" lon="6.70275">
        <ele>1999.5999755859</ele>
        <time>2020-08-13T08:38:15.000Z</time>
      </trkpt>
      <trkpt lat="44.16666" lon="6.70266">
        <ele>2000.4000244141</ele>
        <time>2020-08-13T08:38:20.000Z</time>
      </trkpt>
      <trkpt lat="44.16666" lon="6.70264">
        <ele>2000.8000488281</ele>
        <time>2020-08-13T08:38:21.000Z</time>
      </trkpt>
      <trkpt lat="44.16669" lon="6.70255">
        <ele>2001.5999755859</ele>
        <time>2020-08-13T08:38:25.000Z</time>
      </trkpt>
      <trkpt lat="44.16672" lon="6.7025">
        <ele>2002</ele>
        <time>2020-08-13T08:38:28.000Z</time>
      </trkpt>
      <trkpt lat="44.16674" lon="6.70244">
        <ele>2002.8000488281</ele>
        <time>2020-08-13T08:38:31.000Z</time>
      </trkpt>
      <trkpt lat="44.16681" lon="6.70232">
        <ele>2004</ele>
        <time>2020-08-13T08:38:38.000Z</time>
      </trkpt>
      <trkpt lat="44.16688" lon="6.70223">
        <ele>2004.8000488281</ele>
        <time>2020-08-13T08:38:43.000Z</time>
      </trkpt>
      <trkpt lat="44.16691" lon="6.70221">
        <ele>2005.1999511719</ele>
        <time>2020-08-13T08:38:45.000Z</time>
      </trkpt>
      <trkpt lat="44.167" lon="6.70221">
        <ele>2006</ele>
        <time>2020-08-13T08:38:50.000Z</time>
      </trkpt>
      <trkpt lat="44.16703" lon="6.70222">
        <ele>2006.1999511719</ele>
        <time>2020-08-13T08:38:52.000Z</time>
      </trkpt>
      <trkpt lat="44.16712" lon="6.70222">
        <ele>2007.1999511719</ele>
        <time>2020-08-13T08:38:57.000Z</time>
      </trkpt>
      <trkpt lat="44.16717" lon="6.70223">
        <ele>2007.8000488281</ele>
        <time>2020-08-13T08:39:00.000Z</time>
      </trkpt>
      <trkpt lat="44.16722" lon="6.70224">
        <ele>2008.1999511719</ele>
        <time>2020-08-13T08:39:03.000Z</time>
      </trkpt>
      <trkpt lat="44.16731" lon="6.70224">
        <ele>2008.8000488281</ele>
        <time>2020-08-13T08:39:08.000Z</time>
      </trkpt>
      <trkpt lat="44.16734" lon="6.70224">
        <ele>2009.1999511719</ele>
        <time>2020-08-13T08:39:10.000Z</time>
      </trkpt>
      <trkpt lat="44.16744" lon="6.70222">
        <ele>2010.1999511719</ele>
        <time>2020-08-13T08:39:16.000Z</time>
      </trkpt>
      <trkpt lat="44.16755" lon="6.70219">
        <ele>2011.1999511719</ele>
        <time>2020-08-13T08:39:22.000Z</time>
      </trkpt>
      <trkpt lat="44.16757" lon="6.70219">
        <ele>2011.4000244141</ele>
        <time>2020-08-13T08:39:23.000Z</time>
      </trkpt>
      <trkpt lat="44.16769" lon="6.7021">
        <ele>2012.4000244141</ele>
        <time>2020-08-13T08:39:31.000Z</time>
      </trkpt>
      <trkpt lat="44.1678" lon="6.702">
        <ele>2013.5999755859</ele>
        <time>2020-08-13T08:39:38.000Z</time>
      </trkpt>
      <trkpt lat="44.16782" lon="6.70198">
        <ele>2013.8000488281</ele>
        <time>2020-08-13T08:39:39.000Z</time>
      </trkpt>
      <trkpt lat="44.16789" lon="6.70189">
        <ele>2014.5999755859</ele>
        <time>2020-08-13T08:39:44.000Z</time>
      </trkpt>
      <trkpt lat="44.16794" lon="6.70182">
        <ele>2015.1999511719</ele>
        <time>2020-08-13T08:39:48.000Z</time>
      </trkpt>
      <trkpt lat="44.16798" lon="6.70176">
        <ele>2015.8000488281</ele>
        <time>2020-08-13T08:39:51.000Z</time>
      </trkpt>
      <trkpt lat="44.16805" lon="6.70162">
        <ele>2016.8000488281</ele>
        <time>2020-08-13T08:39:57.000Z</time>
      </trkpt>
      <trkpt lat="44.16813" lon="6.70144">
        <ele>2017.8000488281</ele>
        <time>2020-08-13T08:40:05.000Z</time>
      </trkpt>
      <trkpt lat="44.16816" lon="6.70136">
        <ele>2018.1999511719</ele>
        <time>2020-08-13T08:40:08.000Z</time>
      </trkpt>
      <trkpt lat="44.16821" lon="6.70124">
        <ele>2019</ele>
        <time>2020-08-13T08:40:13.000Z</time>
      </trkpt>
      <trkpt lat="44.16827" lon="6.7011">
        <ele>2019.8000488281</ele>
        <time>2020-08-13T08:40:19.000Z</time>
      </trkpt>
      <trkpt lat="44.16828" lon="6.70106">
        <ele>2020</ele>
        <time>2020-08-13T08:40:21.000Z</time>
      </trkpt>
      <trkpt lat="44.16835" lon="6.70097">
        <ele>2021</ele>
        <time>2020-08-13T08:40:26.000Z</time>
      </trkpt>
      <trkpt lat="44.16847" lon="6.70088">
        <ele>2022.1999511719</ele>
        <time>2020-08-13T08:40:33.000Z</time>
      </trkpt>
      <trkpt lat="44.1685" lon="6.70086">
        <ele>2022.4000244141</ele>
        <time>2020-08-13T08:40:35.000Z</time>
      </trkpt>
      <trkpt lat="44.16859" lon="6.70082">
        <ele>2023.1999511719</ele>
        <time>2020-08-13T08:40:40.000Z</time>
      </trkpt>
      <trkpt lat="44.16864" lon="6.7008">
        <ele>2023.5999755859</ele>
        <time>2020-08-13T08:40:43.000Z</time>
      </trkpt>
      <trkpt lat="44.16871" lon="6.70077">
        <ele>2024.1999511719</ele>
        <time>2020-08-13T08:40:47.000Z</time>
      </trkpt>
      <trkpt lat="44.16879" lon="6.70073">
        <ele>2025.4000244141</ele>
        <time>2020-08-13T08:40:52.000Z</time>
      </trkpt>
      <trkpt lat="44.1688" lon="6.70072">
        <ele>2025.4000244141</ele>
        <time>2020-08-13T08:40:53.000Z</time>
      </trkpt>
      <trkpt lat="44.16891" lon="6.70067">
        <ele>2026.4000244141</ele>
        <time>2020-08-13T08:40:59.000Z</time>
      </trkpt>
      <trkpt lat="44.16899" lon="6.70064">
        <ele>2027.4000244141</ele>
        <time>2020-08-13T08:41:04.000Z</time>
      </trkpt>
      <trkpt lat="44.169" lon="6.70064">
        <ele>2027.5999755859</ele>
        <time>2020-08-13T08:41:05.000Z</time>
      </trkpt>
      <trkpt lat="44.16913" lon="6.70058">
        <ele>2028.8000488281</ele>
        <time>2020-08-13T08:41:12.000Z</time>
      </trkpt>
      <trkpt lat="44.16914" lon="6.70057">
        <ele>2029</ele>
        <time>2020-08-13T08:41:13.000Z</time>
      </trkpt>
      <trkpt lat="44.16919" lon="6.70053">
        <ele>2029.8000488281</ele>
        <time>2020-08-13T08:41:16.000Z</time>
      </trkpt>
      <trkpt lat="44.16928" lon="6.70047">
        <ele>2030.5999755859</ele>
        <time>2020-08-13T08:41:21.000Z</time>
      </trkpt>
      <trkpt lat="44.16932" lon="6.70045">
        <ele>2031</ele>
        <time>2020-08-13T08:41:23.000Z</time>
      </trkpt>
      <trkpt lat="44.16945" lon="6.70041">
        <ele>2032</ele>
        <time>2020-08-13T08:41:30.000Z</time>
      </trkpt>
      <trkpt lat="44.16956" lon="6.70042">
        <ele>2033</ele>
        <time>2020-08-13T08:41:36.000Z</time>
      </trkpt>
      <trkpt lat="44.16958" lon="6.70042">
        <ele>2033.1999511719</ele>
        <time>2020-08-13T08:41:37.000Z</time>
      </trkpt>
      <trkpt lat="44.16968" lon="6.70041">
        <ele>2034.1999511719</ele>
        <time>2020-08-13T08:41:43.000Z</time>
      </trkpt>
      <trkpt lat="44.16973" lon="6.70039">
        <ele>2034.5999755859</ele>
        <time>2020-08-13T08:41:46.000Z</time>
      </trkpt>
      <trkpt lat="44.16978" lon="6.70035">
        <ele>2035.1999511719</ele>
        <time>2020-08-13T08:41:49.000Z</time>
      </trkpt>
      <trkpt lat="44.16985" lon="6.70025">
        <ele>2036</ele>
        <time>2020-08-13T08:41:54.000Z</time>
      </trkpt>
      <trkpt lat="44.16986" lon="6.70024">
        <ele>2036.1999511719</ele>
        <time>2020-08-13T08:41:55.000Z</time>
      </trkpt>
      <trkpt lat="44.16999" lon="6.70011">
        <ele>2037.1999511719</ele>
        <time>2020-08-13T08:42:03.000Z</time>
      </trkpt>
      <trkpt lat="44.17" lon="6.7001">
        <ele>2037.4000244141</ele>
        <time>2020-08-13T08:42:04.000Z</time>
      </trkpt>
      <trkpt lat="44.1701" lon="6.70008">
        <ele>2038.4000244141</ele>
        <time>2020-08-13T08:42:09.000Z</time>
      </trkpt>
      <trkpt lat="44.17013" lon="6.70008">
        <ele>2038.8000488281</ele>
        <time>2020-08-13T08:42:11.000Z</time>
      </trkpt>
      <trkpt lat="44.17031" lon="6.70012">
        <ele>2039.4000244141</ele>
        <time>2020-08-13T08:42:20.000Z</time>
      </trkpt>
      <trkpt lat="44.17049" lon="6.70021">
        <ele>2040.4000244141</ele>
        <time>2020-08-13T08:42:29.000Z</time>
      </trkpt>
      <trkpt lat="44.17051" lon="6.70023">
        <ele>2040.4000244141</ele>
        <time>2020-08-13T08:42:30.000Z</time>
      </trkpt>
      <trkpt lat="44.17065" lon="6.70036">
        <ele>2041.1999511719</ele>
        <time>2020-08-13T08:42:37.000Z</time>
      </trkpt>
      <trkpt lat="44.17072" lon="6.70042">
        <ele>2041.5999755859</ele>
        <time>2020-08-13T08:42:41.000Z</time>
      </trkpt>
      <trkpt lat="44.17082" lon="6.70049">
        <ele>2042</ele>
        <time>2020-08-13T08:42:46.000Z</time>
      </trkpt>
      <trkpt lat="44.171" lon="6.70054">
        <ele>2042.4000244141</ele>
        <time>2020-08-13T08:42:54.000Z</time>
      </trkpt>
      <trkpt lat="44.17101" lon="6.70054">
        <ele>2042.5999755859</ele>
        <time>2020-08-13T08:42:55.000Z</time>
      </trkpt>
      <trkpt lat="44.17112" lon="6.7005">
        <ele>2042.5999755859</ele>
        <time>2020-08-13T08:43:01.000Z</time>
      </trkpt>
      <trkpt lat="44.17132" lon="6.70044">
        <ele>2042.5999755859</ele>
        <time>2020-08-13T08:43:08.000Z</time>
      </trkpt>
      <trkpt lat="44.17161" lon="6.70046">
        <ele>2042</ele>
        <time>2020-08-13T08:43:15.000Z</time>
      </trkpt>
      <trkpt lat="44.17182" lon="6.70035">
        <ele>2041.4000244141</ele>
        <time>2020-08-13T08:43:20.000Z</time>
      </trkpt>
      <trkpt lat="44.17212" lon="6.70008">
        <ele>2041.1999511719</ele>
        <time>2020-08-13T08:43:28.000Z</time>
      </trkpt>
      <trkpt lat="44.1724" lon="6.69994">
        <ele>2041</ele>
        <time>2020-08-13T08:43:35.000Z</time>
      </trkpt>
      <trkpt lat="44.1726" lon="6.69994">
        <ele>2041.8000488281</ele>
        <time>2020-08-13T08:43:41.000Z</time>
      </trkpt>
      <trkpt lat="44.17292" lon="6.69992">
        <ele>2042.1999511719</ele>
        <time>2020-08-13T08:43:49.000Z</time>
      </trkpt>
      <trkpt lat="44.17296" lon="6.69991">
        <ele>2042</ele>
        <time>2020-08-13T08:43:50.000Z</time>
      </trkpt>
      <trkpt lat="44.17313" lon="6.69982">
        <ele>2042</ele>
        <time>2020-08-13T08:43:54.000Z</time>
      </trkpt>
      <trkpt lat="44.17317" lon="6.69978">
        <ele>2041.8000488281</ele>
        <time>2020-08-13T08:43:55.000Z</time>
      </trkpt>
      <trkpt lat="44.17328" lon="6.69961">
        <ele>2041.4000244141</ele>
        <time>2020-08-13T08:43:59.000Z</time>
      </trkpt>
      <trkpt lat="44.17331" lon="6.69955">
        <ele>2041.5999755859</ele>
        <time>2020-08-13T08:44:00.000Z</time>
      </trkpt>
      <trkpt lat="44.17345" lon="6.69914">
        <ele>2041.8000488281</ele>
        <time>2020-08-13T08:44:07.000Z</time>
      </trkpt>
      <trkpt lat="44.17348" lon="6.69909">
        <ele>2041.8000488281</ele>
        <time>2020-08-13T08:44:08.000Z</time>
      </trkpt>
      <trkpt lat="44.17362" lon="6.69895">
        <ele>2041.8000488281</ele>
        <time>2020-08-13T08:44:12.000Z</time>
      </trkpt>
      <trkpt lat="44.17366" lon="6.69893">
        <ele>2042</ele>
        <time>2020-08-13T08:44:13.000Z</time>
      </trkpt>
      <trkpt lat="44.17395" lon="6.69879">
        <ele>2042.4000244141</ele>
        <time>2020-08-13T08:44:20.000Z</time>
      </trkpt>
      <trkpt lat="44.17423" lon="6.69855">
        <ele>2041.8000488281</ele>
        <time>2020-08-13T08:44:27.000Z</time>
      </trkpt>
      <trkpt lat="44.17427" lon="6.6985">
        <ele>2041.8000488281</ele>
        <time>2020-08-13T08:44:28.000Z</time>
      </trkpt>
      <trkpt lat="44.17435" lon="6.69831">
        <ele>2041.4000244141</ele>
        <time>2020-08-13T08:44:31.000Z</time>
      </trkpt>
      <trkpt lat="44.17441" lon="6.69809">
        <ele>2040.8000488281</ele>
        <time>2020-08-13T08:44:34.000Z</time>
      </trkpt>
      <trkpt lat="44.17449" lon="6.69801">
        <ele>2040.5999755859</ele>
        <time>2020-08-13T08:44:36.000Z</time>
      </trkpt>
      <trkpt lat="44.17454" lon="6.69801">
        <ele>2040.4000244141</ele>
        <time>2020-08-13T08:44:37.000Z</time>
      </trkpt>
      <trkpt lat="44.17463" lon="6.69804">
        <ele>2040</ele>
        <time>2020-08-13T08:44:39.000Z</time>
      </trkpt>
      <trkpt lat="44.1747" lon="6.69806">
        <ele>2040.1999511719</ele>
        <time>2020-08-13T08:44:41.000Z</time>
      </trkpt>
      <trkpt lat="44.17486" lon="6.69806">
        <ele>2040.8000488281</ele>
        <time>2020-08-13T08:44:45.000Z</time>
      </trkpt>
      <trkpt lat="44.17499" lon="6.69801">
        <ele>2041</ele>
        <time>2020-08-13T08:44:50.000Z</time>
      </trkpt>
      <trkpt lat="44.17508" lon="6.69793">
        <ele>2041.1999511719</ele>
        <time>2020-08-13T08:44:56.000Z</time>
      </trkpt>
      <trkpt lat="44.17508" lon="6.69793">
        <ele>2041.1999511719</ele>
        <time>2020-08-13T08:45:00.000Z</time>
      </trkpt>
      <trkpt lat="44.17508" lon="6.69791">
        <ele>2041.4000244141</ele>
        <time>2020-08-13T08:45:03.000Z</time>
      </trkpt>
      <trkpt lat="44.17509" lon="6.69787">
        <ele>2041.5999755859</ele>
        <time>2020-08-13T08:45:08.000Z</time>
      </trkpt>
      <trkpt lat="44.17509" lon="6.69788">
        <ele>2041.5999755859</ele>
        <time>2020-08-13T08:45:14.000Z</time>
      </trkpt>
      <trkpt lat="44.17509" lon="6.69788">
        <ele>2041.5999755859</ele>
        <time>2020-08-13T08:45:22.000Z</time>
      </trkpt>
      <trkpt lat="44.17509" lon="6.69789">
        <ele>2041.4000244141</ele>
        <time>2020-08-13T08:45:30.000Z</time>
      </trkpt>
      <trkpt lat="44.17506" lon="6.69797">
        <ele>2041.1999511719</ele>
        <time>2020-08-13T08:45:37.000Z</time>
      </trkpt>
      <trkpt lat="44.17502" lon="6.69806">
        <ele>2040.8000488281</ele>
        <time>2020-08-13T08:45:48.000Z</time>
      </trkpt>
      <trkpt lat="44.17502" lon="6.69807">
        <ele>2041</ele>
        <time>2020-08-13T08:45:57.000Z</time>
      </trkpt>
      <trkpt lat="44.17502" lon="6.69807">
        <ele>2040.8000488281</ele>
        <time>2020-08-13T08:46:05.000Z</time>
      </trkpt>
      <trkpt lat="44.17501" lon="6.69808">
        <ele>2040.8000488281</ele>
        <time>2020-08-13T08:46:11.000Z</time>
      </trkpt>
      <trkpt lat="44.17501" lon="6.69808">
        <ele>2040.5999755859</ele>
        <time>2020-08-13T08:46:24.000Z</time>
      </trkpt>
      <trkpt lat="44.17501" lon="6.69809">
        <ele>2040.8000488281</ele>
        <time>2020-08-13T08:46:41.000Z</time>
      </trkpt>
      <trkpt lat="44.17502" lon="6.69808">
        <ele>2040.8000488281</ele>
        <time>2020-08-13T08:47:01.000Z</time>
      </trkpt>
      <trkpt lat="44.17502" lon="6.69808">
        <ele>2040.8000488281</ele>
        <time>2020-08-13T08:47:22.000Z</time>
      </trkpt>
      <trkpt lat="44.17503" lon="6.69808">
        <ele>2040.4000244141</ele>
        <time>2020-08-13T08:47:30.000Z</time>
      </trkpt>
      <trkpt lat="44.17503" lon="6.69808">
        <ele>2040.4000244141</ele>
        <time>2020-08-13T08:47:31.000Z</time>
      </trkpt>
      <trkpt lat="44.17502" lon="6.69809">
        <ele>2040.4000244141</ele>
        <time>2020-08-13T08:47:40.000Z</time>
      </trkpt>
      <trkpt lat="44.17503" lon="6.69808">
        <ele>2040.8000488281</ele>
        <time>2020-08-13T08:47:49.000Z</time>
      </trkpt>
      <trkpt lat="44.17504" lon="6.69808">
        <ele>2040.5999755859</ele>
        <time>2020-08-13T08:47:59.000Z</time>
      </trkpt>
      <trkpt lat="44.17503" lon="6.69807">
        <ele>2040.4000244141</ele>
        <time>2020-08-13T08:48:10.000Z</time>
      </trkpt>
      <trkpt lat="44.17503" lon="6.69807">
        <ele>2040</ele>
        <time>2020-08-13T08:48:20.000Z</time>
      </trkpt>
      <trkpt lat="44.17503" lon="6.69807">
        <ele>2040.5999755859</ele>
        <time>2020-08-13T08:48:33.000Z</time>
      </trkpt>
      <trkpt lat="44.17503" lon="6.69807">
        <ele>2040.5999755859</ele>
        <time>2020-08-13T08:48:41.000Z</time>
      </trkpt>
      <trkpt lat="44.17501" lon="6.69808">
        <ele>2040.8000488281</ele>
        <time>2020-08-13T08:48:48.000Z</time>
      </trkpt>
      <trkpt lat="44.17501" lon="6.69808">
        <ele>2040.8000488281</ele>
        <time>2020-08-13T08:48:56.000Z</time>
      </trkpt>
      <trkpt lat="44.17501" lon="6.69807">
        <ele>2040.5999755859</ele>
        <time>2020-08-13T08:49:10.000Z</time>
      </trkpt>
      <trkpt lat="44.17501" lon="6.69809">
        <ele>2040.8000488281</ele>
        <time>2020-08-13T08:49:19.000Z</time>
      </trkpt>
      <trkpt lat="44.17501" lon="6.69808">
        <ele>2040.4000244141</ele>
        <time>2020-08-13T08:49:24.000Z</time>
      </trkpt>
      <trkpt lat="44.175" lon="6.69806">
        <ele>2040.5999755859</ele>
        <time>2020-08-13T08:49:32.000Z</time>
      </trkpt>
      <trkpt lat="44.175" lon="6.69806">
        <ele>2040.8000488281</ele>
        <time>2020-08-13T08:49:37.000Z</time>
      </trkpt>
      <trkpt lat="44.175" lon="6.69806">
        <ele>2040.5999755859</ele>
        <time>2020-08-13T08:49:46.000Z</time>
      </trkpt>
      <trkpt lat="44.175" lon="6.69806">
        <ele>2040.8000488281</ele>
        <time>2020-08-13T08:49:54.000Z</time>
      </trkpt>
      <trkpt lat="44.175" lon="6.69805">
        <ele>2040.8000488281</ele>
        <time>2020-08-13T08:50:05.000Z</time>
      </trkpt>
      <trkpt lat="44.17501" lon="6.69806">
        <ele>2040.8000488281</ele>
        <time>2020-08-13T08:50:11.000Z</time>
      </trkpt>
      <trkpt lat="44.17501" lon="6.69807">
        <ele>2040.5999755859</ele>
        <time>2020-08-13T08:50:22.000Z</time>
      </trkpt>
      <trkpt lat="44.17502" lon="6.69806">
        <ele>2040.8000488281</ele>
        <time>2020-08-13T08:50:30.000Z</time>
      </trkpt>
      <trkpt lat="44.17503" lon="6.69806">
        <ele>2040.4000244141</ele>
        <time>2020-08-13T08:50:36.000Z</time>
      </trkpt>
      <trkpt lat="44.17501" lon="6.69807">
        <ele>2040.1999511719</ele>
        <time>2020-08-13T08:50:42.000Z</time>
      </trkpt>
      <trkpt lat="44.17501" lon="6.69807">
        <ele>2040.4000244141</ele>
        <time>2020-08-13T08:50:46.000Z</time>
      </trkpt>
      <trkpt lat="44.17502" lon="6.69807">
        <ele>2040.1999511719</ele>
        <time>2020-08-13T08:50:55.000Z</time>
      </trkpt>
      <trkpt lat="44.17502" lon="6.69807">
        <ele>2040</ele>
        <time>2020-08-13T08:51:06.000Z</time>
      </trkpt>
      <trkpt lat="44.17502" lon="6.69807">
        <ele>2040.5999755859</ele>
        <time>2020-08-13T08:51:14.000Z</time>
      </trkpt>
      <trkpt lat="44.17502" lon="6.69808">
        <ele>2040.4000244141</ele>
        <time>2020-08-13T08:51:34.000Z</time>
      </trkpt>
      <trkpt lat="44.17503" lon="6.69807">
        <ele>2040.1999511719</ele>
        <time>2020-08-13T08:51:56.000Z</time>
      </trkpt>
      <trkpt lat="44.17503" lon="6.69807">
        <ele>2040.1999511719</ele>
        <time>2020-08-13T08:52:04.000Z</time>
      </trkpt>
      <trkpt lat="44.17503" lon="6.69807">
        <ele>2040</ele>
        <time>2020-08-13T08:52:12.000Z</time>
      </trkpt>
      <trkpt lat="44.17503" lon="6.69807">
        <ele>2040</ele>
        <time>2020-08-13T08:52:21.000Z</time>
      </trkpt>
      <trkpt lat="44.17503" lon="6.69807">
        <ele>2039.4000244141</ele>
        <time>2020-08-13T08:52:30.000Z</time>
      </trkpt>
      <trkpt lat="44.17503" lon="6.69807">
        <ele>2039.4000244141</ele>
        <time>2020-08-13T08:52:31.000Z</time>
      </trkpt>
      <trkpt lat="44.17503" lon="6.69807">
        <ele>2039.8000488281</ele>
        <time>2020-08-13T08:52:42.000Z</time>
      </trkpt>
      <trkpt lat="44.17502" lon="6.69807">
        <ele>2040.1999511719</ele>
        <time>2020-08-13T08:52:59.000Z</time>
      </trkpt>
      <trkpt lat="44.17503" lon="6.69807">
        <ele>2039.5999755859</ele>
        <time>2020-08-13T08:53:12.000Z</time>
      </trkpt>
      <trkpt lat="44.17502" lon="6.69807">
        <ele>2040.1999511719</ele>
        <time>2020-08-13T08:53:22.000Z</time>
      </trkpt>
      <trkpt lat="44.17503" lon="6.69807">
        <ele>2040.1999511719</ele>
        <time>2020-08-13T08:53:31.000Z</time>
      </trkpt>
      <trkpt lat="44.17503" lon="6.69807">
        <ele>2039.5999755859</ele>
        <time>2020-08-13T08:53:38.000Z</time>
      </trkpt>
      <trkpt lat="44.17503" lon="6.69807">
        <ele>2040.4000244141</ele>
        <time>2020-08-13T08:53:42.000Z</time>
      </trkpt>
      <trkpt lat="44.17502" lon="6.69807">
        <ele>2040.1999511719</ele>
        <time>2020-08-13T08:53:45.000Z</time>
      </trkpt>
      <trkpt lat="44.17502" lon="6.69806">
        <ele>2040</ele>
        <time>2020-08-13T08:53:54.000Z</time>
      </trkpt>
      <trkpt lat="44.17501" lon="6.69805">
        <ele>2040</ele>
        <time>2020-08-13T08:54:01.000Z</time>
      </trkpt>
      <trkpt lat="44.17501" lon="6.69804">
        <ele>2040.1999511719</ele>
        <time>2020-08-13T08:54:08.000Z</time>
      </trkpt>
      <trkpt lat="44.17501" lon="6.69804">
        <ele>2040</ele>
        <time>2020-08-13T08:54:19.000Z</time>
      </trkpt>
      <trkpt lat="44.17502" lon="6.69806">
        <ele>2040.4000244141</ele>
        <time>2020-08-13T08:54:24.000Z</time>
      </trkpt>
      <trkpt lat="44.17499" lon="6.69806">
        <ele>2040.1999511719</ele>
        <time>2020-08-13T08:54:29.000Z</time>
      </trkpt>
      <trkpt lat="44.17498" lon="6.69806">
        <ele>2040.4000244141</ele>
        <time>2020-08-13T08:54:35.000Z</time>
      </trkpt>
      <trkpt lat="44.17496" lon="6.69802">
        <ele>2040.1999511719</ele>
        <time>2020-08-13T08:54:42.000Z</time>
      </trkpt>
      <trkpt lat="44.17497" lon="6.69801">
        <ele>2040.4000244141</ele>
        <time>2020-08-13T08:54:47.000Z</time>
      </trkpt>
      <trkpt lat="44.17498" lon="6.69801">
        <ele>2040.4000244141</ele>
        <time>2020-08-13T08:54:53.000Z</time>
      </trkpt>
      <trkpt lat="44.17498" lon="6.69801">
        <ele>2040.4000244141</ele>
        <time>2020-08-13T08:55:06.000Z</time>
      </trkpt>
      <trkpt lat="44.17499" lon="6.698">
        <ele>2040.4000244141</ele>
        <time>2020-08-13T08:55:16.000Z</time>
      </trkpt>
      <trkpt lat="44.17499" lon="6.698">
        <ele>2040.4000244141</ele>
        <time>2020-08-13T08:55:27.000Z</time>
      </trkpt>
      <trkpt lat="44.17499" lon="6.698">
        <ele>2040.8000488281</ele>
        <time>2020-08-13T08:55:48.000Z</time>
      </trkpt>
      <trkpt lat="44.17501" lon="6.69798">
        <ele>2040.5999755859</ele>
        <time>2020-08-13T08:56:07.000Z</time>
      </trkpt>
      <trkpt lat="44.17509" lon="6.69789">
        <ele>2040.8000488281</ele>
        <time>2020-08-13T08:56:13.000Z</time>
      </trkpt>
      <trkpt lat="44.17521" lon="6.69777">
        <ele>2041</ele>
        <time>2020-08-13T08:56:19.000Z</time>
      </trkpt>
      <trkpt lat="44.17523" lon="6.69756">
        <ele>2041</ele>
        <time>2020-08-13T08:56:24.000Z</time>
      </trkpt>
      <trkpt lat="44.17522" lon="6.69744">
        <ele>2041.5999755859</ele>
        <time>2020-08-13T08:56:27.000Z</time>
      </trkpt>
      <trkpt lat="44.1752" lon="6.69731">
        <ele>2042.1999511719</ele>
        <time>2020-08-13T08:56:30.000Z</time>
      </trkpt>
      <trkpt lat="44.17522" lon="6.69709">
        <ele>2042.8000488281</ele>
        <time>2020-08-13T08:56:34.000Z</time>
      </trkpt>
      <trkpt lat="44.17524" lon="6.69704">
        <ele>2043</ele>
        <time>2020-08-13T08:56:35.000Z</time>
      </trkpt>
      <trkpt lat="44.17532" lon="6.69665">
        <ele>2043.4000244141</ele>
        <time>2020-08-13T08:56:42.000Z</time>
      </trkpt>
      <trkpt lat="44.17534" lon="6.6965">
        <ele>2043.8000488281</ele>
        <time>2020-08-13T08:56:45.000Z</time>
      </trkpt>
      <trkpt lat="44.17532" lon="6.69635">
        <ele>2044.1999511719</ele>
        <time>2020-08-13T08:56:48.000Z</time>
      </trkpt>
      <trkpt lat="44.17527" lon="6.69622">
        <ele>2044.8000488281</ele>
        <time>2020-08-13T08:56:51.000Z</time>
      </trkpt>
      <trkpt lat="44.17523" lon="6.69611">
        <ele>2045</ele>
        <time>2020-08-13T08:56:53.000Z</time>
      </trkpt>
      <trkpt lat="44.17522" lon="6.69605">
        <ele>2045</ele>
        <time>2020-08-13T08:56:54.000Z</time>
      </trkpt>
      <trkpt lat="44.1752" lon="6.69587">
        <ele>2044.8000488281</ele>
        <time>2020-08-13T08:56:57.000Z</time>
      </trkpt>
      <trkpt lat="44.1752" lon="6.69567">
        <ele>2044.4000244141</ele>
        <time>2020-08-13T08:57:00.000Z</time>
      </trkpt>
      <trkpt lat="44.17522" lon="6.69521">
        <ele>2043.8000488281</ele>
        <time>2020-08-13T08:57:06.000Z</time>
      </trkpt>
      <trkpt lat="44.17524" lon="6.69496">
        <ele>2042.5999755859</ele>
        <time>2020-08-13T08:57:09.000Z</time>
      </trkpt>
      <trkpt lat="44.17528" lon="6.69473">
        <ele>2042.8000488281</ele>
        <time>2020-08-13T08:57:12.000Z</time>
      </trkpt>
      <trkpt lat="44.17531" lon="6.69459">
        <ele>2042.8000488281</ele>
        <time>2020-08-13T08:57:14.000Z</time>
      </trkpt>
      <trkpt lat="44.17538" lon="6.69449">
        <ele>2042.5999755859</ele>
        <time>2020-08-13T08:57:16.000Z</time>
      </trkpt>
      <trkpt lat="44.17554" lon="6.69446">
        <ele>2042.5999755859</ele>
        <time>2020-08-13T08:57:19.000Z</time>
      </trkpt>
      <trkpt lat="44.17569" lon="6.69434">
        <ele>2042.1999511719</ele>
        <time>2020-08-13T08:57:22.000Z</time>
      </trkpt>
      <trkpt lat="44.17577" lon="6.69421">
        <ele>2041.5999755859</ele>
        <time>2020-08-13T08:57:24.000Z</time>
      </trkpt>
      <trkpt lat="44.17592" lon="6.69396">
        <ele>2040.8000488281</ele>
        <time>2020-08-13T08:57:28.000Z</time>
      </trkpt>
      <trkpt lat="44.17605" lon="6.69364">
        <ele>2041.8000488281</ele>
        <time>2020-08-13T08:57:33.000Z</time>
      </trkpt>
      <trkpt lat="44.17606" lon="6.69356">
        <ele>2042</ele>
        <time>2020-08-13T08:57:34.000Z</time>
      </trkpt>
      <trkpt lat="44.17615" lon="6.693">
        <ele>2041.1999511719</ele>
        <time>2020-08-13T08:57:41.000Z</time>
      </trkpt>
      <trkpt lat="44.1762" lon="6.69283">
        <ele>2040.5999755859</ele>
        <time>2020-08-13T08:57:43.000Z</time>
      </trkpt>
      <trkpt lat="44.17627" lon="6.69269">
        <ele>2040.4000244141</ele>
        <time>2020-08-13T08:57:45.000Z</time>
      </trkpt>
      <trkpt lat="44.17636" lon="6.69247">
        <ele>2040.8000488281</ele>
        <time>2020-08-13T08:57:49.000Z</time>
      </trkpt>
      <trkpt lat="44.17638" lon="6.69242">
        <ele>2041.1999511719</ele>
        <time>2020-08-13T08:57:50.000Z</time>
      </trkpt>
      <trkpt lat="44.1764" lon="6.69234">
        <ele>2042</ele>
        <time>2020-08-13T08:57:52.000Z</time>
      </trkpt>
      <trkpt lat="44.17639" lon="6.69222">
        <ele>2043</ele>
        <time>2020-08-13T08:57:55.000Z</time>
      </trkpt>
      <trkpt lat="44.17637" lon="6.69208">
        <ele>2044.1999511719</ele>
        <time>2020-08-13T08:57:59.000Z</time>
      </trkpt>
      <trkpt lat="44.17634" lon="6.69198">
        <ele>2045.4000244141</ele>
        <time>2020-08-13T08:58:02.000Z</time>
      </trkpt>
      <trkpt lat="44.17633" lon="6.69195">
        <ele>2045.8000488281</ele>
        <time>2020-08-13T08:58:03.000Z</time>
      </trkpt>
      <trkpt lat="44.17631" lon="6.69188">
        <ele>2046.4000244141</ele>
        <time>2020-08-13T08:58:05.000Z</time>
      </trkpt>
      <trkpt lat="44.17625" lon="6.6917">
        <ele>2047.8000488281</ele>
        <time>2020-08-13T08:58:10.000Z</time>
      </trkpt>
      <trkpt lat="44.17624" lon="6.69162">
        <ele>2048.1999511719</ele>
        <time>2020-08-13T08:58:12.000Z</time>
      </trkpt>
      <trkpt lat="44.17625" lon="6.69149">
        <ele>2048.8000488281</ele>
        <time>2020-08-13T08:58:15.000Z</time>
      </trkpt>
      <trkpt lat="44.17627" lon="6.69143">
        <ele>2049.3999023438</ele>
        <time>2020-08-13T08:58:17.000Z</time>
      </trkpt>
      <trkpt lat="44.17628" lon="6.69132">
        <ele>2050</ele>
        <time>2020-08-13T08:58:20.000Z</time>
      </trkpt>
      <trkpt lat="44.17626" lon="6.69126">
        <ele>2050.3999023438</ele>
        <time>2020-08-13T08:58:22.000Z</time>
      </trkpt>
      <trkpt lat="44.17611" lon="6.69112">
        <ele>2050.6000976562</ele>
        <time>2020-08-13T08:58:26.000Z</time>
      </trkpt>
      <trkpt lat="44.17591" lon="6.69115">
        <ele>2049.1999511719</ele>
        <time>2020-08-13T08:58:29.000Z</time>
      </trkpt>
      <trkpt lat="44.17583" lon="6.69117">
        <ele>2048.6000976562</ele>
        <time>2020-08-13T08:58:30.000Z</time>
      </trkpt>
      <trkpt lat="44.17568" lon="6.69115">
        <ele>2046.5999755859</ele>
        <time>2020-08-13T08:58:32.000Z</time>
      </trkpt>
      <trkpt lat="44.17562" lon="6.6911">
        <ele>2046</ele>
        <time>2020-08-13T08:58:33.000Z</time>
      </trkpt>
      <trkpt lat="44.17557" lon="6.69103">
        <ele>2045.4000244141</ele>
        <time>2020-08-13T08:58:34.000Z</time>
      </trkpt>
      <trkpt lat="44.17553" lon="6.69093">
        <ele>2045</ele>
        <time>2020-08-13T08:58:35.000Z</time>
      </trkpt>
      <trkpt lat="44.17548" lon="6.69084">
        <ele>2044.4000244141</ele>
        <time>2020-08-13T08:58:36.000Z</time>
      </trkpt>
      <trkpt lat="44.17542" lon="6.69077">
        <ele>2044</ele>
        <time>2020-08-13T08:58:37.000Z</time>
      </trkpt>
      <trkpt lat="44.17535" lon="6.69075">
        <ele>2043</ele>
        <time>2020-08-13T08:58:38.000Z</time>
      </trkpt>
      <trkpt lat="44.17522" lon="6.6907">
        <ele>2041.5999755859</ele>
        <time>2020-08-13T08:58:40.000Z</time>
      </trkpt>
      <trkpt lat="44.17515" lon="6.69062">
        <ele>2040.8000488281</ele>
        <time>2020-08-13T08:58:42.000Z</time>
      </trkpt>
      <trkpt lat="44.17503" lon="6.69035">
        <ele>2040.5999755859</ele>
        <time>2020-08-13T08:58:45.000Z</time>
      </trkpt>
      <trkpt lat="44.17501" lon="6.69029">
        <ele>2040.5999755859</ele>
        <time>2020-08-13T08:58:46.000Z</time>
      </trkpt>
      <trkpt lat="44.17499" lon="6.69014">
        <ele>2041</ele>
        <time>2020-08-13T08:58:48.000Z</time>
      </trkpt>
      <trkpt lat="44.175" lon="6.69007">
        <ele>2041.1999511719</ele>
        <time>2020-08-13T08:58:49.000Z</time>
      </trkpt>
      <trkpt lat="44.17507" lon="6.68985">
        <ele>2040.5999755859</ele>
        <time>2020-08-13T08:58:52.000Z</time>
      </trkpt>
      <trkpt lat="44.17511" lon="6.68979">
        <ele>2040.5999755859</ele>
        <time>2020-08-13T08:58:53.000Z</time>
      </trkpt>
      <trkpt lat="44.17521" lon="6.68968">
        <ele>2039.5999755859</ele>
        <time>2020-08-13T08:58:55.000Z</time>
      </trkpt>
      <trkpt lat="44.17533" lon="6.68959">
        <ele>2039.1999511719</ele>
        <time>2020-08-13T08:58:57.000Z</time>
      </trkpt>
      <trkpt lat="44.17539" lon="6.68954">
        <ele>2039</ele>
        <time>2020-08-13T08:58:58.000Z</time>
      </trkpt>
      <trkpt lat="44.17544" lon="6.68949">
        <ele>2038.5999755859</ele>
        <time>2020-08-13T08:58:59.000Z</time>
      </trkpt>
      <trkpt lat="44.17549" lon="6.68942">
        <ele>2038.4000244141</ele>
        <time>2020-08-13T08:59:00.000Z</time>
      </trkpt>
      <trkpt lat="44.17559" lon="6.68928">
        <ele>2037.8000488281</ele>
        <time>2020-08-13T08:59:02.000Z</time>
      </trkpt>
      <trkpt lat="44.17572" lon="6.68917">
        <ele>2037.4000244141</ele>
        <time>2020-08-13T08:59:04.000Z</time>
      </trkpt>
      <trkpt lat="44.17577" lon="6.68912">
        <ele>2037.1999511719</ele>
        <time>2020-08-13T08:59:05.000Z</time>
      </trkpt>
      <trkpt lat="44.17581" lon="6.68905">
        <ele>2037.1999511719</ele>
        <time>2020-08-13T08:59:06.000Z</time>
      </trkpt>
      <trkpt lat="44.17584" lon="6.68875">
        <ele>2035.8000488281</ele>
        <time>2020-08-13T08:59:09.000Z</time>
      </trkpt>
      <trkpt lat="44.17584" lon="6.68865">
        <ele>2035.5999755859</ele>
        <time>2020-08-13T08:59:10.000Z</time>
      </trkpt>
      <trkpt lat="44.17584" lon="6.68856">
        <ele>2035.1999511719</ele>
        <time>2020-08-13T08:59:11.000Z</time>
      </trkpt>
      <trkpt lat="44.17586" lon="6.68844">
        <ele>2034.5999755859</ele>
        <time>2020-08-13T08:59:12.000Z</time>
      </trkpt>
      <trkpt lat="44.1759" lon="6.68836">
        <ele>2034.1999511719</ele>
        <time>2020-08-13T08:59:13.000Z</time>
      </trkpt>
      <trkpt lat="44.17593" lon="6.6882">
        <ele>2033.1999511719</ele>
        <time>2020-08-13T08:59:15.000Z</time>
      </trkpt>
      <trkpt lat="44.17591" lon="6.68812">
        <ele>2032.5999755859</ele>
        <time>2020-08-13T08:59:16.000Z</time>
      </trkpt>
      <trkpt lat="44.17587" lon="6.68804">
        <ele>2032</ele>
        <time>2020-08-13T08:59:17.000Z</time>
      </trkpt>
      <trkpt lat="44.17579" lon="6.68784">
        <ele>2030.5999755859</ele>
        <time>2020-08-13T08:59:19.000Z</time>
      </trkpt>
      <trkpt lat="44.17574" lon="6.68761">
        <ele>2029.5999755859</ele>
        <time>2020-08-13T08:59:21.000Z</time>
      </trkpt>
      <trkpt lat="44.17571" lon="6.68734">
        <ele>2028.4000244141</ele>
        <time>2020-08-13T08:59:23.000Z</time>
      </trkpt>
      <trkpt lat="44.17573" lon="6.68707">
        <ele>2026.8000488281</ele>
        <time>2020-08-13T08:59:25.000Z</time>
      </trkpt>
      <trkpt lat="44.17576" lon="6.68693">
        <ele>2026.1999511719</ele>
        <time>2020-08-13T08:59:26.000Z</time>
      </trkpt>
      <trkpt lat="44.17579" lon="6.6868">
        <ele>2025.4000244141</ele>
        <time>2020-08-13T08:59:27.000Z</time>
      </trkpt>
      <trkpt lat="44.17582" lon="6.68656">
        <ele>2023.8000488281</ele>
        <time>2020-08-13T08:59:29.000Z</time>
      </trkpt>
      <trkpt lat="44.17585" lon="6.68644">
        <ele>2023</ele>
        <time>2020-08-13T08:59:30.000Z</time>
      </trkpt>
      <trkpt lat="44.1759" lon="6.68634">
        <ele>2022.4000244141</ele>
        <time>2020-08-13T08:59:31.000Z</time>
      </trkpt>
      <trkpt lat="44.17603" lon="6.68613">
        <ele>2021.1999511719</ele>
        <time>2020-08-13T08:59:33.000Z</time>
      </trkpt>
      <trkpt lat="44.17615" lon="6.68593">
        <ele>2019.5999755859</ele>
        <time>2020-08-13T08:59:35.000Z</time>
      </trkpt>
      <trkpt lat="44.1762" lon="6.68586">
        <ele>2018.5999755859</ele>
        <time>2020-08-13T08:59:36.000Z</time>
      </trkpt>
      <trkpt lat="44.17627" lon="6.68581">
        <ele>2017.8000488281</ele>
        <time>2020-08-13T08:59:37.000Z</time>
      </trkpt>
      <trkpt lat="44.17634" lon="6.68582">
        <ele>2017</ele>
        <time>2020-08-13T08:59:38.000Z</time>
      </trkpt>
      <trkpt lat="44.17645" lon="6.68596">
        <ele>2015.5999755859</ele>
        <time>2020-08-13T08:59:40.000Z</time>
      </trkpt>
      <trkpt lat="44.17649" lon="6.68603">
        <ele>2015.4000244141</ele>
        <time>2020-08-13T08:59:41.000Z</time>
      </trkpt>
      <trkpt lat="44.17657" lon="6.68611">
        <ele>2015</ele>
        <time>2020-08-13T08:59:42.000Z</time>
      </trkpt>
      <trkpt lat="44.17665" lon="6.68615">
        <ele>2014.4000244141</ele>
        <time>2020-08-13T08:59:43.000Z</time>
      </trkpt>
      <trkpt lat="44.17683" lon="6.6862">
        <ele>2013.1999511719</ele>
        <time>2020-08-13T08:59:45.000Z</time>
      </trkpt>
      <trkpt lat="44.17693" lon="6.68621">
        <ele>2012.4000244141</ele>
        <time>2020-08-13T08:59:46.000Z</time>
      </trkpt>
      <trkpt lat="44.17703" lon="6.68621">
        <ele>2012</ele>
        <time>2020-08-13T08:59:47.000Z</time>
      </trkpt>
      <trkpt lat="44.17719" lon="6.68615">
        <ele>2010</ele>
        <time>2020-08-13T08:59:49.000Z</time>
      </trkpt>
      <trkpt lat="44.17723" lon="6.68608">
        <ele>2008.8000488281</ele>
        <time>2020-08-13T08:59:50.000Z</time>
      </trkpt>
      <trkpt lat="44.17724" lon="6.68599">
        <ele>2007.8000488281</ele>
        <time>2020-08-13T08:59:51.000Z</time>
      </trkpt>
      <trkpt lat="44.17723" lon="6.68579">
        <ele>2006.1999511719</ele>
        <time>2020-08-13T08:59:53.000Z</time>
      </trkpt>
      <trkpt lat="44.17721" lon="6.68571">
        <ele>2005.4000244141</ele>
        <time>2020-08-13T08:59:54.000Z</time>
      </trkpt>
      <trkpt lat="44.17723" lon="6.68564">
        <ele>2005</ele>
        <time>2020-08-13T08:59:55.000Z</time>
      </trkpt>
      <trkpt lat="44.17727" lon="6.68562">
        <ele>2004.8000488281</ele>
        <time>2020-08-13T08:59:56.000Z</time>
      </trkpt>
      <trkpt lat="44.17735" lon="6.68571">
        <ele>2004</ele>
        <time>2020-08-13T08:59:58.000Z</time>
      </trkpt>
      <trkpt lat="44.17737" lon="6.68599">
        <ele>2003.1999511719</ele>
        <time>2020-08-13T09:00:01.000Z</time>
      </trkpt>
      <trkpt lat="44.17737" lon="6.6861">
        <ele>2002.8000488281</ele>
        <time>2020-08-13T09:00:02.000Z</time>
      </trkpt>
      <trkpt lat="44.1774" lon="6.68632">
        <ele>2001.5999755859</ele>
        <time>2020-08-13T09:00:04.000Z</time>
      </trkpt>
      <trkpt lat="44.17743" lon="6.68643">
        <ele>2000.5999755859</ele>
        <time>2020-08-13T09:00:05.000Z</time>
      </trkpt>
      <trkpt lat="44.17746" lon="6.68654">
        <ele>1999.5999755859</ele>
        <time>2020-08-13T09:00:06.000Z</time>
      </trkpt>
      <trkpt lat="44.17749" lon="6.68679">
        <ele>1997.5999755859</ele>
        <time>2020-08-13T09:00:08.000Z</time>
      </trkpt>
      <trkpt lat="44.17747" lon="6.68691">
        <ele>1996.8000488281</ele>
        <time>2020-08-13T09:00:09.000Z</time>
      </trkpt>
      <trkpt lat="44.17744" lon="6.68701">
        <ele>1996.1999511719</ele>
        <time>2020-08-13T09:00:10.000Z</time>
      </trkpt>
      <trkpt lat="44.1774" lon="6.68716">
        <ele>1994.8000488281</ele>
        <time>2020-08-13T09:00:12.000Z</time>
      </trkpt>
      <trkpt lat="44.17747" lon="6.68721">
        <ele>1993.5999755859</ele>
        <time>2020-08-13T09:00:14.000Z</time>
      </trkpt>
      <trkpt lat="44.17756" lon="6.68712">
        <ele>1992.8000488281</ele>
        <time>2020-08-13T09:00:16.000Z</time>
      </trkpt>
      <trkpt lat="44.17761" lon="6.68706">
        <ele>1992.5999755859</ele>
        <time>2020-08-13T09:00:17.000Z</time>
      </trkpt>
      <trkpt lat="44.1777" lon="6.68687">
        <ele>1992</ele>
        <time>2020-08-13T09:00:19.000Z</time>
      </trkpt>
      <trkpt lat="44.17775" lon="6.68664">
        <ele>1991.4000244141</ele>
        <time>2020-08-13T09:00:21.000Z</time>
      </trkpt>
      <trkpt lat="44.17777" lon="6.6865">
        <ele>1990.8000488281</ele>
        <time>2020-08-13T09:00:22.000Z</time>
      </trkpt>
      <trkpt lat="44.17779" lon="6.68638">
        <ele>1990.1999511719</ele>
        <time>2020-08-13T09:00:23.000Z</time>
      </trkpt>
      <trkpt lat="44.17779" lon="6.68612">
        <ele>1988.1999511719</ele>
        <time>2020-08-13T09:00:25.000Z</time>
      </trkpt>
      <trkpt lat="44.17775" lon="6.686">
        <ele>1987.1999511719</ele>
        <time>2020-08-13T09:00:26.000Z</time>
      </trkpt>
      <trkpt lat="44.17771" lon="6.68587">
        <ele>1986.1999511719</ele>
        <time>2020-08-13T09:00:27.000Z</time>
      </trkpt>
      <trkpt lat="44.17763" lon="6.68562">
        <ele>1984.4000244141</ele>
        <time>2020-08-13T09:00:29.000Z</time>
      </trkpt>
      <trkpt lat="44.1776" lon="6.68547">
        <ele>1983.4000244141</ele>
        <time>2020-08-13T09:00:30.000Z</time>
      </trkpt>
      <trkpt lat="44.1776" lon="6.68533">
        <ele>1982.8000488281</ele>
        <time>2020-08-13T09:00:31.000Z</time>
      </trkpt>
      <trkpt lat="44.17766" lon="6.68502">
        <ele>1981.4000244141</ele>
        <time>2020-08-13T09:00:33.000Z</time>
      </trkpt>
      <trkpt lat="44.17776" lon="6.68482">
        <ele>1979.8000488281</ele>
        <time>2020-08-13T09:00:35.000Z</time>
      </trkpt>
      <trkpt lat="44.17782" lon="6.68475">
        <ele>1979.4000244141</ele>
        <time>2020-08-13T09:00:36.000Z</time>
      </trkpt>
      <trkpt lat="44.1779" lon="6.68471">
        <ele>1978.8000488281</ele>
        <time>2020-08-13T09:00:37.000Z</time>
      </trkpt>
      <trkpt lat="44.17798" lon="6.68467">
        <ele>1978.4000244141</ele>
        <time>2020-08-13T09:00:38.000Z</time>
      </trkpt>
      <trkpt lat="44.17805" lon="6.6846">
        <ele>1978</ele>
        <time>2020-08-13T09:00:39.000Z</time>
      </trkpt>
      <trkpt lat="44.17811" lon="6.68451">
        <ele>1977.1999511719</ele>
        <time>2020-08-13T09:00:40.000Z</time>
      </trkpt>
      <trkpt lat="44.17819" lon="6.68429">
        <ele>1975.8000488281</ele>
        <time>2020-08-13T09:00:42.000Z</time>
      </trkpt>
      <trkpt lat="44.17822" lon="6.68403">
        <ele>1973.8000488281</ele>
        <time>2020-08-13T09:00:44.000Z</time>
      </trkpt>
      <trkpt lat="44.17824" lon="6.6839">
        <ele>1973</ele>
        <time>2020-08-13T09:00:45.000Z</time>
      </trkpt>
      <trkpt lat="44.17825" lon="6.68377">
        <ele>1972.1999511719</ele>
        <time>2020-08-13T09:00:46.000Z</time>
      </trkpt>
      <trkpt lat="44.17828" lon="6.68351">
        <ele>1971.1999511719</ele>
        <time>2020-08-13T09:00:48.000Z</time>
      </trkpt>
      <trkpt lat="44.17832" lon="6.68328">
        <ele>1970.1999511719</ele>
        <time>2020-08-13T09:00:50.000Z</time>
      </trkpt>
      <trkpt lat="44.17837" lon="6.6832">
        <ele>1969.8000488281</ele>
        <time>2020-08-13T09:00:51.000Z</time>
      </trkpt>
      <trkpt lat="44.1785" lon="6.68308">
        <ele>1968.8000488281</ele>
        <time>2020-08-13T09:00:53.000Z</time>
      </trkpt>
      <trkpt lat="44.17856" lon="6.68299">
        <ele>1968.4000244141</ele>
        <time>2020-08-13T09:00:54.000Z</time>
      </trkpt>
      <trkpt lat="44.17863" lon="6.68279">
        <ele>1966.8000488281</ele>
        <time>2020-08-13T09:00:56.000Z</time>
      </trkpt>
      <trkpt lat="44.17863" lon="6.68253">
        <ele>1965.1999511719</ele>
        <time>2020-08-13T09:00:58.000Z</time>
      </trkpt>
      <trkpt lat="44.17864" lon="6.68242">
        <ele>1964.1999511719</ele>
        <time>2020-08-13T09:00:59.000Z</time>
      </trkpt>
      <trkpt lat="44.17869" lon="6.68217">
        <ele>1962.5999755859</ele>
        <time>2020-08-13T09:01:01.000Z</time>
      </trkpt>
      <trkpt lat="44.17871" lon="6.68201">
        <ele>1961.8000488281</ele>
        <time>2020-08-13T09:01:02.000Z</time>
      </trkpt>
      <trkpt lat="44.17872" lon="6.68188">
        <ele>1961</ele>
        <time>2020-08-13T09:01:03.000Z</time>
      </trkpt>
      <trkpt lat="44.17878" lon="6.68162">
        <ele>1959.1999511719</ele>
        <time>2020-08-13T09:01:05.000Z</time>
      </trkpt>
      <trkpt lat="44.17883" lon="6.6815">
        <ele>1958.1999511719</ele>
        <time>2020-08-13T09:01:06.000Z</time>
      </trkpt>
      <trkpt lat="44.17885" lon="6.68139">
        <ele>1957.1999511719</ele>
        <time>2020-08-13T09:01:07.000Z</time>
      </trkpt>
      <trkpt lat="44.17885" lon="6.68126">
        <ele>1956</ele>
        <time>2020-08-13T09:01:08.000Z</time>
      </trkpt>
      <trkpt lat="44.17882" lon="6.68115">
        <ele>1955</ele>
        <time>2020-08-13T09:01:09.000Z</time>
      </trkpt>
      <trkpt lat="44.17877" lon="6.68098">
        <ele>1953.4000244141</ele>
        <time>2020-08-13T09:01:11.000Z</time>
      </trkpt>
      <trkpt lat="44.17878" lon="6.68085">
        <ele>1952.5999755859</ele>
        <time>2020-08-13T09:01:12.000Z</time>
      </trkpt>
      <trkpt lat="44.17878" lon="6.68075">
        <ele>1952.4000244141</ele>
        <time>2020-08-13T09:01:13.000Z</time>
      </trkpt>
      <trkpt lat="44.17883" lon="6.68062">
        <ele>1951.5999755859</ele>
        <time>2020-08-13T09:01:14.000Z</time>
      </trkpt>
      <trkpt lat="44.1789" lon="6.68037">
        <ele>1950.1999511719</ele>
        <time>2020-08-13T09:01:16.000Z</time>
      </trkpt>
      <trkpt lat="44.17899" lon="6.6801">
        <ele>1948.1999511719</ele>
        <time>2020-08-13T09:01:18.000Z</time>
      </trkpt>
      <trkpt lat="44.17904" lon="6.67999">
        <ele>1947.1999511719</ele>
        <time>2020-08-13T09:01:19.000Z</time>
      </trkpt>
      <trkpt lat="44.17911" lon="6.67989">
        <ele>1946</ele>
        <time>2020-08-13T09:01:20.000Z</time>
      </trkpt>
      <trkpt lat="44.17929" lon="6.67979">
        <ele>1944</ele>
        <time>2020-08-13T09:01:22.000Z</time>
      </trkpt>
      <trkpt lat="44.17951" lon="6.67975">
        <ele>1942.4000244141</ele>
        <time>2020-08-13T09:01:24.000Z</time>
      </trkpt>
      <trkpt lat="44.1796" lon="6.67975">
        <ele>1942</ele>
        <time>2020-08-13T09:01:25.000Z</time>
      </trkpt>
      <trkpt lat="44.17973" lon="6.67977">
        <ele>1941.1999511719</ele>
        <time>2020-08-13T09:01:26.000Z</time>
      </trkpt>
      <trkpt lat="44.17984" lon="6.67978">
        <ele>1940.1999511719</ele>
        <time>2020-08-13T09:01:27.000Z</time>
      </trkpt>
      <trkpt lat="44.17993" lon="6.6798">
        <ele>1939</ele>
        <time>2020-08-13T09:01:28.000Z</time>
      </trkpt>
      <trkpt lat="44.18003" lon="6.67979">
        <ele>1938.1999511719</ele>
        <time>2020-08-13T09:01:29.000Z</time>
      </trkpt>
      <trkpt lat="44.18012" lon="6.67977">
        <ele>1937</ele>
        <time>2020-08-13T09:01:30.000Z</time>
      </trkpt>
      <trkpt lat="44.18021" lon="6.67974">
        <ele>1935.8000488281</ele>
        <time>2020-08-13T09:01:31.000Z</time>
      </trkpt>
      <trkpt lat="44.1803" lon="6.67969">
        <ele>1935</ele>
        <time>2020-08-13T09:01:32.000Z</time>
      </trkpt>
      <trkpt lat="44.18037" lon="6.67962">
        <ele>1934.4000244141</ele>
        <time>2020-08-13T09:01:33.000Z</time>
      </trkpt>
      <trkpt lat="44.18051" lon="6.67943">
        <ele>1933</ele>
        <time>2020-08-13T09:01:35.000Z</time>
      </trkpt>
      <trkpt lat="44.18056" lon="6.67932">
        <ele>1932</ele>
        <time>2020-08-13T09:01:36.000Z</time>
      </trkpt>
      <trkpt lat="44.18066" lon="6.67909">
        <ele>1930.4000244141</ele>
        <time>2020-08-13T09:01:38.000Z</time>
      </trkpt>
      <trkpt lat="44.18072" lon="6.67889">
        <ele>1929.1999511719</ele>
        <time>2020-08-13T09:01:40.000Z</time>
      </trkpt>
      <trkpt lat="44.18073" lon="6.67878">
        <ele>1928.5999755859</ele>
        <time>2020-08-13T09:01:41.000Z</time>
      </trkpt>
      <trkpt lat="44.18073" lon="6.67865">
        <ele>1927.8000488281</ele>
        <time>2020-08-13T09:01:42.000Z</time>
      </trkpt>
      <trkpt lat="44.18068" lon="6.67841">
        <ele>1926</ele>
        <time>2020-08-13T09:01:44.000Z</time>
      </trkpt>
      <trkpt lat="44.18061" lon="6.67821">
        <ele>1924.4000244141</ele>
        <time>2020-08-13T09:01:46.000Z</time>
      </trkpt>
      <trkpt lat="44.18058" lon="6.67807">
        <ele>1924</ele>
        <time>2020-08-13T09:01:47.000Z</time>
      </trkpt>
      <trkpt lat="44.18058" lon="6.67793">
        <ele>1923</ele>
        <time>2020-08-13T09:01:48.000Z</time>
      </trkpt>
      <trkpt lat="44.18061" lon="6.67779">
        <ele>1922.5999755859</ele>
        <time>2020-08-13T09:01:49.000Z</time>
      </trkpt>
      <trkpt lat="44.18068" lon="6.67753">
        <ele>1921.4000244141</ele>
        <time>2020-08-13T09:01:51.000Z</time>
      </trkpt>
      <trkpt lat="44.18079" lon="6.67725">
        <ele>1919.5999755859</ele>
        <time>2020-08-13T09:01:53.000Z</time>
      </trkpt>
      <trkpt lat="44.18085" lon="6.67712">
        <ele>1918.4000244141</ele>
        <time>2020-08-13T09:01:54.000Z</time>
      </trkpt>
      <trkpt lat="44.18091" lon="6.67699">
        <ele>1917.1999511719</ele>
        <time>2020-08-13T09:01:55.000Z</time>
      </trkpt>
      <trkpt lat="44.18095" lon="6.67688">
        <ele>1916</ele>
        <time>2020-08-13T09:01:56.000Z</time>
      </trkpt>
      <trkpt lat="44.18099" lon="6.67675">
        <ele>1914.8000488281</ele>
        <time>2020-08-13T09:01:57.000Z</time>
      </trkpt>
      <trkpt lat="44.18101" lon="6.67663">
        <ele>1914</ele>
        <time>2020-08-13T09:01:58.000Z</time>
      </trkpt>
      <trkpt lat="44.18102" lon="6.6765">
        <ele>1913.5999755859</ele>
        <time>2020-08-13T09:01:59.000Z</time>
      </trkpt>
      <trkpt lat="44.18102" lon="6.67637">
        <ele>1912.8000488281</ele>
        <time>2020-08-13T09:02:00.000Z</time>
      </trkpt>
      <trkpt lat="44.18101" lon="6.67624">
        <ele>1912.4000244141</ele>
        <time>2020-08-13T09:02:01.000Z</time>
      </trkpt>
      <trkpt lat="44.18101" lon="6.67593">
        <ele>1911.1999511719</ele>
        <time>2020-08-13T09:02:03.000Z</time>
      </trkpt>
      <trkpt lat="44.18103" lon="6.67562">
        <ele>1909</ele>
        <time>2020-08-13T09:02:05.000Z</time>
      </trkpt>
      <trkpt lat="44.18105" lon="6.67548">
        <ele>1908</ele>
        <time>2020-08-13T09:02:06.000Z</time>
      </trkpt>
      <trkpt lat="44.18109" lon="6.67532">
        <ele>1906.8000488281</ele>
        <time>2020-08-13T09:02:07.000Z</time>
      </trkpt>
      <trkpt lat="44.18113" lon="6.67518">
        <ele>1905.8000488281</ele>
        <time>2020-08-13T09:02:08.000Z</time>
      </trkpt>
      <trkpt lat="44.1812" lon="6.67489">
        <ele>1903.8000488281</ele>
        <time>2020-08-13T09:02:10.000Z</time>
      </trkpt>
      <trkpt lat="44.18125" lon="6.67457">
        <ele>1902</ele>
        <time>2020-08-13T09:02:12.000Z</time>
      </trkpt>
      <trkpt lat="44.18129" lon="6.67443">
        <ele>1900.8000488281</ele>
        <time>2020-08-13T09:02:13.000Z</time>
      </trkpt>
      <trkpt lat="44.18134" lon="6.67428">
        <ele>1899.5999755859</ele>
        <time>2020-08-13T09:02:14.000Z</time>
      </trkpt>
      <trkpt lat="44.18144" lon="6.674">
        <ele>1898.4000244141</ele>
        <time>2020-08-13T09:02:16.000Z</time>
      </trkpt>
      <trkpt lat="44.1815" lon="6.67384">
        <ele>1897.1999511719</ele>
        <time>2020-08-13T09:02:17.000Z</time>
      </trkpt>
      <trkpt lat="44.18156" lon="6.67372">
        <ele>1896.1999511719</ele>
        <time>2020-08-13T09:02:18.000Z</time>
      </trkpt>
      <trkpt lat="44.18166" lon="6.67345">
        <ele>1894.8000488281</ele>
        <time>2020-08-13T09:02:20.000Z</time>
      </trkpt>
      <trkpt lat="44.1817" lon="6.67335">
        <ele>1894.4000244141</ele>
        <time>2020-08-13T09:02:21.000Z</time>
      </trkpt>
      <trkpt lat="44.18174" lon="6.67325">
        <ele>1893.8000488281</ele>
        <time>2020-08-13T09:02:22.000Z</time>
      </trkpt>
      <trkpt lat="44.18178" lon="6.67311">
        <ele>1893.8000488281</ele>
        <time>2020-08-13T09:02:23.000Z</time>
      </trkpt>
      <trkpt lat="44.18182" lon="6.67289">
        <ele>1894</ele>
        <time>2020-08-13T09:02:25.000Z</time>
      </trkpt>
      <trkpt lat="44.18188" lon="6.6727">
        <ele>1894.4000244141</ele>
        <time>2020-08-13T09:02:27.000Z</time>
      </trkpt>
      <trkpt lat="44.18194" lon="6.67265">
        <ele>1894.4000244141</ele>
        <time>2020-08-13T09:02:28.000Z</time>
      </trkpt>
      <trkpt lat="44.18207" lon="6.67263">
        <ele>1894.5999755859</ele>
        <time>2020-08-13T09:02:30.000Z</time>
      </trkpt>
      <trkpt lat="44.18222" lon="6.67268">
        <ele>1893.5999755859</ele>
        <time>2020-08-13T09:02:33.000Z</time>
      </trkpt>
      <trkpt lat="44.18227" lon="6.67269">
        <ele>1893.1999511719</ele>
        <time>2020-08-13T09:02:34.000Z</time>
      </trkpt>
      <trkpt lat="44.18234" lon="6.67268">
        <ele>1892.8000488281</ele>
        <time>2020-08-13T09:02:35.000Z</time>
      </trkpt>
      <trkpt lat="44.18248" lon="6.67263">
        <ele>1892</ele>
        <time>2020-08-13T09:02:37.000Z</time>
      </trkpt>
      <trkpt lat="44.18255" lon="6.67259">
        <ele>1891.5999755859</ele>
        <time>2020-08-13T09:02:38.000Z</time>
      </trkpt>
      <trkpt lat="44.18262" lon="6.67254">
        <ele>1891.4000244141</ele>
        <time>2020-08-13T09:02:39.000Z</time>
      </trkpt>
      <trkpt lat="44.18279" lon="6.67246">
        <ele>1890.1999511719</ele>
        <time>2020-08-13T09:02:41.000Z</time>
      </trkpt>
      <trkpt lat="44.18298" lon="6.67239">
        <ele>1888.5999755859</ele>
        <time>2020-08-13T09:02:43.000Z</time>
      </trkpt>
      <trkpt lat="44.18318" lon="6.67231">
        <ele>1887</ele>
        <time>2020-08-13T09:02:45.000Z</time>
      </trkpt>
      <trkpt lat="44.18327" lon="6.67226">
        <ele>1886.4000244141</ele>
        <time>2020-08-13T09:02:46.000Z</time>
      </trkpt>
      <trkpt lat="44.18338" lon="6.67219">
        <ele>1885.5999755859</ele>
        <time>2020-08-13T09:02:47.000Z</time>
      </trkpt>
      <trkpt lat="44.18354" lon="6.672">
        <ele>1883.8000488281</ele>
        <time>2020-08-13T09:02:49.000Z</time>
      </trkpt>
      <trkpt lat="44.18362" lon="6.67188">
        <ele>1882.8000488281</ele>
        <time>2020-08-13T09:02:50.000Z</time>
      </trkpt>
      <trkpt lat="44.18379" lon="6.6717">
        <ele>1881</ele>
        <time>2020-08-13T09:02:52.000Z</time>
      </trkpt>
      <trkpt lat="44.18389" lon="6.67164">
        <ele>1880.5999755859</ele>
        <time>2020-08-13T09:02:53.000Z</time>
      </trkpt>
      <trkpt lat="44.1842" lon="6.67152">
        <ele>1879.8000488281</ele>
        <time>2020-08-13T09:02:56.000Z</time>
      </trkpt>
      <trkpt lat="44.18431" lon="6.67147">
        <ele>1879.1999511719</ele>
        <time>2020-08-13T09:02:57.000Z</time>
      </trkpt>
      <trkpt lat="44.1844" lon="6.67141">
        <ele>1878.5999755859</ele>
        <time>2020-08-13T09:02:58.000Z</time>
      </trkpt>
      <trkpt lat="44.1846" lon="6.67123">
        <ele>1877</ele>
        <time>2020-08-13T09:03:00.000Z</time>
      </trkpt>
      <trkpt lat="44.18476" lon="6.67102">
        <ele>1875.1999511719</ele>
        <time>2020-08-13T09:03:02.000Z</time>
      </trkpt>
      <trkpt lat="44.18485" lon="6.67094">
        <ele>1874</ele>
        <time>2020-08-13T09:03:03.000Z</time>
      </trkpt>
      <trkpt lat="44.18493" lon="6.67088">
        <ele>1873</ele>
        <time>2020-08-13T09:03:04.000Z</time>
      </trkpt>
      <trkpt lat="44.18501" lon="6.6708">
        <ele>1872.1999511719</ele>
        <time>2020-08-13T09:03:05.000Z</time>
      </trkpt>
      <trkpt lat="44.18508" lon="6.67071">
        <ele>1871.1999511719</ele>
        <time>2020-08-13T09:03:06.000Z</time>
      </trkpt>
      <trkpt lat="44.1852" lon="6.6705">
        <ele>1869.8000488281</ele>
        <time>2020-08-13T09:03:08.000Z</time>
      </trkpt>
      <trkpt lat="44.18525" lon="6.67039">
        <ele>1868.5999755859</ele>
        <time>2020-08-13T09:03:09.000Z</time>
      </trkpt>
      <trkpt lat="44.18528" lon="6.67028">
        <ele>1867.4000244141</ele>
        <time>2020-08-13T09:03:10.000Z</time>
      </trkpt>
      <trkpt lat="44.18534" lon="6.67003">
        <ele>1866</ele>
        <time>2020-08-13T09:03:12.000Z</time>
      </trkpt>
      <trkpt lat="44.18536" lon="6.66976">
        <ele>1864.8000488281</ele>
        <time>2020-08-13T09:03:14.000Z</time>
      </trkpt>
      <trkpt lat="44.18535" lon="6.6695">
        <ele>1863</ele>
        <time>2020-08-13T09:03:16.000Z</time>
      </trkpt>
      <trkpt lat="44.18532" lon="6.66934">
        <ele>1861.1999511719</ele>
        <time>2020-08-13T09:03:17.000Z</time>
      </trkpt>
      <trkpt lat="44.1853" lon="6.66919">
        <ele>1860.1999511719</ele>
        <time>2020-08-13T09:03:18.000Z</time>
      </trkpt>
      <trkpt lat="44.18523" lon="6.66891">
        <ele>1858.8000488281</ele>
        <time>2020-08-13T09:03:20.000Z</time>
      </trkpt>
      <trkpt lat="44.18516" lon="6.66865">
        <ele>1857.1999511719</ele>
        <time>2020-08-13T09:03:22.000Z</time>
      </trkpt>
      <trkpt lat="44.18511" lon="6.6684">
        <ele>1855.5999755859</ele>
        <time>2020-08-13T09:03:24.000Z</time>
      </trkpt>
      <trkpt lat="44.18509" lon="6.66815">
        <ele>1854</ele>
        <time>2020-08-13T09:03:26.000Z</time>
      </trkpt>
      <trkpt lat="44.18503" lon="6.6679">
        <ele>1852.4000244141</ele>
        <time>2020-08-13T09:03:28.000Z</time>
      </trkpt>
      <trkpt lat="44.18494" lon="6.66768">
        <ele>1850.8000488281</ele>
        <time>2020-08-13T09:03:30.000Z</time>
      </trkpt>
      <trkpt lat="44.18485" lon="6.66748">
        <ele>1849.8000488281</ele>
        <time>2020-08-13T09:03:32.000Z</time>
      </trkpt>
      <trkpt lat="44.18481" lon="6.66736">
        <ele>1849.5999755859</ele>
        <time>2020-08-13T09:03:33.000Z</time>
      </trkpt>
      <trkpt lat="44.18474" lon="6.66708">
        <ele>1848.1999511719</ele>
        <time>2020-08-13T09:03:35.000Z</time>
      </trkpt>
      <trkpt lat="44.18468" lon="6.66682">
        <ele>1846.1999511719</ele>
        <time>2020-08-13T09:03:37.000Z</time>
      </trkpt>
      <trkpt lat="44.18466" lon="6.66669">
        <ele>1845</ele>
        <time>2020-08-13T09:03:38.000Z</time>
      </trkpt>
      <trkpt lat="44.18467" lon="6.66655">
        <ele>1844</ele>
        <time>2020-08-13T09:03:39.000Z</time>
      </trkpt>
      <trkpt lat="44.18472" lon="6.66629">
        <ele>1842.1999511719</ele>
        <time>2020-08-13T09:03:41.000Z</time>
      </trkpt>
      <trkpt lat="44.18475" lon="6.66615">
        <ele>1841.5999755859</ele>
        <time>2020-08-13T09:03:42.000Z</time>
      </trkpt>
      <trkpt lat="44.1848" lon="6.66604">
        <ele>1841</ele>
        <time>2020-08-13T09:03:43.000Z</time>
      </trkpt>
      <trkpt lat="44.18489" lon="6.66584">
        <ele>1839.1999511719</ele>
        <time>2020-08-13T09:03:45.000Z</time>
      </trkpt>
      <trkpt lat="44.18493" lon="6.6656">
        <ele>1837.8000488281</ele>
        <time>2020-08-13T09:03:47.000Z</time>
      </trkpt>
      <trkpt lat="44.18494" lon="6.66546">
        <ele>1837</ele>
        <time>2020-08-13T09:03:48.000Z</time>
      </trkpt>
      <trkpt lat="44.18495" lon="6.66532">
        <ele>1836.4000244141</ele>
        <time>2020-08-13T09:03:49.000Z</time>
      </trkpt>
      <trkpt lat="44.18497" lon="6.66487">
        <ele>1834.8000488281</ele>
        <time>2020-08-13T09:03:52.000Z</time>
      </trkpt>
      <trkpt lat="44.18497" lon="6.66473">
        <ele>1833.4000244141</ele>
        <time>2020-08-13T09:03:53.000Z</time>
      </trkpt>
      <trkpt lat="44.18497" lon="6.66461">
        <ele>1832.1999511719</ele>
        <time>2020-08-13T09:03:54.000Z</time>
      </trkpt>
      <trkpt lat="44.18498" lon="6.66449">
        <ele>1831.1999511719</ele>
        <time>2020-08-13T09:03:55.000Z</time>
      </trkpt>
      <trkpt lat="44.18501" lon="6.66438">
        <ele>1830.1999511719</ele>
        <time>2020-08-13T09:03:56.000Z</time>
      </trkpt>
      <trkpt lat="44.18507" lon="6.66429">
        <ele>1829.5999755859</ele>
        <time>2020-08-13T09:03:57.000Z</time>
      </trkpt>
      <trkpt lat="44.18519" lon="6.66411">
        <ele>1828.5999755859</ele>
        <time>2020-08-13T09:03:59.000Z</time>
      </trkpt>
      <trkpt lat="44.18525" lon="6.66397">
        <ele>1827.1999511719</ele>
        <time>2020-08-13T09:04:01.000Z</time>
      </trkpt>
      <trkpt lat="44.18521" lon="6.6638">
        <ele>1826</ele>
        <time>2020-08-13T09:04:03.000Z</time>
      </trkpt>
      <trkpt lat="44.18508" lon="6.66354">
        <ele>1825</ele>
        <time>2020-08-13T09:04:06.000Z</time>
      </trkpt>
      <trkpt lat="44.18503" lon="6.66342">
        <ele>1824.8000488281</ele>
        <time>2020-08-13T09:04:07.000Z</time>
      </trkpt>
      <trkpt lat="44.18495" lon="6.66317">
        <ele>1823.1999511719</ele>
        <time>2020-08-13T09:04:09.000Z</time>
      </trkpt>
      <trkpt lat="44.18492" lon="6.66303">
        <ele>1822</ele>
        <time>2020-08-13T09:04:10.000Z</time>
      </trkpt>
      <trkpt lat="44.18489" lon="6.66288">
        <ele>1820.5999755859</ele>
        <time>2020-08-13T09:04:11.000Z</time>
      </trkpt>
      <trkpt lat="44.18487" lon="6.66272">
        <ele>1819.4000244141</ele>
        <time>2020-08-13T09:04:12.000Z</time>
      </trkpt>
      <trkpt lat="44.18485" lon="6.66256">
        <ele>1818.1999511719</ele>
        <time>2020-08-13T09:04:13.000Z</time>
      </trkpt>
      <trkpt lat="44.18484" lon="6.66241">
        <ele>1817.1999511719</ele>
        <time>2020-08-13T09:04:14.000Z</time>
      </trkpt>
      <trkpt lat="44.18484" lon="6.66227">
        <ele>1816</ele>
        <time>2020-08-13T09:04:15.000Z</time>
      </trkpt>
      <trkpt lat="44.18485" lon="6.66213">
        <ele>1815.1999511719</ele>
        <time>2020-08-13T09:04:16.000Z</time>
      </trkpt>
      <trkpt lat="44.18487" lon="6.66195">
        <ele>1813.8000488281</ele>
        <time>2020-08-13T09:04:17.000Z</time>
      </trkpt>
      <trkpt lat="44.18488" lon="6.6618">
        <ele>1812.8000488281</ele>
        <time>2020-08-13T09:04:18.000Z</time>
      </trkpt>
      <trkpt lat="44.18491" lon="6.66165">
        <ele>1812.1999511719</ele>
        <time>2020-08-13T09:04:19.000Z</time>
      </trkpt>
      <trkpt lat="44.18493" lon="6.6615">
        <ele>1811.1999511719</ele>
        <time>2020-08-13T09:04:20.000Z</time>
      </trkpt>
      <trkpt lat="44.18494" lon="6.66121">
        <ele>1809.4000244141</ele>
        <time>2020-08-13T09:04:22.000Z</time>
      </trkpt>
      <trkpt lat="44.18493" lon="6.66106">
        <ele>1808.8000488281</ele>
        <time>2020-08-13T09:04:23.000Z</time>
      </trkpt>
      <trkpt lat="44.1849" lon="6.66092">
        <ele>1808</ele>
        <time>2020-08-13T09:04:24.000Z</time>
      </trkpt>
      <trkpt lat="44.18489" lon="6.66064">
        <ele>1806.5999755859</ele>
        <time>2020-08-13T09:04:26.000Z</time>
      </trkpt>
      <trkpt lat="44.18489" lon="6.66048">
        <ele>1806.4000244141</ele>
        <time>2020-08-13T09:04:27.000Z</time>
      </trkpt>
      <trkpt lat="44.18488" lon="6.66033">
        <ele>1805.1999511719</ele>
        <time>2020-08-13T09:04:28.000Z</time>
      </trkpt>
      <trkpt lat="44.18487" lon="6.66018">
        <ele>1804</ele>
        <time>2020-08-13T09:04:29.000Z</time>
      </trkpt>
      <trkpt lat="44.18486" lon="6.66004">
        <ele>1802.8000488281</ele>
        <time>2020-08-13T09:04:30.000Z</time>
      </trkpt>
      <trkpt lat="44.18485" lon="6.65992">
        <ele>1801.8000488281</ele>
        <time>2020-08-13T09:04:31.000Z</time>
      </trkpt>
      <trkpt lat="44.18483" lon="6.65981">
        <ele>1800.5999755859</ele>
        <time>2020-08-13T09:04:32.000Z</time>
      </trkpt>
      <trkpt lat="44.1848" lon="6.65973">
        <ele>1799.5999755859</ele>
        <time>2020-08-13T09:04:33.000Z</time>
      </trkpt>
      <trkpt lat="44.18479" lon="6.65962">
        <ele>1798.1999511719</ele>
        <time>2020-08-13T09:04:35.000Z</time>
      </trkpt>
      <trkpt lat="44.18487" lon="6.65962">
        <ele>1797.5999755859</ele>
        <time>2020-08-13T09:04:37.000Z</time>
      </trkpt>
      <trkpt lat="44.1849" lon="6.65969">
        <ele>1797.1999511719</ele>
        <time>2020-08-13T09:04:38.000Z</time>
      </trkpt>
      <trkpt lat="44.18492" lon="6.65976">
        <ele>1796.8000488281</ele>
        <time>2020-08-13T09:04:39.000Z</time>
      </trkpt>
      <trkpt lat="44.18495" lon="6.65984">
        <ele>1796.4000244141</ele>
        <time>2020-08-13T09:04:40.000Z</time>
      </trkpt>
      <trkpt lat="44.18498" lon="6.65993">
        <ele>1796.1999511719</ele>
        <time>2020-08-13T09:04:41.000Z</time>
      </trkpt>
      <trkpt lat="44.18508" lon="6.66024">
        <ele>1794.8000488281</ele>
        <time>2020-08-13T09:04:44.000Z</time>
      </trkpt>
      <trkpt lat="44.18516" lon="6.66046">
        <ele>1793.1999511719</ele>
        <time>2020-08-13T09:04:46.000Z</time>
      </trkpt>
      <trkpt lat="44.18526" lon="6.66072">
        <ele>1791.5999755859</ele>
        <time>2020-08-13T09:04:48.000Z</time>
      </trkpt>
      <trkpt lat="44.18532" lon="6.66086">
        <ele>1790.5999755859</ele>
        <time>2020-08-13T09:04:49.000Z</time>
      </trkpt>
      <trkpt lat="44.18543" lon="6.66112">
        <ele>1788.4000244141</ele>
        <time>2020-08-13T09:04:51.000Z</time>
      </trkpt>
      <trkpt lat="44.18547" lon="6.66126">
        <ele>1787.4000244141</ele>
        <time>2020-08-13T09:04:52.000Z</time>
      </trkpt>
      <trkpt lat="44.18551" lon="6.66145">
        <ele>1786</ele>
        <time>2020-08-13T09:04:53.000Z</time>
      </trkpt>
      <trkpt lat="44.18553" lon="6.66162">
        <ele>1784.8000488281</ele>
        <time>2020-08-13T09:04:54.000Z</time>
      </trkpt>
      <trkpt lat="44.18561" lon="6.66193">
        <ele>1782.8000488281</ele>
        <time>2020-08-13T09:04:56.000Z</time>
      </trkpt>
      <trkpt lat="44.18566" lon="6.66208">
        <ele>1782</ele>
        <time>2020-08-13T09:04:57.000Z</time>
      </trkpt>
      <trkpt lat="44.18571" lon="6.66221">
        <ele>1781.4000244141</ele>
        <time>2020-08-13T09:04:58.000Z</time>
      </trkpt>
      <trkpt lat="44.18582" lon="6.66249">
        <ele>1779</ele>
        <time>2020-08-13T09:05:00.000Z</time>
      </trkpt>
      <trkpt lat="44.18593" lon="6.66273">
        <ele>1777.5999755859</ele>
        <time>2020-08-13T09:05:02.000Z</time>
      </trkpt>
      <trkpt lat="44.18598" lon="6.66285">
        <ele>1776.5999755859</ele>
        <time>2020-08-13T09:05:03.000Z</time>
      </trkpt>
      <trkpt lat="44.18603" lon="6.66295">
        <ele>1775.4000244141</ele>
        <time>2020-08-13T09:05:04.000Z</time>
      </trkpt>
      <trkpt lat="44.1861" lon="6.66303">
        <ele>1774.5999755859</ele>
        <time>2020-08-13T09:05:05.000Z</time>
      </trkpt>
      <trkpt lat="44.18618" lon="6.66308">
        <ele>1773.5999755859</ele>
        <time>2020-08-13T09:05:06.000Z</time>
      </trkpt>
      <trkpt lat="44.18629" lon="6.66311">
        <ele>1772.4000244141</ele>
        <time>2020-08-13T09:05:07.000Z</time>
      </trkpt>
      <trkpt lat="44.18639" lon="6.66309">
        <ele>1771.5999755859</ele>
        <time>2020-08-13T09:05:08.000Z</time>
      </trkpt>
      <trkpt lat="44.18649" lon="6.66306">
        <ele>1770.8000488281</ele>
        <time>2020-08-13T09:05:09.000Z</time>
      </trkpt>
      <trkpt lat="44.18659" lon="6.66304">
        <ele>1770.1999511719</ele>
        <time>2020-08-13T09:05:10.000Z</time>
      </trkpt>
      <trkpt lat="44.18669" lon="6.66301">
        <ele>1769.5999755859</ele>
        <time>2020-08-13T09:05:11.000Z</time>
      </trkpt>
      <trkpt lat="44.18681" lon="6.66299">
        <ele>1768.8000488281</ele>
        <time>2020-08-13T09:05:12.000Z</time>
      </trkpt>
      <trkpt lat="44.18692" lon="6.66299">
        <ele>1768</ele>
        <time>2020-08-13T09:05:13.000Z</time>
      </trkpt>
      <trkpt lat="44.18713" lon="6.66302">
        <ele>1765.8000488281</ele>
        <time>2020-08-13T09:05:15.000Z</time>
      </trkpt>
      <trkpt lat="44.18721" lon="6.66305">
        <ele>1765.1999511719</ele>
        <time>2020-08-13T09:05:16.000Z</time>
      </trkpt>
      <trkpt lat="44.18729" lon="6.6631">
        <ele>1764.8000488281</ele>
        <time>2020-08-13T09:05:17.000Z</time>
      </trkpt>
      <trkpt lat="44.18739" lon="6.6633">
        <ele>1763</ele>
        <time>2020-08-13T09:05:19.000Z</time>
      </trkpt>
      <trkpt lat="44.18746" lon="6.66353">
        <ele>1761.4000244141</ele>
        <time>2020-08-13T09:05:21.000Z</time>
      </trkpt>
      <trkpt lat="44.1875" lon="6.66366">
        <ele>1760</ele>
        <time>2020-08-13T09:05:22.000Z</time>
      </trkpt>
      <trkpt lat="44.18755" lon="6.66381">
        <ele>1759</ele>
        <time>2020-08-13T09:05:23.000Z</time>
      </trkpt>
      <trkpt lat="44.18764" lon="6.66406">
        <ele>1756.8000488281</ele>
        <time>2020-08-13T09:05:25.000Z</time>
      </trkpt>
      <trkpt lat="44.18768" lon="6.66418">
        <ele>1755.8000488281</ele>
        <time>2020-08-13T09:05:26.000Z</time>
      </trkpt>
      <trkpt lat="44.18774" lon="6.66434">
        <ele>1754.8000488281</ele>
        <time>2020-08-13T09:05:27.000Z</time>
      </trkpt>
      <trkpt lat="44.18778" lon="6.66448">
        <ele>1753.5999755859</ele>
        <time>2020-08-13T09:05:28.000Z</time>
      </trkpt>
      <trkpt lat="44.18781" lon="6.66465">
        <ele>1752.5999755859</ele>
        <time>2020-08-13T09:05:29.000Z</time>
      </trkpt>
      <trkpt lat="44.18785" lon="6.66482">
        <ele>1751.5999755859</ele>
        <time>2020-08-13T09:05:30.000Z</time>
      </trkpt>
      <trkpt lat="44.18788" lon="6.66497">
        <ele>1750.1999511719</ele>
        <time>2020-08-13T09:05:31.000Z</time>
      </trkpt>
      <trkpt lat="44.18792" lon="6.66511">
        <ele>1749</ele>
        <time>2020-08-13T09:05:32.000Z</time>
      </trkpt>
      <trkpt lat="44.18798" lon="6.66525">
        <ele>1748</ele>
        <time>2020-08-13T09:05:33.000Z</time>
      </trkpt>
      <trkpt lat="44.1881" lon="6.66546">
        <ele>1746.1999511719</ele>
        <time>2020-08-13T09:05:35.000Z</time>
      </trkpt>
      <trkpt lat="44.18823" lon="6.66563">
        <ele>1745</ele>
        <time>2020-08-13T09:05:38.000Z</time>
      </trkpt>
      <trkpt lat="44.18834" lon="6.66558">
        <ele>1744</ele>
        <time>2020-08-13T09:05:40.000Z</time>
      </trkpt>
      <trkpt lat="44.18841" lon="6.66539">
        <ele>1743.1999511719</ele>
        <time>2020-08-13T09:05:42.000Z</time>
      </trkpt>
      <trkpt lat="44.18845" lon="6.66529">
        <ele>1742.8000488281</ele>
        <time>2020-08-13T09:05:43.000Z</time>
      </trkpt>
      <trkpt lat="44.18855" lon="6.66507">
        <ele>1741.4000244141</ele>
        <time>2020-08-13T09:05:45.000Z</time>
      </trkpt>
      <trkpt lat="44.1886" lon="6.66498">
        <ele>1740.5999755859</ele>
        <time>2020-08-13T09:05:46.000Z</time>
      </trkpt>
      <trkpt lat="44.18867" lon="6.66489">
        <ele>1739.5999755859</ele>
        <time>2020-08-13T09:05:47.000Z</time>
      </trkpt>
      <trkpt lat="44.18872" lon="6.66481">
        <ele>1738.1999511719</ele>
        <time>2020-08-13T09:05:48.000Z</time>
      </trkpt>
      <trkpt lat="44.18875" lon="6.66473">
        <ele>1737.4000244141</ele>
        <time>2020-08-13T09:05:49.000Z</time>
      </trkpt>
      <trkpt lat="44.18876" lon="6.66463">
        <ele>1736.5999755859</ele>
        <time>2020-08-13T09:05:50.000Z</time>
      </trkpt>
      <trkpt lat="44.18874" lon="6.66452">
        <ele>1736</ele>
        <time>2020-08-13T09:05:51.000Z</time>
      </trkpt>
      <trkpt lat="44.18871" lon="6.66442">
        <ele>1735.4000244141</ele>
        <time>2020-08-13T09:05:52.000Z</time>
      </trkpt>
      <trkpt lat="44.18861" lon="6.66421">
        <ele>1734.8000488281</ele>
        <time>2020-08-13T09:05:54.000Z</time>
      </trkpt>
      <trkpt lat="44.18854" lon="6.66411">
        <ele>1734.1999511719</ele>
        <time>2020-08-13T09:05:55.000Z</time>
      </trkpt>
      <trkpt lat="44.18844" lon="6.66389">
        <ele>1732.1999511719</ele>
        <time>2020-08-13T09:05:57.000Z</time>
      </trkpt>
      <trkpt lat="44.18842" lon="6.66377">
        <ele>1731.1999511719</ele>
        <time>2020-08-13T09:05:58.000Z</time>
      </trkpt>
      <trkpt lat="44.18838" lon="6.66348">
        <ele>1729.1999511719</ele>
        <time>2020-08-13T09:06:00.000Z</time>
      </trkpt>
      <trkpt lat="44.18831" lon="6.6632">
        <ele>1727.8000488281</ele>
        <time>2020-08-13T09:06:02.000Z</time>
      </trkpt>
      <trkpt lat="44.18829" lon="6.66304">
        <ele>1726.8000488281</ele>
        <time>2020-08-13T09:06:03.000Z</time>
      </trkpt>
      <trkpt lat="44.18827" lon="6.66289">
        <ele>1725.5999755859</ele>
        <time>2020-08-13T09:06:04.000Z</time>
      </trkpt>
      <trkpt lat="44.18827" lon="6.66273">
        <ele>1724.4000244141</ele>
        <time>2020-08-13T09:06:05.000Z</time>
      </trkpt>
      <trkpt lat="44.18827" lon="6.66259">
        <ele>1723.1999511719</ele>
        <time>2020-08-13T09:06:06.000Z</time>
      </trkpt>
      <trkpt lat="44.18827" lon="6.66245">
        <ele>1722</ele>
        <time>2020-08-13T09:06:07.000Z</time>
      </trkpt>
      <trkpt lat="44.18825" lon="6.66233">
        <ele>1721.4000244141</ele>
        <time>2020-08-13T09:06:08.000Z</time>
      </trkpt>
      <trkpt lat="44.18822" lon="6.66221">
        <ele>1720.4000244141</ele>
        <time>2020-08-13T09:06:09.000Z</time>
      </trkpt>
      <trkpt lat="44.18817" lon="6.6621">
        <ele>1720</ele>
        <time>2020-08-13T09:06:10.000Z</time>
      </trkpt>
      <trkpt lat="44.18813" lon="6.66169">
        <ele>1719</ele>
        <time>2020-08-13T09:06:13.000Z</time>
      </trkpt>
      <trkpt lat="44.18816" lon="6.66142">
        <ele>1717.5999755859</ele>
        <time>2020-08-13T09:06:15.000Z</time>
      </trkpt>
      <trkpt lat="44.18817" lon="6.66129">
        <ele>1718.1999511719</ele>
        <time>2020-08-13T09:06:16.000Z</time>
      </trkpt>
      <trkpt lat="44.18816" lon="6.66112">
        <ele>1717.5999755859</ele>
        <time>2020-08-13T09:06:17.000Z</time>
      </trkpt>
      <trkpt lat="44.18814" lon="6.66081">
        <ele>1716.1999511719</ele>
        <time>2020-08-13T09:06:19.000Z</time>
      </trkpt>
      <trkpt lat="44.18811" lon="6.66056">
        <ele>1714.1999511719</ele>
        <time>2020-08-13T09:06:21.000Z</time>
      </trkpt>
      <trkpt lat="44.18807" lon="6.66046">
        <ele>1713.4000244141</ele>
        <time>2020-08-13T09:06:22.000Z</time>
      </trkpt>
      <trkpt lat="44.18801" lon="6.66036">
        <ele>1712.5999755859</ele>
        <time>2020-08-13T09:06:23.000Z</time>
      </trkpt>
      <trkpt lat="44.18788" lon="6.66018">
        <ele>1711.4000244141</ele>
        <time>2020-08-13T09:06:25.000Z</time>
      </trkpt>
      <trkpt lat="44.18783" lon="6.65993">
        <ele>1710.5999755859</ele>
        <time>2020-08-13T09:06:27.000Z</time>
      </trkpt>
      <trkpt lat="44.18783" lon="6.65981">
        <ele>1709.5999755859</ele>
        <time>2020-08-13T09:06:28.000Z</time>
      </trkpt>
      <trkpt lat="44.18781" lon="6.65967">
        <ele>1708</ele>
        <time>2020-08-13T09:06:29.000Z</time>
      </trkpt>
      <trkpt lat="44.18774" lon="6.65943">
        <ele>1706.8000488281</ele>
        <time>2020-08-13T09:06:31.000Z</time>
      </trkpt>
      <trkpt lat="44.18763" lon="6.65902">
        <ele>1705</ele>
        <time>2020-08-13T09:06:34.000Z</time>
      </trkpt>
      <trkpt lat="44.1876" lon="6.65871">
        <ele>1702.8000488281</ele>
        <time>2020-08-13T09:06:36.000Z</time>
      </trkpt>
      <trkpt lat="44.18758" lon="6.65839">
        <ele>1700.5999755859</ele>
        <time>2020-08-13T09:06:38.000Z</time>
      </trkpt>
      <trkpt lat="44.18758" lon="6.65822">
        <ele>1699.4000244141</ele>
        <time>2020-08-13T09:06:39.000Z</time>
      </trkpt>
      <trkpt lat="44.18758" lon="6.6579">
        <ele>1697.5999755859</ele>
        <time>2020-08-13T09:06:41.000Z</time>
      </trkpt>
      <trkpt lat="44.18759" lon="6.65771">
        <ele>1696.4000244141</ele>
        <time>2020-08-13T09:06:42.000Z</time>
      </trkpt>
      <trkpt lat="44.18761" lon="6.65753">
        <ele>1695.1999511719</ele>
        <time>2020-08-13T09:06:43.000Z</time>
      </trkpt>
      <trkpt lat="44.18763" lon="6.65737">
        <ele>1694</ele>
        <time>2020-08-13T09:06:44.000Z</time>
      </trkpt>
      <trkpt lat="44.18766" lon="6.65722">
        <ele>1692.8000488281</ele>
        <time>2020-08-13T09:06:45.000Z</time>
      </trkpt>
      <trkpt lat="44.1877" lon="6.65692">
        <ele>1690.8000488281</ele>
        <time>2020-08-13T09:06:47.000Z</time>
      </trkpt>
      <trkpt lat="44.18771" lon="6.65676">
        <ele>1689.8000488281</ele>
        <time>2020-08-13T09:06:48.000Z</time>
      </trkpt>
      <trkpt lat="44.1877" lon="6.65659">
        <ele>1688.1999511719</ele>
        <time>2020-08-13T09:06:49.000Z</time>
      </trkpt>
      <trkpt lat="44.18769" lon="6.65643">
        <ele>1687.5999755859</ele>
        <time>2020-08-13T09:06:50.000Z</time>
      </trkpt>
      <trkpt lat="44.18767" lon="6.6563">
        <ele>1685.8000488281</ele>
        <time>2020-08-13T09:06:51.000Z</time>
      </trkpt>
      <trkpt lat="44.18766" lon="6.65617">
        <ele>1684.8000488281</ele>
        <time>2020-08-13T09:06:52.000Z</time>
      </trkpt>
      <trkpt lat="44.18767" lon="6.65605">
        <ele>1683.4000244141</ele>
        <time>2020-08-13T09:06:53.000Z</time>
      </trkpt>
      <trkpt lat="44.18774" lon="6.65584">
        <ele>1681.5999755859</ele>
        <time>2020-08-13T09:06:55.000Z</time>
      </trkpt>
      <trkpt lat="44.18778" lon="6.65575">
        <ele>1680.5999755859</ele>
        <time>2020-08-13T09:06:56.000Z</time>
      </trkpt>
      <trkpt lat="44.1878" lon="6.65565">
        <ele>1680.1999511719</ele>
        <time>2020-08-13T09:06:57.000Z</time>
      </trkpt>
      <trkpt lat="44.18781" lon="6.65553">
        <ele>1679.4000244141</ele>
        <time>2020-08-13T09:06:58.000Z</time>
      </trkpt>
      <trkpt lat="44.18781" lon="6.65539">
        <ele>1678.4000244141</ele>
        <time>2020-08-13T09:06:59.000Z</time>
      </trkpt>
      <trkpt lat="44.18782" lon="6.65526">
        <ele>1677.5999755859</ele>
        <time>2020-08-13T09:07:00.000Z</time>
      </trkpt>
      <trkpt lat="44.18781" lon="6.65514">
        <ele>1676.8000488281</ele>
        <time>2020-08-13T09:07:01.000Z</time>
      </trkpt>
      <trkpt lat="44.18778" lon="6.65502">
        <ele>1675.5999755859</ele>
        <time>2020-08-13T09:07:02.000Z</time>
      </trkpt>
      <trkpt lat="44.18772" lon="6.65492">
        <ele>1675</ele>
        <time>2020-08-13T09:07:03.000Z</time>
      </trkpt>
      <trkpt lat="44.18766" lon="6.65483">
        <ele>1674</ele>
        <time>2020-08-13T09:07:04.000Z</time>
      </trkpt>
      <trkpt lat="44.18756" lon="6.65459">
        <ele>1672.8000488281</ele>
        <time>2020-08-13T09:07:06.000Z</time>
      </trkpt>
      <trkpt lat="44.18751" lon="6.65431">
        <ele>1671.1999511719</ele>
        <time>2020-08-13T09:07:08.000Z</time>
      </trkpt>
      <trkpt lat="44.18747" lon="6.65415">
        <ele>1670</ele>
        <time>2020-08-13T09:07:09.000Z</time>
      </trkpt>
      <trkpt lat="44.18744" lon="6.65403">
        <ele>1668.8000488281</ele>
        <time>2020-08-13T09:07:10.000Z</time>
      </trkpt>
      <trkpt lat="44.18739" lon="6.6539">
        <ele>1667.5999755859</ele>
        <time>2020-08-13T09:07:11.000Z</time>
      </trkpt>
      <trkpt lat="44.18733" lon="6.65378">
        <ele>1666.1999511719</ele>
        <time>2020-08-13T09:07:12.000Z</time>
      </trkpt>
      <trkpt lat="44.18726" lon="6.65369">
        <ele>1665</ele>
        <time>2020-08-13T09:07:13.000Z</time>
      </trkpt>
      <trkpt lat="44.18718" lon="6.6536">
        <ele>1664</ele>
        <time>2020-08-13T09:07:14.000Z</time>
      </trkpt>
      <trkpt lat="44.18709" lon="6.65337">
        <ele>1662.4000244141</ele>
        <time>2020-08-13T09:07:16.000Z</time>
      </trkpt>
      <trkpt lat="44.18709" lon="6.65311">
        <ele>1661.5999755859</ele>
        <time>2020-08-13T09:07:18.000Z</time>
      </trkpt>
      <trkpt lat="44.1871" lon="6.65299">
        <ele>1661.1999511719</ele>
        <time>2020-08-13T09:07:19.000Z</time>
      </trkpt>
      <trkpt lat="44.18712" lon="6.65267">
        <ele>1661.4000244141</ele>
        <time>2020-08-13T09:07:22.000Z</time>
      </trkpt>
      <trkpt lat="44.18706" lon="6.65235">
        <ele>1662.1999511719</ele>
        <time>2020-08-13T09:07:25.000Z</time>
      </trkpt>
      <trkpt lat="44.18704" lon="6.65226">
        <ele>1662.4000244141</ele>
        <time>2020-08-13T09:07:26.000Z</time>
      </trkpt>
      <trkpt lat="44.1869" lon="6.65164">
        <ele>1660.8000488281</ele>
        <time>2020-08-13T09:07:31.000Z</time>
      </trkpt>
      <trkpt lat="44.1869" lon="6.65135">
        <ele>1659.5999755859</ele>
        <time>2020-08-13T09:07:33.000Z</time>
      </trkpt>
      <trkpt lat="44.18691" lon="6.65106">
        <ele>1658.4000244141</ele>
        <time>2020-08-13T09:07:35.000Z</time>
      </trkpt>
      <trkpt lat="44.18689" lon="6.65092">
        <ele>1657.8000488281</ele>
        <time>2020-08-13T09:07:36.000Z</time>
      </trkpt>
      <trkpt lat="44.18684" lon="6.65079">
        <ele>1657</ele>
        <time>2020-08-13T09:07:37.000Z</time>
      </trkpt>
      <trkpt lat="44.18678" lon="6.65068">
        <ele>1656.5999755859</ele>
        <time>2020-08-13T09:07:38.000Z</time>
      </trkpt>
      <trkpt lat="44.18672" lon="6.65057">
        <ele>1655.8000488281</ele>
        <time>2020-08-13T09:07:39.000Z</time>
      </trkpt>
      <trkpt lat="44.18654" lon="6.65019">
        <ele>1655.1999511719</ele>
        <time>2020-08-13T09:07:42.000Z</time>
      </trkpt>
      <trkpt lat="44.1865" lon="6.65008">
        <ele>1654.8000488281</ele>
        <time>2020-08-13T09:07:43.000Z</time>
      </trkpt>
      <trkpt lat="44.18643" lon="6.64998">
        <ele>1654</ele>
        <time>2020-08-13T09:07:44.000Z</time>
      </trkpt>
      <trkpt lat="44.18635" lon="6.64991">
        <ele>1653.4000244141</ele>
        <time>2020-08-13T09:07:45.000Z</time>
      </trkpt>
      <trkpt lat="44.18613" lon="6.64978">
        <ele>1651.5999755859</ele>
        <time>2020-08-13T09:07:47.000Z</time>
      </trkpt>
      <trkpt lat="44.18594" lon="6.64967">
        <ele>1650.1999511719</ele>
        <time>2020-08-13T09:07:49.000Z</time>
      </trkpt>
      <trkpt lat="44.18588" lon="6.64959">
        <ele>1649</ele>
        <time>2020-08-13T09:07:50.000Z</time>
      </trkpt>
      <trkpt lat="44.18584" lon="6.64947">
        <ele>1648.4000244141</ele>
        <time>2020-08-13T09:07:51.000Z</time>
      </trkpt>
      <trkpt lat="44.18582" lon="6.64935">
        <ele>1647.5999755859</ele>
        <time>2020-08-13T09:07:52.000Z</time>
      </trkpt>
      <trkpt lat="44.1858" lon="6.64912">
        <ele>1646.8000488281</ele>
        <time>2020-08-13T09:07:54.000Z</time>
      </trkpt>
      <trkpt lat="44.1858" lon="6.64901">
        <ele>1647</ele>
        <time>2020-08-13T09:07:55.000Z</time>
      </trkpt>
      <trkpt lat="44.1858" lon="6.64891">
        <ele>1647</ele>
        <time>2020-08-13T09:07:56.000Z</time>
      </trkpt>
      <trkpt lat="44.18585" lon="6.6487">
        <ele>1647.1999511719</ele>
        <time>2020-08-13T09:07:58.000Z</time>
      </trkpt>
      <trkpt lat="44.18577" lon="6.64844">
        <ele>1647</ele>
        <time>2020-08-13T09:08:01.000Z</time>
      </trkpt>
      <trkpt lat="44.18563" lon="6.64834">
        <ele>1646.5999755859</ele>
        <time>2020-08-13T09:08:03.000Z</time>
      </trkpt>
      <trkpt lat="44.18556" lon="6.64825">
        <ele>1646.1999511719</ele>
        <time>2020-08-13T09:08:04.000Z</time>
      </trkpt>
      <trkpt lat="44.1855" lon="6.648">
        <ele>1645.1999511719</ele>
        <time>2020-08-13T09:08:06.000Z</time>
      </trkpt>
      <trkpt lat="44.1855" lon="6.64786">
        <ele>1644.5999755859</ele>
        <time>2020-08-13T09:08:07.000Z</time>
      </trkpt>
      <trkpt lat="44.1855" lon="6.64773">
        <ele>1643.8000488281</ele>
        <time>2020-08-13T09:08:08.000Z</time>
      </trkpt>
      <trkpt lat="44.18549" lon="6.64758">
        <ele>1643.1999511719</ele>
        <time>2020-08-13T09:08:09.000Z</time>
      </trkpt>
      <trkpt lat="44.18549" lon="6.64729">
        <ele>1641.8000488281</ele>
        <time>2020-08-13T09:08:11.000Z</time>
      </trkpt>
      <trkpt lat="44.18551" lon="6.64713">
        <ele>1641</ele>
        <time>2020-08-13T09:08:12.000Z</time>
      </trkpt>
      <trkpt lat="44.18553" lon="6.64696">
        <ele>1640</ele>
        <time>2020-08-13T09:08:13.000Z</time>
      </trkpt>
      <trkpt lat="44.18554" lon="6.64678">
        <ele>1638.8000488281</ele>
        <time>2020-08-13T09:08:14.000Z</time>
      </trkpt>
      <trkpt lat="44.18555" lon="6.64661">
        <ele>1637.5999755859</ele>
        <time>2020-08-13T09:08:15.000Z</time>
      </trkpt>
      <trkpt lat="44.18556" lon="6.64646">
        <ele>1636.5999755859</ele>
        <time>2020-08-13T09:08:16.000Z</time>
      </trkpt>
      <trkpt lat="44.18557" lon="6.64626">
        <ele>1635.1999511719</ele>
        <time>2020-08-13T09:08:17.000Z</time>
      </trkpt>
      <trkpt lat="44.18557" lon="6.64609">
        <ele>1634</ele>
        <time>2020-08-13T09:08:18.000Z</time>
      </trkpt>
      <trkpt lat="44.18556" lon="6.64571">
        <ele>1631.1999511719</ele>
        <time>2020-08-13T09:08:20.000Z</time>
      </trkpt>
      <trkpt lat="44.18556" lon="6.64555">
        <ele>1629.8000488281</ele>
        <time>2020-08-13T09:08:21.000Z</time>
      </trkpt>
      <trkpt lat="44.18555" lon="6.64536">
        <ele>1628.5999755859</ele>
        <time>2020-08-13T09:08:22.000Z</time>
      </trkpt>
      <trkpt lat="44.18556" lon="6.64517">
        <ele>1627.1999511719</ele>
        <time>2020-08-13T09:08:23.000Z</time>
      </trkpt>
      <trkpt lat="44.18557" lon="6.64502">
        <ele>1626</ele>
        <time>2020-08-13T09:08:24.000Z</time>
      </trkpt>
      <trkpt lat="44.18559" lon="6.64487">
        <ele>1625</ele>
        <time>2020-08-13T09:08:25.000Z</time>
      </trkpt>
      <trkpt lat="44.18561" lon="6.64476">
        <ele>1624.4000244141</ele>
        <time>2020-08-13T09:08:26.000Z</time>
      </trkpt>
      <trkpt lat="44.18561" lon="6.64457">
        <ele>1623.4000244141</ele>
        <time>2020-08-13T09:08:28.000Z</time>
      </trkpt>
      <trkpt lat="44.18557" lon="6.64449">
        <ele>1623</ele>
        <time>2020-08-13T09:08:29.000Z</time>
      </trkpt>
      <trkpt lat="44.18542" lon="6.64443">
        <ele>1622.1999511719</ele>
        <time>2020-08-13T09:08:31.000Z</time>
      </trkpt>
      <trkpt lat="44.18523" lon="6.64444">
        <ele>1621</ele>
        <time>2020-08-13T09:08:33.000Z</time>
      </trkpt>
      <trkpt lat="44.18513" lon="6.64446">
        <ele>1620</ele>
        <time>2020-08-13T09:08:34.000Z</time>
      </trkpt>
      <trkpt lat="44.18502" lon="6.64447">
        <ele>1619</ele>
        <time>2020-08-13T09:08:35.000Z</time>
      </trkpt>
      <trkpt lat="44.18483" lon="6.64446">
        <ele>1617.5999755859</ele>
        <time>2020-08-13T09:08:37.000Z</time>
      </trkpt>
      <trkpt lat="44.18474" lon="6.64441">
        <ele>1616</ele>
        <time>2020-08-13T09:08:38.000Z</time>
      </trkpt>
      <trkpt lat="44.1846" lon="6.64423">
        <ele>1614.5999755859</ele>
        <time>2020-08-13T09:08:40.000Z</time>
      </trkpt>
      <trkpt lat="44.18452" lon="6.64411">
        <ele>1613.4000244141</ele>
        <time>2020-08-13T09:08:41.000Z</time>
      </trkpt>
      <trkpt lat="44.18441" lon="6.6439">
        <ele>1611.4000244141</ele>
        <time>2020-08-13T09:08:43.000Z</time>
      </trkpt>
      <trkpt lat="44.18436" lon="6.64364">
        <ele>1609.5999755859</ele>
        <time>2020-08-13T09:08:45.000Z</time>
      </trkpt>
      <trkpt lat="44.18438" lon="6.64336">
        <ele>1608</ele>
        <time>2020-08-13T09:08:47.000Z</time>
      </trkpt>
      <trkpt lat="44.1844" lon="6.64322">
        <ele>1607.1999511719</ele>
        <time>2020-08-13T09:08:48.000Z</time>
      </trkpt>
      <trkpt lat="44.18439" lon="6.6431">
        <ele>1606.4000244141</ele>
        <time>2020-08-13T09:08:49.000Z</time>
      </trkpt>
      <trkpt lat="44.18432" lon="6.64288">
        <ele>1605.1999511719</ele>
        <time>2020-08-13T09:08:51.000Z</time>
      </trkpt>
      <trkpt lat="44.18416" lon="6.64275">
        <ele>1603.1999511719</ele>
        <time>2020-08-13T09:08:53.000Z</time>
      </trkpt>
      <trkpt lat="44.18396" lon="6.64272">
        <ele>1601.5999755859</ele>
        <time>2020-08-13T09:08:55.000Z</time>
      </trkpt>
      <trkpt lat="44.18386" lon="6.64272">
        <ele>1600.5999755859</ele>
        <time>2020-08-13T09:08:56.000Z</time>
      </trkpt>
      <trkpt lat="44.18374" lon="6.64273">
        <ele>1600</ele>
        <time>2020-08-13T09:08:57.000Z</time>
      </trkpt>
      <trkpt lat="44.18365" lon="6.64274">
        <ele>1599</ele>
        <time>2020-08-13T09:08:58.000Z</time>
      </trkpt>
      <trkpt lat="44.18355" lon="6.64278">
        <ele>1598.1999511719</ele>
        <time>2020-08-13T09:08:59.000Z</time>
      </trkpt>
      <trkpt lat="44.18346" lon="6.64285">
        <ele>1597.1999511719</ele>
        <time>2020-08-13T09:09:00.000Z</time>
      </trkpt>
      <trkpt lat="44.18325" lon="6.64299">
        <ele>1595.4000244141</ele>
        <time>2020-08-13T09:09:02.000Z</time>
      </trkpt>
      <trkpt lat="44.18316" lon="6.64303">
        <ele>1594.4000244141</ele>
        <time>2020-08-13T09:09:03.000Z</time>
      </trkpt>
      <trkpt lat="44.18308" lon="6.64304">
        <ele>1593.5999755859</ele>
        <time>2020-08-13T09:09:04.000Z</time>
      </trkpt>
      <trkpt lat="44.18289" lon="6.64295">
        <ele>1592</ele>
        <time>2020-08-13T09:09:06.000Z</time>
      </trkpt>
      <trkpt lat="44.18272" lon="6.64272">
        <ele>1590.5999755859</ele>
        <time>2020-08-13T09:09:08.000Z</time>
      </trkpt>
      <trkpt lat="44.18261" lon="6.64251">
        <ele>1589</ele>
        <time>2020-08-13T09:09:10.000Z</time>
      </trkpt>
      <trkpt lat="44.18254" lon="6.64242">
        <ele>1588</ele>
        <time>2020-08-13T09:09:11.000Z</time>
      </trkpt>
      <trkpt lat="44.18233" lon="6.64228">
        <ele>1586.1999511719</ele>
        <time>2020-08-13T09:09:13.000Z</time>
      </trkpt>
      <trkpt lat="44.18222" lon="6.64222">
        <ele>1584.5999755859</ele>
        <time>2020-08-13T09:09:14.000Z</time>
      </trkpt>
      <trkpt lat="44.18204" lon="6.64208">
        <ele>1582.8000488281</ele>
        <time>2020-08-13T09:09:16.000Z</time>
      </trkpt>
      <trkpt lat="44.18194" lon="6.64198">
        <ele>1581.5999755859</ele>
        <time>2020-08-13T09:09:17.000Z</time>
      </trkpt>
      <trkpt lat="44.18187" lon="6.6419">
        <ele>1580.4000244141</ele>
        <time>2020-08-13T09:09:18.000Z</time>
      </trkpt>
      <trkpt lat="44.18176" lon="6.64173">
        <ele>1578.4000244141</ele>
        <time>2020-08-13T09:09:20.000Z</time>
      </trkpt>
      <trkpt lat="44.18169" lon="6.64153">
        <ele>1577</ele>
        <time>2020-08-13T09:09:22.000Z</time>
      </trkpt>
      <trkpt lat="44.18166" lon="6.64144">
        <ele>1576.4000244141</ele>
        <time>2020-08-13T09:09:23.000Z</time>
      </trkpt>
      <trkpt lat="44.18164" lon="6.64136">
        <ele>1575.8000488281</ele>
        <time>2020-08-13T09:09:24.000Z</time>
      </trkpt>
      <trkpt lat="44.18158" lon="6.64118">
        <ele>1574.5999755859</ele>
        <time>2020-08-13T09:09:26.000Z</time>
      </trkpt>
      <trkpt lat="44.18149" lon="6.64097">
        <ele>1572.8000488281</ele>
        <time>2020-08-13T09:09:28.000Z</time>
      </trkpt>
      <trkpt lat="44.18139" lon="6.64079">
        <ele>1571.4000244141</ele>
        <time>2020-08-13T09:09:30.000Z</time>
      </trkpt>
      <trkpt lat="44.18129" lon="6.64065">
        <ele>1570</ele>
        <time>2020-08-13T09:09:32.000Z</time>
      </trkpt>
      <trkpt lat="44.18125" lon="6.64059">
        <ele>1569.5999755859</ele>
        <time>2020-08-13T09:09:33.000Z</time>
      </trkpt>
      <trkpt lat="44.18123" lon="6.64053">
        <ele>1569</ele>
        <time>2020-08-13T09:09:34.000Z</time>
      </trkpt>
      <trkpt lat="44.18119" lon="6.64039">
        <ele>1567.8000488281</ele>
        <time>2020-08-13T09:09:36.000Z</time>
      </trkpt>
      <trkpt lat="44.18118" lon="6.64026">
        <ele>1566.5999755859</ele>
        <time>2020-08-13T09:09:38.000Z</time>
      </trkpt>
      <trkpt lat="44.18117" lon="6.64019">
        <ele>1566</ele>
        <time>2020-08-13T09:09:39.000Z</time>
      </trkpt>
      <trkpt lat="44.18116" lon="6.64012">
        <ele>1565.4000244141</ele>
        <time>2020-08-13T09:09:40.000Z</time>
      </trkpt>
      <trkpt lat="44.18115" lon="6.64003">
        <ele>1565.1999511719</ele>
        <time>2020-08-13T09:09:41.000Z</time>
      </trkpt>
      <trkpt lat="44.18115" lon="6.63993">
        <ele>1564.5999755859</ele>
        <time>2020-08-13T09:09:42.000Z</time>
      </trkpt>
      <trkpt lat="44.18115" lon="6.63983">
        <ele>1564</ele>
        <time>2020-08-13T09:09:43.000Z</time>
      </trkpt>
      <trkpt lat="44.18114" lon="6.63973">
        <ele>1563.5999755859</ele>
        <time>2020-08-13T09:09:44.000Z</time>
      </trkpt>
      <trkpt lat="44.18111" lon="6.63964">
        <ele>1563.1999511719</ele>
        <time>2020-08-13T09:09:45.000Z</time>
      </trkpt>
      <trkpt lat="44.18106" lon="6.63955">
        <ele>1562.5999755859</ele>
        <time>2020-08-13T09:09:46.000Z</time>
      </trkpt>
      <trkpt lat="44.18096" lon="6.6394">
        <ele>1561.1999511719</ele>
        <time>2020-08-13T09:09:48.000Z</time>
      </trkpt>
      <trkpt lat="44.18093" lon="6.63928">
        <ele>1559.5999755859</ele>
        <time>2020-08-13T09:09:50.000Z</time>
      </trkpt>
      <trkpt lat="44.18097" lon="6.63924">
        <ele>1559.1999511719</ele>
        <time>2020-08-13T09:09:51.000Z</time>
      </trkpt>
      <trkpt lat="44.18101" lon="6.63925">
        <ele>1558.5999755859</ele>
        <time>2020-08-13T09:09:52.000Z</time>
      </trkpt>
      <trkpt lat="44.18105" lon="6.63929">
        <ele>1558.1999511719</ele>
        <time>2020-08-13T09:09:53.000Z</time>
      </trkpt>
      <trkpt lat="44.1811" lon="6.63933">
        <ele>1557.8000488281</ele>
        <time>2020-08-13T09:09:54.000Z</time>
      </trkpt>
      <trkpt lat="44.18115" lon="6.63936">
        <ele>1557.1999511719</ele>
        <time>2020-08-13T09:09:55.000Z</time>
      </trkpt>
      <trkpt lat="44.18127" lon="6.63943">
        <ele>1556</ele>
        <time>2020-08-13T09:09:57.000Z</time>
      </trkpt>
      <trkpt lat="44.18133" lon="6.63946">
        <ele>1555.5999755859</ele>
        <time>2020-08-13T09:09:58.000Z</time>
      </trkpt>
      <trkpt lat="44.18138" lon="6.6395">
        <ele>1555</ele>
        <time>2020-08-13T09:09:59.000Z</time>
      </trkpt>
      <trkpt lat="44.18154" lon="6.6397">
        <ele>1554</ele>
        <time>2020-08-13T09:10:02.000Z</time>
      </trkpt>
      <trkpt lat="44.18168" lon="6.64003">
        <ele>1552.1999511719</ele>
        <time>2020-08-13T09:10:05.000Z</time>
      </trkpt>
      <trkpt lat="44.18171" lon="6.64013">
        <ele>1551.4000244141</ele>
        <time>2020-08-13T09:10:06.000Z</time>
      </trkpt>
      <trkpt lat="44.18172" lon="6.64024">
        <ele>1550.5999755859</ele>
        <time>2020-08-13T09:10:07.000Z</time>
      </trkpt>
      <trkpt lat="44.18171" lon="6.64033">
        <ele>1549.5999755859</ele>
        <time>2020-08-13T09:10:08.000Z</time>
      </trkpt>
      <trkpt lat="44.18172" lon="6.6404">
        <ele>1549</ele>
        <time>2020-08-13T09:10:09.000Z</time>
      </trkpt>
      <trkpt lat="44.18178" lon="6.64043">
        <ele>1548.4000244141</ele>
        <time>2020-08-13T09:10:11.000Z</time>
      </trkpt>
      <trkpt lat="44.18183" lon="6.64027">
        <ele>1547.1999511719</ele>
        <time>2020-08-13T09:10:14.000Z</time>
      </trkpt>
      <trkpt lat="44.18184" lon="6.64017">
        <ele>1546.5999755859</ele>
        <time>2020-08-13T09:10:15.000Z</time>
      </trkpt>
      <trkpt lat="44.18185" lon="6.64008">
        <ele>1546.1999511719</ele>
        <time>2020-08-13T09:10:16.000Z</time>
      </trkpt>
      <trkpt lat="44.18188" lon="6.63997">
        <ele>1545.5999755859</ele>
        <time>2020-08-13T09:10:17.000Z</time>
      </trkpt>
      <trkpt lat="44.18187" lon="6.63964">
        <ele>1544.1999511719</ele>
        <time>2020-08-13T09:10:20.000Z</time>
      </trkpt>
      <trkpt lat="44.18177" lon="6.63946">
        <ele>1543</ele>
        <time>2020-08-13T09:10:22.000Z</time>
      </trkpt>
      <trkpt lat="44.18171" lon="6.63936">
        <ele>1542.4000244141</ele>
        <time>2020-08-13T09:10:23.000Z</time>
      </trkpt>
      <trkpt lat="44.18165" lon="6.63926">
        <ele>1541.5999755859</ele>
        <time>2020-08-13T09:10:24.000Z</time>
      </trkpt>
      <trkpt lat="44.18153" lon="6.63911">
        <ele>1540.1999511719</ele>
        <time>2020-08-13T09:10:26.000Z</time>
      </trkpt>
      <trkpt lat="44.18144" lon="6.63903">
        <ele>1539.5999755859</ele>
        <time>2020-08-13T09:10:27.000Z</time>
      </trkpt>
      <trkpt lat="44.18136" lon="6.63899">
        <ele>1538.8000488281</ele>
        <time>2020-08-13T09:10:28.000Z</time>
      </trkpt>
      <trkpt lat="44.18116" lon="6.63889">
        <ele>1536.8000488281</ele>
        <time>2020-08-13T09:10:30.000Z</time>
      </trkpt>
      <trkpt lat="44.18107" lon="6.63884">
        <ele>1535.8000488281</ele>
        <time>2020-08-13T09:10:31.000Z</time>
      </trkpt>
      <trkpt lat="44.18095" lon="6.63879">
        <ele>1534.8000488281</ele>
        <time>2020-08-13T09:10:32.000Z</time>
      </trkpt>
      <trkpt lat="44.18084" lon="6.63873">
        <ele>1533.5999755859</ele>
        <time>2020-08-13T09:10:33.000Z</time>
      </trkpt>
      <trkpt lat="44.18075" lon="6.63867">
        <ele>1532.5999755859</ele>
        <time>2020-08-13T09:10:34.000Z</time>
      </trkpt>
      <trkpt lat="44.18065" lon="6.63858">
        <ele>1531.8000488281</ele>
        <time>2020-08-13T09:10:35.000Z</time>
      </trkpt>
      <trkpt lat="44.18059" lon="6.63848">
        <ele>1530.8000488281</ele>
        <time>2020-08-13T09:10:36.000Z</time>
      </trkpt>
      <trkpt lat="44.18053" lon="6.63833">
        <ele>1530</ele>
        <time>2020-08-13T09:10:37.000Z</time>
      </trkpt>
      <trkpt lat="44.1805" lon="6.63819">
        <ele>1529</ele>
        <time>2020-08-13T09:10:38.000Z</time>
      </trkpt>
      <trkpt lat="44.18046" lon="6.63804">
        <ele>1528.1999511719</ele>
        <time>2020-08-13T09:10:39.000Z</time>
      </trkpt>
      <trkpt lat="44.18043" lon="6.6379">
        <ele>1527</ele>
        <time>2020-08-13T09:10:40.000Z</time>
      </trkpt>
      <trkpt lat="44.18036" lon="6.6376">
        <ele>1525</ele>
        <time>2020-08-13T09:10:42.000Z</time>
      </trkpt>
      <trkpt lat="44.18032" lon="6.63735">
        <ele>1523</ele>
        <time>2020-08-13T09:10:44.000Z</time>
      </trkpt>
      <trkpt lat="44.1803" lon="6.63716">
        <ele>1521.5999755859</ele>
        <time>2020-08-13T09:10:46.000Z</time>
      </trkpt>
      <trkpt lat="44.18032" lon="6.63707">
        <ele>1521</ele>
        <time>2020-08-13T09:10:47.000Z</time>
      </trkpt>
      <trkpt lat="44.18036" lon="6.63701">
        <ele>1520.4000244141</ele>
        <time>2020-08-13T09:10:48.000Z</time>
      </trkpt>
      <trkpt lat="44.18042" lon="6.63698">
        <ele>1520.1999511719</ele>
        <time>2020-08-13T09:10:49.000Z</time>
      </trkpt>
      <trkpt lat="44.1805" lon="6.63699">
        <ele>1519.1999511719</ele>
        <time>2020-08-13T09:10:50.000Z</time>
      </trkpt>
      <trkpt lat="44.18057" lon="6.63702">
        <ele>1518.4000244141</ele>
        <time>2020-08-13T09:10:51.000Z</time>
      </trkpt>
      <trkpt lat="44.18066" lon="6.63706">
        <ele>1517.4000244141</ele>
        <time>2020-08-13T09:10:52.000Z</time>
      </trkpt>
      <trkpt lat="44.18085" lon="6.63714">
        <ele>1515.1999511719</ele>
        <time>2020-08-13T09:10:54.000Z</time>
      </trkpt>
      <trkpt lat="44.18104" lon="6.63721">
        <ele>1513.4000244141</ele>
        <time>2020-08-13T09:10:56.000Z</time>
      </trkpt>
      <trkpt lat="44.18114" lon="6.63722">
        <ele>1512.4000244141</ele>
        <time>2020-08-13T09:10:57.000Z</time>
      </trkpt>
      <trkpt lat="44.18123" lon="6.63723">
        <ele>1511.4000244141</ele>
        <time>2020-08-13T09:10:58.000Z</time>
      </trkpt>
      <trkpt lat="44.18144" lon="6.63726">
        <ele>1510</ele>
        <time>2020-08-13T09:11:00.000Z</time>
      </trkpt>
      <trkpt lat="44.18164" lon="6.63733">
        <ele>1509.8000488281</ele>
        <time>2020-08-13T09:11:02.000Z</time>
      </trkpt>
      <trkpt lat="44.18183" lon="6.63742">
        <ele>1508.4000244141</ele>
        <time>2020-08-13T09:11:04.000Z</time>
      </trkpt>
      <trkpt lat="44.18199" lon="6.63757">
        <ele>1506.4000244141</ele>
        <time>2020-08-13T09:11:06.000Z</time>
      </trkpt>
      <trkpt lat="44.18204" lon="6.63767">
        <ele>1505.5999755859</ele>
        <time>2020-08-13T09:11:07.000Z</time>
      </trkpt>
      <trkpt lat="44.18209" lon="6.63776">
        <ele>1504.8000488281</ele>
        <time>2020-08-13T09:11:08.000Z</time>
      </trkpt>
      <trkpt lat="44.18216" lon="6.63781">
        <ele>1504.1999511719</ele>
        <time>2020-08-13T09:11:09.000Z</time>
      </trkpt>
      <trkpt lat="44.18223" lon="6.63784">
        <ele>1503.4000244141</ele>
        <time>2020-08-13T09:11:10.000Z</time>
      </trkpt>
      <trkpt lat="44.18241" lon="6.63783">
        <ele>1501.5999755859</ele>
        <time>2020-08-13T09:11:12.000Z</time>
      </trkpt>
      <trkpt lat="44.1825" lon="6.63782">
        <ele>1501</ele>
        <time>2020-08-13T09:11:13.000Z</time>
      </trkpt>
      <trkpt lat="44.1826" lon="6.6378">
        <ele>1500.4000244141</ele>
        <time>2020-08-13T09:11:14.000Z</time>
      </trkpt>
      <trkpt lat="44.1828" lon="6.63776">
        <ele>1498.8000488281</ele>
        <time>2020-08-13T09:11:16.000Z</time>
      </trkpt>
      <trkpt lat="44.18292" lon="6.63772">
        <ele>1498</ele>
        <time>2020-08-13T09:11:17.000Z</time>
      </trkpt>
      <trkpt lat="44.18303" lon="6.63769">
        <ele>1496.5999755859</ele>
        <time>2020-08-13T09:11:18.000Z</time>
      </trkpt>
      <trkpt lat="44.18314" lon="6.63765">
        <ele>1495.1999511719</ele>
        <time>2020-08-13T09:11:19.000Z</time>
      </trkpt>
      <trkpt lat="44.18327" lon="6.6376">
        <ele>1494.1999511719</ele>
        <time>2020-08-13T09:11:20.000Z</time>
      </trkpt>
      <trkpt lat="44.18345" lon="6.63754">
        <ele>1492.1999511719</ele>
        <time>2020-08-13T09:11:22.000Z</time>
      </trkpt>
      <trkpt lat="44.18356" lon="6.63753">
        <ele>1491.4000244141</ele>
        <time>2020-08-13T09:11:23.000Z</time>
      </trkpt>
      <trkpt lat="44.18364" lon="6.63755">
        <ele>1490.8000488281</ele>
        <time>2020-08-13T09:11:24.000Z</time>
      </trkpt>
      <trkpt lat="44.18371" lon="6.63758">
        <ele>1490</ele>
        <time>2020-08-13T09:11:25.000Z</time>
      </trkpt>
      <trkpt lat="44.18376" lon="6.63761">
        <ele>1489.4000244141</ele>
        <time>2020-08-13T09:11:26.000Z</time>
      </trkpt>
      <trkpt lat="44.18384" lon="6.63768">
        <ele>1488.1999511719</ele>
        <time>2020-08-13T09:11:28.000Z</time>
      </trkpt>
      <trkpt lat="44.18387" lon="6.63764">
        <ele>1487.4000244141</ele>
        <time>2020-08-13T09:11:30.000Z</time>
      </trkpt>
      <trkpt lat="44.18384" lon="6.63757">
        <ele>1487.1999511719</ele>
        <time>2020-08-13T09:11:31.000Z</time>
      </trkpt>
      <trkpt lat="44.18378" lon="6.63751">
        <ele>1486.8000488281</ele>
        <time>2020-08-13T09:11:32.000Z</time>
      </trkpt>
      <trkpt lat="44.18373" lon="6.63745">
        <ele>1486.4000244141</ele>
        <time>2020-08-13T09:11:33.000Z</time>
      </trkpt>
      <trkpt lat="44.18367" lon="6.63738">
        <ele>1486</ele>
        <time>2020-08-13T09:11:34.000Z</time>
      </trkpt>
      <trkpt lat="44.1836" lon="6.63733">
        <ele>1485.4000244141</ele>
        <time>2020-08-13T09:11:35.000Z</time>
      </trkpt>
      <trkpt lat="44.18352" lon="6.63729">
        <ele>1484.5999755859</ele>
        <time>2020-08-13T09:11:36.000Z</time>
      </trkpt>
      <trkpt lat="44.18333" lon="6.63724">
        <ele>1483.1999511719</ele>
        <time>2020-08-13T09:11:38.000Z</time>
      </trkpt>
      <trkpt lat="44.18323" lon="6.63723">
        <ele>1482.5999755859</ele>
        <time>2020-08-13T09:11:39.000Z</time>
      </trkpt>
      <trkpt lat="44.18312" lon="6.63723">
        <ele>1481.8000488281</ele>
        <time>2020-08-13T09:11:40.000Z</time>
      </trkpt>
      <trkpt lat="44.18288" lon="6.63721">
        <ele>1480</ele>
        <time>2020-08-13T09:11:42.000Z</time>
      </trkpt>
      <trkpt lat="44.18277" lon="6.63717">
        <ele>1478.8000488281</ele>
        <time>2020-08-13T09:11:43.000Z</time>
      </trkpt>
      <trkpt lat="44.18266" lon="6.63713">
        <ele>1477.5999755859</ele>
        <time>2020-08-13T09:11:44.000Z</time>
      </trkpt>
      <trkpt lat="44.18255" lon="6.6371">
        <ele>1476.4000244141</ele>
        <time>2020-08-13T09:11:45.000Z</time>
      </trkpt>
      <trkpt lat="44.18245" lon="6.63707">
        <ele>1474.8000488281</ele>
        <time>2020-08-13T09:11:46.000Z</time>
      </trkpt>
      <trkpt lat="44.18234" lon="6.63705">
        <ele>1473.5999755859</ele>
        <time>2020-08-13T09:11:47.000Z</time>
      </trkpt>
      <trkpt lat="44.18225" lon="6.63703">
        <ele>1472.4000244141</ele>
        <time>2020-08-13T09:11:48.000Z</time>
      </trkpt>
      <trkpt lat="44.18212" lon="6.63697">
        <ele>1470.5999755859</ele>
        <time>2020-08-13T09:11:50.000Z</time>
      </trkpt>
      <trkpt lat="44.18209" lon="6.63693">
        <ele>1470.4000244141</ele>
        <time>2020-08-13T09:11:51.000Z</time>
      </trkpt>
      <trkpt lat="44.18209" lon="6.63688">
        <ele>1469.8000488281</ele>
        <time>2020-08-13T09:11:52.000Z</time>
      </trkpt>
      <trkpt lat="44.18218" lon="6.63683">
        <ele>1469.4000244141</ele>
        <time>2020-08-13T09:11:54.000Z</time>
      </trkpt>
      <trkpt lat="44.1823" lon="6.63687">
        <ele>1468.8000488281</ele>
        <time>2020-08-13T09:11:56.000Z</time>
      </trkpt>
      <trkpt lat="44.18237" lon="6.63685">
        <ele>1468.4000244141</ele>
        <time>2020-08-13T09:11:57.000Z</time>
      </trkpt>
      <trkpt lat="44.18258" lon="6.63676">
        <ele>1466.8000488281</ele>
        <time>2020-08-13T09:12:00.000Z</time>
      </trkpt>
      <trkpt lat="44.18265" lon="6.63672">
        <ele>1466.5999755859</ele>
        <time>2020-08-13T09:12:01.000Z</time>
      </trkpt>
      <trkpt lat="44.18284" lon="6.63662">
        <ele>1465.4000244141</ele>
        <time>2020-08-13T09:12:03.000Z</time>
      </trkpt>
      <trkpt lat="44.18303" lon="6.63653">
        <ele>1464</ele>
        <time>2020-08-13T09:12:05.000Z</time>
      </trkpt>
      <trkpt lat="44.18324" lon="6.63648">
        <ele>1461.8000488281</ele>
        <time>2020-08-13T09:12:07.000Z</time>
      </trkpt>
      <trkpt lat="44.18348" lon="6.63647">
        <ele>1459.8000488281</ele>
        <time>2020-08-13T09:12:09.000Z</time>
      </trkpt>
      <trkpt lat="44.18359" lon="6.63647">
        <ele>1458.4000244141</ele>
        <time>2020-08-13T09:12:10.000Z</time>
      </trkpt>
      <trkpt lat="44.1837" lon="6.63648">
        <ele>1456.8000488281</ele>
        <time>2020-08-13T09:12:11.000Z</time>
      </trkpt>
      <trkpt lat="44.18391" lon="6.63654">
        <ele>1455.1999511719</ele>
        <time>2020-08-13T09:12:13.000Z</time>
      </trkpt>
      <trkpt lat="44.184" lon="6.63659">
        <ele>1454.5999755859</ele>
        <time>2020-08-13T09:12:14.000Z</time>
      </trkpt>
      <trkpt lat="44.1841" lon="6.63663">
        <ele>1454</ele>
        <time>2020-08-13T09:12:15.000Z</time>
      </trkpt>
      <trkpt lat="44.18418" lon="6.63665">
        <ele>1453.4000244141</ele>
        <time>2020-08-13T09:12:16.000Z</time>
      </trkpt>
      <trkpt lat="44.18429" lon="6.63665">
        <ele>1452.8000488281</ele>
        <time>2020-08-13T09:12:17.000Z</time>
      </trkpt>
      <trkpt lat="44.18439" lon="6.63662">
        <ele>1451.4000244141</ele>
        <time>2020-08-13T09:12:18.000Z</time>
      </trkpt>
      <trkpt lat="44.18448" lon="6.63659">
        <ele>1450.5999755859</ele>
        <time>2020-08-13T09:12:19.000Z</time>
      </trkpt>
      <trkpt lat="44.18457" lon="6.63655">
        <ele>1449.5999755859</ele>
        <time>2020-08-13T09:12:20.000Z</time>
      </trkpt>
      <trkpt lat="44.18466" lon="6.63653">
        <ele>1448.8000488281</ele>
        <time>2020-08-13T09:12:21.000Z</time>
      </trkpt>
      <trkpt lat="44.18476" lon="6.63653">
        <ele>1448</ele>
        <time>2020-08-13T09:12:22.000Z</time>
      </trkpt>
      <trkpt lat="44.18487" lon="6.63654">
        <ele>1447.1999511719</ele>
        <time>2020-08-13T09:12:23.000Z</time>
      </trkpt>
      <trkpt lat="44.18497" lon="6.63654">
        <ele>1446.1999511719</ele>
        <time>2020-08-13T09:12:24.000Z</time>
      </trkpt>
      <trkpt lat="44.18506" lon="6.63654">
        <ele>1445</ele>
        <time>2020-08-13T09:12:25.000Z</time>
      </trkpt>
      <trkpt lat="44.18512" lon="6.63656">
        <ele>1444.4000244141</ele>
        <time>2020-08-13T09:12:26.000Z</time>
      </trkpt>
      <trkpt lat="44.18519" lon="6.63661">
        <ele>1443.4000244141</ele>
        <time>2020-08-13T09:12:27.000Z</time>
      </trkpt>
      <trkpt lat="44.18524" lon="6.63665">
        <ele>1442.1999511719</ele>
        <time>2020-08-13T09:12:28.000Z</time>
      </trkpt>
      <trkpt lat="44.18531" lon="6.63663">
        <ele>1440.8000488281</ele>
        <time>2020-08-13T09:12:30.000Z</time>
      </trkpt>
      <trkpt lat="44.1853" lon="6.6365">
        <ele>1440</ele>
        <time>2020-08-13T09:12:32.000Z</time>
      </trkpt>
      <trkpt lat="44.18526" lon="6.63643">
        <ele>1439.5999755859</ele>
        <time>2020-08-13T09:12:33.000Z</time>
      </trkpt>
      <trkpt lat="44.18516" lon="6.63629">
        <ele>1439</ele>
        <time>2020-08-13T09:12:35.000Z</time>
      </trkpt>
      <trkpt lat="44.18501" lon="6.63617">
        <ele>1437.8000488281</ele>
        <time>2020-08-13T09:12:37.000Z</time>
      </trkpt>
      <trkpt lat="44.18492" lon="6.63613">
        <ele>1436.8000488281</ele>
        <time>2020-08-13T09:12:38.000Z</time>
      </trkpt>
      <trkpt lat="44.18483" lon="6.6361">
        <ele>1435.8000488281</ele>
        <time>2020-08-13T09:12:39.000Z</time>
      </trkpt>
      <trkpt lat="44.18473" lon="6.63607">
        <ele>1434.4000244141</ele>
        <time>2020-08-13T09:12:40.000Z</time>
      </trkpt>
      <trkpt lat="44.18463" lon="6.63604">
        <ele>1433</ele>
        <time>2020-08-13T09:12:41.000Z</time>
      </trkpt>
      <trkpt lat="44.18452" lon="6.63601">
        <ele>1432</ele>
        <time>2020-08-13T09:12:42.000Z</time>
      </trkpt>
      <trkpt lat="44.18441" lon="6.636">
        <ele>1431.1999511719</ele>
        <time>2020-08-13T09:12:43.000Z</time>
      </trkpt>
      <trkpt lat="44.18429" lon="6.63597">
        <ele>1430.1999511719</ele>
        <time>2020-08-13T09:12:44.000Z</time>
      </trkpt>
      <trkpt lat="44.18407" lon="6.63589">
        <ele>1428.8000488281</ele>
        <time>2020-08-13T09:12:46.000Z</time>
      </trkpt>
      <trkpt lat="44.18395" lon="6.63583">
        <ele>1427.5999755859</ele>
        <time>2020-08-13T09:12:47.000Z</time>
      </trkpt>
      <trkpt lat="44.18383" lon="6.63577">
        <ele>1426.4000244141</ele>
        <time>2020-08-13T09:12:48.000Z</time>
      </trkpt>
      <trkpt lat="44.1836" lon="6.63569">
        <ele>1424.4000244141</ele>
        <time>2020-08-13T09:12:50.000Z</time>
      </trkpt>
      <trkpt lat="44.1835" lon="6.63565">
        <ele>1423.4000244141</ele>
        <time>2020-08-13T09:12:51.000Z</time>
      </trkpt>
      <trkpt lat="44.1834" lon="6.63558">
        <ele>1422.1999511719</ele>
        <time>2020-08-13T09:12:52.000Z</time>
      </trkpt>
      <trkpt lat="44.18322" lon="6.63536">
        <ele>1420.4000244141</ele>
        <time>2020-08-13T09:12:54.000Z</time>
      </trkpt>
      <trkpt lat="44.18315" lon="6.63525">
        <ele>1419.4000244141</ele>
        <time>2020-08-13T09:12:55.000Z</time>
      </trkpt>
      <trkpt lat="44.18307" lon="6.63516">
        <ele>1418.8000488281</ele>
        <time>2020-08-13T09:12:56.000Z</time>
      </trkpt>
      <trkpt lat="44.18288" lon="6.63501">
        <ele>1417.4000244141</ele>
        <time>2020-08-13T09:12:58.000Z</time>
      </trkpt>
      <trkpt lat="44.18267" lon="6.63493">
        <ele>1415.8000488281</ele>
        <time>2020-08-13T09:13:00.000Z</time>
      </trkpt>
      <trkpt lat="44.18257" lon="6.63492">
        <ele>1414.8000488281</ele>
        <time>2020-08-13T09:13:01.000Z</time>
      </trkpt>
      <trkpt lat="44.18246" lon="6.63492">
        <ele>1413.5999755859</ele>
        <time>2020-08-13T09:13:02.000Z</time>
      </trkpt>
      <trkpt lat="44.18225" lon="6.63486">
        <ele>1412</ele>
        <time>2020-08-13T09:13:04.000Z</time>
      </trkpt>
      <trkpt lat="44.18214" lon="6.63478">
        <ele>1410.5999755859</ele>
        <time>2020-08-13T09:13:05.000Z</time>
      </trkpt>
      <trkpt lat="44.18197" lon="6.6346">
        <ele>1408.5999755859</ele>
        <time>2020-08-13T09:13:07.000Z</time>
      </trkpt>
      <trkpt lat="44.18188" lon="6.63454">
        <ele>1407.4000244141</ele>
        <time>2020-08-13T09:13:08.000Z</time>
      </trkpt>
      <trkpt lat="44.1817" lon="6.63449">
        <ele>1405.8000488281</ele>
        <time>2020-08-13T09:13:10.000Z</time>
      </trkpt>
      <trkpt lat="44.18163" lon="6.63449">
        <ele>1404.8000488281</ele>
        <time>2020-08-13T09:13:11.000Z</time>
      </trkpt>
      <trkpt lat="44.18151" lon="6.63455">
        <ele>1403.8000488281</ele>
        <time>2020-08-13T09:13:13.000Z</time>
      </trkpt>
      <trkpt lat="44.18146" lon="6.63459">
        <ele>1402.8000488281</ele>
        <time>2020-08-13T09:13:14.000Z</time>
      </trkpt>
      <trkpt lat="44.18142" lon="6.63459">
        <ele>1402.4000244141</ele>
        <time>2020-08-13T09:13:15.000Z</time>
      </trkpt>
      <trkpt lat="44.1814" lon="6.63455">
        <ele>1402.1999511719</ele>
        <time>2020-08-13T09:13:16.000Z</time>
      </trkpt>
      <trkpt lat="44.18142" lon="6.63447">
        <ele>1401.5999755859</ele>
        <time>2020-08-13T09:13:18.000Z</time>
      </trkpt>
      <trkpt lat="44.18146" lon="6.63446">
        <ele>1401.4000244141</ele>
        <time>2020-08-13T09:13:19.000Z</time>
      </trkpt>
      <trkpt lat="44.18154" lon="6.6344">
        <ele>1400.5999755859</ele>
        <time>2020-08-13T09:13:21.000Z</time>
      </trkpt>
      <trkpt lat="44.1816" lon="6.63435">
        <ele>1400.1999511719</ele>
        <time>2020-08-13T09:13:22.000Z</time>
      </trkpt>
      <trkpt lat="44.18173" lon="6.63425">
        <ele>1399</ele>
        <time>2020-08-13T09:13:24.000Z</time>
      </trkpt>
      <trkpt lat="44.18181" lon="6.6342">
        <ele>1398.4000244141</ele>
        <time>2020-08-13T09:13:25.000Z</time>
      </trkpt>
      <trkpt lat="44.18189" lon="6.63417">
        <ele>1397.4000244141</ele>
        <time>2020-08-13T09:13:26.000Z</time>
      </trkpt>
      <trkpt lat="44.18206" lon="6.63413">
        <ele>1395.5999755859</ele>
        <time>2020-08-13T09:13:28.000Z</time>
      </trkpt>
      <trkpt lat="44.18217" lon="6.63413">
        <ele>1394.5999755859</ele>
        <time>2020-08-13T09:13:29.000Z</time>
      </trkpt>
      <trkpt lat="44.18226" lon="6.63414">
        <ele>1393.8000488281</ele>
        <time>2020-08-13T09:13:30.000Z</time>
      </trkpt>
      <trkpt lat="44.18235" lon="6.63416">
        <ele>1393.1999511719</ele>
        <time>2020-08-13T09:13:31.000Z</time>
      </trkpt>
      <trkpt lat="44.18246" lon="6.63417">
        <ele>1392.5999755859</ele>
        <time>2020-08-13T09:13:32.000Z</time>
      </trkpt>
      <trkpt lat="44.18255" lon="6.63418">
        <ele>1391.5999755859</ele>
        <time>2020-08-13T09:13:33.000Z</time>
      </trkpt>
      <trkpt lat="44.18265" lon="6.63421">
        <ele>1390.8000488281</ele>
        <time>2020-08-13T09:13:34.000Z</time>
      </trkpt>
      <trkpt lat="44.18286" lon="6.6343">
        <ele>1388.8000488281</ele>
        <time>2020-08-13T09:13:36.000Z</time>
      </trkpt>
      <trkpt lat="44.18298" lon="6.63434">
        <ele>1387.8000488281</ele>
        <time>2020-08-13T09:13:37.000Z</time>
      </trkpt>
      <trkpt lat="44.18309" lon="6.63438">
        <ele>1387.1999511719</ele>
        <time>2020-08-13T09:13:38.000Z</time>
      </trkpt>
      <trkpt lat="44.18332" lon="6.63445">
        <ele>1384.8000488281</ele>
        <time>2020-08-13T09:13:40.000Z</time>
      </trkpt>
      <trkpt lat="44.18356" lon="6.6345">
        <ele>1382.5999755859</ele>
        <time>2020-08-13T09:13:42.000Z</time>
      </trkpt>
      <trkpt lat="44.18367" lon="6.63451">
        <ele>1381.5999755859</ele>
        <time>2020-08-13T09:13:43.000Z</time>
      </trkpt>
      <trkpt lat="44.1839" lon="6.63451">
        <ele>1380.1999511719</ele>
        <time>2020-08-13T09:13:45.000Z</time>
      </trkpt>
      <trkpt lat="44.184" lon="6.63448">
        <ele>1379.4000244141</ele>
        <time>2020-08-13T09:13:46.000Z</time>
      </trkpt>
      <trkpt lat="44.18412" lon="6.63442">
        <ele>1378.4000244141</ele>
        <time>2020-08-13T09:13:47.000Z</time>
      </trkpt>
      <trkpt lat="44.18434" lon="6.63429">
        <ele>1376.4000244141</ele>
        <time>2020-08-13T09:13:49.000Z</time>
      </trkpt>
      <trkpt lat="44.18445" lon="6.63421">
        <ele>1375.1999511719</ele>
        <time>2020-08-13T09:13:50.000Z</time>
      </trkpt>
      <trkpt lat="44.18468" lon="6.63406">
        <ele>1373.1999511719</ele>
        <time>2020-08-13T09:13:52.000Z</time>
      </trkpt>
      <trkpt lat="44.1849" lon="6.63393">
        <ele>1371.4000244141</ele>
        <time>2020-08-13T09:13:54.000Z</time>
      </trkpt>
      <trkpt lat="44.185" lon="6.6339">
        <ele>1370.4000244141</ele>
        <time>2020-08-13T09:13:55.000Z</time>
      </trkpt>
      <trkpt lat="44.18511" lon="6.63388">
        <ele>1370</ele>
        <time>2020-08-13T09:13:56.000Z</time>
      </trkpt>
      <trkpt lat="44.18532" lon="6.63387">
        <ele>1368.4000244141</ele>
        <time>2020-08-13T09:13:58.000Z</time>
      </trkpt>
      <trkpt lat="44.18542" lon="6.63387">
        <ele>1367.1999511719</ele>
        <time>2020-08-13T09:13:59.000Z</time>
      </trkpt>
      <trkpt lat="44.1856" lon="6.63389">
        <ele>1365.5999755859</ele>
        <time>2020-08-13T09:14:01.000Z</time>
      </trkpt>
      <trkpt lat="44.18569" lon="6.63392">
        <ele>1364.8000488281</ele>
        <time>2020-08-13T09:14:02.000Z</time>
      </trkpt>
      <trkpt lat="44.18575" lon="6.63395">
        <ele>1364</ele>
        <time>2020-08-13T09:14:03.000Z</time>
      </trkpt>
      <trkpt lat="44.18586" lon="6.63397">
        <ele>1362.8000488281</ele>
        <time>2020-08-13T09:14:05.000Z</time>
      </trkpt>
      <trkpt lat="44.18592" lon="6.6339">
        <ele>1361.8000488281</ele>
        <time>2020-08-13T09:14:07.000Z</time>
      </trkpt>
      <trkpt lat="44.1859" lon="6.63385">
        <ele>1361.4000244141</ele>
        <time>2020-08-13T09:14:08.000Z</time>
      </trkpt>
      <trkpt lat="44.18587" lon="6.63382">
        <ele>1361.1999511719</ele>
        <time>2020-08-13T09:14:09.000Z</time>
      </trkpt>
      <trkpt lat="44.18569" lon="6.63376">
        <ele>1360.1999511719</ele>
        <time>2020-08-13T09:14:12.000Z</time>
      </trkpt>
      <trkpt lat="44.18563" lon="6.63375">
        <ele>1359.8000488281</ele>
        <time>2020-08-13T09:14:13.000Z</time>
      </trkpt>
      <trkpt lat="44.18547" lon="6.63369">
        <ele>1358.8000488281</ele>
        <time>2020-08-13T09:14:15.000Z</time>
      </trkpt>
      <trkpt lat="44.18539" lon="6.63365">
        <ele>1357.8000488281</ele>
        <time>2020-08-13T09:14:16.000Z</time>
      </trkpt>
      <trkpt lat="44.1852" lon="6.63357">
        <ele>1356</ele>
        <time>2020-08-13T09:14:18.000Z</time>
      </trkpt>
      <trkpt lat="44.1851" lon="6.63353">
        <ele>1355</ele>
        <time>2020-08-13T09:14:19.000Z</time>
      </trkpt>
      <trkpt lat="44.18499" lon="6.63351">
        <ele>1353.8000488281</ele>
        <time>2020-08-13T09:14:20.000Z</time>
      </trkpt>
      <trkpt lat="44.18489" lon="6.6335">
        <ele>1352.8000488281</ele>
        <time>2020-08-13T09:14:21.000Z</time>
      </trkpt>
      <trkpt lat="44.18477" lon="6.63351">
        <ele>1351.5999755859</ele>
        <time>2020-08-13T09:14:22.000Z</time>
      </trkpt>
      <trkpt lat="44.18465" lon="6.63353">
        <ele>1350.5999755859</ele>
        <time>2020-08-13T09:14:23.000Z</time>
      </trkpt>
      <trkpt lat="44.18443" lon="6.63356">
        <ele>1348.8000488281</ele>
        <time>2020-08-13T09:14:25.000Z</time>
      </trkpt>
      <trkpt lat="44.18433" lon="6.63356">
        <ele>1348.1999511719</ele>
        <time>2020-08-13T09:14:26.000Z</time>
      </trkpt>
      <trkpt lat="44.18422" lon="6.63355">
        <ele>1347.4000244141</ele>
        <time>2020-08-13T09:14:27.000Z</time>
      </trkpt>
      <trkpt lat="44.18403" lon="6.63346">
        <ele>1346.5999755859</ele>
        <time>2020-08-13T09:14:29.000Z</time>
      </trkpt>
      <trkpt lat="44.18388" lon="6.63333">
        <ele>1346.1999511719</ele>
        <time>2020-08-13T09:14:31.000Z</time>
      </trkpt>
      <trkpt lat="44.1838" lon="6.63327">
        <ele>1346</ele>
        <time>2020-08-13T09:14:32.000Z</time>
      </trkpt>
      <trkpt lat="44.18364" lon="6.63316">
        <ele>1345</ele>
        <time>2020-08-13T09:14:34.000Z</time>
      </trkpt>
      <trkpt lat="44.18344" lon="6.6331">
        <ele>1343.5999755859</ele>
        <time>2020-08-13T09:14:36.000Z</time>
      </trkpt>
      <trkpt lat="44.18334" lon="6.63308">
        <ele>1342.1999511719</ele>
        <time>2020-08-13T09:14:37.000Z</time>
      </trkpt>
      <trkpt lat="44.18315" lon="6.63305">
        <ele>1340.1999511719</ele>
        <time>2020-08-13T09:14:39.000Z</time>
      </trkpt>
      <trkpt lat="44.18297" lon="6.63305">
        <ele>1338.8000488281</ele>
        <time>2020-08-13T09:14:41.000Z</time>
      </trkpt>
      <trkpt lat="44.18279" lon="6.63308">
        <ele>1337.4000244141</ele>
        <time>2020-08-13T09:14:43.000Z</time>
      </trkpt>
      <trkpt lat="44.18268" lon="6.63308">
        <ele>1337</ele>
        <time>2020-08-13T09:14:44.000Z</time>
      </trkpt>
      <trkpt lat="44.18258" lon="6.63303">
        <ele>1336.4000244141</ele>
        <time>2020-08-13T09:14:45.000Z</time>
      </trkpt>
      <trkpt lat="44.18239" lon="6.63295">
        <ele>1334.8000488281</ele>
        <time>2020-08-13T09:14:47.000Z</time>
      </trkpt>
      <trkpt lat="44.18218" lon="6.63288">
        <ele>1333.1999511719</ele>
        <time>2020-08-13T09:14:49.000Z</time>
      </trkpt>
      <trkpt lat="44.18207" lon="6.63286">
        <ele>1332.1999511719</ele>
        <time>2020-08-13T09:14:50.000Z</time>
      </trkpt>
      <trkpt lat="44.18196" lon="6.63284">
        <ele>1330.8000488281</ele>
        <time>2020-08-13T09:14:51.000Z</time>
      </trkpt>
      <trkpt lat="44.18185" lon="6.63282">
        <ele>1329.4000244141</ele>
        <time>2020-08-13T09:14:52.000Z</time>
      </trkpt>
      <trkpt lat="44.18172" lon="6.63278">
        <ele>1328.1999511719</ele>
        <time>2020-08-13T09:14:53.000Z</time>
      </trkpt>
      <trkpt lat="44.18161" lon="6.63276">
        <ele>1327</ele>
        <time>2020-08-13T09:14:54.000Z</time>
      </trkpt>
      <trkpt lat="44.18152" lon="6.63273">
        <ele>1325.8000488281</ele>
        <time>2020-08-13T09:14:55.000Z</time>
      </trkpt>
      <trkpt lat="44.18143" lon="6.63271">
        <ele>1324.5999755859</ele>
        <time>2020-08-13T09:14:56.000Z</time>
      </trkpt>
      <trkpt lat="44.18136" lon="6.6327">
        <ele>1323.1999511719</ele>
        <time>2020-08-13T09:14:57.000Z</time>
      </trkpt>
      <trkpt lat="44.1813" lon="6.6327">
        <ele>1322.4000244141</ele>
        <time>2020-08-13T09:14:58.000Z</time>
      </trkpt>
      <trkpt lat="44.18124" lon="6.6327">
        <ele>1321.4000244141</ele>
        <time>2020-08-13T09:14:59.000Z</time>
      </trkpt>
      <trkpt lat="44.1812" lon="6.63271">
        <ele>1321.1999511719</ele>
        <time>2020-08-13T09:15:00.000Z</time>
      </trkpt>
      <trkpt lat="44.18116" lon="6.63262">
        <ele>1320.5999755859</ele>
        <time>2020-08-13T09:15:03.000Z</time>
      </trkpt>
      <trkpt lat="44.18122" lon="6.63259">
        <ele>1320.4000244141</ele>
        <time>2020-08-13T09:15:05.000Z</time>
      </trkpt>
      <trkpt lat="44.18126" lon="6.63258">
        <ele>1320.4000244141</ele>
        <time>2020-08-13T09:15:06.000Z</time>
      </trkpt>
      <trkpt lat="44.18131" lon="6.63257">
        <ele>1320.1999511719</ele>
        <time>2020-08-13T09:15:07.000Z</time>
      </trkpt>
      <trkpt lat="44.18137" lon="6.63258">
        <ele>1319.8000488281</ele>
        <time>2020-08-13T09:15:08.000Z</time>
      </trkpt>
      <trkpt lat="44.18143" lon="6.63258">
        <ele>1319.4000244141</ele>
        <time>2020-08-13T09:15:09.000Z</time>
      </trkpt>
      <trkpt lat="44.18148" lon="6.63259">
        <ele>1318.8000488281</ele>
        <time>2020-08-13T09:15:10.000Z</time>
      </trkpt>
      <trkpt lat="44.18153" lon="6.6326">
        <ele>1318.1999511719</ele>
        <time>2020-08-13T09:15:11.000Z</time>
      </trkpt>
      <trkpt lat="44.18162" lon="6.63257">
        <ele>1317.1999511719</ele>
        <time>2020-08-13T09:15:14.000Z</time>
      </trkpt>
      <trkpt lat="44.18159" lon="6.63252">
        <ele>1317</ele>
        <time>2020-08-13T09:15:15.000Z</time>
      </trkpt>
      <trkpt lat="44.18155" lon="6.6325">
        <ele>1316.8000488281</ele>
        <time>2020-08-13T09:15:16.000Z</time>
      </trkpt>
      <trkpt lat="44.18145" lon="6.63247">
        <ele>1316</ele>
        <time>2020-08-13T09:15:18.000Z</time>
      </trkpt>
      <trkpt lat="44.18139" lon="6.63246">
        <ele>1315.8000488281</ele>
        <time>2020-08-13T09:15:19.000Z</time>
      </trkpt>
      <trkpt lat="44.18132" lon="6.63244">
        <ele>1315.4000244141</ele>
        <time>2020-08-13T09:15:20.000Z</time>
      </trkpt>
      <trkpt lat="44.18118" lon="6.63243">
        <ele>1314.8000488281</ele>
        <time>2020-08-13T09:15:22.000Z</time>
      </trkpt>
      <trkpt lat="44.1811" lon="6.63245">
        <ele>1314.1999511719</ele>
        <time>2020-08-13T09:15:23.000Z</time>
      </trkpt>
      <trkpt lat="44.18103" lon="6.63249">
        <ele>1313.4000244141</ele>
        <time>2020-08-13T09:15:24.000Z</time>
      </trkpt>
      <trkpt lat="44.18088" lon="6.63254">
        <ele>1312</ele>
        <time>2020-08-13T09:15:26.000Z</time>
      </trkpt>
      <trkpt lat="44.18073" lon="6.63256">
        <ele>1311</ele>
        <time>2020-08-13T09:15:28.000Z</time>
      </trkpt>
      <trkpt lat="44.18065" lon="6.6326">
        <ele>1310.5999755859</ele>
        <time>2020-08-13T09:15:29.000Z</time>
      </trkpt>
      <trkpt lat="44.18051" lon="6.63266">
        <ele>1309.8000488281</ele>
        <time>2020-08-13T09:15:31.000Z</time>
      </trkpt>
      <trkpt lat="44.18042" lon="6.63268">
        <ele>1309.5999755859</ele>
        <time>2020-08-13T09:15:32.000Z</time>
      </trkpt>
      <trkpt lat="44.18025" lon="6.63266">
        <ele>1309.4000244141</ele>
        <time>2020-08-13T09:15:34.000Z</time>
      </trkpt>
      <trkpt lat="44.18015" lon="6.63263">
        <ele>1309</ele>
        <time>2020-08-13T09:15:35.000Z</time>
      </trkpt>
      <trkpt lat="44.18007" lon="6.63261">
        <ele>1308.5999755859</ele>
        <time>2020-08-13T09:15:36.000Z</time>
      </trkpt>
      <trkpt lat="44.17992" lon="6.63258">
        <ele>1307.1999511719</ele>
        <time>2020-08-13T09:15:38.000Z</time>
      </trkpt>
      <trkpt lat="44.17984" lon="6.63254">
        <ele>1306.1999511719</ele>
        <time>2020-08-13T09:15:40.000Z</time>
      </trkpt>
      <trkpt lat="44.17984" lon="6.63248">
        <ele>1305.8000488281</ele>
        <time>2020-08-13T09:15:41.000Z</time>
      </trkpt>
      <trkpt lat="44.1799" lon="6.63242">
        <ele>1305</ele>
        <time>2020-08-13T09:15:43.000Z</time>
      </trkpt>
      <trkpt lat="44.18006" lon="6.63244">
        <ele>1304.1999511719</ele>
        <time>2020-08-13T09:15:46.000Z</time>
      </trkpt>
      <trkpt lat="44.18013" lon="6.63244">
        <ele>1303.5999755859</ele>
        <time>2020-08-13T09:15:47.000Z</time>
      </trkpt>
      <trkpt lat="44.18029" lon="6.63242">
        <ele>1302.5999755859</ele>
        <time>2020-08-13T09:15:49.000Z</time>
      </trkpt>
      <trkpt lat="44.18037" lon="6.63238">
        <ele>1302.1999511719</ele>
        <time>2020-08-13T09:15:50.000Z</time>
      </trkpt>
      <trkpt lat="44.18054" lon="6.63229">
        <ele>1300.5999755859</ele>
        <time>2020-08-13T09:15:52.000Z</time>
      </trkpt>
      <trkpt lat="44.18064" lon="6.63221">
        <ele>1299.8000488281</ele>
        <time>2020-08-13T09:15:53.000Z</time>
      </trkpt>
      <trkpt lat="44.18073" lon="6.63214">
        <ele>1298.8000488281</ele>
        <time>2020-08-13T09:15:54.000Z</time>
      </trkpt>
      <trkpt lat="44.18088" lon="6.632">
        <ele>1297</ele>
        <time>2020-08-13T09:15:56.000Z</time>
      </trkpt>
      <trkpt lat="44.18096" lon="6.63194">
        <ele>1295.8000488281</ele>
        <time>2020-08-13T09:15:57.000Z</time>
      </trkpt>
      <trkpt lat="44.18104" lon="6.6319">
        <ele>1294.8000488281</ele>
        <time>2020-08-13T09:15:58.000Z</time>
      </trkpt>
      <trkpt lat="44.18113" lon="6.63186">
        <ele>1294.1999511719</ele>
        <time>2020-08-13T09:15:59.000Z</time>
      </trkpt>
      <trkpt lat="44.18132" lon="6.63183">
        <ele>1293</ele>
        <time>2020-08-13T09:16:01.000Z</time>
      </trkpt>
      <trkpt lat="44.18143" lon="6.63182">
        <ele>1292.4000244141</ele>
        <time>2020-08-13T09:16:02.000Z</time>
      </trkpt>
      <trkpt lat="44.18154" lon="6.63181">
        <ele>1291.4000244141</ele>
        <time>2020-08-13T09:16:03.000Z</time>
      </trkpt>
      <trkpt lat="44.18177" lon="6.63178">
        <ele>1289.5999755859</ele>
        <time>2020-08-13T09:16:05.000Z</time>
      </trkpt>
      <trkpt lat="44.18187" lon="6.63177">
        <ele>1288.4000244141</ele>
        <time>2020-08-13T09:16:06.000Z</time>
      </trkpt>
      <trkpt lat="44.18199" lon="6.63176">
        <ele>1287.4000244141</ele>
        <time>2020-08-13T09:16:07.000Z</time>
      </trkpt>
      <trkpt lat="44.1821" lon="6.63176">
        <ele>1286.4000244141</ele>
        <time>2020-08-13T09:16:08.000Z</time>
      </trkpt>
      <trkpt lat="44.1822" lon="6.63175">
        <ele>1285.1999511719</ele>
        <time>2020-08-13T09:16:09.000Z</time>
      </trkpt>
      <trkpt lat="44.1823" lon="6.63174">
        <ele>1284</ele>
        <time>2020-08-13T09:16:10.000Z</time>
      </trkpt>
      <trkpt lat="44.1824" lon="6.6317">
        <ele>1283.1999511719</ele>
        <time>2020-08-13T09:16:11.000Z</time>
      </trkpt>
      <trkpt lat="44.18251" lon="6.63165">
        <ele>1282.4000244141</ele>
        <time>2020-08-13T09:16:12.000Z</time>
      </trkpt>
      <trkpt lat="44.1827" lon="6.63155">
        <ele>1280.5999755859</ele>
        <time>2020-08-13T09:16:14.000Z</time>
      </trkpt>
      <trkpt lat="44.18278" lon="6.63151">
        <ele>1280</ele>
        <time>2020-08-13T09:16:15.000Z</time>
      </trkpt>
      <trkpt lat="44.18287" lon="6.63149">
        <ele>1279.1999511719</ele>
        <time>2020-08-13T09:16:16.000Z</time>
      </trkpt>
      <trkpt lat="44.18297" lon="6.63144">
        <ele>1278.4000244141</ele>
        <time>2020-08-13T09:16:17.000Z</time>
      </trkpt>
      <trkpt lat="44.18305" lon="6.63138">
        <ele>1277.5999755859</ele>
        <time>2020-08-13T09:16:18.000Z</time>
      </trkpt>
      <trkpt lat="44.18313" lon="6.63131">
        <ele>1277</ele>
        <time>2020-08-13T09:16:19.000Z</time>
      </trkpt>
      <trkpt lat="44.1832" lon="6.63125">
        <ele>1276.1999511719</ele>
        <time>2020-08-13T09:16:20.000Z</time>
      </trkpt>
      <trkpt lat="44.18331" lon="6.63112">
        <ele>1274.5999755859</ele>
        <time>2020-08-13T09:16:22.000Z</time>
      </trkpt>
      <trkpt lat="44.18336" lon="6.63103">
        <ele>1274.1999511719</ele>
        <time>2020-08-13T09:16:23.000Z</time>
      </trkpt>
      <trkpt lat="44.1834" lon="6.63092">
        <ele>1273.5999755859</ele>
        <time>2020-08-13T09:16:24.000Z</time>
      </trkpt>
      <trkpt lat="44.18344" lon="6.63074">
        <ele>1272.4000244141</ele>
        <time>2020-08-13T09:16:26.000Z</time>
      </trkpt>
      <trkpt lat="44.18345" lon="6.63042">
        <ele>1271</ele>
        <time>2020-08-13T09:16:29.000Z</time>
      </trkpt>
      <trkpt lat="44.18347" lon="6.63028">
        <ele>1270</ele>
        <time>2020-08-13T09:16:31.000Z</time>
      </trkpt>
      <trkpt lat="44.18349" lon="6.63023">
        <ele>1269.4000244141</ele>
        <time>2020-08-13T09:16:32.000Z</time>
      </trkpt>
      <trkpt lat="44.18354" lon="6.63019">
        <ele>1268.8000488281</ele>
        <time>2020-08-13T09:16:34.000Z</time>
      </trkpt>
      <trkpt lat="44.18355" lon="6.63017">
        <ele>1268.4000244141</ele>
        <time>2020-08-13T09:16:35.000Z</time>
      </trkpt>
      <trkpt lat="44.18358" lon="6.63016">
        <ele>1267.5999755859</ele>
        <time>2020-08-13T09:16:38.000Z</time>
      </trkpt>
      <trkpt lat="44.18361" lon="6.63017">
        <ele>1267.1999511719</ele>
        <time>2020-08-13T09:16:40.000Z</time>
      </trkpt>
      <trkpt lat="44.18362" lon="6.63018">
        <ele>1267</ele>
        <time>2020-08-13T09:16:41.000Z</time>
      </trkpt>
      <trkpt lat="44.18363" lon="6.63019">
        <ele>1267</ele>
        <time>2020-08-13T09:16:44.000Z</time>
      </trkpt>
      <trkpt lat="44.18367" lon="6.63025">
        <ele>1267.5999755859</ele>
        <time>2020-08-13T09:16:50.000Z</time>
      </trkpt>
      <trkpt lat="44.18367" lon="6.63025">
        <ele>1267.8000488281</ele>
        <time>2020-08-13T09:16:55.000Z</time>
      </trkpt>
      <trkpt lat="44.18368" lon="6.63025">
        <ele>1267.8000488281</ele>
        <time>2020-08-13T09:17:03.000Z</time>
      </trkpt>
      <trkpt lat="44.18371" lon="6.63035">
        <ele>1268</ele>
        <time>2020-08-13T09:17:09.000Z</time>
      </trkpt>
      <trkpt lat="44.18377" lon="6.63052">
        <ele>1268.4000244141</ele>
        <time>2020-08-13T09:17:15.000Z</time>
      </trkpt>
      <trkpt lat="44.18379" lon="6.63059">
        <ele>1268.5999755859</ele>
        <time>2020-08-13T09:17:17.000Z</time>
      </trkpt>
      <trkpt lat="44.18383" lon="6.63073">
        <ele>1269.1999511719</ele>
        <time>2020-08-13T09:17:21.000Z</time>
      </trkpt>
      <trkpt lat="44.18385" lon="6.63084">
        <ele>1269.8000488281</ele>
        <time>2020-08-13T09:17:24.000Z</time>
      </trkpt>
      <trkpt lat="44.18388" lon="6.63094">
        <ele>1270.4000244141</ele>
        <time>2020-08-13T09:17:27.000Z</time>
      </trkpt>
      <trkpt lat="44.1839" lon="6.63102">
        <ele>1270.8000488281</ele>
        <time>2020-08-13T09:17:29.000Z</time>
      </trkpt>
      <trkpt lat="44.18395" lon="6.63115">
        <ele>1272</ele>
        <time>2020-08-13T09:17:33.000Z</time>
      </trkpt>
      <trkpt lat="44.18399" lon="6.63132">
        <ele>1272.5999755859</ele>
        <time>2020-08-13T09:17:38.000Z</time>
      </trkpt>
      <trkpt lat="44.18403" lon="6.63142">
        <ele>1273.1999511719</ele>
        <time>2020-08-13T09:17:41.000Z</time>
      </trkpt>
      <trkpt lat="44.18406" lon="6.6315">
        <ele>1273.5999755859</ele>
        <time>2020-08-13T09:17:43.000Z</time>
      </trkpt>
      <trkpt lat="44.1842" lon="6.6317">
        <ele>1274.1999511719</ele>
        <time>2020-08-13T09:17:49.000Z</time>
      </trkpt>
      <trkpt lat="44.18431" lon="6.63177">
        <ele>1275.5999755859</ele>
        <time>2020-08-13T09:17:53.000Z</time>
      </trkpt>
      <trkpt lat="44.18434" lon="6.63179">
        <ele>1275.5999755859</ele>
        <time>2020-08-13T09:17:54.000Z</time>
      </trkpt>
      <trkpt lat="44.18455" lon="6.63183">
        <ele>1276</ele>
        <time>2020-08-13T09:17:59.000Z</time>
      </trkpt>
      <trkpt lat="44.18495" lon="6.63181">
        <ele>1276</ele>
        <time>2020-08-13T09:18:07.000Z</time>
      </trkpt>
      <trkpt lat="44.18512" lon="6.63182">
        <ele>1276</ele>
        <time>2020-08-13T09:18:10.000Z</time>
      </trkpt>
      <trkpt lat="44.18529" lon="6.63184">
        <ele>1276.1999511719</ele>
        <time>2020-08-13T09:18:13.000Z</time>
      </trkpt>
      <trkpt lat="44.18565" lon="6.63179">
        <ele>1276.1999511719</ele>
        <time>2020-08-13T09:18:19.000Z</time>
      </trkpt>
      <trkpt lat="44.18615" lon="6.63173">
        <ele>1276.4000244141</ele>
        <time>2020-08-13T09:18:27.000Z</time>
      </trkpt>
      <trkpt lat="44.18622" lon="6.63175">
        <ele>1276.5999755859</ele>
        <time>2020-08-13T09:18:28.000Z</time>
      </trkpt>
      <trkpt lat="44.18641" lon="6.63182">
        <ele>1276.5999755859</ele>
        <time>2020-08-13T09:18:31.000Z</time>
      </trkpt>
      <trkpt lat="44.18646" lon="6.63186">
        <ele>1276.5999755859</ele>
        <time>2020-08-13T09:18:32.000Z</time>
      </trkpt>
      <trkpt lat="44.18663" lon="6.63201">
        <ele>1276.8000488281</ele>
        <time>2020-08-13T09:18:35.000Z</time>
      </trkpt>
      <trkpt lat="44.18673" lon="6.63213">
        <ele>1276.8000488281</ele>
        <time>2020-08-13T09:18:37.000Z</time>
      </trkpt>
      <trkpt lat="44.18679" lon="6.63218">
        <ele>1276.8000488281</ele>
        <time>2020-08-13T09:18:38.000Z</time>
      </trkpt>
      <trkpt lat="44.18698" lon="6.6323">
        <ele>1276.5999755859</ele>
        <time>2020-08-13T09:18:41.000Z</time>
      </trkpt>
      <trkpt lat="44.18718" lon="6.63243">
        <ele>1275.5999755859</ele>
        <time>2020-08-13T09:18:44.000Z</time>
      </trkpt>
      <trkpt lat="44.18729" lon="6.63255">
        <ele>1275.5999755859</ele>
        <time>2020-08-13T09:18:46.000Z</time>
      </trkpt>
      <trkpt lat="44.18734" lon="6.63262">
        <ele>1275.5999755859</ele>
        <time>2020-08-13T09:18:47.000Z</time>
      </trkpt>
      <trkpt lat="44.18738" lon="6.63269">
        <ele>1275.5999755859</ele>
        <time>2020-08-13T09:18:48.000Z</time>
      </trkpt>
      <trkpt lat="44.18755" lon="6.63296">
        <ele>1276.4000244141</ele>
        <time>2020-08-13T09:18:52.000Z</time>
      </trkpt>
      <trkpt lat="44.18764" lon="6.63309">
        <ele>1276.5999755859</ele>
        <time>2020-08-13T09:18:54.000Z</time>
      </trkpt>
      <trkpt lat="44.18788" lon="6.63341">
        <ele>1277</ele>
        <time>2020-08-13T09:18:59.000Z</time>
      </trkpt>
      <trkpt lat="44.18827" lon="6.63391">
        <ele>1277</ele>
        <time>2020-08-13T09:19:07.000Z</time>
      </trkpt>
      <trkpt lat="44.18863" lon="6.63433">
        <ele>1277</ele>
        <time>2020-08-13T09:19:14.000Z</time>
      </trkpt>
      <trkpt lat="44.18886" lon="6.63464">
        <ele>1277.5999755859</ele>
        <time>2020-08-13T09:19:19.000Z</time>
      </trkpt>
      <trkpt lat="44.1889" lon="6.63469">
        <ele>1277.5999755859</ele>
        <time>2020-08-13T09:19:20.000Z</time>
      </trkpt>
      <trkpt lat="44.18904" lon="6.63482">
        <ele>1278</ele>
        <time>2020-08-13T09:19:23.000Z</time>
      </trkpt>
      <trkpt lat="44.18914" lon="6.63486">
        <ele>1278.4000244141</ele>
        <time>2020-08-13T09:19:25.000Z</time>
      </trkpt>
      <trkpt lat="44.18926" lon="6.63487">
        <ele>1278.8000488281</ele>
        <time>2020-08-13T09:19:27.000Z</time>
      </trkpt>
      <trkpt lat="44.18931" lon="6.63487">
        <ele>1278.8000488281</ele>
        <time>2020-08-13T09:19:28.000Z</time>
      </trkpt>
      <trkpt lat="44.18944" lon="6.63489">
        <ele>1279</ele>
        <time>2020-08-13T09:19:30.000Z</time>
      </trkpt>
      <trkpt lat="44.1899" lon="6.63497">
        <ele>1278.8000488281</ele>
        <time>2020-08-13T09:19:37.000Z</time>
      </trkpt>
      <trkpt lat="44.19026" lon="6.63507">
        <ele>1279.1999511719</ele>
        <time>2020-08-13T09:19:43.000Z</time>
      </trkpt>
      <trkpt lat="44.19075" lon="6.63522">
        <ele>1279.8000488281</ele>
        <time>2020-08-13T09:19:51.000Z</time>
      </trkpt>
      <trkpt lat="44.19093" lon="6.63524">
        <ele>1279.8000488281</ele>
        <time>2020-08-13T09:19:54.000Z</time>
      </trkpt>
      <trkpt lat="44.19111" lon="6.6352">
        <ele>1280.1999511719</ele>
        <time>2020-08-13T09:19:57.000Z</time>
      </trkpt>
      <trkpt lat="44.19152" lon="6.63508">
        <ele>1280.4000244141</ele>
        <time>2020-08-13T09:20:04.000Z</time>
      </trkpt>
      <trkpt lat="44.19162" lon="6.63504">
        <ele>1281</ele>
        <time>2020-08-13T09:20:06.000Z</time>
      </trkpt>
      <trkpt lat="44.19177" lon="6.63499">
        <ele>1281.8000488281</ele>
        <time>2020-08-13T09:20:09.000Z</time>
      </trkpt>
      <trkpt lat="44.19182" lon="6.63498">
        <ele>1282</ele>
        <time>2020-08-13T09:20:10.000Z</time>
      </trkpt>
      <trkpt lat="44.19187" lon="6.63497">
        <ele>1282.1999511719</ele>
        <time>2020-08-13T09:20:11.000Z</time>
      </trkpt>
      <trkpt lat="44.19204" lon="6.63493">
        <ele>1283.1999511719</ele>
        <time>2020-08-13T09:20:15.000Z</time>
      </trkpt>
      <trkpt lat="44.19222" lon="6.63489">
        <ele>1284</ele>
        <time>2020-08-13T09:20:19.000Z</time>
      </trkpt>
      <trkpt lat="44.19225" lon="6.63488">
        <ele>1284.1999511719</ele>
        <time>2020-08-13T09:20:20.000Z</time>
      </trkpt>
      <trkpt lat="44.19241" lon="6.63484">
        <ele>1285.1999511719</ele>
        <time>2020-08-13T09:20:24.000Z</time>
      </trkpt>
      <trkpt lat="44.19253" lon="6.63483">
        <ele>1285.8000488281</ele>
        <time>2020-08-13T09:20:27.000Z</time>
      </trkpt>
      <trkpt lat="44.1926" lon="6.63483">
        <ele>1286.1999511719</ele>
        <time>2020-08-13T09:20:29.000Z</time>
      </trkpt>
      <trkpt lat="44.19279" lon="6.63486">
        <ele>1287.4000244141</ele>
        <time>2020-08-13T09:20:34.000Z</time>
      </trkpt>
      <trkpt lat="44.19286" lon="6.63487">
        <ele>1287.5999755859</ele>
        <time>2020-08-13T09:20:36.000Z</time>
      </trkpt>
      <trkpt lat="44.19296" lon="6.6349">
        <ele>1288.4000244141</ele>
        <time>2020-08-13T09:20:39.000Z</time>
      </trkpt>
      <trkpt lat="44.19315" lon="6.63498">
        <ele>1289.4000244141</ele>
        <time>2020-08-13T09:20:45.000Z</time>
      </trkpt>
      <trkpt lat="44.19327" lon="6.63504">
        <ele>1290.5999755859</ele>
        <time>2020-08-13T09:20:49.000Z</time>
      </trkpt>
      <trkpt lat="44.19339" lon="6.63512">
        <ele>1291.4000244141</ele>
        <time>2020-08-13T09:20:53.000Z</time>
      </trkpt>
      <trkpt lat="44.19341" lon="6.63515">
        <ele>1291.8000488281</ele>
        <time>2020-08-13T09:20:54.000Z</time>
      </trkpt>
      <trkpt lat="44.19352" lon="6.63524">
        <ele>1292.8000488281</ele>
        <time>2020-08-13T09:20:58.000Z</time>
      </trkpt>
      <trkpt lat="44.19361" lon="6.63532">
        <ele>1293.5999755859</ele>
        <time>2020-08-13T09:21:01.000Z</time>
      </trkpt>
      <trkpt lat="44.19366" lon="6.63536">
        <ele>1294.1999511719</ele>
        <time>2020-08-13T09:21:03.000Z</time>
      </trkpt>
      <trkpt lat="44.19381" lon="6.63552">
        <ele>1295.1999511719</ele>
        <time>2020-08-13T09:21:09.000Z</time>
      </trkpt>
      <trkpt lat="44.19389" lon="6.6356">
        <ele>1295.8000488281</ele>
        <time>2020-08-13T09:21:12.000Z</time>
      </trkpt>
      <trkpt lat="44.19396" lon="6.63567">
        <ele>1296.4000244141</ele>
        <time>2020-08-13T09:21:15.000Z</time>
      </trkpt>
      <trkpt lat="44.19406" lon="6.63578">
        <ele>1297</ele>
        <time>2020-08-13T09:21:19.000Z</time>
      </trkpt>
      <trkpt lat="44.19413" lon="6.63584">
        <ele>1297.4000244141</ele>
        <time>2020-08-13T09:21:22.000Z</time>
      </trkpt>
      <trkpt lat="44.19426" lon="6.63593">
        <ele>1298.4000244141</ele>
        <time>2020-08-13T09:21:27.000Z</time>
      </trkpt>
      <trkpt lat="44.19432" lon="6.63597">
        <ele>1299</ele>
        <time>2020-08-13T09:21:29.000Z</time>
      </trkpt>
      <trkpt lat="44.19441" lon="6.63602">
        <ele>1299.5999755859</ele>
        <time>2020-08-13T09:21:32.000Z</time>
      </trkpt>
      <trkpt lat="44.19457" lon="6.63609">
        <ele>1300</ele>
        <time>2020-08-13T09:21:37.000Z</time>
      </trkpt>
      <trkpt lat="44.1947" lon="6.63613">
        <ele>1300.8000488281</ele>
        <time>2020-08-13T09:21:41.000Z</time>
      </trkpt>
      <trkpt lat="44.19483" lon="6.63615">
        <ele>1301.4000244141</ele>
        <time>2020-08-13T09:21:45.000Z</time>
      </trkpt>
      <trkpt lat="44.19493" lon="6.63617">
        <ele>1302</ele>
        <time>2020-08-13T09:21:48.000Z</time>
      </trkpt>
      <trkpt lat="44.19513" lon="6.63617">
        <ele>1303</ele>
        <time>2020-08-13T09:21:54.000Z</time>
      </trkpt>
      <trkpt lat="44.19517" lon="6.63617">
        <ele>1303</ele>
        <time>2020-08-13T09:21:55.000Z</time>
      </trkpt>
      <trkpt lat="44.19531" lon="6.63615">
        <ele>1304</ele>
        <time>2020-08-13T09:21:59.000Z</time>
      </trkpt>
      <trkpt lat="44.1955" lon="6.63611">
        <ele>1305</ele>
        <time>2020-08-13T09:22:05.000Z</time>
      </trkpt>
      <trkpt lat="44.19554" lon="6.6361">
        <ele>1305.1999511719</ele>
        <time>2020-08-13T09:22:06.000Z</time>
      </trkpt>
      <trkpt lat="44.19573" lon="6.63603">
        <ele>1306.1999511719</ele>
        <time>2020-08-13T09:22:12.000Z</time>
      </trkpt>
      <trkpt lat="44.19592" lon="6.63597">
        <ele>1307.1999511719</ele>
        <time>2020-08-13T09:22:18.000Z</time>
      </trkpt>
      <trkpt lat="44.19605" lon="6.63592">
        <ele>1307.8000488281</ele>
        <time>2020-08-13T09:22:22.000Z</time>
      </trkpt>
      <trkpt lat="44.19612" lon="6.6359">
        <ele>1308.1999511719</ele>
        <time>2020-08-13T09:22:24.000Z</time>
      </trkpt>
      <trkpt lat="44.19649" lon="6.63582">
        <ele>1309.1999511719</ele>
        <time>2020-08-13T09:22:34.000Z</time>
      </trkpt>
      <trkpt lat="44.19653" lon="6.63582">
        <ele>1309.4000244141</ele>
        <time>2020-08-13T09:22:35.000Z</time>
      </trkpt>
      <trkpt lat="44.19665" lon="6.63584">
        <ele>1309.5999755859</ele>
        <time>2020-08-13T09:22:38.000Z</time>
      </trkpt>
      <trkpt lat="44.19673" lon="6.63588">
        <ele>1309.8000488281</ele>
        <time>2020-08-13T09:22:40.000Z</time>
      </trkpt>
      <trkpt lat="44.19702" lon="6.63607">
        <ele>1310</ele>
        <time>2020-08-13T09:22:47.000Z</time>
      </trkpt>
      <trkpt lat="44.19739" lon="6.63629">
        <ele>1310</ele>
        <time>2020-08-13T09:22:55.000Z</time>
      </trkpt>
      <trkpt lat="44.19749" lon="6.63633">
        <ele>1310.5999755859</ele>
        <time>2020-08-13T09:22:57.000Z</time>
      </trkpt>
      <trkpt lat="44.1977" lon="6.6364">
        <ele>1310.5999755859</ele>
        <time>2020-08-13T09:23:01.000Z</time>
      </trkpt>
      <trkpt lat="44.19775" lon="6.63643">
        <ele>1310.5999755859</ele>
        <time>2020-08-13T09:23:02.000Z</time>
      </trkpt>
      <trkpt lat="44.19804" lon="6.63667">
        <ele>1310.4000244141</ele>
        <time>2020-08-13T09:23:08.000Z</time>
      </trkpt>
      <trkpt lat="44.19832" lon="6.63686">
        <ele>1311.1999511719</ele>
        <time>2020-08-13T09:23:14.000Z</time>
      </trkpt>
      <trkpt lat="44.19836" lon="6.63688">
        <ele>1311.4000244141</ele>
        <time>2020-08-13T09:23:15.000Z</time>
      </trkpt>
      <trkpt lat="44.1985" lon="6.6369">
        <ele>1311.4000244141</ele>
        <time>2020-08-13T09:23:18.000Z</time>
      </trkpt>
      <trkpt lat="44.19855" lon="6.6369">
        <ele>1311.5999755859</ele>
        <time>2020-08-13T09:23:19.000Z</time>
      </trkpt>
      <trkpt lat="44.19859" lon="6.6369">
        <ele>1311.8000488281</ele>
        <time>2020-08-13T09:23:20.000Z</time>
      </trkpt>
      <trkpt lat="44.19868" lon="6.63687">
        <ele>1311.5999755859</ele>
        <time>2020-08-13T09:23:22.000Z</time>
      </trkpt>
      <trkpt lat="44.1988" lon="6.6368">
        <ele>1312</ele>
        <time>2020-08-13T09:23:25.000Z</time>
      </trkpt>
      <trkpt lat="44.19888" lon="6.63672">
        <ele>1312.5999755859</ele>
        <time>2020-08-13T09:23:27.000Z</time>
      </trkpt>
      <trkpt lat="44.19899" lon="6.6366">
        <ele>1313.4000244141</ele>
        <time>2020-08-13T09:23:30.000Z</time>
      </trkpt>
      <trkpt lat="44.19903" lon="6.63655">
        <ele>1313.4000244141</ele>
        <time>2020-08-13T09:23:31.000Z</time>
      </trkpt>
      <trkpt lat="44.19906" lon="6.63651">
        <ele>1313.8000488281</ele>
        <time>2020-08-13T09:23:32.000Z</time>
      </trkpt>
      <trkpt lat="44.19918" lon="6.63633">
        <ele>1315</ele>
        <time>2020-08-13T09:23:36.000Z</time>
      </trkpt>
      <trkpt lat="44.19925" lon="6.63619">
        <ele>1315.4000244141</ele>
        <time>2020-08-13T09:23:39.000Z</time>
      </trkpt>
      <trkpt lat="44.19929" lon="6.6361">
        <ele>1316</ele>
        <time>2020-08-13T09:23:41.000Z</time>
      </trkpt>
      <trkpt lat="44.19941" lon="6.63592">
        <ele>1317</ele>
        <time>2020-08-13T09:23:46.000Z</time>
      </trkpt>
      <trkpt lat="44.19944" lon="6.63589">
        <ele>1317.1999511719</ele>
        <time>2020-08-13T09:23:47.000Z</time>
      </trkpt>
      <trkpt lat="44.19956" lon="6.63582">
        <ele>1318.1999511719</ele>
        <time>2020-08-13T09:23:51.000Z</time>
      </trkpt>
      <trkpt lat="44.19963" lon="6.6358">
        <ele>1318.4000244141</ele>
        <time>2020-08-13T09:23:53.000Z</time>
      </trkpt>
      <trkpt lat="44.19979" lon="6.63578">
        <ele>1319.1999511719</ele>
        <time>2020-08-13T09:23:58.000Z</time>
      </trkpt>
      <trkpt lat="44.19989" lon="6.63576">
        <ele>1319.8000488281</ele>
        <time>2020-08-13T09:24:01.000Z</time>
      </trkpt>
      <trkpt lat="44.19999" lon="6.63573">
        <ele>1320.1999511719</ele>
        <time>2020-08-13T09:24:04.000Z</time>
      </trkpt>
      <trkpt lat="44.20016" lon="6.63569">
        <ele>1320.8000488281</ele>
        <time>2020-08-13T09:24:09.000Z</time>
      </trkpt>
      <trkpt lat="44.20029" lon="6.63565">
        <ele>1321.4000244141</ele>
        <time>2020-08-13T09:24:13.000Z</time>
      </trkpt>
      <trkpt lat="44.2005" lon="6.63562">
        <ele>1322.4000244141</ele>
        <time>2020-08-13T09:24:19.000Z</time>
      </trkpt>
      <trkpt lat="44.20072" lon="6.63565">
        <ele>1323.4000244141</ele>
        <time>2020-08-13T09:24:25.000Z</time>
      </trkpt>
      <trkpt lat="44.20096" lon="6.63577">
        <ele>1323.5999755859</ele>
        <time>2020-08-13T09:24:31.000Z</time>
      </trkpt>
      <trkpt lat="44.201" lon="6.6358">
        <ele>1323.5999755859</ele>
        <time>2020-08-13T09:24:32.000Z</time>
      </trkpt>
      <trkpt lat="44.20104" lon="6.63583">
        <ele>1323.5999755859</ele>
        <time>2020-08-13T09:24:33.000Z</time>
      </trkpt>
      <trkpt lat="44.20124" lon="6.63601">
        <ele>1323.5999755859</ele>
        <time>2020-08-13T09:24:38.000Z</time>
      </trkpt>
      <trkpt lat="44.20133" lon="6.63606">
        <ele>1323.5999755859</ele>
        <time>2020-08-13T09:24:40.000Z</time>
      </trkpt>
      <trkpt lat="44.20148" lon="6.63611">
        <ele>1323.8000488281</ele>
        <time>2020-08-13T09:24:43.000Z</time>
      </trkpt>
      <trkpt lat="44.20186" lon="6.63624">
        <ele>1323.4000244141</ele>
        <time>2020-08-13T09:24:50.000Z</time>
      </trkpt>
      <trkpt lat="44.20241" lon="6.63655">
        <ele>1324.1999511719</ele>
        <time>2020-08-13T09:25:00.000Z</time>
      </trkpt>
      <trkpt lat="44.2027" lon="6.6367">
        <ele>1324</ele>
        <time>2020-08-13T09:25:05.000Z</time>
      </trkpt>
      <trkpt lat="44.20277" lon="6.63672">
        <ele>1324</ele>
        <time>2020-08-13T09:25:06.000Z</time>
      </trkpt>
      <trkpt lat="44.20302" lon="6.63667">
        <ele>1323.5999755859</ele>
        <time>2020-08-13T09:25:10.000Z</time>
      </trkpt>
      <trkpt lat="44.2032" lon="6.63656">
        <ele>1323.1999511719</ele>
        <time>2020-08-13T09:25:13.000Z</time>
      </trkpt>
      <trkpt lat="44.20332" lon="6.63648">
        <ele>1323.4000244141</ele>
        <time>2020-08-13T09:25:15.000Z</time>
      </trkpt>
      <trkpt lat="44.20339" lon="6.63644">
        <ele>1323.4000244141</ele>
        <time>2020-08-13T09:25:16.000Z</time>
      </trkpt>
      <trkpt lat="44.20359" lon="6.6364">
        <ele>1323.4000244141</ele>
        <time>2020-08-13T09:25:19.000Z</time>
      </trkpt>
      <trkpt lat="44.20379" lon="6.63643">
        <ele>1323.1999511719</ele>
        <time>2020-08-13T09:25:22.000Z</time>
      </trkpt>
      <trkpt lat="44.20392" lon="6.63647">
        <ele>1323.4000244141</ele>
        <time>2020-08-13T09:25:24.000Z</time>
      </trkpt>
      <trkpt lat="44.2045" lon="6.63659">
        <ele>1323.8000488281</ele>
        <time>2020-08-13T09:25:33.000Z</time>
      </trkpt>
      <trkpt lat="44.2049" lon="6.63671">
        <ele>1323.8000488281</ele>
        <time>2020-08-13T09:25:39.000Z</time>
      </trkpt>
      <trkpt lat="44.20544" lon="6.63687">
        <ele>1323.5999755859</ele>
        <time>2020-08-13T09:25:47.000Z</time>
      </trkpt>
      <trkpt lat="44.20585" lon="6.63685">
        <ele>1323.4000244141</ele>
        <time>2020-08-13T09:25:53.000Z</time>
      </trkpt>
      <trkpt lat="44.20639" lon="6.63675">
        <ele>1323.8000488281</ele>
        <time>2020-08-13T09:26:01.000Z</time>
      </trkpt>
      <trkpt lat="44.20665" lon="6.63672">
        <ele>1324.1999511719</ele>
        <time>2020-08-13T09:26:05.000Z</time>
      </trkpt>
      <trkpt lat="44.20672" lon="6.63674">
        <ele>1324.4000244141</ele>
        <time>2020-08-13T09:26:06.000Z</time>
      </trkpt>
      <trkpt lat="44.20691" lon="6.63683">
        <ele>1324.5999755859</ele>
        <time>2020-08-13T09:26:09.000Z</time>
      </trkpt>
      <trkpt lat="44.20697" lon="6.63688">
        <ele>1324.5999755859</ele>
        <time>2020-08-13T09:26:10.000Z</time>
      </trkpt>
      <trkpt lat="44.20703" lon="6.63693">
        <ele>1324.8000488281</ele>
        <time>2020-08-13T09:26:11.000Z</time>
      </trkpt>
      <trkpt lat="44.20752" lon="6.63733">
        <ele>1325.1999511719</ele>
        <time>2020-08-13T09:26:20.000Z</time>
      </trkpt>
      <trkpt lat="44.20758" lon="6.63737">
        <ele>1325.1999511719</ele>
        <time>2020-08-13T09:26:21.000Z</time>
      </trkpt>
      <trkpt lat="44.2078" lon="6.63752">
        <ele>1325.5999755859</ele>
        <time>2020-08-13T09:26:25.000Z</time>
      </trkpt>
      <trkpt lat="44.20811" lon="6.6377">
        <ele>1326.4000244141</ele>
        <time>2020-08-13T09:26:31.000Z</time>
      </trkpt>
      <trkpt lat="44.20821" lon="6.63774">
        <ele>1326.8000488281</ele>
        <time>2020-08-13T09:26:33.000Z</time>
      </trkpt>
      <trkpt lat="44.20851" lon="6.63785">
        <ele>1327.4000244141</ele>
        <time>2020-08-13T09:26:39.000Z</time>
      </trkpt>
      <trkpt lat="44.20872" lon="6.63789">
        <ele>1327.8000488281</ele>
        <time>2020-08-13T09:26:43.000Z</time>
      </trkpt>
      <trkpt lat="44.20881" lon="6.63789">
        <ele>1328</ele>
        <time>2020-08-13T09:26:45.000Z</time>
      </trkpt>
      <trkpt lat="44.20887" lon="6.63788">
        <ele>1327.8000488281</ele>
        <time>2020-08-13T09:26:46.000Z</time>
      </trkpt>
      <trkpt lat="44.20923" lon="6.6378">
        <ele>1329</ele>
        <time>2020-08-13T09:26:53.000Z</time>
      </trkpt>
      <trkpt lat="44.20928" lon="6.6378">
        <ele>1329</ele>
        <time>2020-08-13T09:26:54.000Z</time>
      </trkpt>
      <trkpt lat="44.20943" lon="6.63779">
        <ele>1328.8000488281</ele>
        <time>2020-08-13T09:26:57.000Z</time>
      </trkpt>
      <trkpt lat="44.20958" lon="6.63779">
        <ele>1329.4000244141</ele>
        <time>2020-08-13T09:27:00.000Z</time>
      </trkpt>
      <trkpt lat="44.20994" lon="6.63773">
        <ele>1329.8000488281</ele>
        <time>2020-08-13T09:27:07.000Z</time>
      </trkpt>
      <trkpt lat="44.21003" lon="6.6377">
        <ele>1330.1999511719</ele>
        <time>2020-08-13T09:27:09.000Z</time>
      </trkpt>
      <trkpt lat="44.21031" lon="6.63762">
        <ele>1330.8000488281</ele>
        <time>2020-08-13T09:27:14.000Z</time>
      </trkpt>
      <trkpt lat="44.21053" lon="6.63757">
        <ele>1331.1999511719</ele>
        <time>2020-08-13T09:27:18.000Z</time>
      </trkpt>
      <trkpt lat="44.21081" lon="6.63751">
        <ele>1332.1999511719</ele>
        <time>2020-08-13T09:27:23.000Z</time>
      </trkpt>
      <trkpt lat="44.21087" lon="6.6375">
        <ele>1332.4000244141</ele>
        <time>2020-08-13T09:27:24.000Z</time>
      </trkpt>
      <trkpt lat="44.21128" lon="6.6374">
        <ele>1332.8000488281</ele>
        <time>2020-08-13T09:27:31.000Z</time>
      </trkpt>
      <trkpt lat="44.21157" lon="6.6373">
        <ele>1333.4000244141</ele>
        <time>2020-08-13T09:27:36.000Z</time>
      </trkpt>
      <trkpt lat="44.21181" lon="6.63725">
        <ele>1333.8000488281</ele>
        <time>2020-08-13T09:27:40.000Z</time>
      </trkpt>
      <trkpt lat="44.21232" lon="6.63722">
        <ele>1334</ele>
        <time>2020-08-13T09:27:48.000Z</time>
      </trkpt>
      <trkpt lat="44.2125" lon="6.63719">
        <ele>1334.4000244141</ele>
        <time>2020-08-13T09:27:51.000Z</time>
      </trkpt>
      <trkpt lat="44.21268" lon="6.6371">
        <ele>1335.1999511719</ele>
        <time>2020-08-13T09:27:54.000Z</time>
      </trkpt>
      <trkpt lat="44.21302" lon="6.6369">
        <ele>1335.5999755859</ele>
        <time>2020-08-13T09:28:00.000Z</time>
      </trkpt>
      <trkpt lat="44.21315" lon="6.63683">
        <ele>1336</ele>
        <time>2020-08-13T09:28:02.000Z</time>
      </trkpt>
      <trkpt lat="44.21321" lon="6.63681">
        <ele>1336.1999511719</ele>
        <time>2020-08-13T09:28:03.000Z</time>
      </trkpt>
      <trkpt lat="44.2134" lon="6.63674">
        <ele>1336.8000488281</ele>
        <time>2020-08-13T09:28:06.000Z</time>
      </trkpt>
      <trkpt lat="44.21371" lon="6.63667">
        <ele>1337</ele>
        <time>2020-08-13T09:28:11.000Z</time>
      </trkpt>
      <trkpt lat="44.2141" lon="6.63645">
        <ele>1337.8000488281</ele>
        <time>2020-08-13T09:28:18.000Z</time>
      </trkpt>
      <trkpt lat="44.21459" lon="6.63612">
        <ele>1338.8000488281</ele>
        <time>2020-08-13T09:28:27.000Z</time>
      </trkpt>
      <trkpt lat="44.21465" lon="6.63609">
        <ele>1339.1999511719</ele>
        <time>2020-08-13T09:28:28.000Z</time>
      </trkpt>
      <trkpt lat="44.21482" lon="6.63603">
        <ele>1339.5999755859</ele>
        <time>2020-08-13T09:28:31.000Z</time>
      </trkpt>
      <trkpt lat="44.21494" lon="6.63603">
        <ele>1339.8000488281</ele>
        <time>2020-08-13T09:28:33.000Z</time>
      </trkpt>
      <trkpt lat="44.215" lon="6.63603">
        <ele>1340</ele>
        <time>2020-08-13T09:28:34.000Z</time>
      </trkpt>
      <trkpt lat="44.21536" lon="6.63609">
        <ele>1340.8000488281</ele>
        <time>2020-08-13T09:28:40.000Z</time>
      </trkpt>
      <trkpt lat="44.21542" lon="6.63609">
        <ele>1341</ele>
        <time>2020-08-13T09:28:41.000Z</time>
      </trkpt>
      <trkpt lat="44.21565" lon="6.63602">
        <ele>1341.5999755859</ele>
        <time>2020-08-13T09:28:45.000Z</time>
      </trkpt>
      <trkpt lat="44.21572" lon="6.63598">
        <ele>1342</ele>
        <time>2020-08-13T09:28:46.000Z</time>
      </trkpt>
      <trkpt lat="44.21594" lon="6.63578">
        <ele>1342</ele>
        <time>2020-08-13T09:28:50.000Z</time>
      </trkpt>
      <trkpt lat="44.21639" lon="6.63526">
        <ele>1342.4000244141</ele>
        <time>2020-08-13T09:28:59.000Z</time>
      </trkpt>
      <trkpt lat="44.21644" lon="6.6352">
        <ele>1342.5999755859</ele>
        <time>2020-08-13T09:29:00.000Z</time>
      </trkpt>
      <trkpt lat="44.21655" lon="6.6351">
        <ele>1343.1999511719</ele>
        <time>2020-08-13T09:29:02.000Z</time>
      </trkpt>
      <trkpt lat="44.21679" lon="6.63492">
        <ele>1344</ele>
        <time>2020-08-13T09:29:06.000Z</time>
      </trkpt>
      <trkpt lat="44.21719" lon="6.63476">
        <ele>1344</ele>
        <time>2020-08-13T09:29:12.000Z</time>
      </trkpt>
      <trkpt lat="44.21733" lon="6.63473">
        <ele>1344.4000244141</ele>
        <time>2020-08-13T09:29:14.000Z</time>
      </trkpt>
      <trkpt lat="44.21778" lon="6.63467">
        <ele>1344.8000488281</ele>
        <time>2020-08-13T09:29:21.000Z</time>
      </trkpt>
      <trkpt lat="44.21815" lon="6.63461">
        <ele>1345.4000244141</ele>
        <time>2020-08-13T09:29:27.000Z</time>
      </trkpt>
      <trkpt lat="44.21847" lon="6.63457">
        <ele>1346.4000244141</ele>
        <time>2020-08-13T09:29:32.000Z</time>
      </trkpt>
      <trkpt lat="44.21853" lon="6.63456">
        <ele>1346.4000244141</ele>
        <time>2020-08-13T09:29:33.000Z</time>
      </trkpt>
      <trkpt lat="44.21897" lon="6.63449">
        <ele>1347.5999755859</ele>
        <time>2020-08-13T09:29:40.000Z</time>
      </trkpt>
      <trkpt lat="44.21916" lon="6.63446">
        <ele>1347.8000488281</ele>
        <time>2020-08-13T09:29:43.000Z</time>
      </trkpt>
      <trkpt lat="44.21965" lon="6.63439">
        <ele>1348.5999755859</ele>
        <time>2020-08-13T09:29:51.000Z</time>
      </trkpt>
      <trkpt lat="44.21978" lon="6.63437">
        <ele>1349</ele>
        <time>2020-08-13T09:29:53.000Z</time>
      </trkpt>
      <trkpt lat="44.22021" lon="6.6343">
        <ele>1349.8000488281</ele>
        <time>2020-08-13T09:30:00.000Z</time>
      </trkpt>
      <trkpt lat="44.22045" lon="6.63427">
        <ele>1350.1999511719</ele>
        <time>2020-08-13T09:30:04.000Z</time>
      </trkpt>
      <trkpt lat="44.22058" lon="6.63425">
        <ele>1350.8000488281</ele>
        <time>2020-08-13T09:30:06.000Z</time>
      </trkpt>
      <trkpt lat="44.22093" lon="6.6342">
        <ele>1351.4000244141</ele>
        <time>2020-08-13T09:30:12.000Z</time>
      </trkpt>
      <trkpt lat="44.22105" lon="6.6342">
        <ele>1351.4000244141</ele>
        <time>2020-08-13T09:30:14.000Z</time>
      </trkpt>
      <trkpt lat="44.2212" lon="6.63417">
        <ele>1351.8000488281</ele>
        <time>2020-08-13T09:30:17.000Z</time>
      </trkpt>
      <trkpt lat="44.22126" lon="6.63417">
        <ele>1351.8000488281</ele>
        <time>2020-08-13T09:30:18.000Z</time>
      </trkpt>
      <trkpt lat="44.22148" lon="6.63415">
        <ele>1352.4000244141</ele>
        <time>2020-08-13T09:30:22.000Z</time>
      </trkpt>
      <trkpt lat="44.22153" lon="6.63414">
        <ele>1352.5999755859</ele>
        <time>2020-08-13T09:30:23.000Z</time>
      </trkpt>
      <trkpt lat="44.22165" lon="6.63413">
        <ele>1353</ele>
        <time>2020-08-13T09:30:25.000Z</time>
      </trkpt>
      <trkpt lat="44.22183" lon="6.63409">
        <ele>1353.1999511719</ele>
        <time>2020-08-13T09:30:28.000Z</time>
      </trkpt>
      <trkpt lat="44.22212" lon="6.63404">
        <ele>1354</ele>
        <time>2020-08-13T09:30:33.000Z</time>
      </trkpt>
      <trkpt lat="44.22229" lon="6.63402">
        <ele>1354.5999755859</ele>
        <time>2020-08-13T09:30:36.000Z</time>
      </trkpt>
      <trkpt lat="44.22258" lon="6.63397">
        <ele>1355.1999511719</ele>
        <time>2020-08-13T09:30:41.000Z</time>
      </trkpt>
      <trkpt lat="44.2228" lon="6.63394">
        <ele>1355.8000488281</ele>
        <time>2020-08-13T09:30:45.000Z</time>
      </trkpt>
      <trkpt lat="44.22314" lon="6.63388">
        <ele>1356.4000244141</ele>
        <time>2020-08-13T09:30:51.000Z</time>
      </trkpt>
      <trkpt lat="44.22344" lon="6.63384">
        <ele>1356.5999755859</ele>
        <time>2020-08-13T09:30:56.000Z</time>
      </trkpt>
      <trkpt lat="44.22375" lon="6.63379">
        <ele>1357.4000244141</ele>
        <time>2020-08-13T09:31:01.000Z</time>
      </trkpt>
      <trkpt lat="44.22386" lon="6.63378">
        <ele>1358.1999511719</ele>
        <time>2020-08-13T09:31:03.000Z</time>
      </trkpt>
      <trkpt lat="44.2241" lon="6.63374">
        <ele>1358.5999755859</ele>
        <time>2020-08-13T09:31:07.000Z</time>
      </trkpt>
      <trkpt lat="44.22439" lon="6.63369">
        <ele>1359</ele>
        <time>2020-08-13T09:31:12.000Z</time>
      </trkpt>
      <trkpt lat="44.22452" lon="6.63367">
        <ele>1359.5999755859</ele>
        <time>2020-08-13T09:31:14.000Z</time>
      </trkpt>
      <trkpt lat="44.22507" lon="6.63356">
        <ele>1360.4000244141</ele>
        <time>2020-08-13T09:31:23.000Z</time>
      </trkpt>
      <trkpt lat="44.22526" lon="6.63349">
        <ele>1360.5999755859</ele>
        <time>2020-08-13T09:31:26.000Z</time>
      </trkpt>
      <trkpt lat="44.22539" lon="6.63345">
        <ele>1360.8000488281</ele>
        <time>2020-08-13T09:31:28.000Z</time>
      </trkpt>
      <trkpt lat="44.22568" lon="6.63334">
        <ele>1361.8000488281</ele>
        <time>2020-08-13T09:31:33.000Z</time>
      </trkpt>
      <trkpt lat="44.22585" lon="6.63326">
        <ele>1362.1999511719</ele>
        <time>2020-08-13T09:31:36.000Z</time>
      </trkpt>
      <trkpt lat="44.22605" lon="6.63316">
        <ele>1363.1999511719</ele>
        <time>2020-08-13T09:31:40.000Z</time>
      </trkpt>
      <trkpt lat="44.22631" lon="6.63302">
        <ele>1364</ele>
        <time>2020-08-13T09:31:45.000Z</time>
      </trkpt>
      <trkpt lat="44.22637" lon="6.63298">
        <ele>1364.1999511719</ele>
        <time>2020-08-13T09:31:46.000Z</time>
      </trkpt>
      <trkpt lat="44.22655" lon="6.63286">
        <ele>1365.1999511719</ele>
        <time>2020-08-13T09:31:50.000Z</time>
      </trkpt>
      <trkpt lat="44.22673" lon="6.63272">
        <ele>1366.8000488281</ele>
        <time>2020-08-13T09:31:54.000Z</time>
      </trkpt>
      <trkpt lat="44.22697" lon="6.63247">
        <ele>1368</ele>
        <time>2020-08-13T09:32:00.000Z</time>
      </trkpt>
      <trkpt lat="44.22705" lon="6.63237">
        <ele>1368.4000244141</ele>
        <time>2020-08-13T09:32:02.000Z</time>
      </trkpt>
      <trkpt lat="44.22715" lon="6.63223">
        <ele>1369</ele>
        <time>2020-08-13T09:32:05.000Z</time>
      </trkpt>
      <trkpt lat="44.2273" lon="6.63202">
        <ele>1370.1999511719</ele>
        <time>2020-08-13T09:32:09.000Z</time>
      </trkpt>
      <trkpt lat="44.22752" lon="6.63172">
        <ele>1371.1999511719</ele>
        <time>2020-08-13T09:32:15.000Z</time>
      </trkpt>
      <trkpt lat="44.2276" lon="6.63161">
        <ele>1372</ele>
        <time>2020-08-13T09:32:17.000Z</time>
      </trkpt>
      <trkpt lat="44.22767" lon="6.63151">
        <ele>1372.4000244141</ele>
        <time>2020-08-13T09:32:19.000Z</time>
      </trkpt>
      <trkpt lat="44.22783" lon="6.63133">
        <ele>1373.8000488281</ele>
        <time>2020-08-13T09:32:23.000Z</time>
      </trkpt>
      <trkpt lat="44.22796" lon="6.63121">
        <ele>1374.4000244141</ele>
        <time>2020-08-13T09:32:26.000Z</time>
      </trkpt>
      <trkpt lat="44.22809" lon="6.63111">
        <ele>1375</ele>
        <time>2020-08-13T09:32:29.000Z</time>
      </trkpt>
      <trkpt lat="44.2283" lon="6.63098">
        <ele>1376.1999511719</ele>
        <time>2020-08-13T09:32:34.000Z</time>
      </trkpt>
      <trkpt lat="44.22849" lon="6.63089">
        <ele>1377.4000244141</ele>
        <time>2020-08-13T09:32:38.000Z</time>
      </trkpt>
      <trkpt lat="44.22867" lon="6.63079">
        <ele>1378.4000244141</ele>
        <time>2020-08-13T09:32:42.000Z</time>
      </trkpt>
      <trkpt lat="44.22872" lon="6.63076">
        <ele>1378.5999755859</ele>
        <time>2020-08-13T09:32:43.000Z</time>
      </trkpt>
      <trkpt lat="44.22903" lon="6.63056">
        <ele>1379.8000488281</ele>
        <time>2020-08-13T09:32:50.000Z</time>
      </trkpt>
      <trkpt lat="44.22912" lon="6.63049">
        <ele>1380.1999511719</ele>
        <time>2020-08-13T09:32:52.000Z</time>
      </trkpt>
      <trkpt lat="44.2292" lon="6.63043">
        <ele>1380.5999755859</ele>
        <time>2020-08-13T09:32:54.000Z</time>
      </trkpt>
      <trkpt lat="44.22924" lon="6.6304">
        <ele>1381</ele>
        <time>2020-08-13T09:32:55.000Z</time>
      </trkpt>
      <trkpt lat="44.22941" lon="6.63028">
        <ele>1382.1999511719</ele>
        <time>2020-08-13T09:32:59.000Z</time>
      </trkpt>
      <trkpt lat="44.22946" lon="6.63024">
        <ele>1382.1999511719</ele>
        <time>2020-08-13T09:33:00.000Z</time>
      </trkpt>
      <trkpt lat="44.22972" lon="6.63004">
        <ele>1383.1999511719</ele>
        <time>2020-08-13T09:33:06.000Z</time>
      </trkpt>
      <trkpt lat="44.22984" lon="6.62995">
        <ele>1384</ele>
        <time>2020-08-13T09:33:09.000Z</time>
      </trkpt>
      <trkpt lat="44.22988" lon="6.62992">
        <ele>1384.4000244141</ele>
        <time>2020-08-13T09:33:10.000Z</time>
      </trkpt>
      <trkpt lat="44.23003" lon="6.6298">
        <ele>1385.4000244141</ele>
        <time>2020-08-13T09:33:14.000Z</time>
      </trkpt>
      <trkpt lat="44.23011" lon="6.62974">
        <ele>1385.8000488281</ele>
        <time>2020-08-13T09:33:16.000Z</time>
      </trkpt>
      <trkpt lat="44.23026" lon="6.62964">
        <ele>1386.4000244141</ele>
        <time>2020-08-13T09:33:20.000Z</time>
      </trkpt>
      <trkpt lat="44.23034" lon="6.6296">
        <ele>1387</ele>
        <time>2020-08-13T09:33:22.000Z</time>
      </trkpt>
      <trkpt lat="44.23043" lon="6.62957">
        <ele>1387.4000244141</ele>
        <time>2020-08-13T09:33:24.000Z</time>
      </trkpt>
      <trkpt lat="44.23058" lon="6.62953">
        <ele>1388.5999755859</ele>
        <time>2020-08-13T09:33:28.000Z</time>
      </trkpt>
      <trkpt lat="44.23062" lon="6.62953">
        <ele>1389</ele>
        <time>2020-08-13T09:33:29.000Z</time>
      </trkpt>
      <trkpt lat="44.2307" lon="6.62952">
        <ele>1389.5999755859</ele>
        <time>2020-08-13T09:33:31.000Z</time>
      </trkpt>
      <trkpt lat="44.23085" lon="6.6295">
        <ele>1390.8000488281</ele>
        <time>2020-08-13T09:33:35.000Z</time>
      </trkpt>
      <trkpt lat="44.23093" lon="6.62949">
        <ele>1391.1999511719</ele>
        <time>2020-08-13T09:33:37.000Z</time>
      </trkpt>
      <trkpt lat="44.23105" lon="6.62948">
        <ele>1392</ele>
        <time>2020-08-13T09:33:40.000Z</time>
      </trkpt>
      <trkpt lat="44.23121" lon="6.62945">
        <ele>1393</ele>
        <time>2020-08-13T09:33:44.000Z</time>
      </trkpt>
      <trkpt lat="44.23126" lon="6.62944">
        <ele>1393.1999511719</ele>
        <time>2020-08-13T09:33:45.000Z</time>
      </trkpt>
      <trkpt lat="44.23143" lon="6.62938">
        <ele>1394.4000244141</ele>
        <time>2020-08-13T09:33:49.000Z</time>
      </trkpt>
      <trkpt lat="44.23159" lon="6.6293">
        <ele>1395.5999755859</ele>
        <time>2020-08-13T09:33:53.000Z</time>
      </trkpt>
      <trkpt lat="44.23187" lon="6.62916">
        <ele>1396.4000244141</ele>
        <time>2020-08-13T09:33:59.000Z</time>
      </trkpt>
      <trkpt lat="44.23192" lon="6.62914">
        <ele>1396.5999755859</ele>
        <time>2020-08-13T09:34:00.000Z</time>
      </trkpt>
      <trkpt lat="44.2324" lon="6.62895">
        <ele>1396.1999511719</ele>
        <time>2020-08-13T09:34:09.000Z</time>
      </trkpt>
      <trkpt lat="44.23275" lon="6.62896">
        <ele>1396.8000488281</ele>
        <time>2020-08-13T09:34:15.000Z</time>
      </trkpt>
      <trkpt lat="44.23281" lon="6.62897">
        <ele>1396.8000488281</ele>
        <time>2020-08-13T09:34:16.000Z</time>
      </trkpt>
      <trkpt lat="44.23316" lon="6.62906">
        <ele>1397.4000244141</ele>
        <time>2020-08-13T09:34:22.000Z</time>
      </trkpt>
      <trkpt lat="44.23372" lon="6.62922">
        <ele>1397.4000244141</ele>
        <time>2020-08-13T09:34:31.000Z</time>
      </trkpt>
      <trkpt lat="44.23379" lon="6.62923">
        <ele>1397.4000244141</ele>
        <time>2020-08-13T09:34:32.000Z</time>
      </trkpt>
      <trkpt lat="44.23434" lon="6.62932">
        <ele>1397.4000244141</ele>
        <time>2020-08-13T09:34:40.000Z</time>
      </trkpt>
      <trkpt lat="44.23449" lon="6.62932">
        <ele>1397.8000488281</ele>
        <time>2020-08-13T09:34:42.000Z</time>
      </trkpt>
      <trkpt lat="44.23499" lon="6.62932">
        <ele>1397.5999755859</ele>
        <time>2020-08-13T09:34:49.000Z</time>
      </trkpt>
      <trkpt lat="44.23554" lon="6.62931">
        <ele>1398</ele>
        <time>2020-08-13T09:34:57.000Z</time>
      </trkpt>
      <trkpt lat="44.23561" lon="6.62931">
        <ele>1398</ele>
        <time>2020-08-13T09:34:58.000Z</time>
      </trkpt>
      <trkpt lat="44.2358" lon="6.62927">
        <ele>1397.8000488281</ele>
        <time>2020-08-13T09:35:01.000Z</time>
      </trkpt>
      <trkpt lat="44.23599" lon="6.62919">
        <ele>1397.8000488281</ele>
        <time>2020-08-13T09:35:04.000Z</time>
      </trkpt>
      <trkpt lat="44.23652" lon="6.62888">
        <ele>1398.5999755859</ele>
        <time>2020-08-13T09:35:13.000Z</time>
      </trkpt>
      <trkpt lat="44.23658" lon="6.62885">
        <ele>1398.8000488281</ele>
        <time>2020-08-13T09:35:14.000Z</time>
      </trkpt>
      <trkpt lat="44.2367" lon="6.62882">
        <ele>1399</ele>
        <time>2020-08-13T09:35:16.000Z</time>
      </trkpt>
      <trkpt lat="44.23687" lon="6.62881">
        <ele>1399.8000488281</ele>
        <time>2020-08-13T09:35:19.000Z</time>
      </trkpt>
      <trkpt lat="44.23716" lon="6.62888">
        <ele>1401</ele>
        <time>2020-08-13T09:35:24.000Z</time>
      </trkpt>
      <trkpt lat="44.23722" lon="6.6289">
        <ele>1401</ele>
        <time>2020-08-13T09:35:25.000Z</time>
      </trkpt>
      <trkpt lat="44.23756" lon="6.62897">
        <ele>1401.4000244141</ele>
        <time>2020-08-13T09:35:31.000Z</time>
      </trkpt>
      <trkpt lat="44.23762" lon="6.62897">
        <ele>1401.4000244141</ele>
        <time>2020-08-13T09:35:32.000Z</time>
      </trkpt>
      <trkpt lat="44.23785" lon="6.62891">
        <ele>1402.1999511719</ele>
        <time>2020-08-13T09:35:36.000Z</time>
      </trkpt>
      <trkpt lat="44.23798" lon="6.62889">
        <ele>1402.1999511719</ele>
        <time>2020-08-13T09:35:38.000Z</time>
      </trkpt>
      <trkpt lat="44.23821" lon="6.62896">
        <ele>1402.5999755859</ele>
        <time>2020-08-13T09:35:42.000Z</time>
      </trkpt>
      <trkpt lat="44.23832" lon="6.62902">
        <ele>1403.1999511719</ele>
        <time>2020-08-13T09:35:44.000Z</time>
      </trkpt>
      <trkpt lat="44.23856" lon="6.62918">
        <ele>1404.4000244141</ele>
        <time>2020-08-13T09:35:49.000Z</time>
      </trkpt>
      <trkpt lat="44.2386" lon="6.62922">
        <ele>1404.5999755859</ele>
        <time>2020-08-13T09:35:50.000Z</time>
      </trkpt>
      <trkpt lat="44.23863" lon="6.62926">
        <ele>1404.8000488281</ele>
        <time>2020-08-13T09:35:51.000Z</time>
      </trkpt>
      <trkpt lat="44.23871" lon="6.62934">
        <ele>1405.8000488281</ele>
        <time>2020-08-13T09:35:54.000Z</time>
      </trkpt>
      <trkpt lat="44.23872" lon="6.62935">
        <ele>1406.1999511719</ele>
        <time>2020-08-13T09:35:58.000Z</time>
      </trkpt>
      <trkpt lat="44.23873" lon="6.62933">
        <ele>1406</ele>
        <time>2020-08-13T09:36:06.000Z</time>
      </trkpt>
      <trkpt lat="44.23873" lon="6.62931">
        <ele>1405.8000488281</ele>
        <time>2020-08-13T09:36:15.000Z</time>
      </trkpt>
      <trkpt lat="44.23874" lon="6.62928">
        <ele>1406.4000244141</ele>
        <time>2020-08-13T09:36:26.000Z</time>
      </trkpt>
      <trkpt lat="44.23874" lon="6.62927">
        <ele>1406.5999755859</ele>
        <time>2020-08-13T09:36:33.000Z</time>
      </trkpt>
      <trkpt lat="44.23874" lon="6.62927">
        <ele>1406.8000488281</ele>
        <time>2020-08-13T09:36:34.000Z</time>
      </trkpt>
      <trkpt lat="44.23873" lon="6.62926">
        <ele>1406.5999755859</ele>
        <time>2020-08-13T09:36:43.000Z</time>
      </trkpt>
      <trkpt lat="44.23875" lon="6.62926">
        <ele>1406.1999511719</ele>
        <time>2020-08-13T09:36:52.000Z</time>
      </trkpt>
      <trkpt lat="44.23875" lon="6.62925">
        <ele>1406</ele>
        <time>2020-08-13T09:37:03.000Z</time>
      </trkpt>
      <trkpt lat="44.2388" lon="6.62928">
        <ele>1406</ele>
        <time>2020-08-13T09:37:10.000Z</time>
      </trkpt>
      <trkpt lat="44.23889" lon="6.62937">
        <ele>1406.1999511719</ele>
        <time>2020-08-13T09:37:15.000Z</time>
      </trkpt>
      <trkpt lat="44.23903" lon="6.6295">
        <ele>1406.1999511719</ele>
        <time>2020-08-13T09:37:21.000Z</time>
      </trkpt>
      <trkpt lat="44.23921" lon="6.62959">
        <ele>1406.5999755859</ele>
        <time>2020-08-13T09:37:27.000Z</time>
      </trkpt>
      <trkpt lat="44.23938" lon="6.62965">
        <ele>1407.1999511719</ele>
        <time>2020-08-13T09:37:33.000Z</time>
      </trkpt>
      <trkpt lat="44.23952" lon="6.6297">
        <ele>1407.8000488281</ele>
        <time>2020-08-13T09:37:37.000Z</time>
      </trkpt>
      <trkpt lat="44.23963" lon="6.62972">
        <ele>1408</ele>
        <time>2020-08-13T09:37:40.000Z</time>
      </trkpt>
      <trkpt lat="44.23985" lon="6.62979">
        <ele>1409</ele>
        <time>2020-08-13T09:37:46.000Z</time>
      </trkpt>
      <trkpt lat="44.23993" lon="6.6298">
        <ele>1409.4000244141</ele>
        <time>2020-08-13T09:37:48.000Z</time>
      </trkpt>
      <trkpt lat="44.24002" lon="6.62979">
        <ele>1410</ele>
        <time>2020-08-13T09:37:51.000Z</time>
      </trkpt>
      <trkpt lat="44.24011" lon="6.62975">
        <ele>1410.8000488281</ele>
        <time>2020-08-13T09:37:54.000Z</time>
      </trkpt>
      <trkpt lat="44.24017" lon="6.62972">
        <ele>1411.1999511719</ele>
        <time>2020-08-13T09:37:56.000Z</time>
      </trkpt>
      <trkpt lat="44.24028" lon="6.6296">
        <ele>1412.1999511719</ele>
        <time>2020-08-13T09:38:01.000Z</time>
      </trkpt>
      <trkpt lat="44.2404" lon="6.62947">
        <ele>1413.4000244141</ele>
        <time>2020-08-13T09:38:06.000Z</time>
      </trkpt>
      <trkpt lat="44.24048" lon="6.62936">
        <ele>1414.5999755859</ele>
        <time>2020-08-13T09:38:10.000Z</time>
      </trkpt>
      <trkpt lat="44.24063" lon="6.62914">
        <ele>1415.8000488281</ele>
        <time>2020-08-13T09:38:17.000Z</time>
      </trkpt>
      <trkpt lat="44.24067" lon="6.62908">
        <ele>1416</ele>
        <time>2020-08-13T09:38:19.000Z</time>
      </trkpt>
      <trkpt lat="44.24072" lon="6.62899">
        <ele>1417</ele>
        <time>2020-08-13T09:38:22.000Z</time>
      </trkpt>
      <trkpt lat="44.24079" lon="6.62887">
        <ele>1418</ele>
        <time>2020-08-13T09:38:26.000Z</time>
      </trkpt>
      <trkpt lat="44.24081" lon="6.62884">
        <ele>1418.1999511719</ele>
        <time>2020-08-13T09:38:27.000Z</time>
      </trkpt>
      <trkpt lat="44.24093" lon="6.62866">
        <ele>1419</ele>
        <time>2020-08-13T09:38:33.000Z</time>
      </trkpt>
      <trkpt lat="44.24095" lon="6.62862">
        <ele>1419.1999511719</ele>
        <time>2020-08-13T09:38:34.000Z</time>
      </trkpt>
      <trkpt lat="44.24111" lon="6.62838">
        <ele>1419.5999755859</ele>
        <time>2020-08-13T09:38:41.000Z</time>
      </trkpt>
      <trkpt lat="44.24119" lon="6.62825">
        <ele>1420.1999511719</ele>
        <time>2020-08-13T09:38:45.000Z</time>
      </trkpt>
      <trkpt lat="44.24127" lon="6.62813">
        <ele>1420.8000488281</ele>
        <time>2020-08-13T09:38:49.000Z</time>
      </trkpt>
      <trkpt lat="44.24135" lon="6.62802">
        <ele>1421.4000244141</ele>
        <time>2020-08-13T09:38:53.000Z</time>
      </trkpt>
      <trkpt lat="44.24136" lon="6.62795">
        <ele>1421.4000244141</ele>
        <time>2020-08-13T09:38:55.000Z</time>
      </trkpt>
      <trkpt lat="44.24138" lon="6.62775">
        <ele>1422.1999511719</ele>
        <time>2020-08-13T09:39:00.000Z</time>
      </trkpt>
      <trkpt lat="44.24139" lon="6.62771">
        <ele>1422.5999755859</ele>
        <time>2020-08-13T09:39:01.000Z</time>
      </trkpt>
      <trkpt lat="44.24144" lon="6.62749">
        <ele>1423.5999755859</ele>
        <time>2020-08-13T09:39:07.000Z</time>
      </trkpt>
      <trkpt lat="44.24145" lon="6.62741">
        <ele>1423.8000488281</ele>
        <time>2020-08-13T09:39:09.000Z</time>
      </trkpt>
      <trkpt lat="44.24151" lon="6.62714">
        <ele>1424.1999511719</ele>
        <time>2020-08-13T09:39:16.000Z</time>
      </trkpt>
      <trkpt lat="44.24156" lon="6.62698">
        <ele>1424.5999755859</ele>
        <time>2020-08-13T09:39:20.000Z</time>
      </trkpt>
      <trkpt lat="44.2416" lon="6.62692">
        <ele>1424.8000488281</ele>
        <time>2020-08-13T09:39:22.000Z</time>
      </trkpt>
      <trkpt lat="44.24162" lon="6.62688">
        <ele>1424.8000488281</ele>
        <time>2020-08-13T09:39:26.000Z</time>
      </trkpt>
      <trkpt lat="44.2416" lon="6.62684">
        <ele>1425</ele>
        <time>2020-08-13T09:39:33.000Z</time>
      </trkpt>
      <trkpt lat="44.24158" lon="6.62685">
        <ele>1424.8000488281</ele>
        <time>2020-08-13T09:39:44.000Z</time>
      </trkpt>
      <trkpt lat="44.24157" lon="6.62685">
        <ele>1425</ele>
        <time>2020-08-13T09:39:51.000Z</time>
      </trkpt>
      <trkpt lat="44.24156" lon="6.62684">
        <ele>1425.1999511719</ele>
        <time>2020-08-13T09:39:57.000Z</time>
      </trkpt>
      <trkpt lat="44.24154" lon="6.62687">
        <ele>1424.5999755859</ele>
        <time>2020-08-13T09:40:15.000Z</time>
      </trkpt>
      <trkpt lat="44.24154" lon="6.62688">
        <ele>1425</ele>
        <time>2020-08-13T09:40:21.000Z</time>
      </trkpt>
      <trkpt lat="44.24154" lon="6.6269">
        <ele>1425.1999511719</ele>
        <time>2020-08-13T09:40:30.000Z</time>
      </trkpt>
      <trkpt lat="44.24153" lon="6.62688">
        <ele>1425</ele>
        <time>2020-08-13T09:40:38.000Z</time>
      </trkpt>
      <trkpt lat="44.24153" lon="6.62689">
        <ele>1424.5999755859</ele>
        <time>2020-08-13T09:40:52.000Z</time>
      </trkpt>
      <trkpt lat="44.24153" lon="6.6269">
        <ele>1424.4000244141</ele>
        <time>2020-08-13T09:40:59.000Z</time>
      </trkpt>
      <trkpt lat="44.24153" lon="6.6269">
        <ele>1424.4000244141</ele>
        <time>2020-08-13T09:41:14.000Z</time>
      </trkpt>
      <trkpt lat="44.24152" lon="6.62689">
        <ele>1423.8000488281</ele>
        <time>2020-08-13T09:41:34.000Z</time>
      </trkpt>
      <trkpt lat="44.24152" lon="6.62689">
        <ele>1424.4000244141</ele>
        <time>2020-08-13T09:41:44.000Z</time>
      </trkpt>
      <trkpt lat="44.24152" lon="6.62691">
        <ele>1424.4000244141</ele>
        <time>2020-08-13T09:41:53.000Z</time>
      </trkpt>
      <trkpt lat="44.24153" lon="6.62692">
        <ele>1424</ele>
        <time>2020-08-13T09:41:56.000Z</time>
      </trkpt>
      <trkpt lat="44.24155" lon="6.62695">
        <ele>1424.1999511719</ele>
        <time>2020-08-13T09:42:00.000Z</time>
      </trkpt>
      <trkpt lat="44.24158" lon="6.62701">
        <ele>1424</ele>
        <time>2020-08-13T09:42:07.000Z</time>
      </trkpt>
      <trkpt lat="44.24158" lon="6.62702">
        <ele>1424</ele>
        <time>2020-08-13T09:42:14.000Z</time>
      </trkpt>
      <trkpt lat="44.24158" lon="6.627">
        <ele>1423.5999755859</ele>
        <time>2020-08-13T09:42:25.000Z</time>
      </trkpt>
      <trkpt lat="44.24157" lon="6.62696">
        <ele>1423.8000488281</ele>
        <time>2020-08-13T09:42:32.000Z</time>
      </trkpt>
      <trkpt lat="44.24157" lon="6.62695">
        <ele>1423.5999755859</ele>
        <time>2020-08-13T09:42:38.000Z</time>
      </trkpt>
      <trkpt lat="44.24157" lon="6.62696">
        <ele>1423.5999755859</ele>
        <time>2020-08-13T09:42:43.000Z</time>
      </trkpt>
      <trkpt lat="44.24157" lon="6.62695">
        <ele>1423.5999755859</ele>
        <time>2020-08-13T09:42:47.000Z</time>
      </trkpt>
      <trkpt lat="44.24157" lon="6.62691">
        <ele>1424</ele>
        <time>2020-08-13T09:42:53.000Z</time>
      </trkpt>
      <trkpt lat="44.24155" lon="6.6269">
        <ele>1423.5999755859</ele>
        <time>2020-08-13T09:42:56.000Z</time>
      </trkpt>
      <trkpt lat="44.24154" lon="6.62687">
        <ele>1423.5999755859</ele>
        <time>2020-08-13T09:42:59.000Z</time>
      </trkpt>
      <trkpt lat="44.24152" lon="6.62687">
        <ele>1424</ele>
        <time>2020-08-13T09:43:05.000Z</time>
      </trkpt>
      <trkpt lat="44.24152" lon="6.62688">
        <ele>1424.1999511719</ele>
        <time>2020-08-13T09:43:15.000Z</time>
      </trkpt>
      <trkpt lat="44.24152" lon="6.62688">
        <ele>1424.1999511719</ele>
        <time>2020-08-13T09:43:16.000Z</time>
      </trkpt>
      <trkpt lat="44.24153" lon="6.62688">
        <ele>1424.1999511719</ele>
        <time>2020-08-13T09:43:18.000Z</time>
      </trkpt>
      <trkpt lat="44.24154" lon="6.6269">
        <ele>1424.1999511719</ele>
        <time>2020-08-13T09:43:20.000Z</time>
      </trkpt>
      <trkpt lat="44.24158" lon="6.62695">
        <ele>1424</ele>
        <time>2020-08-13T09:43:23.000Z</time>
      </trkpt>
      <trkpt lat="44.24163" lon="6.62694">
        <ele>1424</ele>
        <time>2020-08-13T09:43:25.000Z</time>
      </trkpt>
      <trkpt lat="44.24172" lon="6.62692">
        <ele>1423.8000488281</ele>
        <time>2020-08-13T09:43:28.000Z</time>
      </trkpt>
      <trkpt lat="44.24193" lon="6.62684">
        <ele>1424.1999511719</ele>
        <time>2020-08-13T09:43:35.000Z</time>
      </trkpt>
      <trkpt lat="44.24212" lon="6.62663">
        <ele>1424.4000244141</ele>
        <time>2020-08-13T09:43:42.000Z</time>
      </trkpt>
      <trkpt lat="44.24229" lon="6.6264">
        <ele>1424.4000244141</ele>
        <time>2020-08-13T09:43:48.000Z</time>
      </trkpt>
      <trkpt lat="44.24238" lon="6.62626">
        <ele>1424.8000488281</ele>
        <time>2020-08-13T09:43:51.000Z</time>
      </trkpt>
      <trkpt lat="44.24249" lon="6.62615">
        <ele>1424.8000488281</ele>
        <time>2020-08-13T09:43:54.000Z</time>
      </trkpt>
      <trkpt lat="44.24257" lon="6.62609">
        <ele>1424.8000488281</ele>
        <time>2020-08-13T09:43:56.000Z</time>
      </trkpt>
      <trkpt lat="44.24278" lon="6.62593">
        <ele>1424.8000488281</ele>
        <time>2020-08-13T09:44:01.000Z</time>
      </trkpt>
      <trkpt lat="44.24283" lon="6.6259">
        <ele>1425</ele>
        <time>2020-08-13T09:44:02.000Z</time>
      </trkpt>
      <trkpt lat="44.24302" lon="6.62576">
        <ele>1425.1999511719</ele>
        <time>2020-08-13T09:44:06.000Z</time>
      </trkpt>
      <trkpt lat="44.24351" lon="6.62542">
        <ele>1425.5999755859</ele>
        <time>2020-08-13T09:44:16.000Z</time>
      </trkpt>
      <trkpt lat="44.24375" lon="6.62526">
        <ele>1425.1999511719</ele>
        <time>2020-08-13T09:44:21.000Z</time>
      </trkpt>
      <trkpt lat="44.2439" lon="6.62515">
        <ele>1425.5999755859</ele>
        <time>2020-08-13T09:44:24.000Z</time>
      </trkpt>
      <trkpt lat="44.24401" lon="6.62508">
        <ele>1425.8000488281</ele>
        <time>2020-08-13T09:44:26.000Z</time>
      </trkpt>
      <trkpt lat="44.24436" lon="6.62485">
        <ele>1426.4000244141</ele>
        <time>2020-08-13T09:44:33.000Z</time>
      </trkpt>
      <trkpt lat="44.24447" lon="6.62479">
        <ele>1426.5999755859</ele>
        <time>2020-08-13T09:44:35.000Z</time>
      </trkpt>
      <trkpt lat="44.24458" lon="6.62476">
        <ele>1427</ele>
        <time>2020-08-13T09:44:37.000Z</time>
      </trkpt>
      <trkpt lat="44.24464" lon="6.62475">
        <ele>1427</ele>
        <time>2020-08-13T09:44:38.000Z</time>
      </trkpt>
      <trkpt lat="44.24469" lon="6.62475">
        <ele>1426.8000488281</ele>
        <time>2020-08-13T09:44:39.000Z</time>
      </trkpt>
      <trkpt lat="44.24511" lon="6.62465">
        <ele>1426.4000244141</ele>
        <time>2020-08-13T09:44:46.000Z</time>
      </trkpt>
      <trkpt lat="44.24521" lon="6.62454">
        <ele>1425.8000488281</ele>
        <time>2020-08-13T09:44:48.000Z</time>
      </trkpt>
      <trkpt lat="44.24525" lon="6.62446">
        <ele>1425.8000488281</ele>
        <time>2020-08-13T09:44:49.000Z</time>
      </trkpt>
      <trkpt lat="44.2453" lon="6.62429">
        <ele>1425.4000244141</ele>
        <time>2020-08-13T09:44:51.000Z</time>
      </trkpt>
      <trkpt lat="44.24538" lon="6.624">
        <ele>1425</ele>
        <time>2020-08-13T09:44:54.000Z</time>
      </trkpt>
      <trkpt lat="44.2454" lon="6.62392">
        <ele>1424.8000488281</ele>
        <time>2020-08-13T09:44:55.000Z</time>
      </trkpt>
      <trkpt lat="44.24559" lon="6.62321">
        <ele>1424.1999511719</ele>
        <time>2020-08-13T09:45:03.000Z</time>
      </trkpt>
      <trkpt lat="44.24564" lon="6.62296">
        <ele>1424</ele>
        <time>2020-08-13T09:45:06.000Z</time>
      </trkpt>
      <trkpt lat="44.24563" lon="6.62281">
        <ele>1424.4000244141</ele>
        <time>2020-08-13T09:45:08.000Z</time>
      </trkpt>
      <trkpt lat="44.24557" lon="6.62262">
        <ele>1425</ele>
        <time>2020-08-13T09:45:11.000Z</time>
      </trkpt>
      <trkpt lat="44.24554" lon="6.62256">
        <ele>1425.4000244141</ele>
        <time>2020-08-13T09:45:12.000Z</time>
      </trkpt>
      <trkpt lat="44.24548" lon="6.62245">
        <ele>1426.1999511719</ele>
        <time>2020-08-13T09:45:14.000Z</time>
      </trkpt>
      <trkpt lat="44.24542" lon="6.62233">
        <ele>1426.8000488281</ele>
        <time>2020-08-13T09:45:16.000Z</time>
      </trkpt>
      <trkpt lat="44.24537" lon="6.62221">
        <ele>1427.5999755859</ele>
        <time>2020-08-13T09:45:18.000Z</time>
      </trkpt>
      <trkpt lat="44.24535" lon="6.62214">
        <ele>1427.5999755859</ele>
        <time>2020-08-13T09:45:19.000Z</time>
      </trkpt>
      <trkpt lat="44.24533" lon="6.62208">
        <ele>1427.8000488281</ele>
        <time>2020-08-13T09:45:20.000Z</time>
      </trkpt>
      <trkpt lat="44.24531" lon="6.6218">
        <ele>1426.8000488281</ele>
        <time>2020-08-13T09:45:24.000Z</time>
      </trkpt>
      <trkpt lat="44.24522" lon="6.62126">
        <ele>1427.4000244141</ele>
        <time>2020-08-13T09:45:32.000Z</time>
      </trkpt>
      <trkpt lat="44.2452" lon="6.62121">
        <ele>1427.5999755859</ele>
        <time>2020-08-13T09:45:33.000Z</time>
      </trkpt>
      <trkpt lat="44.24517" lon="6.62114">
        <ele>1428.1999511719</ele>
        <time>2020-08-13T09:45:34.000Z</time>
      </trkpt>
      <trkpt lat="44.24515" lon="6.62109">
        <ele>1428.5999755859</ele>
        <time>2020-08-13T09:45:35.000Z</time>
      </trkpt>
      <trkpt lat="44.24505" lon="6.62091">
        <ele>1429.5999755859</ele>
        <time>2020-08-13T09:45:38.000Z</time>
      </trkpt>
      <trkpt lat="44.24492" lon="6.62069">
        <ele>1429.4000244141</ele>
        <time>2020-08-13T09:45:42.000Z</time>
      </trkpt>
      <trkpt lat="44.24489" lon="6.62063">
        <ele>1429.5999755859</ele>
        <time>2020-08-13T09:45:43.000Z</time>
      </trkpt>
      <trkpt lat="44.24484" lon="6.62051">
        <ele>1429.8000488281</ele>
        <time>2020-08-13T09:45:45.000Z</time>
      </trkpt>
      <trkpt lat="44.24482" lon="6.62044">
        <ele>1429.8000488281</ele>
        <time>2020-08-13T09:45:46.000Z</time>
      </trkpt>
      <trkpt lat="44.24474" lon="6.62012">
        <ele>1430.1999511719</ele>
        <time>2020-08-13T09:45:51.000Z</time>
      </trkpt>
      <trkpt lat="44.24473" lon="6.62005">
        <ele>1430.4000244141</ele>
        <time>2020-08-13T09:45:52.000Z</time>
      </trkpt>
      <trkpt lat="44.24471" lon="6.61977">
        <ele>1430.8000488281</ele>
        <time>2020-08-13T09:45:56.000Z</time>
      </trkpt>
      <trkpt lat="44.2447" lon="6.6197">
        <ele>1431</ele>
        <time>2020-08-13T09:45:57.000Z</time>
      </trkpt>
      <trkpt lat="44.24473" lon="6.6193">
        <ele>1431.4000244141</ele>
        <time>2020-08-13T09:46:02.000Z</time>
      </trkpt>
      <trkpt lat="44.24475" lon="6.619">
        <ele>1432.1999511719</ele>
        <time>2020-08-13T09:46:06.000Z</time>
      </trkpt>
      <trkpt lat="44.24479" lon="6.61879">
        <ele>1432.4000244141</ele>
        <time>2020-08-13T09:46:09.000Z</time>
      </trkpt>
      <trkpt lat="44.2449" lon="6.61861">
        <ele>1432.1999511719</ele>
        <time>2020-08-13T09:46:12.000Z</time>
      </trkpt>
      <trkpt lat="44.2451" lon="6.61838">
        <ele>1432.5999755859</ele>
        <time>2020-08-13T09:46:17.000Z</time>
      </trkpt>
      <trkpt lat="44.2452" lon="6.61805">
        <ele>1432.5999755859</ele>
        <time>2020-08-13T09:46:22.000Z</time>
      </trkpt>
      <trkpt lat="44.24521" lon="6.61799">
        <ele>1432.8000488281</ele>
        <time>2020-08-13T09:46:23.000Z</time>
      </trkpt>
      <trkpt lat="44.24523" lon="6.61786">
        <ele>1433.4000244141</ele>
        <time>2020-08-13T09:46:25.000Z</time>
      </trkpt>
      <trkpt lat="44.24525" lon="6.61765">
        <ele>1433.5999755859</ele>
        <time>2020-08-13T09:46:28.000Z</time>
      </trkpt>
      <trkpt lat="44.24525" lon="6.61758">
        <ele>1433.8000488281</ele>
        <time>2020-08-13T09:46:29.000Z</time>
      </trkpt>
      <trkpt lat="44.2452" lon="6.61731">
        <ele>1434.4000244141</ele>
        <time>2020-08-13T09:46:33.000Z</time>
      </trkpt>
      <trkpt lat="44.24517" lon="6.61724">
        <ele>1434.4000244141</ele>
        <time>2020-08-13T09:46:34.000Z</time>
      </trkpt>
      <trkpt lat="44.24507" lon="6.61698">
        <ele>1434.4000244141</ele>
        <time>2020-08-13T09:46:38.000Z</time>
      </trkpt>
      <trkpt lat="44.245" lon="6.61688">
        <ele>1434.5999755859</ele>
        <time>2020-08-13T09:46:40.000Z</time>
      </trkpt>
      <trkpt lat="44.2448" lon="6.61653">
        <ele>1435</ele>
        <time>2020-08-13T09:46:46.000Z</time>
      </trkpt>
      <trkpt lat="44.24478" lon="6.61646">
        <ele>1435</ele>
        <time>2020-08-13T09:46:47.000Z</time>
      </trkpt>
      <trkpt lat="44.24477" lon="6.61622">
        <ele>1435.4000244141</ele>
        <time>2020-08-13T09:46:50.000Z</time>
      </trkpt>
      <trkpt lat="44.24477" lon="6.61614">
        <ele>1435.5999755859</ele>
        <time>2020-08-13T09:46:51.000Z</time>
      </trkpt>
      <trkpt lat="44.24477" lon="6.61606">
        <ele>1435.4000244141</ele>
        <time>2020-08-13T09:46:52.000Z</time>
      </trkpt>
      <trkpt lat="44.24476" lon="6.61598">
        <ele>1435.5999755859</ele>
        <time>2020-08-13T09:46:53.000Z</time>
      </trkpt>
      <trkpt lat="44.2447" lon="6.61567">
        <ele>1436</ele>
        <time>2020-08-13T09:46:57.000Z</time>
      </trkpt>
      <trkpt lat="44.24474" lon="6.61543">
        <ele>1436</ele>
        <time>2020-08-13T09:47:00.000Z</time>
      </trkpt>
      <trkpt lat="44.24477" lon="6.61535">
        <ele>1436</ele>
        <time>2020-08-13T09:47:01.000Z</time>
      </trkpt>
      <trkpt lat="44.24479" lon="6.61527">
        <ele>1436</ele>
        <time>2020-08-13T09:47:02.000Z</time>
      </trkpt>
      <trkpt lat="44.24481" lon="6.61504">
        <ele>1436.5999755859</ele>
        <time>2020-08-13T09:47:05.000Z</time>
      </trkpt>
      <trkpt lat="44.24479" lon="6.61489">
        <ele>1437</ele>
        <time>2020-08-13T09:47:07.000Z</time>
      </trkpt>
      <trkpt lat="44.24479" lon="6.61481">
        <ele>1437.1999511719</ele>
        <time>2020-08-13T09:47:08.000Z</time>
      </trkpt>
      <trkpt lat="44.24479" lon="6.61468">
        <ele>1437.8000488281</ele>
        <time>2020-08-13T09:47:10.000Z</time>
      </trkpt>
      <trkpt lat="44.24479" lon="6.61461">
        <ele>1438</ele>
        <time>2020-08-13T09:47:11.000Z</time>
      </trkpt>
      <trkpt lat="44.2448" lon="6.61455">
        <ele>1438</ele>
        <time>2020-08-13T09:47:12.000Z</time>
      </trkpt>
      <trkpt lat="44.24484" lon="6.61432">
        <ele>1438.8000488281</ele>
        <time>2020-08-13T09:47:16.000Z</time>
      </trkpt>
      <trkpt lat="44.24487" lon="6.61421">
        <ele>1439.1999511719</ele>
        <time>2020-08-13T09:47:18.000Z</time>
      </trkpt>
      <trkpt lat="44.24492" lon="6.61399">
        <ele>1440.1999511719</ele>
        <time>2020-08-13T09:47:22.000Z</time>
      </trkpt>
      <trkpt lat="44.24502" lon="6.61373">
        <ele>1441.1999511719</ele>
        <time>2020-08-13T09:47:27.000Z</time>
      </trkpt>
      <trkpt lat="44.24513" lon="6.61345">
        <ele>1442.4000244141</ele>
        <time>2020-08-13T09:47:33.000Z</time>
      </trkpt>
      <trkpt lat="44.24515" lon="6.61339">
        <ele>1442.5999755859</ele>
        <time>2020-08-13T09:47:34.000Z</time>
      </trkpt>
      <trkpt lat="44.24524" lon="6.61311">
        <ele>1443.5999755859</ele>
        <time>2020-08-13T09:47:39.000Z</time>
      </trkpt>
      <trkpt lat="44.24529" lon="6.61295">
        <ele>1444.4000244141</ele>
        <time>2020-08-13T09:47:42.000Z</time>
      </trkpt>
      <trkpt lat="44.24531" lon="6.61289">
        <ele>1444.8000488281</ele>
        <time>2020-08-13T09:47:43.000Z</time>
      </trkpt>
      <trkpt lat="44.24543" lon="6.61257">
        <ele>1445.8000488281</ele>
        <time>2020-08-13T09:47:49.000Z</time>
      </trkpt>
      <trkpt lat="44.24547" lon="6.61247">
        <ele>1446</ele>
        <time>2020-08-13T09:47:51.000Z</time>
      </trkpt>
      <trkpt lat="44.24556" lon="6.61227">
        <ele>1447</ele>
        <time>2020-08-13T09:47:55.000Z</time>
      </trkpt>
      <trkpt lat="44.24567" lon="6.61203">
        <ele>1447.8000488281</ele>
        <time>2020-08-13T09:48:00.000Z</time>
      </trkpt>
      <trkpt lat="44.24572" lon="6.61193">
        <ele>1448.1999511719</ele>
        <time>2020-08-13T09:48:02.000Z</time>
      </trkpt>
      <trkpt lat="44.24587" lon="6.61155">
        <ele>1449.4000244141</ele>
        <time>2020-08-13T09:48:10.000Z</time>
      </trkpt>
      <trkpt lat="44.24592" lon="6.61135">
        <ele>1450.5999755859</ele>
        <time>2020-08-13T09:48:14.000Z</time>
      </trkpt>
      <trkpt lat="44.24596" lon="6.61111">
        <ele>1451.5999755859</ele>
        <time>2020-08-13T09:48:19.000Z</time>
      </trkpt>
      <trkpt lat="44.24599" lon="6.61092">
        <ele>1452.8000488281</ele>
        <time>2020-08-13T09:48:23.000Z</time>
      </trkpt>
      <trkpt lat="44.24605" lon="6.61067">
        <ele>1453.8000488281</ele>
        <time>2020-08-13T09:48:28.000Z</time>
      </trkpt>
      <trkpt lat="44.24606" lon="6.61062">
        <ele>1454</ele>
        <time>2020-08-13T09:48:29.000Z</time>
      </trkpt>
      <trkpt lat="44.2461" lon="6.61042">
        <ele>1455.1999511719</ele>
        <time>2020-08-13T09:48:33.000Z</time>
      </trkpt>
      <trkpt lat="44.24617" lon="6.61016">
        <ele>1456.4000244141</ele>
        <time>2020-08-13T09:48:38.000Z</time>
      </trkpt>
      <trkpt lat="44.24618" lon="6.61011">
        <ele>1456.5999755859</ele>
        <time>2020-08-13T09:48:39.000Z</time>
      </trkpt>
      <trkpt lat="44.24624" lon="6.60985">
        <ele>1457.5999755859</ele>
        <time>2020-08-13T09:48:44.000Z</time>
      </trkpt>
      <trkpt lat="44.2463" lon="6.60965">
        <ele>1458.5999755859</ele>
        <time>2020-08-13T09:48:48.000Z</time>
      </trkpt>
      <trkpt lat="44.24632" lon="6.60955">
        <ele>1459.1999511719</ele>
        <time>2020-08-13T09:48:50.000Z</time>
      </trkpt>
      <trkpt lat="44.24635" lon="6.60944">
        <ele>1459.5999755859</ele>
        <time>2020-08-13T09:48:52.000Z</time>
      </trkpt>
      <trkpt lat="44.24645" lon="6.60915">
        <ele>1460.8000488281</ele>
        <time>2020-08-13T09:48:58.000Z</time>
      </trkpt>
      <trkpt lat="44.24646" lon="6.6091">
        <ele>1460.8000488281</ele>
        <time>2020-08-13T09:48:59.000Z</time>
      </trkpt>
      <trkpt lat="44.24655" lon="6.60883">
        <ele>1461.8000488281</ele>
        <time>2020-08-13T09:49:05.000Z</time>
      </trkpt>
      <trkpt lat="44.2466" lon="6.60869">
        <ele>1462.4000244141</ele>
        <time>2020-08-13T09:49:08.000Z</time>
      </trkpt>
      <trkpt lat="44.24663" lon="6.6086">
        <ele>1462.8000488281</ele>
        <time>2020-08-13T09:49:10.000Z</time>
      </trkpt>
      <trkpt lat="44.24671" lon="6.60838">
        <ele>1464</ele>
        <time>2020-08-13T09:49:15.000Z</time>
      </trkpt>
      <trkpt lat="44.24677" lon="6.60824">
        <ele>1464.4000244141</ele>
        <time>2020-08-13T09:49:18.000Z</time>
      </trkpt>
      <trkpt lat="44.24685" lon="6.608">
        <ele>1465.1999511719</ele>
        <time>2020-08-13T09:49:23.000Z</time>
      </trkpt>
      <trkpt lat="44.24691" lon="6.60781">
        <ele>1466</ele>
        <time>2020-08-13T09:49:27.000Z</time>
      </trkpt>
      <trkpt lat="44.24692" lon="6.60776">
        <ele>1466.1999511719</ele>
        <time>2020-08-13T09:49:28.000Z</time>
      </trkpt>
      <trkpt lat="44.24696" lon="6.60756">
        <ele>1467.4000244141</ele>
        <time>2020-08-13T09:49:32.000Z</time>
      </trkpt>
      <trkpt lat="44.24699" lon="6.60733">
        <ele>1468</ele>
        <time>2020-08-13T09:49:36.000Z</time>
      </trkpt>
      <trkpt lat="44.247" lon="6.60717">
        <ele>1468.4000244141</ele>
        <time>2020-08-13T09:49:39.000Z</time>
      </trkpt>
      <trkpt lat="44.247" lon="6.60696">
        <ele>1469.4000244141</ele>
        <time>2020-08-13T09:49:43.000Z</time>
      </trkpt>
      <trkpt lat="44.247" lon="6.60691">
        <ele>1469.5999755859</ele>
        <time>2020-08-13T09:49:44.000Z</time>
      </trkpt>
      <trkpt lat="44.24697" lon="6.6066">
        <ele>1470.5999755859</ele>
        <time>2020-08-13T09:49:50.000Z</time>
      </trkpt>
      <trkpt lat="44.24695" lon="6.60649">
        <ele>1471</ele>
        <time>2020-08-13T09:49:52.000Z</time>
      </trkpt>
      <trkpt lat="44.24691" lon="6.60623">
        <ele>1471.8000488281</ele>
        <time>2020-08-13T09:49:57.000Z</time>
      </trkpt>
      <trkpt lat="44.24688" lon="6.60594">
        <ele>1472.8000488281</ele>
        <time>2020-08-13T09:50:02.000Z</time>
      </trkpt>
      <trkpt lat="44.24692" lon="6.60556">
        <ele>1473.8000488281</ele>
        <time>2020-08-13T09:50:09.000Z</time>
      </trkpt>
      <trkpt lat="44.24693" lon="6.60551">
        <ele>1473.8000488281</ele>
        <time>2020-08-13T09:50:10.000Z</time>
      </trkpt>
      <trkpt lat="44.24701" lon="6.60528">
        <ele>1475</ele>
        <time>2020-08-13T09:50:15.000Z</time>
      </trkpt>
      <trkpt lat="44.24704" lon="6.60524">
        <ele>1475.4000244141</ele>
        <time>2020-08-13T09:50:16.000Z</time>
      </trkpt>
      <trkpt lat="44.24715" lon="6.60506">
        <ele>1476.1999511719</ele>
        <time>2020-08-13T09:50:20.000Z</time>
      </trkpt>
      <trkpt lat="44.24719" lon="6.60502">
        <ele>1476.1999511719</ele>
        <time>2020-08-13T09:50:21.000Z</time>
      </trkpt>
      <trkpt lat="44.24731" lon="6.60486">
        <ele>1477.1999511719</ele>
        <time>2020-08-13T09:50:25.000Z</time>
      </trkpt>
      <trkpt lat="44.24742" lon="6.60472">
        <ele>1478.1999511719</ele>
        <time>2020-08-13T09:50:29.000Z</time>
      </trkpt>
      <trkpt lat="44.24756" lon="6.60456">
        <ele>1479.5999755859</ele>
        <time>2020-08-13T09:50:34.000Z</time>
      </trkpt>
      <trkpt lat="44.24767" lon="6.60443">
        <ele>1480.4000244141</ele>
        <time>2020-08-13T09:50:38.000Z</time>
      </trkpt>
      <trkpt lat="44.24772" lon="6.60437">
        <ele>1480.5999755859</ele>
        <time>2020-08-13T09:50:40.000Z</time>
      </trkpt>
      <trkpt lat="44.2479" lon="6.60416">
        <ele>1481.8000488281</ele>
        <time>2020-08-13T09:50:46.000Z</time>
      </trkpt>
      <trkpt lat="44.24794" lon="6.60412">
        <ele>1481.8000488281</ele>
        <time>2020-08-13T09:50:47.000Z</time>
      </trkpt>
      <trkpt lat="44.24815" lon="6.60386">
        <ele>1482.8000488281</ele>
        <time>2020-08-13T09:50:54.000Z</time>
      </trkpt>
      <trkpt lat="44.24824" lon="6.60376">
        <ele>1483.5999755859</ele>
        <time>2020-08-13T09:50:57.000Z</time>
      </trkpt>
      <trkpt lat="44.2483" lon="6.60369">
        <ele>1483.8000488281</ele>
        <time>2020-08-13T09:50:59.000Z</time>
      </trkpt>
      <trkpt lat="44.24841" lon="6.60355">
        <ele>1485</ele>
        <time>2020-08-13T09:51:03.000Z</time>
      </trkpt>
      <trkpt lat="44.24854" lon="6.60341">
        <ele>1485.4000244141</ele>
        <time>2020-08-13T09:51:07.000Z</time>
      </trkpt>
      <trkpt lat="44.24863" lon="6.60332">
        <ele>1486</ele>
        <time>2020-08-13T09:51:10.000Z</time>
      </trkpt>
      <trkpt lat="44.24879" lon="6.60319">
        <ele>1486.8000488281</ele>
        <time>2020-08-13T09:51:15.000Z</time>
      </trkpt>
      <trkpt lat="44.24882" lon="6.60315">
        <ele>1487</ele>
        <time>2020-08-13T09:51:16.000Z</time>
      </trkpt>
      <trkpt lat="44.24891" lon="6.60297">
        <ele>1487.5999755859</ele>
        <time>2020-08-13T09:51:20.000Z</time>
      </trkpt>
      <trkpt lat="44.24893" lon="6.60287">
        <ele>1488</ele>
        <time>2020-08-13T09:51:22.000Z</time>
      </trkpt>
      <trkpt lat="44.24896" lon="6.60266">
        <ele>1488.8000488281</ele>
        <time>2020-08-13T09:51:26.000Z</time>
      </trkpt>
      <trkpt lat="44.24898" lon="6.60251">
        <ele>1489.1999511719</ele>
        <time>2020-08-13T09:51:29.000Z</time>
      </trkpt>
      <trkpt lat="44.24903" lon="6.60236">
        <ele>1489.8000488281</ele>
        <time>2020-08-13T09:51:32.000Z</time>
      </trkpt>
      <trkpt lat="44.2491" lon="6.60224">
        <ele>1490.4000244141</ele>
        <time>2020-08-13T09:51:35.000Z</time>
      </trkpt>
      <trkpt lat="44.24918" lon="6.60213">
        <ele>1490.8000488281</ele>
        <time>2020-08-13T09:51:38.000Z</time>
      </trkpt>
      <trkpt lat="44.24929" lon="6.60197">
        <ele>1491.5999755859</ele>
        <time>2020-08-13T09:51:42.000Z</time>
      </trkpt>
      <trkpt lat="44.24935" lon="6.60185">
        <ele>1492.4000244141</ele>
        <time>2020-08-13T09:51:45.000Z</time>
      </trkpt>
      <trkpt lat="44.24937" lon="6.6018">
        <ele>1492.8000488281</ele>
        <time>2020-08-13T09:51:46.000Z</time>
      </trkpt>
      <trkpt lat="44.24957" lon="6.60152">
        <ele>1493.5999755859</ele>
        <time>2020-08-13T09:51:53.000Z</time>
      </trkpt>
      <trkpt lat="44.24961" lon="6.60149">
        <ele>1493.8000488281</ele>
        <time>2020-08-13T09:51:54.000Z</time>
      </trkpt>
      <trkpt lat="44.2498" lon="6.60136">
        <ele>1495</ele>
        <time>2020-08-13T09:51:59.000Z</time>
      </trkpt>
      <trkpt lat="44.24983" lon="6.60134">
        <ele>1495.1999511719</ele>
        <time>2020-08-13T09:52:00.000Z</time>
      </trkpt>
      <trkpt lat="44.24997" lon="6.60125">
        <ele>1496</ele>
        <time>2020-08-13T09:52:04.000Z</time>
      </trkpt>
      <trkpt lat="44.25017" lon="6.60112">
        <ele>1497</ele>
        <time>2020-08-13T09:52:10.000Z</time>
      </trkpt>
      <trkpt lat="44.25042" lon="6.60096">
        <ele>1498</ele>
        <time>2020-08-13T09:52:17.000Z</time>
      </trkpt>
      <trkpt lat="44.2505" lon="6.60093">
        <ele>1498.4000244141</ele>
        <time>2020-08-13T09:52:19.000Z</time>
      </trkpt>
      <trkpt lat="44.25074" lon="6.60083">
        <ele>1499.1999511719</ele>
        <time>2020-08-13T09:52:25.000Z</time>
      </trkpt>
      <trkpt lat="44.25085" lon="6.60077">
        <ele>1500</ele>
        <time>2020-08-13T09:52:28.000Z</time>
      </trkpt>
      <trkpt lat="44.25096" lon="6.60069">
        <ele>1500.4000244141</ele>
        <time>2020-08-13T09:52:31.000Z</time>
      </trkpt>
      <trkpt lat="44.25109" lon="6.60057">
        <ele>1501</ele>
        <time>2020-08-13T09:52:35.000Z</time>
      </trkpt>
      <trkpt lat="44.25126" lon="6.60043">
        <ele>1501.4000244141</ele>
        <time>2020-08-13T09:52:40.000Z</time>
      </trkpt>
      <trkpt lat="44.25138" lon="6.60037">
        <ele>1502</ele>
        <time>2020-08-13T09:52:43.000Z</time>
      </trkpt>
      <trkpt lat="44.25144" lon="6.60031">
        <ele>1502.4000244141</ele>
        <time>2020-08-13T09:52:45.000Z</time>
      </trkpt>
      <trkpt lat="44.25148" lon="6.60027">
        <ele>1502.5999755859</ele>
        <time>2020-08-13T09:52:46.000Z</time>
      </trkpt>
      <trkpt lat="44.25153" lon="6.60019">
        <ele>1502.8000488281</ele>
        <time>2020-08-13T09:52:48.000Z</time>
      </trkpt>
      <trkpt lat="44.25155" lon="6.60014">
        <ele>1503</ele>
        <time>2020-08-13T09:52:49.000Z</time>
      </trkpt>
      <trkpt lat="44.25161" lon="6.59998">
        <ele>1503.4000244141</ele>
        <time>2020-08-13T09:52:52.000Z</time>
      </trkpt>
      <trkpt lat="44.25172" lon="6.59967">
        <ele>1504.1999511719</ele>
        <time>2020-08-13T09:52:58.000Z</time>
      </trkpt>
      <trkpt lat="44.25176" lon="6.59958">
        <ele>1504.5999755859</ele>
        <time>2020-08-13T09:53:00.000Z</time>
      </trkpt>
      <trkpt lat="44.2519" lon="6.59931">
        <ele>1505.5999755859</ele>
        <time>2020-08-13T09:53:06.000Z</time>
      </trkpt>
      <trkpt lat="44.25193" lon="6.59927">
        <ele>1505.8000488281</ele>
        <time>2020-08-13T09:53:07.000Z</time>
      </trkpt>
      <trkpt lat="44.25211" lon="6.59906">
        <ele>1506.5999755859</ele>
        <time>2020-08-13T09:53:13.000Z</time>
      </trkpt>
      <trkpt lat="44.25217" lon="6.59899">
        <ele>1506.8000488281</ele>
        <time>2020-08-13T09:53:15.000Z</time>
      </trkpt>
      <trkpt lat="44.25229" lon="6.59884">
        <ele>1507.8000488281</ele>
        <time>2020-08-13T09:53:19.000Z</time>
      </trkpt>
      <trkpt lat="44.25235" lon="6.59876">
        <ele>1508.4000244141</ele>
        <time>2020-08-13T09:53:21.000Z</time>
      </trkpt>
      <trkpt lat="44.2525" lon="6.59858">
        <ele>1509</ele>
        <time>2020-08-13T09:53:26.000Z</time>
      </trkpt>
      <trkpt lat="44.25255" lon="6.59851">
        <ele>1509.1999511719</ele>
        <time>2020-08-13T09:53:28.000Z</time>
      </trkpt>
      <trkpt lat="44.25274" lon="6.59833">
        <ele>1510</ele>
        <time>2020-08-13T09:53:34.000Z</time>
      </trkpt>
      <trkpt lat="44.25277" lon="6.59832">
        <ele>1510.1999511719</ele>
        <time>2020-08-13T09:53:35.000Z</time>
      </trkpt>
      <trkpt lat="44.25294" lon="6.59833">
        <ele>1511</ele>
        <time>2020-08-13T09:53:40.000Z</time>
      </trkpt>
      <trkpt lat="44.25298" lon="6.59835">
        <ele>1511</ele>
        <time>2020-08-13T09:53:41.000Z</time>
      </trkpt>
      <trkpt lat="44.25321" lon="6.59846">
        <ele>1512.1999511719</ele>
        <time>2020-08-13T09:53:48.000Z</time>
      </trkpt>
      <trkpt lat="44.25341" lon="6.59848">
        <ele>1513.1999511719</ele>
        <time>2020-08-13T09:53:54.000Z</time>
      </trkpt>
      <trkpt lat="44.25349" lon="6.59833">
        <ele>1513.8000488281</ele>
        <time>2020-08-13T09:53:58.000Z</time>
      </trkpt>
      <trkpt lat="44.25351" lon="6.59823">
        <ele>1514</ele>
        <time>2020-08-13T09:54:00.000Z</time>
      </trkpt>
      <trkpt lat="44.2535" lon="6.59818">
        <ele>1514.1999511719</ele>
        <time>2020-08-13T09:54:01.000Z</time>
      </trkpt>
      <trkpt lat="44.25348" lon="6.59813">
        <ele>1514.4000244141</ele>
        <time>2020-08-13T09:54:02.000Z</time>
      </trkpt>
      <trkpt lat="44.25341" lon="6.59801">
        <ele>1514.5999755859</ele>
        <time>2020-08-13T09:54:05.000Z</time>
      </trkpt>
      <trkpt lat="44.25334" lon="6.59788">
        <ele>1515</ele>
        <time>2020-08-13T09:54:08.000Z</time>
      </trkpt>
      <trkpt lat="44.25329" lon="6.59781">
        <ele>1515.1999511719</ele>
        <time>2020-08-13T09:54:10.000Z</time>
      </trkpt>
      <trkpt lat="44.25323" lon="6.59761">
        <ele>1516</ele>
        <time>2020-08-13T09:54:14.000Z</time>
      </trkpt>
      <trkpt lat="44.25326" lon="6.59745">
        <ele>1516.4000244141</ele>
        <time>2020-08-13T09:54:17.000Z</time>
      </trkpt>
      <trkpt lat="44.25328" lon="6.59741">
        <ele>1516.4000244141</ele>
        <time>2020-08-13T09:54:18.000Z</time>
      </trkpt>
      <trkpt lat="44.25337" lon="6.59732">
        <ele>1517.1999511719</ele>
        <time>2020-08-13T09:54:21.000Z</time>
      </trkpt>
      <trkpt lat="44.2534" lon="6.59729">
        <ele>1517.5999755859</ele>
        <time>2020-08-13T09:54:22.000Z</time>
      </trkpt>
      <trkpt lat="44.25347" lon="6.59724">
        <ele>1518</ele>
        <time>2020-08-13T09:54:24.000Z</time>
      </trkpt>
      <trkpt lat="44.25355" lon="6.59716">
        <ele>1518.5999755859</ele>
        <time>2020-08-13T09:54:27.000Z</time>
      </trkpt>
      <trkpt lat="44.25367" lon="6.597">
        <ele>1519.4000244141</ele>
        <time>2020-08-13T09:54:32.000Z</time>
      </trkpt>
      <trkpt lat="44.2537" lon="6.5969">
        <ele>1519.8000488281</ele>
        <time>2020-08-13T09:54:34.000Z</time>
      </trkpt>
      <trkpt lat="44.25381" lon="6.59667">
        <ele>1520.1999511719</ele>
        <time>2020-08-13T09:54:39.000Z</time>
      </trkpt>
      <trkpt lat="44.25388" lon="6.59655">
        <ele>1520.8000488281</ele>
        <time>2020-08-13T09:54:42.000Z</time>
      </trkpt>
      <trkpt lat="44.254" lon="6.59635">
        <ele>1521.5999755859</ele>
        <time>2020-08-13T09:54:47.000Z</time>
      </trkpt>
      <trkpt lat="44.25405" lon="6.59627">
        <ele>1521.8000488281</ele>
        <time>2020-08-13T09:54:49.000Z</time>
      </trkpt>
      <trkpt lat="44.25422" lon="6.59615">
        <ele>1522.8000488281</ele>
        <time>2020-08-13T09:54:54.000Z</time>
      </trkpt>
      <trkpt lat="44.25426" lon="6.59613">
        <ele>1523</ele>
        <time>2020-08-13T09:54:55.000Z</time>
      </trkpt>
      <trkpt lat="44.25451" lon="6.59601">
        <ele>1524.1999511719</ele>
        <time>2020-08-13T09:55:01.000Z</time>
      </trkpt>
      <trkpt lat="44.25465" lon="6.59586">
        <ele>1524.5999755859</ele>
        <time>2020-08-13T09:55:05.000Z</time>
      </trkpt>
      <trkpt lat="44.25471" lon="6.59577">
        <ele>1525</ele>
        <time>2020-08-13T09:55:07.000Z</time>
      </trkpt>
      <trkpt lat="44.25474" lon="6.59573">
        <ele>1525.4000244141</ele>
        <time>2020-08-13T09:55:08.000Z</time>
      </trkpt>
      <trkpt lat="44.25477" lon="6.5957">
        <ele>1525.5999755859</ele>
        <time>2020-08-13T09:55:09.000Z</time>
      </trkpt>
      <trkpt lat="44.25491" lon="6.59556">
        <ele>1526.4000244141</ele>
        <time>2020-08-13T09:55:13.000Z</time>
      </trkpt>
      <trkpt lat="44.25496" lon="6.59548">
        <ele>1526.8000488281</ele>
        <time>2020-08-13T09:55:15.000Z</time>
      </trkpt>
      <trkpt lat="44.25508" lon="6.59525">
        <ele>1527.4000244141</ele>
        <time>2020-08-13T09:55:20.000Z</time>
      </trkpt>
      <trkpt lat="44.25518" lon="6.59507">
        <ele>1528.1999511719</ele>
        <time>2020-08-13T09:55:24.000Z</time>
      </trkpt>
      <trkpt lat="44.25523" lon="6.59498">
        <ele>1528.5999755859</ele>
        <time>2020-08-13T09:55:26.000Z</time>
      </trkpt>
      <trkpt lat="44.25535" lon="6.59477">
        <ele>1529.5999755859</ele>
        <time>2020-08-13T09:55:31.000Z</time>
      </trkpt>
      <trkpt lat="44.2554" lon="6.59468">
        <ele>1530</ele>
        <time>2020-08-13T09:55:33.000Z</time>
      </trkpt>
      <trkpt lat="44.25551" lon="6.59453">
        <ele>1530.5999755859</ele>
        <time>2020-08-13T09:55:37.000Z</time>
      </trkpt>
      <trkpt lat="44.25561" lon="6.59444">
        <ele>1531</ele>
        <time>2020-08-13T09:55:40.000Z</time>
      </trkpt>
      <trkpt lat="44.25572" lon="6.5943">
        <ele>1531.8000488281</ele>
        <time>2020-08-13T09:55:44.000Z</time>
      </trkpt>
      <trkpt lat="44.25583" lon="6.59413">
        <ele>1532.4000244141</ele>
        <time>2020-08-13T09:55:48.000Z</time>
      </trkpt>
      <trkpt lat="44.2559" lon="6.594">
        <ele>1532.8000488281</ele>
        <time>2020-08-13T09:55:51.000Z</time>
      </trkpt>
      <trkpt lat="44.25604" lon="6.59379">
        <ele>1533.4000244141</ele>
        <time>2020-08-13T09:55:56.000Z</time>
      </trkpt>
      <trkpt lat="44.2561" lon="6.59372">
        <ele>1533.8000488281</ele>
        <time>2020-08-13T09:55:58.000Z</time>
      </trkpt>
      <trkpt lat="44.25631" lon="6.59346">
        <ele>1534.8000488281</ele>
        <time>2020-08-13T09:56:05.000Z</time>
      </trkpt>
      <trkpt lat="44.2565" lon="6.5931">
        <ele>1535.8000488281</ele>
        <time>2020-08-13T09:56:13.000Z</time>
      </trkpt>
      <trkpt lat="44.25667" lon="6.59273">
        <ele>1537</ele>
        <time>2020-08-13T09:56:21.000Z</time>
      </trkpt>
      <trkpt lat="44.2567" lon="6.59269">
        <ele>1537.4000244141</ele>
        <time>2020-08-13T09:56:22.000Z</time>
      </trkpt>
      <trkpt lat="44.25679" lon="6.59252">
        <ele>1538.1999511719</ele>
        <time>2020-08-13T09:56:26.000Z</time>
      </trkpt>
      <trkpt lat="44.25685" lon="6.59239">
        <ele>1538.5999755859</ele>
        <time>2020-08-13T09:56:29.000Z</time>
      </trkpt>
      <trkpt lat="44.25696" lon="6.59214">
        <ele>1539.1999511719</ele>
        <time>2020-08-13T09:56:34.000Z</time>
      </trkpt>
      <trkpt lat="44.25702" lon="6.59205">
        <ele>1539.5999755859</ele>
        <time>2020-08-13T09:56:36.000Z</time>
      </trkpt>
      <trkpt lat="44.25712" lon="6.59195">
        <ele>1540.1999511719</ele>
        <time>2020-08-13T09:56:39.000Z</time>
      </trkpt>
      <trkpt lat="44.25725" lon="6.59181">
        <ele>1541.1999511719</ele>
        <time>2020-08-13T09:56:43.000Z</time>
      </trkpt>
      <trkpt lat="44.25728" lon="6.59177">
        <ele>1541.4000244141</ele>
        <time>2020-08-13T09:56:44.000Z</time>
      </trkpt>
      <trkpt lat="44.25753" lon="6.59142">
        <ele>1542.4000244141</ele>
        <time>2020-08-13T09:56:53.000Z</time>
      </trkpt>
      <trkpt lat="44.25768" lon="6.59119">
        <ele>1543.5999755859</ele>
        <time>2020-08-13T09:56:59.000Z</time>
      </trkpt>
      <trkpt lat="44.25784" lon="6.59096">
        <ele>1544.4000244141</ele>
        <time>2020-08-13T09:57:05.000Z</time>
      </trkpt>
      <trkpt lat="44.2579" lon="6.59087">
        <ele>1544.8000488281</ele>
        <time>2020-08-13T09:57:07.000Z</time>
      </trkpt>
      <trkpt lat="44.25803" lon="6.59066">
        <ele>1545.8000488281</ele>
        <time>2020-08-13T09:57:12.000Z</time>
      </trkpt>
      <trkpt lat="44.25808" lon="6.59057">
        <ele>1546.1999511719</ele>
        <time>2020-08-13T09:57:14.000Z</time>
      </trkpt>
      <trkpt lat="44.25815" lon="6.59046">
        <ele>1546.8000488281</ele>
        <time>2020-08-13T09:57:17.000Z</time>
      </trkpt>
      <trkpt lat="44.25823" lon="6.59028">
        <ele>1547.4000244141</ele>
        <time>2020-08-13T09:57:21.000Z</time>
      </trkpt>
      <trkpt lat="44.25831" lon="6.59011">
        <ele>1548</ele>
        <time>2020-08-13T09:57:25.000Z</time>
      </trkpt>
      <trkpt lat="44.25837" lon="6.58993">
        <ele>1548.8000488281</ele>
        <time>2020-08-13T09:57:29.000Z</time>
      </trkpt>
      <trkpt lat="44.25839" lon="6.58984">
        <ele>1549</ele>
        <time>2020-08-13T09:57:31.000Z</time>
      </trkpt>
      <trkpt lat="44.25844" lon="6.58959">
        <ele>1550.1999511719</ele>
        <time>2020-08-13T09:57:36.000Z</time>
      </trkpt>
      <trkpt lat="44.25845" lon="6.58953">
        <ele>1550.4000244141</ele>
        <time>2020-08-13T09:57:37.000Z</time>
      </trkpt>
      <trkpt lat="44.2585" lon="6.58934">
        <ele>1551.4000244141</ele>
        <time>2020-08-13T09:57:41.000Z</time>
      </trkpt>
      <trkpt lat="44.25854" lon="6.58921">
        <ele>1552</ele>
        <time>2020-08-13T09:57:44.000Z</time>
      </trkpt>
      <trkpt lat="44.25857" lon="6.58914">
        <ele>1552.4000244141</ele>
        <time>2020-08-13T09:57:46.000Z</time>
      </trkpt>
      <trkpt lat="44.25866" lon="6.58899">
        <ele>1553.4000244141</ele>
        <time>2020-08-13T09:57:51.000Z</time>
      </trkpt>
      <trkpt lat="44.25869" lon="6.58896">
        <ele>1553.8000488281</ele>
        <time>2020-08-13T09:57:52.000Z</time>
      </trkpt>
      <trkpt lat="44.2588" lon="6.58886">
        <ele>1554.8000488281</ele>
        <time>2020-08-13T09:57:57.000Z</time>
      </trkpt>
      <trkpt lat="44.25885" lon="6.58883">
        <ele>1555.1999511719</ele>
        <time>2020-08-13T09:57:59.000Z</time>
      </trkpt>
      <trkpt lat="44.2589" lon="6.58881">
        <ele>1555.8000488281</ele>
        <time>2020-08-13T09:58:01.000Z</time>
      </trkpt>
      <trkpt lat="44.259" lon="6.58879">
        <ele>1556.8000488281</ele>
        <time>2020-08-13T09:58:05.000Z</time>
      </trkpt>
      <trkpt lat="44.2591" lon="6.58876">
        <ele>1557.5999755859</ele>
        <time>2020-08-13T09:58:09.000Z</time>
      </trkpt>
      <trkpt lat="44.25915" lon="6.58876">
        <ele>1558</ele>
        <time>2020-08-13T09:58:11.000Z</time>
      </trkpt>
      <trkpt lat="44.25924" lon="6.58874">
        <ele>1559</ele>
        <time>2020-08-13T09:58:15.000Z</time>
      </trkpt>
      <trkpt lat="44.25926" lon="6.58874">
        <ele>1559.1999511719</ele>
        <time>2020-08-13T09:58:16.000Z</time>
      </trkpt>
      <trkpt lat="44.25935" lon="6.58872">
        <ele>1560.1999511719</ele>
        <time>2020-08-13T09:58:21.000Z</time>
      </trkpt>
      <trkpt lat="44.25937" lon="6.58871">
        <ele>1560.4000244141</ele>
        <time>2020-08-13T09:58:22.000Z</time>
      </trkpt>
      <trkpt lat="44.25949" lon="6.58867">
        <ele>1561.1999511719</ele>
        <time>2020-08-13T09:58:29.000Z</time>
      </trkpt>
      <trkpt lat="44.25952" lon="6.58865">
        <ele>1561.4000244141</ele>
        <time>2020-08-13T09:58:31.000Z</time>
      </trkpt>
      <trkpt lat="44.25964" lon="6.58854">
        <ele>1562.1999511719</ele>
        <time>2020-08-13T09:58:38.000Z</time>
      </trkpt>
      <trkpt lat="44.25968" lon="6.5885">
        <ele>1562.4000244141</ele>
        <time>2020-08-13T09:58:40.000Z</time>
      </trkpt>
      <trkpt lat="44.25979" lon="6.58834">
        <ele>1563.5999755859</ele>
        <time>2020-08-13T09:58:47.000Z</time>
      </trkpt>
      <trkpt lat="44.25981" lon="6.58829">
        <ele>1563.8000488281</ele>
        <time>2020-08-13T09:58:49.000Z</time>
      </trkpt>
      <trkpt lat="44.25987" lon="6.58816">
        <ele>1564.5999755859</ele>
        <time>2020-08-13T09:58:54.000Z</time>
      </trkpt>
      <trkpt lat="44.25989" lon="6.5881">
        <ele>1565</ele>
        <time>2020-08-13T09:58:56.000Z</time>
      </trkpt>
      <trkpt lat="44.25991" lon="6.58797">
        <ele>1565.8000488281</ele>
        <time>2020-08-13T09:59:00.000Z</time>
      </trkpt>
      <trkpt lat="44.25995" lon="6.58781">
        <ele>1566.5999755859</ele>
        <time>2020-08-13T09:59:05.000Z</time>
      </trkpt>
      <trkpt lat="44.25996" lon="6.58774">
        <ele>1566.8000488281</ele>
        <time>2020-08-13T09:59:07.000Z</time>
      </trkpt>
      <trkpt lat="44.26" lon="6.58751">
        <ele>1567.8000488281</ele>
        <time>2020-08-13T09:59:14.000Z</time>
      </trkpt>
      <trkpt lat="44.26001" lon="6.58748">
        <ele>1567.8000488281</ele>
        <time>2020-08-13T09:59:15.000Z</time>
      </trkpt>
      <trkpt lat="44.26007" lon="6.58729">
        <ele>1569</ele>
        <time>2020-08-13T09:59:21.000Z</time>
      </trkpt>
      <trkpt lat="44.2601" lon="6.5872">
        <ele>1569.5999755859</ele>
        <time>2020-08-13T09:59:24.000Z</time>
      </trkpt>
      <trkpt lat="44.26017" lon="6.5871">
        <ele>1570.1999511719</ele>
        <time>2020-08-13T09:59:28.000Z</time>
      </trkpt>
      <trkpt lat="44.26025" lon="6.587">
        <ele>1571</ele>
        <time>2020-08-13T09:59:32.000Z</time>
      </trkpt>
      <trkpt lat="44.26027" lon="6.58698">
        <ele>1571.4000244141</ele>
        <time>2020-08-13T09:59:33.000Z</time>
      </trkpt>
      <trkpt lat="44.26036" lon="6.58688">
        <ele>1572.4000244141</ele>
        <time>2020-08-13T09:59:38.000Z</time>
      </trkpt>
      <trkpt lat="44.26045" lon="6.58681">
        <ele>1573</ele>
        <time>2020-08-13T09:59:42.000Z</time>
      </trkpt>
      <trkpt lat="44.26051" lon="6.58675">
        <ele>1573.5999755859</ele>
        <time>2020-08-13T09:59:45.000Z</time>
      </trkpt>
      <trkpt lat="44.2606" lon="6.58668">
        <ele>1574.1999511719</ele>
        <time>2020-08-13T09:59:49.000Z</time>
      </trkpt>
      <trkpt lat="44.26069" lon="6.58659">
        <ele>1574.8000488281</ele>
        <time>2020-08-13T09:59:53.000Z</time>
      </trkpt>
      <trkpt lat="44.2608" lon="6.58649">
        <ele>1575.4000244141</ele>
        <time>2020-08-13T09:59:58.000Z</time>
      </trkpt>
      <trkpt lat="44.26086" lon="6.58641">
        <ele>1576</ele>
        <time>2020-08-13T10:00:01.000Z</time>
      </trkpt>
      <trkpt lat="44.261" lon="6.58618">
        <ele>1577</ele>
        <time>2020-08-13T10:00:09.000Z</time>
      </trkpt>
      <trkpt lat="44.26102" lon="6.58616">
        <ele>1577.1999511719</ele>
        <time>2020-08-13T10:00:10.000Z</time>
      </trkpt>
      <trkpt lat="44.26112" lon="6.58599">
        <ele>1578.1999511719</ele>
        <time>2020-08-13T10:00:16.000Z</time>
      </trkpt>
      <trkpt lat="44.26116" lon="6.58591">
        <ele>1578.8000488281</ele>
        <time>2020-08-13T10:00:19.000Z</time>
      </trkpt>
      <trkpt lat="44.2612" lon="6.58585">
        <ele>1579.4000244141</ele>
        <time>2020-08-13T10:00:21.000Z</time>
      </trkpt>
      <trkpt lat="44.26133" lon="6.58571">
        <ele>1580.1999511719</ele>
        <time>2020-08-13T10:00:27.000Z</time>
      </trkpt>
      <trkpt lat="44.26135" lon="6.58569">
        <ele>1580.4000244141</ele>
        <time>2020-08-13T10:00:28.000Z</time>
      </trkpt>
      <trkpt lat="44.26163" lon="6.58546">
        <ele>1581.5999755859</ele>
        <time>2020-08-13T10:00:40.000Z</time>
      </trkpt>
      <trkpt lat="44.26173" lon="6.58538">
        <ele>1582.8000488281</ele>
        <time>2020-08-13T10:00:44.000Z</time>
      </trkpt>
      <trkpt lat="44.26186" lon="6.58527">
        <ele>1584</ele>
        <time>2020-08-13T10:00:50.000Z</time>
      </trkpt>
      <trkpt lat="44.26206" lon="6.58515">
        <ele>1585</ele>
        <time>2020-08-13T10:00:58.000Z</time>
      </trkpt>
      <trkpt lat="44.26208" lon="6.58513">
        <ele>1585.1999511719</ele>
        <time>2020-08-13T10:00:59.000Z</time>
      </trkpt>
      <trkpt lat="44.26222" lon="6.58504">
        <ele>1586.1999511719</ele>
        <time>2020-08-13T10:01:05.000Z</time>
      </trkpt>
      <trkpt lat="44.26225" lon="6.58503">
        <ele>1586.4000244141</ele>
        <time>2020-08-13T10:01:06.000Z</time>
      </trkpt>
      <trkpt lat="44.26235" lon="6.58497">
        <ele>1587.4000244141</ele>
        <time>2020-08-13T10:01:10.000Z</time>
      </trkpt>
      <trkpt lat="44.26249" lon="6.58485">
        <ele>1588.4000244141</ele>
        <time>2020-08-13T10:01:16.000Z</time>
      </trkpt>
      <trkpt lat="44.26263" lon="6.58471">
        <ele>1589.4000244141</ele>
        <time>2020-08-13T10:01:22.000Z</time>
      </trkpt>
      <trkpt lat="44.26265" lon="6.58469">
        <ele>1589.5999755859</ele>
        <time>2020-08-13T10:01:23.000Z</time>
      </trkpt>
      <trkpt lat="44.26278" lon="6.58455">
        <ele>1590.4000244141</ele>
        <time>2020-08-13T10:01:29.000Z</time>
      </trkpt>
      <trkpt lat="44.2628" lon="6.58453">
        <ele>1590.5999755859</ele>
        <time>2020-08-13T10:01:30.000Z</time>
      </trkpt>
      <trkpt lat="44.2629" lon="6.58441">
        <ele>1591.5999755859</ele>
        <time>2020-08-13T10:01:35.000Z</time>
      </trkpt>
      <trkpt lat="44.26299" lon="6.58429">
        <ele>1592.1999511719</ele>
        <time>2020-08-13T10:01:40.000Z</time>
      </trkpt>
      <trkpt lat="44.26305" lon="6.58422">
        <ele>1592.8000488281</ele>
        <time>2020-08-13T10:01:43.000Z</time>
      </trkpt>
      <trkpt lat="44.26321" lon="6.58403">
        <ele>1593.5999755859</ele>
        <time>2020-08-13T10:01:51.000Z</time>
      </trkpt>
      <trkpt lat="44.26323" lon="6.584">
        <ele>1593.8000488281</ele>
        <time>2020-08-13T10:01:52.000Z</time>
      </trkpt>
      <trkpt lat="44.2633" lon="6.5838">
        <ele>1594.8000488281</ele>
        <time>2020-08-13T10:01:58.000Z</time>
      </trkpt>
      <trkpt lat="44.2633" lon="6.58376">
        <ele>1594.8000488281</ele>
        <time>2020-08-13T10:01:59.000Z</time>
      </trkpt>
      <trkpt lat="44.26327" lon="6.58358">
        <ele>1595.1999511719</ele>
        <time>2020-08-13T10:02:04.000Z</time>
      </trkpt>
      <trkpt lat="44.26322" lon="6.58341">
        <ele>1596</ele>
        <time>2020-08-13T10:02:09.000Z</time>
      </trkpt>
      <trkpt lat="44.26319" lon="6.58328">
        <ele>1597</ele>
        <time>2020-08-13T10:02:13.000Z</time>
      </trkpt>
      <trkpt lat="44.26319" lon="6.58324">
        <ele>1597.1999511719</ele>
        <time>2020-08-13T10:02:14.000Z</time>
      </trkpt>
      <trkpt lat="44.2632" lon="6.58312">
        <ele>1598</ele>
        <time>2020-08-13T10:02:18.000Z</time>
      </trkpt>
      <trkpt lat="44.26322" lon="6.58305">
        <ele>1598.4000244141</ele>
        <time>2020-08-13T10:02:21.000Z</time>
      </trkpt>
      <trkpt lat="44.26326" lon="6.583">
        <ele>1599</ele>
        <time>2020-08-13T10:02:23.000Z</time>
      </trkpt>
      <trkpt lat="44.26333" lon="6.58293">
        <ele>1600</ele>
        <time>2020-08-13T10:02:27.000Z</time>
      </trkpt>
      <trkpt lat="44.26337" lon="6.58291">
        <ele>1600.4000244141</ele>
        <time>2020-08-13T10:02:29.000Z</time>
      </trkpt>
      <trkpt lat="44.26343" lon="6.58287">
        <ele>1601</ele>
        <time>2020-08-13T10:02:32.000Z</time>
      </trkpt>
      <trkpt lat="44.26356" lon="6.58281">
        <ele>1602.1999511719</ele>
        <time>2020-08-13T10:02:38.000Z</time>
      </trkpt>
      <trkpt lat="44.26358" lon="6.5828">
        <ele>1602.4000244141</ele>
        <time>2020-08-13T10:02:39.000Z</time>
      </trkpt>
      <trkpt lat="44.2637" lon="6.58277">
        <ele>1603.1999511719</ele>
        <time>2020-08-13T10:02:44.000Z</time>
      </trkpt>
      <trkpt lat="44.26381" lon="6.58273">
        <ele>1604</ele>
        <time>2020-08-13T10:02:49.000Z</time>
      </trkpt>
      <trkpt lat="44.26386" lon="6.58272">
        <ele>1604.1999511719</ele>
        <time>2020-08-13T10:02:51.000Z</time>
      </trkpt>
      <trkpt lat="44.26403" lon="6.58267">
        <ele>1605.4000244141</ele>
        <time>2020-08-13T10:02:58.000Z</time>
      </trkpt>
      <trkpt lat="44.2641" lon="6.58265">
        <ele>1605.8000488281</ele>
        <time>2020-08-13T10:03:01.000Z</time>
      </trkpt>
      <trkpt lat="44.26424" lon="6.58261">
        <ele>1606.4000244141</ele>
        <time>2020-08-13T10:03:07.000Z</time>
      </trkpt>
      <trkpt lat="44.26433" lon="6.58258">
        <ele>1607.1999511719</ele>
        <time>2020-08-13T10:03:11.000Z</time>
      </trkpt>
      <trkpt lat="44.26438" lon="6.58257">
        <ele>1607.5999755859</ele>
        <time>2020-08-13T10:03:13.000Z</time>
      </trkpt>
      <trkpt lat="44.26455" lon="6.58253">
        <ele>1608.5999755859</ele>
        <time>2020-08-13T10:03:20.000Z</time>
      </trkpt>
      <trkpt lat="44.26462" lon="6.58251">
        <ele>1609</ele>
        <time>2020-08-13T10:03:23.000Z</time>
      </trkpt>
      <trkpt lat="44.26477" lon="6.58249">
        <ele>1609.5999755859</ele>
        <time>2020-08-13T10:03:29.000Z</time>
      </trkpt>
      <trkpt lat="44.26482" lon="6.58248">
        <ele>1610</ele>
        <time>2020-08-13T10:03:31.000Z</time>
      </trkpt>
      <trkpt lat="44.26496" lon="6.58242">
        <ele>1610.8000488281</ele>
        <time>2020-08-13T10:03:37.000Z</time>
      </trkpt>
      <trkpt lat="44.26506" lon="6.58238">
        <ele>1611.5999755859</ele>
        <time>2020-08-13T10:03:41.000Z</time>
      </trkpt>
      <trkpt lat="44.26511" lon="6.58236">
        <ele>1611.8000488281</ele>
        <time>2020-08-13T10:03:43.000Z</time>
      </trkpt>
      <trkpt lat="44.26525" lon="6.58229">
        <ele>1612.8000488281</ele>
        <time>2020-08-13T10:03:49.000Z</time>
      </trkpt>
      <trkpt lat="44.26534" lon="6.58223">
        <ele>1613.4000244141</ele>
        <time>2020-08-13T10:03:53.000Z</time>
      </trkpt>
      <trkpt lat="44.26543" lon="6.58217">
        <ele>1614</ele>
        <time>2020-08-13T10:03:57.000Z</time>
      </trkpt>
      <trkpt lat="44.26554" lon="6.5821">
        <ele>1614.8000488281</ele>
        <time>2020-08-13T10:04:02.000Z</time>
      </trkpt>
      <trkpt lat="44.26559" lon="6.58208">
        <ele>1615</ele>
        <time>2020-08-13T10:04:04.000Z</time>
      </trkpt>
      <trkpt lat="44.26569" lon="6.58201">
        <ele>1616.1999511719</ele>
        <time>2020-08-13T10:04:09.000Z</time>
      </trkpt>
      <trkpt lat="44.26578" lon="6.58195">
        <ele>1616.8000488281</ele>
        <time>2020-08-13T10:04:13.000Z</time>
      </trkpt>
      <trkpt lat="44.26587" lon="6.58188">
        <ele>1617.4000244141</ele>
        <time>2020-08-13T10:04:17.000Z</time>
      </trkpt>
      <trkpt lat="44.26601" lon="6.58177">
        <ele>1618.4000244141</ele>
        <time>2020-08-13T10:04:24.000Z</time>
      </trkpt>
      <trkpt lat="44.26606" lon="6.58173">
        <ele>1618.8000488281</ele>
        <time>2020-08-13T10:04:26.000Z</time>
      </trkpt>
      <trkpt lat="44.26616" lon="6.58166">
        <ele>1619.5999755859</ele>
        <time>2020-08-13T10:04:31.000Z</time>
      </trkpt>
      <trkpt lat="44.26627" lon="6.58158">
        <ele>1620.1999511719</ele>
        <time>2020-08-13T10:04:36.000Z</time>
      </trkpt>
      <trkpt lat="44.26633" lon="6.58153">
        <ele>1620.5999755859</ele>
        <time>2020-08-13T10:04:39.000Z</time>
      </trkpt>
      <trkpt lat="44.26648" lon="6.58143">
        <ele>1621.5999755859</ele>
        <time>2020-08-13T10:04:46.000Z</time>
      </trkpt>
      <trkpt lat="44.2665" lon="6.58141">
        <ele>1621.8000488281</ele>
        <time>2020-08-13T10:04:47.000Z</time>
      </trkpt>
      <trkpt lat="44.26662" lon="6.58132">
        <ele>1622.8000488281</ele>
        <time>2020-08-13T10:04:53.000Z</time>
      </trkpt>
      <trkpt lat="44.26673" lon="6.58124">
        <ele>1623.4000244141</ele>
        <time>2020-08-13T10:04:58.000Z</time>
      </trkpt>
      <trkpt lat="44.26677" lon="6.58121">
        <ele>1623.8000488281</ele>
        <time>2020-08-13T10:05:00.000Z</time>
      </trkpt>
      <trkpt lat="44.26689" lon="6.58111">
        <ele>1624.8000488281</ele>
        <time>2020-08-13T10:05:06.000Z</time>
      </trkpt>
      <trkpt lat="44.26693" lon="6.58107">
        <ele>1625.1999511719</ele>
        <time>2020-08-13T10:05:08.000Z</time>
      </trkpt>
      <trkpt lat="44.26703" lon="6.58099">
        <ele>1625.8000488281</ele>
        <time>2020-08-13T10:05:13.000Z</time>
      </trkpt>
      <trkpt lat="44.26717" lon="6.5809">
        <ele>1626.8000488281</ele>
        <time>2020-08-13T10:05:19.000Z</time>
      </trkpt>
      <trkpt lat="44.26721" lon="6.58087">
        <ele>1627</ele>
        <time>2020-08-13T10:05:21.000Z</time>
      </trkpt>
      <trkpt lat="44.26736" lon="6.58081">
        <ele>1628</ele>
        <time>2020-08-13T10:05:27.000Z</time>
      </trkpt>
      <trkpt lat="44.26741" lon="6.58079">
        <ele>1628.1999511719</ele>
        <time>2020-08-13T10:05:29.000Z</time>
      </trkpt>
      <trkpt lat="44.26754" lon="6.58078">
        <ele>1629</ele>
        <time>2020-08-13T10:05:34.000Z</time>
      </trkpt>
      <trkpt lat="44.26764" lon="6.58078">
        <ele>1629.5999755859</ele>
        <time>2020-08-13T10:05:38.000Z</time>
      </trkpt>
      <trkpt lat="44.26771" lon="6.58078">
        <ele>1630.1999511719</ele>
        <time>2020-08-13T10:05:41.000Z</time>
      </trkpt>
      <trkpt lat="44.26784" lon="6.58078">
        <ele>1631.1999511719</ele>
        <time>2020-08-13T10:05:46.000Z</time>
      </trkpt>
      <trkpt lat="44.26796" lon="6.58077">
        <ele>1632.1999511719</ele>
        <time>2020-08-13T10:05:51.000Z</time>
      </trkpt>
      <trkpt lat="44.26798" lon="6.58077">
        <ele>1632.4000244141</ele>
        <time>2020-08-13T10:05:52.000Z</time>
      </trkpt>
      <trkpt lat="44.2681" lon="6.58073">
        <ele>1633.5999755859</ele>
        <time>2020-08-13T10:05:57.000Z</time>
      </trkpt>
      <trkpt lat="44.26817" lon="6.58071">
        <ele>1634.1999511719</ele>
        <time>2020-08-13T10:06:00.000Z</time>
      </trkpt>
      <trkpt lat="44.26829" lon="6.58068">
        <ele>1634.5999755859</ele>
        <time>2020-08-13T10:06:05.000Z</time>
      </trkpt>
      <trkpt lat="44.26844" lon="6.58065">
        <ele>1635.5999755859</ele>
        <time>2020-08-13T10:06:11.000Z</time>
      </trkpt>
      <trkpt lat="44.26847" lon="6.58064">
        <ele>1635.5999755859</ele>
        <time>2020-08-13T10:06:12.000Z</time>
      </trkpt>
      <trkpt lat="44.2686" lon="6.58063">
        <ele>1636.4000244141</ele>
        <time>2020-08-13T10:06:17.000Z</time>
      </trkpt>
      <trkpt lat="44.26865" lon="6.58063">
        <ele>1636.8000488281</ele>
        <time>2020-08-13T10:06:19.000Z</time>
      </trkpt>
      <trkpt lat="44.26877" lon="6.58062">
        <ele>1637.4000244141</ele>
        <time>2020-08-13T10:06:25.000Z</time>
      </trkpt>
      <trkpt lat="44.26885" lon="6.58062">
        <ele>1638</ele>
        <time>2020-08-13T10:06:28.000Z</time>
      </trkpt>
      <trkpt lat="44.26894" lon="6.58061">
        <ele>1638.5999755859</ele>
        <time>2020-08-13T10:06:32.000Z</time>
      </trkpt>
      <trkpt lat="44.26897" lon="6.58061">
        <ele>1639</ele>
        <time>2020-08-13T10:06:33.000Z</time>
      </trkpt>
      <trkpt lat="44.26914" lon="6.58061">
        <ele>1640</ele>
        <time>2020-08-13T10:06:40.000Z</time>
      </trkpt>
      <trkpt lat="44.26916" lon="6.58061">
        <ele>1640.1999511719</ele>
        <time>2020-08-13T10:06:41.000Z</time>
      </trkpt>
      <trkpt lat="44.2693" lon="6.5806">
        <ele>1641</ele>
        <time>2020-08-13T10:06:47.000Z</time>
      </trkpt>
      <trkpt lat="44.26934" lon="6.5806">
        <ele>1641.4000244141</ele>
        <time>2020-08-13T10:06:49.000Z</time>
      </trkpt>
      <trkpt lat="44.26948" lon="6.58059">
        <ele>1642</ele>
        <time>2020-08-13T10:06:55.000Z</time>
      </trkpt>
      <trkpt lat="44.26955" lon="6.58058">
        <ele>1642.5999755859</ele>
        <time>2020-08-13T10:06:58.000Z</time>
      </trkpt>
      <trkpt lat="44.26963" lon="6.58057">
        <ele>1643.1999511719</ele>
        <time>2020-08-13T10:07:01.000Z</time>
      </trkpt>
      <trkpt lat="44.26972" lon="6.58055">
        <ele>1643.5999755859</ele>
        <time>2020-08-13T10:07:05.000Z</time>
      </trkpt>
      <trkpt lat="44.26984" lon="6.58052">
        <ele>1644.4000244141</ele>
        <time>2020-08-13T10:07:10.000Z</time>
      </trkpt>
      <trkpt lat="44.26997" lon="6.5805">
        <ele>1645.1999511719</ele>
        <time>2020-08-13T10:07:15.000Z</time>
      </trkpt>
      <trkpt lat="44.26999" lon="6.58049">
        <ele>1645.4000244141</ele>
        <time>2020-08-13T10:07:16.000Z</time>
      </trkpt>
      <trkpt lat="44.2702" lon="6.58046">
        <ele>1646.1999511719</ele>
        <time>2020-08-13T10:07:24.000Z</time>
      </trkpt>
      <trkpt lat="44.27022" lon="6.58046">
        <ele>1646.4000244141</ele>
        <time>2020-08-13T10:07:25.000Z</time>
      </trkpt>
      <trkpt lat="44.27038" lon="6.58043">
        <ele>1647.5999755859</ele>
        <time>2020-08-13T10:07:31.000Z</time>
      </trkpt>
      <trkpt lat="44.27044" lon="6.58042">
        <ele>1647.8000488281</ele>
        <time>2020-08-13T10:07:33.000Z</time>
      </trkpt>
      <trkpt lat="44.27056" lon="6.58038">
        <ele>1648.5999755859</ele>
        <time>2020-08-13T10:07:38.000Z</time>
      </trkpt>
      <trkpt lat="44.27064" lon="6.58037">
        <ele>1649</ele>
        <time>2020-08-13T10:07:41.000Z</time>
      </trkpt>
      <trkpt lat="44.27077" lon="6.58032">
        <ele>1649.8000488281</ele>
        <time>2020-08-13T10:07:46.000Z</time>
      </trkpt>
      <trkpt lat="44.27085" lon="6.58029">
        <ele>1650.1999511719</ele>
        <time>2020-08-13T10:07:49.000Z</time>
      </trkpt>
      <trkpt lat="44.27096" lon="6.58026">
        <ele>1651</ele>
        <time>2020-08-13T10:07:53.000Z</time>
      </trkpt>
      <trkpt lat="44.27109" lon="6.58022">
        <ele>1652</ele>
        <time>2020-08-13T10:07:58.000Z</time>
      </trkpt>
      <trkpt lat="44.27128" lon="6.58016">
        <ele>1653</ele>
        <time>2020-08-13T10:08:05.000Z</time>
      </trkpt>
      <trkpt lat="44.27136" lon="6.58013">
        <ele>1653.4000244141</ele>
        <time>2020-08-13T10:08:08.000Z</time>
      </trkpt>
      <trkpt lat="44.27144" lon="6.5801">
        <ele>1654</ele>
        <time>2020-08-13T10:08:11.000Z</time>
      </trkpt>
      <trkpt lat="44.27163" lon="6.57999">
        <ele>1655.1999511719</ele>
        <time>2020-08-13T10:08:18.000Z</time>
      </trkpt>
      <trkpt lat="44.27177" lon="6.57985">
        <ele>1656.1999511719</ele>
        <time>2020-08-13T10:08:24.000Z</time>
      </trkpt>
      <trkpt lat="44.27186" lon="6.57973">
        <ele>1657</ele>
        <time>2020-08-13T10:08:29.000Z</time>
      </trkpt>
      <trkpt lat="44.2719" lon="6.57968">
        <ele>1657.4000244141</ele>
        <time>2020-08-13T10:08:31.000Z</time>
      </trkpt>
      <trkpt lat="44.27202" lon="6.57949">
        <ele>1658</ele>
        <time>2020-08-13T10:08:37.000Z</time>
      </trkpt>
      <trkpt lat="44.27205" lon="6.57944">
        <ele>1658.4000244141</ele>
        <time>2020-08-13T10:08:39.000Z</time>
      </trkpt>
      <trkpt lat="44.27219" lon="6.57929">
        <ele>1659.4000244141</ele>
        <time>2020-08-13T10:08:46.000Z</time>
      </trkpt>
      <trkpt lat="44.27236" lon="6.57918">
        <ele>1660.5999755859</ele>
        <time>2020-08-13T10:08:53.000Z</time>
      </trkpt>
      <trkpt lat="44.27242" lon="6.57916">
        <ele>1660.8000488281</ele>
        <time>2020-08-13T10:08:55.000Z</time>
      </trkpt>
      <trkpt lat="44.27257" lon="6.57912">
        <ele>1661.5999755859</ele>
        <time>2020-08-13T10:09:01.000Z</time>
      </trkpt>
      <trkpt lat="44.27267" lon="6.57913">
        <ele>1662.1999511719</ele>
        <time>2020-08-13T10:09:05.000Z</time>
      </trkpt>
      <trkpt lat="44.27273" lon="6.57914">
        <ele>1663</ele>
        <time>2020-08-13T10:09:07.000Z</time>
      </trkpt>
      <trkpt lat="44.27285" lon="6.57918">
        <ele>1664</ele>
        <time>2020-08-13T10:09:12.000Z</time>
      </trkpt>
      <trkpt lat="44.27289" lon="6.57921">
        <ele>1664.1999511719</ele>
        <time>2020-08-13T10:09:14.000Z</time>
      </trkpt>
      <trkpt lat="44.27303" lon="6.57931">
        <ele>1665.1999511719</ele>
        <time>2020-08-13T10:09:20.000Z</time>
      </trkpt>
      <trkpt lat="44.27307" lon="6.57935">
        <ele>1665.5999755859</ele>
        <time>2020-08-13T10:09:22.000Z</time>
      </trkpt>
      <trkpt lat="44.27316" lon="6.57942">
        <ele>1666.1999511719</ele>
        <time>2020-08-13T10:09:26.000Z</time>
      </trkpt>
      <trkpt lat="44.27327" lon="6.57953">
        <ele>1666.8000488281</ele>
        <time>2020-08-13T10:09:31.000Z</time>
      </trkpt>
      <trkpt lat="44.27339" lon="6.57963">
        <ele>1667.4000244141</ele>
        <time>2020-08-13T10:09:36.000Z</time>
      </trkpt>
      <trkpt lat="44.27346" lon="6.57968">
        <ele>1668</ele>
        <time>2020-08-13T10:09:39.000Z</time>
      </trkpt>
      <trkpt lat="44.2736" lon="6.57973">
        <ele>1668.4000244141</ele>
        <time>2020-08-13T10:09:44.000Z</time>
      </trkpt>
      <trkpt lat="44.27368" lon="6.57975">
        <ele>1668.4000244141</ele>
        <time>2020-08-13T10:09:47.000Z</time>
      </trkpt>
      <trkpt lat="44.27395" lon="6.57974">
        <ele>1669</ele>
        <time>2020-08-13T10:09:56.000Z</time>
      </trkpt>
      <trkpt lat="44.27416" lon="6.57969">
        <ele>1669.4000244141</ele>
        <time>2020-08-13T10:10:03.000Z</time>
      </trkpt>
      <trkpt lat="44.27423" lon="6.57967">
        <ele>1669.5999755859</ele>
        <time>2020-08-13T10:10:05.000Z</time>
      </trkpt>
      <trkpt lat="44.27446" lon="6.57959">
        <ele>1670</ele>
        <time>2020-08-13T10:10:13.000Z</time>
      </trkpt>
      <trkpt lat="44.27462" lon="6.57946">
        <ele>1670.5999755859</ele>
        <time>2020-08-13T10:10:19.000Z</time>
      </trkpt>
      <trkpt lat="44.27465" lon="6.57943">
        <ele>1670.5999755859</ele>
        <time>2020-08-13T10:10:20.000Z</time>
      </trkpt>
      <trkpt lat="44.27485" lon="6.57915">
        <ele>1671.1999511719</ele>
        <time>2020-08-13T10:10:29.000Z</time>
      </trkpt>
      <trkpt lat="44.27492" lon="6.57905">
        <ele>1671.5999755859</ele>
        <time>2020-08-13T10:10:32.000Z</time>
      </trkpt>
      <trkpt lat="44.27512" lon="6.57882">
        <ele>1672.4000244141</ele>
        <time>2020-08-13T10:10:40.000Z</time>
      </trkpt>
      <trkpt lat="44.27518" lon="6.57878">
        <ele>1672.5999755859</ele>
        <time>2020-08-13T10:10:42.000Z</time>
      </trkpt>
      <trkpt lat="44.2753" lon="6.57874">
        <ele>1673.4000244141</ele>
        <time>2020-08-13T10:10:46.000Z</time>
      </trkpt>
      <trkpt lat="44.2754" lon="6.57874">
        <ele>1673.8000488281</ele>
        <time>2020-08-13T10:10:49.000Z</time>
      </trkpt>
      <trkpt lat="44.27548" lon="6.57875">
        <ele>1674.5999755859</ele>
        <time>2020-08-13T10:10:52.000Z</time>
      </trkpt>
      <trkpt lat="44.27551" lon="6.57876">
        <ele>1674.8000488281</ele>
        <time>2020-08-13T10:10:53.000Z</time>
      </trkpt>
      <trkpt lat="44.27569" lon="6.57888">
        <ele>1675.8000488281</ele>
        <time>2020-08-13T10:11:01.000Z</time>
      </trkpt>
      <trkpt lat="44.27584" lon="6.579">
        <ele>1677</ele>
        <time>2020-08-13T10:11:08.000Z</time>
      </trkpt>
      <trkpt lat="44.27593" lon="6.57908">
        <ele>1677.5999755859</ele>
        <time>2020-08-13T10:11:12.000Z</time>
      </trkpt>
      <trkpt lat="44.27597" lon="6.57911">
        <ele>1678</ele>
        <time>2020-08-13T10:11:14.000Z</time>
      </trkpt>
      <trkpt lat="44.27613" lon="6.57923">
        <ele>1679</ele>
        <time>2020-08-13T10:11:21.000Z</time>
      </trkpt>
      <trkpt lat="44.27625" lon="6.57925">
        <ele>1680</ele>
        <time>2020-08-13T10:11:26.000Z</time>
      </trkpt>
      <trkpt lat="44.27627" lon="6.57924">
        <ele>1680.1999511719</ele>
        <time>2020-08-13T10:11:27.000Z</time>
      </trkpt>
      <trkpt lat="44.27639" lon="6.57911">
        <ele>1681</ele>
        <time>2020-08-13T10:11:33.000Z</time>
      </trkpt>
      <trkpt lat="44.27641" lon="6.57908">
        <ele>1681.1999511719</ele>
        <time>2020-08-13T10:11:34.000Z</time>
      </trkpt>
      <trkpt lat="44.27649" lon="6.5788">
        <ele>1682.1999511719</ele>
        <time>2020-08-13T10:11:42.000Z</time>
      </trkpt>
      <trkpt lat="44.27661" lon="6.57862">
        <ele>1682.8000488281</ele>
        <time>2020-08-13T10:11:48.000Z</time>
      </trkpt>
      <trkpt lat="44.27669" lon="6.57857">
        <ele>1683.1999511719</ele>
        <time>2020-08-13T10:11:51.000Z</time>
      </trkpt>
      <trkpt lat="44.27681" lon="6.57853">
        <ele>1683.4000244141</ele>
        <time>2020-08-13T10:11:55.000Z</time>
      </trkpt>
      <trkpt lat="44.27705" lon="6.5785">
        <ele>1684.1999511719</ele>
        <time>2020-08-13T10:12:04.000Z</time>
      </trkpt>
      <trkpt lat="44.27707" lon="6.5785">
        <ele>1684.4000244141</ele>
        <time>2020-08-13T10:12:05.000Z</time>
      </trkpt>
      <trkpt lat="44.27719" lon="6.57847">
        <ele>1685.1999511719</ele>
        <time>2020-08-13T10:12:09.000Z</time>
      </trkpt>
      <trkpt lat="44.27726" lon="6.57843">
        <ele>1685.8000488281</ele>
        <time>2020-08-13T10:12:12.000Z</time>
      </trkpt>
      <trkpt lat="44.27738" lon="6.57831">
        <ele>1686.4000244141</ele>
        <time>2020-08-13T10:12:18.000Z</time>
      </trkpt>
      <trkpt lat="44.27742" lon="6.57826">
        <ele>1686.5999755859</ele>
        <time>2020-08-13T10:12:20.000Z</time>
      </trkpt>
      <trkpt lat="44.27753" lon="6.57815">
        <ele>1687.4000244141</ele>
        <time>2020-08-13T10:12:25.000Z</time>
      </trkpt>
      <trkpt lat="44.27758" lon="6.5781">
        <ele>1687.5999755859</ele>
        <time>2020-08-13T10:12:27.000Z</time>
      </trkpt>
      <trkpt lat="44.27772" lon="6.57797">
        <ele>1688.5999755859</ele>
        <time>2020-08-13T10:12:33.000Z</time>
      </trkpt>
      <trkpt lat="44.27785" lon="6.57788">
        <ele>1689.1999511719</ele>
        <time>2020-08-13T10:12:38.000Z</time>
      </trkpt>
      <trkpt lat="44.2779" lon="6.57784">
        <ele>1689.5999755859</ele>
        <time>2020-08-13T10:12:40.000Z</time>
      </trkpt>
      <trkpt lat="44.27798" lon="6.57773">
        <ele>1690.4000244141</ele>
        <time>2020-08-13T10:12:44.000Z</time>
      </trkpt>
      <trkpt lat="44.27801" lon="6.57767">
        <ele>1690.5999755859</ele>
        <time>2020-08-13T10:12:46.000Z</time>
      </trkpt>
      <trkpt lat="44.27811" lon="6.57747">
        <ele>1691.4000244141</ele>
        <time>2020-08-13T10:12:52.000Z</time>
      </trkpt>
      <trkpt lat="44.27816" lon="6.57736">
        <ele>1691.8000488281</ele>
        <time>2020-08-13T10:12:56.000Z</time>
      </trkpt>
      <trkpt lat="44.27824" lon="6.57717">
        <ele>1692.8000488281</ele>
        <time>2020-08-13T10:13:02.000Z</time>
      </trkpt>
      <trkpt lat="44.27826" lon="6.57715">
        <ele>1693</ele>
        <time>2020-08-13T10:13:03.000Z</time>
      </trkpt>
      <trkpt lat="44.27838" lon="6.57697">
        <ele>1694</ele>
        <time>2020-08-13T10:13:10.000Z</time>
      </trkpt>
      <trkpt lat="44.27839" lon="6.57694">
        <ele>1694</ele>
        <time>2020-08-13T10:13:11.000Z</time>
      </trkpt>
      <trkpt lat="44.2785" lon="6.57677">
        <ele>1695</ele>
        <time>2020-08-13T10:13:17.000Z</time>
      </trkpt>
      <trkpt lat="44.27861" lon="6.57662">
        <ele>1696</ele>
        <time>2020-08-13T10:13:23.000Z</time>
      </trkpt>
      <trkpt lat="44.27862" lon="6.5766">
        <ele>1696</ele>
        <time>2020-08-13T10:13:24.000Z</time>
      </trkpt>
      <trkpt lat="44.27877" lon="6.5764">
        <ele>1697.1999511719</ele>
        <time>2020-08-13T10:13:32.000Z</time>
      </trkpt>
      <trkpt lat="44.27879" lon="6.57637">
        <ele>1697.4000244141</ele>
        <time>2020-08-13T10:13:33.000Z</time>
      </trkpt>
      <trkpt lat="44.2789" lon="6.5762">
        <ele>1698.1999511719</ele>
        <time>2020-08-13T10:13:39.000Z</time>
      </trkpt>
      <trkpt lat="44.27899" lon="6.57605">
        <ele>1699.1999511719</ele>
        <time>2020-08-13T10:13:44.000Z</time>
      </trkpt>
      <trkpt lat="44.2791" lon="6.57587">
        <ele>1700.4000244141</ele>
        <time>2020-08-13T10:13:51.000Z</time>
      </trkpt>
      <trkpt lat="44.27919" lon="6.57574">
        <ele>1701.1999511719</ele>
        <time>2020-08-13T10:13:56.000Z</time>
      </trkpt>
      <trkpt lat="44.27921" lon="6.57571">
        <ele>1701.4000244141</ele>
        <time>2020-08-13T10:13:57.000Z</time>
      </trkpt>
      <trkpt lat="44.27937" lon="6.5755">
        <ele>1702.4000244141</ele>
        <time>2020-08-13T10:14:06.000Z</time>
      </trkpt>
      <trkpt lat="44.27938" lon="6.57548">
        <ele>1702.5999755859</ele>
        <time>2020-08-13T10:14:07.000Z</time>
      </trkpt>
      <trkpt lat="44.27953" lon="6.57531">
        <ele>1703.5999755859</ele>
        <time>2020-08-13T10:14:14.000Z</time>
      </trkpt>
      <trkpt lat="44.27955" lon="6.57529">
        <ele>1703.8000488281</ele>
        <time>2020-08-13T10:14:15.000Z</time>
      </trkpt>
      <trkpt lat="44.27969" lon="6.57517">
        <ele>1704.5999755859</ele>
        <time>2020-08-13T10:14:21.000Z</time>
      </trkpt>
      <trkpt lat="44.27978" lon="6.57509">
        <ele>1705.4000244141</ele>
        <time>2020-08-13T10:14:25.000Z</time>
      </trkpt>
      <trkpt lat="44.2798" lon="6.57508">
        <ele>1705.5999755859</ele>
        <time>2020-08-13T10:14:26.000Z</time>
      </trkpt>
      <trkpt lat="44.27993" lon="6.57496">
        <ele>1706.5999755859</ele>
        <time>2020-08-13T10:14:32.000Z</time>
      </trkpt>
      <trkpt lat="44.27999" lon="6.57489">
        <ele>1707.1999511719</ele>
        <time>2020-08-13T10:14:35.000Z</time>
      </trkpt>
      <trkpt lat="44.28008" lon="6.57477">
        <ele>1708</ele>
        <time>2020-08-13T10:14:40.000Z</time>
      </trkpt>
      <trkpt lat="44.28015" lon="6.57468">
        <ele>1708.5999755859</ele>
        <time>2020-08-13T10:14:44.000Z</time>
      </trkpt>
      <trkpt lat="44.2802" lon="6.57462">
        <ele>1709.1999511719</ele>
        <time>2020-08-13T10:14:47.000Z</time>
      </trkpt>
      <trkpt lat="44.28031" lon="6.57452">
        <ele>1709.8000488281</ele>
        <time>2020-08-13T10:14:52.000Z</time>
      </trkpt>
      <trkpt lat="44.28035" lon="6.57448">
        <ele>1710.1999511719</ele>
        <time>2020-08-13T10:14:54.000Z</time>
      </trkpt>
      <trkpt lat="44.28049" lon="6.57435">
        <ele>1711.4000244141</ele>
        <time>2020-08-13T10:15:01.000Z</time>
      </trkpt>
      <trkpt lat="44.28054" lon="6.57432">
        <ele>1711.5999755859</ele>
        <time>2020-08-13T10:15:03.000Z</time>
      </trkpt>
      <trkpt lat="44.28065" lon="6.57427">
        <ele>1712.4000244141</ele>
        <time>2020-08-13T10:15:08.000Z</time>
      </trkpt>
      <trkpt lat="44.28074" lon="6.57424">
        <ele>1712.8000488281</ele>
        <time>2020-08-13T10:15:12.000Z</time>
      </trkpt>
      <trkpt lat="44.28083" lon="6.57421">
        <ele>1713.4000244141</ele>
        <time>2020-08-13T10:15:16.000Z</time>
      </trkpt>
      <trkpt lat="44.28095" lon="6.57417">
        <ele>1714.4000244141</ele>
        <time>2020-08-13T10:15:21.000Z</time>
      </trkpt>
      <trkpt lat="44.28114" lon="6.5741">
        <ele>1715.5999755859</ele>
        <time>2020-08-13T10:15:29.000Z</time>
      </trkpt>
      <trkpt lat="44.28119" lon="6.57409">
        <ele>1715.8000488281</ele>
        <time>2020-08-13T10:15:31.000Z</time>
      </trkpt>
      <trkpt lat="44.28135" lon="6.57405">
        <ele>1716.5999755859</ele>
        <time>2020-08-13T10:15:37.000Z</time>
      </trkpt>
      <trkpt lat="44.2815" lon="6.57401">
        <ele>1717.4000244141</ele>
        <time>2020-08-13T10:15:43.000Z</time>
      </trkpt>
      <trkpt lat="44.28152" lon="6.57401">
        <ele>1717.5999755859</ele>
        <time>2020-08-13T10:15:44.000Z</time>
      </trkpt>
      <trkpt lat="44.28173" lon="6.57393">
        <ele>1718.8000488281</ele>
        <time>2020-08-13T10:15:52.000Z</time>
      </trkpt>
      <trkpt lat="44.28194" lon="6.57384">
        <ele>1719.8000488281</ele>
        <time>2020-08-13T10:16:00.000Z</time>
      </trkpt>
      <trkpt lat="44.28202" lon="6.57381">
        <ele>1720.4000244141</ele>
        <time>2020-08-13T10:16:03.000Z</time>
      </trkpt>
      <trkpt lat="44.28212" lon="6.57377">
        <ele>1720.8000488281</ele>
        <time>2020-08-13T10:16:07.000Z</time>
      </trkpt>
      <trkpt lat="44.28224" lon="6.57372">
        <ele>1721.8000488281</ele>
        <time>2020-08-13T10:16:12.000Z</time>
      </trkpt>
      <trkpt lat="44.28227" lon="6.57371">
        <ele>1722</ele>
        <time>2020-08-13T10:16:13.000Z</time>
      </trkpt>
      <trkpt lat="44.28243" lon="6.57363">
        <ele>1723</ele>
        <time>2020-08-13T10:16:19.000Z</time>
      </trkpt>
      <trkpt lat="44.28248" lon="6.57359">
        <ele>1723.4000244141</ele>
        <time>2020-08-13T10:16:21.000Z</time>
      </trkpt>
      <trkpt lat="44.28259" lon="6.57354">
        <ele>1724.1999511719</ele>
        <time>2020-08-13T10:16:25.000Z</time>
      </trkpt>
      <trkpt lat="44.28269" lon="6.57351">
        <ele>1725</ele>
        <time>2020-08-13T10:16:29.000Z</time>
      </trkpt>
      <trkpt lat="44.28271" lon="6.5735">
        <ele>1725.1999511719</ele>
        <time>2020-08-13T10:16:30.000Z</time>
      </trkpt>
      <trkpt lat="44.28291" lon="6.57342">
        <ele>1726.1999511719</ele>
        <time>2020-08-13T10:16:37.000Z</time>
      </trkpt>
      <trkpt lat="44.28294" lon="6.57342">
        <ele>1726.4000244141</ele>
        <time>2020-08-13T10:16:38.000Z</time>
      </trkpt>
      <trkpt lat="44.28311" lon="6.57339">
        <ele>1726.8000488281</ele>
        <time>2020-08-13T10:16:44.000Z</time>
      </trkpt>
      <trkpt lat="44.28319" lon="6.57339">
        <ele>1727.4000244141</ele>
        <time>2020-08-13T10:16:47.000Z</time>
      </trkpt>
      <trkpt lat="44.2833" lon="6.5734">
        <ele>1728</ele>
        <time>2020-08-13T10:16:51.000Z</time>
      </trkpt>
      <trkpt lat="44.2834" lon="6.5734">
        <ele>1728.4000244141</ele>
        <time>2020-08-13T10:16:54.000Z</time>
      </trkpt>
      <trkpt lat="44.28358" lon="6.57342">
        <ele>1729</ele>
        <time>2020-08-13T10:17:00.000Z</time>
      </trkpt>
      <trkpt lat="44.28367" lon="6.57343">
        <ele>1729.4000244141</ele>
        <time>2020-08-13T10:17:03.000Z</time>
      </trkpt>
      <trkpt lat="44.28386" lon="6.57345">
        <ele>1730.1999511719</ele>
        <time>2020-08-13T10:17:09.000Z</time>
      </trkpt>
      <trkpt lat="44.28392" lon="6.57347">
        <ele>1730.4000244141</ele>
        <time>2020-08-13T10:17:11.000Z</time>
      </trkpt>
      <trkpt lat="44.28403" lon="6.57355">
        <ele>1730.8000488281</ele>
        <time>2020-08-13T10:17:15.000Z</time>
      </trkpt>
      <trkpt lat="44.28416" lon="6.57377">
        <ele>1731.4000244141</ele>
        <time>2020-08-13T10:17:22.000Z</time>
      </trkpt>
      <trkpt lat="44.28421" lon="6.574">
        <ele>1732.5999755859</ele>
        <time>2020-08-13T10:17:28.000Z</time>
      </trkpt>
      <trkpt lat="44.28421" lon="6.57408">
        <ele>1733</ele>
        <time>2020-08-13T10:17:30.000Z</time>
      </trkpt>
      <trkpt lat="44.28426" lon="6.57427">
        <ele>1733.5999755859</ele>
        <time>2020-08-13T10:17:35.000Z</time>
      </trkpt>
      <trkpt lat="44.28428" lon="6.5743">
        <ele>1733.8000488281</ele>
        <time>2020-08-13T10:17:36.000Z</time>
      </trkpt>
      <trkpt lat="44.28443" lon="6.57441">
        <ele>1734.4000244141</ele>
        <time>2020-08-13T10:17:41.000Z</time>
      </trkpt>
      <trkpt lat="44.28453" lon="6.57441">
        <ele>1734.5999755859</ele>
        <time>2020-08-13T10:17:44.000Z</time>
      </trkpt>
      <trkpt lat="44.28463" lon="6.57438">
        <ele>1735</ele>
        <time>2020-08-13T10:17:47.000Z</time>
      </trkpt>
      <trkpt lat="44.28473" lon="6.57429">
        <ele>1735.8000488281</ele>
        <time>2020-08-13T10:17:51.000Z</time>
      </trkpt>
      <trkpt lat="44.28478" lon="6.57423">
        <ele>1736</ele>
        <time>2020-08-13T10:17:53.000Z</time>
      </trkpt>
      <trkpt lat="44.28487" lon="6.57406">
        <ele>1736.8000488281</ele>
        <time>2020-08-13T10:17:58.000Z</time>
      </trkpt>
      <trkpt lat="44.28494" lon="6.57398">
        <ele>1737.4000244141</ele>
        <time>2020-08-13T10:18:01.000Z</time>
      </trkpt>
      <trkpt lat="44.28503" lon="6.57393">
        <ele>1738</ele>
        <time>2020-08-13T10:18:04.000Z</time>
      </trkpt>
      <trkpt lat="44.28512" lon="6.57391">
        <ele>1738.4000244141</ele>
        <time>2020-08-13T10:18:07.000Z</time>
      </trkpt>
      <trkpt lat="44.28534" lon="6.57387">
        <ele>1739</ele>
        <time>2020-08-13T10:18:14.000Z</time>
      </trkpt>
      <trkpt lat="44.28537" lon="6.57386">
        <ele>1739.1999511719</ele>
        <time>2020-08-13T10:18:15.000Z</time>
      </trkpt>
      <trkpt lat="44.28552" lon="6.57374">
        <ele>1740</ele>
        <time>2020-08-13T10:18:20.000Z</time>
      </trkpt>
      <trkpt lat="44.2856" lon="6.57366">
        <ele>1740.5999755859</ele>
        <time>2020-08-13T10:18:23.000Z</time>
      </trkpt>
      <trkpt lat="44.28573" lon="6.57353">
        <ele>1741.1999511719</ele>
        <time>2020-08-13T10:18:28.000Z</time>
      </trkpt>
      <trkpt lat="44.28587" lon="6.57342">
        <ele>1741.8000488281</ele>
        <time>2020-08-13T10:18:33.000Z</time>
      </trkpt>
      <trkpt lat="44.28595" lon="6.57337">
        <ele>1742.4000244141</ele>
        <time>2020-08-13T10:18:36.000Z</time>
      </trkpt>
      <trkpt lat="44.28613" lon="6.57327">
        <ele>1743.4000244141</ele>
        <time>2020-08-13T10:18:42.000Z</time>
      </trkpt>
      <trkpt lat="44.28619" lon="6.57324">
        <ele>1743.5999755859</ele>
        <time>2020-08-13T10:18:44.000Z</time>
      </trkpt>
      <trkpt lat="44.28646" lon="6.57316">
        <ele>1744.5999755859</ele>
        <time>2020-08-13T10:18:52.000Z</time>
      </trkpt>
      <trkpt lat="44.28653" lon="6.57314">
        <ele>1745</ele>
        <time>2020-08-13T10:18:54.000Z</time>
      </trkpt>
      <trkpt lat="44.2867" lon="6.57311">
        <ele>1745.5999755859</ele>
        <time>2020-08-13T10:18:59.000Z</time>
      </trkpt>
      <trkpt lat="44.28686" lon="6.57309">
        <ele>1746.4000244141</ele>
        <time>2020-08-13T10:19:04.000Z</time>
      </trkpt>
      <trkpt lat="44.28696" lon="6.57308">
        <ele>1746.8000488281</ele>
        <time>2020-08-13T10:19:07.000Z</time>
      </trkpt>
      <trkpt lat="44.28713" lon="6.57308">
        <ele>1747.8000488281</ele>
        <time>2020-08-13T10:19:12.000Z</time>
      </trkpt>
      <trkpt lat="44.28719" lon="6.57307">
        <ele>1748</ele>
        <time>2020-08-13T10:19:14.000Z</time>
      </trkpt>
      <trkpt lat="44.28735" lon="6.57305">
        <ele>1749</ele>
        <time>2020-08-13T10:19:19.000Z</time>
      </trkpt>
      <trkpt lat="44.28748" lon="6.573">
        <ele>1749.4000244141</ele>
        <time>2020-08-13T10:19:23.000Z</time>
      </trkpt>
      <trkpt lat="44.28764" lon="6.57291">
        <ele>1750</ele>
        <time>2020-08-13T10:19:28.000Z</time>
      </trkpt>
      <trkpt lat="44.28777" lon="6.57284">
        <ele>1750.5999755859</ele>
        <time>2020-08-13T10:19:32.000Z</time>
      </trkpt>
      <trkpt lat="44.28789" lon="6.57278">
        <ele>1751</ele>
        <time>2020-08-13T10:19:36.000Z</time>
      </trkpt>
      <trkpt lat="44.28802" lon="6.57271">
        <ele>1751.8000488281</ele>
        <time>2020-08-13T10:19:40.000Z</time>
      </trkpt>
      <trkpt lat="44.28817" lon="6.57266">
        <ele>1752.1999511719</ele>
        <time>2020-08-13T10:19:44.000Z</time>
      </trkpt>
      <trkpt lat="44.28824" lon="6.57265">
        <ele>1752.5999755859</ele>
        <time>2020-08-13T10:19:46.000Z</time>
      </trkpt>
      <trkpt lat="44.2883" lon="6.57263">
        <ele>1753.1999511719</ele>
        <time>2020-08-13T10:19:48.000Z</time>
      </trkpt>
      <trkpt lat="44.28851" lon="6.57255">
        <ele>1754.1999511719</ele>
        <time>2020-08-13T10:19:55.000Z</time>
      </trkpt>
      <trkpt lat="44.28878" lon="6.57244">
        <ele>1755.1999511719</ele>
        <time>2020-08-13T10:20:04.000Z</time>
      </trkpt>
      <trkpt lat="44.28881" lon="6.57243">
        <ele>1755.4000244141</ele>
        <time>2020-08-13T10:20:05.000Z</time>
      </trkpt>
      <trkpt lat="44.28907" lon="6.57236">
        <ele>1756.4000244141</ele>
        <time>2020-08-13T10:20:13.000Z</time>
      </trkpt>
      <trkpt lat="44.2891" lon="6.57235">
        <ele>1756.5999755859</ele>
        <time>2020-08-13T10:20:14.000Z</time>
      </trkpt>
      <trkpt lat="44.28925" lon="6.57237">
        <ele>1757.1999511719</ele>
        <time>2020-08-13T10:20:19.000Z</time>
      </trkpt>
      <trkpt lat="44.2893" lon="6.57238">
        <ele>1757.4000244141</ele>
        <time>2020-08-13T10:20:21.000Z</time>
      </trkpt>
      <trkpt lat="44.28941" lon="6.57236">
        <ele>1758.4000244141</ele>
        <time>2020-08-13T10:20:25.000Z</time>
      </trkpt>
      <trkpt lat="44.28943" lon="6.57235">
        <ele>1758.5999755859</ele>
        <time>2020-08-13T10:20:26.000Z</time>
      </trkpt>
      <trkpt lat="44.2895" lon="6.57233">
        <ele>1759.5999755859</ele>
        <time>2020-08-13T10:20:31.000Z</time>
      </trkpt>
      <trkpt lat="44.28951" lon="6.57232">
        <ele>1759.8000488281</ele>
        <time>2020-08-13T10:20:32.000Z</time>
      </trkpt>
      <trkpt lat="44.28952" lon="6.57232">
        <ele>1759.8000488281</ele>
        <time>2020-08-13T10:20:33.000Z</time>
      </trkpt>
      <trkpt lat="44.28955" lon="6.57233">
        <ele>1760.1999511719</ele>
        <time>2020-08-13T10:20:37.000Z</time>
      </trkpt>
      <trkpt lat="44.28952" lon="6.57237">
        <ele>1760.4000244141</ele>
        <time>2020-08-13T10:20:40.000Z</time>
      </trkpt>
      <trkpt lat="44.28943" lon="6.57225">
        <ele>1760</ele>
        <time>2020-08-13T10:20:44.000Z</time>
      </trkpt>
      <trkpt lat="44.28947" lon="6.57211">
        <ele>1759.4000244141</ele>
        <time>2020-08-13T10:20:47.000Z</time>
      </trkpt>
      <trkpt lat="44.28956" lon="6.57199">
        <ele>1758.5999755859</ele>
        <time>2020-08-13T10:20:50.000Z</time>
      </trkpt>
      <trkpt lat="44.28963" lon="6.57191">
        <ele>1758.1999511719</ele>
        <time>2020-08-13T10:20:52.000Z</time>
      </trkpt>
      <trkpt lat="44.28976" lon="6.57178">
        <ele>1757.4000244141</ele>
        <time>2020-08-13T10:20:55.000Z</time>
      </trkpt>
      <trkpt lat="44.28985" lon="6.5717">
        <ele>1756.8000488281</ele>
        <time>2020-08-13T10:20:57.000Z</time>
      </trkpt>
      <trkpt lat="44.2899" lon="6.57165">
        <ele>1756.4000244141</ele>
        <time>2020-08-13T10:20:58.000Z</time>
      </trkpt>
      <trkpt lat="44.28995" lon="6.57161">
        <ele>1756</ele>
        <time>2020-08-13T10:20:59.000Z</time>
      </trkpt>
      <trkpt lat="44.29007" lon="6.57141">
        <ele>1755.1999511719</ele>
        <time>2020-08-13T10:21:02.000Z</time>
      </trkpt>
      <trkpt lat="44.29021" lon="6.57118">
        <ele>1754</ele>
        <time>2020-08-13T10:21:05.000Z</time>
      </trkpt>
      <trkpt lat="44.29037" lon="6.57091">
        <ele>1752.8000488281</ele>
        <time>2020-08-13T10:21:08.000Z</time>
      </trkpt>
      <trkpt lat="44.29055" lon="6.57066">
        <ele>1751.5999755859</ele>
        <time>2020-08-13T10:21:11.000Z</time>
      </trkpt>
      <trkpt lat="44.29073" lon="6.5704">
        <ele>1750.1999511719</ele>
        <time>2020-08-13T10:21:14.000Z</time>
      </trkpt>
      <trkpt lat="44.29084" lon="6.57024">
        <ele>1750.1999511719</ele>
        <time>2020-08-13T10:21:16.000Z</time>
      </trkpt>
      <trkpt lat="44.29106" lon="6.56988">
        <ele>1750.8000488281</ele>
        <time>2020-08-13T10:21:21.000Z</time>
      </trkpt>
      <trkpt lat="44.29111" lon="6.56976">
        <ele>1751.1999511719</ele>
        <time>2020-08-13T10:21:23.000Z</time>
      </trkpt>
      <trkpt lat="44.29112" lon="6.5697">
        <ele>1751.4000244141</ele>
        <time>2020-08-13T10:21:24.000Z</time>
      </trkpt>
      <trkpt lat="44.29114" lon="6.56965">
        <ele>1751.4000244141</ele>
        <time>2020-08-13T10:21:25.000Z</time>
      </trkpt>
      <trkpt lat="44.29114" lon="6.56933">
        <ele>1751.5999755859</ele>
        <time>2020-08-13T10:21:31.000Z</time>
      </trkpt>
      <trkpt lat="44.29113" lon="6.56927">
        <ele>1751.5999755859</ele>
        <time>2020-08-13T10:21:32.000Z</time>
      </trkpt>
      <trkpt lat="44.29104" lon="6.56915">
        <ele>1751.5999755859</ele>
        <time>2020-08-13T10:21:35.000Z</time>
      </trkpt>
      <trkpt lat="44.29092" lon="6.56912">
        <ele>1751.4000244141</ele>
        <time>2020-08-13T10:21:38.000Z</time>
      </trkpt>
      <trkpt lat="44.29088" lon="6.56911">
        <ele>1751.5999755859</ele>
        <time>2020-08-13T10:21:39.000Z</time>
      </trkpt>
      <trkpt lat="44.29064" lon="6.56914">
        <ele>1752.4000244141</ele>
        <time>2020-08-13T10:21:46.000Z</time>
      </trkpt>
      <trkpt lat="44.29056" lon="6.56913">
        <ele>1753</ele>
        <time>2020-08-13T10:21:51.000Z</time>
      </trkpt>
      <trkpt lat="44.29054" lon="6.56911">
        <ele>1753.1999511719</ele>
        <time>2020-08-13T10:21:56.000Z</time>
      </trkpt>
      <trkpt lat="44.29055" lon="6.56911">
        <ele>1753.1999511719</ele>
        <time>2020-08-13T10:21:57.000Z</time>
      </trkpt>
      <trkpt lat="44.29054" lon="6.56911">
        <ele>1753.1999511719</ele>
        <time>2020-08-13T10:22:03.000Z</time>
      </trkpt>
      <trkpt lat="44.29054" lon="6.56912">
        <ele>1753</ele>
        <time>2020-08-13T10:22:12.000Z</time>
      </trkpt>
      <trkpt lat="44.29053" lon="6.56915">
        <ele>1753.1999511719</ele>
        <time>2020-08-13T10:22:19.000Z</time>
      </trkpt>
      <trkpt lat="44.29053" lon="6.56919">
        <ele>1752.8000488281</ele>
        <time>2020-08-13T10:22:25.000Z</time>
      </trkpt>
      <trkpt lat="44.29052" lon="6.56921">
        <ele>1753</ele>
        <time>2020-08-13T10:22:33.000Z</time>
      </trkpt>
      <trkpt lat="44.29053" lon="6.56921">
        <ele>1752.8000488281</ele>
        <time>2020-08-13T10:22:39.000Z</time>
      </trkpt>
      <trkpt lat="44.29053" lon="6.56918">
        <ele>1752.5999755859</ele>
        <time>2020-08-13T10:22:45.000Z</time>
      </trkpt>
      <trkpt lat="44.29051" lon="6.56922">
        <ele>1753</ele>
        <time>2020-08-13T10:22:51.000Z</time>
      </trkpt>
      <trkpt lat="44.29051" lon="6.56923">
        <ele>1753.5999755859</ele>
        <time>2020-08-13T10:22:57.000Z</time>
      </trkpt>
      <trkpt lat="44.2905" lon="6.56924">
        <ele>1754.5999755859</ele>
        <time>2020-08-13T10:23:01.000Z</time>
      </trkpt>
      <trkpt lat="44.2905" lon="6.56924">
        <ele>1754.8000488281</ele>
        <time>2020-08-13T10:23:02.000Z</time>
      </trkpt>
      <trkpt lat="44.29051" lon="6.5692">
        <ele>1754.4000244141</ele>
        <time>2020-08-13T10:23:07.000Z</time>
      </trkpt>
      <trkpt lat="44.29051" lon="6.56917">
        <ele>1754.8000488281</ele>
        <time>2020-08-13T10:23:13.000Z</time>
      </trkpt>
      <trkpt lat="44.29051" lon="6.56917">
        <ele>1755.1999511719</ele>
        <time>2020-08-13T10:23:19.000Z</time>
      </trkpt>
      <trkpt lat="44.29049" lon="6.56929">
        <ele>1755.1999511719</ele>
        <time>2020-08-13T10:23:25.000Z</time>
      </trkpt>
      <trkpt lat="44.29048" lon="6.56934">
        <ele>1755.1999511719</ele>
        <time>2020-08-13T10:23:29.000Z</time>
      </trkpt>
      <trkpt lat="44.29048" lon="6.56933">
        <ele>1755.1999511719</ele>
        <time>2020-08-13T10:23:30.000Z</time>
      </trkpt>
      <trkpt lat="44.29049" lon="6.56931">
        <ele>1755</ele>
        <time>2020-08-13T10:23:34.000Z</time>
      </trkpt>
      <trkpt lat="44.29049" lon="6.56931">
        <ele>1755</ele>
        <time>2020-08-13T10:23:35.000Z</time>
      </trkpt>
      <trkpt lat="44.29051" lon="6.56933">
        <ele>1755.1999511719</ele>
        <time>2020-08-13T10:23:38.000Z</time>
      </trkpt>
      <trkpt lat="44.29056" lon="6.5693">
        <ele>1755.4000244141</ele>
        <time>2020-08-13T10:23:40.000Z</time>
      </trkpt>
      <trkpt lat="44.29061" lon="6.56926">
        <ele>1755.1999511719</ele>
        <time>2020-08-13T10:23:42.000Z</time>
      </trkpt>
      <trkpt lat="44.29051" lon="6.56945">
        <ele>1755.4000244141</ele>
        <time>2020-08-13T10:23:57.000Z</time>
      </trkpt>
      <trkpt lat="44.29049" lon="6.56946">
        <ele>1755.4000244141</ele>
        <time>2020-08-13T10:23:58.000Z</time>
      </trkpt>
      <trkpt lat="44.29045" lon="6.56943">
        <ele>1755.4000244141</ele>
        <time>2020-08-13T10:24:03.000Z</time>
      </trkpt>
      <trkpt lat="44.29044" lon="6.5694">
        <ele>1755.4000244141</ele>
        <time>2020-08-13T10:24:04.000Z</time>
      </trkpt>
      <trkpt lat="44.29079" lon="6.569">
        <ele>1755.1999511719</ele>
        <time>2020-08-13T10:24:29.000Z</time>
      </trkpt>
      <trkpt lat="44.29079" lon="6.56932">
        <ele>1755.1999511719</ele>
        <time>2020-08-13T10:24:30.000Z</time>
      </trkpt>
      <trkpt lat="44.29074" lon="6.56927">
        <ele>1755.1999511719</ele>
        <time>2020-08-13T10:24:33.000Z</time>
      </trkpt>
      <trkpt lat="44.29072" lon="6.56912">
        <ele>1755.4000244141</ele>
        <time>2020-08-13T10:24:34.000Z</time>
      </trkpt>
      <trkpt lat="44.29068" lon="6.56905">
        <ele>1755.1999511719</ele>
        <time>2020-08-13T10:24:39.000Z</time>
      </trkpt>
      <trkpt lat="44.29082" lon="6.56884">
        <ele>1755.4000244141</ele>
        <time>2020-08-13T10:24:45.000Z</time>
      </trkpt>
      <trkpt lat="44.29077" lon="6.56886">
        <ele>1755.1999511719</ele>
        <time>2020-08-13T10:24:47.000Z</time>
      </trkpt>
      <trkpt lat="44.29071" lon="6.56888">
        <ele>1755.1999511719</ele>
        <time>2020-08-13T10:24:49.000Z</time>
      </trkpt>
      <trkpt lat="44.29067" lon="6.56887">
        <ele>1755.1999511719</ele>
        <time>2020-08-13T10:24:52.000Z</time>
      </trkpt>
      <trkpt lat="44.29071" lon="6.56894">
        <ele>1755.5999755859</ele>
        <time>2020-08-13T10:25:50.000Z</time>
      </trkpt>
      <trkpt lat="44.29057" lon="6.56919">
        <ele>1755.5999755859</ele>
        <time>2020-08-13T10:25:54.000Z</time>
      </trkpt>
      <trkpt lat="44.2906" lon="6.5692">
        <ele>1755.5999755859</ele>
        <time>2020-08-13T10:25:55.000Z</time>
      </trkpt>
      <trkpt lat="44.29056" lon="6.56925">
        <ele>1755.5999755859</ele>
        <time>2020-08-13T10:25:59.000Z</time>
      </trkpt>
      <trkpt lat="44.29055" lon="6.56929">
        <ele>1755.5999755859</ele>
        <time>2020-08-13T10:26:05.000Z</time>
      </trkpt>
      <trkpt lat="44.2905" lon="6.56947">
        <ele>1755.1999511719</ele>
        <time>2020-08-13T10:26:11.000Z</time>
      </trkpt>
      <trkpt lat="44.29049" lon="6.56957">
        <ele>1755.5999755859</ele>
        <time>2020-08-13T10:26:19.000Z</time>
      </trkpt>
      <trkpt lat="44.29048" lon="6.5696">
        <ele>1755.4000244141</ele>
        <time>2020-08-13T10:26:25.000Z</time>
      </trkpt>
      <trkpt lat="44.29046" lon="6.5696">
        <ele>1755.4000244141</ele>
        <time>2020-08-13T10:26:31.000Z</time>
      </trkpt>
      <trkpt lat="44.29044" lon="6.56967">
        <ele>1755.1999511719</ele>
        <time>2020-08-13T10:26:39.000Z</time>
      </trkpt>
      <trkpt lat="44.2904" lon="6.56975">
        <ele>1755.1999511719</ele>
        <time>2020-08-13T10:26:47.000Z</time>
      </trkpt>
      <trkpt lat="44.29036" lon="6.56984">
        <ele>1755.1999511719</ele>
        <time>2020-08-13T10:26:54.000Z</time>
      </trkpt>
      <trkpt lat="44.29034" lon="6.56988">
        <ele>1755.4000244141</ele>
        <time>2020-08-13T10:27:03.000Z</time>
      </trkpt>
      <trkpt lat="44.29036" lon="6.56985">
        <ele>1755.4000244141</ele>
        <time>2020-08-13T10:27:13.000Z</time>
      </trkpt>
      <trkpt lat="44.29038" lon="6.5698">
        <ele>1755.4000244141</ele>
        <time>2020-08-13T10:27:20.000Z</time>
      </trkpt>
      <trkpt lat="44.29041" lon="6.56975">
        <ele>1755.5999755859</ele>
        <time>2020-08-13T10:27:28.000Z</time>
      </trkpt>
      <trkpt lat="44.2904" lon="6.56976">
        <ele>1755.5999755859</ele>
        <time>2020-08-13T10:27:30.000Z</time>
      </trkpt>
      <trkpt lat="44.29041" lon="6.56974">
        <ele>1755.5999755859</ele>
        <time>2020-08-13T10:27:36.000Z</time>
      </trkpt>
      <trkpt lat="44.29041" lon="6.56975">
        <ele>1755.5999755859</ele>
        <time>2020-08-13T10:27:44.000Z</time>
      </trkpt>
      <trkpt lat="44.29043" lon="6.56971">
        <ele>1755.4000244141</ele>
        <time>2020-08-13T10:27:51.000Z</time>
      </trkpt>
      <trkpt lat="44.29047" lon="6.56965">
        <ele>1755.1999511719</ele>
        <time>2020-08-13T10:27:58.000Z</time>
      </trkpt>
      <trkpt lat="44.29043" lon="6.56969">
        <ele>1755</ele>
        <time>2020-08-13T10:28:05.000Z</time>
      </trkpt>
      <trkpt lat="44.29042" lon="6.5697">
        <ele>1754.8000488281</ele>
        <time>2020-08-13T10:28:13.000Z</time>
      </trkpt>
      <trkpt lat="44.29046" lon="6.56969">
        <ele>1754.5999755859</ele>
        <time>2020-08-13T10:28:21.000Z</time>
      </trkpt>
      <trkpt lat="44.29046" lon="6.56967">
        <ele>1755</ele>
        <time>2020-08-13T10:28:32.000Z</time>
      </trkpt>
      <trkpt lat="44.29044" lon="6.56966">
        <ele>1755</ele>
        <time>2020-08-13T10:28:40.000Z</time>
      </trkpt>
      <trkpt lat="44.29044" lon="6.56964">
        <ele>1754.8000488281</ele>
        <time>2020-08-13T10:28:48.000Z</time>
      </trkpt>
      <trkpt lat="44.29042" lon="6.56963">
        <ele>1755</ele>
        <time>2020-08-13T10:28:58.000Z</time>
      </trkpt>
      <trkpt lat="44.29043" lon="6.5696">
        <ele>1755</ele>
        <time>2020-08-13T10:29:05.000Z</time>
      </trkpt>
      <trkpt lat="44.29045" lon="6.56957">
        <ele>1755</ele>
        <time>2020-08-13T10:29:13.000Z</time>
      </trkpt>
      <trkpt lat="44.29046" lon="6.56952">
        <ele>1754.8000488281</ele>
        <time>2020-08-13T10:29:20.000Z</time>
      </trkpt>
      <trkpt lat="44.29046" lon="6.56951">
        <ele>1755</ele>
        <time>2020-08-13T10:29:29.000Z</time>
      </trkpt>
      <trkpt lat="44.29047" lon="6.5695">
        <ele>1755</ele>
        <time>2020-08-13T10:29:34.000Z</time>
      </trkpt>
      <trkpt lat="44.29049" lon="6.56949">
        <ele>1754.8000488281</ele>
        <time>2020-08-13T10:29:44.000Z</time>
      </trkpt>
      <trkpt lat="44.29042" lon="6.5696">
        <ele>1754.5999755859</ele>
        <time>2020-08-13T10:29:55.000Z</time>
      </trkpt>
      <trkpt lat="44.2904" lon="6.56964">
        <ele>1755</ele>
        <time>2020-08-13T10:30:02.000Z</time>
      </trkpt>
      <trkpt lat="44.29038" lon="6.56965">
        <ele>1754.8000488281</ele>
        <time>2020-08-13T10:30:11.000Z</time>
      </trkpt>
      <trkpt lat="44.29039" lon="6.56963">
        <ele>1754.8000488281</ele>
        <time>2020-08-13T10:30:22.000Z</time>
      </trkpt>
      <trkpt lat="44.2904" lon="6.56961">
        <ele>1754.8000488281</ele>
        <time>2020-08-13T10:30:32.000Z</time>
      </trkpt>
      <trkpt lat="44.29051" lon="6.56944">
        <ele>1754.8000488281</ele>
        <time>2020-08-13T10:30:42.000Z</time>
      </trkpt>
      <trkpt lat="44.29054" lon="6.56938">
        <ele>1755</ele>
        <time>2020-08-13T10:30:58.000Z</time>
      </trkpt>
      <trkpt lat="44.29056" lon="6.56935">
        <ele>1755.1999511719</ele>
        <time>2020-08-13T10:31:09.000Z</time>
      </trkpt>
      <trkpt lat="44.29057" lon="6.56933">
        <ele>1755.4000244141</ele>
        <time>2020-08-13T10:31:23.000Z</time>
      </trkpt>
      <trkpt lat="44.29058" lon="6.56933">
        <ele>1755.1999511719</ele>
        <time>2020-08-13T10:31:36.000Z</time>
      </trkpt>
      <trkpt lat="44.29058" lon="6.56934">
        <ele>1755.4000244141</ele>
        <time>2020-08-13T10:31:51.000Z</time>
      </trkpt>
      <trkpt lat="44.29059" lon="6.56934">
        <ele>1755</ele>
        <time>2020-08-13T10:32:03.000Z</time>
      </trkpt>
      <trkpt lat="44.29058" lon="6.56926">
        <ele>1755</ele>
        <time>2020-08-13T10:32:17.000Z</time>
      </trkpt>
      <trkpt lat="44.29058" lon="6.56924">
        <ele>1754.8000488281</ele>
        <time>2020-08-13T10:32:29.000Z</time>
      </trkpt>
      <trkpt lat="44.29058" lon="6.56924">
        <ele>1755.1999511719</ele>
        <time>2020-08-13T10:32:36.000Z</time>
      </trkpt>
      <trkpt lat="44.29058" lon="6.56922">
        <ele>1755.8000488281</ele>
        <time>2020-08-13T10:32:39.000Z</time>
      </trkpt>
      <trkpt lat="44.29059" lon="6.56922">
        <ele>1755.8000488281</ele>
        <time>2020-08-13T10:32:41.000Z</time>
      </trkpt>
      <trkpt lat="44.29059" lon="6.56913">
        <ele>1755.4000244141</ele>
        <time>2020-08-13T10:32:52.000Z</time>
      </trkpt>
      <trkpt lat="44.29059" lon="6.5691">
        <ele>1755.4000244141</ele>
        <time>2020-08-13T10:33:03.000Z</time>
      </trkpt>
      <trkpt lat="44.2906" lon="6.56909">
        <ele>1755.1999511719</ele>
        <time>2020-08-13T10:33:19.000Z</time>
      </trkpt>
      <trkpt lat="44.2906" lon="6.56909">
        <ele>1755.4000244141</ele>
        <time>2020-08-13T10:33:29.000Z</time>
      </trkpt>
      <trkpt lat="44.2906" lon="6.5691">
        <ele>1755.4000244141</ele>
        <time>2020-08-13T10:33:37.000Z</time>
      </trkpt>
      <trkpt lat="44.2906" lon="6.56912">
        <ele>1755.4000244141</ele>
        <time>2020-08-13T10:33:46.000Z</time>
      </trkpt>
      <trkpt lat="44.29057" lon="6.56924">
        <ele>1754.8000488281</ele>
        <time>2020-08-13T10:33:55.000Z</time>
      </trkpt>
      <trkpt lat="44.29055" lon="6.56935">
        <ele>1754.8000488281</ele>
        <time>2020-08-13T10:34:03.000Z</time>
      </trkpt>
      <trkpt lat="44.29054" lon="6.56942">
        <ele>1754.8000488281</ele>
        <time>2020-08-13T10:34:08.000Z</time>
      </trkpt>
      <trkpt lat="44.29054" lon="6.56943">
        <ele>1754.8000488281</ele>
        <time>2020-08-13T10:34:09.000Z</time>
      </trkpt>
      <trkpt lat="44.29053" lon="6.56946">
        <ele>1755</ele>
        <time>2020-08-13T10:34:18.000Z</time>
      </trkpt>
      <trkpt lat="44.29053" lon="6.56944">
        <ele>1754.5999755859</ele>
        <time>2020-08-13T10:34:27.000Z</time>
      </trkpt>
      <trkpt lat="44.29052" lon="6.56951">
        <ele>1754.8000488281</ele>
        <time>2020-08-13T10:34:40.000Z</time>
      </trkpt>
      <trkpt lat="44.29051" lon="6.56962">
        <ele>1755</ele>
        <time>2020-08-13T10:34:50.000Z</time>
      </trkpt>
      <trkpt lat="44.29051" lon="6.5696">
        <ele>1755.1999511719</ele>
        <time>2020-08-13T10:34:55.000Z</time>
      </trkpt>
      <trkpt lat="44.29049" lon="6.5696">
        <ele>1755.4000244141</ele>
        <time>2020-08-13T10:35:01.000Z</time>
      </trkpt>
      <trkpt lat="44.29051" lon="6.56958">
        <ele>1755.1999511719</ele>
        <time>2020-08-13T10:35:07.000Z</time>
      </trkpt>
      <trkpt lat="44.29052" lon="6.56954">
        <ele>1754.1999511719</ele>
        <time>2020-08-13T10:35:13.000Z</time>
      </trkpt>
      <trkpt lat="44.29052" lon="6.56948">
        <ele>1753.8000488281</ele>
        <time>2020-08-13T10:35:21.000Z</time>
      </trkpt>
      <trkpt lat="44.29052" lon="6.56951">
        <ele>1754.1999511719</ele>
        <time>2020-08-13T10:35:31.000Z</time>
      </trkpt>
      <trkpt lat="44.29053" lon="6.5695">
        <ele>1754.1999511719</ele>
        <time>2020-08-13T10:35:38.000Z</time>
      </trkpt>
      <trkpt lat="44.29053" lon="6.56947">
        <ele>1754.5999755859</ele>
        <time>2020-08-13T10:35:44.000Z</time>
      </trkpt>
      <trkpt lat="44.29053" lon="6.56944">
        <ele>1754.4000244141</ele>
        <time>2020-08-13T10:35:49.000Z</time>
      </trkpt>
      <trkpt lat="44.29053" lon="6.56939">
        <ele>1754.5999755859</ele>
        <time>2020-08-13T10:35:57.000Z</time>
      </trkpt>
      <trkpt lat="44.29053" lon="6.56938">
        <ele>1753.8000488281</ele>
        <time>2020-08-13T10:36:08.000Z</time>
      </trkpt>
      <trkpt lat="44.29054" lon="6.56938">
        <ele>1753.8000488281</ele>
        <time>2020-08-13T10:36:15.000Z</time>
      </trkpt>
      <trkpt lat="44.29054" lon="6.5694">
        <ele>1754.5999755859</ele>
        <time>2020-08-13T10:36:22.000Z</time>
      </trkpt>
      <trkpt lat="44.29053" lon="6.56941">
        <ele>1754.4000244141</ele>
        <time>2020-08-13T10:36:29.000Z</time>
      </trkpt>
      <trkpt lat="44.29053" lon="6.56943">
        <ele>1754.4000244141</ele>
        <time>2020-08-13T10:36:36.000Z</time>
      </trkpt>
      <trkpt lat="44.29054" lon="6.56938">
        <ele>1754.5999755859</ele>
        <time>2020-08-13T10:36:40.000Z</time>
      </trkpt>
      <trkpt lat="44.29053" lon="6.56939">
        <ele>1754.4000244141</ele>
        <time>2020-08-13T10:36:41.000Z</time>
      </trkpt>
      <trkpt lat="44.29054" lon="6.56939">
        <ele>1755</ele>
        <time>2020-08-13T10:36:50.000Z</time>
      </trkpt>
      <trkpt lat="44.29054" lon="6.5694">
        <ele>1754.1999511719</ele>
        <time>2020-08-13T10:36:55.000Z</time>
      </trkpt>
      <trkpt lat="44.29054" lon="6.56939">
        <ele>1754</ele>
        <time>2020-08-13T10:37:01.000Z</time>
      </trkpt>
      <trkpt lat="44.29056" lon="6.56935">
        <ele>1754.5999755859</ele>
        <time>2020-08-13T10:37:09.000Z</time>
      </trkpt>
      <trkpt lat="44.29066" lon="6.56935">
        <ele>1754.1999511719</ele>
        <time>2020-08-13T10:37:14.000Z</time>
      </trkpt>
      <trkpt lat="44.29082" lon="6.5693">
        <ele>1753.8000488281</ele>
        <time>2020-08-13T10:37:19.000Z</time>
      </trkpt>
      <trkpt lat="44.2909" lon="6.56929">
        <ele>1753.5999755859</ele>
        <time>2020-08-13T10:37:21.000Z</time>
      </trkpt>
      <trkpt lat="44.29105" lon="6.56931">
        <ele>1753.1999511719</ele>
        <time>2020-08-13T10:37:25.000Z</time>
      </trkpt>
      <trkpt lat="44.29108" lon="6.56935">
        <ele>1753.1999511719</ele>
        <time>2020-08-13T10:37:26.000Z</time>
      </trkpt>
      <trkpt lat="44.2911" lon="6.56945">
        <ele>1753.1999511719</ele>
        <time>2020-08-13T10:37:28.000Z</time>
      </trkpt>
      <trkpt lat="44.29111" lon="6.56957">
        <ele>1753.1999511719</ele>
        <time>2020-08-13T10:37:30.000Z</time>
      </trkpt>
      <trkpt lat="44.29109" lon="6.56976">
        <ele>1753</ele>
        <time>2020-08-13T10:37:34.000Z</time>
      </trkpt>
      <trkpt lat="44.291" lon="6.57">
        <ele>1752.8000488281</ele>
        <time>2020-08-13T10:37:39.000Z</time>
      </trkpt>
      <trkpt lat="44.29093" lon="6.57013">
        <ele>1752.5999755859</ele>
        <time>2020-08-13T10:37:42.000Z</time>
      </trkpt>
      <trkpt lat="44.2909" lon="6.57016">
        <ele>1752.5999755859</ele>
        <time>2020-08-13T10:37:43.000Z</time>
      </trkpt>
      <trkpt lat="44.29081" lon="6.57028">
        <ele>1752.1999511719</ele>
        <time>2020-08-13T10:37:46.000Z</time>
      </trkpt>
      <trkpt lat="44.29051" lon="6.57067">
        <ele>1752.1999511719</ele>
        <time>2020-08-13T10:37:55.000Z</time>
      </trkpt>
      <trkpt lat="44.29029" lon="6.571">
        <ele>1752.5999755859</ele>
        <time>2020-08-13T10:38:03.000Z</time>
      </trkpt>
      <trkpt lat="44.29013" lon="6.57128">
        <ele>1753.8000488281</ele>
        <time>2020-08-13T10:38:10.000Z</time>
      </trkpt>
      <trkpt lat="44.29004" lon="6.57143">
        <ele>1754.8000488281</ele>
        <time>2020-08-13T10:38:14.000Z</time>
      </trkpt>
      <trkpt lat="44.28993" lon="6.57158">
        <ele>1756</ele>
        <time>2020-08-13T10:38:19.000Z</time>
      </trkpt>
      <trkpt lat="44.28984" lon="6.57167">
        <ele>1757</ele>
        <time>2020-08-13T10:38:23.000Z</time>
      </trkpt>
      <trkpt lat="44.28974" lon="6.57175">
        <ele>1757.4000244141</ele>
        <time>2020-08-13T10:38:27.000Z</time>
      </trkpt>
      <trkpt lat="44.28965" lon="6.57184">
        <ele>1758</ele>
        <time>2020-08-13T10:38:31.000Z</time>
      </trkpt>
      <trkpt lat="44.28956" lon="6.57194">
        <ele>1758.5999755859</ele>
        <time>2020-08-13T10:38:35.000Z</time>
      </trkpt>
      <trkpt lat="44.28949" lon="6.572">
        <ele>1759.1999511719</ele>
        <time>2020-08-13T10:38:38.000Z</time>
      </trkpt>
      <trkpt lat="44.28936" lon="6.57216">
        <ele>1760.1999511719</ele>
        <time>2020-08-13T10:38:44.000Z</time>
      </trkpt>
      <trkpt lat="44.28926" lon="6.57234">
        <ele>1760.8000488281</ele>
        <time>2020-08-13T10:38:49.000Z</time>
      </trkpt>
      <trkpt lat="44.28928" lon="6.57238">
        <ele>1760.8000488281</ele>
        <time>2020-08-13T10:38:50.000Z</time>
      </trkpt>
      <trkpt lat="44.28935" lon="6.57242">
        <ele>1760.8000488281</ele>
        <time>2020-08-13T10:38:53.000Z</time>
      </trkpt>
      <trkpt lat="44.28941" lon="6.57242">
        <ele>1761.1999511719</ele>
        <time>2020-08-13T10:38:55.000Z</time>
      </trkpt>
      <trkpt lat="44.28948" lon="6.57239">
        <ele>1761.8000488281</ele>
        <time>2020-08-13T10:38:58.000Z</time>
      </trkpt>
      <trkpt lat="44.28951" lon="6.57237">
        <ele>1762</ele>
        <time>2020-08-13T10:38:59.000Z</time>
      </trkpt>
      <trkpt lat="44.28953" lon="6.57235">
        <ele>1762.1999511719</ele>
        <time>2020-08-13T10:39:00.000Z</time>
      </trkpt>
      <trkpt lat="44.28966" lon="6.57222">
        <ele>1763</ele>
        <time>2020-08-13T10:39:06.000Z</time>
      </trkpt>
      <trkpt lat="44.28973" lon="6.57216">
        <ele>1763.4000244141</ele>
        <time>2020-08-13T10:39:09.000Z</time>
      </trkpt>
      <trkpt lat="44.28988" lon="6.57208">
        <ele>1764.4000244141</ele>
        <time>2020-08-13T10:39:15.000Z</time>
      </trkpt>
      <trkpt lat="44.2899" lon="6.57208">
        <ele>1764.5999755859</ele>
        <time>2020-08-13T10:39:16.000Z</time>
      </trkpt>
      <trkpt lat="44.29003" lon="6.57206">
        <ele>1765.5999755859</ele>
        <time>2020-08-13T10:39:21.000Z</time>
      </trkpt>
      <trkpt lat="44.29013" lon="6.57203">
        <ele>1766.1999511719</ele>
        <time>2020-08-13T10:39:25.000Z</time>
      </trkpt>
      <trkpt lat="44.2902" lon="6.57202">
        <ele>1766.8000488281</ele>
        <time>2020-08-13T10:39:28.000Z</time>
      </trkpt>
      <trkpt lat="44.29036" lon="6.57196">
        <ele>1767.8000488281</ele>
        <time>2020-08-13T10:39:34.000Z</time>
      </trkpt>
      <trkpt lat="44.29054" lon="6.57187">
        <ele>1769</ele>
        <time>2020-08-13T10:39:41.000Z</time>
      </trkpt>
      <trkpt lat="44.29059" lon="6.57184">
        <ele>1769.1999511719</ele>
        <time>2020-08-13T10:39:43.000Z</time>
      </trkpt>
      <trkpt lat="44.29071" lon="6.57176">
        <ele>1770.1999511719</ele>
        <time>2020-08-13T10:39:48.000Z</time>
      </trkpt>
      <trkpt lat="44.29082" lon="6.57166">
        <ele>1771</ele>
        <time>2020-08-13T10:39:53.000Z</time>
      </trkpt>
      <trkpt lat="44.29085" lon="6.57164">
        <ele>1771.1999511719</ele>
        <time>2020-08-13T10:39:54.000Z</time>
      </trkpt>
      <trkpt lat="44.29098" lon="6.57151">
        <ele>1772.1999511719</ele>
        <time>2020-08-13T10:40:00.000Z</time>
      </trkpt>
      <trkpt lat="44.29104" lon="6.57144">
        <ele>1772.8000488281</ele>
        <time>2020-08-13T10:40:03.000Z</time>
      </trkpt>
      <trkpt lat="44.29108" lon="6.57139">
        <ele>1773.1999511719</ele>
        <time>2020-08-13T10:40:05.000Z</time>
      </trkpt>
      <trkpt lat="44.29121" lon="6.57124">
        <ele>1774.4000244141</ele>
        <time>2020-08-13T10:40:11.000Z</time>
      </trkpt>
      <trkpt lat="44.29129" lon="6.57114">
        <ele>1775</ele>
        <time>2020-08-13T10:40:15.000Z</time>
      </trkpt>
      <trkpt lat="44.29135" lon="6.57106">
        <ele>1775.5999755859</ele>
        <time>2020-08-13T10:40:18.000Z</time>
      </trkpt>
      <trkpt lat="44.29148" lon="6.5709">
        <ele>1776.8000488281</ele>
        <time>2020-08-13T10:40:24.000Z</time>
      </trkpt>
      <trkpt lat="44.2915" lon="6.57087">
        <ele>1777</ele>
        <time>2020-08-13T10:40:25.000Z</time>
      </trkpt>
      <trkpt lat="44.29162" lon="6.57071">
        <ele>1778</ele>
        <time>2020-08-13T10:40:31.000Z</time>
      </trkpt>
      <trkpt lat="44.29168" lon="6.57064">
        <ele>1778.5999755859</ele>
        <time>2020-08-13T10:40:34.000Z</time>
      </trkpt>
      <trkpt lat="44.29174" lon="6.57056">
        <ele>1779.1999511719</ele>
        <time>2020-08-13T10:40:37.000Z</time>
      </trkpt>
      <trkpt lat="44.29184" lon="6.57042">
        <ele>1780.4000244141</ele>
        <time>2020-08-13T10:40:43.000Z</time>
      </trkpt>
      <trkpt lat="44.29186" lon="6.57039">
        <ele>1780.5999755859</ele>
        <time>2020-08-13T10:40:44.000Z</time>
      </trkpt>
      <trkpt lat="44.29195" lon="6.57029">
        <ele>1781.4000244141</ele>
        <time>2020-08-13T10:40:49.000Z</time>
      </trkpt>
      <trkpt lat="44.29202" lon="6.57021">
        <ele>1782.1999511719</ele>
        <time>2020-08-13T10:40:53.000Z</time>
      </trkpt>
      <trkpt lat="44.29204" lon="6.57019">
        <ele>1782.4000244141</ele>
        <time>2020-08-13T10:40:54.000Z</time>
      </trkpt>
      <trkpt lat="44.29217" lon="6.57013">
        <ele>1783.4000244141</ele>
        <time>2020-08-13T10:41:00.000Z</time>
      </trkpt>
      <trkpt lat="44.2923" lon="6.57013">
        <ele>1784.5999755859</ele>
        <time>2020-08-13T10:41:06.000Z</time>
      </trkpt>
      <trkpt lat="44.29236" lon="6.57013">
        <ele>1785</ele>
        <time>2020-08-13T10:41:09.000Z</time>
      </trkpt>
      <trkpt lat="44.29245" lon="6.57013">
        <ele>1785.5999755859</ele>
        <time>2020-08-13T10:41:13.000Z</time>
      </trkpt>
      <trkpt lat="44.29251" lon="6.57015">
        <ele>1786.4000244141</ele>
        <time>2020-08-13T10:41:16.000Z</time>
      </trkpt>
      <trkpt lat="44.29257" lon="6.57016">
        <ele>1786.8000488281</ele>
        <time>2020-08-13T10:41:18.000Z</time>
      </trkpt>
      <trkpt lat="44.29268" lon="6.57014">
        <ele>1787.1999511719</ele>
        <time>2020-08-13T10:41:23.000Z</time>
      </trkpt>
      <trkpt lat="44.29275" lon="6.57011">
        <ele>1787.8000488281</ele>
        <time>2020-08-13T10:41:26.000Z</time>
      </trkpt>
      <trkpt lat="44.29285" lon="6.57002">
        <ele>1789</ele>
        <time>2020-08-13T10:41:31.000Z</time>
      </trkpt>
      <trkpt lat="44.29287" lon="6.57001">
        <ele>1789.1999511719</ele>
        <time>2020-08-13T10:41:32.000Z</time>
      </trkpt>
      <trkpt lat="44.29295" lon="6.56991">
        <ele>1790</ele>
        <time>2020-08-13T10:41:37.000Z</time>
      </trkpt>
      <trkpt lat="44.29301" lon="6.56982">
        <ele>1790.5999755859</ele>
        <time>2020-08-13T10:41:41.000Z</time>
      </trkpt>
      <trkpt lat="44.29306" lon="6.56975">
        <ele>1791.1999511719</ele>
        <time>2020-08-13T10:41:44.000Z</time>
      </trkpt>
      <trkpt lat="44.29315" lon="6.56961">
        <ele>1792.1999511719</ele>
        <time>2020-08-13T10:41:50.000Z</time>
      </trkpt>
      <trkpt lat="44.29329" lon="6.56953">
        <ele>1793.4000244141</ele>
        <time>2020-08-13T10:41:57.000Z</time>
      </trkpt>
      <trkpt lat="44.29344" lon="6.56953">
        <ele>1794.4000244141</ele>
        <time>2020-08-13T10:42:03.000Z</time>
      </trkpt>
      <trkpt lat="44.29353" lon="6.56955">
        <ele>1795.1999511719</ele>
        <time>2020-08-13T10:42:07.000Z</time>
      </trkpt>
      <trkpt lat="44.29358" lon="6.56955">
        <ele>1795.8000488281</ele>
        <time>2020-08-13T10:42:09.000Z</time>
      </trkpt>
      <trkpt lat="44.29375" lon="6.56953">
        <ele>1796.4000244141</ele>
        <time>2020-08-13T10:42:16.000Z</time>
      </trkpt>
      <trkpt lat="44.2938" lon="6.56953">
        <ele>1796.8000488281</ele>
        <time>2020-08-13T10:42:18.000Z</time>
      </trkpt>
      <trkpt lat="44.29399" lon="6.5695">
        <ele>1797.8000488281</ele>
        <time>2020-08-13T10:42:26.000Z</time>
      </trkpt>
      <trkpt lat="44.29402" lon="6.5695">
        <ele>1797.8000488281</ele>
        <time>2020-08-13T10:42:27.000Z</time>
      </trkpt>
      <trkpt lat="44.29419" lon="6.56949">
        <ele>1799</ele>
        <time>2020-08-13T10:42:34.000Z</time>
      </trkpt>
      <trkpt lat="44.29421" lon="6.56949">
        <ele>1799</ele>
        <time>2020-08-13T10:42:35.000Z</time>
      </trkpt>
      <trkpt lat="44.29439" lon="6.56949">
        <ele>1800</ele>
        <time>2020-08-13T10:42:42.000Z</time>
      </trkpt>
      <trkpt lat="44.29447" lon="6.56949">
        <ele>1800.5999755859</ele>
        <time>2020-08-13T10:42:45.000Z</time>
      </trkpt>
      <trkpt lat="44.29464" lon="6.56948">
        <ele>1801.1999511719</ele>
        <time>2020-08-13T10:42:52.000Z</time>
      </trkpt>
      <trkpt lat="44.29475" lon="6.56949">
        <ele>1801.5999755859</ele>
        <time>2020-08-13T10:42:56.000Z</time>
      </trkpt>
      <trkpt lat="44.29493" lon="6.56948">
        <ele>1802.1999511719</ele>
        <time>2020-08-13T10:43:03.000Z</time>
      </trkpt>
      <trkpt lat="44.29496" lon="6.56947">
        <ele>1802.4000244141</ele>
        <time>2020-08-13T10:43:04.000Z</time>
      </trkpt>
      <trkpt lat="44.29519" lon="6.56943">
        <ele>1803.4000244141</ele>
        <time>2020-08-13T10:43:13.000Z</time>
      </trkpt>
      <trkpt lat="44.29524" lon="6.56942">
        <ele>1803.8000488281</ele>
        <time>2020-08-13T10:43:15.000Z</time>
      </trkpt>
      <trkpt lat="44.29541" lon="6.56937">
        <ele>1804.5999755859</ele>
        <time>2020-08-13T10:43:21.000Z</time>
      </trkpt>
      <trkpt lat="44.29549" lon="6.56934">
        <ele>1804.8000488281</ele>
        <time>2020-08-13T10:43:24.000Z</time>
      </trkpt>
      <trkpt lat="44.29578" lon="6.56931">
        <ele>1806.5999755859</ele>
        <time>2020-08-13T10:43:36.000Z</time>
      </trkpt>
      <trkpt lat="44.29595" lon="6.56943">
        <ele>1807.4000244141</ele>
        <time>2020-08-13T10:43:43.000Z</time>
      </trkpt>
      <trkpt lat="44.296" lon="6.5695">
        <ele>1807.5999755859</ele>
        <time>2020-08-13T10:43:46.000Z</time>
      </trkpt>
      <trkpt lat="44.29608" lon="6.56961">
        <ele>1808.8000488281</ele>
        <time>2020-08-13T10:43:51.000Z</time>
      </trkpt>
      <trkpt lat="44.2961" lon="6.56963">
        <ele>1809</ele>
        <time>2020-08-13T10:43:52.000Z</time>
      </trkpt>
      <trkpt lat="44.2962" lon="6.56969">
        <ele>1810</ele>
        <time>2020-08-13T10:43:57.000Z</time>
      </trkpt>
      <trkpt lat="44.29628" lon="6.56972">
        <ele>1810.8000488281</ele>
        <time>2020-08-13T10:44:01.000Z</time>
      </trkpt>
      <trkpt lat="44.29632" lon="6.56972">
        <ele>1811</ele>
        <time>2020-08-13T10:44:03.000Z</time>
      </trkpt>
      <trkpt lat="44.29641" lon="6.56967">
        <ele>1812.1999511719</ele>
        <time>2020-08-13T10:44:08.000Z</time>
      </trkpt>
      <trkpt lat="44.2965" lon="6.5696">
        <ele>1813.1999511719</ele>
        <time>2020-08-13T10:44:13.000Z</time>
      </trkpt>
      <trkpt lat="44.29656" lon="6.56956">
        <ele>1813.8000488281</ele>
        <time>2020-08-13T10:44:16.000Z</time>
      </trkpt>
      <trkpt lat="44.29662" lon="6.56952">
        <ele>1814.1999511719</ele>
        <time>2020-08-13T10:44:19.000Z</time>
      </trkpt>
      <trkpt lat="44.29678" lon="6.56944">
        <ele>1815.4000244141</ele>
        <time>2020-08-13T10:44:27.000Z</time>
      </trkpt>
      <trkpt lat="44.29695" lon="6.56934">
        <ele>1816.4000244141</ele>
        <time>2020-08-13T10:44:35.000Z</time>
      </trkpt>
      <trkpt lat="44.29701" lon="6.56931">
        <ele>1816.8000488281</ele>
        <time>2020-08-13T10:44:38.000Z</time>
      </trkpt>
      <trkpt lat="44.29709" lon="6.56927">
        <ele>1817.5999755859</ele>
        <time>2020-08-13T10:44:42.000Z</time>
      </trkpt>
      <trkpt lat="44.29722" lon="6.56921">
        <ele>1818.5999755859</ele>
        <time>2020-08-13T10:44:48.000Z</time>
      </trkpt>
      <trkpt lat="44.29726" lon="6.56918">
        <ele>1818.8000488281</ele>
        <time>2020-08-13T10:44:50.000Z</time>
      </trkpt>
      <trkpt lat="44.29736" lon="6.56914">
        <ele>1819.8000488281</ele>
        <time>2020-08-13T10:44:55.000Z</time>
      </trkpt>
      <trkpt lat="44.2974" lon="6.56912">
        <ele>1820.1999511719</ele>
        <time>2020-08-13T10:44:57.000Z</time>
      </trkpt>
      <trkpt lat="44.29748" lon="6.56909">
        <ele>1820.8000488281</ele>
        <time>2020-08-13T10:45:01.000Z</time>
      </trkpt>
      <trkpt lat="44.2976" lon="6.56901">
        <ele>1822</ele>
        <time>2020-08-13T10:45:07.000Z</time>
      </trkpt>
      <trkpt lat="44.29773" lon="6.56892">
        <ele>1823</ele>
        <time>2020-08-13T10:45:13.000Z</time>
      </trkpt>
      <trkpt lat="44.29777" lon="6.56888">
        <ele>1823.4000244141</ele>
        <time>2020-08-13T10:45:15.000Z</time>
      </trkpt>
      <trkpt lat="44.29784" lon="6.56881">
        <ele>1824</ele>
        <time>2020-08-13T10:45:19.000Z</time>
      </trkpt>
      <trkpt lat="44.29795" lon="6.5687">
        <ele>1825.4000244141</ele>
        <time>2020-08-13T10:45:25.000Z</time>
      </trkpt>
      <trkpt lat="44.29799" lon="6.56866">
        <ele>1825.8000488281</ele>
        <time>2020-08-13T10:45:27.000Z</time>
      </trkpt>
      <trkpt lat="44.29806" lon="6.56859">
        <ele>1826.4000244141</ele>
        <time>2020-08-13T10:45:31.000Z</time>
      </trkpt>
      <trkpt lat="44.29819" lon="6.56846">
        <ele>1827.5999755859</ele>
        <time>2020-08-13T10:45:38.000Z</time>
      </trkpt>
      <trkpt lat="44.29828" lon="6.56838">
        <ele>1828.8000488281</ele>
        <time>2020-08-13T10:45:43.000Z</time>
      </trkpt>
      <trkpt lat="44.29837" lon="6.5683">
        <ele>1829.4000244141</ele>
        <time>2020-08-13T10:45:48.000Z</time>
      </trkpt>
      <trkpt lat="44.29842" lon="6.56825">
        <ele>1829.8000488281</ele>
        <time>2020-08-13T10:45:51.000Z</time>
      </trkpt>
      <trkpt lat="44.29853" lon="6.56817">
        <ele>1831</ele>
        <time>2020-08-13T10:45:57.000Z</time>
      </trkpt>
      <trkpt lat="44.29864" lon="6.56809">
        <ele>1832.1999511719</ele>
        <time>2020-08-13T10:46:03.000Z</time>
      </trkpt>
      <trkpt lat="44.29869" lon="6.56805">
        <ele>1832.8000488281</ele>
        <time>2020-08-13T10:46:06.000Z</time>
      </trkpt>
      <trkpt lat="44.29877" lon="6.56802">
        <ele>1833.4000244141</ele>
        <time>2020-08-13T10:46:10.000Z</time>
      </trkpt>
      <trkpt lat="44.29884" lon="6.56798">
        <ele>1834</ele>
        <time>2020-08-13T10:46:14.000Z</time>
      </trkpt>
      <trkpt lat="44.2989" lon="6.56795">
        <ele>1834.4000244141</ele>
        <time>2020-08-13T10:46:17.000Z</time>
      </trkpt>
      <trkpt lat="44.29902" lon="6.56788">
        <ele>1835.5999755859</ele>
        <time>2020-08-13T10:46:23.000Z</time>
      </trkpt>
      <trkpt lat="44.29904" lon="6.56787">
        <ele>1835.5999755859</ele>
        <time>2020-08-13T10:46:24.000Z</time>
      </trkpt>
      <trkpt lat="44.29916" lon="6.56775">
        <ele>1836.5999755859</ele>
        <time>2020-08-13T10:46:31.000Z</time>
      </trkpt>
      <trkpt lat="44.2992" lon="6.56769">
        <ele>1837</ele>
        <time>2020-08-13T10:46:34.000Z</time>
      </trkpt>
      <trkpt lat="44.29925" lon="6.56759">
        <ele>1837.5999755859</ele>
        <time>2020-08-13T10:46:38.000Z</time>
      </trkpt>
      <trkpt lat="44.2993" lon="6.5675">
        <ele>1838.1999511719</ele>
        <time>2020-08-13T10:46:42.000Z</time>
      </trkpt>
      <trkpt lat="44.29934" lon="6.56743">
        <ele>1838.8000488281</ele>
        <time>2020-08-13T10:46:45.000Z</time>
      </trkpt>
      <trkpt lat="44.29942" lon="6.56729">
        <ele>1839.8000488281</ele>
        <time>2020-08-13T10:46:51.000Z</time>
      </trkpt>
      <trkpt lat="44.29944" lon="6.56727">
        <ele>1839.8000488281</ele>
        <time>2020-08-13T10:46:52.000Z</time>
      </trkpt>
      <trkpt lat="44.29954" lon="6.56727">
        <ele>1840.5999755859</ele>
        <time>2020-08-13T10:46:57.000Z</time>
      </trkpt>
      <trkpt lat="44.29956" lon="6.56728">
        <ele>1840.8000488281</ele>
        <time>2020-08-13T10:46:58.000Z</time>
      </trkpt>
      <trkpt lat="44.29959" lon="6.56737">
        <ele>1841.4000244141</ele>
        <time>2020-08-13T10:47:01.000Z</time>
      </trkpt>
      <trkpt lat="44.29959" lon="6.56746">
        <ele>1842</ele>
        <time>2020-08-13T10:47:04.000Z</time>
      </trkpt>
      <trkpt lat="44.29958" lon="6.56758">
        <ele>1842.5999755859</ele>
        <time>2020-08-13T10:47:08.000Z</time>
      </trkpt>
      <trkpt lat="44.29957" lon="6.56769">
        <ele>1843</ele>
        <time>2020-08-13T10:47:12.000Z</time>
      </trkpt>
      <trkpt lat="44.29953" lon="6.56782">
        <ele>1844.1999511719</ele>
        <time>2020-08-13T10:47:17.000Z</time>
      </trkpt>
      <trkpt lat="44.29952" lon="6.56785">
        <ele>1844.1999511719</ele>
        <time>2020-08-13T10:47:18.000Z</time>
      </trkpt>
      <trkpt lat="44.29946" lon="6.56813">
        <ele>1845.1999511719</ele>
        <time>2020-08-13T10:47:28.000Z</time>
      </trkpt>
      <trkpt lat="44.29942" lon="6.56826">
        <ele>1846.4000244141</ele>
        <time>2020-08-13T10:47:33.000Z</time>
      </trkpt>
      <trkpt lat="44.29938" lon="6.56834">
        <ele>1846.8000488281</ele>
        <time>2020-08-13T10:47:36.000Z</time>
      </trkpt>
      <trkpt lat="44.29934" lon="6.56843">
        <ele>1847.4000244141</ele>
        <time>2020-08-13T10:47:40.000Z</time>
      </trkpt>
      <trkpt lat="44.29928" lon="6.56854">
        <ele>1848.4000244141</ele>
        <time>2020-08-13T10:47:45.000Z</time>
      </trkpt>
      <trkpt lat="44.29927" lon="6.56857">
        <ele>1848.5999755859</ele>
        <time>2020-08-13T10:47:46.000Z</time>
      </trkpt>
      <trkpt lat="44.29919" lon="6.56875">
        <ele>1849.8000488281</ele>
        <time>2020-08-13T10:47:54.000Z</time>
      </trkpt>
      <trkpt lat="44.29917" lon="6.5688">
        <ele>1850.1999511719</ele>
        <time>2020-08-13T10:47:56.000Z</time>
      </trkpt>
      <trkpt lat="44.29914" lon="6.56887">
        <ele>1850.8000488281</ele>
        <time>2020-08-13T10:47:59.000Z</time>
      </trkpt>
      <trkpt lat="44.29902" lon="6.56904">
        <ele>1851.5999755859</ele>
        <time>2020-08-13T10:48:07.000Z</time>
      </trkpt>
      <trkpt lat="44.29899" lon="6.56907">
        <ele>1851.8000488281</ele>
        <time>2020-08-13T10:48:09.000Z</time>
      </trkpt>
      <trkpt lat="44.29887" lon="6.56922">
        <ele>1853</ele>
        <time>2020-08-13T10:48:17.000Z</time>
      </trkpt>
      <trkpt lat="44.2988" lon="6.56934">
        <ele>1854.1999511719</ele>
        <time>2020-08-13T10:48:23.000Z</time>
      </trkpt>
      <trkpt lat="44.29875" lon="6.56943">
        <ele>1855</ele>
        <time>2020-08-13T10:48:27.000Z</time>
      </trkpt>
      <trkpt lat="44.29872" lon="6.56947">
        <ele>1855.1999511719</ele>
        <time>2020-08-13T10:48:29.000Z</time>
      </trkpt>
      <trkpt lat="44.29863" lon="6.56958">
        <ele>1855.4000244141</ele>
        <time>2020-08-13T10:48:35.000Z</time>
      </trkpt>
      <trkpt lat="44.29855" lon="6.56966">
        <ele>1856.4000244141</ele>
        <time>2020-08-13T10:48:40.000Z</time>
      </trkpt>
      <trkpt lat="44.29848" lon="6.56977">
        <ele>1857.4000244141</ele>
        <time>2020-08-13T10:48:45.000Z</time>
      </trkpt>
      <trkpt lat="44.29848" lon="6.56979">
        <ele>1857.5999755859</ele>
        <time>2020-08-13T10:48:46.000Z</time>
      </trkpt>
      <trkpt lat="44.29844" lon="6.56995">
        <ele>1858.5999755859</ele>
        <time>2020-08-13T10:48:52.000Z</time>
      </trkpt>
      <trkpt lat="44.29844" lon="6.56997">
        <ele>1858.8000488281</ele>
        <time>2020-08-13T10:48:53.000Z</time>
      </trkpt>
      <trkpt lat="44.29842" lon="6.57015">
        <ele>1859.5999755859</ele>
        <time>2020-08-13T10:48:59.000Z</time>
      </trkpt>
      <trkpt lat="44.29838" lon="6.57025">
        <ele>1860.1999511719</ele>
        <time>2020-08-13T10:49:03.000Z</time>
      </trkpt>
      <trkpt lat="44.29833" lon="6.57034">
        <ele>1861</ele>
        <time>2020-08-13T10:49:07.000Z</time>
      </trkpt>
      <trkpt lat="44.29832" lon="6.57039">
        <ele>1861.1999511719</ele>
        <time>2020-08-13T10:49:09.000Z</time>
      </trkpt>
      <trkpt lat="44.29829" lon="6.57053">
        <ele>1862</ele>
        <time>2020-08-13T10:49:14.000Z</time>
      </trkpt>
      <trkpt lat="44.29826" lon="6.57067">
        <ele>1863.1999511719</ele>
        <time>2020-08-13T10:49:19.000Z</time>
      </trkpt>
      <trkpt lat="44.29821" lon="6.57083">
        <ele>1864.4000244141</ele>
        <time>2020-08-13T10:49:25.000Z</time>
      </trkpt>
      <trkpt lat="44.29818" lon="6.57094">
        <ele>1864.5999755859</ele>
        <time>2020-08-13T10:49:29.000Z</time>
      </trkpt>
      <trkpt lat="44.29812" lon="6.57105">
        <ele>1865.5999755859</ele>
        <time>2020-08-13T10:49:34.000Z</time>
      </trkpt>
      <trkpt lat="44.29808" lon="6.57118">
        <ele>1866.5999755859</ele>
        <time>2020-08-13T10:49:39.000Z</time>
      </trkpt>
      <trkpt lat="44.298" lon="6.57144">
        <ele>1867.8000488281</ele>
        <time>2020-08-13T10:49:49.000Z</time>
      </trkpt>
      <trkpt lat="44.29796" lon="6.57158">
        <ele>1868.8000488281</ele>
        <time>2020-08-13T10:49:55.000Z</time>
      </trkpt>
      <trkpt lat="44.29795" lon="6.57161">
        <ele>1869</ele>
        <time>2020-08-13T10:49:56.000Z</time>
      </trkpt>
      <trkpt lat="44.2979" lon="6.57178">
        <ele>1869.8000488281</ele>
        <time>2020-08-13T10:50:03.000Z</time>
      </trkpt>
      <trkpt lat="44.29786" lon="6.57187">
        <ele>1870.5999755859</ele>
        <time>2020-08-13T10:50:07.000Z</time>
      </trkpt>
      <trkpt lat="44.29785" lon="6.57191">
        <ele>1871</ele>
        <time>2020-08-13T10:50:09.000Z</time>
      </trkpt>
      <trkpt lat="44.29784" lon="6.57202">
        <ele>1871.8000488281</ele>
        <time>2020-08-13T10:50:14.000Z</time>
      </trkpt>
      <trkpt lat="44.29784" lon="6.57207">
        <ele>1872</ele>
        <time>2020-08-13T10:50:16.000Z</time>
      </trkpt>
      <trkpt lat="44.29782" lon="6.57214">
        <ele>1872.5999755859</ele>
        <time>2020-08-13T10:50:19.000Z</time>
      </trkpt>
      <trkpt lat="44.29782" lon="6.57217">
        <ele>1872.8000488281</ele>
        <time>2020-08-13T10:50:20.000Z</time>
      </trkpt>
      <trkpt lat="44.2978" lon="6.57227">
        <ele>1873.1999511719</ele>
        <time>2020-08-13T10:50:24.000Z</time>
      </trkpt>
      <trkpt lat="44.29778" lon="6.57232">
        <ele>1873.4000244141</ele>
        <time>2020-08-13T10:50:26.000Z</time>
      </trkpt>
      <trkpt lat="44.29772" lon="6.57239">
        <ele>1874.1999511719</ele>
        <time>2020-08-13T10:50:30.000Z</time>
      </trkpt>
      <trkpt lat="44.29768" lon="6.57241">
        <ele>1874.5999755859</ele>
        <time>2020-08-13T10:50:32.000Z</time>
      </trkpt>
      <trkpt lat="44.29758" lon="6.57244">
        <ele>1875.4000244141</ele>
        <time>2020-08-13T10:50:37.000Z</time>
      </trkpt>
      <trkpt lat="44.29754" lon="6.57245">
        <ele>1875.8000488281</ele>
        <time>2020-08-13T10:50:39.000Z</time>
      </trkpt>
      <trkpt lat="44.29746" lon="6.57246">
        <ele>1876.4000244141</ele>
        <time>2020-08-13T10:50:43.000Z</time>
      </trkpt>
      <trkpt lat="44.29741" lon="6.57248">
        <ele>1876.8000488281</ele>
        <time>2020-08-13T10:50:46.000Z</time>
      </trkpt>
      <trkpt lat="44.29733" lon="6.57252">
        <ele>1877.5999755859</ele>
        <time>2020-08-13T10:50:50.000Z</time>
      </trkpt>
      <trkpt lat="44.2973" lon="6.57255">
        <ele>1877.8000488281</ele>
        <time>2020-08-13T10:50:52.000Z</time>
      </trkpt>
      <trkpt lat="44.29728" lon="6.57267">
        <ele>1878.4000244141</ele>
        <time>2020-08-13T10:50:57.000Z</time>
      </trkpt>
      <trkpt lat="44.29729" lon="6.5727">
        <ele>1878.5999755859</ele>
        <time>2020-08-13T10:50:58.000Z</time>
      </trkpt>
      <trkpt lat="44.29736" lon="6.57276">
        <ele>1879</ele>
        <time>2020-08-13T10:51:02.000Z</time>
      </trkpt>
      <trkpt lat="44.29748" lon="6.57273">
        <ele>1879.5999755859</ele>
        <time>2020-08-13T10:51:08.000Z</time>
      </trkpt>
      <trkpt lat="44.29752" lon="6.57272">
        <ele>1879.8000488281</ele>
        <time>2020-08-13T10:51:10.000Z</time>
      </trkpt>
      <trkpt lat="44.29766" lon="6.57269">
        <ele>1881</ele>
        <time>2020-08-13T10:51:17.000Z</time>
      </trkpt>
      <trkpt lat="44.29781" lon="6.57265">
        <ele>1882</ele>
        <time>2020-08-13T10:51:25.000Z</time>
      </trkpt>
      <trkpt lat="44.29792" lon="6.57264">
        <ele>1882.5999755859</ele>
        <time>2020-08-13T10:51:30.000Z</time>
      </trkpt>
      <trkpt lat="44.29796" lon="6.57266">
        <ele>1883</ele>
        <time>2020-08-13T10:51:32.000Z</time>
      </trkpt>
      <trkpt lat="44.29797" lon="6.57275">
        <ele>1883.8000488281</ele>
        <time>2020-08-13T10:51:35.000Z</time>
      </trkpt>
      <trkpt lat="44.29794" lon="6.57279">
        <ele>1884.1999511719</ele>
        <time>2020-08-13T10:51:37.000Z</time>
      </trkpt>
      <trkpt lat="44.29789" lon="6.57284">
        <ele>1884.8000488281</ele>
        <time>2020-08-13T10:51:40.000Z</time>
      </trkpt>
      <trkpt lat="44.2978" lon="6.57287">
        <ele>1885.1999511719</ele>
        <time>2020-08-13T10:51:45.000Z</time>
      </trkpt>
      <trkpt lat="44.29773" lon="6.57288">
        <ele>1885.8000488281</ele>
        <time>2020-08-13T10:51:49.000Z</time>
      </trkpt>
      <trkpt lat="44.29769" lon="6.57288">
        <ele>1886.4000244141</ele>
        <time>2020-08-13T10:51:51.000Z</time>
      </trkpt>
      <trkpt lat="44.29758" lon="6.57288">
        <ele>1887.1999511719</ele>
        <time>2020-08-13T10:51:57.000Z</time>
      </trkpt>
      <trkpt lat="44.29753" lon="6.57292">
        <ele>1887.4000244141</ele>
        <time>2020-08-13T10:52:00.000Z</time>
      </trkpt>
      <trkpt lat="44.29748" lon="6.57299">
        <ele>1888</ele>
        <time>2020-08-13T10:52:04.000Z</time>
      </trkpt>
      <trkpt lat="44.29747" lon="6.57312">
        <ele>1888.5999755859</ele>
        <time>2020-08-13T10:52:10.000Z</time>
      </trkpt>
      <trkpt lat="44.29746" lon="6.57313">
        <ele>1888.8000488281</ele>
        <time>2020-08-13T10:52:14.000Z</time>
      </trkpt>
      <trkpt lat="44.29745" lon="6.57314">
        <ele>1889</ele>
        <time>2020-08-13T10:52:21.000Z</time>
      </trkpt>
      <trkpt lat="44.29744" lon="6.57314">
        <ele>1888.8000488281</ele>
        <time>2020-08-13T10:52:45.000Z</time>
      </trkpt>
      <trkpt lat="44.29745" lon="6.57313">
        <ele>1888.8000488281</ele>
        <time>2020-08-13T10:52:55.000Z</time>
      </trkpt>
      <trkpt lat="44.29746" lon="6.57313">
        <ele>1888.8000488281</ele>
        <time>2020-08-13T10:53:01.000Z</time>
      </trkpt>
      <trkpt lat="44.29746" lon="6.57312">
        <ele>1889</ele>
        <time>2020-08-13T10:53:09.000Z</time>
      </trkpt>
      <trkpt lat="44.29746" lon="6.57312">
        <ele>1889</ele>
        <time>2020-08-13T10:53:17.000Z</time>
      </trkpt>
      <trkpt lat="44.29746" lon="6.57312">
        <ele>1889.1999511719</ele>
        <time>2020-08-13T10:53:23.000Z</time>
      </trkpt>
      <trkpt lat="44.29746" lon="6.57312">
        <ele>1888.8000488281</ele>
        <time>2020-08-13T10:53:30.000Z</time>
      </trkpt>
      <trkpt lat="44.29747" lon="6.57312">
        <ele>1889</ele>
        <time>2020-08-13T10:53:36.000Z</time>
      </trkpt>
      <trkpt lat="44.29748" lon="6.57313">
        <ele>1889</ele>
        <time>2020-08-13T10:53:38.000Z</time>
      </trkpt>
      <trkpt lat="44.29751" lon="6.57315">
        <ele>1889.1999511719</ele>
        <time>2020-08-13T10:53:41.000Z</time>
      </trkpt>
      <trkpt lat="44.29762" lon="6.57316">
        <ele>1889.5999755859</ele>
        <time>2020-08-13T10:53:47.000Z</time>
      </trkpt>
      <trkpt lat="44.2978" lon="6.57315">
        <ele>1890.1999511719</ele>
        <time>2020-08-13T10:53:55.000Z</time>
      </trkpt>
      <trkpt lat="44.29784" lon="6.57315">
        <ele>1890.8000488281</ele>
        <time>2020-08-13T10:53:57.000Z</time>
      </trkpt>
      <trkpt lat="44.29795" lon="6.57315">
        <ele>1891.5999755859</ele>
        <time>2020-08-13T10:54:02.000Z</time>
      </trkpt>
      <trkpt lat="44.29799" lon="6.57314">
        <ele>1891.8000488281</ele>
        <time>2020-08-13T10:54:04.000Z</time>
      </trkpt>
      <trkpt lat="44.29811" lon="6.57308">
        <ele>1892.5999755859</ele>
        <time>2020-08-13T10:54:10.000Z</time>
      </trkpt>
      <trkpt lat="44.29815" lon="6.57305">
        <ele>1893</ele>
        <time>2020-08-13T10:54:12.000Z</time>
      </trkpt>
      <trkpt lat="44.29824" lon="6.57298">
        <ele>1894</ele>
        <time>2020-08-13T10:54:17.000Z</time>
      </trkpt>
      <trkpt lat="44.29825" lon="6.57296">
        <ele>1894.1999511719</ele>
        <time>2020-08-13T10:54:18.000Z</time>
      </trkpt>
      <trkpt lat="44.29831" lon="6.57279">
        <ele>1895</ele>
        <time>2020-08-13T10:54:25.000Z</time>
      </trkpt>
      <trkpt lat="44.29836" lon="6.57262">
        <ele>1895.8000488281</ele>
        <time>2020-08-13T10:54:32.000Z</time>
      </trkpt>
      <trkpt lat="44.29838" lon="6.57262">
        <ele>1895.8000488281</ele>
        <time>2020-08-13T10:54:33.000Z</time>
      </trkpt>
      <trkpt lat="44.29842" lon="6.57263">
        <ele>1896.1999511719</ele>
        <time>2020-08-13T10:54:35.000Z</time>
      </trkpt>
      <trkpt lat="44.29844" lon="6.57265">
        <ele>1896.4000244141</ele>
        <time>2020-08-13T10:54:36.000Z</time>
      </trkpt>
      <trkpt lat="44.29845" lon="6.5728">
        <ele>1897</ele>
        <time>2020-08-13T10:54:41.000Z</time>
      </trkpt>
      <trkpt lat="44.29843" lon="6.57284">
        <ele>1897.1999511719</ele>
        <time>2020-08-13T10:54:43.000Z</time>
      </trkpt>
      <trkpt lat="44.2984" lon="6.57294">
        <ele>1897.8000488281</ele>
        <time>2020-08-13T10:54:47.000Z</time>
      </trkpt>
      <trkpt lat="44.29837" lon="6.57301">
        <ele>1898.1999511719</ele>
        <time>2020-08-13T10:54:50.000Z</time>
      </trkpt>
      <trkpt lat="44.29834" lon="6.5731">
        <ele>1898.8000488281</ele>
        <time>2020-08-13T10:54:54.000Z</time>
      </trkpt>
      <trkpt lat="44.29831" lon="6.57315">
        <ele>1899.1999511719</ele>
        <time>2020-08-13T10:54:56.000Z</time>
      </trkpt>
      <trkpt lat="44.29825" lon="6.57328">
        <ele>1900.1999511719</ele>
        <time>2020-08-13T10:55:02.000Z</time>
      </trkpt>
      <trkpt lat="44.29824" lon="6.57332">
        <ele>1900.4000244141</ele>
        <time>2020-08-13T10:55:04.000Z</time>
      </trkpt>
      <trkpt lat="44.29817" lon="6.57341">
        <ele>1901.1999511719</ele>
        <time>2020-08-13T10:55:09.000Z</time>
      </trkpt>
      <trkpt lat="44.29814" lon="6.57345">
        <ele>1901.5999755859</ele>
        <time>2020-08-13T10:55:11.000Z</time>
      </trkpt>
      <trkpt lat="44.29805" lon="6.57349">
        <ele>1902.4000244141</ele>
        <time>2020-08-13T10:55:16.000Z</time>
      </trkpt>
      <trkpt lat="44.29803" lon="6.5735">
        <ele>1902.5999755859</ele>
        <time>2020-08-13T10:55:17.000Z</time>
      </trkpt>
      <trkpt lat="44.29791" lon="6.57357">
        <ele>1903.5999755859</ele>
        <time>2020-08-13T10:55:24.000Z</time>
      </trkpt>
      <trkpt lat="44.2979" lon="6.57358">
        <ele>1904</ele>
        <time>2020-08-13T10:55:25.000Z</time>
      </trkpt>
      <trkpt lat="44.29789" lon="6.5736">
        <ele>1904.1999511719</ele>
        <time>2020-08-13T10:55:26.000Z</time>
      </trkpt>
      <trkpt lat="44.29787" lon="6.57368">
        <ele>1904.8000488281</ele>
        <time>2020-08-13T10:55:29.000Z</time>
      </trkpt>
      <trkpt lat="44.29787" lon="6.57371">
        <ele>1905</ele>
        <time>2020-08-13T10:55:30.000Z</time>
      </trkpt>
      <trkpt lat="44.29789" lon="6.57396">
        <ele>1905.5999755859</ele>
        <time>2020-08-13T10:55:39.000Z</time>
      </trkpt>
      <trkpt lat="44.2979" lon="6.57401">
        <ele>1906</ele>
        <time>2020-08-13T10:55:41.000Z</time>
      </trkpt>
      <trkpt lat="44.29795" lon="6.57416">
        <ele>1907</ele>
        <time>2020-08-13T10:55:47.000Z</time>
      </trkpt>
      <trkpt lat="44.29798" lon="6.5742">
        <ele>1907.1999511719</ele>
        <time>2020-08-13T10:55:49.000Z</time>
      </trkpt>
      <trkpt lat="44.29808" lon="6.57438">
        <ele>1908</ele>
        <time>2020-08-13T10:55:57.000Z</time>
      </trkpt>
      <trkpt lat="44.29809" lon="6.57443">
        <ele>1908.4000244141</ele>
        <time>2020-08-13T10:55:59.000Z</time>
      </trkpt>
      <trkpt lat="44.29811" lon="6.57453">
        <ele>1909.1999511719</ele>
        <time>2020-08-13T10:56:03.000Z</time>
      </trkpt>
      <trkpt lat="44.29813" lon="6.57461">
        <ele>1909.5999755859</ele>
        <time>2020-08-13T10:56:06.000Z</time>
      </trkpt>
      <trkpt lat="44.29818" lon="6.57473">
        <ele>1910.4000244141</ele>
        <time>2020-08-13T10:56:11.000Z</time>
      </trkpt>
      <trkpt lat="44.29822" lon="6.57482">
        <ele>1910.8000488281</ele>
        <time>2020-08-13T10:56:15.000Z</time>
      </trkpt>
      <trkpt lat="44.29825" lon="6.57489">
        <ele>1911.4000244141</ele>
        <time>2020-08-13T10:56:18.000Z</time>
      </trkpt>
      <trkpt lat="44.29827" lon="6.57502">
        <ele>1912.1999511719</ele>
        <time>2020-08-13T10:56:23.000Z</time>
      </trkpt>
      <trkpt lat="44.29827" lon="6.57505">
        <ele>1912.4000244141</ele>
        <time>2020-08-13T10:56:24.000Z</time>
      </trkpt>
      <trkpt lat="44.29823" lon="6.57528">
        <ele>1913.4000244141</ele>
        <time>2020-08-13T10:56:32.000Z</time>
      </trkpt>
      <trkpt lat="44.29822" lon="6.5753">
        <ele>1913.4000244141</ele>
        <time>2020-08-13T10:56:33.000Z</time>
      </trkpt>
      <trkpt lat="44.29818" lon="6.57546">
        <ele>1914.4000244141</ele>
        <time>2020-08-13T10:56:39.000Z</time>
      </trkpt>
      <trkpt lat="44.29817" lon="6.57549">
        <ele>1914.5999755859</ele>
        <time>2020-08-13T10:56:40.000Z</time>
      </trkpt>
      <trkpt lat="44.29815" lon="6.57576">
        <ele>1915.4000244141</ele>
        <time>2020-08-13T10:56:49.000Z</time>
      </trkpt>
      <trkpt lat="44.29814" lon="6.57579">
        <ele>1915.5999755859</ele>
        <time>2020-08-13T10:56:50.000Z</time>
      </trkpt>
      <trkpt lat="44.29813" lon="6.576">
        <ele>1916.5999755859</ele>
        <time>2020-08-13T10:56:58.000Z</time>
      </trkpt>
      <trkpt lat="44.29812" lon="6.57606">
        <ele>1917</ele>
        <time>2020-08-13T10:57:00.000Z</time>
      </trkpt>
      <trkpt lat="44.2981" lon="6.57619">
        <ele>1917.8000488281</ele>
        <time>2020-08-13T10:57:05.000Z</time>
      </trkpt>
      <trkpt lat="44.29808" lon="6.57627">
        <ele>1918.4000244141</ele>
        <time>2020-08-13T10:57:08.000Z</time>
      </trkpt>
      <trkpt lat="44.29806" lon="6.57634">
        <ele>1919</ele>
        <time>2020-08-13T10:57:11.000Z</time>
      </trkpt>
      <trkpt lat="44.29803" lon="6.57644">
        <ele>1920</ele>
        <time>2020-08-13T10:57:15.000Z</time>
      </trkpt>
      <trkpt lat="44.29802" lon="6.57648">
        <ele>1920.5999755859</ele>
        <time>2020-08-13T10:57:17.000Z</time>
      </trkpt>
      <trkpt lat="44.29801" lon="6.57656">
        <ele>1921.1999511719</ele>
        <time>2020-08-13T10:57:20.000Z</time>
      </trkpt>
      <trkpt lat="44.29796" lon="6.57676">
        <ele>1922</ele>
        <time>2020-08-13T10:57:28.000Z</time>
      </trkpt>
      <trkpt lat="44.29796" lon="6.57679">
        <ele>1922.1999511719</ele>
        <time>2020-08-13T10:57:29.000Z</time>
      </trkpt>
      <trkpt lat="44.29796" lon="6.57704">
        <ele>1923.1999511719</ele>
        <time>2020-08-13T10:57:38.000Z</time>
      </trkpt>
      <trkpt lat="44.29797" lon="6.57706">
        <ele>1923.1999511719</ele>
        <time>2020-08-13T10:57:39.000Z</time>
      </trkpt>
      <trkpt lat="44.29804" lon="6.5771">
        <ele>1923.5999755859</ele>
        <time>2020-08-13T10:57:43.000Z</time>
      </trkpt>
      <trkpt lat="44.29811" lon="6.57707">
        <ele>1924.1999511719</ele>
        <time>2020-08-13T10:57:47.000Z</time>
      </trkpt>
      <trkpt lat="44.29812" lon="6.57705">
        <ele>1924.1999511719</ele>
        <time>2020-08-13T10:57:48.000Z</time>
      </trkpt>
      <trkpt lat="44.29816" lon="6.57686">
        <ele>1925.1999511719</ele>
        <time>2020-08-13T10:57:55.000Z</time>
      </trkpt>
      <trkpt lat="44.29816" lon="6.57683">
        <ele>1925.4000244141</ele>
        <time>2020-08-13T10:57:56.000Z</time>
      </trkpt>
      <trkpt lat="44.29816" lon="6.57659">
        <ele>1926.1999511719</ele>
        <time>2020-08-13T10:58:05.000Z</time>
      </trkpt>
      <trkpt lat="44.29816" lon="6.57654">
        <ele>1926.8000488281</ele>
        <time>2020-08-13T10:58:07.000Z</time>
      </trkpt>
      <trkpt lat="44.29821" lon="6.57643">
        <ele>1927.4000244141</ele>
        <time>2020-08-13T10:58:12.000Z</time>
      </trkpt>
      <trkpt lat="44.29825" lon="6.57635">
        <ele>1927.8000488281</ele>
        <time>2020-08-13T10:58:16.000Z</time>
      </trkpt>
      <trkpt lat="44.2983" lon="6.57626">
        <ele>1928.4000244141</ele>
        <time>2020-08-13T10:58:21.000Z</time>
      </trkpt>
      <trkpt lat="44.29833" lon="6.57623">
        <ele>1928.8000488281</ele>
        <time>2020-08-13T10:58:23.000Z</time>
      </trkpt>
      <trkpt lat="44.2984" lon="6.57611">
        <ele>1929.5999755859</ele>
        <time>2020-08-13T10:58:29.000Z</time>
      </trkpt>
      <trkpt lat="44.29843" lon="6.57607">
        <ele>1930</ele>
        <time>2020-08-13T10:58:31.000Z</time>
      </trkpt>
      <trkpt lat="44.2985" lon="6.57592">
        <ele>1931</ele>
        <time>2020-08-13T10:58:38.000Z</time>
      </trkpt>
      <trkpt lat="44.29855" lon="6.57578">
        <ele>1932.1999511719</ele>
        <time>2020-08-13T10:58:44.000Z</time>
      </trkpt>
      <trkpt lat="44.29858" lon="6.57568">
        <ele>1932.8000488281</ele>
        <time>2020-08-13T10:58:48.000Z</time>
      </trkpt>
      <trkpt lat="44.29858" lon="6.57565">
        <ele>1933.1999511719</ele>
        <time>2020-08-13T10:58:49.000Z</time>
      </trkpt>
      <trkpt lat="44.29862" lon="6.5755">
        <ele>1934.1999511719</ele>
        <time>2020-08-13T10:58:55.000Z</time>
      </trkpt>
      <trkpt lat="44.29863" lon="6.57545">
        <ele>1934.5999755859</ele>
        <time>2020-08-13T10:58:57.000Z</time>
      </trkpt>
      <trkpt lat="44.29867" lon="6.57531">
        <ele>1935.1999511719</ele>
        <time>2020-08-13T10:59:02.000Z</time>
      </trkpt>
      <trkpt lat="44.29869" lon="6.57518">
        <ele>1935.8000488281</ele>
        <time>2020-08-13T10:59:07.000Z</time>
      </trkpt>
      <trkpt lat="44.2987" lon="6.5751">
        <ele>1936.4000244141</ele>
        <time>2020-08-13T10:59:10.000Z</time>
      </trkpt>
      <trkpt lat="44.29871" lon="6.57494">
        <ele>1937.4000244141</ele>
        <time>2020-08-13T10:59:16.000Z</time>
      </trkpt>
      <trkpt lat="44.29871" lon="6.57491">
        <ele>1937.4000244141</ele>
        <time>2020-08-13T10:59:17.000Z</time>
      </trkpt>
      <trkpt lat="44.29872" lon="6.57475">
        <ele>1938.4000244141</ele>
        <time>2020-08-13T10:59:23.000Z</time>
      </trkpt>
      <trkpt lat="44.29873" lon="6.57468">
        <ele>1938.8000488281</ele>
        <time>2020-08-13T10:59:26.000Z</time>
      </trkpt>
      <trkpt lat="44.29874" lon="6.57458">
        <ele>1939.4000244141</ele>
        <time>2020-08-13T10:59:30.000Z</time>
      </trkpt>
      <trkpt lat="44.29878" lon="6.57441">
        <ele>1940.4000244141</ele>
        <time>2020-08-13T10:59:37.000Z</time>
      </trkpt>
      <trkpt lat="44.29884" lon="6.57426">
        <ele>1941.5999755859</ele>
        <time>2020-08-13T10:59:44.000Z</time>
      </trkpt>
      <trkpt lat="44.29886" lon="6.57424">
        <ele>1941.5999755859</ele>
        <time>2020-08-13T10:59:45.000Z</time>
      </trkpt>
      <trkpt lat="44.29893" lon="6.5743">
        <ele>1942</ele>
        <time>2020-08-13T10:59:49.000Z</time>
      </trkpt>
      <trkpt lat="44.29892" lon="6.5744">
        <ele>1942.5999755859</ele>
        <time>2020-08-13T10:59:53.000Z</time>
      </trkpt>
      <trkpt lat="44.29891" lon="6.57443">
        <ele>1943</ele>
        <time>2020-08-13T10:59:54.000Z</time>
      </trkpt>
      <trkpt lat="44.29887" lon="6.57455">
        <ele>1943.8000488281</ele>
        <time>2020-08-13T10:59:59.000Z</time>
      </trkpt>
      <trkpt lat="44.29887" lon="6.57458">
        <ele>1943.8000488281</ele>
        <time>2020-08-13T11:00:00.000Z</time>
      </trkpt>
      <trkpt lat="44.29887" lon="6.57477">
        <ele>1944.5999755859</ele>
        <time>2020-08-13T11:00:07.000Z</time>
      </trkpt>
      <trkpt lat="44.29888" lon="6.5748">
        <ele>1944.8000488281</ele>
        <time>2020-08-13T11:00:08.000Z</time>
      </trkpt>
      <trkpt lat="44.29892" lon="6.57498">
        <ele>1946</ele>
        <time>2020-08-13T11:00:15.000Z</time>
      </trkpt>
      <trkpt lat="44.29895" lon="6.5752">
        <ele>1947</ele>
        <time>2020-08-13T11:00:23.000Z</time>
      </trkpt>
      <trkpt lat="44.29896" lon="6.57526">
        <ele>1947.1999511719</ele>
        <time>2020-08-13T11:00:25.000Z</time>
      </trkpt>
      <trkpt lat="44.29898" lon="6.57539">
        <ele>1948</ele>
        <time>2020-08-13T11:00:30.000Z</time>
      </trkpt>
      <trkpt lat="44.29899" lon="6.57546">
        <ele>1948.5999755859</ele>
        <time>2020-08-13T11:00:33.000Z</time>
      </trkpt>
      <trkpt lat="44.29901" lon="6.57554">
        <ele>1949.1999511719</ele>
        <time>2020-08-13T11:00:36.000Z</time>
      </trkpt>
      <trkpt lat="44.29902" lon="6.57569">
        <ele>1950</ele>
        <time>2020-08-13T11:00:42.000Z</time>
      </trkpt>
      <trkpt lat="44.29903" lon="6.57572">
        <ele>1950.1999511719</ele>
        <time>2020-08-13T11:00:43.000Z</time>
      </trkpt>
      <trkpt lat="44.29904" lon="6.57589">
        <ele>1951.4000244141</ele>
        <time>2020-08-13T11:00:50.000Z</time>
      </trkpt>
      <trkpt lat="44.29905" lon="6.57601">
        <ele>1952.4000244141</ele>
        <time>2020-08-13T11:00:55.000Z</time>
      </trkpt>
      <trkpt lat="44.29905" lon="6.57614">
        <ele>1953.1999511719</ele>
        <time>2020-08-13T11:01:00.000Z</time>
      </trkpt>
      <trkpt lat="44.29905" lon="6.57618">
        <ele>1953.4000244141</ele>
        <time>2020-08-13T11:01:02.000Z</time>
      </trkpt>
      <trkpt lat="44.29906" lon="6.57634">
        <ele>1954.4000244141</ele>
        <time>2020-08-13T11:01:08.000Z</time>
      </trkpt>
      <trkpt lat="44.29906" lon="6.57637">
        <ele>1954.5999755859</ele>
        <time>2020-08-13T11:01:09.000Z</time>
      </trkpt>
      <trkpt lat="44.29904" lon="6.57662">
        <ele>1955.5999755859</ele>
        <time>2020-08-13T11:01:18.000Z</time>
      </trkpt>
      <trkpt lat="44.29905" lon="6.57683">
        <ele>1956.4000244141</ele>
        <time>2020-08-13T11:01:25.000Z</time>
      </trkpt>
      <trkpt lat="44.29907" lon="6.57693">
        <ele>1956.8000488281</ele>
        <time>2020-08-13T11:01:29.000Z</time>
      </trkpt>
      <trkpt lat="44.29911" lon="6.57708">
        <ele>1958</ele>
        <time>2020-08-13T11:01:35.000Z</time>
      </trkpt>
      <trkpt lat="44.29913" lon="6.5772">
        <ele>1959.1999511719</ele>
        <time>2020-08-13T11:01:40.000Z</time>
      </trkpt>
      <trkpt lat="44.29913" lon="6.57728">
        <ele>1960</ele>
        <time>2020-08-13T11:01:43.000Z</time>
      </trkpt>
      <trkpt lat="44.29913" lon="6.57734">
        <ele>1960.4000244141</ele>
        <time>2020-08-13T11:01:45.000Z</time>
      </trkpt>
      <trkpt lat="44.2991" lon="6.57752">
        <ele>1961.4000244141</ele>
        <time>2020-08-13T11:01:52.000Z</time>
      </trkpt>
      <trkpt lat="44.29913" lon="6.57768">
        <ele>1962.4000244141</ele>
        <time>2020-08-13T11:01:58.000Z</time>
      </trkpt>
      <trkpt lat="44.29914" lon="6.57773">
        <ele>1962.8000488281</ele>
        <time>2020-08-13T11:02:00.000Z</time>
      </trkpt>
      <trkpt lat="44.29915" lon="6.57788">
        <ele>1963.5999755859</ele>
        <time>2020-08-13T11:02:05.000Z</time>
      </trkpt>
      <trkpt lat="44.29915" lon="6.57794">
        <ele>1964</ele>
        <time>2020-08-13T11:02:07.000Z</time>
      </trkpt>
      <trkpt lat="44.29916" lon="6.57811">
        <ele>1964.8000488281</ele>
        <time>2020-08-13T11:02:13.000Z</time>
      </trkpt>
      <trkpt lat="44.29916" lon="6.57822">
        <ele>1965.4000244141</ele>
        <time>2020-08-13T11:02:17.000Z</time>
      </trkpt>
      <trkpt lat="44.29916" lon="6.5783">
        <ele>1965.8000488281</ele>
        <time>2020-08-13T11:02:20.000Z</time>
      </trkpt>
      <trkpt lat="44.29919" lon="6.57848">
        <ele>1967</ele>
        <time>2020-08-13T11:02:27.000Z</time>
      </trkpt>
      <trkpt lat="44.29921" lon="6.57862">
        <ele>1968</ele>
        <time>2020-08-13T11:02:33.000Z</time>
      </trkpt>
      <trkpt lat="44.29922" lon="6.57867">
        <ele>1968.4000244141</ele>
        <time>2020-08-13T11:02:35.000Z</time>
      </trkpt>
      <trkpt lat="44.29924" lon="6.57876">
        <ele>1969</ele>
        <time>2020-08-13T11:02:39.000Z</time>
      </trkpt>
      <trkpt lat="44.29925" lon="6.57886">
        <ele>1969.5999755859</ele>
        <time>2020-08-13T11:02:43.000Z</time>
      </trkpt>
      <trkpt lat="44.29926" lon="6.57897">
        <ele>1970</ele>
        <time>2020-08-13T11:02:47.000Z</time>
      </trkpt>
      <trkpt lat="44.29926" lon="6.57909">
        <ele>1970.8000488281</ele>
        <time>2020-08-13T11:02:52.000Z</time>
      </trkpt>
      <trkpt lat="44.29926" lon="6.57914">
        <ele>1971</ele>
        <time>2020-08-13T11:02:54.000Z</time>
      </trkpt>
      <trkpt lat="44.29926" lon="6.57933">
        <ele>1972.1999511719</ele>
        <time>2020-08-13T11:03:01.000Z</time>
      </trkpt>
      <trkpt lat="44.29925" lon="6.57955">
        <ele>1973.1999511719</ele>
        <time>2020-08-13T11:03:08.000Z</time>
      </trkpt>
      <trkpt lat="44.29924" lon="6.57971">
        <ele>1974.4000244141</ele>
        <time>2020-08-13T11:03:13.000Z</time>
      </trkpt>
      <trkpt lat="44.29925" lon="6.57984">
        <ele>1975.1999511719</ele>
        <time>2020-08-13T11:03:17.000Z</time>
      </trkpt>
      <trkpt lat="44.29929" lon="6.57989">
        <ele>1975.1999511719</ele>
        <time>2020-08-13T11:03:19.000Z</time>
      </trkpt>
      <trkpt lat="44.29934" lon="6.57989">
        <ele>1975.4000244141</ele>
        <time>2020-08-13T11:03:21.000Z</time>
      </trkpt>
      <trkpt lat="44.29941" lon="6.5798">
        <ele>1975.4000244141</ele>
        <time>2020-08-13T11:03:25.000Z</time>
      </trkpt>
      <trkpt lat="44.29942" lon="6.57971">
        <ele>1975.5999755859</ele>
        <time>2020-08-13T11:03:28.000Z</time>
      </trkpt>
      <trkpt lat="44.29941" lon="6.57964">
        <ele>1976.1999511719</ele>
        <time>2020-08-13T11:03:30.000Z</time>
      </trkpt>
      <trkpt lat="44.29941" lon="6.57961">
        <ele>1976.4000244141</ele>
        <time>2020-08-13T11:03:31.000Z</time>
      </trkpt>
      <trkpt lat="44.2994" lon="6.57958">
        <ele>1976.8000488281</ele>
        <time>2020-08-13T11:03:32.000Z</time>
      </trkpt>
      <trkpt lat="44.29938" lon="6.57942">
        <ele>1977.8000488281</ele>
        <time>2020-08-13T11:03:37.000Z</time>
      </trkpt>
      <trkpt lat="44.29938" lon="6.57936">
        <ele>1978</ele>
        <time>2020-08-13T11:03:39.000Z</time>
      </trkpt>
      <trkpt lat="44.2994" lon="6.5792">
        <ele>1979</ele>
        <time>2020-08-13T11:03:44.000Z</time>
      </trkpt>
      <trkpt lat="44.29943" lon="6.57908">
        <ele>1979.8000488281</ele>
        <time>2020-08-13T11:03:48.000Z</time>
      </trkpt>
      <trkpt lat="44.29943" lon="6.57902">
        <ele>1980</ele>
        <time>2020-08-13T11:03:50.000Z</time>
      </trkpt>
      <trkpt lat="44.29945" lon="6.57885">
        <ele>1980.8000488281</ele>
        <time>2020-08-13T11:03:56.000Z</time>
      </trkpt>
      <trkpt lat="44.29945" lon="6.57882">
        <ele>1981</ele>
        <time>2020-08-13T11:03:57.000Z</time>
      </trkpt>
      <trkpt lat="44.29948" lon="6.57859">
        <ele>1982</ele>
        <time>2020-08-13T11:04:05.000Z</time>
      </trkpt>
      <trkpt lat="44.29951" lon="6.57841">
        <ele>1983.1999511719</ele>
        <time>2020-08-13T11:04:11.000Z</time>
      </trkpt>
      <trkpt lat="44.29954" lon="6.5783">
        <ele>1984</ele>
        <time>2020-08-13T11:04:15.000Z</time>
      </trkpt>
      <trkpt lat="44.29957" lon="6.57822">
        <ele>1984.4000244141</ele>
        <time>2020-08-13T11:04:18.000Z</time>
      </trkpt>
      <trkpt lat="44.29962" lon="6.57805">
        <ele>1985.1999511719</ele>
        <time>2020-08-13T11:04:24.000Z</time>
      </trkpt>
      <trkpt lat="44.29962" lon="6.57802">
        <ele>1985.5999755859</ele>
        <time>2020-08-13T11:04:25.000Z</time>
      </trkpt>
      <trkpt lat="44.29965" lon="6.57782">
        <ele>1986.5999755859</ele>
        <time>2020-08-13T11:04:32.000Z</time>
      </trkpt>
      <trkpt lat="44.29966" lon="6.57776">
        <ele>1986.8000488281</ele>
        <time>2020-08-13T11:04:34.000Z</time>
      </trkpt>
      <trkpt lat="44.29968" lon="6.57764">
        <ele>1987.5999755859</ele>
        <time>2020-08-13T11:04:38.000Z</time>
      </trkpt>
      <trkpt lat="44.29971" lon="6.57753">
        <ele>1988.1999511719</ele>
        <time>2020-08-13T11:04:42.000Z</time>
      </trkpt>
      <trkpt lat="44.29975" lon="6.57742">
        <ele>1988.8000488281</ele>
        <time>2020-08-13T11:04:46.000Z</time>
      </trkpt>
      <trkpt lat="44.2998" lon="6.57729">
        <ele>1990</ele>
        <time>2020-08-13T11:04:51.000Z</time>
      </trkpt>
      <trkpt lat="44.29982" lon="6.57723">
        <ele>1990.1999511719</ele>
        <time>2020-08-13T11:04:53.000Z</time>
      </trkpt>
      <trkpt lat="44.29988" lon="6.57706">
        <ele>1991</ele>
        <time>2020-08-13T11:04:59.000Z</time>
      </trkpt>
      <trkpt lat="44.2999" lon="6.57697">
        <ele>1991.1999511719</ele>
        <time>2020-08-13T11:05:02.000Z</time>
      </trkpt>
      <trkpt lat="44.29992" lon="6.57679">
        <ele>1992.1999511719</ele>
        <time>2020-08-13T11:05:08.000Z</time>
      </trkpt>
      <trkpt lat="44.29993" lon="6.5767">
        <ele>1992.8000488281</ele>
        <time>2020-08-13T11:05:11.000Z</time>
      </trkpt>
      <trkpt lat="44.29993" lon="6.57665">
        <ele>1993.1999511719</ele>
        <time>2020-08-13T11:05:13.000Z</time>
      </trkpt>
      <trkpt lat="44.29995" lon="6.57647">
        <ele>1994.4000244141</ele>
        <time>2020-08-13T11:05:19.000Z</time>
      </trkpt>
      <trkpt lat="44.29996" lon="6.5763">
        <ele>1995.4000244141</ele>
        <time>2020-08-13T11:05:25.000Z</time>
      </trkpt>
      <trkpt lat="44.29998" lon="6.57619">
        <ele>1995.8000488281</ele>
        <time>2020-08-13T11:05:29.000Z</time>
      </trkpt>
      <trkpt lat="44.30001" lon="6.57611">
        <ele>1996.4000244141</ele>
        <time>2020-08-13T11:05:32.000Z</time>
      </trkpt>
      <trkpt lat="44.30008" lon="6.57597">
        <ele>1997.4000244141</ele>
        <time>2020-08-13T11:05:38.000Z</time>
      </trkpt>
      <trkpt lat="44.30009" lon="6.57594">
        <ele>1997.5999755859</ele>
        <time>2020-08-13T11:05:39.000Z</time>
      </trkpt>
      <trkpt lat="44.30019" lon="6.57578">
        <ele>1998.5999755859</ele>
        <time>2020-08-13T11:05:46.000Z</time>
      </trkpt>
      <trkpt lat="44.30027" lon="6.57562">
        <ele>1999.5999755859</ele>
        <time>2020-08-13T11:05:53.000Z</time>
      </trkpt>
      <trkpt lat="44.30027" lon="6.57559">
        <ele>1999.8000488281</ele>
        <time>2020-08-13T11:05:54.000Z</time>
      </trkpt>
      <trkpt lat="44.30029" lon="6.57556">
        <ele>2000</ele>
        <time>2020-08-13T11:05:56.000Z</time>
      </trkpt>
      <trkpt lat="44.30033" lon="6.57557">
        <ele>2000.4000244141</ele>
        <time>2020-08-13T11:05:58.000Z</time>
      </trkpt>
      <trkpt lat="44.30039" lon="6.57569">
        <ele>2000.5999755859</ele>
        <time>2020-08-13T11:06:03.000Z</time>
      </trkpt>
      <trkpt lat="44.30038" lon="6.57576">
        <ele>2000.5999755859</ele>
        <time>2020-08-13T11:06:05.000Z</time>
      </trkpt>
      <trkpt lat="44.30035" lon="6.57582">
        <ele>2000.8000488281</ele>
        <time>2020-08-13T11:06:07.000Z</time>
      </trkpt>
      <trkpt lat="44.30027" lon="6.57594">
        <ele>2001.8000488281</ele>
        <time>2020-08-13T11:06:11.000Z</time>
      </trkpt>
      <trkpt lat="44.30024" lon="6.57599">
        <ele>2002.4000244141</ele>
        <time>2020-08-13T11:06:13.000Z</time>
      </trkpt>
      <trkpt lat="44.30019" lon="6.57606">
        <ele>2003</ele>
        <time>2020-08-13T11:06:16.000Z</time>
      </trkpt>
      <trkpt lat="44.30013" lon="6.57625">
        <ele>2004</ele>
        <time>2020-08-13T11:06:22.000Z</time>
      </trkpt>
      <trkpt lat="44.30013" lon="6.57648">
        <ele>2005.1999511719</ele>
        <time>2020-08-13T11:06:29.000Z</time>
      </trkpt>
      <trkpt lat="44.30014" lon="6.57651">
        <ele>2005.4000244141</ele>
        <time>2020-08-13T11:06:30.000Z</time>
      </trkpt>
      <trkpt lat="44.30015" lon="6.57664">
        <ele>2006.1999511719</ele>
        <time>2020-08-13T11:06:34.000Z</time>
      </trkpt>
      <trkpt lat="44.30017" lon="6.57681">
        <ele>2007</ele>
        <time>2020-08-13T11:06:39.000Z</time>
      </trkpt>
      <trkpt lat="44.30018" lon="6.57685">
        <ele>2007.1999511719</ele>
        <time>2020-08-13T11:06:40.000Z</time>
      </trkpt>
      <trkpt lat="44.3002" lon="6.57701">
        <ele>2008.5999755859</ele>
        <time>2020-08-13T11:06:44.000Z</time>
      </trkpt>
      <trkpt lat="44.3002" lon="6.57712">
        <ele>2009.4000244141</ele>
        <time>2020-08-13T11:06:47.000Z</time>
      </trkpt>
      <trkpt lat="44.3002" lon="6.57715">
        <ele>2009.8000488281</ele>
        <time>2020-08-13T11:06:48.000Z</time>
      </trkpt>
      <trkpt lat="44.30021" lon="6.57737">
        <ele>2011</ele>
        <time>2020-08-13T11:06:54.000Z</time>
      </trkpt>
      <trkpt lat="44.30022" lon="6.57748">
        <ele>2011.4000244141</ele>
        <time>2020-08-13T11:06:57.000Z</time>
      </trkpt>
      <trkpt lat="44.30024" lon="6.57758">
        <ele>2012</ele>
        <time>2020-08-13T11:07:00.000Z</time>
      </trkpt>
      <trkpt lat="44.30025" lon="6.57774">
        <ele>2013.1999511719</ele>
        <time>2020-08-13T11:07:05.000Z</time>
      </trkpt>
      <trkpt lat="44.30027" lon="6.57789">
        <ele>2014.1999511719</ele>
        <time>2020-08-13T11:07:10.000Z</time>
      </trkpt>
      <trkpt lat="44.30028" lon="6.57802">
        <ele>2014.8000488281</ele>
        <time>2020-08-13T11:07:14.000Z</time>
      </trkpt>
      <trkpt lat="44.30029" lon="6.57811">
        <ele>2015.1999511719</ele>
        <time>2020-08-13T11:07:17.000Z</time>
      </trkpt>
      <trkpt lat="44.3003" lon="6.57829">
        <ele>2016.4000244141</ele>
        <time>2020-08-13T11:07:23.000Z</time>
      </trkpt>
      <trkpt lat="44.30031" lon="6.57835">
        <ele>2016.8000488281</ele>
        <time>2020-08-13T11:07:25.000Z</time>
      </trkpt>
      <trkpt lat="44.30032" lon="6.5785">
        <ele>2017.5999755859</ele>
        <time>2020-08-13T11:07:30.000Z</time>
      </trkpt>
      <trkpt lat="44.30033" lon="6.57862">
        <ele>2018.4000244141</ele>
        <time>2020-08-13T11:07:34.000Z</time>
      </trkpt>
      <trkpt lat="44.30034" lon="6.57868">
        <ele>2018.8000488281</ele>
        <time>2020-08-13T11:07:36.000Z</time>
      </trkpt>
      <trkpt lat="44.30034" lon="6.57887">
        <ele>2019.8000488281</ele>
        <time>2020-08-13T11:07:42.000Z</time>
      </trkpt>
      <trkpt lat="44.30034" lon="6.57889">
        <ele>2020</ele>
        <time>2020-08-13T11:07:43.000Z</time>
      </trkpt>
      <trkpt lat="44.30035" lon="6.57902">
        <ele>2020.8000488281</ele>
        <time>2020-08-13T11:07:47.000Z</time>
      </trkpt>
      <trkpt lat="44.30036" lon="6.57911">
        <ele>2021.4000244141</ele>
        <time>2020-08-13T11:07:50.000Z</time>
      </trkpt>
      <trkpt lat="44.30036" lon="6.5792">
        <ele>2022</ele>
        <time>2020-08-13T11:07:53.000Z</time>
      </trkpt>
      <trkpt lat="44.30039" lon="6.57935">
        <ele>2023.1999511719</ele>
        <time>2020-08-13T11:07:58.000Z</time>
      </trkpt>
      <trkpt lat="44.3004" lon="6.57939">
        <ele>2023.4000244141</ele>
        <time>2020-08-13T11:07:59.000Z</time>
      </trkpt>
      <trkpt lat="44.30045" lon="6.57957">
        <ele>2024.1999511719</ele>
        <time>2020-08-13T11:08:05.000Z</time>
      </trkpt>
      <trkpt lat="44.30048" lon="6.57972">
        <ele>2025.4000244141</ele>
        <time>2020-08-13T11:08:10.000Z</time>
      </trkpt>
      <trkpt lat="44.30053" lon="6.57987">
        <ele>2026.4000244141</ele>
        <time>2020-08-13T11:08:15.000Z</time>
      </trkpt>
      <trkpt lat="44.30058" lon="6.58">
        <ele>2027.4000244141</ele>
        <time>2020-08-13T11:08:20.000Z</time>
      </trkpt>
      <trkpt lat="44.30059" lon="6.58003">
        <ele>2027.5999755859</ele>
        <time>2020-08-13T11:08:21.000Z</time>
      </trkpt>
      <trkpt lat="44.30069" lon="6.58019">
        <ele>2028.8000488281</ele>
        <time>2020-08-13T11:08:28.000Z</time>
      </trkpt>
      <trkpt lat="44.30071" lon="6.58022">
        <ele>2029</ele>
        <time>2020-08-13T11:08:29.000Z</time>
      </trkpt>
      <trkpt lat="44.30079" lon="6.58033">
        <ele>2029.8000488281</ele>
        <time>2020-08-13T11:08:34.000Z</time>
      </trkpt>
      <trkpt lat="44.30084" lon="6.5804">
        <ele>2030.1999511719</ele>
        <time>2020-08-13T11:08:37.000Z</time>
      </trkpt>
      <trkpt lat="44.3009" lon="6.58049">
        <ele>2030.8000488281</ele>
        <time>2020-08-13T11:08:41.000Z</time>
      </trkpt>
      <trkpt lat="44.301" lon="6.58063">
        <ele>2031.8000488281</ele>
        <time>2020-08-13T11:08:47.000Z</time>
      </trkpt>
      <trkpt lat="44.30111" lon="6.58076">
        <ele>2033</ele>
        <time>2020-08-13T11:08:53.000Z</time>
      </trkpt>
      <trkpt lat="44.30121" lon="6.58085">
        <ele>2033.8000488281</ele>
        <time>2020-08-13T11:08:58.000Z</time>
      </trkpt>
      <trkpt lat="44.30123" lon="6.58087">
        <ele>2034</ele>
        <time>2020-08-13T11:08:59.000Z</time>
      </trkpt>
      <trkpt lat="44.30135" lon="6.58098">
        <ele>2035</ele>
        <time>2020-08-13T11:09:05.000Z</time>
      </trkpt>
      <trkpt lat="44.30142" lon="6.58105">
        <ele>2035.8000488281</ele>
        <time>2020-08-13T11:09:09.000Z</time>
      </trkpt>
      <trkpt lat="44.30144" lon="6.58106">
        <ele>2036</ele>
        <time>2020-08-13T11:09:10.000Z</time>
      </trkpt>
      <trkpt lat="44.30159" lon="6.58113">
        <ele>2037.1999511719</ele>
        <time>2020-08-13T11:09:17.000Z</time>
      </trkpt>
      <trkpt lat="44.30161" lon="6.58114">
        <ele>2037.1999511719</ele>
        <time>2020-08-13T11:09:18.000Z</time>
      </trkpt>
      <trkpt lat="44.30174" lon="6.58122">
        <ele>2038</ele>
        <time>2020-08-13T11:09:25.000Z</time>
      </trkpt>
      <trkpt lat="44.30176" lon="6.58124">
        <ele>2038.1999511719</ele>
        <time>2020-08-13T11:09:26.000Z</time>
      </trkpt>
      <trkpt lat="44.30184" lon="6.58137">
        <ele>2039.4000244141</ele>
        <time>2020-08-13T11:09:32.000Z</time>
      </trkpt>
      <trkpt lat="44.30186" lon="6.58139">
        <ele>2039.4000244141</ele>
        <time>2020-08-13T11:09:33.000Z</time>
      </trkpt>
      <trkpt lat="44.30199" lon="6.5815">
        <ele>2040.5999755859</ele>
        <time>2020-08-13T11:09:40.000Z</time>
      </trkpt>
      <trkpt lat="44.30202" lon="6.58151">
        <ele>2040.8000488281</ele>
        <time>2020-08-13T11:09:41.000Z</time>
      </trkpt>
      <trkpt lat="44.3021" lon="6.58156">
        <ele>2041.5999755859</ele>
        <time>2020-08-13T11:09:45.000Z</time>
      </trkpt>
      <trkpt lat="44.30221" lon="6.5816">
        <ele>2042.4000244141</ele>
        <time>2020-08-13T11:09:50.000Z</time>
      </trkpt>
      <trkpt lat="44.30223" lon="6.58161">
        <ele>2042.8000488281</ele>
        <time>2020-08-13T11:09:51.000Z</time>
      </trkpt>
      <trkpt lat="44.30235" lon="6.58165">
        <ele>2043.8000488281</ele>
        <time>2020-08-13T11:09:57.000Z</time>
      </trkpt>
      <trkpt lat="44.30242" lon="6.58167">
        <ele>2044.1999511719</ele>
        <time>2020-08-13T11:10:00.000Z</time>
      </trkpt>
      <trkpt lat="44.30247" lon="6.58168">
        <ele>2044.8000488281</ele>
        <time>2020-08-13T11:10:03.000Z</time>
      </trkpt>
      <trkpt lat="44.30259" lon="6.58172">
        <ele>2046</ele>
        <time>2020-08-13T11:10:09.000Z</time>
      </trkpt>
      <trkpt lat="44.30273" lon="6.58184">
        <ele>2047</ele>
        <time>2020-08-13T11:10:17.000Z</time>
      </trkpt>
      <trkpt lat="44.30273" lon="6.58199">
        <ele>2048</ele>
        <time>2020-08-13T11:10:22.000Z</time>
      </trkpt>
      <trkpt lat="44.30272" lon="6.58203">
        <ele>2048</ele>
        <time>2020-08-13T11:10:23.000Z</time>
      </trkpt>
      <trkpt lat="44.30266" lon="6.58212">
        <ele>2048</ele>
        <time>2020-08-13T11:10:27.000Z</time>
      </trkpt>
      <trkpt lat="44.3025" lon="6.58217">
        <ele>2048.6000976562</ele>
        <time>2020-08-13T11:10:34.000Z</time>
      </trkpt>
      <trkpt lat="44.30237" lon="6.58222">
        <ele>2049.1999511719</ele>
        <time>2020-08-13T11:10:39.000Z</time>
      </trkpt>
      <trkpt lat="44.30229" lon="6.58227">
        <ele>2050</ele>
        <time>2020-08-13T11:10:43.000Z</time>
      </trkpt>
      <trkpt lat="44.30227" lon="6.58229">
        <ele>2050.1999511719</ele>
        <time>2020-08-13T11:10:44.000Z</time>
      </trkpt>
      <trkpt lat="44.30213" lon="6.58244">
        <ele>2051.3999023438</ele>
        <time>2020-08-13T11:10:52.000Z</time>
      </trkpt>
      <trkpt lat="44.30212" lon="6.58246">
        <ele>2051.6000976562</ele>
        <time>2020-08-13T11:10:53.000Z</time>
      </trkpt>
      <trkpt lat="44.30203" lon="6.58256">
        <ele>2052.3999023438</ele>
        <time>2020-08-13T11:10:58.000Z</time>
      </trkpt>
      <trkpt lat="44.30197" lon="6.58263">
        <ele>2053.1999511719</ele>
        <time>2020-08-13T11:11:02.000Z</time>
      </trkpt>
      <trkpt lat="44.30194" lon="6.58267">
        <ele>2053.3999023438</ele>
        <time>2020-08-13T11:11:04.000Z</time>
      </trkpt>
      <trkpt lat="44.30189" lon="6.58281">
        <ele>2054.1999511719</ele>
        <time>2020-08-13T11:11:09.000Z</time>
      </trkpt>
      <trkpt lat="44.30188" lon="6.58287">
        <ele>2054.6000976562</ele>
        <time>2020-08-13T11:11:11.000Z</time>
      </trkpt>
      <trkpt lat="44.30181" lon="6.58299">
        <ele>2055.3999023438</ele>
        <time>2020-08-13T11:11:16.000Z</time>
      </trkpt>
      <trkpt lat="44.30177" lon="6.58302">
        <ele>2055.8000488281</ele>
        <time>2020-08-13T11:11:18.000Z</time>
      </trkpt>
      <trkpt lat="44.30168" lon="6.58303">
        <ele>2056.3999023438</ele>
        <time>2020-08-13T11:11:22.000Z</time>
      </trkpt>
      <trkpt lat="44.30163" lon="6.58303">
        <ele>2056.8000488281</ele>
        <time>2020-08-13T11:11:24.000Z</time>
      </trkpt>
      <trkpt lat="44.30156" lon="6.58308">
        <ele>2057.8000488281</ele>
        <time>2020-08-13T11:11:28.000Z</time>
      </trkpt>
      <trkpt lat="44.30153" lon="6.58309">
        <ele>2058</ele>
        <time>2020-08-13T11:11:29.000Z</time>
      </trkpt>
      <trkpt lat="44.30147" lon="6.58317">
        <ele>2058.8000488281</ele>
        <time>2020-08-13T11:11:33.000Z</time>
      </trkpt>
      <trkpt lat="44.30143" lon="6.58322">
        <ele>2059.1999511719</ele>
        <time>2020-08-13T11:11:35.000Z</time>
      </trkpt>
      <trkpt lat="44.30135" lon="6.58333">
        <ele>2060</ele>
        <time>2020-08-13T11:11:40.000Z</time>
      </trkpt>
      <trkpt lat="44.30129" lon="6.58342">
        <ele>2060.8000488281</ele>
        <time>2020-08-13T11:11:44.000Z</time>
      </trkpt>
      <trkpt lat="44.30127" lon="6.58344">
        <ele>2061</ele>
        <time>2020-08-13T11:11:45.000Z</time>
      </trkpt>
      <trkpt lat="44.30118" lon="6.58355">
        <ele>2062.1999511719</ele>
        <time>2020-08-13T11:11:50.000Z</time>
      </trkpt>
      <trkpt lat="44.30109" lon="6.58364">
        <ele>2063</ele>
        <time>2020-08-13T11:11:54.000Z</time>
      </trkpt>
      <trkpt lat="44.30105" lon="6.58369">
        <ele>2063.3999023438</ele>
        <time>2020-08-13T11:11:56.000Z</time>
      </trkpt>
      <trkpt lat="44.30099" lon="6.58379">
        <ele>2064.3999023438</ele>
        <time>2020-08-13T11:12:00.000Z</time>
      </trkpt>
      <trkpt lat="44.30096" lon="6.58385">
        <ele>2064.8000488281</ele>
        <time>2020-08-13T11:12:02.000Z</time>
      </trkpt>
      <trkpt lat="44.30093" lon="6.58392">
        <ele>2065.3999023438</ele>
        <time>2020-08-13T11:12:05.000Z</time>
      </trkpt>
      <trkpt lat="44.30086" lon="6.58406">
        <ele>2066.3999023438</ele>
        <time>2020-08-13T11:12:10.000Z</time>
      </trkpt>
      <trkpt lat="44.3008" lon="6.58424">
        <ele>2067.6000976562</ele>
        <time>2020-08-13T11:12:16.000Z</time>
      </trkpt>
      <trkpt lat="44.3008" lon="6.5843">
        <ele>2068.1999511719</ele>
        <time>2020-08-13T11:12:18.000Z</time>
      </trkpt>
      <trkpt lat="44.3008" lon="6.58437">
        <ele>2068.6000976562</ele>
        <time>2020-08-13T11:12:20.000Z</time>
      </trkpt>
      <trkpt lat="44.3008" lon="6.58455">
        <ele>2069.3999023438</ele>
        <time>2020-08-13T11:12:25.000Z</time>
      </trkpt>
      <trkpt lat="44.3008" lon="6.58462">
        <ele>2069.8000488281</ele>
        <time>2020-08-13T11:12:27.000Z</time>
      </trkpt>
      <trkpt lat="44.30083" lon="6.58481">
        <ele>2070.8000488281</ele>
        <time>2020-08-13T11:12:33.000Z</time>
      </trkpt>
      <trkpt lat="44.30084" lon="6.58484">
        <ele>2071</ele>
        <time>2020-08-13T11:12:34.000Z</time>
      </trkpt>
      <trkpt lat="44.30089" lon="6.58499">
        <ele>2072</ele>
        <time>2020-08-13T11:12:39.000Z</time>
      </trkpt>
      <trkpt lat="44.3009" lon="6.58509">
        <ele>2072.6000976562</ele>
        <time>2020-08-13T11:12:42.000Z</time>
      </trkpt>
      <trkpt lat="44.3009" lon="6.58518">
        <ele>2073.1999511719</ele>
        <time>2020-08-13T11:12:45.000Z</time>
      </trkpt>
      <trkpt lat="44.30089" lon="6.58531">
        <ele>2073.8000488281</ele>
        <time>2020-08-13T11:12:49.000Z</time>
      </trkpt>
      <trkpt lat="44.30086" lon="6.58541">
        <ele>2074.1999511719</ele>
        <time>2020-08-13T11:12:52.000Z</time>
      </trkpt>
      <trkpt lat="44.3008" lon="6.58549">
        <ele>2074.8000488281</ele>
        <time>2020-08-13T11:12:55.000Z</time>
      </trkpt>
      <trkpt lat="44.30075" lon="6.58552">
        <ele>2075.1999511719</ele>
        <time>2020-08-13T11:12:57.000Z</time>
      </trkpt>
      <trkpt lat="44.30065" lon="6.58559">
        <ele>2076.1999511719</ele>
        <time>2020-08-13T11:13:02.000Z</time>
      </trkpt>
      <trkpt lat="44.30063" lon="6.58561">
        <ele>2076.6000976562</ele>
        <time>2020-08-13T11:13:03.000Z</time>
      </trkpt>
      <trkpt lat="44.30056" lon="6.58573">
        <ele>2077.1999511719</ele>
        <time>2020-08-13T11:13:08.000Z</time>
      </trkpt>
      <trkpt lat="44.30053" lon="6.58581">
        <ele>2077.6000976562</ele>
        <time>2020-08-13T11:13:11.000Z</time>
      </trkpt>
      <trkpt lat="44.30052" lon="6.58594">
        <ele>2078.3999023438</ele>
        <time>2020-08-13T11:13:15.000Z</time>
      </trkpt>
      <trkpt lat="44.30051" lon="6.586">
        <ele>2078.8000488281</ele>
        <time>2020-08-13T11:13:17.000Z</time>
      </trkpt>
      <trkpt lat="44.30046" lon="6.5861">
        <ele>2079.6000976562</ele>
        <time>2020-08-13T11:13:21.000Z</time>
      </trkpt>
      <trkpt lat="44.30042" lon="6.58613">
        <ele>2080</ele>
        <time>2020-08-13T11:13:23.000Z</time>
      </trkpt>
      <trkpt lat="44.30032" lon="6.58619">
        <ele>2080.3999023438</ele>
        <time>2020-08-13T11:13:28.000Z</time>
      </trkpt>
      <trkpt lat="44.30026" lon="6.58626">
        <ele>2081</ele>
        <time>2020-08-13T11:13:31.000Z</time>
      </trkpt>
      <trkpt lat="44.3002" lon="6.58636">
        <ele>2082.1999511719</ele>
        <time>2020-08-13T11:13:35.000Z</time>
      </trkpt>
      <trkpt lat="44.3001" lon="6.58656">
        <ele>2083.1999511719</ele>
        <time>2020-08-13T11:13:43.000Z</time>
      </trkpt>
      <trkpt lat="44.30008" lon="6.58661">
        <ele>2083.3999023438</ele>
        <time>2020-08-13T11:13:45.000Z</time>
      </trkpt>
      <trkpt lat="44.30003" lon="6.58673">
        <ele>2084.3999023438</ele>
        <time>2020-08-13T11:13:50.000Z</time>
      </trkpt>
      <trkpt lat="44.30001" lon="6.58678">
        <ele>2085</ele>
        <time>2020-08-13T11:13:52.000Z</time>
      </trkpt>
      <trkpt lat="44.29998" lon="6.58686">
        <ele>2085.6000976562</ele>
        <time>2020-08-13T11:13:55.000Z</time>
      </trkpt>
      <trkpt lat="44.29992" lon="6.58693">
        <ele>2086</ele>
        <time>2020-08-13T11:13:59.000Z</time>
      </trkpt>
      <trkpt lat="44.29984" lon="6.58698">
        <ele>2086.6000976562</ele>
        <time>2020-08-13T11:14:04.000Z</time>
      </trkpt>
      <trkpt lat="44.29982" lon="6.58699">
        <ele>2086.6000976562</ele>
        <time>2020-08-13T11:14:05.000Z</time>
      </trkpt>
      <trkpt lat="44.2997" lon="6.58707">
        <ele>2087.8000488281</ele>
        <time>2020-08-13T11:14:11.000Z</time>
      </trkpt>
      <trkpt lat="44.29969" lon="6.5871">
        <ele>2087.8000488281</ele>
        <time>2020-08-13T11:14:12.000Z</time>
      </trkpt>
      <trkpt lat="44.29957" lon="6.58723">
        <ele>2088.8000488281</ele>
        <time>2020-08-13T11:14:18.000Z</time>
      </trkpt>
      <trkpt lat="44.29955" lon="6.58725">
        <ele>2088.8000488281</ele>
        <time>2020-08-13T11:14:19.000Z</time>
      </trkpt>
      <trkpt lat="44.29942" lon="6.58738">
        <ele>2089.8000488281</ele>
        <time>2020-08-13T11:14:25.000Z</time>
      </trkpt>
      <trkpt lat="44.29936" lon="6.58745">
        <ele>2090.1999511719</ele>
        <time>2020-08-13T11:14:28.000Z</time>
      </trkpt>
      <trkpt lat="44.29922" lon="6.58749">
        <ele>2090.6000976562</ele>
        <time>2020-08-13T11:14:33.000Z</time>
      </trkpt>
      <trkpt lat="44.29913" lon="6.58749">
        <ele>2091</ele>
        <time>2020-08-13T11:14:36.000Z</time>
      </trkpt>
      <trkpt lat="44.29905" lon="6.58754">
        <ele>2091</ele>
        <time>2020-08-13T11:14:39.000Z</time>
      </trkpt>
      <trkpt lat="44.29899" lon="6.58764">
        <ele>2091.3999023438</ele>
        <time>2020-08-13T11:14:44.000Z</time>
      </trkpt>
      <trkpt lat="44.29899" lon="6.58764">
        <ele>2092</ele>
        <time>2020-08-13T11:14:49.000Z</time>
      </trkpt>
      <trkpt lat="44.299" lon="6.58764">
        <ele>2092</ele>
        <time>2020-08-13T11:14:50.000Z</time>
      </trkpt>
      <trkpt lat="44.29906" lon="6.58771">
        <ele>2092</ele>
        <time>2020-08-13T11:14:56.000Z</time>
      </trkpt>
      <trkpt lat="44.29919" lon="6.58769">
        <ele>2092.3999023438</ele>
        <time>2020-08-13T11:15:02.000Z</time>
      </trkpt>
      <trkpt lat="44.29931" lon="6.58761">
        <ele>2093</ele>
        <time>2020-08-13T11:15:08.000Z</time>
      </trkpt>
      <trkpt lat="44.29935" lon="6.58758">
        <ele>2093.1999511719</ele>
        <time>2020-08-13T11:15:10.000Z</time>
      </trkpt>
      <trkpt lat="44.29945" lon="6.58751">
        <ele>2094</ele>
        <time>2020-08-13T11:15:16.000Z</time>
      </trkpt>
      <trkpt lat="44.29949" lon="6.58749">
        <ele>2094.3999023438</ele>
        <time>2020-08-13T11:15:18.000Z</time>
      </trkpt>
      <trkpt lat="44.29956" lon="6.58744">
        <ele>2095.1999511719</ele>
        <time>2020-08-13T11:15:22.000Z</time>
      </trkpt>
      <trkpt lat="44.29967" lon="6.58738">
        <ele>2096</ele>
        <time>2020-08-13T11:15:28.000Z</time>
      </trkpt>
      <trkpt lat="44.29969" lon="6.58736">
        <ele>2096.1999511719</ele>
        <time>2020-08-13T11:15:29.000Z</time>
      </trkpt>
      <trkpt lat="44.29984" lon="6.58728">
        <ele>2097.3999023438</ele>
        <time>2020-08-13T11:15:37.000Z</time>
      </trkpt>
      <trkpt lat="44.29994" lon="6.58723">
        <ele>2098.3999023438</ele>
        <time>2020-08-13T11:15:42.000Z</time>
      </trkpt>
      <trkpt lat="44.3" lon="6.5872">
        <ele>2098.6000976562</ele>
        <time>2020-08-13T11:15:45.000Z</time>
      </trkpt>
      <trkpt lat="44.30011" lon="6.58712">
        <ele>2099.3999023438</ele>
        <time>2020-08-13T11:15:51.000Z</time>
      </trkpt>
      <trkpt lat="44.30017" lon="6.58708">
        <ele>2100.1999511719</ele>
        <time>2020-08-13T11:15:54.000Z</time>
      </trkpt>
      <trkpt lat="44.30021" lon="6.58704">
        <ele>2100.6000976562</ele>
        <time>2020-08-13T11:15:56.000Z</time>
      </trkpt>
      <trkpt lat="44.30037" lon="6.58693">
        <ele>2101.6000976562</ele>
        <time>2020-08-13T11:16:04.000Z</time>
      </trkpt>
      <trkpt lat="44.30049" lon="6.58683">
        <ele>2103</ele>
        <time>2020-08-13T11:16:10.000Z</time>
      </trkpt>
      <trkpt lat="44.30051" lon="6.58681">
        <ele>2103.1999511719</ele>
        <time>2020-08-13T11:16:11.000Z</time>
      </trkpt>
      <trkpt lat="44.3006" lon="6.58675">
        <ele>2104</ele>
        <time>2020-08-13T11:16:15.000Z</time>
      </trkpt>
      <trkpt lat="44.30072" lon="6.58673">
        <ele>2104.8000488281</ele>
        <time>2020-08-13T11:16:20.000Z</time>
      </trkpt>
      <trkpt lat="44.30074" lon="6.58673">
        <ele>2105</ele>
        <time>2020-08-13T11:16:21.000Z</time>
      </trkpt>
      <trkpt lat="44.30088" lon="6.58669">
        <ele>2106</ele>
        <time>2020-08-13T11:16:27.000Z</time>
      </trkpt>
      <trkpt lat="44.30092" lon="6.58666">
        <ele>2106.6000976562</ele>
        <time>2020-08-13T11:16:29.000Z</time>
      </trkpt>
      <trkpt lat="44.30098" lon="6.58662">
        <ele>2107.1999511719</ele>
        <time>2020-08-13T11:16:32.000Z</time>
      </trkpt>
      <trkpt lat="44.30111" lon="6.58657">
        <ele>2108</ele>
        <time>2020-08-13T11:16:38.000Z</time>
      </trkpt>
      <trkpt lat="44.30116" lon="6.58657">
        <ele>2108.3999023438</ele>
        <time>2020-08-13T11:16:40.000Z</time>
      </trkpt>
      <trkpt lat="44.30129" lon="6.58654">
        <ele>2109.3999023438</ele>
        <time>2020-08-13T11:16:46.000Z</time>
      </trkpt>
      <trkpt lat="44.30139" lon="6.58649">
        <ele>2110.6000976562</ele>
        <time>2020-08-13T11:16:51.000Z</time>
      </trkpt>
      <trkpt lat="44.30145" lon="6.58647">
        <ele>2111</ele>
        <time>2020-08-13T11:16:54.000Z</time>
      </trkpt>
      <trkpt lat="44.30152" lon="6.58644">
        <ele>2111.8000488281</ele>
        <time>2020-08-13T11:16:57.000Z</time>
      </trkpt>
      <trkpt lat="44.30161" lon="6.58634">
        <ele>2112.3999023438</ele>
        <time>2020-08-13T11:17:02.000Z</time>
      </trkpt>
      <trkpt lat="44.30164" lon="6.58629">
        <ele>2113</ele>
        <time>2020-08-13T11:17:04.000Z</time>
      </trkpt>
      <trkpt lat="44.30173" lon="6.58618">
        <ele>2114</ele>
        <time>2020-08-13T11:17:09.000Z</time>
      </trkpt>
      <trkpt lat="44.30177" lon="6.58615">
        <ele>2114.3999023438</ele>
        <time>2020-08-13T11:17:11.000Z</time>
      </trkpt>
      <trkpt lat="44.30185" lon="6.58608">
        <ele>2115</ele>
        <time>2020-08-13T11:17:15.000Z</time>
      </trkpt>
      <trkpt lat="44.30191" lon="6.58598">
        <ele>2115.6000976562</ele>
        <time>2020-08-13T11:17:19.000Z</time>
      </trkpt>
      <trkpt lat="44.30194" lon="6.58585">
        <ele>2116.1999511719</ele>
        <time>2020-08-13T11:17:23.000Z</time>
      </trkpt>
      <trkpt lat="44.30196" lon="6.58575">
        <ele>2116.6000976562</ele>
        <time>2020-08-13T11:17:26.000Z</time>
      </trkpt>
      <trkpt lat="44.30197" lon="6.58566">
        <ele>2117.3999023438</ele>
        <time>2020-08-13T11:17:29.000Z</time>
      </trkpt>
      <trkpt lat="44.30203" lon="6.58548">
        <ele>2118.1999511719</ele>
        <time>2020-08-13T11:17:35.000Z</time>
      </trkpt>
      <trkpt lat="44.30204" lon="6.58545">
        <ele>2118.3999023438</ele>
        <time>2020-08-13T11:17:36.000Z</time>
      </trkpt>
      <trkpt lat="44.30212" lon="6.58528">
        <ele>2119.6000976562</ele>
        <time>2020-08-13T11:17:42.000Z</time>
      </trkpt>
      <trkpt lat="44.30215" lon="6.58523">
        <ele>2120</ele>
        <time>2020-08-13T11:17:44.000Z</time>
      </trkpt>
      <trkpt lat="44.30217" lon="6.58517">
        <ele>2120.6000976562</ele>
        <time>2020-08-13T11:17:46.000Z</time>
      </trkpt>
      <trkpt lat="44.3022" lon="6.58501">
        <ele>2121.3999023438</ele>
        <time>2020-08-13T11:17:51.000Z</time>
      </trkpt>
      <trkpt lat="44.30222" lon="6.5849">
        <ele>2121.6000976562</ele>
        <time>2020-08-13T11:17:54.000Z</time>
      </trkpt>
      <trkpt lat="44.30228" lon="6.58474">
        <ele>2122.3999023438</ele>
        <time>2020-08-13T11:17:59.000Z</time>
      </trkpt>
      <trkpt lat="44.30231" lon="6.58472">
        <ele>2122.8000488281</ele>
        <time>2020-08-13T11:18:00.000Z</time>
      </trkpt>
      <trkpt lat="44.30237" lon="6.58472">
        <ele>2123.1999511719</ele>
        <time>2020-08-13T11:18:02.000Z</time>
      </trkpt>
      <trkpt lat="44.30239" lon="6.58473">
        <ele>2123.3999023438</ele>
        <time>2020-08-13T11:18:03.000Z</time>
      </trkpt>
      <trkpt lat="44.30244" lon="6.58487">
        <ele>2123.8000488281</ele>
        <time>2020-08-13T11:18:07.000Z</time>
      </trkpt>
      <trkpt lat="44.30243" lon="6.58495">
        <ele>2124</ele>
        <time>2020-08-13T11:18:09.000Z</time>
      </trkpt>
      <trkpt lat="44.3024" lon="6.58505">
        <ele>2124.3999023438</ele>
        <time>2020-08-13T11:18:12.000Z</time>
      </trkpt>
      <trkpt lat="44.30236" lon="6.58515">
        <ele>2125.1999511719</ele>
        <time>2020-08-13T11:18:15.000Z</time>
      </trkpt>
      <trkpt lat="44.30229" lon="6.5853">
        <ele>2126.1999511719</ele>
        <time>2020-08-13T11:18:20.000Z</time>
      </trkpt>
      <trkpt lat="44.30223" lon="6.58545">
        <ele>2127.3999023438</ele>
        <time>2020-08-13T11:18:25.000Z</time>
      </trkpt>
      <trkpt lat="44.30221" lon="6.58551">
        <ele>2127.6000976562</ele>
        <time>2020-08-13T11:18:27.000Z</time>
      </trkpt>
      <trkpt lat="44.3022" lon="6.58568">
        <ele>2128.3999023438</ele>
        <time>2020-08-13T11:18:32.000Z</time>
      </trkpt>
      <trkpt lat="44.3022" lon="6.58571">
        <ele>2128.8000488281</ele>
        <time>2020-08-13T11:18:33.000Z</time>
      </trkpt>
      <trkpt lat="44.30219" lon="6.58582">
        <ele>2129.6000976562</ele>
        <time>2020-08-13T11:18:36.000Z</time>
      </trkpt>
      <trkpt lat="44.30217" lon="6.58608">
        <ele>2130.6000976562</ele>
        <time>2020-08-13T11:18:44.000Z</time>
      </trkpt>
      <trkpt lat="44.3021" lon="6.58632">
        <ele>2131.6000976562</ele>
        <time>2020-08-13T11:18:52.000Z</time>
      </trkpt>
      <trkpt lat="44.30209" lon="6.58635">
        <ele>2132</ele>
        <time>2020-08-13T11:18:53.000Z</time>
      </trkpt>
      <trkpt lat="44.30203" lon="6.58646">
        <ele>2133</ele>
        <time>2020-08-13T11:18:57.000Z</time>
      </trkpt>
      <trkpt lat="44.30199" lon="6.58654">
        <ele>2133.1999511719</ele>
        <time>2020-08-13T11:19:00.000Z</time>
      </trkpt>
      <trkpt lat="44.30196" lon="6.58659">
        <ele>2134</ele>
        <time>2020-08-13T11:19:02.000Z</time>
      </trkpt>
      <trkpt lat="44.30187" lon="6.58673">
        <ele>2134.8000488281</ele>
        <time>2020-08-13T11:19:08.000Z</time>
      </trkpt>
      <trkpt lat="44.30184" lon="6.58678">
        <ele>2135.1999511719</ele>
        <time>2020-08-13T11:19:10.000Z</time>
      </trkpt>
      <trkpt lat="44.3017" lon="6.58695">
        <ele>2136.1999511719</ele>
        <time>2020-08-13T11:19:18.000Z</time>
      </trkpt>
      <trkpt lat="44.30154" lon="6.58709">
        <ele>2137.3999023438</ele>
        <time>2020-08-13T11:19:26.000Z</time>
      </trkpt>
      <trkpt lat="44.30153" lon="6.58711">
        <ele>2137.6000976562</ele>
        <time>2020-08-13T11:19:27.000Z</time>
      </trkpt>
      <trkpt lat="44.30141" lon="6.58721">
        <ele>2138.6000976562</ele>
        <time>2020-08-13T11:19:33.000Z</time>
      </trkpt>
      <trkpt lat="44.30139" lon="6.58721">
        <ele>2138.8000488281</ele>
        <time>2020-08-13T11:19:34.000Z</time>
      </trkpt>
      <trkpt lat="44.30123" lon="6.58728">
        <ele>2139.8000488281</ele>
        <time>2020-08-13T11:19:41.000Z</time>
      </trkpt>
      <trkpt lat="44.30117" lon="6.58738">
        <ele>2140.8000488281</ele>
        <time>2020-08-13T11:19:45.000Z</time>
      </trkpt>
      <trkpt lat="44.30113" lon="6.58741">
        <ele>2141</ele>
        <time>2020-08-13T11:19:47.000Z</time>
      </trkpt>
      <trkpt lat="44.30099" lon="6.58743">
        <ele>2141</ele>
        <time>2020-08-13T11:19:53.000Z</time>
      </trkpt>
      <trkpt lat="44.3009" lon="6.58745">
        <ele>2141.8000488281</ele>
        <time>2020-08-13T11:19:57.000Z</time>
      </trkpt>
      <trkpt lat="44.30081" lon="6.5875">
        <ele>2142.8000488281</ele>
        <time>2020-08-13T11:20:01.000Z</time>
      </trkpt>
      <trkpt lat="44.30079" lon="6.58751">
        <ele>2143</ele>
        <time>2020-08-13T11:20:02.000Z</time>
      </trkpt>
      <trkpt lat="44.30074" lon="6.58756">
        <ele>2144</ele>
        <time>2020-08-13T11:20:05.000Z</time>
      </trkpt>
      <trkpt lat="44.30068" lon="6.58765">
        <ele>2144.6000976562</ele>
        <time>2020-08-13T11:20:09.000Z</time>
      </trkpt>
      <trkpt lat="44.30065" lon="6.58768">
        <ele>2145</ele>
        <time>2020-08-13T11:20:11.000Z</time>
      </trkpt>
      <trkpt lat="44.30056" lon="6.58783">
        <ele>2146</ele>
        <time>2020-08-13T11:20:17.000Z</time>
      </trkpt>
      <trkpt lat="44.30055" lon="6.58786">
        <ele>2146.3999023438</ele>
        <time>2020-08-13T11:20:18.000Z</time>
      </trkpt>
      <trkpt lat="44.30049" lon="6.58804">
        <ele>2147.3999023438</ele>
        <time>2020-08-13T11:20:24.000Z</time>
      </trkpt>
      <trkpt lat="44.30047" lon="6.58809">
        <ele>2148</ele>
        <time>2020-08-13T11:20:26.000Z</time>
      </trkpt>
      <trkpt lat="44.30043" lon="6.58817">
        <ele>2148.3999023438</ele>
        <time>2020-08-13T11:20:29.000Z</time>
      </trkpt>
      <trkpt lat="44.30035" lon="6.58826">
        <ele>2149.6000976562</ele>
        <time>2020-08-13T11:20:34.000Z</time>
      </trkpt>
      <trkpt lat="44.30033" lon="6.58828">
        <ele>2149.6000976562</ele>
        <time>2020-08-13T11:20:35.000Z</time>
      </trkpt>
      <trkpt lat="44.30017" lon="6.58835">
        <ele>2150.8000488281</ele>
        <time>2020-08-13T11:20:43.000Z</time>
      </trkpt>
      <trkpt lat="44.30015" lon="6.58836">
        <ele>2151</ele>
        <time>2020-08-13T11:20:44.000Z</time>
      </trkpt>
      <trkpt lat="44.30005" lon="6.58846">
        <ele>2151.8000488281</ele>
        <time>2020-08-13T11:20:50.000Z</time>
      </trkpt>
      <trkpt lat="44.30003" lon="6.58851">
        <ele>2152.1999511719</ele>
        <time>2020-08-13T11:20:52.000Z</time>
      </trkpt>
      <trkpt lat="44.29995" lon="6.58866">
        <ele>2153</ele>
        <time>2020-08-13T11:20:58.000Z</time>
      </trkpt>
      <trkpt lat="44.29991" lon="6.58872">
        <ele>2153.6000976562</ele>
        <time>2020-08-13T11:21:01.000Z</time>
      </trkpt>
      <trkpt lat="44.29989" lon="6.58874">
        <ele>2154.1999511719</ele>
        <time>2020-08-13T11:21:02.000Z</time>
      </trkpt>
      <trkpt lat="44.29978" lon="6.58881">
        <ele>2154.6000976562</ele>
        <time>2020-08-13T11:21:08.000Z</time>
      </trkpt>
      <trkpt lat="44.29974" lon="6.58883">
        <ele>2155.1999511719</ele>
        <time>2020-08-13T11:21:10.000Z</time>
      </trkpt>
      <trkpt lat="44.29965" lon="6.58889">
        <ele>2156</ele>
        <time>2020-08-13T11:21:15.000Z</time>
      </trkpt>
      <trkpt lat="44.29963" lon="6.5889">
        <ele>2156.1999511719</ele>
        <time>2020-08-13T11:21:16.000Z</time>
      </trkpt>
      <trkpt lat="44.29951" lon="6.58897">
        <ele>2157.3999023438</ele>
        <time>2020-08-13T11:21:22.000Z</time>
      </trkpt>
      <trkpt lat="44.29949" lon="6.58898">
        <ele>2157.3999023438</ele>
        <time>2020-08-13T11:21:23.000Z</time>
      </trkpt>
      <trkpt lat="44.29938" lon="6.58905">
        <ele>2158.3999023438</ele>
        <time>2020-08-13T11:21:29.000Z</time>
      </trkpt>
      <trkpt lat="44.29931" lon="6.5891">
        <ele>2159.6000976562</ele>
        <time>2020-08-13T11:21:33.000Z</time>
      </trkpt>
      <trkpt lat="44.29929" lon="6.58911">
        <ele>2159.6000976562</ele>
        <time>2020-08-13T11:21:34.000Z</time>
      </trkpt>
      <trkpt lat="44.29918" lon="6.58919">
        <ele>2160.6000976562</ele>
        <time>2020-08-13T11:21:40.000Z</time>
      </trkpt>
      <trkpt lat="44.29913" lon="6.58923">
        <ele>2161.1999511719</ele>
        <time>2020-08-13T11:21:43.000Z</time>
      </trkpt>
      <trkpt lat="44.29908" lon="6.58928">
        <ele>2161.6000976562</ele>
        <time>2020-08-13T11:21:46.000Z</time>
      </trkpt>
      <trkpt lat="44.299" lon="6.58935">
        <ele>2162.6000976562</ele>
        <time>2020-08-13T11:21:51.000Z</time>
      </trkpt>
      <trkpt lat="44.29897" lon="6.58938">
        <ele>2163.1999511719</ele>
        <time>2020-08-13T11:21:53.000Z</time>
      </trkpt>
      <trkpt lat="44.29894" lon="6.58942">
        <ele>2163.8000488281</ele>
        <time>2020-08-13T11:21:55.000Z</time>
      </trkpt>
      <trkpt lat="44.2988" lon="6.58957">
        <ele>2164.8000488281</ele>
        <time>2020-08-13T11:22:04.000Z</time>
      </trkpt>
      <trkpt lat="44.29875" lon="6.58969">
        <ele>2165.8000488281</ele>
        <time>2020-08-13T11:22:09.000Z</time>
      </trkpt>
      <trkpt lat="44.29872" lon="6.58977">
        <ele>2166.3999023438</ele>
        <time>2020-08-13T11:22:12.000Z</time>
      </trkpt>
      <trkpt lat="44.2987" lon="6.59">
        <ele>2166.8000488281</ele>
        <time>2020-08-13T11:22:19.000Z</time>
      </trkpt>
      <trkpt lat="44.29869" lon="6.59022">
        <ele>2167.8000488281</ele>
        <time>2020-08-13T11:22:26.000Z</time>
      </trkpt>
      <trkpt lat="44.29867" lon="6.59042">
        <ele>2168.8000488281</ele>
        <time>2020-08-13T11:22:31.000Z</time>
      </trkpt>
      <trkpt lat="44.29866" lon="6.59046">
        <ele>2169.1999511719</ele>
        <time>2020-08-13T11:22:32.000Z</time>
      </trkpt>
      <trkpt lat="44.29861" lon="6.59058">
        <ele>2170</ele>
        <time>2020-08-13T11:22:36.000Z</time>
      </trkpt>
      <trkpt lat="44.29856" lon="6.59069">
        <ele>2170.6000976562</ele>
        <time>2020-08-13T11:22:40.000Z</time>
      </trkpt>
      <trkpt lat="44.29853" lon="6.59074">
        <ele>2171.1999511719</ele>
        <time>2020-08-13T11:22:42.000Z</time>
      </trkpt>
      <trkpt lat="44.29844" lon="6.59088">
        <ele>2172.1999511719</ele>
        <time>2020-08-13T11:22:47.000Z</time>
      </trkpt>
      <trkpt lat="44.29842" lon="6.5909">
        <ele>2172.3999023438</ele>
        <time>2020-08-13T11:22:48.000Z</time>
      </trkpt>
      <trkpt lat="44.2983" lon="6.59102">
        <ele>2173.3999023438</ele>
        <time>2020-08-13T11:22:54.000Z</time>
      </trkpt>
      <trkpt lat="44.29821" lon="6.59111">
        <ele>2174.6000976562</ele>
        <time>2020-08-13T11:22:58.000Z</time>
      </trkpt>
      <trkpt lat="44.29817" lon="6.59116">
        <ele>2175.1999511719</ele>
        <time>2020-08-13T11:23:00.000Z</time>
      </trkpt>
      <trkpt lat="44.29814" lon="6.59121">
        <ele>2175.8000488281</ele>
        <time>2020-08-13T11:23:02.000Z</time>
      </trkpt>
      <trkpt lat="44.29807" lon="6.59134">
        <ele>2177</ele>
        <time>2020-08-13T11:23:07.000Z</time>
      </trkpt>
      <trkpt lat="44.29806" lon="6.59137">
        <ele>2177</ele>
        <time>2020-08-13T11:23:08.000Z</time>
      </trkpt>
      <trkpt lat="44.29803" lon="6.59155">
        <ele>2178</ele>
        <time>2020-08-13T11:23:13.000Z</time>
      </trkpt>
      <trkpt lat="44.29804" lon="6.59163">
        <ele>2178.6000976562</ele>
        <time>2020-08-13T11:23:15.000Z</time>
      </trkpt>
      <trkpt lat="44.29805" lon="6.59166">
        <ele>2179</ele>
        <time>2020-08-13T11:23:16.000Z</time>
      </trkpt>
      <trkpt lat="44.29812" lon="6.59179">
        <ele>2180.1999511719</ele>
        <time>2020-08-13T11:23:20.000Z</time>
      </trkpt>
      <trkpt lat="44.29813" lon="6.59182">
        <ele>2180.1999511719</ele>
        <time>2020-08-13T11:23:21.000Z</time>
      </trkpt>
      <trkpt lat="44.29824" lon="6.5919">
        <ele>2181.3999023438</ele>
        <time>2020-08-13T11:23:26.000Z</time>
      </trkpt>
      <trkpt lat="44.29826" lon="6.59191">
        <ele>2181.3999023438</ele>
        <time>2020-08-13T11:23:27.000Z</time>
      </trkpt>
      <trkpt lat="44.29839" lon="6.59202">
        <ele>2182.3999023438</ele>
        <time>2020-08-13T11:23:34.000Z</time>
      </trkpt>
      <trkpt lat="44.29841" lon="6.59205">
        <ele>2182.6000976562</ele>
        <time>2020-08-13T11:23:35.000Z</time>
      </trkpt>
      <trkpt lat="44.29849" lon="6.59219">
        <ele>2183.6000976562</ele>
        <time>2020-08-13T11:23:40.000Z</time>
      </trkpt>
      <trkpt lat="44.2985" lon="6.59222">
        <ele>2183.8000488281</ele>
        <time>2020-08-13T11:23:41.000Z</time>
      </trkpt>
      <trkpt lat="44.29853" lon="6.59233">
        <ele>2184.8000488281</ele>
        <time>2020-08-13T11:23:45.000Z</time>
      </trkpt>
      <trkpt lat="44.29854" lon="6.59242">
        <ele>2185.1999511719</ele>
        <time>2020-08-13T11:23:48.000Z</time>
      </trkpt>
      <trkpt lat="44.2985" lon="6.59255">
        <ele>2186</ele>
        <time>2020-08-13T11:23:52.000Z</time>
      </trkpt>
      <trkpt lat="44.29849" lon="6.59258">
        <ele>2186.1999511719</ele>
        <time>2020-08-13T11:23:53.000Z</time>
      </trkpt>
      <trkpt lat="44.29845" lon="6.59267">
        <ele>2187.1999511719</ele>
        <time>2020-08-13T11:23:56.000Z</time>
      </trkpt>
      <trkpt lat="44.29836" lon="6.59278">
        <ele>2188.1999511719</ele>
        <time>2020-08-13T11:24:01.000Z</time>
      </trkpt>
      <trkpt lat="44.29818" lon="6.59299">
        <ele>2189</ele>
        <time>2020-08-13T11:24:10.000Z</time>
      </trkpt>
      <trkpt lat="44.29815" lon="6.59302">
        <ele>2189.3999023438</ele>
        <time>2020-08-13T11:24:11.000Z</time>
      </trkpt>
      <trkpt lat="44.29795" lon="6.59322">
        <ele>2190.6000976562</ele>
        <time>2020-08-13T11:24:19.000Z</time>
      </trkpt>
      <trkpt lat="44.29784" lon="6.5933">
        <ele>2191.8000488281</ele>
        <time>2020-08-13T11:24:23.000Z</time>
      </trkpt>
      <trkpt lat="44.29768" lon="6.59338">
        <ele>2191.8000488281</ele>
        <time>2020-08-13T11:24:28.000Z</time>
      </trkpt>
      <trkpt lat="44.29735" lon="6.59355">
        <ele>2192.8000488281</ele>
        <time>2020-08-13T11:24:38.000Z</time>
      </trkpt>
      <trkpt lat="44.29723" lon="6.5937">
        <ele>2193.3999023438</ele>
        <time>2020-08-13T11:24:44.000Z</time>
      </trkpt>
      <trkpt lat="44.29721" lon="6.59375">
        <ele>2193.8000488281</ele>
        <time>2020-08-13T11:24:48.000Z</time>
      </trkpt>
      <trkpt lat="44.2972" lon="6.59376">
        <ele>2194</ele>
        <time>2020-08-13T11:24:49.000Z</time>
      </trkpt>
      <trkpt lat="44.2972" lon="6.59376">
        <ele>2194</ele>
        <time>2020-08-13T11:24:57.000Z</time>
      </trkpt>
      <trkpt lat="44.29719" lon="6.59375">
        <ele>2194</ele>
        <time>2020-08-13T11:25:04.000Z</time>
      </trkpt>
      <trkpt lat="44.29719" lon="6.59376">
        <ele>2194.1999511719</ele>
        <time>2020-08-13T11:25:10.000Z</time>
      </trkpt>
      <trkpt lat="44.29719" lon="6.59375">
        <ele>2194.1999511719</ele>
        <time>2020-08-13T11:25:15.000Z</time>
      </trkpt>
      <trkpt lat="44.29718" lon="6.59376">
        <ele>2194.6000976562</ele>
        <time>2020-08-13T11:25:28.000Z</time>
      </trkpt>
      <trkpt lat="44.29719" lon="6.59375">
        <ele>2194</ele>
        <time>2020-08-13T11:25:34.000Z</time>
      </trkpt>
      <trkpt lat="44.29718" lon="6.59375">
        <ele>2194.6000976562</ele>
        <time>2020-08-13T11:25:41.000Z</time>
      </trkpt>
      <trkpt lat="44.29719" lon="6.59375">
        <ele>2194.1999511719</ele>
        <time>2020-08-13T11:25:47.000Z</time>
      </trkpt>
      <trkpt lat="44.29719" lon="6.59376">
        <ele>2194</ele>
        <time>2020-08-13T11:25:54.000Z</time>
      </trkpt>
      <trkpt lat="44.29719" lon="6.59377">
        <ele>2193.8000488281</ele>
        <time>2020-08-13T11:26:02.000Z</time>
      </trkpt>
      <trkpt lat="44.29717" lon="6.59376">
        <ele>2193.8000488281</ele>
        <time>2020-08-13T11:26:09.000Z</time>
      </trkpt>
      <trkpt lat="44.29716" lon="6.59375">
        <ele>2194</ele>
        <time>2020-08-13T11:26:14.000Z</time>
      </trkpt>
      <trkpt lat="44.29717" lon="6.59376">
        <ele>2193.8000488281</ele>
        <time>2020-08-13T11:26:28.000Z</time>
      </trkpt>
      <trkpt lat="44.29719" lon="6.59375">
        <ele>2193.8000488281</ele>
        <time>2020-08-13T11:26:34.000Z</time>
      </trkpt>
      <trkpt lat="44.29723" lon="6.59374">
        <ele>2193.8000488281</ele>
        <time>2020-08-13T11:26:44.000Z</time>
      </trkpt>
      <trkpt lat="44.29721" lon="6.59373">
        <ele>2193.6000976562</ele>
        <time>2020-08-13T11:27:00.000Z</time>
      </trkpt>
      <trkpt lat="44.29721" lon="6.59373">
        <ele>2193.6000976562</ele>
        <time>2020-08-13T11:27:10.000Z</time>
      </trkpt>
      <trkpt lat="44.29721" lon="6.59373">
        <ele>2193.3999023438</ele>
        <time>2020-08-13T11:27:18.000Z</time>
      </trkpt>
      <trkpt lat="44.29721" lon="6.59373">
        <ele>2193.3999023438</ele>
        <time>2020-08-13T11:27:26.000Z</time>
      </trkpt>
      <trkpt lat="44.29721" lon="6.59373">
        <ele>2193.8000488281</ele>
        <time>2020-08-13T11:27:37.000Z</time>
      </trkpt>
      <trkpt lat="44.29721" lon="6.59372">
        <ele>2193.3999023438</ele>
        <time>2020-08-13T11:27:44.000Z</time>
      </trkpt>
      <trkpt lat="44.29721" lon="6.59372">
        <ele>2192.8000488281</ele>
        <time>2020-08-13T11:27:52.000Z</time>
      </trkpt>
      <trkpt lat="44.29721" lon="6.59372">
        <ele>2192.6000976562</ele>
        <time>2020-08-13T11:27:57.000Z</time>
      </trkpt>
      <trkpt lat="44.29721" lon="6.59372">
        <ele>2192.6000976562</ele>
        <time>2020-08-13T11:28:08.000Z</time>
      </trkpt>
      <trkpt lat="44.29721" lon="6.59372">
        <ele>2193</ele>
        <time>2020-08-13T11:28:17.000Z</time>
      </trkpt>
      <trkpt lat="44.2972" lon="6.59372">
        <ele>2193.1999511719</ele>
        <time>2020-08-13T11:28:27.000Z</time>
      </trkpt>
      <trkpt lat="44.2972" lon="6.59372">
        <ele>2192.6000976562</ele>
        <time>2020-08-13T11:28:37.000Z</time>
      </trkpt>
      <trkpt lat="44.2972" lon="6.59373">
        <ele>2192.6000976562</ele>
        <time>2020-08-13T11:28:38.000Z</time>
      </trkpt>
      <trkpt lat="44.29721" lon="6.59375">
        <ele>2192.6000976562</ele>
        <time>2020-08-13T11:28:40.000Z</time>
      </trkpt>
      <trkpt lat="44.29722" lon="6.59377">
        <ele>2192.3999023438</ele>
        <time>2020-08-13T11:28:47.000Z</time>
      </trkpt>
      <trkpt lat="44.29721" lon="6.59375">
        <ele>2192.3999023438</ele>
        <time>2020-08-13T11:28:50.000Z</time>
      </trkpt>
      <trkpt lat="44.29721" lon="6.59374">
        <ele>2192.3999023438</ele>
        <time>2020-08-13T11:28:52.000Z</time>
      </trkpt>
      <trkpt lat="44.2972" lon="6.59373">
        <ele>2192.3999023438</ele>
        <time>2020-08-13T11:28:58.000Z</time>
      </trkpt>
      <trkpt lat="44.2972" lon="6.59373">
        <ele>2192.6000976562</ele>
        <time>2020-08-13T11:29:09.000Z</time>
      </trkpt>
      <trkpt lat="44.2972" lon="6.59373">
        <ele>2192.3999023438</ele>
        <time>2020-08-13T11:29:19.000Z</time>
      </trkpt>
      <trkpt lat="44.2972" lon="6.59373">
        <ele>2191.8000488281</ele>
        <time>2020-08-13T11:29:22.000Z</time>
      </trkpt>
      <trkpt lat="44.2972" lon="6.59373">
        <ele>2191.3999023438</ele>
        <time>2020-08-13T11:29:38.000Z</time>
      </trkpt>
      <trkpt lat="44.2972" lon="6.59373">
        <ele>2191.8000488281</ele>
        <time>2020-08-13T11:29:55.000Z</time>
      </trkpt>
      <trkpt lat="44.2972" lon="6.59373">
        <ele>2192.6000976562</ele>
        <time>2020-08-13T11:30:06.000Z</time>
      </trkpt>
      <trkpt lat="44.2972" lon="6.59373">
        <ele>2192</ele>
        <time>2020-08-13T11:30:17.000Z</time>
      </trkpt>
      <trkpt lat="44.29721" lon="6.59373">
        <ele>2192.6000976562</ele>
        <time>2020-08-13T11:30:34.000Z</time>
      </trkpt>
      <trkpt lat="44.29721" lon="6.59373">
        <ele>2192.8000488281</ele>
        <time>2020-08-13T11:30:40.000Z</time>
      </trkpt>
      <trkpt lat="44.29721" lon="6.59373">
        <ele>2192.8000488281</ele>
        <time>2020-08-13T11:30:42.000Z</time>
      </trkpt>
      <trkpt lat="44.29721" lon="6.59373">
        <ele>2192.3999023438</ele>
        <time>2020-08-13T11:30:50.000Z</time>
      </trkpt>
      <trkpt lat="44.29721" lon="6.59373">
        <ele>2192.6000976562</ele>
        <time>2020-08-13T11:30:58.000Z</time>
      </trkpt>
      <trkpt lat="44.2972" lon="6.59372">
        <ele>2193.8000488281</ele>
        <time>2020-08-13T11:31:07.000Z</time>
      </trkpt>
      <trkpt lat="44.2972" lon="6.59372">
        <ele>2194.1999511719</ele>
        <time>2020-08-13T11:31:09.000Z</time>
      </trkpt>
      <trkpt lat="44.2972" lon="6.59371">
        <ele>2193.3999023438</ele>
        <time>2020-08-13T11:31:22.000Z</time>
      </trkpt>
      <trkpt lat="44.2972" lon="6.59371">
        <ele>2192.8000488281</ele>
        <time>2020-08-13T11:31:25.000Z</time>
      </trkpt>
      <trkpt lat="44.2972" lon="6.59372">
        <ele>2191.6000976562</ele>
        <time>2020-08-13T11:31:28.000Z</time>
      </trkpt>
      <trkpt lat="44.29721" lon="6.59372">
        <ele>2191.6000976562</ele>
        <time>2020-08-13T11:31:30.000Z</time>
      </trkpt>
      <trkpt lat="44.2972" lon="6.59372">
        <ele>2193</ele>
        <time>2020-08-13T11:31:34.000Z</time>
      </trkpt>
      <trkpt lat="44.2972" lon="6.59372">
        <ele>2193.1999511719</ele>
        <time>2020-08-13T11:31:35.000Z</time>
      </trkpt>
      <trkpt lat="44.2972" lon="6.59372">
        <ele>2194</ele>
        <time>2020-08-13T11:31:39.000Z</time>
      </trkpt>
      <trkpt lat="44.29721" lon="6.59371">
        <ele>2193.6000976562</ele>
        <time>2020-08-13T11:31:44.000Z</time>
      </trkpt>
      <trkpt lat="44.2972" lon="6.59371">
        <ele>2194.3999023438</ele>
        <time>2020-08-13T11:31:53.000Z</time>
      </trkpt>
      <trkpt lat="44.2972" lon="6.59371">
        <ele>2194.1999511719</ele>
        <time>2020-08-13T11:32:00.000Z</time>
      </trkpt>
      <trkpt lat="44.2972" lon="6.59371">
        <ele>2193.8000488281</ele>
        <time>2020-08-13T11:32:07.000Z</time>
      </trkpt>
      <trkpt lat="44.2972" lon="6.59371">
        <ele>2194.1999511719</ele>
        <time>2020-08-13T11:32:16.000Z</time>
      </trkpt>
      <trkpt lat="44.2972" lon="6.59371">
        <ele>2194.1999511719</ele>
        <time>2020-08-13T11:32:22.000Z</time>
      </trkpt>
      <trkpt lat="44.2972" lon="6.59372">
        <ele>2193.8000488281</ele>
        <time>2020-08-13T11:32:29.000Z</time>
      </trkpt>
      <trkpt lat="44.2972" lon="6.59372">
        <ele>2194.8000488281</ele>
        <time>2020-08-13T11:32:41.000Z</time>
      </trkpt>
      <trkpt lat="44.2972" lon="6.59372">
        <ele>2195</ele>
        <time>2020-08-13T11:32:43.000Z</time>
      </trkpt>
      <trkpt lat="44.29719" lon="6.59372">
        <ele>2195</ele>
        <time>2020-08-13T11:32:46.000Z</time>
      </trkpt>
      <trkpt lat="44.29719" lon="6.59372">
        <ele>2195.6000976562</ele>
        <time>2020-08-13T11:33:01.000Z</time>
      </trkpt>
      <trkpt lat="44.2972" lon="6.59375">
        <ele>2195.3999023438</ele>
        <time>2020-08-13T11:33:08.000Z</time>
      </trkpt>
      <trkpt lat="44.2972" lon="6.59375">
        <ele>2195.1999511719</ele>
        <time>2020-08-13T11:33:19.000Z</time>
      </trkpt>
      <trkpt lat="44.2972" lon="6.5938">
        <ele>2195.1999511719</ele>
        <time>2020-08-13T11:33:24.000Z</time>
      </trkpt>
      <trkpt lat="44.2972" lon="6.59382">
        <ele>2195.1999511719</ele>
        <time>2020-08-13T11:33:25.000Z</time>
      </trkpt>
      <trkpt lat="44.29724" lon="6.59399">
        <ele>2195</ele>
        <time>2020-08-13T11:33:31.000Z</time>
      </trkpt>
      <trkpt lat="44.29724" lon="6.59422">
        <ele>2195</ele>
        <time>2020-08-13T11:33:38.000Z</time>
      </trkpt>
      <trkpt lat="44.29722" lon="6.59431">
        <ele>2194.6000976562</ele>
        <time>2020-08-13T11:33:41.000Z</time>
      </trkpt>
      <trkpt lat="44.29717" lon="6.59438">
        <ele>2194.3999023438</ele>
        <time>2020-08-13T11:33:43.000Z</time>
      </trkpt>
      <trkpt lat="44.29705" lon="6.59446">
        <ele>2193.8000488281</ele>
        <time>2020-08-13T11:33:47.000Z</time>
      </trkpt>
      <trkpt lat="44.29703" lon="6.59447">
        <ele>2193.6000976562</ele>
        <time>2020-08-13T11:33:48.000Z</time>
      </trkpt>
      <trkpt lat="44.29685" lon="6.59456">
        <ele>2192.8000488281</ele>
        <time>2020-08-13T11:33:53.000Z</time>
      </trkpt>
      <trkpt lat="44.29682" lon="6.59458">
        <ele>2192.8000488281</ele>
        <time>2020-08-13T11:33:54.000Z</time>
      </trkpt>
      <trkpt lat="44.29674" lon="6.59465">
        <ele>2191.6000976562</ele>
        <time>2020-08-13T11:33:57.000Z</time>
      </trkpt>
      <trkpt lat="44.29669" lon="6.59472">
        <ele>2190.6000976562</ele>
        <time>2020-08-13T11:33:59.000Z</time>
      </trkpt>
      <trkpt lat="44.29668" lon="6.59477">
        <ele>2190.1999511719</ele>
        <time>2020-08-13T11:34:00.000Z</time>
      </trkpt>
      <trkpt lat="44.29666" lon="6.59487">
        <ele>2189.6000976562</ele>
        <time>2020-08-13T11:34:02.000Z</time>
      </trkpt>
      <trkpt lat="44.29666" lon="6.59493">
        <ele>2189.1999511719</ele>
        <time>2020-08-13T11:34:03.000Z</time>
      </trkpt>
      <trkpt lat="44.29667" lon="6.59499">
        <ele>2188.8000488281</ele>
        <time>2020-08-13T11:34:04.000Z</time>
      </trkpt>
      <trkpt lat="44.29672" lon="6.59511">
        <ele>2188.1999511719</ele>
        <time>2020-08-13T11:34:06.000Z</time>
      </trkpt>
      <trkpt lat="44.29676" lon="6.59518">
        <ele>2187.6000976562</ele>
        <time>2020-08-13T11:34:07.000Z</time>
      </trkpt>
      <trkpt lat="44.29691" lon="6.59535">
        <ele>2186</ele>
        <time>2020-08-13T11:34:10.000Z</time>
      </trkpt>
      <trkpt lat="44.29702" lon="6.59546">
        <ele>2185</ele>
        <time>2020-08-13T11:34:12.000Z</time>
      </trkpt>
      <trkpt lat="44.29713" lon="6.59556">
        <ele>2183.8000488281</ele>
        <time>2020-08-13T11:34:14.000Z</time>
      </trkpt>
      <trkpt lat="44.29718" lon="6.59561">
        <ele>2183.1999511719</ele>
        <time>2020-08-13T11:34:15.000Z</time>
      </trkpt>
      <trkpt lat="44.29723" lon="6.59566">
        <ele>2182.6000976562</ele>
        <time>2020-08-13T11:34:16.000Z</time>
      </trkpt>
      <trkpt lat="44.29739" lon="6.59581">
        <ele>2181.1999511719</ele>
        <time>2020-08-13T11:34:19.000Z</time>
      </trkpt>
      <trkpt lat="44.29751" lon="6.59593">
        <ele>2180.1999511719</ele>
        <time>2020-08-13T11:34:21.000Z</time>
      </trkpt>
      <trkpt lat="44.29763" lon="6.59603">
        <ele>2179</ele>
        <time>2020-08-13T11:34:23.000Z</time>
      </trkpt>
      <trkpt lat="44.29775" lon="6.59615">
        <ele>2177.8000488281</ele>
        <time>2020-08-13T11:34:25.000Z</time>
      </trkpt>
      <trkpt lat="44.29781" lon="6.5962">
        <ele>2177.3999023438</ele>
        <time>2020-08-13T11:34:26.000Z</time>
      </trkpt>
      <trkpt lat="44.29788" lon="6.59623">
        <ele>2177</ele>
        <time>2020-08-13T11:34:27.000Z</time>
      </trkpt>
      <trkpt lat="44.29794" lon="6.59626">
        <ele>2176.8000488281</ele>
        <time>2020-08-13T11:34:28.000Z</time>
      </trkpt>
      <trkpt lat="44.2982" lon="6.59636">
        <ele>2175.1999511719</ele>
        <time>2020-08-13T11:34:31.000Z</time>
      </trkpt>
      <trkpt lat="44.29837" lon="6.59639">
        <ele>2173.6000976562</ele>
        <time>2020-08-13T11:34:33.000Z</time>
      </trkpt>
      <trkpt lat="44.29854" lon="6.59636">
        <ele>2171.8000488281</ele>
        <time>2020-08-13T11:34:35.000Z</time>
      </trkpt>
      <trkpt lat="44.29871" lon="6.59631">
        <ele>2170.6000976562</ele>
        <time>2020-08-13T11:34:37.000Z</time>
      </trkpt>
      <trkpt lat="44.29887" lon="6.59629">
        <ele>2169.6000976562</ele>
        <time>2020-08-13T11:34:39.000Z</time>
      </trkpt>
      <trkpt lat="44.29895" lon="6.59627">
        <ele>2169</ele>
        <time>2020-08-13T11:34:40.000Z</time>
      </trkpt>
      <trkpt lat="44.29903" lon="6.59623">
        <ele>2168.3999023438</ele>
        <time>2020-08-13T11:34:41.000Z</time>
      </trkpt>
      <trkpt lat="44.29916" lon="6.59611">
        <ele>2167</ele>
        <time>2020-08-13T11:34:43.000Z</time>
      </trkpt>
      <trkpt lat="44.29923" lon="6.59605">
        <ele>2166.1999511719</ele>
        <time>2020-08-13T11:34:44.000Z</time>
      </trkpt>
      <trkpt lat="44.29931" lon="6.596">
        <ele>2165.8000488281</ele>
        <time>2020-08-13T11:34:45.000Z</time>
      </trkpt>
      <trkpt lat="44.29948" lon="6.59594">
        <ele>2165.3999023438</ele>
        <time>2020-08-13T11:34:47.000Z</time>
      </trkpt>
      <trkpt lat="44.29965" lon="6.59585">
        <ele>2164.6000976562</ele>
        <time>2020-08-13T11:34:49.000Z</time>
      </trkpt>
      <trkpt lat="44.29984" lon="6.59578">
        <ele>2162.3999023438</ele>
        <time>2020-08-13T11:34:51.000Z</time>
      </trkpt>
      <trkpt lat="44.30003" lon="6.59582">
        <ele>2160.6000976562</ele>
        <time>2020-08-13T11:34:53.000Z</time>
      </trkpt>
      <trkpt lat="44.30015" lon="6.59585">
        <ele>2159.6000976562</ele>
        <time>2020-08-13T11:34:54.000Z</time>
      </trkpt>
      <trkpt lat="44.30026" lon="6.59587">
        <ele>2158.8000488281</ele>
        <time>2020-08-13T11:34:55.000Z</time>
      </trkpt>
      <trkpt lat="44.30048" lon="6.59595">
        <ele>2157</ele>
        <time>2020-08-13T11:34:57.000Z</time>
      </trkpt>
      <trkpt lat="44.30058" lon="6.59601">
        <ele>2155.6000976562</ele>
        <time>2020-08-13T11:34:58.000Z</time>
      </trkpt>
      <trkpt lat="44.3007" lon="6.5961">
        <ele>2154.6000976562</ele>
        <time>2020-08-13T11:34:59.000Z</time>
      </trkpt>
      <trkpt lat="44.30081" lon="6.59617">
        <ele>2153.6000976562</ele>
        <time>2020-08-13T11:35:00.000Z</time>
      </trkpt>
      <trkpt lat="44.30092" lon="6.59624">
        <ele>2152.3999023438</ele>
        <time>2020-08-13T11:35:01.000Z</time>
      </trkpt>
      <trkpt lat="44.30114" lon="6.59638">
        <ele>2150.8000488281</ele>
        <time>2020-08-13T11:35:03.000Z</time>
      </trkpt>
      <trkpt lat="44.30137" lon="6.59653">
        <ele>2149</ele>
        <time>2020-08-13T11:35:05.000Z</time>
      </trkpt>
      <trkpt lat="44.30147" lon="6.59659">
        <ele>2148</ele>
        <time>2020-08-13T11:35:06.000Z</time>
      </trkpt>
      <trkpt lat="44.30157" lon="6.59664">
        <ele>2147.1999511719</ele>
        <time>2020-08-13T11:35:07.000Z</time>
      </trkpt>
      <trkpt lat="44.30177" lon="6.59666">
        <ele>2146</ele>
        <time>2020-08-13T11:35:09.000Z</time>
      </trkpt>
      <trkpt lat="44.30199" lon="6.59663">
        <ele>2144.8000488281</ele>
        <time>2020-08-13T11:35:11.000Z</time>
      </trkpt>
      <trkpt lat="44.30211" lon="6.59661">
        <ele>2144.3999023438</ele>
        <time>2020-08-13T11:35:12.000Z</time>
      </trkpt>
      <trkpt lat="44.30222" lon="6.59658">
        <ele>2143.6000976562</ele>
        <time>2020-08-13T11:35:13.000Z</time>
      </trkpt>
      <trkpt lat="44.30233" lon="6.59654">
        <ele>2142.6000976562</ele>
        <time>2020-08-13T11:35:14.000Z</time>
      </trkpt>
      <trkpt lat="44.30257" lon="6.59642">
        <ele>2140.6000976562</ele>
        <time>2020-08-13T11:35:16.000Z</time>
      </trkpt>
      <trkpt lat="44.30269" lon="6.59635">
        <ele>2139.3999023438</ele>
        <time>2020-08-13T11:35:17.000Z</time>
      </trkpt>
      <trkpt lat="44.3028" lon="6.59627">
        <ele>2138.3999023438</ele>
        <time>2020-08-13T11:35:18.000Z</time>
      </trkpt>
      <trkpt lat="44.30303" lon="6.59611">
        <ele>2137.1999511719</ele>
        <time>2020-08-13T11:35:20.000Z</time>
      </trkpt>
      <trkpt lat="44.30326" lon="6.59595">
        <ele>2135.8000488281</ele>
        <time>2020-08-13T11:35:22.000Z</time>
      </trkpt>
      <trkpt lat="44.30337" lon="6.59587">
        <ele>2135.3999023438</ele>
        <time>2020-08-13T11:35:23.000Z</time>
      </trkpt>
      <trkpt lat="44.30348" lon="6.59577">
        <ele>2134.6000976562</ele>
        <time>2020-08-13T11:35:24.000Z</time>
      </trkpt>
      <trkpt lat="44.30357" lon="6.59567">
        <ele>2133.3999023438</ele>
        <time>2020-08-13T11:35:25.000Z</time>
      </trkpt>
      <trkpt lat="44.30365" lon="6.59556">
        <ele>2131.8000488281</ele>
        <time>2020-08-13T11:35:26.000Z</time>
      </trkpt>
      <trkpt lat="44.30374" lon="6.59545">
        <ele>2130.6000976562</ele>
        <time>2020-08-13T11:35:27.000Z</time>
      </trkpt>
      <trkpt lat="44.30382" lon="6.59537">
        <ele>2129.3999023438</ele>
        <time>2020-08-13T11:35:28.000Z</time>
      </trkpt>
      <trkpt lat="44.30392" lon="6.59528">
        <ele>2128.3999023438</ele>
        <time>2020-08-13T11:35:29.000Z</time>
      </trkpt>
      <trkpt lat="44.30403" lon="6.59524">
        <ele>2127.8000488281</ele>
        <time>2020-08-13T11:35:30.000Z</time>
      </trkpt>
      <trkpt lat="44.30434" lon="6.59515">
        <ele>2126.1999511719</ele>
        <time>2020-08-13T11:35:33.000Z</time>
      </trkpt>
      <trkpt lat="44.30445" lon="6.59511">
        <ele>2125.3999023438</ele>
        <time>2020-08-13T11:35:34.000Z</time>
      </trkpt>
      <trkpt lat="44.30456" lon="6.5951">
        <ele>2124.3999023438</ele>
        <time>2020-08-13T11:35:35.000Z</time>
      </trkpt>
      <trkpt lat="44.30479" lon="6.59512">
        <ele>2122.6000976562</ele>
        <time>2020-08-13T11:35:37.000Z</time>
      </trkpt>
      <trkpt lat="44.30488" lon="6.59513">
        <ele>2121.6000976562</ele>
        <time>2020-08-13T11:35:38.000Z</time>
      </trkpt>
      <trkpt lat="44.30498" lon="6.59513">
        <ele>2121</ele>
        <time>2020-08-13T11:35:39.000Z</time>
      </trkpt>
      <trkpt lat="44.30505" lon="6.59511">
        <ele>2120.3999023438</ele>
        <time>2020-08-13T11:35:40.000Z</time>
      </trkpt>
      <trkpt lat="44.30513" lon="6.59505">
        <ele>2120</ele>
        <time>2020-08-13T11:35:41.000Z</time>
      </trkpt>
      <trkpt lat="44.30526" lon="6.59488">
        <ele>2119.6000976562</ele>
        <time>2020-08-13T11:35:43.000Z</time>
      </trkpt>
      <trkpt lat="44.30533" lon="6.59477">
        <ele>2119.1999511719</ele>
        <time>2020-08-13T11:35:44.000Z</time>
      </trkpt>
      <trkpt lat="44.30539" lon="6.59466">
        <ele>2118.6000976562</ele>
        <time>2020-08-13T11:35:45.000Z</time>
      </trkpt>
      <trkpt lat="44.30546" lon="6.59458">
        <ele>2117.8000488281</ele>
        <time>2020-08-13T11:35:46.000Z</time>
      </trkpt>
      <trkpt lat="44.30555" lon="6.59451">
        <ele>2116.6000976562</ele>
        <time>2020-08-13T11:35:47.000Z</time>
      </trkpt>
      <trkpt lat="44.30565" lon="6.59446">
        <ele>2115</ele>
        <time>2020-08-13T11:35:48.000Z</time>
      </trkpt>
      <trkpt lat="44.30576" lon="6.59442">
        <ele>2113.8000488281</ele>
        <time>2020-08-13T11:35:49.000Z</time>
      </trkpt>
      <trkpt lat="44.30587" lon="6.5944">
        <ele>2112.6000976562</ele>
        <time>2020-08-13T11:35:50.000Z</time>
      </trkpt>
      <trkpt lat="44.30598" lon="6.59441">
        <ele>2111.3999023438</ele>
        <time>2020-08-13T11:35:51.000Z</time>
      </trkpt>
      <trkpt lat="44.30616" lon="6.5945">
        <ele>2110</ele>
        <time>2020-08-13T11:35:53.000Z</time>
      </trkpt>
      <trkpt lat="44.30629" lon="6.59459">
        <ele>2109</ele>
        <time>2020-08-13T11:35:54.000Z</time>
      </trkpt>
      <trkpt lat="44.3064" lon="6.59466">
        <ele>2108</ele>
        <time>2020-08-13T11:35:55.000Z</time>
      </trkpt>
      <trkpt lat="44.3065" lon="6.59473">
        <ele>2106.6000976562</ele>
        <time>2020-08-13T11:35:56.000Z</time>
      </trkpt>
      <trkpt lat="44.3066" lon="6.59482">
        <ele>2105.1999511719</ele>
        <time>2020-08-13T11:35:57.000Z</time>
      </trkpt>
      <trkpt lat="44.30676" lon="6.59503">
        <ele>2103.3999023438</ele>
        <time>2020-08-13T11:35:59.000Z</time>
      </trkpt>
      <trkpt lat="44.30684" lon="6.59515">
        <ele>2103</ele>
        <time>2020-08-13T11:36:00.000Z</time>
      </trkpt>
      <trkpt lat="44.3069" lon="6.59529">
        <ele>2102.1999511719</ele>
        <time>2020-08-13T11:36:01.000Z</time>
      </trkpt>
      <trkpt lat="44.30699" lon="6.59554">
        <ele>2100.3999023438</ele>
        <time>2020-08-13T11:36:03.000Z</time>
      </trkpt>
      <trkpt lat="44.30713" lon="6.59578">
        <ele>2098.6000976562</ele>
        <time>2020-08-13T11:36:05.000Z</time>
      </trkpt>
      <trkpt lat="44.30721" lon="6.59588">
        <ele>2097.8000488281</ele>
        <time>2020-08-13T11:36:06.000Z</time>
      </trkpt>
      <trkpt lat="44.30731" lon="6.59596">
        <ele>2097.1999511719</ele>
        <time>2020-08-13T11:36:07.000Z</time>
      </trkpt>
      <trkpt lat="44.30751" lon="6.59609">
        <ele>2095.6000976562</ele>
        <time>2020-08-13T11:36:09.000Z</time>
      </trkpt>
      <trkpt lat="44.30762" lon="6.59614">
        <ele>2095</ele>
        <time>2020-08-13T11:36:10.000Z</time>
      </trkpt>
      <trkpt lat="44.30773" lon="6.5962">
        <ele>2094.6000976562</ele>
        <time>2020-08-13T11:36:11.000Z</time>
      </trkpt>
      <trkpt lat="44.30808" lon="6.59634">
        <ele>2093.1999511719</ele>
        <time>2020-08-13T11:36:14.000Z</time>
      </trkpt>
      <trkpt lat="44.30831" lon="6.59638">
        <ele>2091.8000488281</ele>
        <time>2020-08-13T11:36:16.000Z</time>
      </trkpt>
      <trkpt lat="44.30842" lon="6.59642">
        <ele>2090.1999511719</ele>
        <time>2020-08-13T11:36:17.000Z</time>
      </trkpt>
      <trkpt lat="44.30852" lon="6.59648">
        <ele>2089.3999023438</ele>
        <time>2020-08-13T11:36:18.000Z</time>
      </trkpt>
      <trkpt lat="44.30862" lon="6.59657">
        <ele>2088.1999511719</ele>
        <time>2020-08-13T11:36:19.000Z</time>
      </trkpt>
      <trkpt lat="44.30871" lon="6.59666">
        <ele>2086.8000488281</ele>
        <time>2020-08-13T11:36:20.000Z</time>
      </trkpt>
      <trkpt lat="44.3088" lon="6.59676">
        <ele>2085.8000488281</ele>
        <time>2020-08-13T11:36:21.000Z</time>
      </trkpt>
      <trkpt lat="44.30887" lon="6.59686">
        <ele>2085</ele>
        <time>2020-08-13T11:36:22.000Z</time>
      </trkpt>
      <trkpt lat="44.30895" lon="6.59694">
        <ele>2084</ele>
        <time>2020-08-13T11:36:23.000Z</time>
      </trkpt>
      <trkpt lat="44.30916" lon="6.59706">
        <ele>2083</ele>
        <time>2020-08-13T11:36:25.000Z</time>
      </trkpt>
      <trkpt lat="44.30936" lon="6.59713">
        <ele>2082</ele>
        <time>2020-08-13T11:36:27.000Z</time>
      </trkpt>
      <trkpt lat="44.30955" lon="6.59722">
        <ele>2080.1999511719</ele>
        <time>2020-08-13T11:36:29.000Z</time>
      </trkpt>
      <trkpt lat="44.30963" lon="6.59729">
        <ele>2079.1999511719</ele>
        <time>2020-08-13T11:36:30.000Z</time>
      </trkpt>
      <trkpt lat="44.30979" lon="6.59744">
        <ele>2077.8000488281</ele>
        <time>2020-08-13T11:36:32.000Z</time>
      </trkpt>
      <trkpt lat="44.31007" lon="6.59756">
        <ele>2076.8000488281</ele>
        <time>2020-08-13T11:36:35.000Z</time>
      </trkpt>
      <trkpt lat="44.31024" lon="6.59759">
        <ele>2075.1999511719</ele>
        <time>2020-08-13T11:36:37.000Z</time>
      </trkpt>
      <trkpt lat="44.31042" lon="6.59757">
        <ele>2073.8000488281</ele>
        <time>2020-08-13T11:36:39.000Z</time>
      </trkpt>
      <trkpt lat="44.31056" lon="6.59749">
        <ele>2072.8000488281</ele>
        <time>2020-08-13T11:36:41.000Z</time>
      </trkpt>
      <trkpt lat="44.31061" lon="6.59742">
        <ele>2072.1999511719</ele>
        <time>2020-08-13T11:36:42.000Z</time>
      </trkpt>
      <trkpt lat="44.31064" lon="6.59734">
        <ele>2071.8000488281</ele>
        <time>2020-08-13T11:36:43.000Z</time>
      </trkpt>
      <trkpt lat="44.31066" lon="6.59714">
        <ele>2070.6000976562</ele>
        <time>2020-08-13T11:36:45.000Z</time>
      </trkpt>
      <trkpt lat="44.31061" lon="6.59684">
        <ele>2069.3999023438</ele>
        <time>2020-08-13T11:36:48.000Z</time>
      </trkpt>
      <trkpt lat="44.31058" lon="6.59672">
        <ele>2068.8000488281</ele>
        <time>2020-08-13T11:36:49.000Z</time>
      </trkpt>
      <trkpt lat="44.31056" lon="6.59661">
        <ele>2068.3999023438</ele>
        <time>2020-08-13T11:36:50.000Z</time>
      </trkpt>
      <trkpt lat="44.31049" lon="6.59638">
        <ele>2067.1999511719</ele>
        <time>2020-08-13T11:36:52.000Z</time>
      </trkpt>
      <trkpt lat="44.31042" lon="6.59612">
        <ele>2065.8000488281</ele>
        <time>2020-08-13T11:36:54.000Z</time>
      </trkpt>
      <trkpt lat="44.31034" lon="6.59585">
        <ele>2063.8000488281</ele>
        <time>2020-08-13T11:36:56.000Z</time>
      </trkpt>
      <trkpt lat="44.31026" lon="6.59557">
        <ele>2062.1999511719</ele>
        <time>2020-08-13T11:36:58.000Z</time>
      </trkpt>
      <trkpt lat="44.31022" lon="6.59541">
        <ele>2061.6000976562</ele>
        <time>2020-08-13T11:36:59.000Z</time>
      </trkpt>
      <trkpt lat="44.31018" lon="6.59525">
        <ele>2060.8000488281</ele>
        <time>2020-08-13T11:37:00.000Z</time>
      </trkpt>
      <trkpt lat="44.31013" lon="6.59492">
        <ele>2059.1999511719</ele>
        <time>2020-08-13T11:37:02.000Z</time>
      </trkpt>
      <trkpt lat="44.31012" lon="6.59476">
        <ele>2058</ele>
        <time>2020-08-13T11:37:03.000Z</time>
      </trkpt>
      <trkpt lat="44.31012" lon="6.59457">
        <ele>2057</ele>
        <time>2020-08-13T11:37:04.000Z</time>
      </trkpt>
      <trkpt lat="44.31012" lon="6.59439">
        <ele>2056</ele>
        <time>2020-08-13T11:37:05.000Z</time>
      </trkpt>
      <trkpt lat="44.31014" lon="6.59421">
        <ele>2054.8000488281</ele>
        <time>2020-08-13T11:37:06.000Z</time>
      </trkpt>
      <trkpt lat="44.31017" lon="6.59403">
        <ele>2053.3999023438</ele>
        <time>2020-08-13T11:37:07.000Z</time>
      </trkpt>
      <trkpt lat="44.31021" lon="6.59367">
        <ele>2051.8000488281</ele>
        <time>2020-08-13T11:37:09.000Z</time>
      </trkpt>
      <trkpt lat="44.31023" lon="6.5933">
        <ele>2050.1999511719</ele>
        <time>2020-08-13T11:37:11.000Z</time>
      </trkpt>
      <trkpt lat="44.31024" lon="6.59314">
        <ele>2049.3999023438</ele>
        <time>2020-08-13T11:37:12.000Z</time>
      </trkpt>
      <trkpt lat="44.31025" lon="6.59301">
        <ele>2048.1999511719</ele>
        <time>2020-08-13T11:37:13.000Z</time>
      </trkpt>
      <trkpt lat="44.31026" lon="6.59287">
        <ele>2046.8000488281</ele>
        <time>2020-08-13T11:37:14.000Z</time>
      </trkpt>
      <trkpt lat="44.31031" lon="6.59273">
        <ele>2045.5999755859</ele>
        <time>2020-08-13T11:37:15.000Z</time>
      </trkpt>
      <trkpt lat="44.31046" lon="6.59253">
        <ele>2044</ele>
        <time>2020-08-13T11:37:17.000Z</time>
      </trkpt>
      <trkpt lat="44.31066" lon="6.59242">
        <ele>2042.8000488281</ele>
        <time>2020-08-13T11:37:19.000Z</time>
      </trkpt>
      <trkpt lat="44.31089" lon="6.59239">
        <ele>2040.8000488281</ele>
        <time>2020-08-13T11:37:21.000Z</time>
      </trkpt>
      <trkpt lat="44.31101" lon="6.59237">
        <ele>2039.8000488281</ele>
        <time>2020-08-13T11:37:22.000Z</time>
      </trkpt>
      <trkpt lat="44.31112" lon="6.59236">
        <ele>2038.5999755859</ele>
        <time>2020-08-13T11:37:23.000Z</time>
      </trkpt>
      <trkpt lat="44.31126" lon="6.59237">
        <ele>2037.5999755859</ele>
        <time>2020-08-13T11:37:24.000Z</time>
      </trkpt>
      <trkpt lat="44.31138" lon="6.5924">
        <ele>2036.5999755859</ele>
        <time>2020-08-13T11:37:25.000Z</time>
      </trkpt>
      <trkpt lat="44.3115" lon="6.59246">
        <ele>2035.4000244141</ele>
        <time>2020-08-13T11:37:26.000Z</time>
      </trkpt>
      <trkpt lat="44.31162" lon="6.59253">
        <ele>2034.1999511719</ele>
        <time>2020-08-13T11:37:27.000Z</time>
      </trkpt>
      <trkpt lat="44.31172" lon="6.5926">
        <ele>2033.5999755859</ele>
        <time>2020-08-13T11:37:28.000Z</time>
      </trkpt>
      <trkpt lat="44.31185" lon="6.59268">
        <ele>2033</ele>
        <time>2020-08-13T11:37:29.000Z</time>
      </trkpt>
      <trkpt lat="44.31198" lon="6.59275">
        <ele>2032.4000244141</ele>
        <time>2020-08-13T11:37:30.000Z</time>
      </trkpt>
      <trkpt lat="44.31211" lon="6.59281">
        <ele>2031.4000244141</ele>
        <time>2020-08-13T11:37:31.000Z</time>
      </trkpt>
      <trkpt lat="44.31224" lon="6.59287">
        <ele>2030.1999511719</ele>
        <time>2020-08-13T11:37:32.000Z</time>
      </trkpt>
      <trkpt lat="44.31235" lon="6.59293">
        <ele>2029</ele>
        <time>2020-08-13T11:37:33.000Z</time>
      </trkpt>
      <trkpt lat="44.31245" lon="6.59299">
        <ele>2027.5999755859</ele>
        <time>2020-08-13T11:37:34.000Z</time>
      </trkpt>
      <trkpt lat="44.31256" lon="6.59307">
        <ele>2026.5999755859</ele>
        <time>2020-08-13T11:37:35.000Z</time>
      </trkpt>
      <trkpt lat="44.31278" lon="6.59318">
        <ele>2025</ele>
        <time>2020-08-13T11:37:37.000Z</time>
      </trkpt>
      <trkpt lat="44.31301" lon="6.59325">
        <ele>2024.5999755859</ele>
        <time>2020-08-13T11:37:39.000Z</time>
      </trkpt>
      <trkpt lat="44.31313" lon="6.59328">
        <ele>2024</ele>
        <time>2020-08-13T11:37:40.000Z</time>
      </trkpt>
      <trkpt lat="44.31335" lon="6.59332">
        <ele>2022.5999755859</ele>
        <time>2020-08-13T11:37:42.000Z</time>
      </trkpt>
      <trkpt lat="44.31345" lon="6.59332">
        <ele>2022.1999511719</ele>
        <time>2020-08-13T11:37:43.000Z</time>
      </trkpt>
      <trkpt lat="44.31353" lon="6.59332">
        <ele>2021.5999755859</ele>
        <time>2020-08-13T11:37:44.000Z</time>
      </trkpt>
      <trkpt lat="44.31372" lon="6.59328">
        <ele>2021</ele>
        <time>2020-08-13T11:37:46.000Z</time>
      </trkpt>
      <trkpt lat="44.31382" lon="6.59323">
        <ele>2020.8000488281</ele>
        <time>2020-08-13T11:37:47.000Z</time>
      </trkpt>
      <trkpt lat="44.31391" lon="6.59318">
        <ele>2020.4000244141</ele>
        <time>2020-08-13T11:37:48.000Z</time>
      </trkpt>
      <trkpt lat="44.31409" lon="6.59304">
        <ele>2020.1999511719</ele>
        <time>2020-08-13T11:37:50.000Z</time>
      </trkpt>
      <trkpt lat="44.31419" lon="6.59296">
        <ele>2020</ele>
        <time>2020-08-13T11:37:51.000Z</time>
      </trkpt>
      <trkpt lat="44.31428" lon="6.59289">
        <ele>2019.1999511719</ele>
        <time>2020-08-13T11:37:52.000Z</time>
      </trkpt>
      <trkpt lat="44.31448" lon="6.59274">
        <ele>2017.4000244141</ele>
        <time>2020-08-13T11:37:54.000Z</time>
      </trkpt>
      <trkpt lat="44.31458" lon="6.59267">
        <ele>2016.1999511719</ele>
        <time>2020-08-13T11:37:55.000Z</time>
      </trkpt>
      <trkpt lat="44.31466" lon="6.59262">
        <ele>2014.5999755859</ele>
        <time>2020-08-13T11:37:56.000Z</time>
      </trkpt>
      <trkpt lat="44.31474" lon="6.59258">
        <ele>2013.8000488281</ele>
        <time>2020-08-13T11:37:57.000Z</time>
      </trkpt>
      <trkpt lat="44.31482" lon="6.59257">
        <ele>2013</ele>
        <time>2020-08-13T11:37:58.000Z</time>
      </trkpt>
      <trkpt lat="44.3149" lon="6.59254">
        <ele>2012</ele>
        <time>2020-08-13T11:37:59.000Z</time>
      </trkpt>
      <trkpt lat="44.31497" lon="6.5925">
        <ele>2011</ele>
        <time>2020-08-13T11:38:00.000Z</time>
      </trkpt>
      <trkpt lat="44.31512" lon="6.59248">
        <ele>2010.4000244141</ele>
        <time>2020-08-13T11:38:02.000Z</time>
      </trkpt>
      <trkpt lat="44.31519" lon="6.59251">
        <ele>2010</ele>
        <time>2020-08-13T11:38:03.000Z</time>
      </trkpt>
      <trkpt lat="44.31536" lon="6.59255">
        <ele>2009.4000244141</ele>
        <time>2020-08-13T11:38:05.000Z</time>
      </trkpt>
      <trkpt lat="44.31545" lon="6.59256">
        <ele>2009</ele>
        <time>2020-08-13T11:38:06.000Z</time>
      </trkpt>
      <trkpt lat="44.31554" lon="6.59257">
        <ele>2008.4000244141</ele>
        <time>2020-08-13T11:38:07.000Z</time>
      </trkpt>
      <trkpt lat="44.31574" lon="6.59261">
        <ele>2006.8000488281</ele>
        <time>2020-08-13T11:38:09.000Z</time>
      </trkpt>
      <trkpt lat="44.31584" lon="6.59262">
        <ele>2006.1999511719</ele>
        <time>2020-08-13T11:38:10.000Z</time>
      </trkpt>
      <trkpt lat="44.31595" lon="6.59262">
        <ele>2005.5999755859</ele>
        <time>2020-08-13T11:38:11.000Z</time>
      </trkpt>
      <trkpt lat="44.31607" lon="6.59261">
        <ele>2004.4000244141</ele>
        <time>2020-08-13T11:38:12.000Z</time>
      </trkpt>
      <trkpt lat="44.31617" lon="6.59262">
        <ele>2003.4000244141</ele>
        <time>2020-08-13T11:38:13.000Z</time>
      </trkpt>
      <trkpt lat="44.3163" lon="6.59264">
        <ele>2002.4000244141</ele>
        <time>2020-08-13T11:38:14.000Z</time>
      </trkpt>
      <trkpt lat="44.3164" lon="6.59266">
        <ele>2001</ele>
        <time>2020-08-13T11:38:15.000Z</time>
      </trkpt>
      <trkpt lat="44.31651" lon="6.59267">
        <ele>1999.8000488281</ele>
        <time>2020-08-13T11:38:16.000Z</time>
      </trkpt>
      <trkpt lat="44.31662" lon="6.59267">
        <ele>1998.8000488281</ele>
        <time>2020-08-13T11:38:17.000Z</time>
      </trkpt>
      <trkpt lat="44.31683" lon="6.59266">
        <ele>1997.4000244141</ele>
        <time>2020-08-13T11:38:19.000Z</time>
      </trkpt>
      <trkpt lat="44.31692" lon="6.59268">
        <ele>1996.5999755859</ele>
        <time>2020-08-13T11:38:20.000Z</time>
      </trkpt>
      <trkpt lat="44.31701" lon="6.59272">
        <ele>1996</ele>
        <time>2020-08-13T11:38:21.000Z</time>
      </trkpt>
      <trkpt lat="44.31714" lon="6.59289">
        <ele>1995</ele>
        <time>2020-08-13T11:38:23.000Z</time>
      </trkpt>
      <trkpt lat="44.31721" lon="6.59299">
        <ele>1994</ele>
        <time>2020-08-13T11:38:24.000Z</time>
      </trkpt>
      <trkpt lat="44.31728" lon="6.59308">
        <ele>1993.4000244141</ele>
        <time>2020-08-13T11:38:25.000Z</time>
      </trkpt>
      <trkpt lat="44.31745" lon="6.59316">
        <ele>1992.5999755859</ele>
        <time>2020-08-13T11:38:27.000Z</time>
      </trkpt>
      <trkpt lat="44.31753" lon="6.59317">
        <ele>1991.8000488281</ele>
        <time>2020-08-13T11:38:28.000Z</time>
      </trkpt>
      <trkpt lat="44.31771" lon="6.59317">
        <ele>1990.4000244141</ele>
        <time>2020-08-13T11:38:30.000Z</time>
      </trkpt>
      <trkpt lat="44.3178" lon="6.59319">
        <ele>1989.5999755859</ele>
        <time>2020-08-13T11:38:31.000Z</time>
      </trkpt>
      <trkpt lat="44.31788" lon="6.59324">
        <ele>1988.5999755859</ele>
        <time>2020-08-13T11:38:32.000Z</time>
      </trkpt>
      <trkpt lat="44.31796" lon="6.59329">
        <ele>1988</ele>
        <time>2020-08-13T11:38:33.000Z</time>
      </trkpt>
      <trkpt lat="44.31804" lon="6.59335">
        <ele>1987</ele>
        <time>2020-08-13T11:38:34.000Z</time>
      </trkpt>
      <trkpt lat="44.31818" lon="6.59349">
        <ele>1985.5999755859</ele>
        <time>2020-08-13T11:38:36.000Z</time>
      </trkpt>
      <trkpt lat="44.31822" lon="6.59358">
        <ele>1984.8000488281</ele>
        <time>2020-08-13T11:38:37.000Z</time>
      </trkpt>
      <trkpt lat="44.31825" lon="6.59366">
        <ele>1984.1999511719</ele>
        <time>2020-08-13T11:38:38.000Z</time>
      </trkpt>
      <trkpt lat="44.31824" lon="6.59375">
        <ele>1983.4000244141</ele>
        <time>2020-08-13T11:38:39.000Z</time>
      </trkpt>
      <trkpt lat="44.31821" lon="6.59382">
        <ele>1983</ele>
        <time>2020-08-13T11:38:40.000Z</time>
      </trkpt>
      <trkpt lat="44.31814" lon="6.59385">
        <ele>1982.4000244141</ele>
        <time>2020-08-13T11:38:41.000Z</time>
      </trkpt>
      <trkpt lat="44.31801" lon="6.59378">
        <ele>1981.8000488281</ele>
        <time>2020-08-13T11:38:43.000Z</time>
      </trkpt>
      <trkpt lat="44.31789" lon="6.59364">
        <ele>1980.8000488281</ele>
        <time>2020-08-13T11:38:45.000Z</time>
      </trkpt>
      <trkpt lat="44.31774" lon="6.59353">
        <ele>1979.4000244141</ele>
        <time>2020-08-13T11:38:47.000Z</time>
      </trkpt>
      <trkpt lat="44.31749" lon="6.59355">
        <ele>1978</ele>
        <time>2020-08-13T11:38:50.000Z</time>
      </trkpt>
      <trkpt lat="44.31732" lon="6.59363">
        <ele>1976.5999755859</ele>
        <time>2020-08-13T11:38:52.000Z</time>
      </trkpt>
      <trkpt lat="44.31725" lon="6.59365">
        <ele>1976.1999511719</ele>
        <time>2020-08-13T11:38:53.000Z</time>
      </trkpt>
      <trkpt lat="44.31714" lon="6.59365">
        <ele>1975.1999511719</ele>
        <time>2020-08-13T11:38:54.000Z</time>
      </trkpt>
      <trkpt lat="44.31698" lon="6.59357">
        <ele>1973.5999755859</ele>
        <time>2020-08-13T11:38:56.000Z</time>
      </trkpt>
      <trkpt lat="44.31691" lon="6.59349">
        <ele>1972.8000488281</ele>
        <time>2020-08-13T11:38:57.000Z</time>
      </trkpt>
      <trkpt lat="44.31686" lon="6.59342">
        <ele>1972.4000244141</ele>
        <time>2020-08-13T11:38:58.000Z</time>
      </trkpt>
      <trkpt lat="44.31672" lon="6.59332">
        <ele>1971</ele>
        <time>2020-08-13T11:39:00.000Z</time>
      </trkpt>
      <trkpt lat="44.31657" lon="6.59335">
        <ele>1970</ele>
        <time>2020-08-13T11:39:02.000Z</time>
      </trkpt>
      <trkpt lat="44.31649" lon="6.59339">
        <ele>1969.5999755859</ele>
        <time>2020-08-13T11:39:03.000Z</time>
      </trkpt>
      <trkpt lat="44.31639" lon="6.59341">
        <ele>1969.1999511719</ele>
        <time>2020-08-13T11:39:04.000Z</time>
      </trkpt>
      <trkpt lat="44.31619" lon="6.59344">
        <ele>1968.4000244141</ele>
        <time>2020-08-13T11:39:06.000Z</time>
      </trkpt>
      <trkpt lat="44.316" lon="6.59351">
        <ele>1966.5999755859</ele>
        <time>2020-08-13T11:39:08.000Z</time>
      </trkpt>
      <trkpt lat="44.31591" lon="6.59356">
        <ele>1965.4000244141</ele>
        <time>2020-08-13T11:39:09.000Z</time>
      </trkpt>
      <trkpt lat="44.31582" lon="6.59361">
        <ele>1964</ele>
        <time>2020-08-13T11:39:10.000Z</time>
      </trkpt>
      <trkpt lat="44.31572" lon="6.59365">
        <ele>1963</ele>
        <time>2020-08-13T11:39:11.000Z</time>
      </trkpt>
      <trkpt lat="44.31563" lon="6.59365">
        <ele>1962</ele>
        <time>2020-08-13T11:39:12.000Z</time>
      </trkpt>
      <trkpt lat="44.31554" lon="6.59365">
        <ele>1961.4000244141</ele>
        <time>2020-08-13T11:39:13.000Z</time>
      </trkpt>
      <trkpt lat="44.31545" lon="6.59368">
        <ele>1961.4000244141</ele>
        <time>2020-08-13T11:39:14.000Z</time>
      </trkpt>
      <trkpt lat="44.31531" lon="6.59382">
        <ele>1961</ele>
        <time>2020-08-13T11:39:16.000Z</time>
      </trkpt>
      <trkpt lat="44.31524" lon="6.59405">
        <ele>1960.8000488281</ele>
        <time>2020-08-13T11:39:18.000Z</time>
      </trkpt>
      <trkpt lat="44.31521" lon="6.59417">
        <ele>1960.5999755859</ele>
        <time>2020-08-13T11:39:19.000Z</time>
      </trkpt>
      <trkpt lat="44.31517" lon="6.59428">
        <ele>1960.5999755859</ele>
        <time>2020-08-13T11:39:20.000Z</time>
      </trkpt>
      <trkpt lat="44.31504" lon="6.59445">
        <ele>1959.8000488281</ele>
        <time>2020-08-13T11:39:22.000Z</time>
      </trkpt>
      <trkpt lat="44.31488" lon="6.59458">
        <ele>1959.1999511719</ele>
        <time>2020-08-13T11:39:24.000Z</time>
      </trkpt>
      <trkpt lat="44.3148" lon="6.59464">
        <ele>1958.5999755859</ele>
        <time>2020-08-13T11:39:25.000Z</time>
      </trkpt>
      <trkpt lat="44.31468" lon="6.59473">
        <ele>1958.1999511719</ele>
        <time>2020-08-13T11:39:27.000Z</time>
      </trkpt>
      <trkpt lat="44.31464" lon="6.59476">
        <ele>1958</ele>
        <time>2020-08-13T11:39:28.000Z</time>
      </trkpt>
      <trkpt lat="44.3146" lon="6.59486">
        <ele>1957.8000488281</ele>
        <time>2020-08-13T11:39:30.000Z</time>
      </trkpt>
      <trkpt lat="44.31464" lon="6.59497">
        <ele>1957.8000488281</ele>
        <time>2020-08-13T11:39:33.000Z</time>
      </trkpt>
      <trkpt lat="44.31471" lon="6.59496">
        <ele>1957.5999755859</ele>
        <time>2020-08-13T11:39:35.000Z</time>
      </trkpt>
      <trkpt lat="44.31475" lon="6.59495">
        <ele>1957.4000244141</ele>
        <time>2020-08-13T11:39:36.000Z</time>
      </trkpt>
      <trkpt lat="44.31489" lon="6.59484">
        <ele>1956.5999755859</ele>
        <time>2020-08-13T11:39:39.000Z</time>
      </trkpt>
      <trkpt lat="44.31494" lon="6.5948">
        <ele>1956.1999511719</ele>
        <time>2020-08-13T11:39:40.000Z</time>
      </trkpt>
      <trkpt lat="44.31511" lon="6.59466">
        <ele>1955.1999511719</ele>
        <time>2020-08-13T11:39:43.000Z</time>
      </trkpt>
      <trkpt lat="44.31524" lon="6.59454">
        <ele>1954.5999755859</ele>
        <time>2020-08-13T11:39:45.000Z</time>
      </trkpt>
      <trkpt lat="44.3153" lon="6.59448">
        <ele>1954.1999511719</ele>
        <time>2020-08-13T11:39:46.000Z</time>
      </trkpt>
      <trkpt lat="44.3154" lon="6.59419">
        <ele>1953</ele>
        <time>2020-08-13T11:39:49.000Z</time>
      </trkpt>
      <trkpt lat="44.31554" lon="6.59396">
        <ele>1951.5999755859</ele>
        <time>2020-08-13T11:39:52.000Z</time>
      </trkpt>
      <trkpt lat="44.31568" lon="6.59402">
        <ele>1951</ele>
        <time>2020-08-13T11:39:54.000Z</time>
      </trkpt>
      <trkpt lat="44.31574" lon="6.59407">
        <ele>1950.4000244141</ele>
        <time>2020-08-13T11:39:55.000Z</time>
      </trkpt>
      <trkpt lat="44.31581" lon="6.59411">
        <ele>1950</ele>
        <time>2020-08-13T11:39:56.000Z</time>
      </trkpt>
      <trkpt lat="44.31596" lon="6.59412">
        <ele>1949</ele>
        <time>2020-08-13T11:39:58.000Z</time>
      </trkpt>
      <trkpt lat="44.31625" lon="6.59407">
        <ele>1947.4000244141</ele>
        <time>2020-08-13T11:40:01.000Z</time>
      </trkpt>
      <trkpt lat="44.31635" lon="6.59408">
        <ele>1946.1999511719</ele>
        <time>2020-08-13T11:40:02.000Z</time>
      </trkpt>
      <trkpt lat="44.31654" lon="6.59418">
        <ele>1944.4000244141</ele>
        <time>2020-08-13T11:40:04.000Z</time>
      </trkpt>
      <trkpt lat="44.31663" lon="6.59429">
        <ele>1943.1999511719</ele>
        <time>2020-08-13T11:40:05.000Z</time>
      </trkpt>
      <trkpt lat="44.31671" lon="6.59439">
        <ele>1942.4000244141</ele>
        <time>2020-08-13T11:40:06.000Z</time>
      </trkpt>
      <trkpt lat="44.3168" lon="6.5945">
        <ele>1941.8000488281</ele>
        <time>2020-08-13T11:40:07.000Z</time>
      </trkpt>
      <trkpt lat="44.31688" lon="6.59459">
        <ele>1940.8000488281</ele>
        <time>2020-08-13T11:40:08.000Z</time>
      </trkpt>
      <trkpt lat="44.31708" lon="6.59479">
        <ele>1939.1999511719</ele>
        <time>2020-08-13T11:40:10.000Z</time>
      </trkpt>
      <trkpt lat="44.3173" lon="6.59499">
        <ele>1937.1999511719</ele>
        <time>2020-08-13T11:40:12.000Z</time>
      </trkpt>
      <trkpt lat="44.31749" lon="6.5952">
        <ele>1935.1999511719</ele>
        <time>2020-08-13T11:40:14.000Z</time>
      </trkpt>
      <trkpt lat="44.31764" lon="6.5954">
        <ele>1933.5999755859</ele>
        <time>2020-08-13T11:40:16.000Z</time>
      </trkpt>
      <trkpt lat="44.3178" lon="6.59558">
        <ele>1932.1999511719</ele>
        <time>2020-08-13T11:40:18.000Z</time>
      </trkpt>
      <trkpt lat="44.31787" lon="6.59569">
        <ele>1931.1999511719</ele>
        <time>2020-08-13T11:40:19.000Z</time>
      </trkpt>
      <trkpt lat="44.31794" lon="6.59581">
        <ele>1930.4000244141</ele>
        <time>2020-08-13T11:40:20.000Z</time>
      </trkpt>
      <trkpt lat="44.31799" lon="6.59594">
        <ele>1929.5999755859</ele>
        <time>2020-08-13T11:40:21.000Z</time>
      </trkpt>
      <trkpt lat="44.3181" lon="6.5962">
        <ele>1928.1999511719</ele>
        <time>2020-08-13T11:40:23.000Z</time>
      </trkpt>
      <trkpt lat="44.31821" lon="6.59649">
        <ele>1926.8000488281</ele>
        <time>2020-08-13T11:40:25.000Z</time>
      </trkpt>
      <trkpt lat="44.31825" lon="6.59663">
        <ele>1925.4000244141</ele>
        <time>2020-08-13T11:40:26.000Z</time>
      </trkpt>
      <trkpt lat="44.31832" lon="6.5969">
        <ele>1923.5999755859</ele>
        <time>2020-08-13T11:40:28.000Z</time>
      </trkpt>
      <trkpt lat="44.31834" lon="6.59705">
        <ele>1922.5999755859</ele>
        <time>2020-08-13T11:40:29.000Z</time>
      </trkpt>
      <trkpt lat="44.31835" lon="6.59718">
        <ele>1922</ele>
        <time>2020-08-13T11:40:30.000Z</time>
      </trkpt>
      <trkpt lat="44.31833" lon="6.59741">
        <ele>1920.8000488281</ele>
        <time>2020-08-13T11:40:32.000Z</time>
      </trkpt>
      <trkpt lat="44.31841" lon="6.59767">
        <ele>1920.4000244141</ele>
        <time>2020-08-13T11:40:35.000Z</time>
      </trkpt>
      <trkpt lat="44.31848" lon="6.59771">
        <ele>1919.8000488281</ele>
        <time>2020-08-13T11:40:36.000Z</time>
      </trkpt>
      <trkpt lat="44.31856" lon="6.59773">
        <ele>1919.5999755859</ele>
        <time>2020-08-13T11:40:37.000Z</time>
      </trkpt>
      <trkpt lat="44.31864" lon="6.59775">
        <ele>1919.1999511719</ele>
        <time>2020-08-13T11:40:38.000Z</time>
      </trkpt>
      <trkpt lat="44.31874" lon="6.59777">
        <ele>1918.5999755859</ele>
        <time>2020-08-13T11:40:39.000Z</time>
      </trkpt>
      <trkpt lat="44.31892" lon="6.59781">
        <ele>1917</ele>
        <time>2020-08-13T11:40:41.000Z</time>
      </trkpt>
      <trkpt lat="44.31902" lon="6.59784">
        <ele>1916.1999511719</ele>
        <time>2020-08-13T11:40:42.000Z</time>
      </trkpt>
      <trkpt lat="44.31911" lon="6.59789">
        <ele>1915.4000244141</ele>
        <time>2020-08-13T11:40:43.000Z</time>
      </trkpt>
      <trkpt lat="44.31921" lon="6.59793">
        <ele>1913.8000488281</ele>
        <time>2020-08-13T11:40:44.000Z</time>
      </trkpt>
      <trkpt lat="44.31931" lon="6.59795">
        <ele>1912.8000488281</ele>
        <time>2020-08-13T11:40:45.000Z</time>
      </trkpt>
      <trkpt lat="44.3194" lon="6.59794">
        <ele>1912</ele>
        <time>2020-08-13T11:40:46.000Z</time>
      </trkpt>
      <trkpt lat="44.3196" lon="6.59788">
        <ele>1910.8000488281</ele>
        <time>2020-08-13T11:40:48.000Z</time>
      </trkpt>
      <trkpt lat="44.31972" lon="6.59786">
        <ele>1910.1999511719</ele>
        <time>2020-08-13T11:40:49.000Z</time>
      </trkpt>
      <trkpt lat="44.31983" lon="6.59785">
        <ele>1909.5999755859</ele>
        <time>2020-08-13T11:40:50.000Z</time>
      </trkpt>
      <trkpt lat="44.31991" lon="6.59785">
        <ele>1909.4000244141</ele>
        <time>2020-08-13T11:40:51.000Z</time>
      </trkpt>
      <trkpt lat="44.32006" lon="6.59787">
        <ele>1908.1999511719</ele>
        <time>2020-08-13T11:40:53.000Z</time>
      </trkpt>
      <trkpt lat="44.32014" lon="6.59804">
        <ele>1906.8000488281</ele>
        <time>2020-08-13T11:40:55.000Z</time>
      </trkpt>
      <trkpt lat="44.32012" lon="6.59826">
        <ele>1904.5999755859</ele>
        <time>2020-08-13T11:40:57.000Z</time>
      </trkpt>
      <trkpt lat="44.32013" lon="6.59836">
        <ele>1903.5999755859</ele>
        <time>2020-08-13T11:40:58.000Z</time>
      </trkpt>
      <trkpt lat="44.32016" lon="6.59848">
        <ele>1902.5999755859</ele>
        <time>2020-08-13T11:40:59.000Z</time>
      </trkpt>
      <trkpt lat="44.32022" lon="6.59872">
        <ele>1901</ele>
        <time>2020-08-13T11:41:01.000Z</time>
      </trkpt>
      <trkpt lat="44.32028" lon="6.59897">
        <ele>1900</ele>
        <time>2020-08-13T11:41:03.000Z</time>
      </trkpt>
      <trkpt lat="44.32029" lon="6.59911">
        <ele>1899.4000244141</ele>
        <time>2020-08-13T11:41:04.000Z</time>
      </trkpt>
      <trkpt lat="44.32028" lon="6.59926">
        <ele>1898.8000488281</ele>
        <time>2020-08-13T11:41:05.000Z</time>
      </trkpt>
      <trkpt lat="44.32027" lon="6.59939">
        <ele>1898</ele>
        <time>2020-08-13T11:41:06.000Z</time>
      </trkpt>
      <trkpt lat="44.32025" lon="6.59953">
        <ele>1897</ele>
        <time>2020-08-13T11:41:07.000Z</time>
      </trkpt>
      <trkpt lat="44.32025" lon="6.59965">
        <ele>1896.1999511719</ele>
        <time>2020-08-13T11:41:08.000Z</time>
      </trkpt>
      <trkpt lat="44.32027" lon="6.5998">
        <ele>1895.5999755859</ele>
        <time>2020-08-13T11:41:09.000Z</time>
      </trkpt>
      <trkpt lat="44.32029" lon="6.59994">
        <ele>1894.8000488281</ele>
        <time>2020-08-13T11:41:10.000Z</time>
      </trkpt>
      <trkpt lat="44.32033" lon="6.60024">
        <ele>1893.5999755859</ele>
        <time>2020-08-13T11:41:12.000Z</time>
      </trkpt>
      <trkpt lat="44.32037" lon="6.60052">
        <ele>1892.4000244141</ele>
        <time>2020-08-13T11:41:14.000Z</time>
      </trkpt>
      <trkpt lat="44.32042" lon="6.60064">
        <ele>1891.5999755859</ele>
        <time>2020-08-13T11:41:15.000Z</time>
      </trkpt>
      <trkpt lat="44.32047" lon="6.60074">
        <ele>1891</ele>
        <time>2020-08-13T11:41:16.000Z</time>
      </trkpt>
      <trkpt lat="44.32053" lon="6.60083">
        <ele>1890.4000244141</ele>
        <time>2020-08-13T11:41:17.000Z</time>
      </trkpt>
      <trkpt lat="44.32061" lon="6.60089">
        <ele>1890</ele>
        <time>2020-08-13T11:41:18.000Z</time>
      </trkpt>
      <trkpt lat="44.3208" lon="6.60095">
        <ele>1888.5999755859</ele>
        <time>2020-08-13T11:41:20.000Z</time>
      </trkpt>
      <trkpt lat="44.32091" lon="6.60096">
        <ele>1887.8000488281</ele>
        <time>2020-08-13T11:41:21.000Z</time>
      </trkpt>
      <trkpt lat="44.32101" lon="6.60098">
        <ele>1887.1999511719</ele>
        <time>2020-08-13T11:41:22.000Z</time>
      </trkpt>
      <trkpt lat="44.32123" lon="6.60104">
        <ele>1886</ele>
        <time>2020-08-13T11:41:24.000Z</time>
      </trkpt>
      <trkpt lat="44.32134" lon="6.60107">
        <ele>1885.1999511719</ele>
        <time>2020-08-13T11:41:25.000Z</time>
      </trkpt>
      <trkpt lat="44.32144" lon="6.60107">
        <ele>1883.8000488281</ele>
        <time>2020-08-13T11:41:26.000Z</time>
      </trkpt>
      <trkpt lat="44.32163" lon="6.60104">
        <ele>1883.5999755859</ele>
        <time>2020-08-13T11:41:28.000Z</time>
      </trkpt>
      <trkpt lat="44.32179" lon="6.60107">
        <ele>1882.8000488281</ele>
        <time>2020-08-13T11:41:30.000Z</time>
      </trkpt>
      <trkpt lat="44.32184" lon="6.60114">
        <ele>1882.1999511719</ele>
        <time>2020-08-13T11:41:31.000Z</time>
      </trkpt>
      <trkpt lat="44.32187" lon="6.60124">
        <ele>1881.4000244141</ele>
        <time>2020-08-13T11:41:32.000Z</time>
      </trkpt>
      <trkpt lat="44.32188" lon="6.60134">
        <ele>1880.8000488281</ele>
        <time>2020-08-13T11:41:33.000Z</time>
      </trkpt>
      <trkpt lat="44.32188" lon="6.60146">
        <ele>1880.1999511719</ele>
        <time>2020-08-13T11:41:34.000Z</time>
      </trkpt>
      <trkpt lat="44.32188" lon="6.60158">
        <ele>1879.5999755859</ele>
        <time>2020-08-13T11:41:35.000Z</time>
      </trkpt>
      <trkpt lat="44.32187" lon="6.60171">
        <ele>1879</ele>
        <time>2020-08-13T11:41:36.000Z</time>
      </trkpt>
      <trkpt lat="44.32188" lon="6.60183">
        <ele>1877.8000488281</ele>
        <time>2020-08-13T11:41:37.000Z</time>
      </trkpt>
      <trkpt lat="44.32195" lon="6.60205">
        <ele>1876</ele>
        <time>2020-08-13T11:41:39.000Z</time>
      </trkpt>
      <trkpt lat="44.32202" lon="6.60211">
        <ele>1875.8000488281</ele>
        <time>2020-08-13T11:41:40.000Z</time>
      </trkpt>
      <trkpt lat="44.3221" lon="6.60218">
        <ele>1874.8000488281</ele>
        <time>2020-08-13T11:41:41.000Z</time>
      </trkpt>
      <trkpt lat="44.32219" lon="6.60224">
        <ele>1874.1999511719</ele>
        <time>2020-08-13T11:41:42.000Z</time>
      </trkpt>
      <trkpt lat="44.32228" lon="6.6023">
        <ele>1873.1999511719</ele>
        <time>2020-08-13T11:41:43.000Z</time>
      </trkpt>
      <trkpt lat="44.32237" lon="6.60239">
        <ele>1872</ele>
        <time>2020-08-13T11:41:44.000Z</time>
      </trkpt>
      <trkpt lat="44.32255" lon="6.60256">
        <ele>1870</ele>
        <time>2020-08-13T11:41:46.000Z</time>
      </trkpt>
      <trkpt lat="44.32266" lon="6.60264">
        <ele>1869.1999511719</ele>
        <time>2020-08-13T11:41:47.000Z</time>
      </trkpt>
      <trkpt lat="44.32276" lon="6.6027">
        <ele>1867.8000488281</ele>
        <time>2020-08-13T11:41:48.000Z</time>
      </trkpt>
      <trkpt lat="44.32301" lon="6.60277">
        <ele>1866</ele>
        <time>2020-08-13T11:41:50.000Z</time>
      </trkpt>
      <trkpt lat="44.32312" lon="6.60279">
        <ele>1865</ele>
        <time>2020-08-13T11:41:51.000Z</time>
      </trkpt>
      <trkpt lat="44.32324" lon="6.6028">
        <ele>1863.8000488281</ele>
        <time>2020-08-13T11:41:52.000Z</time>
      </trkpt>
      <trkpt lat="44.32333" lon="6.60283">
        <ele>1863.1999511719</ele>
        <time>2020-08-13T11:41:53.000Z</time>
      </trkpt>
      <trkpt lat="44.32345" lon="6.60289">
        <ele>1862.1999511719</ele>
        <time>2020-08-13T11:41:54.000Z</time>
      </trkpt>
      <trkpt lat="44.32353" lon="6.60296">
        <ele>1861.1999511719</ele>
        <time>2020-08-13T11:41:55.000Z</time>
      </trkpt>
      <trkpt lat="44.32361" lon="6.60301">
        <ele>1860</ele>
        <time>2020-08-13T11:41:56.000Z</time>
      </trkpt>
      <trkpt lat="44.32369" lon="6.60305">
        <ele>1859</ele>
        <time>2020-08-13T11:41:57.000Z</time>
      </trkpt>
      <trkpt lat="44.32375" lon="6.6031">
        <ele>1858.5999755859</ele>
        <time>2020-08-13T11:41:58.000Z</time>
      </trkpt>
      <trkpt lat="44.32385" lon="6.60327">
        <ele>1857.4000244141</ele>
        <time>2020-08-13T11:42:00.000Z</time>
      </trkpt>
      <trkpt lat="44.3239" lon="6.60349">
        <ele>1856.4000244141</ele>
        <time>2020-08-13T11:42:02.000Z</time>
      </trkpt>
      <trkpt lat="44.32393" lon="6.60371">
        <ele>1855.8000488281</ele>
        <time>2020-08-13T11:42:04.000Z</time>
      </trkpt>
      <trkpt lat="44.32396" lon="6.60383">
        <ele>1855.4000244141</ele>
        <time>2020-08-13T11:42:05.000Z</time>
      </trkpt>
      <trkpt lat="44.324" lon="6.60392">
        <ele>1854.8000488281</ele>
        <time>2020-08-13T11:42:06.000Z</time>
      </trkpt>
      <trkpt lat="44.32407" lon="6.604">
        <ele>1854.1999511719</ele>
        <time>2020-08-13T11:42:07.000Z</time>
      </trkpt>
      <trkpt lat="44.32414" lon="6.60405">
        <ele>1853.5999755859</ele>
        <time>2020-08-13T11:42:08.000Z</time>
      </trkpt>
      <trkpt lat="44.32424" lon="6.60409">
        <ele>1853</ele>
        <time>2020-08-13T11:42:09.000Z</time>
      </trkpt>
      <trkpt lat="44.32433" lon="6.6041">
        <ele>1852.1999511719</ele>
        <time>2020-08-13T11:42:10.000Z</time>
      </trkpt>
      <trkpt lat="44.32444" lon="6.6041">
        <ele>1851.1999511719</ele>
        <time>2020-08-13T11:42:11.000Z</time>
      </trkpt>
      <trkpt lat="44.32455" lon="6.60409">
        <ele>1849.8000488281</ele>
        <time>2020-08-13T11:42:12.000Z</time>
      </trkpt>
      <trkpt lat="44.32476" lon="6.60403">
        <ele>1848.5999755859</ele>
        <time>2020-08-13T11:42:14.000Z</time>
      </trkpt>
      <trkpt lat="44.32498" lon="6.60401">
        <ele>1846.8000488281</ele>
        <time>2020-08-13T11:42:16.000Z</time>
      </trkpt>
      <trkpt lat="44.32519" lon="6.60402">
        <ele>1844.8000488281</ele>
        <time>2020-08-13T11:42:18.000Z</time>
      </trkpt>
      <trkpt lat="44.32529" lon="6.604">
        <ele>1844</ele>
        <time>2020-08-13T11:42:19.000Z</time>
      </trkpt>
      <trkpt lat="44.32538" lon="6.60396">
        <ele>1843.5999755859</ele>
        <time>2020-08-13T11:42:20.000Z</time>
      </trkpt>
      <trkpt lat="44.32557" lon="6.60382">
        <ele>1842.4000244141</ele>
        <time>2020-08-13T11:42:22.000Z</time>
      </trkpt>
      <trkpt lat="44.32576" lon="6.60365">
        <ele>1841.1999511719</ele>
        <time>2020-08-13T11:42:24.000Z</time>
      </trkpt>
      <trkpt lat="44.32595" lon="6.60347">
        <ele>1839.1999511719</ele>
        <time>2020-08-13T11:42:26.000Z</time>
      </trkpt>
      <trkpt lat="44.32604" lon="6.60338">
        <ele>1838.1999511719</ele>
        <time>2020-08-13T11:42:27.000Z</time>
      </trkpt>
      <trkpt lat="44.3262" lon="6.60318">
        <ele>1836.1999511719</ele>
        <time>2020-08-13T11:42:29.000Z</time>
      </trkpt>
      <trkpt lat="44.32626" lon="6.60307">
        <ele>1835.1999511719</ele>
        <time>2020-08-13T11:42:30.000Z</time>
      </trkpt>
      <trkpt lat="44.32631" lon="6.60296">
        <ele>1834.1999511719</ele>
        <time>2020-08-13T11:42:31.000Z</time>
      </trkpt>
      <trkpt lat="44.32644" lon="6.60262">
        <ele>1832.8000488281</ele>
        <time>2020-08-13T11:42:34.000Z</time>
      </trkpt>
      <trkpt lat="44.32647" lon="6.60248">
        <ele>1832.1999511719</ele>
        <time>2020-08-13T11:42:35.000Z</time>
      </trkpt>
      <trkpt lat="44.3265" lon="6.60234">
        <ele>1831.4000244141</ele>
        <time>2020-08-13T11:42:36.000Z</time>
      </trkpt>
      <trkpt lat="44.32653" lon="6.60222">
        <ele>1831</ele>
        <time>2020-08-13T11:42:37.000Z</time>
      </trkpt>
      <trkpt lat="44.32657" lon="6.60209">
        <ele>1829.8000488281</ele>
        <time>2020-08-13T11:42:38.000Z</time>
      </trkpt>
      <trkpt lat="44.32663" lon="6.60197">
        <ele>1828.8000488281</ele>
        <time>2020-08-13T11:42:39.000Z</time>
      </trkpt>
      <trkpt lat="44.32668" lon="6.60186">
        <ele>1828.1999511719</ele>
        <time>2020-08-13T11:42:40.000Z</time>
      </trkpt>
      <trkpt lat="44.32679" lon="6.60161">
        <ele>1827</ele>
        <time>2020-08-13T11:42:42.000Z</time>
      </trkpt>
      <trkpt lat="44.32686" lon="6.60151">
        <ele>1826.4000244141</ele>
        <time>2020-08-13T11:42:43.000Z</time>
      </trkpt>
      <trkpt lat="44.32695" lon="6.60141">
        <ele>1825.5999755859</ele>
        <time>2020-08-13T11:42:44.000Z</time>
      </trkpt>
      <trkpt lat="44.32711" lon="6.60124">
        <ele>1824</ele>
        <time>2020-08-13T11:42:46.000Z</time>
      </trkpt>
      <trkpt lat="44.32722" lon="6.60106">
        <ele>1822.8000488281</ele>
        <time>2020-08-13T11:42:48.000Z</time>
      </trkpt>
      <trkpt lat="44.32727" lon="6.60081">
        <ele>1821.4000244141</ele>
        <time>2020-08-13T11:42:50.000Z</time>
      </trkpt>
      <trkpt lat="44.32729" lon="6.60069">
        <ele>1820.8000488281</ele>
        <time>2020-08-13T11:42:51.000Z</time>
      </trkpt>
      <trkpt lat="44.32731" lon="6.60059">
        <ele>1820.1999511719</ele>
        <time>2020-08-13T11:42:52.000Z</time>
      </trkpt>
      <trkpt lat="44.32735" lon="6.60049">
        <ele>1819.8000488281</ele>
        <time>2020-08-13T11:42:53.000Z</time>
      </trkpt>
      <trkpt lat="44.32747" lon="6.60033">
        <ele>1819</ele>
        <time>2020-08-13T11:42:55.000Z</time>
      </trkpt>
      <trkpt lat="44.32771" lon="6.60025">
        <ele>1817.4000244141</ele>
        <time>2020-08-13T11:42:58.000Z</time>
      </trkpt>
      <trkpt lat="44.32788" lon="6.60024">
        <ele>1815.8000488281</ele>
        <time>2020-08-13T11:43:00.000Z</time>
      </trkpt>
      <trkpt lat="44.32795" lon="6.60022">
        <ele>1815</ele>
        <time>2020-08-13T11:43:01.000Z</time>
      </trkpt>
      <trkpt lat="44.328" lon="6.60017">
        <ele>1814.1999511719</ele>
        <time>2020-08-13T11:43:02.000Z</time>
      </trkpt>
      <trkpt lat="44.32803" lon="6.59999">
        <ele>1813.1999511719</ele>
        <time>2020-08-13T11:43:04.000Z</time>
      </trkpt>
      <trkpt lat="44.32801" lon="6.59976">
        <ele>1812</ele>
        <time>2020-08-13T11:43:06.000Z</time>
      </trkpt>
      <trkpt lat="44.32801" lon="6.59964">
        <ele>1811.4000244141</ele>
        <time>2020-08-13T11:43:07.000Z</time>
      </trkpt>
      <trkpt lat="44.32802" lon="6.59952">
        <ele>1810.8000488281</ele>
        <time>2020-08-13T11:43:08.000Z</time>
      </trkpt>
      <trkpt lat="44.32801" lon="6.59927">
        <ele>1810</ele>
        <time>2020-08-13T11:43:10.000Z</time>
      </trkpt>
      <trkpt lat="44.32801" lon="6.59915">
        <ele>1809.1999511719</ele>
        <time>2020-08-13T11:43:11.000Z</time>
      </trkpt>
      <trkpt lat="44.32801" lon="6.59904">
        <ele>1808.5999755859</ele>
        <time>2020-08-13T11:43:12.000Z</time>
      </trkpt>
      <trkpt lat="44.32805" lon="6.59893">
        <ele>1808</ele>
        <time>2020-08-13T11:43:13.000Z</time>
      </trkpt>
      <trkpt lat="44.3281" lon="6.59883">
        <ele>1807</ele>
        <time>2020-08-13T11:43:14.000Z</time>
      </trkpt>
      <trkpt lat="44.32822" lon="6.59866">
        <ele>1805.8000488281</ele>
        <time>2020-08-13T11:43:16.000Z</time>
      </trkpt>
      <trkpt lat="44.32828" lon="6.59855">
        <ele>1805</ele>
        <time>2020-08-13T11:43:17.000Z</time>
      </trkpt>
      <trkpt lat="44.32833" lon="6.59844">
        <ele>1804.4000244141</ele>
        <time>2020-08-13T11:43:18.000Z</time>
      </trkpt>
      <trkpt lat="44.3284" lon="6.59821">
        <ele>1803.4000244141</ele>
        <time>2020-08-13T11:43:20.000Z</time>
      </trkpt>
      <trkpt lat="44.32843" lon="6.59808">
        <ele>1802.8000488281</ele>
        <time>2020-08-13T11:43:21.000Z</time>
      </trkpt>
      <trkpt lat="44.32845" lon="6.59796">
        <ele>1802.1999511719</ele>
        <time>2020-08-13T11:43:22.000Z</time>
      </trkpt>
      <trkpt lat="44.32846" lon="6.59783">
        <ele>1801.5999755859</ele>
        <time>2020-08-13T11:43:23.000Z</time>
      </trkpt>
      <trkpt lat="44.32846" lon="6.5977">
        <ele>1800.1999511719</ele>
        <time>2020-08-13T11:43:24.000Z</time>
      </trkpt>
      <trkpt lat="44.32846" lon="6.59758">
        <ele>1799.5999755859</ele>
        <time>2020-08-13T11:43:25.000Z</time>
      </trkpt>
      <trkpt lat="44.32845" lon="6.59745">
        <ele>1798.8000488281</ele>
        <time>2020-08-13T11:43:26.000Z</time>
      </trkpt>
      <trkpt lat="44.32843" lon="6.59721">
        <ele>1797.5999755859</ele>
        <time>2020-08-13T11:43:28.000Z</time>
      </trkpt>
      <trkpt lat="44.3284" lon="6.59698">
        <ele>1796.4000244141</ele>
        <time>2020-08-13T11:43:30.000Z</time>
      </trkpt>
      <trkpt lat="44.32829" lon="6.59684">
        <ele>1795.5999755859</ele>
        <time>2020-08-13T11:43:32.000Z</time>
      </trkpt>
      <trkpt lat="44.32822" lon="6.59679">
        <ele>1795.1999511719</ele>
        <time>2020-08-13T11:43:33.000Z</time>
      </trkpt>
      <trkpt lat="44.32809" lon="6.59657">
        <ele>1794.4000244141</ele>
        <time>2020-08-13T11:43:36.000Z</time>
      </trkpt>
      <trkpt lat="44.32809" lon="6.59646">
        <ele>1793.8000488281</ele>
        <time>2020-08-13T11:43:37.000Z</time>
      </trkpt>
      <trkpt lat="44.3281" lon="6.59637">
        <ele>1793.1999511719</ele>
        <time>2020-08-13T11:43:38.000Z</time>
      </trkpt>
      <trkpt lat="44.3281" lon="6.59624">
        <ele>1792.4000244141</ele>
        <time>2020-08-13T11:43:39.000Z</time>
      </trkpt>
      <trkpt lat="44.32813" lon="6.59599">
        <ele>1790.8000488281</ele>
        <time>2020-08-13T11:43:41.000Z</time>
      </trkpt>
      <trkpt lat="44.32816" lon="6.59574">
        <ele>1789.1999511719</ele>
        <time>2020-08-13T11:43:43.000Z</time>
      </trkpt>
      <trkpt lat="44.32819" lon="6.59559">
        <ele>1788.4000244141</ele>
        <time>2020-08-13T11:43:44.000Z</time>
      </trkpt>
      <trkpt lat="44.32823" lon="6.59545">
        <ele>1787.5999755859</ele>
        <time>2020-08-13T11:43:45.000Z</time>
      </trkpt>
      <trkpt lat="44.32828" lon="6.59518">
        <ele>1785.8000488281</ele>
        <time>2020-08-13T11:43:47.000Z</time>
      </trkpt>
      <trkpt lat="44.32829" lon="6.59504">
        <ele>1784.8000488281</ele>
        <time>2020-08-13T11:43:48.000Z</time>
      </trkpt>
      <trkpt lat="44.32829" lon="6.5949">
        <ele>1784.4000244141</ele>
        <time>2020-08-13T11:43:49.000Z</time>
      </trkpt>
      <trkpt lat="44.32826" lon="6.59461">
        <ele>1783.1999511719</ele>
        <time>2020-08-13T11:43:51.000Z</time>
      </trkpt>
      <trkpt lat="44.32822" lon="6.59432">
        <ele>1781.5999755859</ele>
        <time>2020-08-13T11:43:53.000Z</time>
      </trkpt>
      <trkpt lat="44.32819" lon="6.59415">
        <ele>1780.4000244141</ele>
        <time>2020-08-13T11:43:54.000Z</time>
      </trkpt>
      <trkpt lat="44.32813" lon="6.59385">
        <ele>1778.8000488281</ele>
        <time>2020-08-13T11:43:56.000Z</time>
      </trkpt>
      <trkpt lat="44.32813" lon="6.59373">
        <ele>1778</ele>
        <time>2020-08-13T11:43:57.000Z</time>
      </trkpt>
      <trkpt lat="44.32813" lon="6.5936">
        <ele>1777.1999511719</ele>
        <time>2020-08-13T11:43:58.000Z</time>
      </trkpt>
      <trkpt lat="44.32814" lon="6.59347">
        <ele>1776.8000488281</ele>
        <time>2020-08-13T11:43:59.000Z</time>
      </trkpt>
      <trkpt lat="44.32812" lon="6.59335">
        <ele>1776</ele>
        <time>2020-08-13T11:44:00.000Z</time>
      </trkpt>
      <trkpt lat="44.32809" lon="6.59325">
        <ele>1775</ele>
        <time>2020-08-13T11:44:01.000Z</time>
      </trkpt>
      <trkpt lat="44.32805" lon="6.59314">
        <ele>1774.4000244141</ele>
        <time>2020-08-13T11:44:02.000Z</time>
      </trkpt>
      <trkpt lat="44.32795" lon="6.59292">
        <ele>1773.4000244141</ele>
        <time>2020-08-13T11:44:04.000Z</time>
      </trkpt>
      <trkpt lat="44.32781" lon="6.59261">
        <ele>1772.4000244141</ele>
        <time>2020-08-13T11:44:07.000Z</time>
      </trkpt>
      <trkpt lat="44.32779" lon="6.5925">
        <ele>1772.1999511719</ele>
        <time>2020-08-13T11:44:08.000Z</time>
      </trkpt>
      <trkpt lat="44.32782" lon="6.59227">
        <ele>1771.4000244141</ele>
        <time>2020-08-13T11:44:10.000Z</time>
      </trkpt>
      <trkpt lat="44.32791" lon="6.59222">
        <ele>1771.5999755859</ele>
        <time>2020-08-13T11:44:11.000Z</time>
      </trkpt>
      <trkpt lat="44.32798" lon="6.59214">
        <ele>1771.5999755859</ele>
        <time>2020-08-13T11:44:12.000Z</time>
      </trkpt>
      <trkpt lat="44.32808" lon="6.5921">
        <ele>1770.8000488281</ele>
        <time>2020-08-13T11:44:13.000Z</time>
      </trkpt>
      <trkpt lat="44.32817" lon="6.59203">
        <ele>1769.4000244141</ele>
        <time>2020-08-13T11:44:14.000Z</time>
      </trkpt>
      <trkpt lat="44.32825" lon="6.59195">
        <ele>1768.8000488281</ele>
        <time>2020-08-13T11:44:15.000Z</time>
      </trkpt>
      <trkpt lat="44.32831" lon="6.59187">
        <ele>1767.8000488281</ele>
        <time>2020-08-13T11:44:16.000Z</time>
      </trkpt>
      <trkpt lat="44.32844" lon="6.59165">
        <ele>1766.4000244141</ele>
        <time>2020-08-13T11:44:18.000Z</time>
      </trkpt>
      <trkpt lat="44.32854" lon="6.5914">
        <ele>1764.8000488281</ele>
        <time>2020-08-13T11:44:20.000Z</time>
      </trkpt>
      <trkpt lat="44.32859" lon="6.59129">
        <ele>1763.8000488281</ele>
        <time>2020-08-13T11:44:21.000Z</time>
      </trkpt>
      <trkpt lat="44.32862" lon="6.59118">
        <ele>1762.8000488281</ele>
        <time>2020-08-13T11:44:22.000Z</time>
      </trkpt>
      <trkpt lat="44.32865" lon="6.59098">
        <ele>1761.1999511719</ele>
        <time>2020-08-13T11:44:24.000Z</time>
      </trkpt>
      <trkpt lat="44.32864" lon="6.59089">
        <ele>1760.8000488281</ele>
        <time>2020-08-13T11:44:25.000Z</time>
      </trkpt>
      <trkpt lat="44.32864" lon="6.59079">
        <ele>1760.4000244141</ele>
        <time>2020-08-13T11:44:26.000Z</time>
      </trkpt>
      <trkpt lat="44.32865" lon="6.59069">
        <ele>1759.8000488281</ele>
        <time>2020-08-13T11:44:27.000Z</time>
      </trkpt>
      <trkpt lat="44.32874" lon="6.59057">
        <ele>1758.4000244141</ele>
        <time>2020-08-13T11:44:29.000Z</time>
      </trkpt>
      <trkpt lat="44.32886" lon="6.59063">
        <ele>1757.5999755859</ele>
        <time>2020-08-13T11:44:31.000Z</time>
      </trkpt>
      <trkpt lat="44.32889" lon="6.59072">
        <ele>1757</ele>
        <time>2020-08-13T11:44:32.000Z</time>
      </trkpt>
      <trkpt lat="44.32891" lon="6.59082">
        <ele>1756.1999511719</ele>
        <time>2020-08-13T11:44:33.000Z</time>
      </trkpt>
      <trkpt lat="44.32892" lon="6.59092">
        <ele>1755.1999511719</ele>
        <time>2020-08-13T11:44:34.000Z</time>
      </trkpt>
      <trkpt lat="44.32894" lon="6.59115">
        <ele>1753</ele>
        <time>2020-08-13T11:44:36.000Z</time>
      </trkpt>
      <trkpt lat="44.32894" lon="6.59128">
        <ele>1752</ele>
        <time>2020-08-13T11:44:37.000Z</time>
      </trkpt>
      <trkpt lat="44.32895" lon="6.5914">
        <ele>1750.8000488281</ele>
        <time>2020-08-13T11:44:38.000Z</time>
      </trkpt>
      <trkpt lat="44.32895" lon="6.59166">
        <ele>1749.8000488281</ele>
        <time>2020-08-13T11:44:40.000Z</time>
      </trkpt>
      <trkpt lat="44.32893" lon="6.59181">
        <ele>1749.1999511719</ele>
        <time>2020-08-13T11:44:41.000Z</time>
      </trkpt>
      <trkpt lat="44.32891" lon="6.59194">
        <ele>1748.4000244141</ele>
        <time>2020-08-13T11:44:42.000Z</time>
      </trkpt>
      <trkpt lat="44.32891" lon="6.59206">
        <ele>1747.4000244141</ele>
        <time>2020-08-13T11:44:43.000Z</time>
      </trkpt>
      <trkpt lat="44.32891" lon="6.59219">
        <ele>1746.5999755859</ele>
        <time>2020-08-13T11:44:44.000Z</time>
      </trkpt>
      <trkpt lat="44.32892" lon="6.5923">
        <ele>1745.8000488281</ele>
        <time>2020-08-13T11:44:45.000Z</time>
      </trkpt>
      <trkpt lat="44.32891" lon="6.59242">
        <ele>1744.5999755859</ele>
        <time>2020-08-13T11:44:46.000Z</time>
      </trkpt>
      <trkpt lat="44.32888" lon="6.59255">
        <ele>1743.4000244141</ele>
        <time>2020-08-13T11:44:47.000Z</time>
      </trkpt>
      <trkpt lat="44.3288" lon="6.59277">
        <ele>1742</ele>
        <time>2020-08-13T11:44:49.000Z</time>
      </trkpt>
      <trkpt lat="44.32875" lon="6.59288">
        <ele>1741.4000244141</ele>
        <time>2020-08-13T11:44:50.000Z</time>
      </trkpt>
      <trkpt lat="44.32872" lon="6.59298">
        <ele>1740.8000488281</ele>
        <time>2020-08-13T11:44:51.000Z</time>
      </trkpt>
      <trkpt lat="44.3287" lon="6.59307">
        <ele>1740.5999755859</ele>
        <time>2020-08-13T11:44:52.000Z</time>
      </trkpt>
      <trkpt lat="44.3287" lon="6.59315">
        <ele>1740</ele>
        <time>2020-08-13T11:44:53.000Z</time>
      </trkpt>
      <trkpt lat="44.32873" lon="6.59322">
        <ele>1739.8000488281</ele>
        <time>2020-08-13T11:44:54.000Z</time>
      </trkpt>
      <trkpt lat="44.32878" lon="6.59328">
        <ele>1739.4000244141</ele>
        <time>2020-08-13T11:44:55.000Z</time>
      </trkpt>
      <trkpt lat="44.32891" lon="6.59322">
        <ele>1738.1999511719</ele>
        <time>2020-08-13T11:44:57.000Z</time>
      </trkpt>
      <trkpt lat="44.32908" lon="6.593">
        <ele>1736.4000244141</ele>
        <time>2020-08-13T11:45:00.000Z</time>
      </trkpt>
      <trkpt lat="44.32925" lon="6.59275">
        <ele>1734.5999755859</ele>
        <time>2020-08-13T11:45:03.000Z</time>
      </trkpt>
      <trkpt lat="44.3293" lon="6.59265">
        <ele>1733.8000488281</ele>
        <time>2020-08-13T11:45:04.000Z</time>
      </trkpt>
      <trkpt lat="44.3293" lon="6.59253">
        <ele>1733.1999511719</ele>
        <time>2020-08-13T11:45:05.000Z</time>
      </trkpt>
      <trkpt lat="44.32928" lon="6.59243">
        <ele>1732.8000488281</ele>
        <time>2020-08-13T11:45:06.000Z</time>
      </trkpt>
      <trkpt lat="44.32926" lon="6.59233">
        <ele>1732.1999511719</ele>
        <time>2020-08-13T11:45:07.000Z</time>
      </trkpt>
      <trkpt lat="44.32924" lon="6.59223">
        <ele>1731.8000488281</ele>
        <time>2020-08-13T11:45:08.000Z</time>
      </trkpt>
      <trkpt lat="44.3293" lon="6.59203">
        <ele>1731.1999511719</ele>
        <time>2020-08-13T11:45:10.000Z</time>
      </trkpt>
      <trkpt lat="44.32941" lon="6.59187">
        <ele>1730.5999755859</ele>
        <time>2020-08-13T11:45:12.000Z</time>
      </trkpt>
      <trkpt lat="44.32946" lon="6.59179">
        <ele>1729.8000488281</ele>
        <time>2020-08-13T11:45:13.000Z</time>
      </trkpt>
      <trkpt lat="44.32949" lon="6.59169">
        <ele>1729</ele>
        <time>2020-08-13T11:45:14.000Z</time>
      </trkpt>
      <trkpt lat="44.32951" lon="6.59145">
        <ele>1727.8000488281</ele>
        <time>2020-08-13T11:45:16.000Z</time>
      </trkpt>
      <trkpt lat="44.32958" lon="6.59109">
        <ele>1726.8000488281</ele>
        <time>2020-08-13T11:45:19.000Z</time>
      </trkpt>
      <trkpt lat="44.32967" lon="6.59086">
        <ele>1725.4000244141</ele>
        <time>2020-08-13T11:45:21.000Z</time>
      </trkpt>
      <trkpt lat="44.32972" lon="6.59075">
        <ele>1724.8000488281</ele>
        <time>2020-08-13T11:45:22.000Z</time>
      </trkpt>
      <trkpt lat="44.32977" lon="6.59064">
        <ele>1724.1999511719</ele>
        <time>2020-08-13T11:45:23.000Z</time>
      </trkpt>
      <trkpt lat="44.32982" lon="6.59052">
        <ele>1723.4000244141</ele>
        <time>2020-08-13T11:45:24.000Z</time>
      </trkpt>
      <trkpt lat="44.32988" lon="6.5904">
        <ele>1723</ele>
        <time>2020-08-13T11:45:25.000Z</time>
      </trkpt>
      <trkpt lat="44.32994" lon="6.5903">
        <ele>1722</ele>
        <time>2020-08-13T11:45:26.000Z</time>
      </trkpt>
      <trkpt lat="44.33001" lon="6.59021">
        <ele>1721.1999511719</ele>
        <time>2020-08-13T11:45:27.000Z</time>
      </trkpt>
      <trkpt lat="44.33009" lon="6.59014">
        <ele>1721</ele>
        <time>2020-08-13T11:45:28.000Z</time>
      </trkpt>
      <trkpt lat="44.33039" lon="6.58998">
        <ele>1720</ele>
        <time>2020-08-13T11:45:31.000Z</time>
      </trkpt>
      <trkpt lat="44.33059" lon="6.58992">
        <ele>1719.4000244141</ele>
        <time>2020-08-13T11:45:33.000Z</time>
      </trkpt>
      <trkpt lat="44.33069" lon="6.5899">
        <ele>1718.8000488281</ele>
        <time>2020-08-13T11:45:34.000Z</time>
      </trkpt>
      <trkpt lat="44.33078" lon="6.58987">
        <ele>1718</ele>
        <time>2020-08-13T11:45:35.000Z</time>
      </trkpt>
      <trkpt lat="44.33085" lon="6.58982">
        <ele>1717.5999755859</ele>
        <time>2020-08-13T11:45:36.000Z</time>
      </trkpt>
      <trkpt lat="44.33099" lon="6.58969">
        <ele>1716.5999755859</ele>
        <time>2020-08-13T11:45:38.000Z</time>
      </trkpt>
      <trkpt lat="44.33106" lon="6.58961">
        <ele>1716.1999511719</ele>
        <time>2020-08-13T11:45:39.000Z</time>
      </trkpt>
      <trkpt lat="44.33112" lon="6.58939">
        <ele>1715.4000244141</ele>
        <time>2020-08-13T11:45:41.000Z</time>
      </trkpt>
      <trkpt lat="44.33113" lon="6.58927">
        <ele>1715</ele>
        <time>2020-08-13T11:45:42.000Z</time>
      </trkpt>
      <trkpt lat="44.33113" lon="6.58903">
        <ele>1714.1999511719</ele>
        <time>2020-08-13T11:45:44.000Z</time>
      </trkpt>
      <trkpt lat="44.33112" lon="6.5889">
        <ele>1713.8000488281</ele>
        <time>2020-08-13T11:45:45.000Z</time>
      </trkpt>
      <trkpt lat="44.33103" lon="6.5887">
        <ele>1712.8000488281</ele>
        <time>2020-08-13T11:45:47.000Z</time>
      </trkpt>
      <trkpt lat="44.33083" lon="6.58845">
        <ele>1711.4000244141</ele>
        <time>2020-08-13T11:45:50.000Z</time>
      </trkpt>
      <trkpt lat="44.33076" lon="6.58837">
        <ele>1710.8000488281</ele>
        <time>2020-08-13T11:45:51.000Z</time>
      </trkpt>
      <trkpt lat="44.3307" lon="6.58828">
        <ele>1710.1999511719</ele>
        <time>2020-08-13T11:45:52.000Z</time>
      </trkpt>
      <trkpt lat="44.33054" lon="6.58813">
        <ele>1709.1999511719</ele>
        <time>2020-08-13T11:45:54.000Z</time>
      </trkpt>
      <trkpt lat="44.33045" lon="6.58808">
        <ele>1708.8000488281</ele>
        <time>2020-08-13T11:45:55.000Z</time>
      </trkpt>
      <trkpt lat="44.33029" lon="6.58799">
        <ele>1707.4000244141</ele>
        <time>2020-08-13T11:45:57.000Z</time>
      </trkpt>
      <trkpt lat="44.33023" lon="6.58794">
        <ele>1706.5999755859</ele>
        <time>2020-08-13T11:45:58.000Z</time>
      </trkpt>
      <trkpt lat="44.33016" lon="6.58788">
        <ele>1705.8000488281</ele>
        <time>2020-08-13T11:45:59.000Z</time>
      </trkpt>
      <trkpt lat="44.3301" lon="6.58775">
        <ele>1704.5999755859</ele>
        <time>2020-08-13T11:46:01.000Z</time>
      </trkpt>
      <trkpt lat="44.33011" lon="6.58766">
        <ele>1704</ele>
        <time>2020-08-13T11:46:02.000Z</time>
      </trkpt>
      <trkpt lat="44.33018" lon="6.58754">
        <ele>1703.5999755859</ele>
        <time>2020-08-13T11:46:04.000Z</time>
      </trkpt>
      <trkpt lat="44.33045" lon="6.58744">
        <ele>1703.4000244141</ele>
        <time>2020-08-13T11:46:08.000Z</time>
      </trkpt>
      <trkpt lat="44.33085" lon="6.58727">
        <ele>1702.1999511719</ele>
        <time>2020-08-13T11:46:13.000Z</time>
      </trkpt>
      <trkpt lat="44.33103" lon="6.58714">
        <ele>1701</ele>
        <time>2020-08-13T11:46:15.000Z</time>
      </trkpt>
      <trkpt lat="44.3311" lon="6.58707">
        <ele>1700</ele>
        <time>2020-08-13T11:46:16.000Z</time>
      </trkpt>
      <trkpt lat="44.33116" lon="6.58698">
        <ele>1698.8000488281</ele>
        <time>2020-08-13T11:46:17.000Z</time>
      </trkpt>
      <trkpt lat="44.33121" lon="6.58688">
        <ele>1697.8000488281</ele>
        <time>2020-08-13T11:46:18.000Z</time>
      </trkpt>
      <trkpt lat="44.33128" lon="6.58662">
        <ele>1695.8000488281</ele>
        <time>2020-08-13T11:46:20.000Z</time>
      </trkpt>
      <trkpt lat="44.33136" lon="6.58635">
        <ele>1693.8000488281</ele>
        <time>2020-08-13T11:46:22.000Z</time>
      </trkpt>
      <trkpt lat="44.33141" lon="6.58624">
        <ele>1693.1999511719</ele>
        <time>2020-08-13T11:46:23.000Z</time>
      </trkpt>
      <trkpt lat="44.33148" lon="6.58612">
        <ele>1692.8000488281</ele>
        <time>2020-08-13T11:46:24.000Z</time>
      </trkpt>
      <trkpt lat="44.33174" lon="6.58574">
        <ele>1691.5999755859</ele>
        <time>2020-08-13T11:46:28.000Z</time>
      </trkpt>
      <trkpt lat="44.3319" lon="6.58546">
        <ele>1690.4000244141</ele>
        <time>2020-08-13T11:46:31.000Z</time>
      </trkpt>
      <trkpt lat="44.33198" lon="6.58526">
        <ele>1690</ele>
        <time>2020-08-13T11:46:33.000Z</time>
      </trkpt>
      <trkpt lat="44.332" lon="6.58515">
        <ele>1689.4000244141</ele>
        <time>2020-08-13T11:46:34.000Z</time>
      </trkpt>
      <trkpt lat="44.33197" lon="6.5849">
        <ele>1688.4000244141</ele>
        <time>2020-08-13T11:46:36.000Z</time>
      </trkpt>
      <trkpt lat="44.33193" lon="6.5848">
        <ele>1687.8000488281</ele>
        <time>2020-08-13T11:46:37.000Z</time>
      </trkpt>
      <trkpt lat="44.33188" lon="6.58462">
        <ele>1686.1999511719</ele>
        <time>2020-08-13T11:46:39.000Z</time>
      </trkpt>
      <trkpt lat="44.33193" lon="6.58447">
        <ele>1684.8000488281</ele>
        <time>2020-08-13T11:46:41.000Z</time>
      </trkpt>
      <trkpt lat="44.33212" lon="6.58441">
        <ele>1684</ele>
        <time>2020-08-13T11:46:44.000Z</time>
      </trkpt>
      <trkpt lat="44.33218" lon="6.58445">
        <ele>1683.4000244141</ele>
        <time>2020-08-13T11:46:45.000Z</time>
      </trkpt>
      <trkpt lat="44.33225" lon="6.58449">
        <ele>1683</ele>
        <time>2020-08-13T11:46:46.000Z</time>
      </trkpt>
      <trkpt lat="44.33239" lon="6.5846">
        <ele>1682.1999511719</ele>
        <time>2020-08-13T11:46:48.000Z</time>
      </trkpt>
      <trkpt lat="44.3325" lon="6.58478">
        <ele>1681</ele>
        <time>2020-08-13T11:46:50.000Z</time>
      </trkpt>
      <trkpt lat="44.33254" lon="6.58487">
        <ele>1680.5999755859</ele>
        <time>2020-08-13T11:46:51.000Z</time>
      </trkpt>
      <trkpt lat="44.33258" lon="6.58496">
        <ele>1680</ele>
        <time>2020-08-13T11:46:52.000Z</time>
      </trkpt>
      <trkpt lat="44.33264" lon="6.58504">
        <ele>1679.4000244141</ele>
        <time>2020-08-13T11:46:53.000Z</time>
      </trkpt>
      <trkpt lat="44.33271" lon="6.58511">
        <ele>1678.8000488281</ele>
        <time>2020-08-13T11:46:54.000Z</time>
      </trkpt>
      <trkpt lat="44.3328" lon="6.58515">
        <ele>1678.4000244141</ele>
        <time>2020-08-13T11:46:55.000Z</time>
      </trkpt>
      <trkpt lat="44.33299" lon="6.58516">
        <ele>1677.4000244141</ele>
        <time>2020-08-13T11:46:57.000Z</time>
      </trkpt>
      <trkpt lat="44.33308" lon="6.58514">
        <ele>1676.8000488281</ele>
        <time>2020-08-13T11:46:58.000Z</time>
      </trkpt>
      <trkpt lat="44.3332" lon="6.58512">
        <ele>1676.1999511719</ele>
        <time>2020-08-13T11:46:59.000Z</time>
      </trkpt>
      <trkpt lat="44.3334" lon="6.58509">
        <ele>1674.4000244141</ele>
        <time>2020-08-13T11:47:01.000Z</time>
      </trkpt>
      <trkpt lat="44.33361" lon="6.58501">
        <ele>1673</ele>
        <time>2020-08-13T11:47:03.000Z</time>
      </trkpt>
      <trkpt lat="44.33371" lon="6.58495">
        <ele>1672.4000244141</ele>
        <time>2020-08-13T11:47:04.000Z</time>
      </trkpt>
      <trkpt lat="44.33381" lon="6.58485">
        <ele>1671.5999755859</ele>
        <time>2020-08-13T11:47:05.000Z</time>
      </trkpt>
      <trkpt lat="44.33391" lon="6.58477">
        <ele>1670.8000488281</ele>
        <time>2020-08-13T11:47:06.000Z</time>
      </trkpt>
      <trkpt lat="44.33401" lon="6.58469">
        <ele>1669.5999755859</ele>
        <time>2020-08-13T11:47:07.000Z</time>
      </trkpt>
      <trkpt lat="44.33412" lon="6.58462">
        <ele>1668.4000244141</ele>
        <time>2020-08-13T11:47:08.000Z</time>
      </trkpt>
      <trkpt lat="44.33423" lon="6.58456">
        <ele>1667.1999511719</ele>
        <time>2020-08-13T11:47:09.000Z</time>
      </trkpt>
      <trkpt lat="44.33433" lon="6.58453">
        <ele>1666.1999511719</ele>
        <time>2020-08-13T11:47:10.000Z</time>
      </trkpt>
      <trkpt lat="44.33444" lon="6.58451">
        <ele>1665</ele>
        <time>2020-08-13T11:47:11.000Z</time>
      </trkpt>
      <trkpt lat="44.33466" lon="6.58451">
        <ele>1663.8000488281</ele>
        <time>2020-08-13T11:47:13.000Z</time>
      </trkpt>
      <trkpt lat="44.33477" lon="6.5845">
        <ele>1663</ele>
        <time>2020-08-13T11:47:14.000Z</time>
      </trkpt>
      <trkpt lat="44.33488" lon="6.58446">
        <ele>1662.4000244141</ele>
        <time>2020-08-13T11:47:15.000Z</time>
      </trkpt>
      <trkpt lat="44.33496" lon="6.5844">
        <ele>1661.8000488281</ele>
        <time>2020-08-13T11:47:16.000Z</time>
      </trkpt>
      <trkpt lat="44.33504" lon="6.58431">
        <ele>1661.4000244141</ele>
        <time>2020-08-13T11:47:17.000Z</time>
      </trkpt>
      <trkpt lat="44.33509" lon="6.58421">
        <ele>1661.1999511719</ele>
        <time>2020-08-13T11:47:18.000Z</time>
      </trkpt>
      <trkpt lat="44.33519" lon="6.58398">
        <ele>1660.5999755859</ele>
        <time>2020-08-13T11:47:20.000Z</time>
      </trkpt>
      <trkpt lat="44.33525" lon="6.58387">
        <ele>1660.4000244141</ele>
        <time>2020-08-13T11:47:21.000Z</time>
      </trkpt>
      <trkpt lat="44.33529" lon="6.58379">
        <ele>1660.1999511719</ele>
        <time>2020-08-13T11:47:22.000Z</time>
      </trkpt>
      <trkpt lat="44.33547" lon="6.58348">
        <ele>1659.8000488281</ele>
        <time>2020-08-13T11:47:25.000Z</time>
      </trkpt>
      <trkpt lat="44.3356" lon="6.58331">
        <ele>1659.1999511719</ele>
        <time>2020-08-13T11:47:27.000Z</time>
      </trkpt>
      <trkpt lat="44.33576" lon="6.58321">
        <ele>1658</ele>
        <time>2020-08-13T11:47:29.000Z</time>
      </trkpt>
      <trkpt lat="44.33585" lon="6.5832">
        <ele>1657.1999511719</ele>
        <time>2020-08-13T11:47:30.000Z</time>
      </trkpt>
      <trkpt lat="44.33594" lon="6.58318">
        <ele>1657</ele>
        <time>2020-08-13T11:47:31.000Z</time>
      </trkpt>
      <trkpt lat="44.33603" lon="6.58315">
        <ele>1656.4000244141</ele>
        <time>2020-08-13T11:47:32.000Z</time>
      </trkpt>
      <trkpt lat="44.33618" lon="6.58304">
        <ele>1655.4000244141</ele>
        <time>2020-08-13T11:47:34.000Z</time>
      </trkpt>
      <trkpt lat="44.33625" lon="6.58298">
        <ele>1654.8000488281</ele>
        <time>2020-08-13T11:47:35.000Z</time>
      </trkpt>
      <trkpt lat="44.33639" lon="6.58293">
        <ele>1654.4000244141</ele>
        <time>2020-08-13T11:47:37.000Z</time>
      </trkpt>
      <trkpt lat="44.3365" lon="6.58305">
        <ele>1654.1999511719</ele>
        <time>2020-08-13T11:47:39.000Z</time>
      </trkpt>
      <trkpt lat="44.33652" lon="6.58326">
        <ele>1653.8000488281</ele>
        <time>2020-08-13T11:47:41.000Z</time>
      </trkpt>
      <trkpt lat="44.33651" lon="6.58337">
        <ele>1653.8000488281</ele>
        <time>2020-08-13T11:47:42.000Z</time>
      </trkpt>
      <trkpt lat="44.33645" lon="6.58357">
        <ele>1653.4000244141</ele>
        <time>2020-08-13T11:47:44.000Z</time>
      </trkpt>
      <trkpt lat="44.33629" lon="6.58386">
        <ele>1652.5999755859</ele>
        <time>2020-08-13T11:47:47.000Z</time>
      </trkpt>
      <trkpt lat="44.33623" lon="6.5841">
        <ele>1651.4000244141</ele>
        <time>2020-08-13T11:47:49.000Z</time>
      </trkpt>
      <trkpt lat="44.33621" lon="6.58423">
        <ele>1651</ele>
        <time>2020-08-13T11:47:50.000Z</time>
      </trkpt>
      <trkpt lat="44.33618" lon="6.58435">
        <ele>1649.8000488281</ele>
        <time>2020-08-13T11:47:51.000Z</time>
      </trkpt>
      <trkpt lat="44.33617" lon="6.58447">
        <ele>1649.5999755859</ele>
        <time>2020-08-13T11:47:52.000Z</time>
      </trkpt>
      <trkpt lat="44.33616" lon="6.58472">
        <ele>1648.8000488281</ele>
        <time>2020-08-13T11:47:54.000Z</time>
      </trkpt>
      <trkpt lat="44.33617" lon="6.58488">
        <ele>1648.4000244141</ele>
        <time>2020-08-13T11:47:55.000Z</time>
      </trkpt>
      <trkpt lat="44.3361" lon="6.58525">
        <ele>1647.5999755859</ele>
        <time>2020-08-13T11:47:58.000Z</time>
      </trkpt>
      <trkpt lat="44.33598" lon="6.58548">
        <ele>1646.5999755859</ele>
        <time>2020-08-13T11:48:00.000Z</time>
      </trkpt>
      <trkpt lat="44.33592" lon="6.5856">
        <ele>1645.8000488281</ele>
        <time>2020-08-13T11:48:01.000Z</time>
      </trkpt>
      <trkpt lat="44.33586" lon="6.58572">
        <ele>1645.1999511719</ele>
        <time>2020-08-13T11:48:02.000Z</time>
      </trkpt>
      <trkpt lat="44.33581" lon="6.58583">
        <ele>1644.5999755859</ele>
        <time>2020-08-13T11:48:03.000Z</time>
      </trkpt>
      <trkpt lat="44.33563" lon="6.58622">
        <ele>1643.1999511719</ele>
        <time>2020-08-13T11:48:06.000Z</time>
      </trkpt>
      <trkpt lat="44.33553" lon="6.58647">
        <ele>1642</ele>
        <time>2020-08-13T11:48:08.000Z</time>
      </trkpt>
      <trkpt lat="44.33548" lon="6.5866">
        <ele>1640.5999755859</ele>
        <time>2020-08-13T11:48:09.000Z</time>
      </trkpt>
      <trkpt lat="44.33536" lon="6.58687">
        <ele>1639.5999755859</ele>
        <time>2020-08-13T11:48:11.000Z</time>
      </trkpt>
      <trkpt lat="44.33529" lon="6.58698">
        <ele>1639</ele>
        <time>2020-08-13T11:48:12.000Z</time>
      </trkpt>
      <trkpt lat="44.33522" lon="6.58709">
        <ele>1638.8000488281</ele>
        <time>2020-08-13T11:48:13.000Z</time>
      </trkpt>
      <trkpt lat="44.33515" lon="6.5872">
        <ele>1638.4000244141</ele>
        <time>2020-08-13T11:48:14.000Z</time>
      </trkpt>
      <trkpt lat="44.3351" lon="6.58732">
        <ele>1638</ele>
        <time>2020-08-13T11:48:15.000Z</time>
      </trkpt>
      <trkpt lat="44.33507" lon="6.58744">
        <ele>1637.1999511719</ele>
        <time>2020-08-13T11:48:16.000Z</time>
      </trkpt>
      <trkpt lat="44.33502" lon="6.58771">
        <ele>1636</ele>
        <time>2020-08-13T11:48:18.000Z</time>
      </trkpt>
      <trkpt lat="44.33496" lon="6.58799">
        <ele>1635</ele>
        <time>2020-08-13T11:48:20.000Z</time>
      </trkpt>
      <trkpt lat="44.33491" lon="6.58826">
        <ele>1633.8000488281</ele>
        <time>2020-08-13T11:48:22.000Z</time>
      </trkpt>
      <trkpt lat="44.33488" lon="6.58854">
        <ele>1632.4000244141</ele>
        <time>2020-08-13T11:48:24.000Z</time>
      </trkpt>
      <trkpt lat="44.33486" lon="6.58884">
        <ele>1631.1999511719</ele>
        <time>2020-08-13T11:48:26.000Z</time>
      </trkpt>
      <trkpt lat="44.33482" lon="6.58944">
        <ele>1629.5999755859</ele>
        <time>2020-08-13T11:48:30.000Z</time>
      </trkpt>
      <trkpt lat="44.33482" lon="6.5896">
        <ele>1629</ele>
        <time>2020-08-13T11:48:31.000Z</time>
      </trkpt>
      <trkpt lat="44.33484" lon="6.58975">
        <ele>1628.5999755859</ele>
        <time>2020-08-13T11:48:32.000Z</time>
      </trkpt>
      <trkpt lat="44.33491" lon="6.5902">
        <ele>1627.5999755859</ele>
        <time>2020-08-13T11:48:35.000Z</time>
      </trkpt>
      <trkpt lat="44.33496" lon="6.59035">
        <ele>1627.4000244141</ele>
        <time>2020-08-13T11:48:36.000Z</time>
      </trkpt>
      <trkpt lat="44.33507" lon="6.59061">
        <ele>1626.1999511719</ele>
        <time>2020-08-13T11:48:38.000Z</time>
      </trkpt>
      <trkpt lat="44.33518" lon="6.59088">
        <ele>1624.5999755859</ele>
        <time>2020-08-13T11:48:40.000Z</time>
      </trkpt>
      <trkpt lat="44.33523" lon="6.59099">
        <ele>1623.5999755859</ele>
        <time>2020-08-13T11:48:41.000Z</time>
      </trkpt>
      <trkpt lat="44.33528" lon="6.59109">
        <ele>1622.8000488281</ele>
        <time>2020-08-13T11:48:42.000Z</time>
      </trkpt>
      <trkpt lat="44.33534" lon="6.59115">
        <ele>1622</ele>
        <time>2020-08-13T11:48:43.000Z</time>
      </trkpt>
      <trkpt lat="44.33542" lon="6.5912">
        <ele>1621.5999755859</ele>
        <time>2020-08-13T11:48:44.000Z</time>
      </trkpt>
      <trkpt lat="44.3355" lon="6.59122">
        <ele>1621.5999755859</ele>
        <time>2020-08-13T11:48:46.000Z</time>
      </trkpt>
      <trkpt lat="44.33577" lon="6.59131">
        <ele>1621</ele>
        <time>2020-08-13T11:48:48.000Z</time>
      </trkpt>
      <trkpt lat="44.33596" lon="6.5915">
        <ele>1619.5999755859</ele>
        <time>2020-08-13T11:48:51.000Z</time>
      </trkpt>
      <trkpt lat="44.33597" lon="6.5917">
        <ele>1619</ele>
        <time>2020-08-13T11:48:53.000Z</time>
      </trkpt>
      <trkpt lat="44.33586" lon="6.59199">
        <ele>1618.4000244141</ele>
        <time>2020-08-13T11:48:56.000Z</time>
      </trkpt>
      <trkpt lat="44.33573" lon="6.59209">
        <ele>1618</ele>
        <time>2020-08-13T11:48:58.000Z</time>
      </trkpt>
      <trkpt lat="44.33564" lon="6.59214">
        <ele>1617.4000244141</ele>
        <time>2020-08-13T11:48:59.000Z</time>
      </trkpt>
      <trkpt lat="44.33557" lon="6.5922">
        <ele>1616.8000488281</ele>
        <time>2020-08-13T11:49:00.000Z</time>
      </trkpt>
      <trkpt lat="44.33542" lon="6.59233">
        <ele>1615.5999755859</ele>
        <time>2020-08-13T11:49:02.000Z</time>
      </trkpt>
      <trkpt lat="44.33535" lon="6.59239">
        <ele>1615</ele>
        <time>2020-08-13T11:49:03.000Z</time>
      </trkpt>
      <trkpt lat="44.33528" lon="6.59245">
        <ele>1614.5999755859</ele>
        <time>2020-08-13T11:49:04.000Z</time>
      </trkpt>
      <trkpt lat="44.33522" lon="6.59254">
        <ele>1613.5999755859</ele>
        <time>2020-08-13T11:49:05.000Z</time>
      </trkpt>
      <trkpt lat="44.33518" lon="6.59265">
        <ele>1612.4000244141</ele>
        <time>2020-08-13T11:49:06.000Z</time>
      </trkpt>
      <trkpt lat="44.33515" lon="6.59288">
        <ele>1610.5999755859</ele>
        <time>2020-08-13T11:49:08.000Z</time>
      </trkpt>
      <trkpt lat="44.33514" lon="6.593">
        <ele>1610</ele>
        <time>2020-08-13T11:49:09.000Z</time>
      </trkpt>
      <trkpt lat="44.33514" lon="6.59311">
        <ele>1609.4000244141</ele>
        <time>2020-08-13T11:49:10.000Z</time>
      </trkpt>
      <trkpt lat="44.33512" lon="6.59349">
        <ele>1608.8000488281</ele>
        <time>2020-08-13T11:49:13.000Z</time>
      </trkpt>
      <trkpt lat="44.33509" lon="6.59362">
        <ele>1608.1999511719</ele>
        <time>2020-08-13T11:49:14.000Z</time>
      </trkpt>
      <trkpt lat="44.33503" lon="6.59386">
        <ele>1607</ele>
        <time>2020-08-13T11:49:16.000Z</time>
      </trkpt>
      <trkpt lat="44.33502" lon="6.59398">
        <ele>1606.4000244141</ele>
        <time>2020-08-13T11:49:17.000Z</time>
      </trkpt>
      <trkpt lat="44.33504" lon="6.59423">
        <ele>1605.8000488281</ele>
        <time>2020-08-13T11:49:19.000Z</time>
      </trkpt>
      <trkpt lat="44.3351" lon="6.59449">
        <ele>1605.1999511719</ele>
        <time>2020-08-13T11:49:21.000Z</time>
      </trkpt>
      <trkpt lat="44.33512" lon="6.59461">
        <ele>1605</ele>
        <time>2020-08-13T11:49:22.000Z</time>
      </trkpt>
      <trkpt lat="44.33513" lon="6.59474">
        <ele>1604.5999755859</ele>
        <time>2020-08-13T11:49:23.000Z</time>
      </trkpt>
      <trkpt lat="44.33526" lon="6.59509">
        <ele>1603.8000488281</ele>
        <time>2020-08-13T11:49:26.000Z</time>
      </trkpt>
      <trkpt lat="44.3353" lon="6.5952">
        <ele>1603.4000244141</ele>
        <time>2020-08-13T11:49:27.000Z</time>
      </trkpt>
      <trkpt lat="44.33529" lon="6.59546">
        <ele>1602.8000488281</ele>
        <time>2020-08-13T11:49:29.000Z</time>
      </trkpt>
      <trkpt lat="44.33525" lon="6.59557">
        <ele>1602.1999511719</ele>
        <time>2020-08-13T11:49:30.000Z</time>
      </trkpt>
      <trkpt lat="44.33516" lon="6.59581">
        <ele>1601.4000244141</ele>
        <time>2020-08-13T11:49:32.000Z</time>
      </trkpt>
      <trkpt lat="44.33512" lon="6.59592">
        <ele>1600.8000488281</ele>
        <time>2020-08-13T11:49:33.000Z</time>
      </trkpt>
      <trkpt lat="44.33509" lon="6.59605">
        <ele>1600</ele>
        <time>2020-08-13T11:49:34.000Z</time>
      </trkpt>
      <trkpt lat="44.33506" lon="6.5962">
        <ele>1599.5999755859</ele>
        <time>2020-08-13T11:49:35.000Z</time>
      </trkpt>
      <trkpt lat="44.33504" lon="6.59634">
        <ele>1599</ele>
        <time>2020-08-13T11:49:36.000Z</time>
      </trkpt>
      <trkpt lat="44.33502" lon="6.5966">
        <ele>1598.4000244141</ele>
        <time>2020-08-13T11:49:38.000Z</time>
      </trkpt>
      <trkpt lat="44.33503" lon="6.59671">
        <ele>1597.8000488281</ele>
        <time>2020-08-13T11:49:39.000Z</time>
      </trkpt>
      <trkpt lat="44.33507" lon="6.59682">
        <ele>1597.4000244141</ele>
        <time>2020-08-13T11:49:40.000Z</time>
      </trkpt>
      <trkpt lat="44.3351" lon="6.59693">
        <ele>1596.8000488281</ele>
        <time>2020-08-13T11:49:41.000Z</time>
      </trkpt>
      <trkpt lat="44.33511" lon="6.59705">
        <ele>1596.4000244141</ele>
        <time>2020-08-13T11:49:42.000Z</time>
      </trkpt>
      <trkpt lat="44.33509" lon="6.59716">
        <ele>1596.1999511719</ele>
        <time>2020-08-13T11:49:43.000Z</time>
      </trkpt>
      <trkpt lat="44.33505" lon="6.59727">
        <ele>1595.8000488281</ele>
        <time>2020-08-13T11:49:44.000Z</time>
      </trkpt>
      <trkpt lat="44.33496" lon="6.59746">
        <ele>1594.1999511719</ele>
        <time>2020-08-13T11:49:46.000Z</time>
      </trkpt>
      <trkpt lat="44.3349" lon="6.59756">
        <ele>1593.5999755859</ele>
        <time>2020-08-13T11:49:47.000Z</time>
      </trkpt>
      <trkpt lat="44.33481" lon="6.59776">
        <ele>1592.5999755859</ele>
        <time>2020-08-13T11:49:49.000Z</time>
      </trkpt>
      <trkpt lat="44.33478" lon="6.59787">
        <ele>1592.1999511719</ele>
        <time>2020-08-13T11:49:50.000Z</time>
      </trkpt>
      <trkpt lat="44.33477" lon="6.598">
        <ele>1592.1999511719</ele>
        <time>2020-08-13T11:49:51.000Z</time>
      </trkpt>
      <trkpt lat="44.33474" lon="6.59821">
        <ele>1591.4000244141</ele>
        <time>2020-08-13T11:49:53.000Z</time>
      </trkpt>
      <trkpt lat="44.33463" lon="6.59837">
        <ele>1590.5999755859</ele>
        <time>2020-08-13T11:49:55.000Z</time>
      </trkpt>
      <trkpt lat="44.33457" lon="6.59843">
        <ele>1589.8000488281</ele>
        <time>2020-08-13T11:49:56.000Z</time>
      </trkpt>
      <trkpt lat="44.33437" lon="6.59862">
        <ele>1588.5999755859</ele>
        <time>2020-08-13T11:49:59.000Z</time>
      </trkpt>
      <trkpt lat="44.33422" lon="6.59875">
        <ele>1587.8000488281</ele>
        <time>2020-08-13T11:50:01.000Z</time>
      </trkpt>
      <trkpt lat="44.33415" lon="6.59882">
        <ele>1587.4000244141</ele>
        <time>2020-08-13T11:50:02.000Z</time>
      </trkpt>
      <trkpt lat="44.3341" lon="6.59889">
        <ele>1587.1999511719</ele>
        <time>2020-08-13T11:50:03.000Z</time>
      </trkpt>
      <trkpt lat="44.33406" lon="6.59908">
        <ele>1587</ele>
        <time>2020-08-13T11:50:05.000Z</time>
      </trkpt>
      <trkpt lat="44.3341" lon="6.5993">
        <ele>1586.8000488281</ele>
        <time>2020-08-13T11:50:07.000Z</time>
      </trkpt>
      <trkpt lat="44.33411" lon="6.59941">
        <ele>1586.5999755859</ele>
        <time>2020-08-13T11:50:08.000Z</time>
      </trkpt>
      <trkpt lat="44.33408" lon="6.59966">
        <ele>1585.8000488281</ele>
        <time>2020-08-13T11:50:10.000Z</time>
      </trkpt>
      <trkpt lat="44.33408" lon="6.59979">
        <ele>1585.1999511719</ele>
        <time>2020-08-13T11:50:11.000Z</time>
      </trkpt>
      <trkpt lat="44.33408" lon="6.59992">
        <ele>1584.5999755859</ele>
        <time>2020-08-13T11:50:12.000Z</time>
      </trkpt>
      <trkpt lat="44.33416" lon="6.6001">
        <ele>1583</ele>
        <time>2020-08-13T11:50:14.000Z</time>
      </trkpt>
      <trkpt lat="44.3343" lon="6.60022">
        <ele>1582</ele>
        <time>2020-08-13T11:50:16.000Z</time>
      </trkpt>
      <trkpt lat="44.33439" lon="6.60026">
        <ele>1581.5999755859</ele>
        <time>2020-08-13T11:50:17.000Z</time>
      </trkpt>
      <trkpt lat="44.33456" lon="6.60033">
        <ele>1581</ele>
        <time>2020-08-13T11:50:19.000Z</time>
      </trkpt>
      <trkpt lat="44.33466" lon="6.60034">
        <ele>1580.4000244141</ele>
        <time>2020-08-13T11:50:20.000Z</time>
      </trkpt>
      <trkpt lat="44.33475" lon="6.60034">
        <ele>1579.8000488281</ele>
        <time>2020-08-13T11:50:21.000Z</time>
      </trkpt>
      <trkpt lat="44.33493" lon="6.60027">
        <ele>1577.8000488281</ele>
        <time>2020-08-13T11:50:23.000Z</time>
      </trkpt>
      <trkpt lat="44.33502" lon="6.6002">
        <ele>1577</ele>
        <time>2020-08-13T11:50:24.000Z</time>
      </trkpt>
      <trkpt lat="44.33511" lon="6.60015">
        <ele>1576.1999511719</ele>
        <time>2020-08-13T11:50:25.000Z</time>
      </trkpt>
      <trkpt lat="44.3352" lon="6.60012">
        <ele>1576</ele>
        <time>2020-08-13T11:50:26.000Z</time>
      </trkpt>
      <trkpt lat="44.33538" lon="6.60014">
        <ele>1575.4000244141</ele>
        <time>2020-08-13T11:50:28.000Z</time>
      </trkpt>
      <trkpt lat="44.33546" lon="6.6002">
        <ele>1575.1999511719</ele>
        <time>2020-08-13T11:50:29.000Z</time>
      </trkpt>
      <trkpt lat="44.33562" lon="6.60024">
        <ele>1574.4000244141</ele>
        <time>2020-08-13T11:50:31.000Z</time>
      </trkpt>
      <trkpt lat="44.3357" lon="6.60024">
        <ele>1574.1999511719</ele>
        <time>2020-08-13T11:50:32.000Z</time>
      </trkpt>
      <trkpt lat="44.33576" lon="6.60026">
        <ele>1574</ele>
        <time>2020-08-13T11:50:33.000Z</time>
      </trkpt>
      <trkpt lat="44.3359" lon="6.60032">
        <ele>1573.8000488281</ele>
        <time>2020-08-13T11:50:35.000Z</time>
      </trkpt>
      <trkpt lat="44.33597" lon="6.60031">
        <ele>1574</ele>
        <time>2020-08-13T11:50:36.000Z</time>
      </trkpt>
      <trkpt lat="44.33611" lon="6.60028">
        <ele>1573.8000488281</ele>
        <time>2020-08-13T11:50:38.000Z</time>
      </trkpt>
      <trkpt lat="44.3362" lon="6.60024">
        <ele>1574.1999511719</ele>
        <time>2020-08-13T11:50:40.000Z</time>
      </trkpt>
      <trkpt lat="44.33635" lon="6.60017">
        <ele>1574.8000488281</ele>
        <time>2020-08-13T11:50:42.000Z</time>
      </trkpt>
      <trkpt lat="44.3364" lon="6.60016">
        <ele>1575.1999511719</ele>
        <time>2020-08-13T11:50:43.000Z</time>
      </trkpt>
      <trkpt lat="44.33655" lon="6.60028">
        <ele>1575</ele>
        <time>2020-08-13T11:50:46.000Z</time>
      </trkpt>
      <trkpt lat="44.33659" lon="6.60052">
        <ele>1575</ele>
        <time>2020-08-13T11:50:49.000Z</time>
      </trkpt>
      <trkpt lat="44.33652" lon="6.60074">
        <ele>1575</ele>
        <time>2020-08-13T11:50:52.000Z</time>
      </trkpt>
      <trkpt lat="44.33623" lon="6.60142">
        <ele>1574.4000244141</ele>
        <time>2020-08-13T11:51:01.000Z</time>
      </trkpt>
      <trkpt lat="44.33611" lon="6.60162">
        <ele>1574.1999511719</ele>
        <time>2020-08-13T11:51:04.000Z</time>
      </trkpt>
      <trkpt lat="44.33592" lon="6.60185">
        <ele>1573.1999511719</ele>
        <time>2020-08-13T11:51:08.000Z</time>
      </trkpt>
      <trkpt lat="44.33587" lon="6.60205">
        <ele>1573.1999511719</ele>
        <time>2020-08-13T11:51:10.000Z</time>
      </trkpt>
      <trkpt lat="44.33585" lon="6.60216">
        <ele>1573</ele>
        <time>2020-08-13T11:51:11.000Z</time>
      </trkpt>
      <trkpt lat="44.33584" lon="6.60227">
        <ele>1572.8000488281</ele>
        <time>2020-08-13T11:51:12.000Z</time>
      </trkpt>
      <trkpt lat="44.33578" lon="6.60248">
        <ele>1572.4000244141</ele>
        <time>2020-08-13T11:51:14.000Z</time>
      </trkpt>
      <trkpt lat="44.33575" lon="6.60258">
        <ele>1572</ele>
        <time>2020-08-13T11:51:15.000Z</time>
      </trkpt>
      <trkpt lat="44.33571" lon="6.60268">
        <ele>1571.4000244141</ele>
        <time>2020-08-13T11:51:16.000Z</time>
      </trkpt>
      <trkpt lat="44.33569" lon="6.6028">
        <ele>1570.8000488281</ele>
        <time>2020-08-13T11:51:17.000Z</time>
      </trkpt>
      <trkpt lat="44.3357" lon="6.60304">
        <ele>1569.5999755859</ele>
        <time>2020-08-13T11:51:19.000Z</time>
      </trkpt>
      <trkpt lat="44.33571" lon="6.60342">
        <ele>1568.1999511719</ele>
        <time>2020-08-13T11:51:22.000Z</time>
      </trkpt>
      <trkpt lat="44.33561" lon="6.60363">
        <ele>1566.8000488281</ele>
        <time>2020-08-13T11:51:24.000Z</time>
      </trkpt>
      <trkpt lat="44.33558" lon="6.60374">
        <ele>1565.5999755859</ele>
        <time>2020-08-13T11:51:25.000Z</time>
      </trkpt>
      <trkpt lat="44.33558" lon="6.60387">
        <ele>1564.8000488281</ele>
        <time>2020-08-13T11:51:26.000Z</time>
      </trkpt>
      <trkpt lat="44.33558" lon="6.604">
        <ele>1564.1999511719</ele>
        <time>2020-08-13T11:51:27.000Z</time>
      </trkpt>
      <trkpt lat="44.33554" lon="6.60423">
        <ele>1563.4000244141</ele>
        <time>2020-08-13T11:51:29.000Z</time>
      </trkpt>
      <trkpt lat="44.33548" lon="6.6043">
        <ele>1563</ele>
        <time>2020-08-13T11:51:30.000Z</time>
      </trkpt>
      <trkpt lat="44.33541" lon="6.60435">
        <ele>1562.5999755859</ele>
        <time>2020-08-13T11:51:31.000Z</time>
      </trkpt>
      <trkpt lat="44.33537" lon="6.60443">
        <ele>1562</ele>
        <time>2020-08-13T11:51:32.000Z</time>
      </trkpt>
      <trkpt lat="44.33535" lon="6.60453">
        <ele>1561.8000488281</ele>
        <time>2020-08-13T11:51:33.000Z</time>
      </trkpt>
      <trkpt lat="44.33533" lon="6.60476">
        <ele>1561.1999511719</ele>
        <time>2020-08-13T11:51:35.000Z</time>
      </trkpt>
      <trkpt lat="44.3353" lon="6.605">
        <ele>1561.1999511719</ele>
        <time>2020-08-13T11:51:37.000Z</time>
      </trkpt>
      <trkpt lat="44.33526" lon="6.6051">
        <ele>1560.8000488281</ele>
        <time>2020-08-13T11:51:38.000Z</time>
      </trkpt>
      <trkpt lat="44.33516" lon="6.60532">
        <ele>1559.5999755859</ele>
        <time>2020-08-13T11:51:40.000Z</time>
      </trkpt>
      <trkpt lat="44.33513" lon="6.60557">
        <ele>1558.4000244141</ele>
        <time>2020-08-13T11:51:42.000Z</time>
      </trkpt>
      <trkpt lat="44.33511" lon="6.60566">
        <ele>1557.4000244141</ele>
        <time>2020-08-13T11:51:43.000Z</time>
      </trkpt>
      <trkpt lat="44.33504" lon="6.60575">
        <ele>1557.1999511719</ele>
        <time>2020-08-13T11:51:44.000Z</time>
      </trkpt>
      <trkpt lat="44.33498" lon="6.60581">
        <ele>1556.5999755859</ele>
        <time>2020-08-13T11:51:45.000Z</time>
      </trkpt>
      <trkpt lat="44.33483" lon="6.60592">
        <ele>1556</ele>
        <time>2020-08-13T11:51:47.000Z</time>
      </trkpt>
      <trkpt lat="44.33478" lon="6.60598">
        <ele>1555.8000488281</ele>
        <time>2020-08-13T11:51:48.000Z</time>
      </trkpt>
      <trkpt lat="44.33474" lon="6.60608">
        <ele>1555.4000244141</ele>
        <time>2020-08-13T11:51:49.000Z</time>
      </trkpt>
      <trkpt lat="44.33472" lon="6.60616">
        <ele>1555</ele>
        <time>2020-08-13T11:51:50.000Z</time>
      </trkpt>
      <trkpt lat="44.33474" lon="6.60635">
        <ele>1554.4000244141</ele>
        <time>2020-08-13T11:51:52.000Z</time>
      </trkpt>
      <trkpt lat="44.33476" lon="6.60645">
        <ele>1554.1999511719</ele>
        <time>2020-08-13T11:51:53.000Z</time>
      </trkpt>
      <trkpt lat="44.33478" lon="6.60655">
        <ele>1554</ele>
        <time>2020-08-13T11:51:54.000Z</time>
      </trkpt>
      <trkpt lat="44.33482" lon="6.60689">
        <ele>1553</ele>
        <time>2020-08-13T11:51:57.000Z</time>
      </trkpt>
      <trkpt lat="44.33482" lon="6.60699">
        <ele>1552.5999755859</ele>
        <time>2020-08-13T11:51:58.000Z</time>
      </trkpt>
      <trkpt lat="44.33476" lon="6.60724">
        <ele>1551.4000244141</ele>
        <time>2020-08-13T11:52:00.000Z</time>
      </trkpt>
      <trkpt lat="44.33465" lon="6.60744">
        <ele>1550.1999511719</ele>
        <time>2020-08-13T11:52:02.000Z</time>
      </trkpt>
      <trkpt lat="44.33458" lon="6.60751">
        <ele>1549.5999755859</ele>
        <time>2020-08-13T11:52:03.000Z</time>
      </trkpt>
      <trkpt lat="44.33441" lon="6.60759">
        <ele>1548.5999755859</ele>
        <time>2020-08-13T11:52:05.000Z</time>
      </trkpt>
      <trkpt lat="44.33433" lon="6.60759">
        <ele>1548</ele>
        <time>2020-08-13T11:52:06.000Z</time>
      </trkpt>
      <trkpt lat="44.33424" lon="6.60759">
        <ele>1547.8000488281</ele>
        <time>2020-08-13T11:52:07.000Z</time>
      </trkpt>
      <trkpt lat="44.33417" lon="6.6076">
        <ele>1547.5999755859</ele>
        <time>2020-08-13T11:52:08.000Z</time>
      </trkpt>
      <trkpt lat="44.3341" lon="6.60766">
        <ele>1547</ele>
        <time>2020-08-13T11:52:09.000Z</time>
      </trkpt>
      <trkpt lat="44.33403" lon="6.60786">
        <ele>1546</ele>
        <time>2020-08-13T11:52:11.000Z</time>
      </trkpt>
      <trkpt lat="44.33399" lon="6.60809">
        <ele>1544.8000488281</ele>
        <time>2020-08-13T11:52:13.000Z</time>
      </trkpt>
      <trkpt lat="44.33393" lon="6.60835">
        <ele>1543.8000488281</ele>
        <time>2020-08-13T11:52:15.000Z</time>
      </trkpt>
      <trkpt lat="44.33389" lon="6.60846">
        <ele>1543.1999511719</ele>
        <time>2020-08-13T11:52:16.000Z</time>
      </trkpt>
      <trkpt lat="44.33379" lon="6.60867">
        <ele>1542.1999511719</ele>
        <time>2020-08-13T11:52:18.000Z</time>
      </trkpt>
      <trkpt lat="44.33373" lon="6.60873">
        <ele>1541.5999755859</ele>
        <time>2020-08-13T11:52:19.000Z</time>
      </trkpt>
      <trkpt lat="44.33365" lon="6.60875">
        <ele>1541</ele>
        <time>2020-08-13T11:52:20.000Z</time>
      </trkpt>
      <trkpt lat="44.33357" lon="6.60875">
        <ele>1540.8000488281</ele>
        <time>2020-08-13T11:52:21.000Z</time>
      </trkpt>
      <trkpt lat="44.33345" lon="6.60888">
        <ele>1539.4000244141</ele>
        <time>2020-08-13T11:52:23.000Z</time>
      </trkpt>
      <trkpt lat="44.33337" lon="6.6091">
        <ele>1538</ele>
        <time>2020-08-13T11:52:25.000Z</time>
      </trkpt>
      <trkpt lat="44.33332" lon="6.60922">
        <ele>1537.1999511719</ele>
        <time>2020-08-13T11:52:26.000Z</time>
      </trkpt>
      <trkpt lat="44.33326" lon="6.60933">
        <ele>1536.4000244141</ele>
        <time>2020-08-13T11:52:27.000Z</time>
      </trkpt>
      <trkpt lat="44.33314" lon="6.60954">
        <ele>1535.4000244141</ele>
        <time>2020-08-13T11:52:29.000Z</time>
      </trkpt>
      <trkpt lat="44.33303" lon="6.6097">
        <ele>1534.4000244141</ele>
        <time>2020-08-13T11:52:31.000Z</time>
      </trkpt>
      <trkpt lat="44.33295" lon="6.60996">
        <ele>1532.8000488281</ele>
        <time>2020-08-13T11:52:34.000Z</time>
      </trkpt>
      <trkpt lat="44.33305" lon="6.61014">
        <ele>1531.1999511719</ele>
        <time>2020-08-13T11:52:36.000Z</time>
      </trkpt>
      <trkpt lat="44.33319" lon="6.61026">
        <ele>1530</ele>
        <time>2020-08-13T11:52:38.000Z</time>
      </trkpt>
      <trkpt lat="44.33328" lon="6.61031">
        <ele>1529.5999755859</ele>
        <time>2020-08-13T11:52:39.000Z</time>
      </trkpt>
      <trkpt lat="44.33337" lon="6.61035">
        <ele>1529</ele>
        <time>2020-08-13T11:52:40.000Z</time>
      </trkpt>
      <trkpt lat="44.33347" lon="6.61041">
        <ele>1528.4000244141</ele>
        <time>2020-08-13T11:52:41.000Z</time>
      </trkpt>
      <trkpt lat="44.33357" lon="6.61048">
        <ele>1527.8000488281</ele>
        <time>2020-08-13T11:52:42.000Z</time>
      </trkpt>
      <trkpt lat="44.33365" lon="6.61056">
        <ele>1527.1999511719</ele>
        <time>2020-08-13T11:52:43.000Z</time>
      </trkpt>
      <trkpt lat="44.33382" lon="6.61079">
        <ele>1525.8000488281</ele>
        <time>2020-08-13T11:52:45.000Z</time>
      </trkpt>
      <trkpt lat="44.33389" lon="6.61091">
        <ele>1524.4000244141</ele>
        <time>2020-08-13T11:52:46.000Z</time>
      </trkpt>
      <trkpt lat="44.33398" lon="6.61104">
        <ele>1523</ele>
        <time>2020-08-13T11:52:47.000Z</time>
      </trkpt>
      <trkpt lat="44.33407" lon="6.61116">
        <ele>1521.5999755859</ele>
        <time>2020-08-13T11:52:48.000Z</time>
      </trkpt>
      <trkpt lat="44.33417" lon="6.61129">
        <ele>1520</ele>
        <time>2020-08-13T11:52:49.000Z</time>
      </trkpt>
      <trkpt lat="44.33426" lon="6.61139">
        <ele>1518.4000244141</ele>
        <time>2020-08-13T11:52:50.000Z</time>
      </trkpt>
      <trkpt lat="44.33436" lon="6.61146">
        <ele>1517.4000244141</ele>
        <time>2020-08-13T11:52:51.000Z</time>
      </trkpt>
      <trkpt lat="44.33446" lon="6.6115">
        <ele>1516.1999511719</ele>
        <time>2020-08-13T11:52:52.000Z</time>
      </trkpt>
      <trkpt lat="44.33457" lon="6.61151">
        <ele>1515.4000244141</ele>
        <time>2020-08-13T11:52:53.000Z</time>
      </trkpt>
      <trkpt lat="44.33469" lon="6.61152">
        <ele>1514.5999755859</ele>
        <time>2020-08-13T11:52:54.000Z</time>
      </trkpt>
      <trkpt lat="44.33481" lon="6.61151">
        <ele>1514.1999511719</ele>
        <time>2020-08-13T11:52:55.000Z</time>
      </trkpt>
      <trkpt lat="44.33493" lon="6.6115">
        <ele>1513.5999755859</ele>
        <time>2020-08-13T11:52:56.000Z</time>
      </trkpt>
      <trkpt lat="44.33506" lon="6.61148">
        <ele>1513</ele>
        <time>2020-08-13T11:52:57.000Z</time>
      </trkpt>
      <trkpt lat="44.33531" lon="6.61145">
        <ele>1511.5999755859</ele>
        <time>2020-08-13T11:52:59.000Z</time>
      </trkpt>
      <trkpt lat="44.33544" lon="6.61145">
        <ele>1510.5999755859</ele>
        <time>2020-08-13T11:53:00.000Z</time>
      </trkpt>
      <trkpt lat="44.33558" lon="6.61145">
        <ele>1509.4000244141</ele>
        <time>2020-08-13T11:53:01.000Z</time>
      </trkpt>
      <trkpt lat="44.33571" lon="6.61146">
        <ele>1508.4000244141</ele>
        <time>2020-08-13T11:53:02.000Z</time>
      </trkpt>
      <trkpt lat="44.33612" lon="6.61154">
        <ele>1507.1999511719</ele>
        <time>2020-08-13T11:53:05.000Z</time>
      </trkpt>
      <trkpt lat="44.33626" lon="6.61158">
        <ele>1505.8000488281</ele>
        <time>2020-08-13T11:53:06.000Z</time>
      </trkpt>
      <trkpt lat="44.3364" lon="6.61164">
        <ele>1504.8000488281</ele>
        <time>2020-08-13T11:53:07.000Z</time>
      </trkpt>
      <trkpt lat="44.33653" lon="6.61169">
        <ele>1503.5999755859</ele>
        <time>2020-08-13T11:53:08.000Z</time>
      </trkpt>
      <trkpt lat="44.33667" lon="6.61177">
        <ele>1502.1999511719</ele>
        <time>2020-08-13T11:53:09.000Z</time>
      </trkpt>
      <trkpt lat="44.33678" lon="6.61186">
        <ele>1501.1999511719</ele>
        <time>2020-08-13T11:53:10.000Z</time>
      </trkpt>
      <trkpt lat="44.33689" lon="6.61195">
        <ele>1500</ele>
        <time>2020-08-13T11:53:11.000Z</time>
      </trkpt>
      <trkpt lat="44.337" lon="6.61202">
        <ele>1498.1999511719</ele>
        <time>2020-08-13T11:53:12.000Z</time>
      </trkpt>
      <trkpt lat="44.3371" lon="6.61208">
        <ele>1497.1999511719</ele>
        <time>2020-08-13T11:53:13.000Z</time>
      </trkpt>
      <trkpt lat="44.33723" lon="6.61211">
        <ele>1496</ele>
        <time>2020-08-13T11:53:14.000Z</time>
      </trkpt>
      <trkpt lat="44.33734" lon="6.61214">
        <ele>1495</ele>
        <time>2020-08-13T11:53:15.000Z</time>
      </trkpt>
      <trkpt lat="44.33759" lon="6.61223">
        <ele>1493</ele>
        <time>2020-08-13T11:53:17.000Z</time>
      </trkpt>
      <trkpt lat="44.33771" lon="6.61226">
        <ele>1492.8000488281</ele>
        <time>2020-08-13T11:53:18.000Z</time>
      </trkpt>
      <trkpt lat="44.33784" lon="6.61226">
        <ele>1492</ele>
        <time>2020-08-13T11:53:19.000Z</time>
      </trkpt>
      <trkpt lat="44.33797" lon="6.61226">
        <ele>1491</ele>
        <time>2020-08-13T11:53:20.000Z</time>
      </trkpt>
      <trkpt lat="44.33808" lon="6.61227">
        <ele>1489.5999755859</ele>
        <time>2020-08-13T11:53:21.000Z</time>
      </trkpt>
      <trkpt lat="44.33818" lon="6.6123">
        <ele>1488.8000488281</ele>
        <time>2020-08-13T11:53:22.000Z</time>
      </trkpt>
      <trkpt lat="44.33826" lon="6.61234">
        <ele>1488.1999511719</ele>
        <time>2020-08-13T11:53:23.000Z</time>
      </trkpt>
      <trkpt lat="44.33844" lon="6.61242">
        <ele>1487</ele>
        <time>2020-08-13T11:53:25.000Z</time>
      </trkpt>
      <trkpt lat="44.33861" lon="6.61239">
        <ele>1485.4000244141</ele>
        <time>2020-08-13T11:53:27.000Z</time>
      </trkpt>
      <trkpt lat="44.3387" lon="6.61235">
        <ele>1485</ele>
        <time>2020-08-13T11:53:28.000Z</time>
      </trkpt>
      <trkpt lat="44.3388" lon="6.61234">
        <ele>1484.5999755859</ele>
        <time>2020-08-13T11:53:29.000Z</time>
      </trkpt>
      <trkpt lat="44.33889" lon="6.61235">
        <ele>1484</ele>
        <time>2020-08-13T11:53:30.000Z</time>
      </trkpt>
      <trkpt lat="44.33899" lon="6.6124">
        <ele>1483.5999755859</ele>
        <time>2020-08-13T11:53:31.000Z</time>
      </trkpt>
      <trkpt lat="44.33908" lon="6.61248">
        <ele>1482.5999755859</ele>
        <time>2020-08-13T11:53:32.000Z</time>
      </trkpt>
      <trkpt lat="44.33924" lon="6.61266">
        <ele>1481.4000244141</ele>
        <time>2020-08-13T11:53:34.000Z</time>
      </trkpt>
      <trkpt lat="44.33939" lon="6.61288">
        <ele>1479.4000244141</ele>
        <time>2020-08-13T11:53:36.000Z</time>
      </trkpt>
      <trkpt lat="44.33946" lon="6.613">
        <ele>1478.4000244141</ele>
        <time>2020-08-13T11:53:37.000Z</time>
      </trkpt>
      <trkpt lat="44.33951" lon="6.61313">
        <ele>1478</ele>
        <time>2020-08-13T11:53:38.000Z</time>
      </trkpt>
      <trkpt lat="44.33961" lon="6.61342">
        <ele>1476.5999755859</ele>
        <time>2020-08-13T11:53:40.000Z</time>
      </trkpt>
      <trkpt lat="44.33968" lon="6.61356">
        <ele>1475.4000244141</ele>
        <time>2020-08-13T11:53:41.000Z</time>
      </trkpt>
      <trkpt lat="44.33976" lon="6.6137">
        <ele>1474</ele>
        <time>2020-08-13T11:53:42.000Z</time>
      </trkpt>
      <trkpt lat="44.33983" lon="6.61382">
        <ele>1473</ele>
        <time>2020-08-13T11:53:43.000Z</time>
      </trkpt>
      <trkpt lat="44.3399" lon="6.61394">
        <ele>1472.1999511719</ele>
        <time>2020-08-13T11:53:44.000Z</time>
      </trkpt>
      <trkpt lat="44.33997" lon="6.61404">
        <ele>1471.5999755859</ele>
        <time>2020-08-13T11:53:45.000Z</time>
      </trkpt>
      <trkpt lat="44.34005" lon="6.61412">
        <ele>1471.1999511719</ele>
        <time>2020-08-13T11:53:46.000Z</time>
      </trkpt>
      <trkpt lat="44.34026" lon="6.61424">
        <ele>1469.4000244141</ele>
        <time>2020-08-13T11:53:48.000Z</time>
      </trkpt>
      <trkpt lat="44.34048" lon="6.61431">
        <ele>1467.8000488281</ele>
        <time>2020-08-13T11:53:50.000Z</time>
      </trkpt>
      <trkpt lat="44.3407" lon="6.61439">
        <ele>1466.1999511719</ele>
        <time>2020-08-13T11:53:52.000Z</time>
      </trkpt>
      <trkpt lat="44.34081" lon="6.61443">
        <ele>1465</ele>
        <time>2020-08-13T11:53:53.000Z</time>
      </trkpt>
      <trkpt lat="44.3409" lon="6.61449">
        <ele>1464</ele>
        <time>2020-08-13T11:53:54.000Z</time>
      </trkpt>
      <trkpt lat="44.34098" lon="6.61456">
        <ele>1463</ele>
        <time>2020-08-13T11:53:55.000Z</time>
      </trkpt>
      <trkpt lat="44.34103" lon="6.61465">
        <ele>1462.4000244141</ele>
        <time>2020-08-13T11:53:56.000Z</time>
      </trkpt>
      <trkpt lat="44.34104" lon="6.61475">
        <ele>1461.5999755859</ele>
        <time>2020-08-13T11:53:57.000Z</time>
      </trkpt>
      <trkpt lat="44.34105" lon="6.61483">
        <ele>1461.1999511719</ele>
        <time>2020-08-13T11:53:58.000Z</time>
      </trkpt>
      <trkpt lat="44.34115" lon="6.61506">
        <ele>1459.8000488281</ele>
        <time>2020-08-13T11:54:00.000Z</time>
      </trkpt>
      <trkpt lat="44.3413" lon="6.6152">
        <ele>1458</ele>
        <time>2020-08-13T11:54:02.000Z</time>
      </trkpt>
      <trkpt lat="44.34139" lon="6.61527">
        <ele>1456.8000488281</ele>
        <time>2020-08-13T11:54:03.000Z</time>
      </trkpt>
      <trkpt lat="44.34148" lon="6.61534">
        <ele>1455.5999755859</ele>
        <time>2020-08-13T11:54:04.000Z</time>
      </trkpt>
      <trkpt lat="44.34156" lon="6.61539">
        <ele>1454.4000244141</ele>
        <time>2020-08-13T11:54:05.000Z</time>
      </trkpt>
      <trkpt lat="44.34176" lon="6.61543">
        <ele>1452.5999755859</ele>
        <time>2020-08-13T11:54:07.000Z</time>
      </trkpt>
      <trkpt lat="44.34197" lon="6.61539">
        <ele>1450.5999755859</ele>
        <time>2020-08-13T11:54:09.000Z</time>
      </trkpt>
      <trkpt lat="44.34206" lon="6.61538">
        <ele>1449.5999755859</ele>
        <time>2020-08-13T11:54:10.000Z</time>
      </trkpt>
      <trkpt lat="44.34215" lon="6.6154">
        <ele>1449</ele>
        <time>2020-08-13T11:54:11.000Z</time>
      </trkpt>
      <trkpt lat="44.34231" lon="6.61552">
        <ele>1447.8000488281</ele>
        <time>2020-08-13T11:54:13.000Z</time>
      </trkpt>
      <trkpt lat="44.34248" lon="6.61563">
        <ele>1446.8000488281</ele>
        <time>2020-08-13T11:54:15.000Z</time>
      </trkpt>
      <trkpt lat="44.34259" lon="6.61566">
        <ele>1445.8000488281</ele>
        <time>2020-08-13T11:54:16.000Z</time>
      </trkpt>
      <trkpt lat="44.34271" lon="6.61565">
        <ele>1444.5999755859</ele>
        <time>2020-08-13T11:54:17.000Z</time>
      </trkpt>
      <trkpt lat="44.34281" lon="6.61565">
        <ele>1443.4000244141</ele>
        <time>2020-08-13T11:54:18.000Z</time>
      </trkpt>
      <trkpt lat="44.34293" lon="6.61568">
        <ele>1442</ele>
        <time>2020-08-13T11:54:19.000Z</time>
      </trkpt>
      <trkpt lat="44.34303" lon="6.61574">
        <ele>1440.4000244141</ele>
        <time>2020-08-13T11:54:20.000Z</time>
      </trkpt>
      <trkpt lat="44.34312" lon="6.61582">
        <ele>1439.4000244141</ele>
        <time>2020-08-13T11:54:21.000Z</time>
      </trkpt>
      <trkpt lat="44.34321" lon="6.6159">
        <ele>1438.5999755859</ele>
        <time>2020-08-13T11:54:22.000Z</time>
      </trkpt>
      <trkpt lat="44.3433" lon="6.61599">
        <ele>1437.1999511719</ele>
        <time>2020-08-13T11:54:23.000Z</time>
      </trkpt>
      <trkpt lat="44.34348" lon="6.61617">
        <ele>1435.5999755859</ele>
        <time>2020-08-13T11:54:25.000Z</time>
      </trkpt>
      <trkpt lat="44.34367" lon="6.61633">
        <ele>1434.4000244141</ele>
        <time>2020-08-13T11:54:27.000Z</time>
      </trkpt>
      <trkpt lat="44.34384" lon="6.61644">
        <ele>1433.4000244141</ele>
        <time>2020-08-13T11:54:29.000Z</time>
      </trkpt>
      <trkpt lat="44.34393" lon="6.61647">
        <ele>1433</ele>
        <time>2020-08-13T11:54:30.000Z</time>
      </trkpt>
      <trkpt lat="44.34412" lon="6.61646">
        <ele>1432</ele>
        <time>2020-08-13T11:54:32.000Z</time>
      </trkpt>
      <trkpt lat="44.3442" lon="6.61643">
        <ele>1431.1999511719</ele>
        <time>2020-08-13T11:54:33.000Z</time>
      </trkpt>
      <trkpt lat="44.34429" lon="6.61639">
        <ele>1431</ele>
        <time>2020-08-13T11:54:34.000Z</time>
      </trkpt>
      <trkpt lat="44.34445" lon="6.61624">
        <ele>1429.4000244141</ele>
        <time>2020-08-13T11:54:36.000Z</time>
      </trkpt>
      <trkpt lat="44.34452" lon="6.61616">
        <ele>1428.8000488281</ele>
        <time>2020-08-13T11:54:37.000Z</time>
      </trkpt>
      <trkpt lat="44.34458" lon="6.6161">
        <ele>1428.1999511719</ele>
        <time>2020-08-13T11:54:38.000Z</time>
      </trkpt>
      <trkpt lat="44.34474" lon="6.61608">
        <ele>1426.8000488281</ele>
        <time>2020-08-13T11:54:40.000Z</time>
      </trkpt>
      <trkpt lat="44.34489" lon="6.61619">
        <ele>1425.8000488281</ele>
        <time>2020-08-13T11:54:42.000Z</time>
      </trkpt>
      <trkpt lat="44.34497" lon="6.61622">
        <ele>1425.1999511719</ele>
        <time>2020-08-13T11:54:43.000Z</time>
      </trkpt>
      <trkpt lat="44.34513" lon="6.61628">
        <ele>1423.4000244141</ele>
        <time>2020-08-13T11:54:45.000Z</time>
      </trkpt>
      <trkpt lat="44.34522" lon="6.61643">
        <ele>1421.5999755859</ele>
        <time>2020-08-13T11:54:47.000Z</time>
      </trkpt>
      <trkpt lat="44.34526" lon="6.61652">
        <ele>1421.1999511719</ele>
        <time>2020-08-13T11:54:48.000Z</time>
      </trkpt>
      <trkpt lat="44.34532" lon="6.61661">
        <ele>1420.5999755859</ele>
        <time>2020-08-13T11:54:49.000Z</time>
      </trkpt>
      <trkpt lat="44.34539" lon="6.61667">
        <ele>1420.4000244141</ele>
        <time>2020-08-13T11:54:50.000Z</time>
      </trkpt>
      <trkpt lat="44.34555" lon="6.6167">
        <ele>1419.1999511719</ele>
        <time>2020-08-13T11:54:52.000Z</time>
      </trkpt>
      <trkpt lat="44.34566" lon="6.61671">
        <ele>1418.8000488281</ele>
        <time>2020-08-13T11:54:53.000Z</time>
      </trkpt>
      <trkpt lat="44.34576" lon="6.61673">
        <ele>1418.1999511719</ele>
        <time>2020-08-13T11:54:54.000Z</time>
      </trkpt>
      <trkpt lat="44.34596" lon="6.61679">
        <ele>1417.1999511719</ele>
        <time>2020-08-13T11:54:56.000Z</time>
      </trkpt>
      <trkpt lat="44.34613" lon="6.61686">
        <ele>1415.5999755859</ele>
        <time>2020-08-13T11:54:58.000Z</time>
      </trkpt>
      <trkpt lat="44.34623" lon="6.6169">
        <ele>1414.4000244141</ele>
        <time>2020-08-13T11:54:59.000Z</time>
      </trkpt>
      <trkpt lat="44.34632" lon="6.6169">
        <ele>1413.4000244141</ele>
        <time>2020-08-13T11:55:00.000Z</time>
      </trkpt>
      <trkpt lat="44.34641" lon="6.61689">
        <ele>1412.5999755859</ele>
        <time>2020-08-13T11:55:01.000Z</time>
      </trkpt>
      <trkpt lat="44.34661" lon="6.61683">
        <ele>1411.4000244141</ele>
        <time>2020-08-13T11:55:03.000Z</time>
      </trkpt>
      <trkpt lat="44.34683" lon="6.61676">
        <ele>1409.8000488281</ele>
        <time>2020-08-13T11:55:05.000Z</time>
      </trkpt>
      <trkpt lat="44.34694" lon="6.61672">
        <ele>1408.5999755859</ele>
        <time>2020-08-13T11:55:06.000Z</time>
      </trkpt>
      <trkpt lat="44.34715" lon="6.61664">
        <ele>1406.8000488281</ele>
        <time>2020-08-13T11:55:08.000Z</time>
      </trkpt>
      <trkpt lat="44.34737" lon="6.61653">
        <ele>1405.1999511719</ele>
        <time>2020-08-13T11:55:10.000Z</time>
      </trkpt>
      <trkpt lat="44.34748" lon="6.61646">
        <ele>1404.1999511719</ele>
        <time>2020-08-13T11:55:11.000Z</time>
      </trkpt>
      <trkpt lat="44.34759" lon="6.61638">
        <ele>1403.1999511719</ele>
        <time>2020-08-13T11:55:12.000Z</time>
      </trkpt>
      <trkpt lat="44.34779" lon="6.61628">
        <ele>1401.4000244141</ele>
        <time>2020-08-13T11:55:14.000Z</time>
      </trkpt>
      <trkpt lat="44.3479" lon="6.61626">
        <ele>1400.1999511719</ele>
        <time>2020-08-13T11:55:15.000Z</time>
      </trkpt>
      <trkpt lat="44.3481" lon="6.61632">
        <ele>1398.4000244141</ele>
        <time>2020-08-13T11:55:17.000Z</time>
      </trkpt>
      <trkpt lat="44.3482" lon="6.61637">
        <ele>1397.5999755859</ele>
        <time>2020-08-13T11:55:18.000Z</time>
      </trkpt>
      <trkpt lat="44.3483" lon="6.61641">
        <ele>1396.8000488281</ele>
        <time>2020-08-13T11:55:19.000Z</time>
      </trkpt>
      <trkpt lat="44.34851" lon="6.61641">
        <ele>1395.4000244141</ele>
        <time>2020-08-13T11:55:21.000Z</time>
      </trkpt>
      <trkpt lat="44.34872" lon="6.61637">
        <ele>1394.4000244141</ele>
        <time>2020-08-13T11:55:23.000Z</time>
      </trkpt>
      <trkpt lat="44.34885" lon="6.61635">
        <ele>1393.8000488281</ele>
        <time>2020-08-13T11:55:24.000Z</time>
      </trkpt>
      <trkpt lat="44.34896" lon="6.61633">
        <ele>1393.4000244141</ele>
        <time>2020-08-13T11:55:25.000Z</time>
      </trkpt>
      <trkpt lat="44.34921" lon="6.6163">
        <ele>1392.4000244141</ele>
        <time>2020-08-13T11:55:27.000Z</time>
      </trkpt>
      <trkpt lat="44.34946" lon="6.61626">
        <ele>1390.5999755859</ele>
        <time>2020-08-13T11:55:29.000Z</time>
      </trkpt>
      <trkpt lat="44.34959" lon="6.61623">
        <ele>1389.5999755859</ele>
        <time>2020-08-13T11:55:30.000Z</time>
      </trkpt>
      <trkpt lat="44.34972" lon="6.61621">
        <ele>1388.1999511719</ele>
        <time>2020-08-13T11:55:31.000Z</time>
      </trkpt>
      <trkpt lat="44.34985" lon="6.61619">
        <ele>1387</ele>
        <time>2020-08-13T11:55:32.000Z</time>
      </trkpt>
      <trkpt lat="44.34997" lon="6.61616">
        <ele>1385.5999755859</ele>
        <time>2020-08-13T11:55:33.000Z</time>
      </trkpt>
      <trkpt lat="44.35011" lon="6.61613">
        <ele>1384.1999511719</ele>
        <time>2020-08-13T11:55:34.000Z</time>
      </trkpt>
      <trkpt lat="44.35024" lon="6.6161">
        <ele>1383</ele>
        <time>2020-08-13T11:55:35.000Z</time>
      </trkpt>
      <trkpt lat="44.35036" lon="6.61608">
        <ele>1381.8000488281</ele>
        <time>2020-08-13T11:55:36.000Z</time>
      </trkpt>
      <trkpt lat="44.35045" lon="6.61605">
        <ele>1380.5999755859</ele>
        <time>2020-08-13T11:55:37.000Z</time>
      </trkpt>
      <trkpt lat="44.35061" lon="6.61597">
        <ele>1379</ele>
        <time>2020-08-13T11:55:39.000Z</time>
      </trkpt>
      <trkpt lat="44.35068" lon="6.61578">
        <ele>1378</ele>
        <time>2020-08-13T11:55:41.000Z</time>
      </trkpt>
      <trkpt lat="44.35069" lon="6.61566">
        <ele>1377.4000244141</ele>
        <time>2020-08-13T11:55:42.000Z</time>
      </trkpt>
      <trkpt lat="44.3507" lon="6.61553">
        <ele>1377.1999511719</ele>
        <time>2020-08-13T11:55:43.000Z</time>
      </trkpt>
      <trkpt lat="44.35072" lon="6.6154">
        <ele>1377</ele>
        <time>2020-08-13T11:55:44.000Z</time>
      </trkpt>
      <trkpt lat="44.35075" lon="6.61527">
        <ele>1376.4000244141</ele>
        <time>2020-08-13T11:55:45.000Z</time>
      </trkpt>
      <trkpt lat="44.35082" lon="6.615">
        <ele>1374.8000488281</ele>
        <time>2020-08-13T11:55:47.000Z</time>
      </trkpt>
      <trkpt lat="44.35086" lon="6.61488">
        <ele>1373.8000488281</ele>
        <time>2020-08-13T11:55:48.000Z</time>
      </trkpt>
      <trkpt lat="44.3509" lon="6.61473">
        <ele>1372.5999755859</ele>
        <time>2020-08-13T11:55:49.000Z</time>
      </trkpt>
      <trkpt lat="44.35094" lon="6.61461">
        <ele>1371.8000488281</ele>
        <time>2020-08-13T11:55:50.000Z</time>
      </trkpt>
      <trkpt lat="44.35099" lon="6.61451">
        <ele>1371</ele>
        <time>2020-08-13T11:55:51.000Z</time>
      </trkpt>
      <trkpt lat="44.35106" lon="6.61445">
        <ele>1369.8000488281</ele>
        <time>2020-08-13T11:55:52.000Z</time>
      </trkpt>
      <trkpt lat="44.35123" lon="6.61435">
        <ele>1368.1999511719</ele>
        <time>2020-08-13T11:55:54.000Z</time>
      </trkpt>
      <trkpt lat="44.35133" lon="6.61432">
        <ele>1367.5999755859</ele>
        <time>2020-08-13T11:55:55.000Z</time>
      </trkpt>
      <trkpt lat="44.35142" lon="6.61431">
        <ele>1366.5999755859</ele>
        <time>2020-08-13T11:55:56.000Z</time>
      </trkpt>
      <trkpt lat="44.3516" lon="6.61427">
        <ele>1365.4000244141</ele>
        <time>2020-08-13T11:55:58.000Z</time>
      </trkpt>
      <trkpt lat="44.35191" lon="6.61422">
        <ele>1364.4000244141</ele>
        <time>2020-08-13T11:56:01.000Z</time>
      </trkpt>
      <trkpt lat="44.35201" lon="6.6142">
        <ele>1364</ele>
        <time>2020-08-13T11:56:02.000Z</time>
      </trkpt>
      <trkpt lat="44.35216" lon="6.61419">
        <ele>1362.5999755859</ele>
        <time>2020-08-13T11:56:04.000Z</time>
      </trkpt>
      <trkpt lat="44.35223" lon="6.61421">
        <ele>1362</ele>
        <time>2020-08-13T11:56:05.000Z</time>
      </trkpt>
      <trkpt lat="44.35229" lon="6.61426">
        <ele>1361.4000244141</ele>
        <time>2020-08-13T11:56:06.000Z</time>
      </trkpt>
      <trkpt lat="44.35233" lon="6.61435">
        <ele>1360.8000488281</ele>
        <time>2020-08-13T11:56:07.000Z</time>
      </trkpt>
      <trkpt lat="44.35238" lon="6.61453">
        <ele>1360.4000244141</ele>
        <time>2020-08-13T11:56:09.000Z</time>
      </trkpt>
      <trkpt lat="44.35241" lon="6.61462">
        <ele>1360.4000244141</ele>
        <time>2020-08-13T11:56:10.000Z</time>
      </trkpt>
      <trkpt lat="44.35261" lon="6.61497">
        <ele>1359.5999755859</ele>
        <time>2020-08-13T11:56:14.000Z</time>
      </trkpt>
      <trkpt lat="44.35263" lon="6.61507">
        <ele>1358.5999755859</ele>
        <time>2020-08-13T11:56:15.000Z</time>
      </trkpt>
      <trkpt lat="44.35262" lon="6.61519">
        <ele>1358</ele>
        <time>2020-08-13T11:56:16.000Z</time>
      </trkpt>
      <trkpt lat="44.3526" lon="6.6153">
        <ele>1357</ele>
        <time>2020-08-13T11:56:17.000Z</time>
      </trkpt>
      <trkpt lat="44.35261" lon="6.61555">
        <ele>1355.5999755859</ele>
        <time>2020-08-13T11:56:19.000Z</time>
      </trkpt>
      <trkpt lat="44.35265" lon="6.61578">
        <ele>1354.1999511719</ele>
        <time>2020-08-13T11:56:21.000Z</time>
      </trkpt>
      <trkpt lat="44.35272" lon="6.616">
        <ele>1353.1999511719</ele>
        <time>2020-08-13T11:56:23.000Z</time>
      </trkpt>
      <trkpt lat="44.35288" lon="6.61634">
        <ele>1352.4000244141</ele>
        <time>2020-08-13T11:56:26.000Z</time>
      </trkpt>
      <trkpt lat="44.35294" lon="6.61646">
        <ele>1352</ele>
        <time>2020-08-13T11:56:27.000Z</time>
      </trkpt>
      <trkpt lat="44.35308" lon="6.61671">
        <ele>1350.8000488281</ele>
        <time>2020-08-13T11:56:29.000Z</time>
      </trkpt>
      <trkpt lat="44.35323" lon="6.61696">
        <ele>1348.8000488281</ele>
        <time>2020-08-13T11:56:31.000Z</time>
      </trkpt>
      <trkpt lat="44.35331" lon="6.61708">
        <ele>1348</ele>
        <time>2020-08-13T11:56:32.000Z</time>
      </trkpt>
      <trkpt lat="44.35339" lon="6.61719">
        <ele>1347</ele>
        <time>2020-08-13T11:56:33.000Z</time>
      </trkpt>
      <trkpt lat="44.35359" lon="6.61738">
        <ele>1345.5999755859</ele>
        <time>2020-08-13T11:56:35.000Z</time>
      </trkpt>
      <trkpt lat="44.3537" lon="6.61746">
        <ele>1344.8000488281</ele>
        <time>2020-08-13T11:56:36.000Z</time>
      </trkpt>
      <trkpt lat="44.35382" lon="6.61753">
        <ele>1343.4000244141</ele>
        <time>2020-08-13T11:56:37.000Z</time>
      </trkpt>
      <trkpt lat="44.35394" lon="6.61759">
        <ele>1342.1999511719</ele>
        <time>2020-08-13T11:56:38.000Z</time>
      </trkpt>
      <trkpt lat="44.35407" lon="6.61766">
        <ele>1341.1999511719</ele>
        <time>2020-08-13T11:56:39.000Z</time>
      </trkpt>
      <trkpt lat="44.35418" lon="6.61772">
        <ele>1340.1999511719</ele>
        <time>2020-08-13T11:56:40.000Z</time>
      </trkpt>
      <trkpt lat="44.35431" lon="6.6178">
        <ele>1339</ele>
        <time>2020-08-13T11:56:41.000Z</time>
      </trkpt>
      <trkpt lat="44.35443" lon="6.61788">
        <ele>1338</ele>
        <time>2020-08-13T11:56:42.000Z</time>
      </trkpt>
      <trkpt lat="44.35453" lon="6.61798">
        <ele>1336.4000244141</ele>
        <time>2020-08-13T11:56:43.000Z</time>
      </trkpt>
      <trkpt lat="44.35463" lon="6.6181">
        <ele>1335.1999511719</ele>
        <time>2020-08-13T11:56:44.000Z</time>
      </trkpt>
      <trkpt lat="44.35473" lon="6.61822">
        <ele>1333.5999755859</ele>
        <time>2020-08-13T11:56:45.000Z</time>
      </trkpt>
      <trkpt lat="44.35482" lon="6.61835">
        <ele>1332.1999511719</ele>
        <time>2020-08-13T11:56:46.000Z</time>
      </trkpt>
      <trkpt lat="44.35491" lon="6.61849">
        <ele>1331.4000244141</ele>
        <time>2020-08-13T11:56:47.000Z</time>
      </trkpt>
      <trkpt lat="44.355" lon="6.61861">
        <ele>1330.8000488281</ele>
        <time>2020-08-13T11:56:48.000Z</time>
      </trkpt>
      <trkpt lat="44.35519" lon="6.61887">
        <ele>1328.8000488281</ele>
        <time>2020-08-13T11:56:50.000Z</time>
      </trkpt>
      <trkpt lat="44.35538" lon="6.61912">
        <ele>1327.1999511719</ele>
        <time>2020-08-13T11:56:52.000Z</time>
      </trkpt>
      <trkpt lat="44.35557" lon="6.61936">
        <ele>1326</ele>
        <time>2020-08-13T11:56:54.000Z</time>
      </trkpt>
      <trkpt lat="44.35577" lon="6.61962">
        <ele>1324</ele>
        <time>2020-08-13T11:56:56.000Z</time>
      </trkpt>
      <trkpt lat="44.35585" lon="6.61974">
        <ele>1322.8000488281</ele>
        <time>2020-08-13T11:56:57.000Z</time>
      </trkpt>
      <trkpt lat="44.35592" lon="6.61986">
        <ele>1321.1999511719</ele>
        <time>2020-08-13T11:56:58.000Z</time>
      </trkpt>
      <trkpt lat="44.35599" lon="6.62">
        <ele>1319.8000488281</ele>
        <time>2020-08-13T11:56:59.000Z</time>
      </trkpt>
      <trkpt lat="44.35604" lon="6.62012">
        <ele>1318.5999755859</ele>
        <time>2020-08-13T11:57:00.000Z</time>
      </trkpt>
      <trkpt lat="44.3561" lon="6.62022">
        <ele>1317.4000244141</ele>
        <time>2020-08-13T11:57:01.000Z</time>
      </trkpt>
      <trkpt lat="44.35617" lon="6.62029">
        <ele>1316.8000488281</ele>
        <time>2020-08-13T11:57:02.000Z</time>
      </trkpt>
      <trkpt lat="44.35626" lon="6.62033">
        <ele>1316.4000244141</ele>
        <time>2020-08-13T11:57:03.000Z</time>
      </trkpt>
      <trkpt lat="44.35636" lon="6.62034">
        <ele>1315.1999511719</ele>
        <time>2020-08-13T11:57:04.000Z</time>
      </trkpt>
      <trkpt lat="44.35654" lon="6.62024">
        <ele>1313.4000244141</ele>
        <time>2020-08-13T11:57:06.000Z</time>
      </trkpt>
      <trkpt lat="44.35664" lon="6.62015">
        <ele>1312.4000244141</ele>
        <time>2020-08-13T11:57:07.000Z</time>
      </trkpt>
      <trkpt lat="44.3568" lon="6.61995">
        <ele>1311</ele>
        <time>2020-08-13T11:57:09.000Z</time>
      </trkpt>
      <trkpt lat="44.35691" lon="6.61971">
        <ele>1309.5999755859</ele>
        <time>2020-08-13T11:57:11.000Z</time>
      </trkpt>
      <trkpt lat="44.35695" lon="6.61962">
        <ele>1309.1999511719</ele>
        <time>2020-08-13T11:57:12.000Z</time>
      </trkpt>
      <trkpt lat="44.357" lon="6.61955">
        <ele>1308.8000488281</ele>
        <time>2020-08-13T11:57:13.000Z</time>
      </trkpt>
      <trkpt lat="44.35706" lon="6.6195">
        <ele>1308.4000244141</ele>
        <time>2020-08-13T11:57:14.000Z</time>
      </trkpt>
      <trkpt lat="44.35712" lon="6.61949">
        <ele>1308.1999511719</ele>
        <time>2020-08-13T11:57:15.000Z</time>
      </trkpt>
      <trkpt lat="44.35724" lon="6.61959">
        <ele>1307.5999755859</ele>
        <time>2020-08-13T11:57:17.000Z</time>
      </trkpt>
      <trkpt lat="44.35728" lon="6.61967">
        <ele>1307.1999511719</ele>
        <time>2020-08-13T11:57:18.000Z</time>
      </trkpt>
      <trkpt lat="44.35733" lon="6.61977">
        <ele>1307</ele>
        <time>2020-08-13T11:57:19.000Z</time>
      </trkpt>
      <trkpt lat="44.35738" lon="6.61987">
        <ele>1306.5999755859</ele>
        <time>2020-08-13T11:57:20.000Z</time>
      </trkpt>
      <trkpt lat="44.35744" lon="6.61996">
        <ele>1305.8000488281</ele>
        <time>2020-08-13T11:57:21.000Z</time>
      </trkpt>
      <trkpt lat="44.35759" lon="6.62008">
        <ele>1304.5999755859</ele>
        <time>2020-08-13T11:57:23.000Z</time>
      </trkpt>
      <trkpt lat="44.35767" lon="6.62017">
        <ele>1303.5999755859</ele>
        <time>2020-08-13T11:57:24.000Z</time>
      </trkpt>
      <trkpt lat="44.35778" lon="6.62037">
        <ele>1302</ele>
        <time>2020-08-13T11:57:26.000Z</time>
      </trkpt>
      <trkpt lat="44.35786" lon="6.62047">
        <ele>1301.4000244141</ele>
        <time>2020-08-13T11:57:27.000Z</time>
      </trkpt>
      <trkpt lat="44.35792" lon="6.62056">
        <ele>1300.8000488281</ele>
        <time>2020-08-13T11:57:28.000Z</time>
      </trkpt>
      <trkpt lat="44.35798" lon="6.6207">
        <ele>1300.1999511719</ele>
        <time>2020-08-13T11:57:29.000Z</time>
      </trkpt>
      <trkpt lat="44.35803" lon="6.62084">
        <ele>1299.1999511719</ele>
        <time>2020-08-13T11:57:30.000Z</time>
      </trkpt>
      <trkpt lat="44.35814" lon="6.62112">
        <ele>1297.5999755859</ele>
        <time>2020-08-13T11:57:32.000Z</time>
      </trkpt>
      <trkpt lat="44.35819" lon="6.62125">
        <ele>1296.5999755859</ele>
        <time>2020-08-13T11:57:33.000Z</time>
      </trkpt>
      <trkpt lat="44.35826" lon="6.62138">
        <ele>1295.1999511719</ele>
        <time>2020-08-13T11:57:34.000Z</time>
      </trkpt>
      <trkpt lat="44.35833" lon="6.6215">
        <ele>1294</ele>
        <time>2020-08-13T11:57:35.000Z</time>
      </trkpt>
      <trkpt lat="44.35841" lon="6.62159">
        <ele>1292.8000488281</ele>
        <time>2020-08-13T11:57:36.000Z</time>
      </trkpt>
      <trkpt lat="44.3586" lon="6.62172">
        <ele>1290.8000488281</ele>
        <time>2020-08-13T11:57:38.000Z</time>
      </trkpt>
      <trkpt lat="44.35871" lon="6.62177">
        <ele>1289.8000488281</ele>
        <time>2020-08-13T11:57:39.000Z</time>
      </trkpt>
      <trkpt lat="44.35881" lon="6.62181">
        <ele>1289.1999511719</ele>
        <time>2020-08-13T11:57:40.000Z</time>
      </trkpt>
      <trkpt lat="44.35893" lon="6.62184">
        <ele>1288.4000244141</ele>
        <time>2020-08-13T11:57:41.000Z</time>
      </trkpt>
      <trkpt lat="44.35905" lon="6.62186">
        <ele>1287.5999755859</ele>
        <time>2020-08-13T11:57:42.000Z</time>
      </trkpt>
      <trkpt lat="44.35916" lon="6.62189">
        <ele>1287.1999511719</ele>
        <time>2020-08-13T11:57:43.000Z</time>
      </trkpt>
      <trkpt lat="44.35927" lon="6.62195">
        <ele>1286.1999511719</ele>
        <time>2020-08-13T11:57:44.000Z</time>
      </trkpt>
      <trkpt lat="44.35943" lon="6.62213">
        <ele>1284.4000244141</ele>
        <time>2020-08-13T11:57:46.000Z</time>
      </trkpt>
      <trkpt lat="44.35951" lon="6.62223">
        <ele>1283.8000488281</ele>
        <time>2020-08-13T11:57:47.000Z</time>
      </trkpt>
      <trkpt lat="44.35957" lon="6.62232">
        <ele>1282.8000488281</ele>
        <time>2020-08-13T11:57:48.000Z</time>
      </trkpt>
      <trkpt lat="44.35964" lon="6.6224">
        <ele>1282.4000244141</ele>
        <time>2020-08-13T11:57:49.000Z</time>
      </trkpt>
      <trkpt lat="44.35971" lon="6.62243">
        <ele>1281.8000488281</ele>
        <time>2020-08-13T11:57:50.000Z</time>
      </trkpt>
      <trkpt lat="44.35979" lon="6.62243">
        <ele>1281.8000488281</ele>
        <time>2020-08-13T11:57:51.000Z</time>
      </trkpt>
      <trkpt lat="44.35986" lon="6.62238">
        <ele>1281.4000244141</ele>
        <time>2020-08-13T11:57:52.000Z</time>
      </trkpt>
      <trkpt lat="44.36" lon="6.62221">
        <ele>1280.4000244141</ele>
        <time>2020-08-13T11:57:54.000Z</time>
      </trkpt>
      <trkpt lat="44.36006" lon="6.62213">
        <ele>1279.8000488281</ele>
        <time>2020-08-13T11:57:55.000Z</time>
      </trkpt>
      <trkpt lat="44.36014" lon="6.62207">
        <ele>1279.1999511719</ele>
        <time>2020-08-13T11:57:56.000Z</time>
      </trkpt>
      <trkpt lat="44.36029" lon="6.62208">
        <ele>1278.1999511719</ele>
        <time>2020-08-13T11:57:58.000Z</time>
      </trkpt>
      <trkpt lat="44.36039" lon="6.62227">
        <ele>1277</ele>
        <time>2020-08-13T11:58:00.000Z</time>
      </trkpt>
      <trkpt lat="44.36048" lon="6.62258">
        <ele>1275.5999755859</ele>
        <time>2020-08-13T11:58:03.000Z</time>
      </trkpt>
      <trkpt lat="44.36063" lon="6.62266">
        <ele>1275</ele>
        <time>2020-08-13T11:58:05.000Z</time>
      </trkpt>
      <trkpt lat="44.36072" lon="6.62267">
        <ele>1274.4000244141</ele>
        <time>2020-08-13T11:58:06.000Z</time>
      </trkpt>
      <trkpt lat="44.36082" lon="6.62269">
        <ele>1273.4000244141</ele>
        <time>2020-08-13T11:58:07.000Z</time>
      </trkpt>
      <trkpt lat="44.36092" lon="6.62271">
        <ele>1272.4000244141</ele>
        <time>2020-08-13T11:58:08.000Z</time>
      </trkpt>
      <trkpt lat="44.36102" lon="6.62274">
        <ele>1271.1999511719</ele>
        <time>2020-08-13T11:58:09.000Z</time>
      </trkpt>
      <trkpt lat="44.36124" lon="6.62277">
        <ele>1269.4000244141</ele>
        <time>2020-08-13T11:58:11.000Z</time>
      </trkpt>
      <trkpt lat="44.36135" lon="6.62276">
        <ele>1268.5999755859</ele>
        <time>2020-08-13T11:58:12.000Z</time>
      </trkpt>
      <trkpt lat="44.36146" lon="6.62274">
        <ele>1267.5999755859</ele>
        <time>2020-08-13T11:58:13.000Z</time>
      </trkpt>
      <trkpt lat="44.36167" lon="6.62261">
        <ele>1265</ele>
        <time>2020-08-13T11:58:15.000Z</time>
      </trkpt>
      <trkpt lat="44.36174" lon="6.62256">
        <ele>1263.8000488281</ele>
        <time>2020-08-13T11:58:16.000Z</time>
      </trkpt>
      <trkpt lat="44.36185" lon="6.62251">
        <ele>1262.5999755859</ele>
        <time>2020-08-13T11:58:17.000Z</time>
      </trkpt>
      <trkpt lat="44.36203" lon="6.62252">
        <ele>1261</ele>
        <time>2020-08-13T11:58:19.000Z</time>
      </trkpt>
      <trkpt lat="44.36224" lon="6.6226">
        <ele>1259.1999511719</ele>
        <time>2020-08-13T11:58:21.000Z</time>
      </trkpt>
      <trkpt lat="44.36244" lon="6.62264">
        <ele>1258</ele>
        <time>2020-08-13T11:58:23.000Z</time>
      </trkpt>
      <trkpt lat="44.36267" lon="6.62265">
        <ele>1256</ele>
        <time>2020-08-13T11:58:25.000Z</time>
      </trkpt>
      <trkpt lat="44.36284" lon="6.62268">
        <ele>1254.4000244141</ele>
        <time>2020-08-13T11:58:27.000Z</time>
      </trkpt>
      <trkpt lat="44.36296" lon="6.62284">
        <ele>1253.1999511719</ele>
        <time>2020-08-13T11:58:29.000Z</time>
      </trkpt>
      <trkpt lat="44.36304" lon="6.62308">
        <ele>1252.1999511719</ele>
        <time>2020-08-13T11:58:31.000Z</time>
      </trkpt>
      <trkpt lat="44.36308" lon="6.6232">
        <ele>1251.1999511719</ele>
        <time>2020-08-13T11:58:32.000Z</time>
      </trkpt>
      <trkpt lat="44.36313" lon="6.62332">
        <ele>1250.1999511719</ele>
        <time>2020-08-13T11:58:33.000Z</time>
      </trkpt>
      <trkpt lat="44.36319" lon="6.62344">
        <ele>1249.4000244141</ele>
        <time>2020-08-13T11:58:34.000Z</time>
      </trkpt>
      <trkpt lat="44.36327" lon="6.62356">
        <ele>1248.5999755859</ele>
        <time>2020-08-13T11:58:35.000Z</time>
      </trkpt>
      <trkpt lat="44.36335" lon="6.62365">
        <ele>1247.8000488281</ele>
        <time>2020-08-13T11:58:36.000Z</time>
      </trkpt>
      <trkpt lat="44.36345" lon="6.62373">
        <ele>1247.1999511719</ele>
        <time>2020-08-13T11:58:37.000Z</time>
      </trkpt>
      <trkpt lat="44.36367" lon="6.62383">
        <ele>1246</ele>
        <time>2020-08-13T11:58:39.000Z</time>
      </trkpt>
      <trkpt lat="44.36379" lon="6.62386">
        <ele>1244.8000488281</ele>
        <time>2020-08-13T11:58:40.000Z</time>
      </trkpt>
      <trkpt lat="44.36392" lon="6.62388">
        <ele>1243.8000488281</ele>
        <time>2020-08-13T11:58:41.000Z</time>
      </trkpt>
      <trkpt lat="44.36404" lon="6.62391">
        <ele>1242.4000244141</ele>
        <time>2020-08-13T11:58:42.000Z</time>
      </trkpt>
      <trkpt lat="44.36417" lon="6.62393">
        <ele>1241.1999511719</ele>
        <time>2020-08-13T11:58:43.000Z</time>
      </trkpt>
      <trkpt lat="44.36431" lon="6.62396">
        <ele>1240</ele>
        <time>2020-08-13T11:58:44.000Z</time>
      </trkpt>
      <trkpt lat="44.36444" lon="6.62399">
        <ele>1238.8000488281</ele>
        <time>2020-08-13T11:58:45.000Z</time>
      </trkpt>
      <trkpt lat="44.36456" lon="6.62402">
        <ele>1237.5999755859</ele>
        <time>2020-08-13T11:58:46.000Z</time>
      </trkpt>
      <trkpt lat="44.36483" lon="6.6241">
        <ele>1235.5999755859</ele>
        <time>2020-08-13T11:58:48.000Z</time>
      </trkpt>
      <trkpt lat="44.36496" lon="6.62415">
        <ele>1234.5999755859</ele>
        <time>2020-08-13T11:58:49.000Z</time>
      </trkpt>
      <trkpt lat="44.36508" lon="6.62419">
        <ele>1233</ele>
        <time>2020-08-13T11:58:50.000Z</time>
      </trkpt>
      <trkpt lat="44.3652" lon="6.62425">
        <ele>1232</ele>
        <time>2020-08-13T11:58:51.000Z</time>
      </trkpt>
      <trkpt lat="44.36538" lon="6.62434">
        <ele>1230.4000244141</ele>
        <time>2020-08-13T11:58:53.000Z</time>
      </trkpt>
      <trkpt lat="44.36545" lon="6.62439">
        <ele>1229.8000488281</ele>
        <time>2020-08-13T11:58:54.000Z</time>
      </trkpt>
      <trkpt lat="44.36551" lon="6.62444">
        <ele>1229.1999511719</ele>
        <time>2020-08-13T11:58:55.000Z</time>
      </trkpt>
      <trkpt lat="44.36557" lon="6.62448">
        <ele>1229</ele>
        <time>2020-08-13T11:58:56.000Z</time>
      </trkpt>
      <trkpt lat="44.3657" lon="6.62457">
        <ele>1228.1999511719</ele>
        <time>2020-08-13T11:58:59.000Z</time>
      </trkpt>
      <trkpt lat="44.36573" lon="6.6246">
        <ele>1228.1999511719</ele>
        <time>2020-08-13T11:59:00.000Z</time>
      </trkpt>
      <trkpt lat="44.36571" lon="6.62467">
        <ele>1227.5999755859</ele>
        <time>2020-08-13T11:59:03.000Z</time>
      </trkpt>
      <trkpt lat="44.36561" lon="6.62464">
        <ele>1227.1999511719</ele>
        <time>2020-08-13T11:59:07.000Z</time>
      </trkpt>
      <trkpt lat="44.36558" lon="6.62462">
        <ele>1227</ele>
        <time>2020-08-13T11:59:08.000Z</time>
      </trkpt>
      <trkpt lat="44.36544" lon="6.62454">
        <ele>1226.1999511719</ele>
        <time>2020-08-13T11:59:11.000Z</time>
      </trkpt>
      <trkpt lat="44.36538" lon="6.62451">
        <ele>1225.8000488281</ele>
        <time>2020-08-13T11:59:12.000Z</time>
      </trkpt>
      <trkpt lat="44.36532" lon="6.62449">
        <ele>1225.4000244141</ele>
        <time>2020-08-13T11:59:13.000Z</time>
      </trkpt>
      <trkpt lat="44.36517" lon="6.62448">
        <ele>1224.5999755859</ele>
        <time>2020-08-13T11:59:15.000Z</time>
      </trkpt>
      <trkpt lat="44.36501" lon="6.62448">
        <ele>1223.4000244141</ele>
        <time>2020-08-13T11:59:17.000Z</time>
      </trkpt>
      <trkpt lat="44.36484" lon="6.62448">
        <ele>1222</ele>
        <time>2020-08-13T11:59:19.000Z</time>
      </trkpt>
      <trkpt lat="44.36475" lon="6.6245">
        <ele>1221.4000244141</ele>
        <time>2020-08-13T11:59:20.000Z</time>
      </trkpt>
      <trkpt lat="44.36465" lon="6.62453">
        <ele>1220.8000488281</ele>
        <time>2020-08-13T11:59:21.000Z</time>
      </trkpt>
      <trkpt lat="44.36449" lon="6.62461">
        <ele>1219.5999755859</ele>
        <time>2020-08-13T11:59:23.000Z</time>
      </trkpt>
      <trkpt lat="44.36437" lon="6.62467">
        <ele>1218.5999755859</ele>
        <time>2020-08-13T11:59:24.000Z</time>
      </trkpt>
      <trkpt lat="44.36427" lon="6.62473">
        <ele>1217.8000488281</ele>
        <time>2020-08-13T11:59:25.000Z</time>
      </trkpt>
      <trkpt lat="44.36417" lon="6.62479">
        <ele>1216.1999511719</ele>
        <time>2020-08-13T11:59:26.000Z</time>
      </trkpt>
      <trkpt lat="44.36407" lon="6.62484">
        <ele>1215</ele>
        <time>2020-08-13T11:59:27.000Z</time>
      </trkpt>
      <trkpt lat="44.36387" lon="6.62491">
        <ele>1214</ele>
        <time>2020-08-13T11:59:29.000Z</time>
      </trkpt>
      <trkpt lat="44.36377" lon="6.62492">
        <ele>1213.1999511719</ele>
        <time>2020-08-13T11:59:30.000Z</time>
      </trkpt>
      <trkpt lat="44.36346" lon="6.62488">
        <ele>1212.4000244141</ele>
        <time>2020-08-13T11:59:33.000Z</time>
      </trkpt>
      <trkpt lat="44.36336" lon="6.62486">
        <ele>1212.4000244141</ele>
        <time>2020-08-13T11:59:34.000Z</time>
      </trkpt>
      <trkpt lat="44.36325" lon="6.62484">
        <ele>1212</ele>
        <time>2020-08-13T11:59:35.000Z</time>
      </trkpt>
      <trkpt lat="44.36294" lon="6.6248">
        <ele>1210.5999755859</ele>
        <time>2020-08-13T11:59:38.000Z</time>
      </trkpt>
      <trkpt lat="44.36285" lon="6.6248">
        <ele>1209.4000244141</ele>
        <time>2020-08-13T11:59:39.000Z</time>
      </trkpt>
      <trkpt lat="44.36269" lon="6.62491">
        <ele>1207.5999755859</ele>
        <time>2020-08-13T11:59:41.000Z</time>
      </trkpt>
      <trkpt lat="44.36257" lon="6.62511">
        <ele>1206.5999755859</ele>
        <time>2020-08-13T11:59:43.000Z</time>
      </trkpt>
      <trkpt lat="44.36251" lon="6.62523">
        <ele>1205.8000488281</ele>
        <time>2020-08-13T11:59:44.000Z</time>
      </trkpt>
      <trkpt lat="44.36245" lon="6.62534">
        <ele>1204.8000488281</ele>
        <time>2020-08-13T11:59:45.000Z</time>
      </trkpt>
      <trkpt lat="44.36238" lon="6.62543">
        <ele>1204.4000244141</ele>
        <time>2020-08-13T11:59:46.000Z</time>
      </trkpt>
      <trkpt lat="44.36228" lon="6.6255">
        <ele>1203.5999755859</ele>
        <time>2020-08-13T11:59:47.000Z</time>
      </trkpt>
      <trkpt lat="44.36198" lon="6.62565">
        <ele>1202.1999511719</ele>
        <time>2020-08-13T11:59:50.000Z</time>
      </trkpt>
      <trkpt lat="44.3618" lon="6.62572">
        <ele>1200.5999755859</ele>
        <time>2020-08-13T11:59:52.000Z</time>
      </trkpt>
      <trkpt lat="44.36171" lon="6.62573">
        <ele>1199.1999511719</ele>
        <time>2020-08-13T11:59:53.000Z</time>
      </trkpt>
      <trkpt lat="44.36163" lon="6.6257">
        <ele>1198.1999511719</ele>
        <time>2020-08-13T11:59:54.000Z</time>
      </trkpt>
      <trkpt lat="44.36156" lon="6.62564">
        <ele>1197.4000244141</ele>
        <time>2020-08-13T11:59:55.000Z</time>
      </trkpt>
      <trkpt lat="44.3615" lon="6.62556">
        <ele>1196.5999755859</ele>
        <time>2020-08-13T11:59:56.000Z</time>
      </trkpt>
      <trkpt lat="44.36145" lon="6.62547">
        <ele>1196.4000244141</ele>
        <time>2020-08-13T11:59:57.000Z</time>
      </trkpt>
      <trkpt lat="44.36141" lon="6.62539">
        <ele>1196.5999755859</ele>
        <time>2020-08-13T11:59:58.000Z</time>
      </trkpt>
      <trkpt lat="44.36132" lon="6.6252">
        <ele>1196.1999511719</ele>
        <time>2020-08-13T12:00:00.000Z</time>
      </trkpt>
      <trkpt lat="44.36127" lon="6.62511">
        <ele>1195.8000488281</ele>
        <time>2020-08-13T12:00:01.000Z</time>
      </trkpt>
      <trkpt lat="44.36107" lon="6.62493">
        <ele>1195.8000488281</ele>
        <time>2020-08-13T12:00:04.000Z</time>
      </trkpt>
      <trkpt lat="44.36083" lon="6.62488">
        <ele>1195.4000244141</ele>
        <time>2020-08-13T12:00:07.000Z</time>
      </trkpt>
      <trkpt lat="44.36077" lon="6.62489">
        <ele>1195.1999511719</ele>
        <time>2020-08-13T12:00:08.000Z</time>
      </trkpt>
      <trkpt lat="44.36065" lon="6.62492">
        <ele>1194</ele>
        <time>2020-08-13T12:00:10.000Z</time>
      </trkpt>
      <trkpt lat="44.3606" lon="6.62494">
        <ele>1193.1999511719</ele>
        <time>2020-08-13T12:00:11.000Z</time>
      </trkpt>
      <trkpt lat="44.36056" lon="6.62495">
        <ele>1192.8000488281</ele>
        <time>2020-08-13T12:00:12.000Z</time>
      </trkpt>
      <trkpt lat="44.36049" lon="6.62498">
        <ele>1192.1999511719</ele>
        <time>2020-08-13T12:00:15.000Z</time>
      </trkpt>
      <trkpt lat="44.3605" lon="6.62501">
        <ele>1193.1999511719</ele>
        <time>2020-08-13T12:00:18.000Z</time>
      </trkpt>
      <trkpt lat="44.36059" lon="6.62497">
        <ele>1193.1999511719</ele>
        <time>2020-08-13T12:00:22.000Z</time>
      </trkpt>
      <trkpt lat="44.36062" lon="6.62496">
        <ele>1193.1999511719</ele>
        <time>2020-08-13T12:00:23.000Z</time>
      </trkpt>
      <trkpt lat="44.36069" lon="6.62496">
        <ele>1192.8000488281</ele>
        <time>2020-08-13T12:00:27.000Z</time>
      </trkpt>
      <trkpt lat="44.3607" lon="6.62496">
        <ele>1193</ele>
        <time>2020-08-13T12:00:34.000Z</time>
      </trkpt>
      <trkpt lat="44.3607" lon="6.62497">
        <ele>1193</ele>
        <time>2020-08-13T12:00:40.000Z</time>
      </trkpt>
      <trkpt lat="44.36065" lon="6.62499">
        <ele>1192.8000488281</ele>
        <time>2020-08-13T12:00:47.000Z</time>
      </trkpt>
      <trkpt lat="44.36057" lon="6.62496">
        <ele>1193</ele>
        <time>2020-08-13T12:00:53.000Z</time>
      </trkpt>
      <trkpt lat="44.36053" lon="6.62497">
        <ele>1193.4000244141</ele>
        <time>2020-08-13T12:00:56.000Z</time>
      </trkpt>
      <trkpt lat="44.36051" lon="6.625">
        <ele>1193.4000244141</ele>
        <time>2020-08-13T12:00:59.000Z</time>
      </trkpt>
      <trkpt lat="44.36049" lon="6.62504">
        <ele>1193.4000244141</ele>
        <time>2020-08-13T12:01:01.000Z</time>
      </trkpt>
      <trkpt lat="44.36051" lon="6.62511">
        <ele>1193.5999755859</ele>
        <time>2020-08-13T12:01:04.000Z</time>
      </trkpt>
      <trkpt lat="44.36055" lon="6.62517">
        <ele>1193.8000488281</ele>
        <time>2020-08-13T12:01:06.000Z</time>
      </trkpt>
      <trkpt lat="44.36061" lon="6.62525">
        <ele>1194</ele>
        <time>2020-08-13T12:01:09.000Z</time>
      </trkpt>
      <trkpt lat="44.36074" lon="6.62541">
        <ele>1193.4000244141</ele>
        <time>2020-08-13T12:01:14.000Z</time>
      </trkpt>
      <trkpt lat="44.36078" lon="6.62544">
        <ele>1193</ele>
        <time>2020-08-13T12:01:19.000Z</time>
      </trkpt>
      <trkpt lat="44.36078" lon="6.62544">
        <ele>1192.8000488281</ele>
        <time>2020-08-13T12:01:22.000Z</time>
      </trkpt>
      <trkpt lat="44.36078" lon="6.62543">
        <ele>1192.8000488281</ele>
        <time>2020-08-13T12:01:28.000Z</time>
      </trkpt>
      <trkpt lat="44.36078" lon="6.62538">
        <ele>1193</ele>
        <time>2020-08-13T12:01:36.000Z</time>
      </trkpt>
      <trkpt lat="44.36078" lon="6.62539">
        <ele>1192.8000488281</ele>
        <time>2020-08-13T12:01:42.000Z</time>
      </trkpt>
      <trkpt lat="44.36079" lon="6.62541">
        <ele>1193</ele>
        <time>2020-08-13T12:01:49.000Z</time>
      </trkpt>
      <trkpt lat="44.36078" lon="6.6254">
        <ele>1193</ele>
        <time>2020-08-13T12:01:58.000Z</time>
      </trkpt>
      <trkpt lat="44.36079" lon="6.6254">
        <ele>1193.1999511719</ele>
        <time>2020-08-13T12:02:03.000Z</time>
      </trkpt>
      <trkpt lat="44.36079" lon="6.6254">
        <ele>1193</ele>
        <time>2020-08-13T12:02:15.000Z</time>
      </trkpt>
      <trkpt lat="44.36078" lon="6.62538">
        <ele>1193</ele>
        <time>2020-08-13T12:02:23.000Z</time>
      </trkpt>
      <trkpt lat="44.36079" lon="6.62538">
        <ele>1192.5999755859</ele>
        <time>2020-08-13T12:02:31.000Z</time>
      </trkpt>
      <trkpt lat="44.36079" lon="6.62539">
        <ele>1193</ele>
        <time>2020-08-13T12:02:42.000Z</time>
      </trkpt>
      <trkpt lat="44.36079" lon="6.62541">
        <ele>1193</ele>
        <time>2020-08-13T12:02:52.000Z</time>
      </trkpt>
      <trkpt lat="44.36079" lon="6.62541">
        <ele>1192.8000488281</ele>
        <time>2020-08-13T12:03:04.000Z</time>
      </trkpt>
      <trkpt lat="44.36079" lon="6.62541">
        <ele>1193</ele>
        <time>2020-08-13T12:03:15.000Z</time>
      </trkpt>
      <trkpt lat="44.36079" lon="6.62542">
        <ele>1192.8000488281</ele>
        <time>2020-08-13T12:03:24.000Z</time>
      </trkpt>
      <trkpt lat="44.36078" lon="6.62542">
        <ele>1192.8000488281</ele>
        <time>2020-08-13T12:03:37.000Z</time>
      </trkpt>
      <trkpt lat="44.36078" lon="6.6254">
        <ele>1192.5999755859</ele>
        <time>2020-08-13T12:03:42.000Z</time>
      </trkpt>
      <trkpt lat="44.36078" lon="6.62541">
        <ele>1192.5999755859</ele>
        <time>2020-08-13T12:03:48.000Z</time>
      </trkpt>
      <trkpt lat="44.36079" lon="6.62542">
        <ele>1193</ele>
        <time>2020-08-13T12:03:55.000Z</time>
      </trkpt>
      <trkpt lat="44.36079" lon="6.62542">
        <ele>1192.4000244141</ele>
        <time>2020-08-13T12:04:01.000Z</time>
      </trkpt>
      <trkpt lat="44.36079" lon="6.62541">
        <ele>1191.8000488281</ele>
        <time>2020-08-13T12:04:05.000Z</time>
      </trkpt>
      <trkpt lat="44.3608" lon="6.62541">
        <ele>1192.1999511719</ele>
        <time>2020-08-13T12:04:12.000Z</time>
      </trkpt>
      <trkpt lat="44.3608" lon="6.62541">
        <ele>1192.8000488281</ele>
        <time>2020-08-13T12:04:23.000Z</time>
      </trkpt>
      <trkpt lat="44.3608" lon="6.62541">
        <ele>1192.5999755859</ele>
        <time>2020-08-13T12:04:28.000Z</time>
      </trkpt>
      <trkpt lat="44.3608" lon="6.6254">
        <ele>1192.8000488281</ele>
        <time>2020-08-13T12:04:38.000Z</time>
      </trkpt>
      <trkpt lat="44.36081" lon="6.6254">
        <ele>1192.8000488281</ele>
        <time>2020-08-13T12:04:46.000Z</time>
      </trkpt>
      <trkpt lat="44.3608" lon="6.6254">
        <ele>1192.8000488281</ele>
        <time>2020-08-13T12:04:59.000Z</time>
      </trkpt>
      <trkpt lat="44.36081" lon="6.6254">
        <ele>1192.8000488281</ele>
        <time>2020-08-13T12:05:07.000Z</time>
      </trkpt>
      <trkpt lat="44.36082" lon="6.6254">
        <ele>1192.5999755859</ele>
        <time>2020-08-13T12:05:18.000Z</time>
      </trkpt>
      <trkpt lat="44.36082" lon="6.6254">
        <ele>1192.5999755859</ele>
        <time>2020-08-13T12:05:29.000Z</time>
      </trkpt>
      <trkpt lat="44.36082" lon="6.6254">
        <ele>1192.5999755859</ele>
        <time>2020-08-13T12:05:38.000Z</time>
      </trkpt>
      <trkpt lat="44.36082" lon="6.6254">
        <ele>1192.5999755859</ele>
        <time>2020-08-13T12:05:49.000Z</time>
      </trkpt>
      <trkpt lat="44.3608" lon="6.6254">
        <ele>1192.4000244141</ele>
        <time>2020-08-13T12:06:02.000Z</time>
      </trkpt>
      <trkpt lat="44.36082" lon="6.62539">
        <ele>1192.1999511719</ele>
        <time>2020-08-13T12:06:21.000Z</time>
      </trkpt>
      <trkpt lat="44.36084" lon="6.62539">
        <ele>1192.8000488281</ele>
        <time>2020-08-13T12:06:33.000Z</time>
      </trkpt>
      <trkpt lat="44.36083" lon="6.62539">
        <ele>1192.8000488281</ele>
        <time>2020-08-13T12:06:42.000Z</time>
      </trkpt>
      <trkpt lat="44.36083" lon="6.62539">
        <ele>1192.1999511719</ele>
        <time>2020-08-13T12:06:51.000Z</time>
      </trkpt>
      <trkpt lat="44.36083" lon="6.62538">
        <ele>1192.8000488281</ele>
        <time>2020-08-13T12:07:04.000Z</time>
      </trkpt>
      <trkpt lat="44.36083" lon="6.62537">
        <ele>1192.5999755859</ele>
        <time>2020-08-13T12:07:14.000Z</time>
      </trkpt>
      <trkpt lat="44.36083" lon="6.62536">
        <ele>1192.8000488281</ele>
        <time>2020-08-13T12:07:19.000Z</time>
      </trkpt>
      <trkpt lat="44.36082" lon="6.62535">
        <ele>1192.5999755859</ele>
        <time>2020-08-13T12:07:31.000Z</time>
      </trkpt>
      <trkpt lat="44.36084" lon="6.62535">
        <ele>1192.5999755859</ele>
        <time>2020-08-13T12:07:42.000Z</time>
      </trkpt>
      <trkpt lat="44.36084" lon="6.62536">
        <ele>1192.1999511719</ele>
        <time>2020-08-13T12:07:50.000Z</time>
      </trkpt>
      <trkpt lat="44.36083" lon="6.62536">
        <ele>1192.8000488281</ele>
        <time>2020-08-13T12:07:58.000Z</time>
      </trkpt>
      <trkpt lat="44.36082" lon="6.62535">
        <ele>1192.4000244141</ele>
        <time>2020-08-13T12:08:08.000Z</time>
      </trkpt>
      <trkpt lat="44.36082" lon="6.62536">
        <ele>1192.4000244141</ele>
        <time>2020-08-13T12:08:17.000Z</time>
      </trkpt>
      <trkpt lat="44.36082" lon="6.62537">
        <ele>1192.4000244141</ele>
        <time>2020-08-13T12:08:24.000Z</time>
      </trkpt>
      <trkpt lat="44.36082" lon="6.62537">
        <ele>1192.4000244141</ele>
        <time>2020-08-13T12:08:38.000Z</time>
      </trkpt>
      <trkpt lat="44.36082" lon="6.62537">
        <ele>1192.8000488281</ele>
        <time>2020-08-13T12:08:43.000Z</time>
      </trkpt>
      <trkpt lat="44.36082" lon="6.62538">
        <ele>1193</ele>
        <time>2020-08-13T12:08:50.000Z</time>
      </trkpt>
      <trkpt lat="44.36077" lon="6.62537">
        <ele>1193</ele>
        <time>2020-08-13T12:08:55.000Z</time>
      </trkpt>
      <trkpt lat="44.36076" lon="6.62535">
        <ele>1193</ele>
        <time>2020-08-13T12:08:56.000Z</time>
      </trkpt>
      <trkpt lat="44.36065" lon="6.62523">
        <ele>1193.1999511719</ele>
        <time>2020-08-13T12:09:03.000Z</time>
      </trkpt>
      <trkpt lat="44.36059" lon="6.62515">
        <ele>1194</ele>
        <time>2020-08-13T12:09:07.000Z</time>
      </trkpt>
      <trkpt lat="44.36054" lon="6.62509">
        <ele>1194.1999511719</ele>
        <time>2020-08-13T12:09:10.000Z</time>
      </trkpt>
      <trkpt lat="44.36038" lon="6.62492">
        <ele>1194.5999755859</ele>
        <time>2020-08-13T12:09:17.000Z</time>
      </trkpt>
      <trkpt lat="44.36032" lon="6.6249">
        <ele>1195</ele>
        <time>2020-08-13T12:09:19.000Z</time>
      </trkpt>
      <trkpt lat="44.36025" lon="6.62484">
        <ele>1195.4000244141</ele>
        <time>2020-08-13T12:09:22.000Z</time>
      </trkpt>
      <trkpt lat="44.36009" lon="6.62478">
        <ele>1196.1999511719</ele>
        <time>2020-08-13T12:09:28.000Z</time>
      </trkpt>
      <trkpt lat="44.36006" lon="6.62477">
        <ele>1196.4000244141</ele>
        <time>2020-08-13T12:09:29.000Z</time>
      </trkpt>
      <trkpt lat="44.35992" lon="6.62473">
        <ele>1197.1999511719</ele>
        <time>2020-08-13T12:09:34.000Z</time>
      </trkpt>
      <trkpt lat="44.35983" lon="6.62471">
        <ele>1197.5999755859</ele>
        <time>2020-08-13T12:09:37.000Z</time>
      </trkpt>
      <trkpt lat="44.35973" lon="6.62467">
        <ele>1198.4000244141</ele>
        <time>2020-08-13T12:09:41.000Z</time>
      </trkpt>
      <trkpt lat="44.35962" lon="6.6246">
        <ele>1199</ele>
        <time>2020-08-13T12:09:45.000Z</time>
      </trkpt>
      <trkpt lat="44.35957" lon="6.62455">
        <ele>1199.4000244141</ele>
        <time>2020-08-13T12:09:47.000Z</time>
      </trkpt>
      <trkpt lat="44.35939" lon="6.62441">
        <ele>1200.4000244141</ele>
        <time>2020-08-13T12:09:54.000Z</time>
      </trkpt>
      <trkpt lat="44.35936" lon="6.62439">
        <ele>1200.5999755859</ele>
        <time>2020-08-13T12:09:55.000Z</time>
      </trkpt>
      <trkpt lat="44.35919" lon="6.62428">
        <ele>1201.5999755859</ele>
        <time>2020-08-13T12:10:01.000Z</time>
      </trkpt>
      <trkpt lat="44.35906" lon="6.62424">
        <ele>1202.1999511719</ele>
        <time>2020-08-13T12:10:05.000Z</time>
      </trkpt>
      <trkpt lat="44.35896" lon="6.62421">
        <ele>1202.5999755859</ele>
        <time>2020-08-13T12:10:08.000Z</time>
      </trkpt>
      <trkpt lat="44.35881" lon="6.62416">
        <ele>1203</ele>
        <time>2020-08-13T12:10:13.000Z</time>
      </trkpt>
      <trkpt lat="44.35862" lon="6.62409">
        <ele>1203.8000488281</ele>
        <time>2020-08-13T12:10:19.000Z</time>
      </trkpt>
      <trkpt lat="44.3585" lon="6.62403">
        <ele>1204.4000244141</ele>
        <time>2020-08-13T12:10:23.000Z</time>
      </trkpt>
      <trkpt lat="44.35844" lon="6.624">
        <ele>1204.8000488281</ele>
        <time>2020-08-13T12:10:25.000Z</time>
      </trkpt>
      <trkpt lat="44.35824" lon="6.62385">
        <ele>1205.8000488281</ele>
        <time>2020-08-13T12:10:32.000Z</time>
      </trkpt>
      <trkpt lat="44.35821" lon="6.62383">
        <ele>1206</ele>
        <time>2020-08-13T12:10:33.000Z</time>
      </trkpt>
      <trkpt lat="44.35804" lon="6.6237">
        <ele>1207</ele>
        <time>2020-08-13T12:10:39.000Z</time>
      </trkpt>
      <trkpt lat="44.35789" lon="6.62361">
        <ele>1207.8000488281</ele>
        <time>2020-08-13T12:10:44.000Z</time>
      </trkpt>
      <trkpt lat="44.35782" lon="6.62356">
        <ele>1208</ele>
        <time>2020-08-13T12:10:46.000Z</time>
      </trkpt>
      <trkpt lat="44.35755" lon="6.62339">
        <ele>1209</ele>
        <time>2020-08-13T12:10:55.000Z</time>
      </trkpt>
      <trkpt lat="44.35735" lon="6.62327">
        <ele>1210</ele>
        <time>2020-08-13T12:11:02.000Z</time>
      </trkpt>
      <trkpt lat="44.35726" lon="6.62323">
        <ele>1210.5999755859</ele>
        <time>2020-08-13T12:11:05.000Z</time>
      </trkpt>
      <trkpt lat="44.35715" lon="6.62316">
        <ele>1211.1999511719</ele>
        <time>2020-08-13T12:11:09.000Z</time>
      </trkpt>
      <trkpt lat="44.35707" lon="6.62312">
        <ele>1211.4000244141</ele>
        <time>2020-08-13T12:11:12.000Z</time>
      </trkpt>
      <trkpt lat="44.35695" lon="6.62307">
        <ele>1212.4000244141</ele>
        <time>2020-08-13T12:11:16.000Z</time>
      </trkpt>
      <trkpt lat="44.35683" lon="6.62302">
        <ele>1213.1999511719</ele>
        <time>2020-08-13T12:11:20.000Z</time>
      </trkpt>
      <trkpt lat="44.3568" lon="6.62301">
        <ele>1213.4000244141</ele>
        <time>2020-08-13T12:11:21.000Z</time>
      </trkpt>
      <trkpt lat="44.35662" lon="6.62294">
        <ele>1214.4000244141</ele>
        <time>2020-08-13T12:11:27.000Z</time>
      </trkpt>
      <trkpt lat="44.35653" lon="6.6229">
        <ele>1215</ele>
        <time>2020-08-13T12:11:30.000Z</time>
      </trkpt>
      <trkpt lat="44.35647" lon="6.62287">
        <ele>1215.4000244141</ele>
        <time>2020-08-13T12:11:32.000Z</time>
      </trkpt>
      <trkpt lat="44.35627" lon="6.62275">
        <ele>1216.5999755859</ele>
        <time>2020-08-13T12:11:39.000Z</time>
      </trkpt>
      <trkpt lat="44.35614" lon="6.62264">
        <ele>1217.5999755859</ele>
        <time>2020-08-13T12:11:44.000Z</time>
      </trkpt>
      <trkpt lat="44.356" lon="6.62253">
        <ele>1218.5999755859</ele>
        <time>2020-08-13T12:11:49.000Z</time>
      </trkpt>
      <trkpt lat="44.35597" lon="6.62252">
        <ele>1218.8000488281</ele>
        <time>2020-08-13T12:11:50.000Z</time>
      </trkpt>
      <trkpt lat="44.35581" lon="6.62245">
        <ele>1219.8000488281</ele>
        <time>2020-08-13T12:11:55.000Z</time>
      </trkpt>
      <trkpt lat="44.35575" lon="6.62242">
        <ele>1220</ele>
        <time>2020-08-13T12:11:57.000Z</time>
      </trkpt>
      <trkpt lat="44.35559" lon="6.62239">
        <ele>1220.8000488281</ele>
        <time>2020-08-13T12:12:02.000Z</time>
      </trkpt>
      <trkpt lat="44.35549" lon="6.62238">
        <ele>1221.1999511719</ele>
        <time>2020-08-13T12:12:05.000Z</time>
      </trkpt>
      <trkpt lat="44.35536" lon="6.62235">
        <ele>1221.8000488281</ele>
        <time>2020-08-13T12:12:09.000Z</time>
      </trkpt>
      <trkpt lat="44.3552" lon="6.62235">
        <ele>1222.8000488281</ele>
        <time>2020-08-13T12:12:14.000Z</time>
      </trkpt>
      <trkpt lat="44.35517" lon="6.62235">
        <ele>1223</ele>
        <time>2020-08-13T12:12:15.000Z</time>
      </trkpt>
      <trkpt lat="44.35494" lon="6.62227">
        <ele>1224</ele>
        <time>2020-08-13T12:12:22.000Z</time>
      </trkpt>
      <trkpt lat="44.35491" lon="6.62225">
        <ele>1224</ele>
        <time>2020-08-13T12:12:23.000Z</time>
      </trkpt>
      <trkpt lat="44.35477" lon="6.62209">
        <ele>1224.4000244141</ele>
        <time>2020-08-13T12:12:28.000Z</time>
      </trkpt>
      <trkpt lat="44.35454" lon="6.62179">
        <ele>1225.1999511719</ele>
        <time>2020-08-13T12:12:35.000Z</time>
      </trkpt>
      <trkpt lat="44.3542" lon="6.62154">
        <ele>1225.4000244141</ele>
        <time>2020-08-13T12:12:43.000Z</time>
      </trkpt>
      <trkpt lat="44.35388" lon="6.62144">
        <ele>1225.8000488281</ele>
        <time>2020-08-13T12:12:50.000Z</time>
      </trkpt>
      <trkpt lat="44.35374" lon="6.6214">
        <ele>1226.1999511719</ele>
        <time>2020-08-13T12:12:53.000Z</time>
      </trkpt>
      <trkpt lat="44.35351" lon="6.62133">
        <ele>1226.5999755859</ele>
        <time>2020-08-13T12:12:58.000Z</time>
      </trkpt>
      <trkpt lat="44.3531" lon="6.62119">
        <ele>1227</ele>
        <time>2020-08-13T12:13:07.000Z</time>
      </trkpt>
      <trkpt lat="44.35306" lon="6.62117">
        <ele>1227.1999511719</ele>
        <time>2020-08-13T12:13:08.000Z</time>
      </trkpt>
      <trkpt lat="44.35281" lon="6.62097">
        <ele>1227.5999755859</ele>
        <time>2020-08-13T12:13:14.000Z</time>
      </trkpt>
      <trkpt lat="44.35278" lon="6.62092">
        <ele>1227.5999755859</ele>
        <time>2020-08-13T12:13:15.000Z</time>
      </trkpt>
      <trkpt lat="44.35252" lon="6.62052">
        <ele>1228</ele>
        <time>2020-08-13T12:13:23.000Z</time>
      </trkpt>
      <trkpt lat="44.35232" lon="6.62035">
        <ele>1228.4000244141</ele>
        <time>2020-08-13T12:13:28.000Z</time>
      </trkpt>
      <trkpt lat="44.35228" lon="6.62032">
        <ele>1228.4000244141</ele>
        <time>2020-08-13T12:13:29.000Z</time>
      </trkpt>
      <trkpt lat="44.35194" lon="6.62019">
        <ele>1229</ele>
        <time>2020-08-13T12:13:36.000Z</time>
      </trkpt>
      <trkpt lat="44.35164" lon="6.62014">
        <ele>1229.4000244141</ele>
        <time>2020-08-13T12:13:42.000Z</time>
      </trkpt>
      <trkpt lat="44.35159" lon="6.62013">
        <ele>1229.4000244141</ele>
        <time>2020-08-13T12:13:43.000Z</time>
      </trkpt>
      <trkpt lat="44.35126" lon="6.62009">
        <ele>1229</ele>
        <time>2020-08-13T12:13:49.000Z</time>
      </trkpt>
      <trkpt lat="44.35103" lon="6.61993">
        <ele>1229</ele>
        <time>2020-08-13T12:13:54.000Z</time>
      </trkpt>
      <trkpt lat="44.3507" lon="6.61963">
        <ele>1229.8000488281</ele>
        <time>2020-08-13T12:14:01.000Z</time>
      </trkpt>
      <trkpt lat="44.35032" lon="6.61935">
        <ele>1230</ele>
        <time>2020-08-13T12:14:09.000Z</time>
      </trkpt>
      <trkpt lat="44.35002" lon="6.61925">
        <ele>1230.4000244141</ele>
        <time>2020-08-13T12:14:15.000Z</time>
      </trkpt>
      <trkpt lat="44.34966" lon="6.61923">
        <ele>1231</ele>
        <time>2020-08-13T12:14:22.000Z</time>
      </trkpt>
      <trkpt lat="44.34935" lon="6.61929">
        <ele>1231.4000244141</ele>
        <time>2020-08-13T12:14:28.000Z</time>
      </trkpt>
      <trkpt lat="44.34926" lon="6.61931">
        <ele>1231.5999755859</ele>
        <time>2020-08-13T12:14:30.000Z</time>
      </trkpt>
      <trkpt lat="44.34913" lon="6.61935">
        <ele>1232</ele>
        <time>2020-08-13T12:14:33.000Z</time>
      </trkpt>
      <trkpt lat="44.34908" lon="6.61937">
        <ele>1232.1999511719</ele>
        <time>2020-08-13T12:14:34.000Z</time>
      </trkpt>
      <trkpt lat="44.349" lon="6.6194">
        <ele>1232.8000488281</ele>
        <time>2020-08-13T12:14:36.000Z</time>
      </trkpt>
      <trkpt lat="44.34883" lon="6.61947">
        <ele>1233.8000488281</ele>
        <time>2020-08-13T12:14:40.000Z</time>
      </trkpt>
      <trkpt lat="44.34867" lon="6.61956">
        <ele>1234.5999755859</ele>
        <time>2020-08-13T12:14:44.000Z</time>
      </trkpt>
      <trkpt lat="44.34859" lon="6.61959">
        <ele>1235</ele>
        <time>2020-08-13T12:14:46.000Z</time>
      </trkpt>
      <trkpt lat="44.34838" lon="6.61965">
        <ele>1235.8000488281</ele>
        <time>2020-08-13T12:14:51.000Z</time>
      </trkpt>
      <trkpt lat="44.34834" lon="6.61965">
        <ele>1236.1999511719</ele>
        <time>2020-08-13T12:14:52.000Z</time>
      </trkpt>
      <trkpt lat="44.34811" lon="6.6197">
        <ele>1237.4000244141</ele>
        <time>2020-08-13T12:14:58.000Z</time>
      </trkpt>
      <trkpt lat="44.34806" lon="6.61971">
        <ele>1237.4000244141</ele>
        <time>2020-08-13T12:14:59.000Z</time>
      </trkpt>
      <trkpt lat="44.34782" lon="6.61974">
        <ele>1238.4000244141</ele>
        <time>2020-08-13T12:15:05.000Z</time>
      </trkpt>
      <trkpt lat="44.34775" lon="6.61975">
        <ele>1238.8000488281</ele>
        <time>2020-08-13T12:15:07.000Z</time>
      </trkpt>
      <trkpt lat="44.34759" lon="6.61978">
        <ele>1239.5999755859</ele>
        <time>2020-08-13T12:15:11.000Z</time>
      </trkpt>
      <trkpt lat="44.34743" lon="6.61981">
        <ele>1240.5999755859</ele>
        <time>2020-08-13T12:15:15.000Z</time>
      </trkpt>
      <trkpt lat="44.34739" lon="6.61982">
        <ele>1240.5999755859</ele>
        <time>2020-08-13T12:15:16.000Z</time>
      </trkpt>
      <trkpt lat="44.34713" lon="6.61993">
        <ele>1241.5999755859</ele>
        <time>2020-08-13T12:15:23.000Z</time>
      </trkpt>
      <trkpt lat="44.34705" lon="6.61996">
        <ele>1241.8000488281</ele>
        <time>2020-08-13T12:15:25.000Z</time>
      </trkpt>
      <trkpt lat="44.34687" lon="6.62004">
        <ele>1243</ele>
        <time>2020-08-13T12:15:30.000Z</time>
      </trkpt>
      <trkpt lat="44.34666" lon="6.62011">
        <ele>1243.5999755859</ele>
        <time>2020-08-13T12:15:35.000Z</time>
      </trkpt>
      <trkpt lat="44.34643" lon="6.62012">
        <ele>1244</ele>
        <time>2020-08-13T12:15:40.000Z</time>
      </trkpt>
      <trkpt lat="44.34638" lon="6.62011">
        <ele>1244</ele>
        <time>2020-08-13T12:15:41.000Z</time>
      </trkpt>
      <trkpt lat="44.34633" lon="6.6201">
        <ele>1244.1999511719</ele>
        <time>2020-08-13T12:15:42.000Z</time>
      </trkpt>
      <trkpt lat="44.34609" lon="6.62004">
        <ele>1245</ele>
        <time>2020-08-13T12:15:47.000Z</time>
      </trkpt>
      <trkpt lat="44.346" lon="6.61998">
        <ele>1245.1999511719</ele>
        <time>2020-08-13T12:15:49.000Z</time>
      </trkpt>
      <trkpt lat="44.34595" lon="6.61997">
        <ele>1245.1999511719</ele>
        <time>2020-08-13T12:15:50.000Z</time>
      </trkpt>
      <trkpt lat="44.34574" lon="6.61995">
        <ele>1245.5999755859</ele>
        <time>2020-08-13T12:15:54.000Z</time>
      </trkpt>
      <trkpt lat="44.34543" lon="6.61987">
        <ele>1245.5999755859</ele>
        <time>2020-08-13T12:16:00.000Z</time>
      </trkpt>
      <trkpt lat="44.34516" lon="6.61985">
        <ele>1245.5999755859</ele>
        <time>2020-08-13T12:16:05.000Z</time>
      </trkpt>
      <trkpt lat="44.34511" lon="6.61982">
        <ele>1245.5999755859</ele>
        <time>2020-08-13T12:16:06.000Z</time>
      </trkpt>
      <trkpt lat="44.3449" lon="6.61973">
        <ele>1245.5999755859</ele>
        <time>2020-08-13T12:16:10.000Z</time>
      </trkpt>
      <trkpt lat="44.34478" lon="6.61972">
        <ele>1245.8000488281</ele>
        <time>2020-08-13T12:16:12.000Z</time>
      </trkpt>
      <trkpt lat="44.34462" lon="6.61974">
        <ele>1246.1999511719</ele>
        <time>2020-08-13T12:16:15.000Z</time>
      </trkpt>
      <trkpt lat="44.34436" lon="6.61975">
        <ele>1245.4000244141</ele>
        <time>2020-08-13T12:16:20.000Z</time>
      </trkpt>
      <trkpt lat="44.344" lon="6.61969">
        <ele>1246.1999511719</ele>
        <time>2020-08-13T12:16:27.000Z</time>
      </trkpt>
      <trkpt lat="44.34354" lon="6.61961">
        <ele>1246.1999511719</ele>
        <time>2020-08-13T12:16:36.000Z</time>
      </trkpt>
      <trkpt lat="44.34349" lon="6.61959">
        <ele>1246.1999511719</ele>
        <time>2020-08-13T12:16:37.000Z</time>
      </trkpt>
      <trkpt lat="44.34333" lon="6.6195">
        <ele>1246.5999755859</ele>
        <time>2020-08-13T12:16:40.000Z</time>
      </trkpt>
      <trkpt lat="44.34322" lon="6.61937">
        <ele>1247.4000244141</ele>
        <time>2020-08-13T12:16:43.000Z</time>
      </trkpt>
      <trkpt lat="44.34317" lon="6.61933">
        <ele>1247.5999755859</ele>
        <time>2020-08-13T12:16:44.000Z</time>
      </trkpt>
      <trkpt lat="44.34294" lon="6.61921">
        <ele>1248.1999511719</ele>
        <time>2020-08-13T12:16:49.000Z</time>
      </trkpt>
      <trkpt lat="44.34289" lon="6.61919">
        <ele>1248.4000244141</ele>
        <time>2020-08-13T12:16:50.000Z</time>
      </trkpt>
      <trkpt lat="44.34253" lon="6.61908">
        <ele>1248.5999755859</ele>
        <time>2020-08-13T12:16:57.000Z</time>
      </trkpt>
      <trkpt lat="44.34248" lon="6.61908">
        <ele>1248.5999755859</ele>
        <time>2020-08-13T12:16:58.000Z</time>
      </trkpt>
      <trkpt lat="44.34227" lon="6.61911">
        <ele>1248.5999755859</ele>
        <time>2020-08-13T12:17:02.000Z</time>
      </trkpt>
      <trkpt lat="44.34177" lon="6.61924">
        <ele>1249.1999511719</ele>
        <time>2020-08-13T12:17:11.000Z</time>
      </trkpt>
      <trkpt lat="44.3414" lon="6.61931">
        <ele>1249.4000244141</ele>
        <time>2020-08-13T12:17:18.000Z</time>
      </trkpt>
      <trkpt lat="44.34123" lon="6.61932">
        <ele>1249.4000244141</ele>
        <time>2020-08-13T12:17:21.000Z</time>
      </trkpt>
      <trkpt lat="44.34102" lon="6.61928">
        <ele>1249.4000244141</ele>
        <time>2020-08-13T12:17:25.000Z</time>
      </trkpt>
      <trkpt lat="44.34091" lon="6.61924">
        <ele>1249.4000244141</ele>
        <time>2020-08-13T12:17:27.000Z</time>
      </trkpt>
      <trkpt lat="44.34081" lon="6.61915">
        <ele>1249.4000244141</ele>
        <time>2020-08-13T12:17:29.000Z</time>
      </trkpt>
      <trkpt lat="44.34074" lon="6.61902">
        <ele>1249.5999755859</ele>
        <time>2020-08-13T12:17:31.000Z</time>
      </trkpt>
      <trkpt lat="44.34066" lon="6.6188">
        <ele>1249.5999755859</ele>
        <time>2020-08-13T12:17:34.000Z</time>
      </trkpt>
      <trkpt lat="44.34059" lon="6.6186">
        <ele>1249.4000244141</ele>
        <time>2020-08-13T12:17:37.000Z</time>
      </trkpt>
      <trkpt lat="44.34054" lon="6.61849">
        <ele>1249.5999755859</ele>
        <time>2020-08-13T12:17:39.000Z</time>
      </trkpt>
      <trkpt lat="44.34041" lon="6.61829">
        <ele>1250.1999511719</ele>
        <time>2020-08-13T12:17:43.000Z</time>
      </trkpt>
      <trkpt lat="44.3403" lon="6.61817">
        <ele>1250.4000244141</ele>
        <time>2020-08-13T12:17:46.000Z</time>
      </trkpt>
      <trkpt lat="44.34014" lon="6.61802">
        <ele>1251.1999511719</ele>
        <time>2020-08-13T12:17:50.000Z</time>
      </trkpt>
      <trkpt lat="44.34006" lon="6.61796">
        <ele>1251.4000244141</ele>
        <time>2020-08-13T12:17:52.000Z</time>
      </trkpt>
      <trkpt lat="44.33976" lon="6.61775">
        <ele>1252</ele>
        <time>2020-08-13T12:17:59.000Z</time>
      </trkpt>
      <trkpt lat="44.33953" lon="6.61767">
        <ele>1252.5999755859</ele>
        <time>2020-08-13T12:18:04.000Z</time>
      </trkpt>
      <trkpt lat="44.33944" lon="6.61764">
        <ele>1252.8000488281</ele>
        <time>2020-08-13T12:18:06.000Z</time>
      </trkpt>
      <trkpt lat="44.33912" lon="6.61753">
        <ele>1253.5999755859</ele>
        <time>2020-08-13T12:18:13.000Z</time>
      </trkpt>
      <trkpt lat="44.33907" lon="6.6175">
        <ele>1253.5999755859</ele>
        <time>2020-08-13T12:18:14.000Z</time>
      </trkpt>
      <trkpt lat="44.33903" lon="6.61747">
        <ele>1253.5999755859</ele>
        <time>2020-08-13T12:18:15.000Z</time>
      </trkpt>
      <trkpt lat="44.33889" lon="6.61729">
        <ele>1254</ele>
        <time>2020-08-13T12:18:19.000Z</time>
      </trkpt>
      <trkpt lat="44.33882" lon="6.61719">
        <ele>1254.1999511719</ele>
        <time>2020-08-13T12:18:21.000Z</time>
      </trkpt>
      <trkpt lat="44.33878" lon="6.617">
        <ele>1254.4000244141</ele>
        <time>2020-08-13T12:18:24.000Z</time>
      </trkpt>
      <trkpt lat="44.33879" lon="6.61692">
        <ele>1254.8000488281</ele>
        <time>2020-08-13T12:18:25.000Z</time>
      </trkpt>
      <trkpt lat="44.33879" lon="6.61685">
        <ele>1254.8000488281</ele>
        <time>2020-08-13T12:18:26.000Z</time>
      </trkpt>
      <trkpt lat="44.33879" lon="6.61678">
        <ele>1254.8000488281</ele>
        <time>2020-08-13T12:18:27.000Z</time>
      </trkpt>
      <trkpt lat="44.33877" lon="6.61672">
        <ele>1254.8000488281</ele>
        <time>2020-08-13T12:18:28.000Z</time>
      </trkpt>
      <trkpt lat="44.33864" lon="6.61658">
        <ele>1255</ele>
        <time>2020-08-13T12:18:31.000Z</time>
      </trkpt>
      <trkpt lat="44.33842" lon="6.61649">
        <ele>1254.8000488281</ele>
        <time>2020-08-13T12:18:35.000Z</time>
      </trkpt>
      <trkpt lat="44.33836" lon="6.61647">
        <ele>1254.8000488281</ele>
        <time>2020-08-13T12:18:36.000Z</time>
      </trkpt>
      <trkpt lat="44.3381" lon="6.61643">
        <ele>1255.5999755859</ele>
        <time>2020-08-13T12:18:41.000Z</time>
      </trkpt>
      <trkpt lat="44.33804" lon="6.61644">
        <ele>1255.8000488281</ele>
        <time>2020-08-13T12:18:42.000Z</time>
      </trkpt>
      <trkpt lat="44.33799" lon="6.61645">
        <ele>1256</ele>
        <time>2020-08-13T12:18:43.000Z</time>
      </trkpt>
      <trkpt lat="44.33763" lon="6.61646">
        <ele>1256.4000244141</ele>
        <time>2020-08-13T12:18:50.000Z</time>
      </trkpt>
      <trkpt lat="44.33725" lon="6.61647">
        <ele>1257</ele>
        <time>2020-08-13T12:18:57.000Z</time>
      </trkpt>
      <trkpt lat="44.33714" lon="6.61646">
        <ele>1257</ele>
        <time>2020-08-13T12:18:59.000Z</time>
      </trkpt>
      <trkpt lat="44.33699" lon="6.61641">
        <ele>1257.1999511719</ele>
        <time>2020-08-13T12:19:02.000Z</time>
      </trkpt>
      <trkpt lat="44.33695" lon="6.61638">
        <ele>1257.4000244141</ele>
        <time>2020-08-13T12:19:03.000Z</time>
      </trkpt>
      <trkpt lat="44.33685" lon="6.61633">
        <ele>1258.1999511719</ele>
        <time>2020-08-13T12:19:05.000Z</time>
      </trkpt>
      <trkpt lat="44.3368" lon="6.61632">
        <ele>1258.1999511719</ele>
        <time>2020-08-13T12:19:06.000Z</time>
      </trkpt>
      <trkpt lat="44.33675" lon="6.61631">
        <ele>1258.4000244141</ele>
        <time>2020-08-13T12:19:07.000Z</time>
      </trkpt>
      <trkpt lat="44.3367" lon="6.6163">
        <ele>1258.5999755859</ele>
        <time>2020-08-13T12:19:08.000Z</time>
      </trkpt>
      <trkpt lat="44.33647" lon="6.61631">
        <ele>1259</ele>
        <time>2020-08-13T12:19:13.000Z</time>
      </trkpt>
      <trkpt lat="44.33642" lon="6.61631">
        <ele>1259.1999511719</ele>
        <time>2020-08-13T12:19:14.000Z</time>
      </trkpt>
      <trkpt lat="44.33618" lon="6.61633">
        <ele>1260</ele>
        <time>2020-08-13T12:19:20.000Z</time>
      </trkpt>
      <trkpt lat="44.33613" lon="6.6163">
        <ele>1260.1999511719</ele>
        <time>2020-08-13T12:19:21.000Z</time>
      </trkpt>
      <trkpt lat="44.33606" lon="6.6163">
        <ele>1260.8000488281</ele>
        <time>2020-08-13T12:19:23.000Z</time>
      </trkpt>
      <trkpt lat="44.33596" lon="6.61625">
        <ele>1261.4000244141</ele>
        <time>2020-08-13T12:19:26.000Z</time>
      </trkpt>
      <trkpt lat="44.33593" lon="6.61623">
        <ele>1261.5999755859</ele>
        <time>2020-08-13T12:19:27.000Z</time>
      </trkpt>
      <trkpt lat="44.3359" lon="6.61621">
        <ele>1261.8000488281</ele>
        <time>2020-08-13T12:19:28.000Z</time>
      </trkpt>
      <trkpt lat="44.33582" lon="6.61611">
        <ele>1262.5999755859</ele>
        <time>2020-08-13T12:19:31.000Z</time>
      </trkpt>
      <trkpt lat="44.33578" lon="6.61604">
        <ele>1262.8000488281</ele>
        <time>2020-08-13T12:19:33.000Z</time>
      </trkpt>
      <trkpt lat="44.33568" lon="6.6159">
        <ele>1263.5999755859</ele>
        <time>2020-08-13T12:19:37.000Z</time>
      </trkpt>
      <trkpt lat="44.33558" lon="6.61579">
        <ele>1264.1999511719</ele>
        <time>2020-08-13T12:19:40.000Z</time>
      </trkpt>
      <trkpt lat="44.33548" lon="6.61572">
        <ele>1264.8000488281</ele>
        <time>2020-08-13T12:19:43.000Z</time>
      </trkpt>
      <trkpt lat="44.33535" lon="6.61564">
        <ele>1265.5999755859</ele>
        <time>2020-08-13T12:19:47.000Z</time>
      </trkpt>
      <trkpt lat="44.33532" lon="6.61563">
        <ele>1266</ele>
        <time>2020-08-13T12:19:48.000Z</time>
      </trkpt>
      <trkpt lat="44.33516" lon="6.61554">
        <ele>1267</ele>
        <time>2020-08-13T12:19:53.000Z</time>
      </trkpt>
      <trkpt lat="44.3351" lon="6.61549">
        <ele>1267.1999511719</ele>
        <time>2020-08-13T12:19:55.000Z</time>
      </trkpt>
      <trkpt lat="44.33495" lon="6.61536">
        <ele>1268</ele>
        <time>2020-08-13T12:20:00.000Z</time>
      </trkpt>
      <trkpt lat="44.3348" lon="6.61524">
        <ele>1268.8000488281</ele>
        <time>2020-08-13T12:20:05.000Z</time>
      </trkpt>
      <trkpt lat="44.33471" lon="6.61519">
        <ele>1269.1999511719</ele>
        <time>2020-08-13T12:20:08.000Z</time>
      </trkpt>
      <trkpt lat="44.33454" lon="6.61506">
        <ele>1269.8000488281</ele>
        <time>2020-08-13T12:20:13.000Z</time>
      </trkpt>
      <trkpt lat="44.33445" lon="6.61496">
        <ele>1270.1999511719</ele>
        <time>2020-08-13T12:20:16.000Z</time>
      </trkpt>
      <trkpt lat="44.3343" lon="6.61485">
        <ele>1270.8000488281</ele>
        <time>2020-08-13T12:20:20.000Z</time>
      </trkpt>
      <trkpt lat="44.3341" lon="6.61477">
        <ele>1271.1999511719</ele>
        <time>2020-08-13T12:20:25.000Z</time>
      </trkpt>
      <trkpt lat="44.33403" lon="6.61477">
        <ele>1271.5999755859</ele>
        <time>2020-08-13T12:20:27.000Z</time>
      </trkpt>
      <trkpt lat="44.33381" lon="6.61476">
        <ele>1272.1999511719</ele>
        <time>2020-08-13T12:20:33.000Z</time>
      </trkpt>
      <trkpt lat="44.33369" lon="6.61466">
        <ele>1273</ele>
        <time>2020-08-13T12:20:37.000Z</time>
      </trkpt>
      <trkpt lat="44.33364" lon="6.6146">
        <ele>1273.4000244141</ele>
        <time>2020-08-13T12:20:39.000Z</time>
      </trkpt>
      <trkpt lat="44.33353" lon="6.61454">
        <ele>1274</ele>
        <time>2020-08-13T12:20:42.000Z</time>
      </trkpt>
      <trkpt lat="44.33333" lon="6.61453">
        <ele>1274.4000244141</ele>
        <time>2020-08-13T12:20:47.000Z</time>
      </trkpt>
      <trkpt lat="44.33329" lon="6.61452">
        <ele>1274.4000244141</ele>
        <time>2020-08-13T12:20:48.000Z</time>
      </trkpt>
      <trkpt lat="44.3332" lon="6.61437">
        <ele>1274.1999511719</ele>
        <time>2020-08-13T12:20:52.000Z</time>
      </trkpt>
      <trkpt lat="44.33312" lon="6.61426">
        <ele>1274.4000244141</ele>
        <time>2020-08-13T12:20:54.000Z</time>
      </trkpt>
      <trkpt lat="44.33305" lon="6.61419">
        <ele>1274.5999755859</ele>
        <time>2020-08-13T12:20:56.000Z</time>
      </trkpt>
      <trkpt lat="44.33297" lon="6.61414">
        <ele>1274.5999755859</ele>
        <time>2020-08-13T12:20:58.000Z</time>
      </trkpt>
      <trkpt lat="44.3328" lon="6.61409">
        <ele>1274.8000488281</ele>
        <time>2020-08-13T12:21:02.000Z</time>
      </trkpt>
      <trkpt lat="44.3326" lon="6.61402">
        <ele>1275.4000244141</ele>
        <time>2020-08-13T12:21:07.000Z</time>
      </trkpt>
      <trkpt lat="44.33249" lon="6.61397">
        <ele>1276.1999511719</ele>
        <time>2020-08-13T12:21:10.000Z</time>
      </trkpt>
      <trkpt lat="44.33235" lon="6.61391">
        <ele>1276.5999755859</ele>
        <time>2020-08-13T12:21:14.000Z</time>
      </trkpt>
      <trkpt lat="44.33218" lon="6.61382">
        <ele>1277.5999755859</ele>
        <time>2020-08-13T12:21:19.000Z</time>
      </trkpt>
      <trkpt lat="44.33188" lon="6.61376">
        <ele>1278.5999755859</ele>
        <time>2020-08-13T12:21:27.000Z</time>
      </trkpt>
      <trkpt lat="44.33167" lon="6.61387">
        <ele>1279.4000244141</ele>
        <time>2020-08-13T12:21:33.000Z</time>
      </trkpt>
      <trkpt lat="44.33162" lon="6.61393">
        <ele>1279.8000488281</ele>
        <time>2020-08-13T12:21:35.000Z</time>
      </trkpt>
      <trkpt lat="44.33148" lon="6.61409">
        <ele>1280.8000488281</ele>
        <time>2020-08-13T12:21:40.000Z</time>
      </trkpt>
      <trkpt lat="44.33125" lon="6.61434">
        <ele>1282</ele>
        <time>2020-08-13T12:21:48.000Z</time>
      </trkpt>
      <trkpt lat="44.33122" lon="6.61435">
        <ele>1282</ele>
        <time>2020-08-13T12:21:49.000Z</time>
      </trkpt>
      <trkpt lat="44.33104" lon="6.61437">
        <ele>1283</ele>
        <time>2020-08-13T12:21:54.000Z</time>
      </trkpt>
      <trkpt lat="44.33097" lon="6.61437">
        <ele>1283.4000244141</ele>
        <time>2020-08-13T12:21:56.000Z</time>
      </trkpt>
      <trkpt lat="44.33077" lon="6.61436">
        <ele>1284</ele>
        <time>2020-08-13T12:22:02.000Z</time>
      </trkpt>
      <trkpt lat="44.33062" lon="6.61435">
        <ele>1284.5999755859</ele>
        <time>2020-08-13T12:22:06.000Z</time>
      </trkpt>
      <trkpt lat="44.33048" lon="6.61431">
        <ele>1285</ele>
        <time>2020-08-13T12:22:10.000Z</time>
      </trkpt>
      <trkpt lat="44.33038" lon="6.61424">
        <ele>1285.5999755859</ele>
        <time>2020-08-13T12:22:13.000Z</time>
      </trkpt>
      <trkpt lat="44.33026" lon="6.61407">
        <ele>1286</ele>
        <time>2020-08-13T12:22:18.000Z</time>
      </trkpt>
      <trkpt lat="44.33017" lon="6.614">
        <ele>1286.5999755859</ele>
        <time>2020-08-13T12:22:21.000Z</time>
      </trkpt>
      <trkpt lat="44.33008" lon="6.61396">
        <ele>1287.1999511719</ele>
        <time>2020-08-13T12:22:24.000Z</time>
      </trkpt>
      <trkpt lat="44.32998" lon="6.61393">
        <ele>1287.8000488281</ele>
        <time>2020-08-13T12:22:27.000Z</time>
      </trkpt>
      <trkpt lat="44.32991" lon="6.61391">
        <ele>1288.1999511719</ele>
        <time>2020-08-13T12:22:29.000Z</time>
      </trkpt>
      <trkpt lat="44.32975" lon="6.61381">
        <ele>1288.8000488281</ele>
        <time>2020-08-13T12:22:34.000Z</time>
      </trkpt>
      <trkpt lat="44.32966" lon="6.61373">
        <ele>1289.1999511719</ele>
        <time>2020-08-13T12:22:37.000Z</time>
      </trkpt>
      <trkpt lat="44.32946" lon="6.61357">
        <ele>1290.4000244141</ele>
        <time>2020-08-13T12:22:44.000Z</time>
      </trkpt>
      <trkpt lat="44.32933" lon="6.61348">
        <ele>1291.4000244141</ele>
        <time>2020-08-13T12:22:49.000Z</time>
      </trkpt>
      <trkpt lat="44.32925" lon="6.61342">
        <ele>1292.1999511719</ele>
        <time>2020-08-13T12:22:52.000Z</time>
      </trkpt>
      <trkpt lat="44.32919" lon="6.61339">
        <ele>1292.8000488281</ele>
        <time>2020-08-13T12:22:54.000Z</time>
      </trkpt>
      <trkpt lat="44.32903" lon="6.61331">
        <ele>1293.5999755859</ele>
        <time>2020-08-13T12:23:00.000Z</time>
      </trkpt>
      <trkpt lat="44.32899" lon="6.61331">
        <ele>1293.8000488281</ele>
        <time>2020-08-13T12:23:02.000Z</time>
      </trkpt>
      <trkpt lat="44.32887" lon="6.61333">
        <ele>1294.1999511719</ele>
        <time>2020-08-13T12:23:06.000Z</time>
      </trkpt>
      <trkpt lat="44.32878" lon="6.61334">
        <ele>1295</ele>
        <time>2020-08-13T12:23:09.000Z</time>
      </trkpt>
      <trkpt lat="44.32867" lon="6.61336">
        <ele>1295.4000244141</ele>
        <time>2020-08-13T12:23:13.000Z</time>
      </trkpt>
      <trkpt lat="44.32852" lon="6.61337">
        <ele>1296</ele>
        <time>2020-08-13T12:23:18.000Z</time>
      </trkpt>
      <trkpt lat="44.32849" lon="6.61337">
        <ele>1296</ele>
        <time>2020-08-13T12:23:19.000Z</time>
      </trkpt>
      <trkpt lat="44.32829" lon="6.61331">
        <ele>1296.1999511719</ele>
        <time>2020-08-13T12:23:25.000Z</time>
      </trkpt>
      <trkpt lat="44.32815" lon="6.61323">
        <ele>1297.1999511719</ele>
        <time>2020-08-13T12:23:30.000Z</time>
      </trkpt>
      <trkpt lat="44.32805" lon="6.61314">
        <ele>1298.1999511719</ele>
        <time>2020-08-13T12:23:34.000Z</time>
      </trkpt>
      <trkpt lat="44.32802" lon="6.61313">
        <ele>1298.4000244141</ele>
        <time>2020-08-13T12:23:35.000Z</time>
      </trkpt>
      <trkpt lat="44.32782" lon="6.61313">
        <ele>1299.4000244141</ele>
        <time>2020-08-13T12:23:42.000Z</time>
      </trkpt>
      <trkpt lat="44.32763" lon="6.61326">
        <ele>1300.1999511719</ele>
        <time>2020-08-13T12:23:49.000Z</time>
      </trkpt>
      <trkpt lat="44.32758" lon="6.6133">
        <ele>1300.5999755859</ele>
        <time>2020-08-13T12:23:51.000Z</time>
      </trkpt>
      <trkpt lat="44.32747" lon="6.61343">
        <ele>1301.5999755859</ele>
        <time>2020-08-13T12:23:56.000Z</time>
      </trkpt>
      <trkpt lat="44.32733" lon="6.61356">
        <ele>1302.5999755859</ele>
        <time>2020-08-13T12:24:02.000Z</time>
      </trkpt>
      <trkpt lat="44.32728" lon="6.61358">
        <ele>1302.8000488281</ele>
        <time>2020-08-13T12:24:04.000Z</time>
      </trkpt>
      <trkpt lat="44.32707" lon="6.61366">
        <ele>1303.8000488281</ele>
        <time>2020-08-13T12:24:11.000Z</time>
      </trkpt>
      <trkpt lat="44.32701" lon="6.61368">
        <ele>1304.1999511719</ele>
        <time>2020-08-13T12:24:13.000Z</time>
      </trkpt>
      <trkpt lat="44.32683" lon="6.61368">
        <ele>1304.8000488281</ele>
        <time>2020-08-13T12:24:19.000Z</time>
      </trkpt>
      <trkpt lat="44.32678" lon="6.61367">
        <ele>1305.1999511719</ele>
        <time>2020-08-13T12:24:21.000Z</time>
      </trkpt>
      <trkpt lat="44.32666" lon="6.61364">
        <ele>1306.1999511719</ele>
        <time>2020-08-13T12:24:25.000Z</time>
      </trkpt>
      <trkpt lat="44.32649" lon="6.61353">
        <ele>1306.8000488281</ele>
        <time>2020-08-13T12:24:31.000Z</time>
      </trkpt>
      <trkpt lat="44.32644" lon="6.6135">
        <ele>1307.1999511719</ele>
        <time>2020-08-13T12:24:33.000Z</time>
      </trkpt>
      <trkpt lat="44.32625" lon="6.6134">
        <ele>1308</ele>
        <time>2020-08-13T12:24:39.000Z</time>
      </trkpt>
      <trkpt lat="44.32608" lon="6.61339">
        <ele>1308.1999511719</ele>
        <time>2020-08-13T12:24:44.000Z</time>
      </trkpt>
      <trkpt lat="44.32603" lon="6.61344">
        <ele>1308.4000244141</ele>
        <time>2020-08-13T12:24:46.000Z</time>
      </trkpt>
      <trkpt lat="44.32596" lon="6.61351">
        <ele>1309</ele>
        <time>2020-08-13T12:24:49.000Z</time>
      </trkpt>
      <trkpt lat="44.32589" lon="6.6136">
        <ele>1309.4000244141</ele>
        <time>2020-08-13T12:24:52.000Z</time>
      </trkpt>
      <trkpt lat="44.32581" lon="6.61366">
        <ele>1310</ele>
        <time>2020-08-13T12:24:55.000Z</time>
      </trkpt>
      <trkpt lat="44.32573" lon="6.61371">
        <ele>1310.5999755859</ele>
        <time>2020-08-13T12:24:58.000Z</time>
      </trkpt>
      <trkpt lat="44.32561" lon="6.61374">
        <ele>1311</ele>
        <time>2020-08-13T12:25:02.000Z</time>
      </trkpt>
      <trkpt lat="44.32552" lon="6.61375">
        <ele>1311.5999755859</ele>
        <time>2020-08-13T12:25:05.000Z</time>
      </trkpt>
      <trkpt lat="44.32537" lon="6.61379">
        <ele>1312.8000488281</ele>
        <time>2020-08-13T12:25:11.000Z</time>
      </trkpt>
      <trkpt lat="44.32521" lon="6.61382">
        <ele>1314</ele>
        <time>2020-08-13T12:25:17.000Z</time>
      </trkpt>
      <trkpt lat="44.32504" lon="6.61385">
        <ele>1314.8000488281</ele>
        <time>2020-08-13T12:25:23.000Z</time>
      </trkpt>
      <trkpt lat="44.32501" lon="6.61385">
        <ele>1315.1999511719</ele>
        <time>2020-08-13T12:25:24.000Z</time>
      </trkpt>
      <trkpt lat="44.32481" lon="6.61387">
        <ele>1316.1999511719</ele>
        <time>2020-08-13T12:25:31.000Z</time>
      </trkpt>
      <trkpt lat="44.32478" lon="6.61388">
        <ele>1316.4000244141</ele>
        <time>2020-08-13T12:25:32.000Z</time>
      </trkpt>
      <trkpt lat="44.3246" lon="6.61388">
        <ele>1317.4000244141</ele>
        <time>2020-08-13T12:25:38.000Z</time>
      </trkpt>
      <trkpt lat="44.32457" lon="6.6139">
        <ele>1317.4000244141</ele>
        <time>2020-08-13T12:25:39.000Z</time>
      </trkpt>
      <trkpt lat="44.32448" lon="6.61393">
        <ele>1318</ele>
        <time>2020-08-13T12:25:42.000Z</time>
      </trkpt>
      <trkpt lat="44.32443" lon="6.61395">
        <ele>1318.4000244141</ele>
        <time>2020-08-13T12:25:44.000Z</time>
      </trkpt>
      <trkpt lat="44.32433" lon="6.61402">
        <ele>1318.8000488281</ele>
        <time>2020-08-13T12:25:48.000Z</time>
      </trkpt>
      <trkpt lat="44.32423" lon="6.61408">
        <ele>1319.4000244141</ele>
        <time>2020-08-13T12:25:52.000Z</time>
      </trkpt>
      <trkpt lat="44.32414" lon="6.61418">
        <ele>1319.5999755859</ele>
        <time>2020-08-13T12:25:56.000Z</time>
      </trkpt>
      <trkpt lat="44.32398" lon="6.61433">
        <ele>1320.5999755859</ele>
        <time>2020-08-13T12:26:03.000Z</time>
      </trkpt>
      <trkpt lat="44.32396" lon="6.61436">
        <ele>1320.8000488281</ele>
        <time>2020-08-13T12:26:04.000Z</time>
      </trkpt>
      <trkpt lat="44.32385" lon="6.61446">
        <ele>1321.5999755859</ele>
        <time>2020-08-13T12:26:09.000Z</time>
      </trkpt>
      <trkpt lat="44.32375" lon="6.61453">
        <ele>1322.4000244141</ele>
        <time>2020-08-13T12:26:13.000Z</time>
      </trkpt>
      <trkpt lat="44.32371" lon="6.61457">
        <ele>1322.5999755859</ele>
        <time>2020-08-13T12:26:15.000Z</time>
      </trkpt>
      <trkpt lat="44.32357" lon="6.61467">
        <ele>1323.4000244141</ele>
        <time>2020-08-13T12:26:21.000Z</time>
      </trkpt>
      <trkpt lat="44.32351" lon="6.61469">
        <ele>1323.8000488281</ele>
        <time>2020-08-13T12:26:23.000Z</time>
      </trkpt>
      <trkpt lat="44.32341" lon="6.61477">
        <ele>1324.4000244141</ele>
        <time>2020-08-13T12:26:27.000Z</time>
      </trkpt>
      <trkpt lat="44.32329" lon="6.61483">
        <ele>1324.8000488281</ele>
        <time>2020-08-13T12:26:32.000Z</time>
      </trkpt>
      <trkpt lat="44.32326" lon="6.61485">
        <ele>1325.1999511719</ele>
        <time>2020-08-13T12:26:33.000Z</time>
      </trkpt>
      <trkpt lat="44.32307" lon="6.61492">
        <ele>1326</ele>
        <time>2020-08-13T12:26:39.000Z</time>
      </trkpt>
      <trkpt lat="44.32292" lon="6.61497">
        <ele>1327.1999511719</ele>
        <time>2020-08-13T12:26:44.000Z</time>
      </trkpt>
      <trkpt lat="44.32279" lon="6.61501">
        <ele>1328</ele>
        <time>2020-08-13T12:26:48.000Z</time>
      </trkpt>
      <trkpt lat="44.32267" lon="6.61509">
        <ele>1328.1999511719</ele>
        <time>2020-08-13T12:26:52.000Z</time>
      </trkpt>
      <trkpt lat="44.32252" lon="6.61521">
        <ele>1329.1999511719</ele>
        <time>2020-08-13T12:26:57.000Z</time>
      </trkpt>
      <trkpt lat="44.3224" lon="6.61536">
        <ele>1329.4000244141</ele>
        <time>2020-08-13T12:27:02.000Z</time>
      </trkpt>
      <trkpt lat="44.32229" lon="6.61558">
        <ele>1330.4000244141</ele>
        <time>2020-08-13T12:27:08.000Z</time>
      </trkpt>
      <trkpt lat="44.32229" lon="6.6157">
        <ele>1330.5999755859</ele>
        <time>2020-08-13T12:27:10.000Z</time>
      </trkpt>
      <trkpt lat="44.3223" lon="6.61582">
        <ele>1330.5999755859</ele>
        <time>2020-08-13T12:27:12.000Z</time>
      </trkpt>
      <trkpt lat="44.32237" lon="6.61622">
        <ele>1331.1999511719</ele>
        <time>2020-08-13T12:27:20.000Z</time>
      </trkpt>
      <trkpt lat="44.32237" lon="6.61627">
        <ele>1331.5999755859</ele>
        <time>2020-08-13T12:27:21.000Z</time>
      </trkpt>
      <trkpt lat="44.32238" lon="6.61653">
        <ele>1332.4000244141</ele>
        <time>2020-08-13T12:27:27.000Z</time>
      </trkpt>
      <trkpt lat="44.32235" lon="6.61662">
        <ele>1332.5999755859</ele>
        <time>2020-08-13T12:27:29.000Z</time>
      </trkpt>
      <trkpt lat="44.3223" lon="6.61668">
        <ele>1332.8000488281</ele>
        <time>2020-08-13T12:27:31.000Z</time>
      </trkpt>
      <trkpt lat="44.32221" lon="6.61679">
        <ele>1333.8000488281</ele>
        <time>2020-08-13T12:27:35.000Z</time>
      </trkpt>
      <trkpt lat="44.32214" lon="6.61686">
        <ele>1334.5999755859</ele>
        <time>2020-08-13T12:27:38.000Z</time>
      </trkpt>
      <trkpt lat="44.32209" lon="6.61691">
        <ele>1335.1999511719</ele>
        <time>2020-08-13T12:27:40.000Z</time>
      </trkpt>
      <trkpt lat="44.32195" lon="6.61704">
        <ele>1336</ele>
        <time>2020-08-13T12:27:46.000Z</time>
      </trkpt>
      <trkpt lat="44.32193" lon="6.61707">
        <ele>1336.1999511719</ele>
        <time>2020-08-13T12:27:47.000Z</time>
      </trkpt>
      <trkpt lat="44.32179" lon="6.6172">
        <ele>1337.1999511719</ele>
        <time>2020-08-13T12:27:53.000Z</time>
      </trkpt>
      <trkpt lat="44.32177" lon="6.61722">
        <ele>1337.1999511719</ele>
        <time>2020-08-13T12:27:54.000Z</time>
      </trkpt>
      <trkpt lat="44.32164" lon="6.61733">
        <ele>1338.4000244141</ele>
        <time>2020-08-13T12:28:00.000Z</time>
      </trkpt>
      <trkpt lat="44.32161" lon="6.61735">
        <ele>1338.5999755859</ele>
        <time>2020-08-13T12:28:01.000Z</time>
      </trkpt>
      <trkpt lat="44.32152" lon="6.61743">
        <ele>1339.5999755859</ele>
        <time>2020-08-13T12:28:05.000Z</time>
      </trkpt>
      <trkpt lat="44.32143" lon="6.6175">
        <ele>1340.5999755859</ele>
        <time>2020-08-13T12:28:09.000Z</time>
      </trkpt>
      <trkpt lat="44.3214" lon="6.61751">
        <ele>1340.8000488281</ele>
        <time>2020-08-13T12:28:10.000Z</time>
      </trkpt>
      <trkpt lat="44.32126" lon="6.61766">
        <ele>1341.5999755859</ele>
        <time>2020-08-13T12:28:17.000Z</time>
      </trkpt>
      <trkpt lat="44.32124" lon="6.61768">
        <ele>1341.5999755859</ele>
        <time>2020-08-13T12:28:18.000Z</time>
      </trkpt>
      <trkpt lat="44.32116" lon="6.61787">
        <ele>1342.4000244141</ele>
        <time>2020-08-13T12:28:24.000Z</time>
      </trkpt>
      <trkpt lat="44.32111" lon="6.61796">
        <ele>1342.8000488281</ele>
        <time>2020-08-13T12:28:27.000Z</time>
      </trkpt>
      <trkpt lat="44.32103" lon="6.6181">
        <ele>1343.5999755859</ele>
        <time>2020-08-13T12:28:32.000Z</time>
      </trkpt>
      <trkpt lat="44.32099" lon="6.61816">
        <ele>1343.8000488281</ele>
        <time>2020-08-13T12:28:34.000Z</time>
      </trkpt>
      <trkpt lat="44.32084" lon="6.6183">
        <ele>1344.5999755859</ele>
        <time>2020-08-13T12:28:40.000Z</time>
      </trkpt>
      <trkpt lat="44.32078" lon="6.61836">
        <ele>1345</ele>
        <time>2020-08-13T12:28:43.000Z</time>
      </trkpt>
      <trkpt lat="44.32069" lon="6.61844">
        <ele>1345.8000488281</ele>
        <time>2020-08-13T12:28:47.000Z</time>
      </trkpt>
      <trkpt lat="44.32066" lon="6.61849">
        <ele>1346.1999511719</ele>
        <time>2020-08-13T12:28:49.000Z</time>
      </trkpt>
      <trkpt lat="44.32059" lon="6.61862">
        <ele>1347</ele>
        <time>2020-08-13T12:28:54.000Z</time>
      </trkpt>
      <trkpt lat="44.32055" lon="6.6187">
        <ele>1347.1999511719</ele>
        <time>2020-08-13T12:28:57.000Z</time>
      </trkpt>
      <trkpt lat="44.32048" lon="6.61885">
        <ele>1348.1999511719</ele>
        <time>2020-08-13T12:29:03.000Z</time>
      </trkpt>
      <trkpt lat="44.32047" lon="6.61889">
        <ele>1348.1999511719</ele>
        <time>2020-08-13T12:29:04.000Z</time>
      </trkpt>
      <trkpt lat="44.32042" lon="6.61919">
        <ele>1349.4000244141</ele>
        <time>2020-08-13T12:29:11.000Z</time>
      </trkpt>
      <trkpt lat="44.32041" lon="6.61927">
        <ele>1349.5999755859</ele>
        <time>2020-08-13T12:29:13.000Z</time>
      </trkpt>
      <trkpt lat="44.32037" lon="6.61943">
        <ele>1350.4000244141</ele>
        <time>2020-08-13T12:29:17.000Z</time>
      </trkpt>
      <trkpt lat="44.32032" lon="6.61958">
        <ele>1350.8000488281</ele>
        <time>2020-08-13T12:29:21.000Z</time>
      </trkpt>
      <trkpt lat="44.32028" lon="6.61976">
        <ele>1351.4000244141</ele>
        <time>2020-08-13T12:29:26.000Z</time>
      </trkpt>
      <trkpt lat="44.32026" lon="6.61992">
        <ele>1352</ele>
        <time>2020-08-13T12:29:30.000Z</time>
      </trkpt>
      <trkpt lat="44.32025" lon="6.62003">
        <ele>1352.5999755859</ele>
        <time>2020-08-13T12:29:33.000Z</time>
      </trkpt>
      <trkpt lat="44.32025" lon="6.6203">
        <ele>1353.8000488281</ele>
        <time>2020-08-13T12:29:40.000Z</time>
      </trkpt>
      <trkpt lat="44.32025" lon="6.62034">
        <ele>1354</ele>
        <time>2020-08-13T12:29:41.000Z</time>
      </trkpt>
      <trkpt lat="44.32026" lon="6.62053">
        <ele>1354.8000488281</ele>
        <time>2020-08-13T12:29:46.000Z</time>
      </trkpt>
      <trkpt lat="44.32026" lon="6.62067">
        <ele>1355.1999511719</ele>
        <time>2020-08-13T12:29:50.000Z</time>
      </trkpt>
      <trkpt lat="44.32024" lon="6.62101">
        <ele>1355.4000244141</ele>
        <time>2020-08-13T12:29:59.000Z</time>
      </trkpt>
      <trkpt lat="44.32025" lon="6.62104">
        <ele>1356</ele>
        <time>2020-08-13T12:30:00.000Z</time>
      </trkpt>
      <trkpt lat="44.32025" lon="6.62117">
        <ele>1357</ele>
        <time>2020-08-13T12:30:04.000Z</time>
      </trkpt>
      <trkpt lat="44.32026" lon="6.6213">
        <ele>1356.4000244141</ele>
        <time>2020-08-13T12:30:08.000Z</time>
      </trkpt>
      <trkpt lat="44.32022" lon="6.62162">
        <ele>1357.8000488281</ele>
        <time>2020-08-13T12:30:17.000Z</time>
      </trkpt>
      <trkpt lat="44.32021" lon="6.62168">
        <ele>1358</ele>
        <time>2020-08-13T12:30:19.000Z</time>
      </trkpt>
      <trkpt lat="44.3202" lon="6.62182">
        <ele>1359</ele>
        <time>2020-08-13T12:30:23.000Z</time>
      </trkpt>
      <trkpt lat="44.32018" lon="6.62192">
        <ele>1360.4000244141</ele>
        <time>2020-08-13T12:30:26.000Z</time>
      </trkpt>
      <trkpt lat="44.32013" lon="6.62225">
        <ele>1361.1999511719</ele>
        <time>2020-08-13T12:30:36.000Z</time>
      </trkpt>
      <trkpt lat="44.32013" lon="6.62229">
        <ele>1361.5999755859</ele>
        <time>2020-08-13T12:30:37.000Z</time>
      </trkpt>
      <trkpt lat="44.32011" lon="6.62246">
        <ele>1362.5999755859</ele>
        <time>2020-08-13T12:30:42.000Z</time>
      </trkpt>
      <trkpt lat="44.32011" lon="6.62263">
        <ele>1363.4000244141</ele>
        <time>2020-08-13T12:30:47.000Z</time>
      </trkpt>
      <trkpt lat="44.32011" lon="6.62266">
        <ele>1363.5999755859</ele>
        <time>2020-08-13T12:30:48.000Z</time>
      </trkpt>
      <trkpt lat="44.32008" lon="6.62296">
        <ele>1364.5999755859</ele>
        <time>2020-08-13T12:30:57.000Z</time>
      </trkpt>
      <trkpt lat="44.32007" lon="6.62299">
        <ele>1364.5999755859</ele>
        <time>2020-08-13T12:30:58.000Z</time>
      </trkpt>
      <trkpt lat="44.31998" lon="6.62322">
        <ele>1365.5999755859</ele>
        <time>2020-08-13T12:31:06.000Z</time>
      </trkpt>
      <trkpt lat="44.31996" lon="6.62324">
        <ele>1365.8000488281</ele>
        <time>2020-08-13T12:31:07.000Z</time>
      </trkpt>
      <trkpt lat="44.3199" lon="6.62338">
        <ele>1367</ele>
        <time>2020-08-13T12:31:12.000Z</time>
      </trkpt>
      <trkpt lat="44.31991" lon="6.62348">
        <ele>1367.8000488281</ele>
        <time>2020-08-13T12:31:15.000Z</time>
      </trkpt>
      <trkpt lat="44.31992" lon="6.6235">
        <ele>1368</ele>
        <time>2020-08-13T12:31:16.000Z</time>
      </trkpt>
      <trkpt lat="44.31998" lon="6.62365">
        <ele>1369</ele>
        <time>2020-08-13T12:31:21.000Z</time>
      </trkpt>
      <trkpt lat="44.32" lon="6.62371">
        <ele>1369.1999511719</ele>
        <time>2020-08-13T12:31:23.000Z</time>
      </trkpt>
      <trkpt lat="44.32005" lon="6.62383">
        <ele>1370.1999511719</ele>
        <time>2020-08-13T12:31:27.000Z</time>
      </trkpt>
      <trkpt lat="44.32011" lon="6.624">
        <ele>1370.8000488281</ele>
        <time>2020-08-13T12:31:33.000Z</time>
      </trkpt>
      <trkpt lat="44.32012" lon="6.62407">
        <ele>1371.1999511719</ele>
        <time>2020-08-13T12:31:35.000Z</time>
      </trkpt>
      <trkpt lat="44.32017" lon="6.62427">
        <ele>1372.4000244141</ele>
        <time>2020-08-13T12:31:41.000Z</time>
      </trkpt>
      <trkpt lat="44.3202" lon="6.62437">
        <ele>1372.8000488281</ele>
        <time>2020-08-13T12:31:44.000Z</time>
      </trkpt>
      <trkpt lat="44.32024" lon="6.62453">
        <ele>1373.4000244141</ele>
        <time>2020-08-13T12:31:49.000Z</time>
      </trkpt>
      <trkpt lat="44.32027" lon="6.62466">
        <ele>1374</ele>
        <time>2020-08-13T12:31:53.000Z</time>
      </trkpt>
      <trkpt lat="44.32025" lon="6.62485">
        <ele>1374.4000244141</ele>
        <time>2020-08-13T12:31:59.000Z</time>
      </trkpt>
      <trkpt lat="44.32023" lon="6.62488">
        <ele>1374.5999755859</ele>
        <time>2020-08-13T12:32:00.000Z</time>
      </trkpt>
      <trkpt lat="44.32017" lon="6.62506">
        <ele>1375.5999755859</ele>
        <time>2020-08-13T12:32:06.000Z</time>
      </trkpt>
      <trkpt lat="44.32015" lon="6.62515">
        <ele>1376.1999511719</ele>
        <time>2020-08-13T12:32:09.000Z</time>
      </trkpt>
      <trkpt lat="44.32013" lon="6.62522">
        <ele>1376.5999755859</ele>
        <time>2020-08-13T12:32:11.000Z</time>
      </trkpt>
      <trkpt lat="44.32009" lon="6.62548">
        <ele>1377.1999511719</ele>
        <time>2020-08-13T12:32:19.000Z</time>
      </trkpt>
      <trkpt lat="44.32009" lon="6.62555">
        <ele>1377.5999755859</ele>
        <time>2020-08-13T12:32:21.000Z</time>
      </trkpt>
      <trkpt lat="44.32007" lon="6.62576">
        <ele>1378.8000488281</ele>
        <time>2020-08-13T12:32:27.000Z</time>
      </trkpt>
      <trkpt lat="44.32007" lon="6.62579">
        <ele>1379</ele>
        <time>2020-08-13T12:32:28.000Z</time>
      </trkpt>
      <trkpt lat="44.32006" lon="6.62597">
        <ele>1379.8000488281</ele>
        <time>2020-08-13T12:32:33.000Z</time>
      </trkpt>
      <trkpt lat="44.32003" lon="6.62612">
        <ele>1380.4000244141</ele>
        <time>2020-08-13T12:32:37.000Z</time>
      </trkpt>
      <trkpt lat="44.31999" lon="6.62622">
        <ele>1381</ele>
        <time>2020-08-13T12:32:40.000Z</time>
      </trkpt>
      <trkpt lat="44.31993" lon="6.6263">
        <ele>1381.5999755859</ele>
        <time>2020-08-13T12:32:43.000Z</time>
      </trkpt>
      <trkpt lat="44.31989" lon="6.62636">
        <ele>1382</ele>
        <time>2020-08-13T12:32:45.000Z</time>
      </trkpt>
      <trkpt lat="44.3198" lon="6.62654">
        <ele>1382.4000244141</ele>
        <time>2020-08-13T12:32:51.000Z</time>
      </trkpt>
      <trkpt lat="44.31978" lon="6.62669">
        <ele>1383.1999511719</ele>
        <time>2020-08-13T12:32:55.000Z</time>
      </trkpt>
      <trkpt lat="44.31977" lon="6.62684">
        <ele>1384</ele>
        <time>2020-08-13T12:32:59.000Z</time>
      </trkpt>
      <trkpt lat="44.31975" lon="6.62691">
        <ele>1384.4000244141</ele>
        <time>2020-08-13T12:33:01.000Z</time>
      </trkpt>
      <trkpt lat="44.3197" lon="6.62698">
        <ele>1385</ele>
        <time>2020-08-13T12:33:04.000Z</time>
      </trkpt>
      <trkpt lat="44.31966" lon="6.62704">
        <ele>1385.4000244141</ele>
        <time>2020-08-13T12:33:06.000Z</time>
      </trkpt>
      <trkpt lat="44.31952" lon="6.62721">
        <ele>1386.5999755859</ele>
        <time>2020-08-13T12:33:13.000Z</time>
      </trkpt>
      <trkpt lat="44.31943" lon="6.62733">
        <ele>1387.8000488281</ele>
        <time>2020-08-13T12:33:18.000Z</time>
      </trkpt>
      <trkpt lat="44.31935" lon="6.62744">
        <ele>1388.5999755859</ele>
        <time>2020-08-13T12:33:22.000Z</time>
      </trkpt>
      <trkpt lat="44.31934" lon="6.62747">
        <ele>1388.8000488281</ele>
        <time>2020-08-13T12:33:23.000Z</time>
      </trkpt>
      <trkpt lat="44.31926" lon="6.62759">
        <ele>1390</ele>
        <time>2020-08-13T12:33:28.000Z</time>
      </trkpt>
      <trkpt lat="44.31917" lon="6.62773">
        <ele>1390.8000488281</ele>
        <time>2020-08-13T12:33:33.000Z</time>
      </trkpt>
      <trkpt lat="44.31915" lon="6.62776">
        <ele>1391</ele>
        <time>2020-08-13T12:33:34.000Z</time>
      </trkpt>
      <trkpt lat="44.31909" lon="6.62789">
        <ele>1392.1999511719</ele>
        <time>2020-08-13T12:33:38.000Z</time>
      </trkpt>
      <trkpt lat="44.31902" lon="6.62806">
        <ele>1392.8000488281</ele>
        <time>2020-08-13T12:33:43.000Z</time>
      </trkpt>
      <trkpt lat="44.319" lon="6.62818">
        <ele>1393.1999511719</ele>
        <time>2020-08-13T12:33:46.000Z</time>
      </trkpt>
      <trkpt lat="44.31897" lon="6.62836">
        <ele>1393.5999755859</ele>
        <time>2020-08-13T12:33:50.000Z</time>
      </trkpt>
      <trkpt lat="44.31896" lon="6.62844">
        <ele>1393.8000488281</ele>
        <time>2020-08-13T12:33:52.000Z</time>
      </trkpt>
      <trkpt lat="44.31894" lon="6.62854">
        <ele>1394.1999511719</ele>
        <time>2020-08-13T12:33:54.000Z</time>
      </trkpt>
      <trkpt lat="44.31892" lon="6.62863">
        <ele>1394.5999755859</ele>
        <time>2020-08-13T12:33:56.000Z</time>
      </trkpt>
      <trkpt lat="44.31889" lon="6.62878">
        <ele>1395.4000244141</ele>
        <time>2020-08-13T12:34:00.000Z</time>
      </trkpt>
      <trkpt lat="44.31886" lon="6.62889">
        <ele>1396.1999511719</ele>
        <time>2020-08-13T12:34:03.000Z</time>
      </trkpt>
      <trkpt lat="44.31885" lon="6.62893">
        <ele>1396.5999755859</ele>
        <time>2020-08-13T12:34:04.000Z</time>
      </trkpt>
      <trkpt lat="44.31881" lon="6.62908">
        <ele>1397.8000488281</ele>
        <time>2020-08-13T12:34:08.000Z</time>
      </trkpt>
      <trkpt lat="44.31878" lon="6.6292">
        <ele>1398.1999511719</ele>
        <time>2020-08-13T12:34:11.000Z</time>
      </trkpt>
      <trkpt lat="44.31868" lon="6.6296">
        <ele>1398.4000244141</ele>
        <time>2020-08-13T12:34:22.000Z</time>
      </trkpt>
      <trkpt lat="44.31863" lon="6.6297">
        <ele>1398.8000488281</ele>
        <time>2020-08-13T12:34:25.000Z</time>
      </trkpt>
      <trkpt lat="44.31856" lon="6.62983">
        <ele>1399.8000488281</ele>
        <time>2020-08-13T12:34:29.000Z</time>
      </trkpt>
      <trkpt lat="44.31855" lon="6.62986">
        <ele>1400</ele>
        <time>2020-08-13T12:34:30.000Z</time>
      </trkpt>
      <trkpt lat="44.31853" lon="6.63001">
        <ele>1400.5999755859</ele>
        <time>2020-08-13T12:34:34.000Z</time>
      </trkpt>
      <trkpt lat="44.31854" lon="6.63012">
        <ele>1401</ele>
        <time>2020-08-13T12:34:36.000Z</time>
      </trkpt>
      <trkpt lat="44.31857" lon="6.6303">
        <ele>1401.5999755859</ele>
        <time>2020-08-13T12:34:40.000Z</time>
      </trkpt>
      <trkpt lat="44.31861" lon="6.63049">
        <ele>1402</ele>
        <time>2020-08-13T12:34:44.000Z</time>
      </trkpt>
      <trkpt lat="44.31862" lon="6.63062">
        <ele>1402.4000244141</ele>
        <time>2020-08-13T12:34:47.000Z</time>
      </trkpt>
      <trkpt lat="44.31867" lon="6.63087">
        <ele>1403.1999511719</ele>
        <time>2020-08-13T12:34:53.000Z</time>
      </trkpt>
      <trkpt lat="44.31868" lon="6.6309">
        <ele>1403.4000244141</ele>
        <time>2020-08-13T12:34:54.000Z</time>
      </trkpt>
      <trkpt lat="44.31873" lon="6.63107">
        <ele>1404.4000244141</ele>
        <time>2020-08-13T12:34:59.000Z</time>
      </trkpt>
      <trkpt lat="44.31875" lon="6.63122">
        <ele>1405</ele>
        <time>2020-08-13T12:35:03.000Z</time>
      </trkpt>
      <trkpt lat="44.31874" lon="6.6313">
        <ele>1405.4000244141</ele>
        <time>2020-08-13T12:35:05.000Z</time>
      </trkpt>
      <trkpt lat="44.31871" lon="6.63145">
        <ele>1406.1999511719</ele>
        <time>2020-08-13T12:35:09.000Z</time>
      </trkpt>
      <trkpt lat="44.31869" lon="6.63161">
        <ele>1406.4000244141</ele>
        <time>2020-08-13T12:35:13.000Z</time>
      </trkpt>
      <trkpt lat="44.31866" lon="6.63181">
        <ele>1407.5999755859</ele>
        <time>2020-08-13T12:35:18.000Z</time>
      </trkpt>
      <trkpt lat="44.31865" lon="6.63188">
        <ele>1407.8000488281</ele>
        <time>2020-08-13T12:35:20.000Z</time>
      </trkpt>
      <trkpt lat="44.31864" lon="6.63215">
        <ele>1408.8000488281</ele>
        <time>2020-08-13T12:35:27.000Z</time>
      </trkpt>
      <trkpt lat="44.31861" lon="6.63231">
        <ele>1409.4000244141</ele>
        <time>2020-08-13T12:35:31.000Z</time>
      </trkpt>
      <trkpt lat="44.31859" lon="6.63238">
        <ele>1409.8000488281</ele>
        <time>2020-08-13T12:35:33.000Z</time>
      </trkpt>
      <trkpt lat="44.31854" lon="6.63269">
        <ele>1411</ele>
        <time>2020-08-13T12:35:40.000Z</time>
      </trkpt>
      <trkpt lat="44.31855" lon="6.63305">
        <ele>1412.1999511719</ele>
        <time>2020-08-13T12:35:48.000Z</time>
      </trkpt>
      <trkpt lat="44.31855" lon="6.63315">
        <ele>1412.5999755859</ele>
        <time>2020-08-13T12:35:50.000Z</time>
      </trkpt>
      <trkpt lat="44.31856" lon="6.63341">
        <ele>1413.1999511719</ele>
        <time>2020-08-13T12:35:56.000Z</time>
      </trkpt>
      <trkpt lat="44.31859" lon="6.63359">
        <ele>1413.5999755859</ele>
        <time>2020-08-13T12:36:00.000Z</time>
      </trkpt>
      <trkpt lat="44.31858" lon="6.63391">
        <ele>1414</ele>
        <time>2020-08-13T12:36:06.000Z</time>
      </trkpt>
      <trkpt lat="44.31854" lon="6.63406">
        <ele>1414.1999511719</ele>
        <time>2020-08-13T12:36:09.000Z</time>
      </trkpt>
      <trkpt lat="44.31845" lon="6.63429">
        <ele>1414.8000488281</ele>
        <time>2020-08-13T12:36:14.000Z</time>
      </trkpt>
      <trkpt lat="44.31835" lon="6.63452">
        <ele>1415.4000244141</ele>
        <time>2020-08-13T12:36:19.000Z</time>
      </trkpt>
      <trkpt lat="44.31831" lon="6.63471">
        <ele>1416</ele>
        <time>2020-08-13T12:36:23.000Z</time>
      </trkpt>
      <trkpt lat="44.31829" lon="6.63481">
        <ele>1416.4000244141</ele>
        <time>2020-08-13T12:36:25.000Z</time>
      </trkpt>
      <trkpt lat="44.31828" lon="6.6351">
        <ele>1417.4000244141</ele>
        <time>2020-08-13T12:36:31.000Z</time>
      </trkpt>
      <trkpt lat="44.31828" lon="6.63515">
        <ele>1417.5999755859</ele>
        <time>2020-08-13T12:36:32.000Z</time>
      </trkpt>
      <trkpt lat="44.31827" lon="6.63546">
        <ele>1418.5999755859</ele>
        <time>2020-08-13T12:36:38.000Z</time>
      </trkpt>
      <trkpt lat="44.31826" lon="6.63567">
        <ele>1419.1999511719</ele>
        <time>2020-08-13T12:36:42.000Z</time>
      </trkpt>
      <trkpt lat="44.31826" lon="6.63588">
        <ele>1419.8000488281</ele>
        <time>2020-08-13T12:36:46.000Z</time>
      </trkpt>
      <trkpt lat="44.31825" lon="6.63619">
        <ele>1420.5999755859</ele>
        <time>2020-08-13T12:36:52.000Z</time>
      </trkpt>
      <trkpt lat="44.31825" lon="6.63625">
        <ele>1420.8000488281</ele>
        <time>2020-08-13T12:36:53.000Z</time>
      </trkpt>
      <trkpt lat="44.31822" lon="6.63656">
        <ele>1421.4000244141</ele>
        <time>2020-08-13T12:36:59.000Z</time>
      </trkpt>
      <trkpt lat="44.31817" lon="6.63682">
        <ele>1421.8000488281</ele>
        <time>2020-08-13T12:37:04.000Z</time>
      </trkpt>
      <trkpt lat="44.31813" lon="6.63705">
        <ele>1422.4000244141</ele>
        <time>2020-08-13T12:37:09.000Z</time>
      </trkpt>
      <trkpt lat="44.31814" lon="6.6372">
        <ele>1422.8000488281</ele>
        <time>2020-08-13T12:37:12.000Z</time>
      </trkpt>
      <trkpt lat="44.31816" lon="6.6374">
        <ele>1423.5999755859</ele>
        <time>2020-08-13T12:37:16.000Z</time>
      </trkpt>
      <trkpt lat="44.31816" lon="6.6375">
        <ele>1424</ele>
        <time>2020-08-13T12:37:18.000Z</time>
      </trkpt>
      <trkpt lat="44.31819" lon="6.63778">
        <ele>1425.4000244141</ele>
        <time>2020-08-13T12:37:24.000Z</time>
      </trkpt>
      <trkpt lat="44.3182" lon="6.63791">
        <ele>1425.8000488281</ele>
        <time>2020-08-13T12:37:27.000Z</time>
      </trkpt>
      <trkpt lat="44.31821" lon="6.63809">
        <ele>1426.4000244141</ele>
        <time>2020-08-13T12:37:31.000Z</time>
      </trkpt>
      <trkpt lat="44.31822" lon="6.63832">
        <ele>1427.5999755859</ele>
        <time>2020-08-13T12:37:36.000Z</time>
      </trkpt>
      <trkpt lat="44.31823" lon="6.63836">
        <ele>1427.5999755859</ele>
        <time>2020-08-13T12:37:37.000Z</time>
      </trkpt>
      <trkpt lat="44.31823" lon="6.6385">
        <ele>1428.5999755859</ele>
        <time>2020-08-13T12:37:40.000Z</time>
      </trkpt>
      <trkpt lat="44.31823" lon="6.63876">
        <ele>1429.5999755859</ele>
        <time>2020-08-13T12:37:46.000Z</time>
      </trkpt>
      <trkpt lat="44.31826" lon="6.63915">
        <ele>1430.8000488281</ele>
        <time>2020-08-13T12:37:54.000Z</time>
      </trkpt>
      <trkpt lat="44.31828" lon="6.63933">
        <ele>1431.1999511719</ele>
        <time>2020-08-13T12:37:58.000Z</time>
      </trkpt>
      <trkpt lat="44.31829" lon="6.63952">
        <ele>1431.8000488281</ele>
        <time>2020-08-13T12:38:02.000Z</time>
      </trkpt>
      <trkpt lat="44.31831" lon="6.63969">
        <ele>1433</ele>
        <time>2020-08-13T12:38:06.000Z</time>
      </trkpt>
      <trkpt lat="44.31831" lon="6.63974">
        <ele>1433.1999511719</ele>
        <time>2020-08-13T12:38:07.000Z</time>
      </trkpt>
      <trkpt lat="44.31835" lon="6.64">
        <ele>1434.1999511719</ele>
        <time>2020-08-13T12:38:13.000Z</time>
      </trkpt>
      <trkpt lat="44.31838" lon="6.64023">
        <ele>1434.4000244141</ele>
        <time>2020-08-13T12:38:18.000Z</time>
      </trkpt>
      <trkpt lat="44.31841" lon="6.64046">
        <ele>1435.1999511719</ele>
        <time>2020-08-13T12:38:23.000Z</time>
      </trkpt>
      <trkpt lat="44.31844" lon="6.64075">
        <ele>1436.1999511719</ele>
        <time>2020-08-13T12:38:29.000Z</time>
      </trkpt>
      <trkpt lat="44.31844" lon="6.6408">
        <ele>1436.1999511719</ele>
        <time>2020-08-13T12:38:30.000Z</time>
      </trkpt>
      <trkpt lat="44.31842" lon="6.64101">
        <ele>1436.5999755859</ele>
        <time>2020-08-13T12:38:34.000Z</time>
      </trkpt>
      <trkpt lat="44.3184" lon="6.64113">
        <ele>1437</ele>
        <time>2020-08-13T12:38:36.000Z</time>
      </trkpt>
      <trkpt lat="44.31839" lon="6.64123">
        <ele>1437.4000244141</ele>
        <time>2020-08-13T12:38:38.000Z</time>
      </trkpt>
      <trkpt lat="44.31837" lon="6.64152">
        <ele>1438.1999511719</ele>
        <time>2020-08-13T12:38:44.000Z</time>
      </trkpt>
      <trkpt lat="44.31837" lon="6.64161">
        <ele>1438.5999755859</ele>
        <time>2020-08-13T12:38:46.000Z</time>
      </trkpt>
      <trkpt lat="44.31837" lon="6.64193">
        <ele>1439.8000488281</ele>
        <time>2020-08-13T12:38:53.000Z</time>
      </trkpt>
      <trkpt lat="44.31836" lon="6.64206">
        <ele>1440.4000244141</ele>
        <time>2020-08-13T12:38:56.000Z</time>
      </trkpt>
      <trkpt lat="44.31836" lon="6.64215">
        <ele>1440.8000488281</ele>
        <time>2020-08-13T12:38:58.000Z</time>
      </trkpt>
      <trkpt lat="44.31836" lon="6.64237">
        <ele>1442</ele>
        <time>2020-08-13T12:39:03.000Z</time>
      </trkpt>
      <trkpt lat="44.31837" lon="6.64252">
        <ele>1442.8000488281</ele>
        <time>2020-08-13T12:39:06.000Z</time>
      </trkpt>
      <trkpt lat="44.31838" lon="6.64256">
        <ele>1443</ele>
        <time>2020-08-13T12:39:07.000Z</time>
      </trkpt>
      <trkpt lat="44.31843" lon="6.64294">
        <ele>1444</ele>
        <time>2020-08-13T12:39:15.000Z</time>
      </trkpt>
      <trkpt lat="44.31847" lon="6.64317">
        <ele>1445</ele>
        <time>2020-08-13T12:39:20.000Z</time>
      </trkpt>
      <trkpt lat="44.31848" lon="6.64326">
        <ele>1445.1999511719</ele>
        <time>2020-08-13T12:39:22.000Z</time>
      </trkpt>
      <trkpt lat="44.31856" lon="6.64345">
        <ele>1446.1999511719</ele>
        <time>2020-08-13T12:39:27.000Z</time>
      </trkpt>
      <trkpt lat="44.31857" lon="6.64349">
        <ele>1446.1999511719</ele>
        <time>2020-08-13T12:39:28.000Z</time>
      </trkpt>
      <trkpt lat="44.31866" lon="6.64378">
        <ele>1447.1999511719</ele>
        <time>2020-08-13T12:39:35.000Z</time>
      </trkpt>
      <trkpt lat="44.31867" lon="6.64402">
        <ele>1448.4000244141</ele>
        <time>2020-08-13T12:39:41.000Z</time>
      </trkpt>
      <trkpt lat="44.31869" lon="6.64411">
        <ele>1448.5999755859</ele>
        <time>2020-08-13T12:39:43.000Z</time>
      </trkpt>
      <trkpt lat="44.31879" lon="6.64429">
        <ele>1449.5999755859</ele>
        <time>2020-08-13T12:39:48.000Z</time>
      </trkpt>
      <trkpt lat="44.31883" lon="6.64436">
        <ele>1449.8000488281</ele>
        <time>2020-08-13T12:39:50.000Z</time>
      </trkpt>
      <trkpt lat="44.31892" lon="6.64466">
        <ele>1450.5999755859</ele>
        <time>2020-08-13T12:39:57.000Z</time>
      </trkpt>
      <trkpt lat="44.31898" lon="6.64509">
        <ele>1451.5999755859</ele>
        <time>2020-08-13T12:40:06.000Z</time>
      </trkpt>
      <trkpt lat="44.319" lon="6.64541">
        <ele>1452.5999755859</ele>
        <time>2020-08-13T12:40:13.000Z</time>
      </trkpt>
      <trkpt lat="44.31901" lon="6.64554">
        <ele>1453.4000244141</ele>
        <time>2020-08-13T12:40:16.000Z</time>
      </trkpt>
      <trkpt lat="44.319" lon="6.64571">
        <ele>1454</ele>
        <time>2020-08-13T12:40:20.000Z</time>
      </trkpt>
      <trkpt lat="44.319" lon="6.64599">
        <ele>1455</ele>
        <time>2020-08-13T12:40:26.000Z</time>
      </trkpt>
      <trkpt lat="44.319" lon="6.64635">
        <ele>1456</ele>
        <time>2020-08-13T12:40:34.000Z</time>
      </trkpt>
      <trkpt lat="44.319" lon="6.64645">
        <ele>1456.4000244141</ele>
        <time>2020-08-13T12:40:36.000Z</time>
      </trkpt>
      <trkpt lat="44.31901" lon="6.64668">
        <ele>1457</ele>
        <time>2020-08-13T12:40:41.000Z</time>
      </trkpt>
      <trkpt lat="44.31903" lon="6.64695">
        <ele>1458</ele>
        <time>2020-08-13T12:40:47.000Z</time>
      </trkpt>
      <trkpt lat="44.31904" lon="6.64699">
        <ele>1458.4000244141</ele>
        <time>2020-08-13T12:40:48.000Z</time>
      </trkpt>
      <trkpt lat="44.3191" lon="6.64735">
        <ele>1459.4000244141</ele>
        <time>2020-08-13T12:40:56.000Z</time>
      </trkpt>
      <trkpt lat="44.31916" lon="6.64774">
        <ele>1460.4000244141</ele>
        <time>2020-08-13T12:41:04.000Z</time>
      </trkpt>
      <trkpt lat="44.31918" lon="6.64784">
        <ele>1460.5999755859</ele>
        <time>2020-08-13T12:41:06.000Z</time>
      </trkpt>
      <trkpt lat="44.31921" lon="6.64807">
        <ele>1461.4000244141</ele>
        <time>2020-08-13T12:41:11.000Z</time>
      </trkpt>
      <trkpt lat="44.31923" lon="6.64832">
        <ele>1462.1999511719</ele>
        <time>2020-08-13T12:41:16.000Z</time>
      </trkpt>
      <trkpt lat="44.31923" lon="6.64846">
        <ele>1462.4000244141</ele>
        <time>2020-08-13T12:41:19.000Z</time>
      </trkpt>
      <trkpt lat="44.31924" lon="6.64878">
        <ele>1463.1999511719</ele>
        <time>2020-08-13T12:41:25.000Z</time>
      </trkpt>
      <trkpt lat="44.31925" lon="6.6492">
        <ele>1463.4000244141</ele>
        <time>2020-08-13T12:41:33.000Z</time>
      </trkpt>
      <trkpt lat="44.31927" lon="6.64931">
        <ele>1463.5999755859</ele>
        <time>2020-08-13T12:41:35.000Z</time>
      </trkpt>
      <trkpt lat="44.31929" lon="6.64984">
        <ele>1464.5999755859</ele>
        <time>2020-08-13T12:41:45.000Z</time>
      </trkpt>
      <trkpt lat="44.31929" lon="6.6499">
        <ele>1464.5999755859</ele>
        <time>2020-08-13T12:41:46.000Z</time>
      </trkpt>
      <trkpt lat="44.31932" lon="6.65041">
        <ele>1465</ele>
        <time>2020-08-13T12:41:55.000Z</time>
      </trkpt>
      <trkpt lat="44.31935" lon="6.65098">
        <ele>1465.4000244141</ele>
        <time>2020-08-13T12:42:04.000Z</time>
      </trkpt>
      <trkpt lat="44.31937" lon="6.6511">
        <ele>1465.5999755859</ele>
        <time>2020-08-13T12:42:06.000Z</time>
      </trkpt>
      <trkpt lat="44.31944" lon="6.65139">
        <ele>1466.1999511719</ele>
        <time>2020-08-13T12:42:11.000Z</time>
      </trkpt>
      <trkpt lat="44.31948" lon="6.65154">
        <ele>1466.1999511719</ele>
        <time>2020-08-13T12:42:14.000Z</time>
      </trkpt>
      <trkpt lat="44.31952" lon="6.65178">
        <ele>1466.8000488281</ele>
        <time>2020-08-13T12:42:18.000Z</time>
      </trkpt>
      <trkpt lat="44.31962" lon="6.65212">
        <ele>1467.8000488281</ele>
        <time>2020-08-13T12:42:25.000Z</time>
      </trkpt>
      <trkpt lat="44.31963" lon="6.65217">
        <ele>1468</ele>
        <time>2020-08-13T12:42:26.000Z</time>
      </trkpt>
      <trkpt lat="44.31969" lon="6.65246">
        <ele>1468.8000488281</ele>
        <time>2020-08-13T12:42:32.000Z</time>
      </trkpt>
      <trkpt lat="44.31969" lon="6.65256">
        <ele>1469</ele>
        <time>2020-08-13T12:42:34.000Z</time>
      </trkpt>
      <trkpt lat="44.31968" lon="6.65284">
        <ele>1470</ele>
        <time>2020-08-13T12:42:40.000Z</time>
      </trkpt>
      <trkpt lat="44.31967" lon="6.65303">
        <ele>1470.8000488281</ele>
        <time>2020-08-13T12:42:44.000Z</time>
      </trkpt>
      <trkpt lat="44.31967" lon="6.65313">
        <ele>1471.1999511719</ele>
        <time>2020-08-13T12:42:46.000Z</time>
      </trkpt>
      <trkpt lat="44.31965" lon="6.65339">
        <ele>1472.1999511719</ele>
        <time>2020-08-13T12:42:52.000Z</time>
      </trkpt>
      <trkpt lat="44.31963" lon="6.65371">
        <ele>1473.1999511719</ele>
        <time>2020-08-13T12:42:59.000Z</time>
      </trkpt>
      <trkpt lat="44.31963" lon="6.65376">
        <ele>1473.1999511719</ele>
        <time>2020-08-13T12:43:00.000Z</time>
      </trkpt>
      <trkpt lat="44.31962" lon="6.65394">
        <ele>1474.1999511719</ele>
        <time>2020-08-13T12:43:04.000Z</time>
      </trkpt>
      <trkpt lat="44.31962" lon="6.65416">
        <ele>1475</ele>
        <time>2020-08-13T12:43:09.000Z</time>
      </trkpt>
      <trkpt lat="44.31962" lon="6.6542">
        <ele>1475.1999511719</ele>
        <time>2020-08-13T12:43:10.000Z</time>
      </trkpt>
      <trkpt lat="44.31961" lon="6.65463">
        <ele>1476.5999755859</ele>
        <time>2020-08-13T12:43:20.000Z</time>
      </trkpt>
      <trkpt lat="44.31959" lon="6.65484">
        <ele>1477.5999755859</ele>
        <time>2020-08-13T12:43:25.000Z</time>
      </trkpt>
      <trkpt lat="44.31958" lon="6.65496">
        <ele>1478.4000244141</ele>
        <time>2020-08-13T12:43:28.000Z</time>
      </trkpt>
      <trkpt lat="44.31958" lon="6.655">
        <ele>1478.5999755859</ele>
        <time>2020-08-13T12:43:29.000Z</time>
      </trkpt>
      <trkpt lat="44.31958" lon="6.65518">
        <ele>1479.8000488281</ele>
        <time>2020-08-13T12:43:34.000Z</time>
      </trkpt>
      <trkpt lat="44.31959" lon="6.65529">
        <ele>1480.1999511719</ele>
        <time>2020-08-13T12:43:37.000Z</time>
      </trkpt>
      <trkpt lat="44.31961" lon="6.65542">
        <ele>1481</ele>
        <time>2020-08-13T12:43:41.000Z</time>
      </trkpt>
      <trkpt lat="44.31962" lon="6.65553">
        <ele>1481.5999755859</ele>
        <time>2020-08-13T12:43:44.000Z</time>
      </trkpt>
      <trkpt lat="44.31963" lon="6.65559">
        <ele>1482.1999511719</ele>
        <time>2020-08-13T12:43:46.000Z</time>
      </trkpt>
      <trkpt lat="44.31964" lon="6.65573">
        <ele>1483</ele>
        <time>2020-08-13T12:43:50.000Z</time>
      </trkpt>
      <trkpt lat="44.31964" lon="6.65576">
        <ele>1483.1999511719</ele>
        <time>2020-08-13T12:43:51.000Z</time>
      </trkpt>
      <trkpt lat="44.31962" lon="6.65595">
        <ele>1484.4000244141</ele>
        <time>2020-08-13T12:43:57.000Z</time>
      </trkpt>
      <trkpt lat="44.31964" lon="6.65611">
        <ele>1485.4000244141</ele>
        <time>2020-08-13T12:44:02.000Z</time>
      </trkpt>
      <trkpt lat="44.31964" lon="6.65617">
        <ele>1485.8000488281</ele>
        <time>2020-08-13T12:44:04.000Z</time>
      </trkpt>
      <trkpt lat="44.31967" lon="6.65629">
        <ele>1486.5999755859</ele>
        <time>2020-08-13T12:44:08.000Z</time>
      </trkpt>
      <trkpt lat="44.31969" lon="6.65641">
        <ele>1487.4000244141</ele>
        <time>2020-08-13T12:44:12.000Z</time>
      </trkpt>
      <trkpt lat="44.3197" lon="6.65643">
        <ele>1487.5999755859</ele>
        <time>2020-08-13T12:44:13.000Z</time>
      </trkpt>
      <trkpt lat="44.31979" lon="6.65653">
        <ele>1488.4000244141</ele>
        <time>2020-08-13T12:44:18.000Z</time>
      </trkpt>
      <trkpt lat="44.31981" lon="6.65656">
        <ele>1488.5999755859</ele>
        <time>2020-08-13T12:44:19.000Z</time>
      </trkpt>
      <trkpt lat="44.31996" lon="6.65669">
        <ele>1489.8000488281</ele>
        <time>2020-08-13T12:44:26.000Z</time>
      </trkpt>
      <trkpt lat="44.31998" lon="6.65671">
        <ele>1490</ele>
        <time>2020-08-13T12:44:27.000Z</time>
      </trkpt>
      <trkpt lat="44.32006" lon="6.6568">
        <ele>1490.8000488281</ele>
        <time>2020-08-13T12:44:31.000Z</time>
      </trkpt>
      <trkpt lat="44.32017" lon="6.6569">
        <ele>1491.8000488281</ele>
        <time>2020-08-13T12:44:36.000Z</time>
      </trkpt>
      <trkpt lat="44.32019" lon="6.65692">
        <ele>1492</ele>
        <time>2020-08-13T12:44:37.000Z</time>
      </trkpt>
      <trkpt lat="44.32027" lon="6.657">
        <ele>1493</ele>
        <time>2020-08-13T12:44:41.000Z</time>
      </trkpt>
      <trkpt lat="44.32041" lon="6.65717">
        <ele>1494</ele>
        <time>2020-08-13T12:44:48.000Z</time>
      </trkpt>
      <trkpt lat="44.32042" lon="6.65719">
        <ele>1494.1999511719</ele>
        <time>2020-08-13T12:44:49.000Z</time>
      </trkpt>
      <trkpt lat="44.32047" lon="6.65731">
        <ele>1495.1999511719</ele>
        <time>2020-08-13T12:44:53.000Z</time>
      </trkpt>
      <trkpt lat="44.32049" lon="6.65741">
        <ele>1495.8000488281</ele>
        <time>2020-08-13T12:44:56.000Z</time>
      </trkpt>
      <trkpt lat="44.32051" lon="6.65747">
        <ele>1496.4000244141</ele>
        <time>2020-08-13T12:44:58.000Z</time>
      </trkpt>
      <trkpt lat="44.32054" lon="6.65763">
        <ele>1497</ele>
        <time>2020-08-13T12:45:03.000Z</time>
      </trkpt>
      <trkpt lat="44.32056" lon="6.65769">
        <ele>1497.4000244141</ele>
        <time>2020-08-13T12:45:05.000Z</time>
      </trkpt>
      <trkpt lat="44.3206" lon="6.65784">
        <ele>1498.4000244141</ele>
        <time>2020-08-13T12:45:10.000Z</time>
      </trkpt>
      <trkpt lat="44.32064" lon="6.65795">
        <ele>1499.1999511719</ele>
        <time>2020-08-13T12:45:14.000Z</time>
      </trkpt>
      <trkpt lat="44.32068" lon="6.65804">
        <ele>1499.5999755859</ele>
        <time>2020-08-13T12:45:17.000Z</time>
      </trkpt>
      <trkpt lat="44.32079" lon="6.65824">
        <ele>1500.5999755859</ele>
        <time>2020-08-13T12:45:24.000Z</time>
      </trkpt>
      <trkpt lat="44.32089" lon="6.65843">
        <ele>1501.8000488281</ele>
        <time>2020-08-13T12:45:31.000Z</time>
      </trkpt>
      <trkpt lat="44.32091" lon="6.65848">
        <ele>1502.1999511719</ele>
        <time>2020-08-13T12:45:33.000Z</time>
      </trkpt>
      <trkpt lat="44.32096" lon="6.65855">
        <ele>1502.8000488281</ele>
        <time>2020-08-13T12:45:36.000Z</time>
      </trkpt>
      <trkpt lat="44.32105" lon="6.65867">
        <ele>1503.8000488281</ele>
        <time>2020-08-13T12:45:41.000Z</time>
      </trkpt>
      <trkpt lat="44.32107" lon="6.65869">
        <ele>1504</ele>
        <time>2020-08-13T12:45:42.000Z</time>
      </trkpt>
      <trkpt lat="44.32116" lon="6.65882">
        <ele>1505</ele>
        <time>2020-08-13T12:45:48.000Z</time>
      </trkpt>
      <trkpt lat="44.32118" lon="6.65884">
        <ele>1505.1999511719</ele>
        <time>2020-08-13T12:45:49.000Z</time>
      </trkpt>
      <trkpt lat="44.32125" lon="6.65895">
        <ele>1506.1999511719</ele>
        <time>2020-08-13T12:45:54.000Z</time>
      </trkpt>
      <trkpt lat="44.32128" lon="6.65899">
        <ele>1506.8000488281</ele>
        <time>2020-08-13T12:45:56.000Z</time>
      </trkpt>
      <trkpt lat="44.32135" lon="6.65907">
        <ele>1507.4000244141</ele>
        <time>2020-08-13T12:46:00.000Z</time>
      </trkpt>
      <trkpt lat="44.32143" lon="6.65917">
        <ele>1508.4000244141</ele>
        <time>2020-08-13T12:46:05.000Z</time>
      </trkpt>
      <trkpt lat="44.32146" lon="6.65921">
        <ele>1508.5999755859</ele>
        <time>2020-08-13T12:46:07.000Z</time>
      </trkpt>
      <trkpt lat="44.32156" lon="6.65935">
        <ele>1509.5999755859</ele>
        <time>2020-08-13T12:46:13.000Z</time>
      </trkpt>
      <trkpt lat="44.32165" lon="6.65948">
        <ele>1510.5999755859</ele>
        <time>2020-08-13T12:46:19.000Z</time>
      </trkpt>
      <trkpt lat="44.32167" lon="6.65951">
        <ele>1510.8000488281</ele>
        <time>2020-08-13T12:46:20.000Z</time>
      </trkpt>
      <trkpt lat="44.32173" lon="6.65963">
        <ele>1511.5999755859</ele>
        <time>2020-08-13T12:46:25.000Z</time>
      </trkpt>
      <trkpt lat="44.32179" lon="6.65972">
        <ele>1512.4000244141</ele>
        <time>2020-08-13T12:46:29.000Z</time>
      </trkpt>
      <trkpt lat="44.32181" lon="6.65976">
        <ele>1512.8000488281</ele>
        <time>2020-08-13T12:46:31.000Z</time>
      </trkpt>
      <trkpt lat="44.32188" lon="6.65988">
        <ele>1514</ele>
        <time>2020-08-13T12:46:36.000Z</time>
      </trkpt>
      <trkpt lat="44.32189" lon="6.65991">
        <ele>1514.1999511719</ele>
        <time>2020-08-13T12:46:37.000Z</time>
      </trkpt>
      <trkpt lat="44.32196" lon="6.66007">
        <ele>1515.1999511719</ele>
        <time>2020-08-13T12:46:43.000Z</time>
      </trkpt>
      <trkpt lat="44.32201" lon="6.66014">
        <ele>1515.4000244141</ele>
        <time>2020-08-13T12:46:46.000Z</time>
      </trkpt>
      <trkpt lat="44.32212" lon="6.66029">
        <ele>1516.1999511719</ele>
        <time>2020-08-13T12:46:53.000Z</time>
      </trkpt>
      <trkpt lat="44.32217" lon="6.66035">
        <ele>1516.8000488281</ele>
        <time>2020-08-13T12:46:56.000Z</time>
      </trkpt>
      <trkpt lat="44.32223" lon="6.66039">
        <ele>1517.4000244141</ele>
        <time>2020-08-13T12:46:59.000Z</time>
      </trkpt>
      <trkpt lat="44.32234" lon="6.66044">
        <ele>1518</ele>
        <time>2020-08-13T12:47:04.000Z</time>
      </trkpt>
      <trkpt lat="44.3224" lon="6.66043">
        <ele>1518.4000244141</ele>
        <time>2020-08-13T12:47:07.000Z</time>
      </trkpt>
      <trkpt lat="44.32251" lon="6.6604">
        <ele>1519.4000244141</ele>
        <time>2020-08-13T12:47:12.000Z</time>
      </trkpt>
      <trkpt lat="44.32253" lon="6.66039">
        <ele>1519.5999755859</ele>
        <time>2020-08-13T12:47:13.000Z</time>
      </trkpt>
      <trkpt lat="44.32267" lon="6.66034">
        <ele>1520.8000488281</ele>
        <time>2020-08-13T12:47:19.000Z</time>
      </trkpt>
      <trkpt lat="44.32269" lon="6.66035">
        <ele>1521</ele>
        <time>2020-08-13T12:47:20.000Z</time>
      </trkpt>
      <trkpt lat="44.32274" lon="6.66042">
        <ele>1521.5999755859</ele>
        <time>2020-08-13T12:47:23.000Z</time>
      </trkpt>
      <trkpt lat="44.32276" lon="6.66049">
        <ele>1522</ele>
        <time>2020-08-13T12:47:25.000Z</time>
      </trkpt>
      <trkpt lat="44.32275" lon="6.66067">
        <ele>1522.5999755859</ele>
        <time>2020-08-13T12:47:30.000Z</time>
      </trkpt>
      <trkpt lat="44.32271" lon="6.66079">
        <ele>1523.1999511719</ele>
        <time>2020-08-13T12:47:34.000Z</time>
      </trkpt>
      <trkpt lat="44.32268" lon="6.66095">
        <ele>1523.8000488281</ele>
        <time>2020-08-13T12:47:39.000Z</time>
      </trkpt>
      <trkpt lat="44.32267" lon="6.66106">
        <ele>1524.1999511719</ele>
        <time>2020-08-13T12:47:42.000Z</time>
      </trkpt>
      <trkpt lat="44.32266" lon="6.66124">
        <ele>1525</ele>
        <time>2020-08-13T12:47:47.000Z</time>
      </trkpt>
      <trkpt lat="44.32267" lon="6.66128">
        <ele>1525.1999511719</ele>
        <time>2020-08-13T12:47:48.000Z</time>
      </trkpt>
      <trkpt lat="44.32269" lon="6.66153">
        <ele>1526.1999511719</ele>
        <time>2020-08-13T12:47:55.000Z</time>
      </trkpt>
      <trkpt lat="44.3227" lon="6.66156">
        <ele>1526.4000244141</ele>
        <time>2020-08-13T12:47:56.000Z</time>
      </trkpt>
      <trkpt lat="44.32278" lon="6.66176">
        <ele>1527.1999511719</ele>
        <time>2020-08-13T12:48:02.000Z</time>
      </trkpt>
      <trkpt lat="44.32279" lon="6.66179">
        <ele>1527.4000244141</ele>
        <time>2020-08-13T12:48:03.000Z</time>
      </trkpt>
      <trkpt lat="44.32285" lon="6.66194">
        <ele>1528.1999511719</ele>
        <time>2020-08-13T12:48:08.000Z</time>
      </trkpt>
      <trkpt lat="44.32286" lon="6.66201">
        <ele>1528.4000244141</ele>
        <time>2020-08-13T12:48:10.000Z</time>
      </trkpt>
      <trkpt lat="44.32288" lon="6.66226">
        <ele>1529.5999755859</ele>
        <time>2020-08-13T12:48:17.000Z</time>
      </trkpt>
      <trkpt lat="44.32288" lon="6.66233">
        <ele>1530</ele>
        <time>2020-08-13T12:48:19.000Z</time>
      </trkpt>
      <trkpt lat="44.32288" lon="6.66242">
        <ele>1530.8000488281</ele>
        <time>2020-08-13T12:48:22.000Z</time>
      </trkpt>
      <trkpt lat="44.32289" lon="6.66263">
        <ele>1532</ele>
        <time>2020-08-13T12:48:28.000Z</time>
      </trkpt>
      <trkpt lat="44.3229" lon="6.66271">
        <ele>1532.4000244141</ele>
        <time>2020-08-13T12:48:30.000Z</time>
      </trkpt>
      <trkpt lat="44.32294" lon="6.66285">
        <ele>1533.1999511719</ele>
        <time>2020-08-13T12:48:34.000Z</time>
      </trkpt>
      <trkpt lat="44.32301" lon="6.66304">
        <ele>1533.8000488281</ele>
        <time>2020-08-13T12:48:40.000Z</time>
      </trkpt>
      <trkpt lat="44.32304" lon="6.66314">
        <ele>1534.4000244141</ele>
        <time>2020-08-13T12:48:43.000Z</time>
      </trkpt>
      <trkpt lat="44.32306" lon="6.66339">
        <ele>1535.4000244141</ele>
        <time>2020-08-13T12:48:50.000Z</time>
      </trkpt>
      <trkpt lat="44.32307" lon="6.6636">
        <ele>1536.5999755859</ele>
        <time>2020-08-13T12:48:56.000Z</time>
      </trkpt>
      <trkpt lat="44.32309" lon="6.66385">
        <ele>1537.4000244141</ele>
        <time>2020-08-13T12:49:03.000Z</time>
      </trkpt>
      <trkpt lat="44.3231" lon="6.66392">
        <ele>1537.5999755859</ele>
        <time>2020-08-13T12:49:05.000Z</time>
      </trkpt>
      <trkpt lat="44.32311" lon="6.66414">
        <ele>1538.5999755859</ele>
        <time>2020-08-13T12:49:11.000Z</time>
      </trkpt>
      <trkpt lat="44.32311" lon="6.66418">
        <ele>1538.8000488281</ele>
        <time>2020-08-13T12:49:12.000Z</time>
      </trkpt>
      <trkpt lat="44.32313" lon="6.66444">
        <ele>1539.8000488281</ele>
        <time>2020-08-13T12:49:19.000Z</time>
      </trkpt>
      <trkpt lat="44.32313" lon="6.66461">
        <ele>1540.4000244141</ele>
        <time>2020-08-13T12:49:24.000Z</time>
      </trkpt>
      <trkpt lat="44.32313" lon="6.66472">
        <ele>1540.8000488281</ele>
        <time>2020-08-13T12:49:27.000Z</time>
      </trkpt>
      <trkpt lat="44.32312" lon="6.66498">
        <ele>1541.5999755859</ele>
        <time>2020-08-13T12:49:34.000Z</time>
      </trkpt>
      <trkpt lat="44.32312" lon="6.66506">
        <ele>1542</ele>
        <time>2020-08-13T12:49:36.000Z</time>
      </trkpt>
      <trkpt lat="44.3231" lon="6.66532">
        <ele>1542.8000488281</ele>
        <time>2020-08-13T12:49:43.000Z</time>
      </trkpt>
      <trkpt lat="44.3231" lon="6.66536">
        <ele>1543</ele>
        <time>2020-08-13T12:49:44.000Z</time>
      </trkpt>
      <trkpt lat="44.32306" lon="6.66565">
        <ele>1544.1999511719</ele>
        <time>2020-08-13T12:49:52.000Z</time>
      </trkpt>
      <trkpt lat="44.32304" lon="6.66573">
        <ele>1544.5999755859</ele>
        <time>2020-08-13T12:49:54.000Z</time>
      </trkpt>
      <trkpt lat="44.32301" lon="6.66587">
        <ele>1545.4000244141</ele>
        <time>2020-08-13T12:49:58.000Z</time>
      </trkpt>
      <trkpt lat="44.32302" lon="6.66604">
        <ele>1546.4000244141</ele>
        <time>2020-08-13T12:50:03.000Z</time>
      </trkpt>
      <trkpt lat="44.32306" lon="6.66605">
        <ele>1546.5999755859</ele>
        <time>2020-08-13T12:50:04.000Z</time>
      </trkpt>
      <trkpt lat="44.32312" lon="6.66601">
        <ele>1546.8000488281</ele>
        <time>2020-08-13T12:50:06.000Z</time>
      </trkpt>
      <trkpt lat="44.32316" lon="6.66586">
        <ele>1546.5999755859</ele>
        <time>2020-08-13T12:50:10.000Z</time>
      </trkpt>
      <trkpt lat="44.3232" lon="6.66557">
        <ele>1547.5999755859</ele>
        <time>2020-08-13T12:50:17.000Z</time>
      </trkpt>
      <trkpt lat="44.32324" lon="6.66535">
        <ele>1548.5999755859</ele>
        <time>2020-08-13T12:50:23.000Z</time>
      </trkpt>
      <trkpt lat="44.32325" lon="6.66531">
        <ele>1548.8000488281</ele>
        <time>2020-08-13T12:50:24.000Z</time>
      </trkpt>
      <trkpt lat="44.3233" lon="6.66505">
        <ele>1549.5999755859</ele>
        <time>2020-08-13T12:50:31.000Z</time>
      </trkpt>
      <trkpt lat="44.32332" lon="6.66497">
        <ele>1550</ele>
        <time>2020-08-13T12:50:33.000Z</time>
      </trkpt>
      <trkpt lat="44.32337" lon="6.66471">
        <ele>1550.8000488281</ele>
        <time>2020-08-13T12:50:39.000Z</time>
      </trkpt>
      <trkpt lat="44.3234" lon="6.66453">
        <ele>1551.1999511719</ele>
        <time>2020-08-13T12:50:43.000Z</time>
      </trkpt>
      <trkpt lat="44.32345" lon="6.66431">
        <ele>1551.8000488281</ele>
        <time>2020-08-13T12:50:48.000Z</time>
      </trkpt>
      <trkpt lat="44.32347" lon="6.66426">
        <ele>1552</ele>
        <time>2020-08-13T12:50:49.000Z</time>
      </trkpt>
      <trkpt lat="44.32355" lon="6.6642">
        <ele>1552.4000244141</ele>
        <time>2020-08-13T12:50:52.000Z</time>
      </trkpt>
      <trkpt lat="44.32356" lon="6.66425">
        <ele>1552.5999755859</ele>
        <time>2020-08-13T12:50:53.000Z</time>
      </trkpt>
      <trkpt lat="44.32356" lon="6.66429">
        <ele>1552.8000488281</ele>
        <time>2020-08-13T12:50:54.000Z</time>
      </trkpt>
      <trkpt lat="44.32352" lon="6.6644">
        <ele>1553.4000244141</ele>
        <time>2020-08-13T12:50:57.000Z</time>
      </trkpt>
      <trkpt lat="44.32348" lon="6.66452">
        <ele>1554</ele>
        <time>2020-08-13T12:51:00.000Z</time>
      </trkpt>
      <trkpt lat="44.32344" lon="6.66469">
        <ele>1554.5999755859</ele>
        <time>2020-08-13T12:51:04.000Z</time>
      </trkpt>
      <trkpt lat="44.32343" lon="6.66478">
        <ele>1555</ele>
        <time>2020-08-13T12:51:06.000Z</time>
      </trkpt>
      <trkpt lat="44.3234" lon="6.66505">
        <ele>1556</ele>
        <time>2020-08-13T12:51:12.000Z</time>
      </trkpt>
      <trkpt lat="44.32339" lon="6.66523">
        <ele>1556.5999755859</ele>
        <time>2020-08-13T12:51:16.000Z</time>
      </trkpt>
      <trkpt lat="44.32338" lon="6.66532">
        <ele>1557</ele>
        <time>2020-08-13T12:51:18.000Z</time>
      </trkpt>
      <trkpt lat="44.32335" lon="6.6656">
        <ele>1558.1999511719</ele>
        <time>2020-08-13T12:51:24.000Z</time>
      </trkpt>
      <trkpt lat="44.32334" lon="6.66573">
        <ele>1558.5999755859</ele>
        <time>2020-08-13T12:51:27.000Z</time>
      </trkpt>
      <trkpt lat="44.32334" lon="6.66582">
        <ele>1559.1999511719</ele>
        <time>2020-08-13T12:51:29.000Z</time>
      </trkpt>
      <trkpt lat="44.32337" lon="6.66613">
        <ele>1560</ele>
        <time>2020-08-13T12:51:36.000Z</time>
      </trkpt>
      <trkpt lat="44.3234" lon="6.66621">
        <ele>1560.4000244141</ele>
        <time>2020-08-13T12:51:38.000Z</time>
      </trkpt>
      <trkpt lat="44.32347" lon="6.66644">
        <ele>1561</ele>
        <time>2020-08-13T12:51:43.000Z</time>
      </trkpt>
      <trkpt lat="44.32349" lon="6.66662">
        <ele>1561.4000244141</ele>
        <time>2020-08-13T12:51:47.000Z</time>
      </trkpt>
      <trkpt lat="44.3235" lon="6.66676">
        <ele>1562</ele>
        <time>2020-08-13T12:51:50.000Z</time>
      </trkpt>
      <trkpt lat="44.3235" lon="6.66691">
        <ele>1562.4000244141</ele>
        <time>2020-08-13T12:51:53.000Z</time>
      </trkpt>
      <trkpt lat="44.3235" lon="6.66713">
        <ele>1563.4000244141</ele>
        <time>2020-08-13T12:51:58.000Z</time>
      </trkpt>
      <trkpt lat="44.3235" lon="6.66718">
        <ele>1563.5999755859</ele>
        <time>2020-08-13T12:51:59.000Z</time>
      </trkpt>
      <trkpt lat="44.32345" lon="6.66744">
        <ele>1564.5999755859</ele>
        <time>2020-08-13T12:52:05.000Z</time>
      </trkpt>
      <trkpt lat="44.32344" lon="6.66748">
        <ele>1564.8000488281</ele>
        <time>2020-08-13T12:52:06.000Z</time>
      </trkpt>
      <trkpt lat="44.32334" lon="6.66764">
        <ele>1565.5999755859</ele>
        <time>2020-08-13T12:52:11.000Z</time>
      </trkpt>
      <trkpt lat="44.32331" lon="6.66767">
        <ele>1566</ele>
        <time>2020-08-13T12:52:12.000Z</time>
      </trkpt>
      <trkpt lat="44.32313" lon="6.66784">
        <ele>1566.8000488281</ele>
        <time>2020-08-13T12:52:19.000Z</time>
      </trkpt>
      <trkpt lat="44.32292" lon="6.6679">
        <ele>1567.8000488281</ele>
        <time>2020-08-13T12:52:26.000Z</time>
      </trkpt>
      <trkpt lat="44.32286" lon="6.66793">
        <ele>1568.1999511719</ele>
        <time>2020-08-13T12:52:28.000Z</time>
      </trkpt>
      <trkpt lat="44.32266" lon="6.66803">
        <ele>1569</ele>
        <time>2020-08-13T12:52:35.000Z</time>
      </trkpt>
      <trkpt lat="44.32264" lon="6.66805">
        <ele>1569.1999511719</ele>
        <time>2020-08-13T12:52:36.000Z</time>
      </trkpt>
      <trkpt lat="44.32249" lon="6.66816">
        <ele>1570.1999511719</ele>
        <time>2020-08-13T12:52:42.000Z</time>
      </trkpt>
      <trkpt lat="44.32237" lon="6.66831">
        <ele>1570.8000488281</ele>
        <time>2020-08-13T12:52:47.000Z</time>
      </trkpt>
      <trkpt lat="44.32231" lon="6.66841">
        <ele>1571.1999511719</ele>
        <time>2020-08-13T12:52:50.000Z</time>
      </trkpt>
      <trkpt lat="44.3222" lon="6.66861">
        <ele>1572.1999511719</ele>
        <time>2020-08-13T12:52:56.000Z</time>
      </trkpt>
      <trkpt lat="44.32218" lon="6.66864">
        <ele>1572.4000244141</ele>
        <time>2020-08-13T12:52:57.000Z</time>
      </trkpt>
      <trkpt lat="44.32207" lon="6.66874">
        <ele>1573.1999511719</ele>
        <time>2020-08-13T12:53:02.000Z</time>
      </trkpt>
      <trkpt lat="44.32205" lon="6.66875">
        <ele>1573.4000244141</ele>
        <time>2020-08-13T12:53:03.000Z</time>
      </trkpt>
      <trkpt lat="44.32191" lon="6.66888">
        <ele>1574.1999511719</ele>
        <time>2020-08-13T12:53:08.000Z</time>
      </trkpt>
      <trkpt lat="44.32186" lon="6.66894">
        <ele>1574.4000244141</ele>
        <time>2020-08-13T12:53:10.000Z</time>
      </trkpt>
      <trkpt lat="44.32176" lon="6.6691">
        <ele>1575.4000244141</ele>
        <time>2020-08-13T12:53:15.000Z</time>
      </trkpt>
      <trkpt lat="44.32173" lon="6.66917">
        <ele>1575.5999755859</ele>
        <time>2020-08-13T12:53:17.000Z</time>
      </trkpt>
      <trkpt lat="44.32164" lon="6.66936">
        <ele>1576.4000244141</ele>
        <time>2020-08-13T12:53:23.000Z</time>
      </trkpt>
      <trkpt lat="44.32163" lon="6.6694">
        <ele>1576.5999755859</ele>
        <time>2020-08-13T12:53:24.000Z</time>
      </trkpt>
      <trkpt lat="44.32157" lon="6.66959">
        <ele>1577.8000488281</ele>
        <time>2020-08-13T12:53:29.000Z</time>
      </trkpt>
      <trkpt lat="44.32156" lon="6.66963">
        <ele>1578</ele>
        <time>2020-08-13T12:53:30.000Z</time>
      </trkpt>
      <trkpt lat="44.32149" lon="6.66997">
        <ele>1579.1999511719</ele>
        <time>2020-08-13T12:53:39.000Z</time>
      </trkpt>
      <trkpt lat="44.32148" lon="6.67">
        <ele>1579.4000244141</ele>
        <time>2020-08-13T12:53:40.000Z</time>
      </trkpt>
      <trkpt lat="44.32147" lon="6.67007">
        <ele>1580.1999511719</ele>
        <time>2020-08-13T12:53:42.000Z</time>
      </trkpt>
      <trkpt lat="44.32145" lon="6.67022">
        <ele>1581</ele>
        <time>2020-08-13T12:53:47.000Z</time>
      </trkpt>
      <trkpt lat="44.32145" lon="6.67028">
        <ele>1581.1999511719</ele>
        <time>2020-08-13T12:53:49.000Z</time>
      </trkpt>
      <trkpt lat="44.32142" lon="6.67046">
        <ele>1582.4000244141</ele>
        <time>2020-08-13T12:53:55.000Z</time>
      </trkpt>
      <trkpt lat="44.32142" lon="6.67049">
        <ele>1582.4000244141</ele>
        <time>2020-08-13T12:53:56.000Z</time>
      </trkpt>
      <trkpt lat="44.32142" lon="6.6706">
        <ele>1583.4000244141</ele>
        <time>2020-08-13T12:54:00.000Z</time>
      </trkpt>
      <trkpt lat="44.32143" lon="6.67069">
        <ele>1584</ele>
        <time>2020-08-13T12:54:03.000Z</time>
      </trkpt>
      <trkpt lat="44.32144" lon="6.67078">
        <ele>1584.5999755859</ele>
        <time>2020-08-13T12:54:06.000Z</time>
      </trkpt>
      <trkpt lat="44.32147" lon="6.67092">
        <ele>1584.8000488281</ele>
        <time>2020-08-13T12:54:11.000Z</time>
      </trkpt>
      <trkpt lat="44.32148" lon="6.67097">
        <ele>1585.5999755859</ele>
        <time>2020-08-13T12:54:13.000Z</time>
      </trkpt>
      <trkpt lat="44.3215" lon="6.67102">
        <ele>1586.8000488281</ele>
        <time>2020-08-13T12:54:15.000Z</time>
      </trkpt>
      <trkpt lat="44.32153" lon="6.67114">
        <ele>1587.5999755859</ele>
        <time>2020-08-13T12:54:19.000Z</time>
      </trkpt>
      <trkpt lat="44.32154" lon="6.67117">
        <ele>1587.8000488281</ele>
        <time>2020-08-13T12:54:20.000Z</time>
      </trkpt>
      <trkpt lat="44.32157" lon="6.67127">
        <ele>1589</ele>
        <time>2020-08-13T12:54:24.000Z</time>
      </trkpt>
      <trkpt lat="44.32158" lon="6.67135">
        <ele>1589.5999755859</ele>
        <time>2020-08-13T12:54:27.000Z</time>
      </trkpt>
      <trkpt lat="44.32159" lon="6.67144">
        <ele>1590.1999511719</ele>
        <time>2020-08-13T12:54:30.000Z</time>
      </trkpt>
      <trkpt lat="44.32159" lon="6.67154">
        <ele>1590.8000488281</ele>
        <time>2020-08-13T12:54:33.000Z</time>
      </trkpt>
      <trkpt lat="44.32157" lon="6.67164">
        <ele>1591.4000244141</ele>
        <time>2020-08-13T12:54:37.000Z</time>
      </trkpt>
      <trkpt lat="44.32155" lon="6.67179">
        <ele>1592.4000244141</ele>
        <time>2020-08-13T12:54:41.000Z</time>
      </trkpt>
      <trkpt lat="44.32152" lon="6.67204">
        <ele>1592.8000488281</ele>
        <time>2020-08-13T12:54:48.000Z</time>
      </trkpt>
      <trkpt lat="44.32147" lon="6.67239">
        <ele>1593.4000244141</ele>
        <time>2020-08-13T12:54:58.000Z</time>
      </trkpt>
      <trkpt lat="44.32146" lon="6.67246">
        <ele>1593.5999755859</ele>
        <time>2020-08-13T12:55:00.000Z</time>
      </trkpt>
      <trkpt lat="44.32143" lon="6.6729">
        <ele>1594.4000244141</ele>
        <time>2020-08-13T12:55:11.000Z</time>
      </trkpt>
      <trkpt lat="44.32137" lon="6.67322">
        <ele>1595.5999755859</ele>
        <time>2020-08-13T12:55:19.000Z</time>
      </trkpt>
      <trkpt lat="44.32136" lon="6.67326">
        <ele>1596</ele>
        <time>2020-08-13T12:55:20.000Z</time>
      </trkpt>
      <trkpt lat="44.32131" lon="6.67351">
        <ele>1596.8000488281</ele>
        <time>2020-08-13T12:55:26.000Z</time>
      </trkpt>
      <trkpt lat="44.32129" lon="6.67364">
        <ele>1597.4000244141</ele>
        <time>2020-08-13T12:55:29.000Z</time>
      </trkpt>
      <trkpt lat="44.32126" lon="6.67387">
        <ele>1597.8000488281</ele>
        <time>2020-08-13T12:55:34.000Z</time>
      </trkpt>
      <trkpt lat="44.32124" lon="6.67405">
        <ele>1598.4000244141</ele>
        <time>2020-08-13T12:55:38.000Z</time>
      </trkpt>
      <trkpt lat="44.32122" lon="6.6742">
        <ele>1598.8000488281</ele>
        <time>2020-08-13T12:55:41.000Z</time>
      </trkpt>
      <trkpt lat="44.32118" lon="6.67436">
        <ele>1599.1999511719</ele>
        <time>2020-08-13T12:55:44.000Z</time>
      </trkpt>
      <trkpt lat="44.32114" lon="6.67446">
        <ele>1599.5999755859</ele>
        <time>2020-08-13T12:55:46.000Z</time>
      </trkpt>
      <trkpt lat="44.32108" lon="6.67454">
        <ele>1599.8000488281</ele>
        <time>2020-08-13T12:55:48.000Z</time>
      </trkpt>
      <trkpt lat="44.32106" lon="6.67458">
        <ele>1600.1999511719</ele>
        <time>2020-08-13T12:55:49.000Z</time>
      </trkpt>
      <trkpt lat="44.32092" lon="6.67477">
        <ele>1601</ele>
        <time>2020-08-13T12:55:54.000Z</time>
      </trkpt>
      <trkpt lat="44.32086" lon="6.67484">
        <ele>1601.1999511719</ele>
        <time>2020-08-13T12:55:56.000Z</time>
      </trkpt>
      <trkpt lat="44.32063" lon="6.67516">
        <ele>1601.5999755859</ele>
        <time>2020-08-13T12:56:04.000Z</time>
      </trkpt>
      <trkpt lat="44.32057" lon="6.67531">
        <ele>1601.4000244141</ele>
        <time>2020-08-13T12:56:07.000Z</time>
      </trkpt>
      <trkpt lat="44.32052" lon="6.67552">
        <ele>1601.5999755859</ele>
        <time>2020-08-13T12:56:11.000Z</time>
      </trkpt>
      <trkpt lat="44.3204" lon="6.67603">
        <ele>1601.8000488281</ele>
        <time>2020-08-13T12:56:21.000Z</time>
      </trkpt>
      <trkpt lat="44.32037" lon="6.67636">
        <ele>1602.4000244141</ele>
        <time>2020-08-13T12:56:28.000Z</time>
      </trkpt>
      <trkpt lat="44.32038" lon="6.67665">
        <ele>1603.4000244141</ele>
        <time>2020-08-13T12:56:34.000Z</time>
      </trkpt>
      <trkpt lat="44.32038" lon="6.67679">
        <ele>1603.5999755859</ele>
        <time>2020-08-13T12:56:37.000Z</time>
      </trkpt>
      <trkpt lat="44.32038" lon="6.67705">
        <ele>1604.4000244141</ele>
        <time>2020-08-13T12:56:43.000Z</time>
      </trkpt>
      <trkpt lat="44.32039" lon="6.67728">
        <ele>1605.4000244141</ele>
        <time>2020-08-13T12:56:48.000Z</time>
      </trkpt>
      <trkpt lat="44.3204" lon="6.67737">
        <ele>1605.5999755859</ele>
        <time>2020-08-13T12:56:50.000Z</time>
      </trkpt>
      <trkpt lat="44.3204" lon="6.67766">
        <ele>1606.8000488281</ele>
        <time>2020-08-13T12:56:57.000Z</time>
      </trkpt>
      <trkpt lat="44.32033" lon="6.67792">
        <ele>1608</ele>
        <time>2020-08-13T12:57:04.000Z</time>
      </trkpt>
      <trkpt lat="44.32031" lon="6.67795">
        <ele>1608.1999511719</ele>
        <time>2020-08-13T12:57:05.000Z</time>
      </trkpt>
      <trkpt lat="44.32025" lon="6.67808">
        <ele>1609</ele>
        <time>2020-08-13T12:57:09.000Z</time>
      </trkpt>
      <trkpt lat="44.32016" lon="6.67826">
        <ele>1610.1999511719</ele>
        <time>2020-08-13T12:57:14.000Z</time>
      </trkpt>
      <trkpt lat="44.32005" lon="6.67846">
        <ele>1611.1999511719</ele>
        <time>2020-08-13T12:57:20.000Z</time>
      </trkpt>
      <trkpt lat="44.31996" lon="6.67857">
        <ele>1612</ele>
        <time>2020-08-13T12:57:24.000Z</time>
      </trkpt>
      <trkpt lat="44.31992" lon="6.67863">
        <ele>1612.4000244141</ele>
        <time>2020-08-13T12:57:26.000Z</time>
      </trkpt>
      <trkpt lat="44.3198" lon="6.67877">
        <ele>1613.1999511719</ele>
        <time>2020-08-13T12:57:31.000Z</time>
      </trkpt>
      <trkpt lat="44.31978" lon="6.67881">
        <ele>1613.4000244141</ele>
        <time>2020-08-13T12:57:32.000Z</time>
      </trkpt>
      <trkpt lat="44.31966" lon="6.67903">
        <ele>1614</ele>
        <time>2020-08-13T12:57:38.000Z</time>
      </trkpt>
      <trkpt lat="44.31949" lon="6.67943">
        <ele>1614.1999511719</ele>
        <time>2020-08-13T12:57:47.000Z</time>
      </trkpt>
      <trkpt lat="44.31949" lon="6.67948">
        <ele>1614.4000244141</ele>
        <time>2020-08-13T12:57:48.000Z</time>
      </trkpt>
      <trkpt lat="44.31949" lon="6.67969">
        <ele>1614.5999755859</ele>
        <time>2020-08-13T12:57:52.000Z</time>
      </trkpt>
      <trkpt lat="44.3195" lon="6.67975">
        <ele>1614.4000244141</ele>
        <time>2020-08-13T12:57:53.000Z</time>
      </trkpt>
      <trkpt lat="44.31956" lon="6.68002">
        <ele>1614.5999755859</ele>
        <time>2020-08-13T12:57:58.000Z</time>
      </trkpt>
      <trkpt lat="44.31955" lon="6.68014">
        <ele>1614.8000488281</ele>
        <time>2020-08-13T12:58:00.000Z</time>
      </trkpt>
      <trkpt lat="44.31952" lon="6.68024">
        <ele>1615</ele>
        <time>2020-08-13T12:58:02.000Z</time>
      </trkpt>
      <trkpt lat="44.31939" lon="6.68038">
        <ele>1615.4000244141</ele>
        <time>2020-08-13T12:58:06.000Z</time>
      </trkpt>
      <trkpt lat="44.31936" lon="6.6804">
        <ele>1615.5999755859</ele>
        <time>2020-08-13T12:58:07.000Z</time>
      </trkpt>
      <trkpt lat="44.31919" lon="6.68053">
        <ele>1616.1999511719</ele>
        <time>2020-08-13T12:58:13.000Z</time>
      </trkpt>
      <trkpt lat="44.31915" lon="6.68055">
        <ele>1616.4000244141</ele>
        <time>2020-08-13T12:58:14.000Z</time>
      </trkpt>
      <trkpt lat="44.31906" lon="6.68069">
        <ele>1617.4000244141</ele>
        <time>2020-08-13T12:58:18.000Z</time>
      </trkpt>
      <trkpt lat="44.31904" lon="6.68073">
        <ele>1617.8000488281</ele>
        <time>2020-08-13T12:58:19.000Z</time>
      </trkpt>
      <trkpt lat="44.31901" lon="6.68096">
        <ele>1618.1999511719</ele>
        <time>2020-08-13T12:58:24.000Z</time>
      </trkpt>
      <trkpt lat="44.31901" lon="6.68106">
        <ele>1618.5999755859</ele>
        <time>2020-08-13T12:58:26.000Z</time>
      </trkpt>
      <trkpt lat="44.31903" lon="6.68126">
        <ele>1618.8000488281</ele>
        <time>2020-08-13T12:58:30.000Z</time>
      </trkpt>
      <trkpt lat="44.31903" lon="6.6813">
        <ele>1618.8000488281</ele>
        <time>2020-08-13T12:58:31.000Z</time>
      </trkpt>
      <trkpt lat="44.31903" lon="6.68154">
        <ele>1619.5999755859</ele>
        <time>2020-08-13T12:58:36.000Z</time>
      </trkpt>
      <trkpt lat="44.31903" lon="6.68162">
        <ele>1620</ele>
        <time>2020-08-13T12:58:38.000Z</time>
      </trkpt>
      <trkpt lat="44.319" lon="6.6819">
        <ele>1620.8000488281</ele>
        <time>2020-08-13T12:58:45.000Z</time>
      </trkpt>
      <trkpt lat="44.31899" lon="6.68193">
        <ele>1621</ele>
        <time>2020-08-13T12:58:46.000Z</time>
      </trkpt>
      <trkpt lat="44.31896" lon="6.68209">
        <ele>1622</ele>
        <time>2020-08-13T12:58:50.000Z</time>
      </trkpt>
      <trkpt lat="44.31893" lon="6.68229">
        <ele>1623</ele>
        <time>2020-08-13T12:58:55.000Z</time>
      </trkpt>
      <trkpt lat="44.31892" lon="6.68237">
        <ele>1623.4000244141</ele>
        <time>2020-08-13T12:58:57.000Z</time>
      </trkpt>
      <trkpt lat="44.3189" lon="6.68253">
        <ele>1624</ele>
        <time>2020-08-13T12:59:01.000Z</time>
      </trkpt>
      <trkpt lat="44.31887" lon="6.68272">
        <ele>1625</ele>
        <time>2020-08-13T12:59:06.000Z</time>
      </trkpt>
      <trkpt lat="44.31887" lon="6.68276">
        <ele>1625.1999511719</ele>
        <time>2020-08-13T12:59:07.000Z</time>
      </trkpt>
      <trkpt lat="44.31883" lon="6.68294">
        <ele>1626.1999511719</ele>
        <time>2020-08-13T12:59:12.000Z</time>
      </trkpt>
      <trkpt lat="44.3188" lon="6.68313">
        <ele>1627</ele>
        <time>2020-08-13T12:59:17.000Z</time>
      </trkpt>
      <trkpt lat="44.31879" lon="6.6832">
        <ele>1627.1999511719</ele>
        <time>2020-08-13T12:59:19.000Z</time>
      </trkpt>
      <trkpt lat="44.31875" lon="6.68344">
        <ele>1628</ele>
        <time>2020-08-13T12:59:26.000Z</time>
      </trkpt>
      <trkpt lat="44.31874" lon="6.68351">
        <ele>1628.4000244141</ele>
        <time>2020-08-13T12:59:28.000Z</time>
      </trkpt>
      <trkpt lat="44.31872" lon="6.68363">
        <ele>1629.5999755859</ele>
        <time>2020-08-13T12:59:31.000Z</time>
      </trkpt>
      <trkpt lat="44.3187" lon="6.68379">
        <ele>1630.1999511719</ele>
        <time>2020-08-13T12:59:35.000Z</time>
      </trkpt>
      <trkpt lat="44.31869" lon="6.6839">
        <ele>1630.5999755859</ele>
        <time>2020-08-13T12:59:38.000Z</time>
      </trkpt>
      <trkpt lat="44.31864" lon="6.68419">
        <ele>1631.8000488281</ele>
        <time>2020-08-13T12:59:45.000Z</time>
      </trkpt>
      <trkpt lat="44.31863" lon="6.68423">
        <ele>1632</ele>
        <time>2020-08-13T12:59:46.000Z</time>
      </trkpt>
      <trkpt lat="44.31865" lon="6.68453">
        <ele>1632.5999755859</ele>
        <time>2020-08-13T12:59:52.000Z</time>
      </trkpt>
      <trkpt lat="44.31867" lon="6.68468">
        <ele>1632.8000488281</ele>
        <time>2020-08-13T12:59:55.000Z</time>
      </trkpt>
      <trkpt lat="44.31866" lon="6.68487">
        <ele>1633.1999511719</ele>
        <time>2020-08-13T12:59:59.000Z</time>
      </trkpt>
      <trkpt lat="44.31863" lon="6.68525">
        <ele>1633.8000488281</ele>
        <time>2020-08-13T13:00:06.000Z</time>
      </trkpt>
      <trkpt lat="44.31858" lon="6.68558">
        <ele>1634</ele>
        <time>2020-08-13T13:00:12.000Z</time>
      </trkpt>
      <trkpt lat="44.31855" lon="6.68575">
        <ele>1634.4000244141</ele>
        <time>2020-08-13T13:00:15.000Z</time>
      </trkpt>
      <trkpt lat="44.31852" lon="6.6861">
        <ele>1635</ele>
        <time>2020-08-13T13:00:21.000Z</time>
      </trkpt>
      <trkpt lat="44.31852" lon="6.68621">
        <ele>1635.1999511719</ele>
        <time>2020-08-13T13:00:23.000Z</time>
      </trkpt>
      <trkpt lat="44.31857" lon="6.68646">
        <ele>1635.5999755859</ele>
        <time>2020-08-13T13:00:27.000Z</time>
      </trkpt>
      <trkpt lat="44.31861" lon="6.68664">
        <ele>1635.5999755859</ele>
        <time>2020-08-13T13:00:30.000Z</time>
      </trkpt>
      <trkpt lat="44.31871" lon="6.68692">
        <ele>1635.8000488281</ele>
        <time>2020-08-13T13:00:35.000Z</time>
      </trkpt>
      <trkpt lat="44.31879" lon="6.68707">
        <ele>1635.8000488281</ele>
        <time>2020-08-13T13:00:38.000Z</time>
      </trkpt>
      <trkpt lat="44.31889" lon="6.68722">
        <ele>1635.8000488281</ele>
        <time>2020-08-13T13:00:41.000Z</time>
      </trkpt>
      <trkpt lat="44.31894" lon="6.68733">
        <ele>1636</ele>
        <time>2020-08-13T13:00:43.000Z</time>
      </trkpt>
      <trkpt lat="44.31899" lon="6.68743">
        <ele>1636</ele>
        <time>2020-08-13T13:00:45.000Z</time>
      </trkpt>
      <trkpt lat="44.31906" lon="6.68759">
        <ele>1635.8000488281</ele>
        <time>2020-08-13T13:00:48.000Z</time>
      </trkpt>
      <trkpt lat="44.31909" lon="6.68772">
        <ele>1635.8000488281</ele>
        <time>2020-08-13T13:00:50.000Z</time>
      </trkpt>
      <trkpt lat="44.31919" lon="6.68807">
        <ele>1636.1999511719</ele>
        <time>2020-08-13T13:00:56.000Z</time>
      </trkpt>
      <trkpt lat="44.31923" lon="6.68823">
        <ele>1636</ele>
        <time>2020-08-13T13:00:59.000Z</time>
      </trkpt>
      <trkpt lat="44.3193" lon="6.68849">
        <ele>1635.8000488281</ele>
        <time>2020-08-13T13:01:04.000Z</time>
      </trkpt>
      <trkpt lat="44.31943" lon="6.68881">
        <ele>1636</ele>
        <time>2020-08-13T13:01:10.000Z</time>
      </trkpt>
      <trkpt lat="44.31945" lon="6.68901">
        <ele>1636</ele>
        <time>2020-08-13T13:01:13.000Z</time>
      </trkpt>
      <trkpt lat="44.31944" lon="6.68914">
        <ele>1636</ele>
        <time>2020-08-13T13:01:15.000Z</time>
      </trkpt>
      <trkpt lat="44.31942" lon="6.68936">
        <ele>1636</ele>
        <time>2020-08-13T13:01:18.000Z</time>
      </trkpt>
      <trkpt lat="44.31938" lon="6.68958">
        <ele>1636.1999511719</ele>
        <time>2020-08-13T13:01:21.000Z</time>
      </trkpt>
      <trkpt lat="44.31922" lon="6.6903">
        <ele>1636.8000488281</ele>
        <time>2020-08-13T13:01:31.000Z</time>
      </trkpt>
      <trkpt lat="44.31919" lon="6.69058">
        <ele>1637</ele>
        <time>2020-08-13T13:01:35.000Z</time>
      </trkpt>
      <trkpt lat="44.31916" lon="6.69072">
        <ele>1637.1999511719</ele>
        <time>2020-08-13T13:01:37.000Z</time>
      </trkpt>
      <trkpt lat="44.31908" lon="6.69088">
        <ele>1637.5999755859</ele>
        <time>2020-08-13T13:01:40.000Z</time>
      </trkpt>
      <trkpt lat="44.31904" lon="6.69092">
        <ele>1637.8000488281</ele>
        <time>2020-08-13T13:01:41.000Z</time>
      </trkpt>
      <trkpt lat="44.31898" lon="6.69099">
        <ele>1638</ele>
        <time>2020-08-13T13:01:43.000Z</time>
      </trkpt>
      <trkpt lat="44.31891" lon="6.69109">
        <ele>1638.4000244141</ele>
        <time>2020-08-13T13:01:45.000Z</time>
      </trkpt>
      <trkpt lat="44.31888" lon="6.69121">
        <ele>1638.5999755859</ele>
        <time>2020-08-13T13:01:47.000Z</time>
      </trkpt>
      <trkpt lat="44.31883" lon="6.69147">
        <ele>1638.5999755859</ele>
        <time>2020-08-13T13:01:51.000Z</time>
      </trkpt>
      <trkpt lat="44.31882" lon="6.6916">
        <ele>1638.8000488281</ele>
        <time>2020-08-13T13:01:53.000Z</time>
      </trkpt>
      <trkpt lat="44.31878" lon="6.69212">
        <ele>1638.5999755859</ele>
        <time>2020-08-13T13:02:01.000Z</time>
      </trkpt>
      <trkpt lat="44.31879" lon="6.6925">
        <ele>1638.8000488281</ele>
        <time>2020-08-13T13:02:08.000Z</time>
      </trkpt>
      <trkpt lat="44.31879" lon="6.6926">
        <ele>1639.1999511719</ele>
        <time>2020-08-13T13:02:11.000Z</time>
      </trkpt>
      <trkpt lat="44.3188" lon="6.69262">
        <ele>1639.4000244141</ele>
        <time>2020-08-13T13:02:13.000Z</time>
      </trkpt>
      <trkpt lat="44.3188" lon="6.69263">
        <ele>1639.5999755859</ele>
        <time>2020-08-13T13:02:18.000Z</time>
      </trkpt>
      <trkpt lat="44.31879" lon="6.69262">
        <ele>1640</ele>
        <time>2020-08-13T13:02:26.000Z</time>
      </trkpt>
      <trkpt lat="44.31879" lon="6.69262">
        <ele>1639.8000488281</ele>
        <time>2020-08-13T13:02:36.000Z</time>
      </trkpt>
      <trkpt lat="44.3188" lon="6.69263">
        <ele>1640</ele>
        <time>2020-08-13T13:02:46.000Z</time>
      </trkpt>
      <trkpt lat="44.3188" lon="6.69263">
        <ele>1640.1999511719</ele>
        <time>2020-08-13T13:02:48.000Z</time>
      </trkpt>
      <trkpt lat="44.3188" lon="6.69263">
        <ele>1639.8000488281</ele>
        <time>2020-08-13T13:02:54.000Z</time>
      </trkpt>
      <trkpt lat="44.31879" lon="6.69263">
        <ele>1639.8000488281</ele>
        <time>2020-08-13T13:03:01.000Z</time>
      </trkpt>
      <trkpt lat="44.3188" lon="6.69263">
        <ele>1639.8000488281</ele>
        <time>2020-08-13T13:03:10.000Z</time>
      </trkpt>
      <trkpt lat="44.3188" lon="6.69263">
        <ele>1639.8000488281</ele>
        <time>2020-08-13T13:03:17.000Z</time>
      </trkpt>
      <trkpt lat="44.3188" lon="6.69262">
        <ele>1639.8000488281</ele>
        <time>2020-08-13T13:03:24.000Z</time>
      </trkpt>
      <trkpt lat="44.31878" lon="6.69262">
        <ele>1639.8000488281</ele>
        <time>2020-08-13T13:03:31.000Z</time>
      </trkpt>
      <trkpt lat="44.31879" lon="6.69264">
        <ele>1639.8000488281</ele>
        <time>2020-08-13T13:03:39.000Z</time>
      </trkpt>
      <trkpt lat="44.31881" lon="6.69265">
        <ele>1639.8000488281</ele>
        <time>2020-08-13T13:03:47.000Z</time>
      </trkpt>
      <trkpt lat="44.31883" lon="6.69271">
        <ele>1639.5999755859</ele>
        <time>2020-08-13T13:03:53.000Z</time>
      </trkpt>
      <trkpt lat="44.31887" lon="6.69288">
        <ele>1639.5999755859</ele>
        <time>2020-08-13T13:04:00.000Z</time>
      </trkpt>
      <trkpt lat="44.31897" lon="6.69309">
        <ele>1640.5999755859</ele>
        <time>2020-08-13T13:04:07.000Z</time>
      </trkpt>
      <trkpt lat="44.31906" lon="6.69324">
        <ele>1641.1999511719</ele>
        <time>2020-08-13T13:04:12.000Z</time>
      </trkpt>
      <trkpt lat="44.31909" lon="6.69327">
        <ele>1641.4000244141</ele>
        <time>2020-08-13T13:04:13.000Z</time>
      </trkpt>
      <trkpt lat="44.31919" lon="6.69342">
        <ele>1641.5999755859</ele>
        <time>2020-08-13T13:04:18.000Z</time>
      </trkpt>
      <trkpt lat="44.31928" lon="6.69369">
        <ele>1642.1999511719</ele>
        <time>2020-08-13T13:04:25.000Z</time>
      </trkpt>
      <trkpt lat="44.31931" lon="6.69394">
        <ele>1643.1999511719</ele>
        <time>2020-08-13T13:04:31.000Z</time>
      </trkpt>
      <trkpt lat="44.31933" lon="6.69402">
        <ele>1643.4000244141</ele>
        <time>2020-08-13T13:04:33.000Z</time>
      </trkpt>
      <trkpt lat="44.31938" lon="6.69426">
        <ele>1644.1999511719</ele>
        <time>2020-08-13T13:04:39.000Z</time>
      </trkpt>
      <trkpt lat="44.31942" lon="6.69438">
        <ele>1644.5999755859</ele>
        <time>2020-08-13T13:04:42.000Z</time>
      </trkpt>
      <trkpt lat="44.31954" lon="6.69469">
        <ele>1645.4000244141</ele>
        <time>2020-08-13T13:04:50.000Z</time>
      </trkpt>
      <trkpt lat="44.3197" lon="6.69497">
        <ele>1646.4000244141</ele>
        <time>2020-08-13T13:04:58.000Z</time>
      </trkpt>
      <trkpt lat="44.31973" lon="6.695">
        <ele>1646.5999755859</ele>
        <time>2020-08-13T13:04:59.000Z</time>
      </trkpt>
      <trkpt lat="44.31988" lon="6.69515">
        <ele>1647.5999755859</ele>
        <time>2020-08-13T13:05:05.000Z</time>
      </trkpt>
      <trkpt lat="44.31993" lon="6.69519">
        <ele>1647.8000488281</ele>
        <time>2020-08-13T13:05:07.000Z</time>
      </trkpt>
      <trkpt lat="44.32008" lon="6.69535">
        <ele>1648.8000488281</ele>
        <time>2020-08-13T13:05:13.000Z</time>
      </trkpt>
      <trkpt lat="44.32016" lon="6.69542">
        <ele>1649.1999511719</ele>
        <time>2020-08-13T13:05:16.000Z</time>
      </trkpt>
      <trkpt lat="44.32025" lon="6.69552">
        <ele>1649.8000488281</ele>
        <time>2020-08-13T13:05:20.000Z</time>
      </trkpt>
      <trkpt lat="44.3204" lon="6.69568">
        <ele>1650.8000488281</ele>
        <time>2020-08-13T13:05:26.000Z</time>
      </trkpt>
      <trkpt lat="44.32049" lon="6.69589">
        <ele>1651.8000488281</ele>
        <time>2020-08-13T13:05:32.000Z</time>
      </trkpt>
      <trkpt lat="44.32051" lon="6.69597">
        <ele>1651.8000488281</ele>
        <time>2020-08-13T13:05:34.000Z</time>
      </trkpt>
      <trkpt lat="44.32056" lon="6.69625">
        <ele>1652.8000488281</ele>
        <time>2020-08-13T13:05:41.000Z</time>
      </trkpt>
      <trkpt lat="44.32056" lon="6.69628">
        <ele>1653</ele>
        <time>2020-08-13T13:05:42.000Z</time>
      </trkpt>
      <trkpt lat="44.32063" lon="6.69657">
        <ele>1654</ele>
        <time>2020-08-13T13:05:51.000Z</time>
      </trkpt>
      <trkpt lat="44.32063" lon="6.69657">
        <ele>1654.1999511719</ele>
        <time>2020-08-13T13:05:52.000Z</time>
      </trkpt>
      <trkpt lat="44.32063" lon="6.69657">
        <ele>1654.5999755859</ele>
        <time>2020-08-13T13:05:57.000Z</time>
      </trkpt>
      <trkpt lat="44.32062" lon="6.69657">
        <ele>1654.1999511719</ele>
        <time>2020-08-13T13:06:03.000Z</time>
      </trkpt>
      <trkpt lat="44.32062" lon="6.69656">
        <ele>1654.4000244141</ele>
        <time>2020-08-13T13:06:09.000Z</time>
      </trkpt>
      <trkpt lat="44.32062" lon="6.69656">
        <ele>1653.8000488281</ele>
        <time>2020-08-13T13:06:18.000Z</time>
      </trkpt>
      <trkpt lat="44.32063" lon="6.69656">
        <ele>1654</ele>
        <time>2020-08-13T13:06:28.000Z</time>
      </trkpt>
      <trkpt lat="44.32064" lon="6.69657">
        <ele>1653</ele>
        <time>2020-08-13T13:06:43.000Z</time>
      </trkpt>
      <trkpt lat="44.32064" lon="6.69657">
        <ele>1653</ele>
        <time>2020-08-13T13:06:44.000Z</time>
      </trkpt>
      <trkpt lat="44.32064" lon="6.69658">
        <ele>1654</ele>
        <time>2020-08-13T13:06:48.000Z</time>
      </trkpt>
      <trkpt lat="44.32064" lon="6.69657">
        <ele>1653.8000488281</ele>
        <time>2020-08-13T13:06:56.000Z</time>
      </trkpt>
      <trkpt lat="44.32065" lon="6.69657">
        <ele>1653.4000244141</ele>
        <time>2020-08-13T13:07:05.000Z</time>
      </trkpt>
      <trkpt lat="44.32065" lon="6.69657">
        <ele>1653.4000244141</ele>
        <time>2020-08-13T13:07:14.000Z</time>
      </trkpt>
      <trkpt lat="44.32065" lon="6.69657">
        <ele>1654</ele>
        <time>2020-08-13T13:07:27.000Z</time>
      </trkpt>
      <trkpt lat="44.32066" lon="6.69657">
        <ele>1653.4000244141</ele>
        <time>2020-08-13T13:07:34.000Z</time>
      </trkpt>
      <trkpt lat="44.32068" lon="6.69663">
        <ele>1653.8000488281</ele>
        <time>2020-08-13T13:07:39.000Z</time>
      </trkpt>
      <trkpt lat="44.32079" lon="6.69676">
        <ele>1654.4000244141</ele>
        <time>2020-08-13T13:07:45.000Z</time>
      </trkpt>
      <trkpt lat="44.32093" lon="6.69693">
        <ele>1655.1999511719</ele>
        <time>2020-08-13T13:07:52.000Z</time>
      </trkpt>
      <trkpt lat="44.32095" lon="6.69696">
        <ele>1655.1999511719</ele>
        <time>2020-08-13T13:07:53.000Z</time>
      </trkpt>
      <trkpt lat="44.32105" lon="6.69716">
        <ele>1656.1999511719</ele>
        <time>2020-08-13T13:07:59.000Z</time>
      </trkpt>
      <trkpt lat="44.32106" lon="6.6972">
        <ele>1656.1999511719</ele>
        <time>2020-08-13T13:08:00.000Z</time>
      </trkpt>
      <trkpt lat="44.32114" lon="6.69754">
        <ele>1657.1999511719</ele>
        <time>2020-08-13T13:08:08.000Z</time>
      </trkpt>
      <trkpt lat="44.32117" lon="6.69767">
        <ele>1657.8000488281</ele>
        <time>2020-08-13T13:08:11.000Z</time>
      </trkpt>
      <trkpt lat="44.3212" lon="6.6979">
        <ele>1658.4000244141</ele>
        <time>2020-08-13T13:08:16.000Z</time>
      </trkpt>
      <trkpt lat="44.32123" lon="6.69809">
        <ele>1658.5999755859</ele>
        <time>2020-08-13T13:08:20.000Z</time>
      </trkpt>
      <trkpt lat="44.32128" lon="6.69837">
        <ele>1659.4000244141</ele>
        <time>2020-08-13T13:08:26.000Z</time>
      </trkpt>
      <trkpt lat="44.32132" lon="6.6986">
        <ele>1660.1999511719</ele>
        <time>2020-08-13T13:08:31.000Z</time>
      </trkpt>
      <trkpt lat="44.32134" lon="6.69869">
        <ele>1660.4000244141</ele>
        <time>2020-08-13T13:08:33.000Z</time>
      </trkpt>
      <trkpt lat="44.32142" lon="6.69906">
        <ele>1661.4000244141</ele>
        <time>2020-08-13T13:08:41.000Z</time>
      </trkpt>
      <trkpt lat="44.3215" lon="6.6994">
        <ele>1662.5999755859</ele>
        <time>2020-08-13T13:08:48.000Z</time>
      </trkpt>
      <trkpt lat="44.32154" lon="6.69966">
        <ele>1663.5999755859</ele>
        <time>2020-08-13T13:08:53.000Z</time>
      </trkpt>
      <trkpt lat="44.32155" lon="6.69972">
        <ele>1663.5999755859</ele>
        <time>2020-08-13T13:08:54.000Z</time>
      </trkpt>
      <trkpt lat="44.3216" lon="6.70001">
        <ele>1664.1999511719</ele>
        <time>2020-08-13T13:09:00.000Z</time>
      </trkpt>
      <trkpt lat="44.32169" lon="6.70031">
        <ele>1664.5999755859</ele>
        <time>2020-08-13T13:09:06.000Z</time>
      </trkpt>
      <trkpt lat="44.3217" lon="6.70036">
        <ele>1664.8000488281</ele>
        <time>2020-08-13T13:09:07.000Z</time>
      </trkpt>
      <trkpt lat="44.32175" lon="6.70071">
        <ele>1665.8000488281</ele>
        <time>2020-08-13T13:09:14.000Z</time>
      </trkpt>
      <trkpt lat="44.32186" lon="6.70111">
        <ele>1666.8000488281</ele>
        <time>2020-08-13T13:09:23.000Z</time>
      </trkpt>
      <trkpt lat="44.32192" lon="6.70137">
        <ele>1667.8000488281</ele>
        <time>2020-08-13T13:09:29.000Z</time>
      </trkpt>
      <trkpt lat="44.32196" lon="6.70154">
        <ele>1668.4000244141</ele>
        <time>2020-08-13T13:09:33.000Z</time>
      </trkpt>
      <trkpt lat="44.32198" lon="6.70167">
        <ele>1669</ele>
        <time>2020-08-13T13:09:36.000Z</time>
      </trkpt>
      <trkpt lat="44.32201" lon="6.70193">
        <ele>1670</ele>
        <time>2020-08-13T13:09:42.000Z</time>
      </trkpt>
      <trkpt lat="44.32201" lon="6.70197">
        <ele>1670.1999511719</ele>
        <time>2020-08-13T13:09:43.000Z</time>
      </trkpt>
      <trkpt lat="44.32203" lon="6.70224">
        <ele>1671.1999511719</ele>
        <time>2020-08-13T13:09:49.000Z</time>
      </trkpt>
      <trkpt lat="44.32203" lon="6.70241">
        <ele>1672</ele>
        <time>2020-08-13T13:09:53.000Z</time>
      </trkpt>
      <trkpt lat="44.32204" lon="6.7025">
        <ele>1672.4000244141</ele>
        <time>2020-08-13T13:09:55.000Z</time>
      </trkpt>
      <trkpt lat="44.32204" lon="6.70285">
        <ele>1673.5999755859</ele>
        <time>2020-08-13T13:10:03.000Z</time>
      </trkpt>
      <trkpt lat="44.32203" lon="6.70288">
        <ele>1673.8000488281</ele>
        <time>2020-08-13T13:10:04.000Z</time>
      </trkpt>
      <trkpt lat="44.32198" lon="6.70309">
        <ele>1674.5999755859</ele>
        <time>2020-08-13T13:10:09.000Z</time>
      </trkpt>
      <trkpt lat="44.32196" lon="6.70321">
        <ele>1675</ele>
        <time>2020-08-13T13:10:12.000Z</time>
      </trkpt>
      <trkpt lat="44.32192" lon="6.7034">
        <ele>1675.8000488281</ele>
        <time>2020-08-13T13:10:17.000Z</time>
      </trkpt>
      <trkpt lat="44.3219" lon="6.70351">
        <ele>1676.4000244141</ele>
        <time>2020-08-13T13:10:20.000Z</time>
      </trkpt>
      <trkpt lat="44.32188" lon="6.70362">
        <ele>1676.8000488281</ele>
        <time>2020-08-13T13:10:23.000Z</time>
      </trkpt>
      <trkpt lat="44.32183" lon="6.70374">
        <ele>1677.5999755859</ele>
        <time>2020-08-13T13:10:27.000Z</time>
      </trkpt>
      <trkpt lat="44.32179" lon="6.7038">
        <ele>1678</ele>
        <time>2020-08-13T13:10:29.000Z</time>
      </trkpt>
      <trkpt lat="44.32169" lon="6.70386">
        <ele>1678.5999755859</ele>
        <time>2020-08-13T13:10:33.000Z</time>
      </trkpt>
      <trkpt lat="44.32161" lon="6.70389">
        <ele>1679.1999511719</ele>
        <time>2020-08-13T13:10:36.000Z</time>
      </trkpt>
      <trkpt lat="44.3215" lon="6.70398">
        <ele>1680.1999511719</ele>
        <time>2020-08-13T13:10:41.000Z</time>
      </trkpt>
      <trkpt lat="44.32149" lon="6.70401">
        <ele>1680.4000244141</ele>
        <time>2020-08-13T13:10:42.000Z</time>
      </trkpt>
      <trkpt lat="44.32143" lon="6.70416">
        <ele>1681.4000244141</ele>
        <time>2020-08-13T13:10:47.000Z</time>
      </trkpt>
      <trkpt lat="44.32142" lon="6.70419">
        <ele>1681.5999755859</ele>
        <time>2020-08-13T13:10:48.000Z</time>
      </trkpt>
      <trkpt lat="44.32139" lon="6.70441">
        <ele>1682.4000244141</ele>
        <time>2020-08-13T13:10:54.000Z</time>
      </trkpt>
      <trkpt lat="44.32137" lon="6.70451">
        <ele>1683</ele>
        <time>2020-08-13T13:10:57.000Z</time>
      </trkpt>
      <trkpt lat="44.32135" lon="6.70461">
        <ele>1683.5999755859</ele>
        <time>2020-08-13T13:11:00.000Z</time>
      </trkpt>
      <trkpt lat="44.32133" lon="6.70478">
        <ele>1684.5999755859</ele>
        <time>2020-08-13T13:11:05.000Z</time>
      </trkpt>
      <trkpt lat="44.32133" lon="6.70492">
        <ele>1685.5999755859</ele>
        <time>2020-08-13T13:11:09.000Z</time>
      </trkpt>
      <trkpt lat="44.32133" lon="6.70495">
        <ele>1685.5999755859</ele>
        <time>2020-08-13T13:11:10.000Z</time>
      </trkpt>
      <trkpt lat="44.32135" lon="6.70512">
        <ele>1686.8000488281</ele>
        <time>2020-08-13T13:11:15.000Z</time>
      </trkpt>
      <trkpt lat="44.32137" lon="6.70526">
        <ele>1687.4000244141</ele>
        <time>2020-08-13T13:11:19.000Z</time>
      </trkpt>
      <trkpt lat="44.32137" lon="6.70539">
        <ele>1687.8000488281</ele>
        <time>2020-08-13T13:11:23.000Z</time>
      </trkpt>
      <trkpt lat="44.32136" lon="6.70555">
        <ele>1688.5999755859</ele>
        <time>2020-08-13T13:11:28.000Z</time>
      </trkpt>
      <trkpt lat="44.32136" lon="6.70559">
        <ele>1689</ele>
        <time>2020-08-13T13:11:29.000Z</time>
      </trkpt>
      <trkpt lat="44.32136" lon="6.70575">
        <ele>1690</ele>
        <time>2020-08-13T13:11:34.000Z</time>
      </trkpt>
      <trkpt lat="44.32136" lon="6.70581">
        <ele>1690.4000244141</ele>
        <time>2020-08-13T13:11:36.000Z</time>
      </trkpt>
      <trkpt lat="44.32135" lon="6.70594">
        <ele>1691</ele>
        <time>2020-08-13T13:11:40.000Z</time>
      </trkpt>
      <trkpt lat="44.32134" lon="6.7061">
        <ele>1691.8000488281</ele>
        <time>2020-08-13T13:11:45.000Z</time>
      </trkpt>
      <trkpt lat="44.32134" lon="6.70613">
        <ele>1692</ele>
        <time>2020-08-13T13:11:46.000Z</time>
      </trkpt>
      <trkpt lat="44.32132" lon="6.70632">
        <ele>1693</ele>
        <time>2020-08-13T13:11:52.000Z</time>
      </trkpt>
      <trkpt lat="44.32132" lon="6.70638">
        <ele>1693.4000244141</ele>
        <time>2020-08-13T13:11:54.000Z</time>
      </trkpt>
      <trkpt lat="44.32131" lon="6.70651">
        <ele>1694.1999511719</ele>
        <time>2020-08-13T13:11:58.000Z</time>
      </trkpt>
      <trkpt lat="44.32131" lon="6.70669">
        <ele>1695.1999511719</ele>
        <time>2020-08-13T13:12:04.000Z</time>
      </trkpt>
      <trkpt lat="44.32131" lon="6.70672">
        <ele>1695.4000244141</ele>
        <time>2020-08-13T13:12:05.000Z</time>
      </trkpt>
      <trkpt lat="44.32131" lon="6.70685">
        <ele>1696.1999511719</ele>
        <time>2020-08-13T13:12:09.000Z</time>
      </trkpt>
      <trkpt lat="44.32131" lon="6.70703">
        <ele>1697.1999511719</ele>
        <time>2020-08-13T13:12:15.000Z</time>
      </trkpt>
      <trkpt lat="44.32131" lon="6.70706">
        <ele>1697.4000244141</ele>
        <time>2020-08-13T13:12:16.000Z</time>
      </trkpt>
      <trkpt lat="44.32132" lon="6.70727">
        <ele>1698.4000244141</ele>
        <time>2020-08-13T13:12:23.000Z</time>
      </trkpt>
      <trkpt lat="44.32131" lon="6.70734">
        <ele>1698.8000488281</ele>
        <time>2020-08-13T13:12:25.000Z</time>
      </trkpt>
      <trkpt lat="44.32133" lon="6.70745">
        <ele>1699.5999755859</ele>
        <time>2020-08-13T13:12:29.000Z</time>
      </trkpt>
      <trkpt lat="44.32137" lon="6.70763">
        <ele>1700.5999755859</ele>
        <time>2020-08-13T13:12:35.000Z</time>
      </trkpt>
      <trkpt lat="44.32138" lon="6.70766">
        <ele>1700.8000488281</ele>
        <time>2020-08-13T13:12:36.000Z</time>
      </trkpt>
      <trkpt lat="44.32148" lon="6.70787">
        <ele>1702</ele>
        <time>2020-08-13T13:12:44.000Z</time>
      </trkpt>
      <trkpt lat="44.32154" lon="6.70804">
        <ele>1703</ele>
        <time>2020-08-13T13:12:50.000Z</time>
      </trkpt>
      <trkpt lat="44.32156" lon="6.70813">
        <ele>1703.4000244141</ele>
        <time>2020-08-13T13:12:53.000Z</time>
      </trkpt>
      <trkpt lat="44.32158" lon="6.70826">
        <ele>1704</ele>
        <time>2020-08-13T13:12:57.000Z</time>
      </trkpt>
      <trkpt lat="44.32159" lon="6.70837">
        <ele>1704.4000244141</ele>
        <time>2020-08-13T13:13:00.000Z</time>
      </trkpt>
      <trkpt lat="44.3216" lon="6.70865">
        <ele>1705</ele>
        <time>2020-08-13T13:13:07.000Z</time>
      </trkpt>
      <trkpt lat="44.32167" lon="6.7088">
        <ele>1706</ele>
        <time>2020-08-13T13:13:12.000Z</time>
      </trkpt>
      <trkpt lat="44.32169" lon="6.70883">
        <ele>1706.1999511719</ele>
        <time>2020-08-13T13:13:13.000Z</time>
      </trkpt>
      <trkpt lat="44.32178" lon="6.70892">
        <ele>1707.1999511719</ele>
        <time>2020-08-13T13:13:17.000Z</time>
      </trkpt>
      <trkpt lat="44.32187" lon="6.709">
        <ele>1707.8000488281</ele>
        <time>2020-08-13T13:13:21.000Z</time>
      </trkpt>
      <trkpt lat="44.32194" lon="6.70918">
        <ele>1708.4000244141</ele>
        <time>2020-08-13T13:13:26.000Z</time>
      </trkpt>
      <trkpt lat="44.32188" lon="6.7094">
        <ele>1708.8000488281</ele>
        <time>2020-08-13T13:13:31.000Z</time>
      </trkpt>
      <trkpt lat="44.32174" lon="6.70951">
        <ele>1708.8000488281</ele>
        <time>2020-08-13T13:13:35.000Z</time>
      </trkpt>
      <trkpt lat="44.32154" lon="6.70966">
        <ele>1709</ele>
        <time>2020-08-13T13:13:41.000Z</time>
      </trkpt>
      <trkpt lat="44.32151" lon="6.70971">
        <ele>1709</ele>
        <time>2020-08-13T13:13:42.000Z</time>
      </trkpt>
      <trkpt lat="44.32143" lon="6.70997">
        <ele>1708.8000488281</ele>
        <time>2020-08-13T13:13:47.000Z</time>
      </trkpt>
      <trkpt lat="44.32142" lon="6.71011">
        <ele>1708.5999755859</ele>
        <time>2020-08-13T13:13:49.000Z</time>
      </trkpt>
      <trkpt lat="44.32139" lon="6.71045">
        <ele>1708.4000244141</ele>
        <time>2020-08-13T13:13:53.000Z</time>
      </trkpt>
      <trkpt lat="44.32129" lon="6.71077">
        <ele>1708.5999755859</ele>
        <time>2020-08-13T13:13:58.000Z</time>
      </trkpt>
      <trkpt lat="44.32121" lon="6.71096">
        <ele>1708.8000488281</ele>
        <time>2020-08-13T13:14:01.000Z</time>
      </trkpt>
      <trkpt lat="44.32109" lon="6.71119">
        <ele>1709.1999511719</ele>
        <time>2020-08-13T13:14:05.000Z</time>
      </trkpt>
      <trkpt lat="44.32107" lon="6.71126">
        <ele>1709.1999511719</ele>
        <time>2020-08-13T13:14:06.000Z</time>
      </trkpt>
      <trkpt lat="44.32106" lon="6.71154">
        <ele>1709</ele>
        <time>2020-08-13T13:14:10.000Z</time>
      </trkpt>
      <trkpt lat="44.32106" lon="6.71161">
        <ele>1709</ele>
        <time>2020-08-13T13:14:11.000Z</time>
      </trkpt>
      <trkpt lat="44.32104" lon="6.71191">
        <ele>1709.1999511719</ele>
        <time>2020-08-13T13:14:15.000Z</time>
      </trkpt>
      <trkpt lat="44.32102" lon="6.71198">
        <ele>1709.1999511719</ele>
        <time>2020-08-13T13:14:16.000Z</time>
      </trkpt>
      <trkpt lat="44.32088" lon="6.71223">
        <ele>1709.1999511719</ele>
        <time>2020-08-13T13:14:20.000Z</time>
      </trkpt>
      <trkpt lat="44.3207" lon="6.71251">
        <ele>1709.4000244141</ele>
        <time>2020-08-13T13:14:25.000Z</time>
      </trkpt>
      <trkpt lat="44.32062" lon="6.71268">
        <ele>1709.8000488281</ele>
        <time>2020-08-13T13:14:28.000Z</time>
      </trkpt>
      <trkpt lat="44.3205" lon="6.71303">
        <ele>1710.4000244141</ele>
        <time>2020-08-13T13:14:34.000Z</time>
      </trkpt>
      <trkpt lat="44.32049" lon="6.71308">
        <ele>1710.5999755859</ele>
        <time>2020-08-13T13:14:35.000Z</time>
      </trkpt>
      <trkpt lat="44.32047" lon="6.71323">
        <ele>1711.5999755859</ele>
        <time>2020-08-13T13:14:38.000Z</time>
      </trkpt>
      <trkpt lat="44.32044" lon="6.71342">
        <ele>1712.8000488281</ele>
        <time>2020-08-13T13:14:42.000Z</time>
      </trkpt>
      <trkpt lat="44.32044" lon="6.71346">
        <ele>1712.8000488281</ele>
        <time>2020-08-13T13:14:43.000Z</time>
      </trkpt>
      <trkpt lat="44.32039" lon="6.71378">
        <ele>1713.8000488281</ele>
        <time>2020-08-13T13:14:50.000Z</time>
      </trkpt>
      <trkpt lat="44.32037" lon="6.71386">
        <ele>1714.1999511719</ele>
        <time>2020-08-13T13:14:52.000Z</time>
      </trkpt>
      <trkpt lat="44.32033" lon="6.71403">
        <ele>1715</ele>
        <time>2020-08-13T13:14:56.000Z</time>
      </trkpt>
      <trkpt lat="44.32023" lon="6.71428">
        <ele>1716</ele>
        <time>2020-08-13T13:15:02.000Z</time>
      </trkpt>
      <trkpt lat="44.3201" lon="6.71452">
        <ele>1717.1999511719</ele>
        <time>2020-08-13T13:15:09.000Z</time>
      </trkpt>
      <trkpt lat="44.32009" lon="6.71456">
        <ele>1717.4000244141</ele>
        <time>2020-08-13T13:15:10.000Z</time>
      </trkpt>
      <trkpt lat="44.32008" lon="6.71474">
        <ele>1718.4000244141</ele>
        <time>2020-08-13T13:15:14.000Z</time>
      </trkpt>
      <trkpt lat="44.32009" lon="6.71482">
        <ele>1718.5999755859</ele>
        <time>2020-08-13T13:15:16.000Z</time>
      </trkpt>
      <trkpt lat="44.32016" lon="6.71498">
        <ele>1719.4000244141</ele>
        <time>2020-08-13T13:15:21.000Z</time>
      </trkpt>
      <trkpt lat="44.32027" lon="6.71517">
        <ele>1720.4000244141</ele>
        <time>2020-08-13T13:15:27.000Z</time>
      </trkpt>
      <trkpt lat="44.32028" lon="6.71521">
        <ele>1720.5999755859</ele>
        <time>2020-08-13T13:15:28.000Z</time>
      </trkpt>
      <trkpt lat="44.32026" lon="6.71538">
        <ele>1721.4000244141</ele>
        <time>2020-08-13T13:15:32.000Z</time>
      </trkpt>
      <trkpt lat="44.32025" lon="6.71542">
        <ele>1721.4000244141</ele>
        <time>2020-08-13T13:15:33.000Z</time>
      </trkpt>
      <trkpt lat="44.32016" lon="6.71555">
        <ele>1722.1999511719</ele>
        <time>2020-08-13T13:15:37.000Z</time>
      </trkpt>
      <trkpt lat="44.32013" lon="6.71556">
        <ele>1722.4000244141</ele>
        <time>2020-08-13T13:15:38.000Z</time>
      </trkpt>
      <trkpt lat="44.3201" lon="6.71555">
        <ele>1722.5999755859</ele>
        <time>2020-08-13T13:15:39.000Z</time>
      </trkpt>
      <trkpt lat="44.32004" lon="6.71554">
        <ele>1722.8000488281</ele>
        <time>2020-08-13T13:15:41.000Z</time>
      </trkpt>
      <trkpt lat="44.31995" lon="6.71555">
        <ele>1723</ele>
        <time>2020-08-13T13:15:44.000Z</time>
      </trkpt>
      <trkpt lat="44.31983" lon="6.71566">
        <ele>1723.5999755859</ele>
        <time>2020-08-13T13:15:49.000Z</time>
      </trkpt>
      <trkpt lat="44.3198" lon="6.71573">
        <ele>1723.8000488281</ele>
        <time>2020-08-13T13:15:51.000Z</time>
      </trkpt>
      <trkpt lat="44.31975" lon="6.71592">
        <ele>1725</ele>
        <time>2020-08-13T13:15:56.000Z</time>
      </trkpt>
      <trkpt lat="44.31969" lon="6.71616">
        <ele>1726</ele>
        <time>2020-08-13T13:16:03.000Z</time>
      </trkpt>
      <trkpt lat="44.31966" lon="6.71625">
        <ele>1726.1999511719</ele>
        <time>2020-08-13T13:16:05.000Z</time>
      </trkpt>
      <trkpt lat="44.31956" lon="6.71648">
        <ele>1726.5999755859</ele>
        <time>2020-08-13T13:16:12.000Z</time>
      </trkpt>
      <trkpt lat="44.31951" lon="6.71657">
        <ele>1727</ele>
        <time>2020-08-13T13:16:15.000Z</time>
      </trkpt>
      <trkpt lat="44.3194" lon="6.71674">
        <ele>1728.1999511719</ele>
        <time>2020-08-13T13:16:21.000Z</time>
      </trkpt>
      <trkpt lat="44.31929" lon="6.71694">
        <ele>1729.1999511719</ele>
        <time>2020-08-13T13:16:28.000Z</time>
      </trkpt>
      <trkpt lat="44.31926" lon="6.71702">
        <ele>1729.8000488281</ele>
        <time>2020-08-13T13:16:30.000Z</time>
      </trkpt>
      <trkpt lat="44.31923" lon="6.71731">
        <ele>1729.8000488281</ele>
        <time>2020-08-13T13:16:37.000Z</time>
      </trkpt>
      <trkpt lat="44.31923" lon="6.7174">
        <ele>1730.1999511719</ele>
        <time>2020-08-13T13:16:39.000Z</time>
      </trkpt>
      <trkpt lat="44.31924" lon="6.71767">
        <ele>1730.5999755859</ele>
        <time>2020-08-13T13:16:45.000Z</time>
      </trkpt>
      <trkpt lat="44.31927" lon="6.71799">
        <ele>1731.4000244141</ele>
        <time>2020-08-13T13:16:52.000Z</time>
      </trkpt>
      <trkpt lat="44.31929" lon="6.71808">
        <ele>1731.5999755859</ele>
        <time>2020-08-13T13:16:54.000Z</time>
      </trkpt>
      <trkpt lat="44.31939" lon="6.71852">
        <ele>1732.1999511719</ele>
        <time>2020-08-13T13:17:04.000Z</time>
      </trkpt>
      <trkpt lat="44.31941" lon="6.7189">
        <ele>1731.8000488281</ele>
        <time>2020-08-13T13:17:11.000Z</time>
      </trkpt>
      <trkpt lat="44.31938" lon="6.719">
        <ele>1731.5999755859</ele>
        <time>2020-08-13T13:17:13.000Z</time>
      </trkpt>
      <trkpt lat="44.31933" lon="6.71916">
        <ele>1732</ele>
        <time>2020-08-13T13:17:16.000Z</time>
      </trkpt>
      <trkpt lat="44.31931" lon="6.71927">
        <ele>1732.1999511719</ele>
        <time>2020-08-13T13:17:18.000Z</time>
      </trkpt>
      <trkpt lat="44.31931" lon="6.71945">
        <ele>1732</ele>
        <time>2020-08-13T13:17:21.000Z</time>
      </trkpt>
      <trkpt lat="44.31931" lon="6.71964">
        <ele>1732.4000244141</ele>
        <time>2020-08-13T13:17:24.000Z</time>
      </trkpt>
      <trkpt lat="44.31933" lon="6.71989">
        <ele>1731.8000488281</ele>
        <time>2020-08-13T13:17:28.000Z</time>
      </trkpt>
      <trkpt lat="44.31934" lon="6.71997">
        <ele>1731.5999755859</ele>
        <time>2020-08-13T13:17:29.000Z</time>
      </trkpt>
      <trkpt lat="44.31937" lon="6.72017">
        <ele>1731.5999755859</ele>
        <time>2020-08-13T13:17:32.000Z</time>
      </trkpt>
      <trkpt lat="44.31941" lon="6.7203">
        <ele>1731.5999755859</ele>
        <time>2020-08-13T13:17:34.000Z</time>
      </trkpt>
      <trkpt lat="44.31942" lon="6.72037">
        <ele>1731.4000244141</ele>
        <time>2020-08-13T13:17:35.000Z</time>
      </trkpt>
      <trkpt lat="44.31951" lon="6.72067">
        <ele>1730.1999511719</ele>
        <time>2020-08-13T13:17:39.000Z</time>
      </trkpt>
      <trkpt lat="44.31953" lon="6.72076">
        <ele>1730.1999511719</ele>
        <time>2020-08-13T13:17:40.000Z</time>
      </trkpt>
      <trkpt lat="44.31957" lon="6.72102">
        <ele>1729</ele>
        <time>2020-08-13T13:17:43.000Z</time>
      </trkpt>
      <trkpt lat="44.31957" lon="6.7212">
        <ele>1728.4000244141</ele>
        <time>2020-08-13T13:17:45.000Z</time>
      </trkpt>
      <trkpt lat="44.31955" lon="6.72147">
        <ele>1727.8000488281</ele>
        <time>2020-08-13T13:17:48.000Z</time>
      </trkpt>
      <trkpt lat="44.31952" lon="6.72193">
        <ele>1727</ele>
        <time>2020-08-13T13:17:53.000Z</time>
      </trkpt>
      <trkpt lat="44.31951" lon="6.72203">
        <ele>1726.8000488281</ele>
        <time>2020-08-13T13:17:54.000Z</time>
      </trkpt>
      <trkpt lat="44.31942" lon="6.72275">
        <ele>1726.5999755859</ele>
        <time>2020-08-13T13:18:02.000Z</time>
      </trkpt>
      <trkpt lat="44.31935" lon="6.72299">
        <ele>1725.5999755859</ele>
        <time>2020-08-13T13:18:05.000Z</time>
      </trkpt>
      <trkpt lat="44.3193" lon="6.72305">
        <ele>1725.5999755859</ele>
        <time>2020-08-13T13:18:06.000Z</time>
      </trkpt>
      <trkpt lat="44.31919" lon="6.72314">
        <ele>1725.1999511719</ele>
        <time>2020-08-13T13:18:08.000Z</time>
      </trkpt>
      <trkpt lat="44.31904" lon="6.72324">
        <ele>1724.8000488281</ele>
        <time>2020-08-13T13:18:11.000Z</time>
      </trkpt>
      <trkpt lat="44.31894" lon="6.72332">
        <ele>1724.8000488281</ele>
        <time>2020-08-13T13:18:13.000Z</time>
      </trkpt>
      <trkpt lat="44.31883" lon="6.72347">
        <ele>1725</ele>
        <time>2020-08-13T13:18:16.000Z</time>
      </trkpt>
      <trkpt lat="44.3188" lon="6.72353">
        <ele>1725</ele>
        <time>2020-08-13T13:18:17.000Z</time>
      </trkpt>
      <trkpt lat="44.31878" lon="6.72359">
        <ele>1725.1999511719</ele>
        <time>2020-08-13T13:18:18.000Z</time>
      </trkpt>
      <trkpt lat="44.31871" lon="6.72384">
        <ele>1725.5999755859</ele>
        <time>2020-08-13T13:18:22.000Z</time>
      </trkpt>
      <trkpt lat="44.31865" lon="6.72436">
        <ele>1726.8000488281</ele>
        <time>2020-08-13T13:18:30.000Z</time>
      </trkpt>
      <trkpt lat="44.3186" lon="6.7246">
        <ele>1727.4000244141</ele>
        <time>2020-08-13T13:18:34.000Z</time>
      </trkpt>
      <trkpt lat="44.3185" lon="6.72504">
        <ele>1728</ele>
        <time>2020-08-13T13:18:42.000Z</time>
      </trkpt>
      <trkpt lat="44.31848" lon="6.72509">
        <ele>1728</ele>
        <time>2020-08-13T13:18:43.000Z</time>
      </trkpt>
      <trkpt lat="44.31834" lon="6.72544">
        <ele>1729</ele>
        <time>2020-08-13T13:18:50.000Z</time>
      </trkpt>
      <trkpt lat="44.31829" lon="6.72559">
        <ele>1729.4000244141</ele>
        <time>2020-08-13T13:18:53.000Z</time>
      </trkpt>
      <trkpt lat="44.31825" lon="6.72569">
        <ele>1730</ele>
        <time>2020-08-13T13:18:55.000Z</time>
      </trkpt>
      <trkpt lat="44.31813" lon="6.72606">
        <ele>1730.4000244141</ele>
        <time>2020-08-13T13:19:02.000Z</time>
      </trkpt>
      <trkpt lat="44.31808" lon="6.72626">
        <ele>1731.1999511719</ele>
        <time>2020-08-13T13:19:06.000Z</time>
      </trkpt>
      <trkpt lat="44.31804" lon="6.72643">
        <ele>1731.5999755859</ele>
        <time>2020-08-13T13:19:09.000Z</time>
      </trkpt>
      <trkpt lat="44.318" lon="6.7266">
        <ele>1732.4000244141</ele>
        <time>2020-08-13T13:19:12.000Z</time>
      </trkpt>
      <trkpt lat="44.31793" lon="6.72697">
        <ele>1733.4000244141</ele>
        <time>2020-08-13T13:19:19.000Z</time>
      </trkpt>
      <trkpt lat="44.31792" lon="6.72703">
        <ele>1733.8000488281</ele>
        <time>2020-08-13T13:19:20.000Z</time>
      </trkpt>
      <trkpt lat="44.31787" lon="6.72744">
        <ele>1734.4000244141</ele>
        <time>2020-08-13T13:19:27.000Z</time>
      </trkpt>
      <trkpt lat="44.3178" lon="6.72779">
        <ele>1735.5999755859</ele>
        <time>2020-08-13T13:19:33.000Z</time>
      </trkpt>
      <trkpt lat="44.31771" lon="6.72808">
        <ele>1736.4000244141</ele>
        <time>2020-08-13T13:19:38.000Z</time>
      </trkpt>
      <trkpt lat="44.31766" lon="6.72819">
        <ele>1736.5999755859</ele>
        <time>2020-08-13T13:19:40.000Z</time>
      </trkpt>
      <trkpt lat="44.31743" lon="6.72861">
        <ele>1737.8000488281</ele>
        <time>2020-08-13T13:19:48.000Z</time>
      </trkpt>
      <trkpt lat="44.31734" lon="6.72876">
        <ele>1738.1999511719</ele>
        <time>2020-08-13T13:19:51.000Z</time>
      </trkpt>
      <trkpt lat="44.31715" lon="6.72916">
        <ele>1738.5999755859</ele>
        <time>2020-08-13T13:19:58.000Z</time>
      </trkpt>
      <trkpt lat="44.3171" lon="6.72927">
        <ele>1739</ele>
        <time>2020-08-13T13:20:00.000Z</time>
      </trkpt>
      <trkpt lat="44.3169" lon="6.72956">
        <ele>1739.8000488281</ele>
        <time>2020-08-13T13:20:06.000Z</time>
      </trkpt>
      <trkpt lat="44.31687" lon="6.72961">
        <ele>1740.1999511719</ele>
        <time>2020-08-13T13:20:07.000Z</time>
      </trkpt>
      <trkpt lat="44.31666" lon="6.72989">
        <ele>1741.4000244141</ele>
        <time>2020-08-13T13:20:13.000Z</time>
      </trkpt>
      <trkpt lat="44.31644" lon="6.73017">
        <ele>1742</ele>
        <time>2020-08-13T13:20:19.000Z</time>
      </trkpt>
      <trkpt lat="44.31638" lon="6.73026">
        <ele>1742.5999755859</ele>
        <time>2020-08-13T13:20:21.000Z</time>
      </trkpt>
      <trkpt lat="44.31617" lon="6.73054">
        <ele>1743.5999755859</ele>
        <time>2020-08-13T13:20:27.000Z</time>
      </trkpt>
      <trkpt lat="44.31615" lon="6.73058">
        <ele>1743.8000488281</ele>
        <time>2020-08-13T13:20:28.000Z</time>
      </trkpt>
      <trkpt lat="44.31596" lon="6.73086">
        <ele>1744.4000244141</ele>
        <time>2020-08-13T13:20:34.000Z</time>
      </trkpt>
      <trkpt lat="44.31594" lon="6.73091">
        <ele>1744.5999755859</ele>
        <time>2020-08-13T13:20:35.000Z</time>
      </trkpt>
      <trkpt lat="44.31591" lon="6.73096">
        <ele>1744.5999755859</ele>
        <time>2020-08-13T13:20:36.000Z</time>
      </trkpt>
      <trkpt lat="44.31585" lon="6.73104">
        <ele>1745.1999511719</ele>
        <time>2020-08-13T13:20:38.000Z</time>
      </trkpt>
      <trkpt lat="44.3158" lon="6.73115">
        <ele>1745.5999755859</ele>
        <time>2020-08-13T13:20:40.000Z</time>
      </trkpt>
      <trkpt lat="44.31574" lon="6.73124">
        <ele>1745.8000488281</ele>
        <time>2020-08-13T13:20:42.000Z</time>
      </trkpt>
      <trkpt lat="44.31557" lon="6.7316">
        <ele>1746.8000488281</ele>
        <time>2020-08-13T13:20:49.000Z</time>
      </trkpt>
      <trkpt lat="44.31554" lon="6.73165">
        <ele>1747</ele>
        <time>2020-08-13T13:20:50.000Z</time>
      </trkpt>
      <trkpt lat="44.31543" lon="6.73191">
        <ele>1747.8000488281</ele>
        <time>2020-08-13T13:20:55.000Z</time>
      </trkpt>
      <trkpt lat="44.31534" lon="6.73212">
        <ele>1748</ele>
        <time>2020-08-13T13:20:59.000Z</time>
      </trkpt>
      <trkpt lat="44.31523" lon="6.73238">
        <ele>1748.8000488281</ele>
        <time>2020-08-13T13:21:04.000Z</time>
      </trkpt>
      <trkpt lat="44.31511" lon="6.73266">
        <ele>1749.1999511719</ele>
        <time>2020-08-13T13:21:09.000Z</time>
      </trkpt>
      <trkpt lat="44.315" lon="6.73286">
        <ele>1750</ele>
        <time>2020-08-13T13:21:13.000Z</time>
      </trkpt>
      <trkpt lat="44.31489" lon="6.73304">
        <ele>1750.5999755859</ele>
        <time>2020-08-13T13:21:17.000Z</time>
      </trkpt>
      <trkpt lat="44.3148" lon="6.73317">
        <ele>1751</ele>
        <time>2020-08-13T13:21:20.000Z</time>
      </trkpt>
      <trkpt lat="44.31474" lon="6.73326">
        <ele>1751.5999755859</ele>
        <time>2020-08-13T13:21:22.000Z</time>
      </trkpt>
      <trkpt lat="44.31464" lon="6.7334">
        <ele>1752</ele>
        <time>2020-08-13T13:21:25.000Z</time>
      </trkpt>
      <trkpt lat="44.31461" lon="6.73344">
        <ele>1752.1999511719</ele>
        <time>2020-08-13T13:21:26.000Z</time>
      </trkpt>
      <trkpt lat="44.31441" lon="6.73371">
        <ele>1753.1999511719</ele>
        <time>2020-08-13T13:21:32.000Z</time>
      </trkpt>
      <trkpt lat="44.31438" lon="6.73375">
        <ele>1753.4000244141</ele>
        <time>2020-08-13T13:21:33.000Z</time>
      </trkpt>
      <trkpt lat="44.31419" lon="6.73403">
        <ele>1754.4000244141</ele>
        <time>2020-08-13T13:21:39.000Z</time>
      </trkpt>
      <trkpt lat="44.31416" lon="6.73408">
        <ele>1754.4000244141</ele>
        <time>2020-08-13T13:21:40.000Z</time>
      </trkpt>
      <trkpt lat="44.31395" lon="6.73452">
        <ele>1754.8000488281</ele>
        <time>2020-08-13T13:21:47.000Z</time>
      </trkpt>
      <trkpt lat="44.31366" lon="6.73501">
        <ele>1755.1999511719</ele>
        <time>2020-08-13T13:21:55.000Z</time>
      </trkpt>
      <trkpt lat="44.31341" lon="6.73552">
        <ele>1755</ele>
        <time>2020-08-13T13:22:02.000Z</time>
      </trkpt>
      <trkpt lat="44.31315" lon="6.73609">
        <ele>1754.4000244141</ele>
        <time>2020-08-13T13:22:10.000Z</time>
      </trkpt>
      <trkpt lat="44.31311" lon="6.73617">
        <ele>1754.4000244141</ele>
        <time>2020-08-13T13:22:11.000Z</time>
      </trkpt>
      <trkpt lat="44.31285" lon="6.7368">
        <ele>1754.1999511719</ele>
        <time>2020-08-13T13:22:20.000Z</time>
      </trkpt>
      <trkpt lat="44.31255" lon="6.73742">
        <ele>1755.4000244141</ele>
        <time>2020-08-13T13:22:30.000Z</time>
      </trkpt>
      <trkpt lat="44.31239" lon="6.73776">
        <ele>1756.5999755859</ele>
        <time>2020-08-13T13:22:36.000Z</time>
      </trkpt>
      <trkpt lat="44.31229" lon="6.73798">
        <ele>1757.4000244141</ele>
        <time>2020-08-13T13:22:40.000Z</time>
      </trkpt>
      <trkpt lat="44.31224" lon="6.73811">
        <ele>1757.5999755859</ele>
        <time>2020-08-13T13:22:42.000Z</time>
      </trkpt>
      <trkpt lat="44.31212" lon="6.73846">
        <ele>1758.4000244141</ele>
        <time>2020-08-13T13:22:48.000Z</time>
      </trkpt>
      <trkpt lat="44.31209" lon="6.73858">
        <ele>1758.8000488281</ele>
        <time>2020-08-13T13:22:50.000Z</time>
      </trkpt>
      <trkpt lat="44.31201" lon="6.73902">
        <ele>1760</ele>
        <time>2020-08-13T13:22:57.000Z</time>
      </trkpt>
      <trkpt lat="44.31186" lon="6.73947">
        <ele>1759.5999755859</ele>
        <time>2020-08-13T13:23:04.000Z</time>
      </trkpt>
      <trkpt lat="44.31172" lon="6.73972">
        <ele>1759.1999511719</ele>
        <time>2020-08-13T13:23:08.000Z</time>
      </trkpt>
      <trkpt lat="44.31166" lon="6.73977">
        <ele>1759.1999511719</ele>
        <time>2020-08-13T13:23:09.000Z</time>
      </trkpt>
      <trkpt lat="44.31148" lon="6.73984">
        <ele>1759</ele>
        <time>2020-08-13T13:23:12.000Z</time>
      </trkpt>
      <trkpt lat="44.31142" lon="6.73984">
        <ele>1758.8000488281</ele>
        <time>2020-08-13T13:23:13.000Z</time>
      </trkpt>
      <trkpt lat="44.31124" lon="6.73978">
        <ele>1758</ele>
        <time>2020-08-13T13:23:16.000Z</time>
      </trkpt>
      <trkpt lat="44.31118" lon="6.73975">
        <ele>1757.8000488281</ele>
        <time>2020-08-13T13:23:17.000Z</time>
      </trkpt>
      <trkpt lat="44.31099" lon="6.73957">
        <ele>1757.4000244141</ele>
        <time>2020-08-13T13:23:21.000Z</time>
      </trkpt>
      <trkpt lat="44.31095" lon="6.73952">
        <ele>1757.5999755859</ele>
        <time>2020-08-13T13:23:22.000Z</time>
      </trkpt>
      <trkpt lat="44.31074" lon="6.73926">
        <ele>1757.1999511719</ele>
        <time>2020-08-13T13:23:28.000Z</time>
      </trkpt>
      <trkpt lat="44.3107" lon="6.73899">
        <ele>1757.1999511719</ele>
        <time>2020-08-13T13:23:32.000Z</time>
      </trkpt>
      <trkpt lat="44.31078" lon="6.73877">
        <ele>1757.4000244141</ele>
        <time>2020-08-13T13:23:36.000Z</time>
      </trkpt>
      <trkpt lat="44.31083" lon="6.73868">
        <ele>1757.8000488281</ele>
        <time>2020-08-13T13:23:38.000Z</time>
      </trkpt>
      <trkpt lat="44.31096" lon="6.73847">
        <ele>1758.5999755859</ele>
        <time>2020-08-13T13:23:43.000Z</time>
      </trkpt>
      <trkpt lat="44.31102" lon="6.73838">
        <ele>1758.8000488281</ele>
        <time>2020-08-13T13:23:45.000Z</time>
      </trkpt>
      <trkpt lat="44.31111" lon="6.7382">
        <ele>1759.5999755859</ele>
        <time>2020-08-13T13:23:49.000Z</time>
      </trkpt>
      <trkpt lat="44.31115" lon="6.73812">
        <ele>1760</ele>
        <time>2020-08-13T13:23:51.000Z</time>
      </trkpt>
      <trkpt lat="44.31123" lon="6.7379">
        <ele>1761</ele>
        <time>2020-08-13T13:23:56.000Z</time>
      </trkpt>
      <trkpt lat="44.31124" lon="6.73786">
        <ele>1761.1999511719</ele>
        <time>2020-08-13T13:23:57.000Z</time>
      </trkpt>
      <trkpt lat="44.31128" lon="6.73769">
        <ele>1762.1999511719</ele>
        <time>2020-08-13T13:24:01.000Z</time>
      </trkpt>
      <trkpt lat="44.31131" lon="6.73753">
        <ele>1763.4000244141</ele>
        <time>2020-08-13T13:24:05.000Z</time>
      </trkpt>
      <trkpt lat="44.31133" lon="6.73739">
        <ele>1764.5999755859</ele>
        <time>2020-08-13T13:24:09.000Z</time>
      </trkpt>
      <trkpt lat="44.31135" lon="6.73729">
        <ele>1765.4000244141</ele>
        <time>2020-08-13T13:24:12.000Z</time>
      </trkpt>
      <trkpt lat="44.31136" lon="6.73726">
        <ele>1765.5999755859</ele>
        <time>2020-08-13T13:24:13.000Z</time>
      </trkpt>
      <trkpt lat="44.31139" lon="6.73713">
        <ele>1766.5999755859</ele>
        <time>2020-08-13T13:24:17.000Z</time>
      </trkpt>
      <trkpt lat="44.31138" lon="6.73702">
        <ele>1767.1999511719</ele>
        <time>2020-08-13T13:24:20.000Z</time>
      </trkpt>
      <trkpt lat="44.31135" lon="6.73692">
        <ele>1767.8000488281</ele>
        <time>2020-08-13T13:24:23.000Z</time>
      </trkpt>
      <trkpt lat="44.31132" lon="6.73691">
        <ele>1768</ele>
        <time>2020-08-13T13:24:24.000Z</time>
      </trkpt>
      <trkpt lat="44.31129" lon="6.73691">
        <ele>1768.1999511719</ele>
        <time>2020-08-13T13:24:25.000Z</time>
      </trkpt>
      <trkpt lat="44.31125" lon="6.73693">
        <ele>1768.8000488281</ele>
        <time>2020-08-13T13:24:27.000Z</time>
      </trkpt>
      <trkpt lat="44.31122" lon="6.73695">
        <ele>1769</ele>
        <time>2020-08-13T13:24:28.000Z</time>
      </trkpt>
      <trkpt lat="44.3112" lon="6.73696">
        <ele>1769.4000244141</ele>
        <time>2020-08-13T13:24:29.000Z</time>
      </trkpt>
      <trkpt lat="44.31112" lon="6.73705">
        <ele>1769.8000488281</ele>
        <time>2020-08-13T13:24:32.000Z</time>
      </trkpt>
      <trkpt lat="44.31104" lon="6.73713">
        <ele>1770</ele>
        <time>2020-08-13T13:24:35.000Z</time>
      </trkpt>
      <trkpt lat="44.31091" lon="6.7373">
        <ele>1770.8000488281</ele>
        <time>2020-08-13T13:24:41.000Z</time>
      </trkpt>
      <trkpt lat="44.31088" lon="6.73733">
        <ele>1771</ele>
        <time>2020-08-13T13:24:42.000Z</time>
      </trkpt>
      <trkpt lat="44.31073" lon="6.73737">
        <ele>1771.8000488281</ele>
        <time>2020-08-13T13:24:47.000Z</time>
      </trkpt>
      <trkpt lat="44.31071" lon="6.73734">
        <ele>1771.8000488281</ele>
        <time>2020-08-13T13:24:48.000Z</time>
      </trkpt>
      <trkpt lat="44.3107" lon="6.7373">
        <ele>1772</ele>
        <time>2020-08-13T13:24:49.000Z</time>
      </trkpt>
      <trkpt lat="44.3107" lon="6.73728">
        <ele>1772.1999511719</ele>
        <time>2020-08-13T13:24:50.000Z</time>
      </trkpt>
      <trkpt lat="44.31071" lon="6.73716">
        <ele>1773.1999511719</ele>
        <time>2020-08-13T13:24:54.000Z</time>
      </trkpt>
      <trkpt lat="44.31072" lon="6.73713">
        <ele>1773.5999755859</ele>
        <time>2020-08-13T13:24:55.000Z</time>
      </trkpt>
      <trkpt lat="44.31076" lon="6.73707">
        <ele>1774.4000244141</ele>
        <time>2020-08-13T13:24:58.000Z</time>
      </trkpt>
      <trkpt lat="44.31079" lon="6.73703">
        <ele>1774.8000488281</ele>
        <time>2020-08-13T13:25:00.000Z</time>
      </trkpt>
      <trkpt lat="44.31081" lon="6.73701">
        <ele>1775.1999511719</ele>
        <time>2020-08-13T13:25:01.000Z</time>
      </trkpt>
      <trkpt lat="44.31083" lon="6.737">
        <ele>1775.4000244141</ele>
        <time>2020-08-13T13:25:02.000Z</time>
      </trkpt>
      <trkpt lat="44.31091" lon="6.73691">
        <ele>1776.4000244141</ele>
        <time>2020-08-13T13:25:07.000Z</time>
      </trkpt>
      <trkpt lat="44.31094" lon="6.73687">
        <ele>1776.8000488281</ele>
        <time>2020-08-13T13:25:09.000Z</time>
      </trkpt>
      <trkpt lat="44.31103" lon="6.7368">
        <ele>1777.5999755859</ele>
        <time>2020-08-13T13:25:14.000Z</time>
      </trkpt>
      <trkpt lat="44.31113" lon="6.73665">
        <ele>1778.5999755859</ele>
        <time>2020-08-13T13:25:21.000Z</time>
      </trkpt>
      <trkpt lat="44.31114" lon="6.7366">
        <ele>1778.8000488281</ele>
        <time>2020-08-13T13:25:23.000Z</time>
      </trkpt>
      <trkpt lat="44.31114" lon="6.73652">
        <ele>1779.5999755859</ele>
        <time>2020-08-13T13:25:26.000Z</time>
      </trkpt>
      <trkpt lat="44.3111" lon="6.73646">
        <ele>1780.4000244141</ele>
        <time>2020-08-13T13:25:29.000Z</time>
      </trkpt>
      <trkpt lat="44.31108" lon="6.73645">
        <ele>1780.8000488281</ele>
        <time>2020-08-13T13:25:30.000Z</time>
      </trkpt>
      <trkpt lat="44.311" lon="6.73645">
        <ele>1781.5999755859</ele>
        <time>2020-08-13T13:25:34.000Z</time>
      </trkpt>
      <trkpt lat="44.31096" lon="6.73647">
        <ele>1781.8000488281</ele>
        <time>2020-08-13T13:25:36.000Z</time>
      </trkpt>
      <trkpt lat="44.31088" lon="6.73652">
        <ele>1782.4000244141</ele>
        <time>2020-08-13T13:25:40.000Z</time>
      </trkpt>
      <trkpt lat="44.31082" lon="6.73657">
        <ele>1783</ele>
        <time>2020-08-13T13:25:43.000Z</time>
      </trkpt>
      <trkpt lat="44.31069" lon="6.73665">
        <ele>1783.8000488281</ele>
        <time>2020-08-13T13:25:49.000Z</time>
      </trkpt>
      <trkpt lat="44.31067" lon="6.73666">
        <ele>1784</ele>
        <time>2020-08-13T13:25:50.000Z</time>
      </trkpt>
      <trkpt lat="44.31052" lon="6.73677">
        <ele>1785</ele>
        <time>2020-08-13T13:25:57.000Z</time>
      </trkpt>
      <trkpt lat="44.31045" lon="6.73693">
        <ele>1786</ele>
        <time>2020-08-13T13:26:03.000Z</time>
      </trkpt>
      <trkpt lat="44.31045" lon="6.73695">
        <ele>1786.1999511719</ele>
        <time>2020-08-13T13:26:04.000Z</time>
      </trkpt>
      <trkpt lat="44.31041" lon="6.73709">
        <ele>1787.4000244141</ele>
        <time>2020-08-13T13:26:09.000Z</time>
      </trkpt>
      <trkpt lat="44.3104" lon="6.73714">
        <ele>1787.8000488281</ele>
        <time>2020-08-13T13:26:11.000Z</time>
      </trkpt>
      <trkpt lat="44.31037" lon="6.73722">
        <ele>1788.5999755859</ele>
        <time>2020-08-13T13:26:14.000Z</time>
      </trkpt>
      <trkpt lat="44.31031" lon="6.73737">
        <ele>1789.5999755859</ele>
        <time>2020-08-13T13:26:20.000Z</time>
      </trkpt>
      <trkpt lat="44.3103" lon="6.73739">
        <ele>1790</ele>
        <time>2020-08-13T13:26:21.000Z</time>
      </trkpt>
      <trkpt lat="44.31026" lon="6.73748">
        <ele>1790.8000488281</ele>
        <time>2020-08-13T13:26:25.000Z</time>
      </trkpt>
      <trkpt lat="44.31022" lon="6.73757">
        <ele>1791.5999755859</ele>
        <time>2020-08-13T13:26:29.000Z</time>
      </trkpt>
      <trkpt lat="44.3102" lon="6.73762">
        <ele>1791.8000488281</ele>
        <time>2020-08-13T13:26:31.000Z</time>
      </trkpt>
      <trkpt lat="44.31015" lon="6.73772">
        <ele>1792.8000488281</ele>
        <time>2020-08-13T13:26:36.000Z</time>
      </trkpt>
      <trkpt lat="44.31015" lon="6.73773">
        <ele>1793</ele>
        <time>2020-08-13T13:26:37.000Z</time>
      </trkpt>
      <trkpt lat="44.31011" lon="6.73792">
        <ele>1794.1999511719</ele>
        <time>2020-08-13T13:26:44.000Z</time>
      </trkpt>
      <trkpt lat="44.31011" lon="6.73794">
        <ele>1794.4000244141</ele>
        <time>2020-08-13T13:26:45.000Z</time>
      </trkpt>
      <trkpt lat="44.31008" lon="6.73807">
        <ele>1795.1999511719</ele>
        <time>2020-08-13T13:26:50.000Z</time>
      </trkpt>
      <trkpt lat="44.31008" lon="6.73813">
        <ele>1795.4000244141</ele>
        <time>2020-08-13T13:26:52.000Z</time>
      </trkpt>
      <trkpt lat="44.31008" lon="6.73827">
        <ele>1796.1999511719</ele>
        <time>2020-08-13T13:26:58.000Z</time>
      </trkpt>
      <trkpt lat="44.31009" lon="6.7383">
        <ele>1796.4000244141</ele>
        <time>2020-08-13T13:26:59.000Z</time>
      </trkpt>
      <trkpt lat="44.31008" lon="6.73845">
        <ele>1797.1999511719</ele>
        <time>2020-08-13T13:27:05.000Z</time>
      </trkpt>
      <trkpt lat="44.31008" lon="6.73848">
        <ele>1797.4000244141</ele>
        <time>2020-08-13T13:27:06.000Z</time>
      </trkpt>
      <trkpt lat="44.31005" lon="6.73863">
        <ele>1798.4000244141</ele>
        <time>2020-08-13T13:27:12.000Z</time>
      </trkpt>
      <trkpt lat="44.31004" lon="6.73868">
        <ele>1798.8000488281</ele>
        <time>2020-08-13T13:27:14.000Z</time>
      </trkpt>
      <trkpt lat="44.31" lon="6.7388">
        <ele>1799.5999755859</ele>
        <time>2020-08-13T13:27:19.000Z</time>
      </trkpt>
      <trkpt lat="44.30998" lon="6.73887">
        <ele>1800</ele>
        <time>2020-08-13T13:27:22.000Z</time>
      </trkpt>
      <trkpt lat="44.30995" lon="6.73894">
        <ele>1800.5999755859</ele>
        <time>2020-08-13T13:27:25.000Z</time>
      </trkpt>
      <trkpt lat="44.30991" lon="6.73905">
        <ele>1801.1999511719</ele>
        <time>2020-08-13T13:27:30.000Z</time>
      </trkpt>
      <trkpt lat="44.30989" lon="6.7391">
        <ele>1801.5999755859</ele>
        <time>2020-08-13T13:27:32.000Z</time>
      </trkpt>
      <trkpt lat="44.30982" lon="6.73926">
        <ele>1802.5999755859</ele>
        <time>2020-08-13T13:27:39.000Z</time>
      </trkpt>
      <trkpt lat="44.30981" lon="6.73928">
        <ele>1802.8000488281</ele>
        <time>2020-08-13T13:27:40.000Z</time>
      </trkpt>
      <trkpt lat="44.30976" lon="6.73939">
        <ele>1803.8000488281</ele>
        <time>2020-08-13T13:27:45.000Z</time>
      </trkpt>
      <trkpt lat="44.30972" lon="6.73944">
        <ele>1804.1999511719</ele>
        <time>2020-08-13T13:27:48.000Z</time>
      </trkpt>
      <trkpt lat="44.30967" lon="6.73953">
        <ele>1804.8000488281</ele>
        <time>2020-08-13T13:27:52.000Z</time>
      </trkpt>
      <trkpt lat="44.3096" lon="6.73963">
        <ele>1805.4000244141</ele>
        <time>2020-08-13T13:27:57.000Z</time>
      </trkpt>
      <trkpt lat="44.30956" lon="6.73968">
        <ele>1806</ele>
        <time>2020-08-13T13:28:00.000Z</time>
      </trkpt>
      <trkpt lat="44.30948" lon="6.7398">
        <ele>1806.8000488281</ele>
        <time>2020-08-13T13:28:06.000Z</time>
      </trkpt>
      <trkpt lat="44.30946" lon="6.73981">
        <ele>1807</ele>
        <time>2020-08-13T13:28:07.000Z</time>
      </trkpt>
      <trkpt lat="44.30932" lon="6.73992">
        <ele>1808</ele>
        <time>2020-08-13T13:28:15.000Z</time>
      </trkpt>
      <trkpt lat="44.3093" lon="6.73993">
        <ele>1808</ele>
        <time>2020-08-13T13:28:16.000Z</time>
      </trkpt>
      <trkpt lat="44.30914" lon="6.74004">
        <ele>1808.8000488281</ele>
        <time>2020-08-13T13:28:24.000Z</time>
      </trkpt>
      <trkpt lat="44.30909" lon="6.74012">
        <ele>1809.1999511719</ele>
        <time>2020-08-13T13:28:27.000Z</time>
      </trkpt>
      <trkpt lat="44.30903" lon="6.74025">
        <ele>1809.5999755859</ele>
        <time>2020-08-13T13:28:31.000Z</time>
      </trkpt>
      <trkpt lat="44.3089" lon="6.74044">
        <ele>1809.8000488281</ele>
        <time>2020-08-13T13:28:37.000Z</time>
      </trkpt>
      <trkpt lat="44.30881" lon="6.7405">
        <ele>1810.1999511719</ele>
        <time>2020-08-13T13:28:41.000Z</time>
      </trkpt>
      <trkpt lat="44.30874" lon="6.74053">
        <ele>1810.5999755859</ele>
        <time>2020-08-13T13:28:44.000Z</time>
      </trkpt>
      <trkpt lat="44.30861" lon="6.74059">
        <ele>1811.1999511719</ele>
        <time>2020-08-13T13:28:50.000Z</time>
      </trkpt>
      <trkpt lat="44.30859" lon="6.74061">
        <ele>1811.4000244141</ele>
        <time>2020-08-13T13:28:51.000Z</time>
      </trkpt>
      <trkpt lat="44.30849" lon="6.74069">
        <ele>1812.4000244141</ele>
        <time>2020-08-13T13:28:56.000Z</time>
      </trkpt>
      <trkpt lat="44.30843" lon="6.74078">
        <ele>1813</ele>
        <time>2020-08-13T13:29:00.000Z</time>
      </trkpt>
      <trkpt lat="44.3084" lon="6.74082">
        <ele>1813.4000244141</ele>
        <time>2020-08-13T13:29:02.000Z</time>
      </trkpt>
      <trkpt lat="44.30834" lon="6.74093">
        <ele>1814.4000244141</ele>
        <time>2020-08-13T13:29:07.000Z</time>
      </trkpt>
      <trkpt lat="44.30833" lon="6.74095">
        <ele>1814.5999755859</ele>
        <time>2020-08-13T13:29:08.000Z</time>
      </trkpt>
      <trkpt lat="44.30827" lon="6.74106">
        <ele>1815.5999755859</ele>
        <time>2020-08-13T13:29:12.000Z</time>
      </trkpt>
      <trkpt lat="44.30822" lon="6.74117">
        <ele>1816.4000244141</ele>
        <time>2020-08-13T13:29:16.000Z</time>
      </trkpt>
      <trkpt lat="44.30821" lon="6.74122">
        <ele>1817</ele>
        <time>2020-08-13T13:29:18.000Z</time>
      </trkpt>
      <trkpt lat="44.3082" lon="6.74137">
        <ele>1818</ele>
        <time>2020-08-13T13:29:23.000Z</time>
      </trkpt>
      <trkpt lat="44.30819" lon="6.74143">
        <ele>1818.1999511719</ele>
        <time>2020-08-13T13:29:25.000Z</time>
      </trkpt>
      <trkpt lat="44.30815" lon="6.74168">
        <ele>1819</ele>
        <time>2020-08-13T13:29:33.000Z</time>
      </trkpt>
      <trkpt lat="44.30802" lon="6.74182">
        <ele>1819.8000488281</ele>
        <time>2020-08-13T13:29:40.000Z</time>
      </trkpt>
      <trkpt lat="44.30795" lon="6.74186">
        <ele>1820</ele>
        <time>2020-08-13T13:29:43.000Z</time>
      </trkpt>
      <trkpt lat="44.30786" lon="6.74188">
        <ele>1820.4000244141</ele>
        <time>2020-08-13T13:29:46.000Z</time>
      </trkpt>
      <trkpt lat="44.30769" lon="6.74188">
        <ele>1821.1999511719</ele>
        <time>2020-08-13T13:29:52.000Z</time>
      </trkpt>
      <trkpt lat="44.3076" lon="6.74186">
        <ele>1821.5999755859</ele>
        <time>2020-08-13T13:29:55.000Z</time>
      </trkpt>
      <trkpt lat="44.30751" lon="6.74184">
        <ele>1822.1999511719</ele>
        <time>2020-08-13T13:29:58.000Z</time>
      </trkpt>
      <trkpt lat="44.30737" lon="6.74188">
        <ele>1823</ele>
        <time>2020-08-13T13:30:03.000Z</time>
      </trkpt>
      <trkpt lat="44.30724" lon="6.74198">
        <ele>1823.4000244141</ele>
        <time>2020-08-13T13:30:08.000Z</time>
      </trkpt>
      <trkpt lat="44.30718" lon="6.74204">
        <ele>1823.8000488281</ele>
        <time>2020-08-13T13:30:11.000Z</time>
      </trkpt>
      <trkpt lat="44.3071" lon="6.74209">
        <ele>1824.4000244141</ele>
        <time>2020-08-13T13:30:14.000Z</time>
      </trkpt>
      <trkpt lat="44.30699" lon="6.74216">
        <ele>1824.8000488281</ele>
        <time>2020-08-13T13:30:18.000Z</time>
      </trkpt>
      <trkpt lat="44.30675" lon="6.74229">
        <ele>1825.4000244141</ele>
        <time>2020-08-13T13:30:25.000Z</time>
      </trkpt>
      <trkpt lat="44.30652" lon="6.74239">
        <ele>1826.1999511719</ele>
        <time>2020-08-13T13:30:32.000Z</time>
      </trkpt>
      <trkpt lat="44.30643" lon="6.74241">
        <ele>1826.5999755859</ele>
        <time>2020-08-13T13:30:35.000Z</time>
      </trkpt>
      <trkpt lat="44.30635" lon="6.74245">
        <ele>1827</ele>
        <time>2020-08-13T13:30:38.000Z</time>
      </trkpt>
      <trkpt lat="44.30618" lon="6.74253">
        <ele>1827.8000488281</ele>
        <time>2020-08-13T13:30:44.000Z</time>
      </trkpt>
      <trkpt lat="44.30615" lon="6.74255">
        <ele>1828</ele>
        <time>2020-08-13T13:30:45.000Z</time>
      </trkpt>
      <trkpt lat="44.30596" lon="6.74265">
        <ele>1829</ele>
        <time>2020-08-13T13:30:52.000Z</time>
      </trkpt>
      <trkpt lat="44.3059" lon="6.74268">
        <ele>1829.4000244141</ele>
        <time>2020-08-13T13:30:54.000Z</time>
      </trkpt>
      <trkpt lat="44.30576" lon="6.74275">
        <ele>1830</ele>
        <time>2020-08-13T13:30:59.000Z</time>
      </trkpt>
      <trkpt lat="44.30559" lon="6.74287">
        <ele>1830.5999755859</ele>
        <time>2020-08-13T13:31:05.000Z</time>
      </trkpt>
      <trkpt lat="44.30553" lon="6.74291">
        <ele>1831</ele>
        <time>2020-08-13T13:31:07.000Z</time>
      </trkpt>
      <trkpt lat="44.30534" lon="6.74311">
        <ele>1831.8000488281</ele>
        <time>2020-08-13T13:31:14.000Z</time>
      </trkpt>
      <trkpt lat="44.3053" lon="6.74317">
        <ele>1832</ele>
        <time>2020-08-13T13:31:16.000Z</time>
      </trkpt>
      <trkpt lat="44.30519" lon="6.74331">
        <ele>1833.1999511719</ele>
        <time>2020-08-13T13:31:21.000Z</time>
      </trkpt>
      <trkpt lat="44.30504" lon="6.74345">
        <ele>1834.4000244141</ele>
        <time>2020-08-13T13:31:27.000Z</time>
      </trkpt>
      <trkpt lat="44.30503" lon="6.74348">
        <ele>1834.5999755859</ele>
        <time>2020-08-13T13:31:28.000Z</time>
      </trkpt>
      <trkpt lat="44.30494" lon="6.74357">
        <ele>1835.4000244141</ele>
        <time>2020-08-13T13:31:32.000Z</time>
      </trkpt>
      <trkpt lat="44.30489" lon="6.74362">
        <ele>1835.8000488281</ele>
        <time>2020-08-13T13:31:34.000Z</time>
      </trkpt>
      <trkpt lat="44.3048" lon="6.74371">
        <ele>1836.5999755859</ele>
        <time>2020-08-13T13:31:38.000Z</time>
      </trkpt>
      <trkpt lat="44.30468" lon="6.74384">
        <ele>1837.1999511719</ele>
        <time>2020-08-13T13:31:43.000Z</time>
      </trkpt>
      <trkpt lat="44.3046" lon="6.7439">
        <ele>1837.5999755859</ele>
        <time>2020-08-13T13:31:46.000Z</time>
      </trkpt>
      <trkpt lat="44.30446" lon="6.74398">
        <ele>1838.4000244141</ele>
        <time>2020-08-13T13:31:51.000Z</time>
      </trkpt>
      <trkpt lat="44.30444" lon="6.744">
        <ele>1838.5999755859</ele>
        <time>2020-08-13T13:31:52.000Z</time>
      </trkpt>
      <trkpt lat="44.30424" lon="6.74407">
        <ele>1839.5999755859</ele>
        <time>2020-08-13T13:31:59.000Z</time>
      </trkpt>
      <trkpt lat="44.30421" lon="6.74408">
        <ele>1839.5999755859</ele>
        <time>2020-08-13T13:32:00.000Z</time>
      </trkpt>
      <trkpt lat="44.30398" lon="6.74417">
        <ele>1840.4000244141</ele>
        <time>2020-08-13T13:32:08.000Z</time>
      </trkpt>
      <trkpt lat="44.30386" lon="6.74421">
        <ele>1840.8000488281</ele>
        <time>2020-08-13T13:32:12.000Z</time>
      </trkpt>
      <trkpt lat="44.30378" lon="6.74424">
        <ele>1841.4000244141</ele>
        <time>2020-08-13T13:32:15.000Z</time>
      </trkpt>
      <trkpt lat="44.30369" lon="6.74426">
        <ele>1841.8000488281</ele>
        <time>2020-08-13T13:32:18.000Z</time>
      </trkpt>
      <trkpt lat="44.30356" lon="6.74423">
        <ele>1842.1999511719</ele>
        <time>2020-08-13T13:32:22.000Z</time>
      </trkpt>
      <trkpt lat="44.30348" lon="6.74417">
        <ele>1842.5999755859</ele>
        <time>2020-08-13T13:32:25.000Z</time>
      </trkpt>
      <trkpt lat="44.30344" lon="6.74412">
        <ele>1842.8000488281</ele>
        <time>2020-08-13T13:32:27.000Z</time>
      </trkpt>
      <trkpt lat="44.30327" lon="6.74399">
        <ele>1843.8000488281</ele>
        <time>2020-08-13T13:32:34.000Z</time>
      </trkpt>
      <trkpt lat="44.30317" lon="6.744">
        <ele>1844</ele>
        <time>2020-08-13T13:32:37.000Z</time>
      </trkpt>
      <trkpt lat="44.30311" lon="6.74402">
        <ele>1844.1999511719</ele>
        <time>2020-08-13T13:32:39.000Z</time>
      </trkpt>
      <trkpt lat="44.30295" lon="6.74412">
        <ele>1845</ele>
        <time>2020-08-13T13:32:45.000Z</time>
      </trkpt>
      <trkpt lat="44.30292" lon="6.74414">
        <ele>1845</ele>
        <time>2020-08-13T13:32:46.000Z</time>
      </trkpt>
      <trkpt lat="44.30273" lon="6.74426">
        <ele>1846.1999511719</ele>
        <time>2020-08-13T13:32:53.000Z</time>
      </trkpt>
      <trkpt lat="44.30268" lon="6.74429">
        <ele>1846.1999511719</ele>
        <time>2020-08-13T13:32:55.000Z</time>
      </trkpt>
      <trkpt lat="44.30255" lon="6.74438">
        <ele>1847.1999511719</ele>
        <time>2020-08-13T13:33:00.000Z</time>
      </trkpt>
      <trkpt lat="44.30254" lon="6.74438">
        <ele>1847.4000244141</ele>
        <time>2020-08-13T13:33:01.000Z</time>
      </trkpt>
      <trkpt lat="44.30231" lon="6.74447">
        <ele>1848.1999511719</ele>
        <time>2020-08-13T13:33:09.000Z</time>
      </trkpt>
      <trkpt lat="44.30228" lon="6.74449">
        <ele>1848.1999511719</ele>
        <time>2020-08-13T13:33:10.000Z</time>
      </trkpt>
      <trkpt lat="44.30213" lon="6.74451">
        <ele>1848.8000488281</ele>
        <time>2020-08-13T13:33:15.000Z</time>
      </trkpt>
      <trkpt lat="44.30198" lon="6.74451">
        <ele>1849.1999511719</ele>
        <time>2020-08-13T13:33:20.000Z</time>
      </trkpt>
      <trkpt lat="44.30195" lon="6.74452">
        <ele>1849.4000244141</ele>
        <time>2020-08-13T13:33:21.000Z</time>
      </trkpt>
      <trkpt lat="44.30178" lon="6.74455">
        <ele>1850.4000244141</ele>
        <time>2020-08-13T13:33:27.000Z</time>
      </trkpt>
      <trkpt lat="44.3017" lon="6.74454">
        <ele>1850.8000488281</ele>
        <time>2020-08-13T13:33:30.000Z</time>
      </trkpt>
      <trkpt lat="44.30158" lon="6.74453">
        <ele>1851.4000244141</ele>
        <time>2020-08-13T13:33:35.000Z</time>
      </trkpt>
      <trkpt lat="44.3015" lon="6.74452">
        <ele>1851.8000488281</ele>
        <time>2020-08-13T13:33:37.000Z</time>
      </trkpt>
      <trkpt lat="44.3013" lon="6.74446">
        <ele>1852.4000244141</ele>
        <time>2020-08-13T13:33:44.000Z</time>
      </trkpt>
      <trkpt lat="44.30127" lon="6.74445">
        <ele>1852.5999755859</ele>
        <time>2020-08-13T13:33:45.000Z</time>
      </trkpt>
      <trkpt lat="44.3011" lon="6.74441">
        <ele>1853.8000488281</ele>
        <time>2020-08-13T13:33:51.000Z</time>
      </trkpt>
      <trkpt lat="44.30107" lon="6.74439">
        <ele>1854</ele>
        <time>2020-08-13T13:33:52.000Z</time>
      </trkpt>
      <trkpt lat="44.30088" lon="6.74432">
        <ele>1854.5999755859</ele>
        <time>2020-08-13T13:33:59.000Z</time>
      </trkpt>
      <trkpt lat="44.30082" lon="6.74431">
        <ele>1855</ele>
        <time>2020-08-13T13:34:01.000Z</time>
      </trkpt>
      <trkpt lat="44.30068" lon="6.74425">
        <ele>1855.4000244141</ele>
        <time>2020-08-13T13:34:06.000Z</time>
      </trkpt>
      <trkpt lat="44.30057" lon="6.74422">
        <ele>1856</ele>
        <time>2020-08-13T13:34:10.000Z</time>
      </trkpt>
      <trkpt lat="44.30038" lon="6.74419">
        <ele>1856.5999755859</ele>
        <time>2020-08-13T13:34:16.000Z</time>
      </trkpt>
      <trkpt lat="44.30029" lon="6.74419">
        <ele>1857</ele>
        <time>2020-08-13T13:34:19.000Z</time>
      </trkpt>
      <trkpt lat="44.30011" lon="6.74418">
        <ele>1858.1999511719</ele>
        <time>2020-08-13T13:34:25.000Z</time>
      </trkpt>
      <trkpt lat="44.30008" lon="6.74418">
        <ele>1858.1999511719</ele>
        <time>2020-08-13T13:34:26.000Z</time>
      </trkpt>
      <trkpt lat="44.29991" lon="6.74419">
        <ele>1858.5999755859</ele>
        <time>2020-08-13T13:34:31.000Z</time>
      </trkpt>
      <trkpt lat="44.2998" lon="6.74418">
        <ele>1859.1999511719</ele>
        <time>2020-08-13T13:34:34.000Z</time>
      </trkpt>
      <trkpt lat="44.29964" lon="6.74417">
        <ele>1860.1999511719</ele>
        <time>2020-08-13T13:34:39.000Z</time>
      </trkpt>
      <trkpt lat="44.29961" lon="6.74417">
        <ele>1860.4000244141</ele>
        <time>2020-08-13T13:34:40.000Z</time>
      </trkpt>
      <trkpt lat="44.29934" lon="6.74415">
        <ele>1861.1999511719</ele>
        <time>2020-08-13T13:34:48.000Z</time>
      </trkpt>
      <trkpt lat="44.29928" lon="6.74414">
        <ele>1861.4000244141</ele>
        <time>2020-08-13T13:34:50.000Z</time>
      </trkpt>
      <trkpt lat="44.29909" lon="6.74413">
        <ele>1862.4000244141</ele>
        <time>2020-08-13T13:34:56.000Z</time>
      </trkpt>
      <trkpt lat="44.29902" lon="6.74413">
        <ele>1862.8000488281</ele>
        <time>2020-08-13T13:34:58.000Z</time>
      </trkpt>
      <trkpt lat="44.29884" lon="6.74412">
        <ele>1863.4000244141</ele>
        <time>2020-08-13T13:35:03.000Z</time>
      </trkpt>
      <trkpt lat="44.29871" lon="6.74413">
        <ele>1863.5999755859</ele>
        <time>2020-08-13T13:35:07.000Z</time>
      </trkpt>
      <trkpt lat="44.29855" lon="6.74418">
        <ele>1864.4000244141</ele>
        <time>2020-08-13T13:35:12.000Z</time>
      </trkpt>
      <trkpt lat="44.29846" lon="6.74423">
        <ele>1864.8000488281</ele>
        <time>2020-08-13T13:35:15.000Z</time>
      </trkpt>
      <trkpt lat="44.29831" lon="6.74427">
        <ele>1865.4000244141</ele>
        <time>2020-08-13T13:35:20.000Z</time>
      </trkpt>
      <trkpt lat="44.29819" lon="6.74429">
        <ele>1866</ele>
        <time>2020-08-13T13:35:24.000Z</time>
      </trkpt>
      <trkpt lat="44.29792" lon="6.74434">
        <ele>1866.4000244141</ele>
        <time>2020-08-13T13:35:32.000Z</time>
      </trkpt>
      <trkpt lat="44.29789" lon="6.74434">
        <ele>1866.4000244141</ele>
        <time>2020-08-13T13:35:33.000Z</time>
      </trkpt>
      <trkpt lat="44.29767" lon="6.74431">
        <ele>1867.1999511719</ele>
        <time>2020-08-13T13:35:40.000Z</time>
      </trkpt>
      <trkpt lat="44.29755" lon="6.74424">
        <ele>1867.5999755859</ele>
        <time>2020-08-13T13:35:44.000Z</time>
      </trkpt>
      <trkpt lat="44.29747" lon="6.74417">
        <ele>1867.8000488281</ele>
        <time>2020-08-13T13:35:47.000Z</time>
      </trkpt>
      <trkpt lat="44.29734" lon="6.74407">
        <ele>1868.5999755859</ele>
        <time>2020-08-13T13:35:52.000Z</time>
      </trkpt>
      <trkpt lat="44.29723" lon="6.74399">
        <ele>1869</ele>
        <time>2020-08-13T13:35:56.000Z</time>
      </trkpt>
      <trkpt lat="44.29701" lon="6.74387">
        <ele>1869.5999755859</ele>
        <time>2020-08-13T13:36:03.000Z</time>
      </trkpt>
      <trkpt lat="44.29679" lon="6.74381">
        <ele>1870.5999755859</ele>
        <time>2020-08-13T13:36:09.000Z</time>
      </trkpt>
      <trkpt lat="44.29676" lon="6.74381">
        <ele>1870.8000488281</ele>
        <time>2020-08-13T13:36:10.000Z</time>
      </trkpt>
      <trkpt lat="44.29653" lon="6.74382">
        <ele>1871.8000488281</ele>
        <time>2020-08-13T13:36:17.000Z</time>
      </trkpt>
      <trkpt lat="44.29627" lon="6.74388">
        <ele>1873</ele>
        <time>2020-08-13T13:36:25.000Z</time>
      </trkpt>
      <trkpt lat="44.29619" lon="6.74388">
        <ele>1873.1999511719</ele>
        <time>2020-08-13T13:36:27.000Z</time>
      </trkpt>
      <trkpt lat="44.29598" lon="6.74392">
        <ele>1874.1999511719</ele>
        <time>2020-08-13T13:36:33.000Z</time>
      </trkpt>
      <trkpt lat="44.29595" lon="6.74392">
        <ele>1874.4000244141</ele>
        <time>2020-08-13T13:36:34.000Z</time>
      </trkpt>
      <trkpt lat="44.29582" lon="6.74393">
        <ele>1875.1999511719</ele>
        <time>2020-08-13T13:36:38.000Z</time>
      </trkpt>
      <trkpt lat="44.29573" lon="6.74394">
        <ele>1875.8000488281</ele>
        <time>2020-08-13T13:36:41.000Z</time>
      </trkpt>
      <trkpt lat="44.29564" lon="6.74394">
        <ele>1876.1999511719</ele>
        <time>2020-08-13T13:36:44.000Z</time>
      </trkpt>
      <trkpt lat="44.29543" lon="6.7439">
        <ele>1877.1999511719</ele>
        <time>2020-08-13T13:36:51.000Z</time>
      </trkpt>
      <trkpt lat="44.29541" lon="6.74389">
        <ele>1877.4000244141</ele>
        <time>2020-08-13T13:36:52.000Z</time>
      </trkpt>
      <trkpt lat="44.2952" lon="6.74385">
        <ele>1878.1999511719</ele>
        <time>2020-08-13T13:36:59.000Z</time>
      </trkpt>
      <trkpt lat="44.29517" lon="6.74384">
        <ele>1878.4000244141</ele>
        <time>2020-08-13T13:37:00.000Z</time>
      </trkpt>
      <trkpt lat="44.29495" lon="6.74378">
        <ele>1879.1999511719</ele>
        <time>2020-08-13T13:37:07.000Z</time>
      </trkpt>
      <trkpt lat="44.29489" lon="6.74377">
        <ele>1879.4000244141</ele>
        <time>2020-08-13T13:37:09.000Z</time>
      </trkpt>
      <trkpt lat="44.29468" lon="6.74375">
        <ele>1880.4000244141</ele>
        <time>2020-08-13T13:37:16.000Z</time>
      </trkpt>
      <trkpt lat="44.29465" lon="6.74375">
        <ele>1880.5999755859</ele>
        <time>2020-08-13T13:37:17.000Z</time>
      </trkpt>
      <trkpt lat="44.29443" lon="6.74377">
        <ele>1881.4000244141</ele>
        <time>2020-08-13T13:37:24.000Z</time>
      </trkpt>
      <trkpt lat="44.29427" lon="6.74381">
        <ele>1881.5999755859</ele>
        <time>2020-08-13T13:37:29.000Z</time>
      </trkpt>
      <trkpt lat="44.2941" lon="6.74385">
        <ele>1882.1999511719</ele>
        <time>2020-08-13T13:37:34.000Z</time>
      </trkpt>
      <trkpt lat="44.29399" lon="6.74389">
        <ele>1882.5999755859</ele>
        <time>2020-08-13T13:37:38.000Z</time>
      </trkpt>
      <trkpt lat="44.29387" lon="6.74392">
        <ele>1883.1999511719</ele>
        <time>2020-08-13T13:37:42.000Z</time>
      </trkpt>
      <trkpt lat="44.29373" lon="6.74394">
        <ele>1883.8000488281</ele>
        <time>2020-08-13T13:37:47.000Z</time>
      </trkpt>
      <trkpt lat="44.29358" lon="6.74395">
        <ele>1884.4000244141</ele>
        <time>2020-08-13T13:37:52.000Z</time>
      </trkpt>
      <trkpt lat="44.29349" lon="6.74397">
        <ele>1884.8000488281</ele>
        <time>2020-08-13T13:37:55.000Z</time>
      </trkpt>
      <trkpt lat="44.2933" lon="6.74399">
        <ele>1885.8000488281</ele>
        <time>2020-08-13T13:38:02.000Z</time>
      </trkpt>
      <trkpt lat="44.29327" lon="6.74399">
        <ele>1885.8000488281</ele>
        <time>2020-08-13T13:38:03.000Z</time>
      </trkpt>
      <trkpt lat="44.29307" lon="6.74401">
        <ele>1886.5999755859</ele>
        <time>2020-08-13T13:38:10.000Z</time>
      </trkpt>
      <trkpt lat="44.29304" lon="6.74401">
        <ele>1886.8000488281</ele>
        <time>2020-08-13T13:38:11.000Z</time>
      </trkpt>
      <trkpt lat="44.29284" lon="6.74395">
        <ele>1887.4000244141</ele>
        <time>2020-08-13T13:38:18.000Z</time>
      </trkpt>
      <trkpt lat="44.29262" lon="6.74394">
        <ele>1887.8000488281</ele>
        <time>2020-08-13T13:38:25.000Z</time>
      </trkpt>
      <trkpt lat="44.29259" lon="6.74395">
        <ele>1888</ele>
        <time>2020-08-13T13:38:26.000Z</time>
      </trkpt>
      <trkpt lat="44.29241" lon="6.74404">
        <ele>1889</ele>
        <time>2020-08-13T13:38:32.000Z</time>
      </trkpt>
      <trkpt lat="44.29213" lon="6.74414">
        <ele>1890</ele>
        <time>2020-08-13T13:38:41.000Z</time>
      </trkpt>
      <trkpt lat="44.2921" lon="6.74413">
        <ele>1890.1999511719</ele>
        <time>2020-08-13T13:38:42.000Z</time>
      </trkpt>
      <trkpt lat="44.29193" lon="6.74405">
        <ele>1890.8000488281</ele>
        <time>2020-08-13T13:38:48.000Z</time>
      </trkpt>
      <trkpt lat="44.29178" lon="6.74398">
        <ele>1891.1999511719</ele>
        <time>2020-08-13T13:38:53.000Z</time>
      </trkpt>
      <trkpt lat="44.29165" lon="6.74395">
        <ele>1891.4000244141</ele>
        <time>2020-08-13T13:38:57.000Z</time>
      </trkpt>
      <trkpt lat="44.29143" lon="6.74394">
        <ele>1892.1999511719</ele>
        <time>2020-08-13T13:39:04.000Z</time>
      </trkpt>
      <trkpt lat="44.29139" lon="6.74394">
        <ele>1892.4000244141</ele>
        <time>2020-08-13T13:39:05.000Z</time>
      </trkpt>
      <trkpt lat="44.29121" lon="6.74398">
        <ele>1893.4000244141</ele>
        <time>2020-08-13T13:39:11.000Z</time>
      </trkpt>
      <trkpt lat="44.29114" lon="6.74399">
        <ele>1893.4000244141</ele>
        <time>2020-08-13T13:39:13.000Z</time>
      </trkpt>
      <trkpt lat="44.29085" lon="6.74399">
        <ele>1894.4000244141</ele>
        <time>2020-08-13T13:39:22.000Z</time>
      </trkpt>
      <trkpt lat="44.29079" lon="6.74398">
        <ele>1894.5999755859</ele>
        <time>2020-08-13T13:39:24.000Z</time>
      </trkpt>
      <trkpt lat="44.29057" lon="6.74394">
        <ele>1895.5999755859</ele>
        <time>2020-08-13T13:39:31.000Z</time>
      </trkpt>
      <trkpt lat="44.29054" lon="6.74393">
        <ele>1895.5999755859</ele>
        <time>2020-08-13T13:39:32.000Z</time>
      </trkpt>
      <trkpt lat="44.29029" lon="6.74387">
        <ele>1896.8000488281</ele>
        <time>2020-08-13T13:39:40.000Z</time>
      </trkpt>
      <trkpt lat="44.29023" lon="6.74385">
        <ele>1897</ele>
        <time>2020-08-13T13:39:42.000Z</time>
      </trkpt>
      <trkpt lat="44.29008" lon="6.74379">
        <ele>1897.8000488281</ele>
        <time>2020-08-13T13:39:47.000Z</time>
      </trkpt>
      <trkpt lat="44.28993" lon="6.74372">
        <ele>1898.5999755859</ele>
        <time>2020-08-13T13:39:52.000Z</time>
      </trkpt>
      <trkpt lat="44.28991" lon="6.7437">
        <ele>1898.8000488281</ele>
        <time>2020-08-13T13:39:53.000Z</time>
      </trkpt>
      <trkpt lat="44.28966" lon="6.74357">
        <ele>1900</ele>
        <time>2020-08-13T13:40:01.000Z</time>
      </trkpt>
      <trkpt lat="44.28945" lon="6.74346">
        <ele>1901</ele>
        <time>2020-08-13T13:40:08.000Z</time>
      </trkpt>
      <trkpt lat="44.28942" lon="6.74345">
        <ele>1901</ele>
        <time>2020-08-13T13:40:09.000Z</time>
      </trkpt>
      <trkpt lat="44.28926" lon="6.74336">
        <ele>1902.1999511719</ele>
        <time>2020-08-13T13:40:15.000Z</time>
      </trkpt>
      <trkpt lat="44.28912" lon="6.7433">
        <ele>1903.1999511719</ele>
        <time>2020-08-13T13:40:20.000Z</time>
      </trkpt>
      <trkpt lat="44.28895" lon="6.74323">
        <ele>1904.1999511719</ele>
        <time>2020-08-13T13:40:26.000Z</time>
      </trkpt>
      <trkpt lat="44.28892" lon="6.74321">
        <ele>1904.4000244141</ele>
        <time>2020-08-13T13:40:27.000Z</time>
      </trkpt>
      <trkpt lat="44.28867" lon="6.74306">
        <ele>1905.4000244141</ele>
        <time>2020-08-13T13:40:36.000Z</time>
      </trkpt>
      <trkpt lat="44.28851" lon="6.74293">
        <ele>1906.1999511719</ele>
        <time>2020-08-13T13:40:42.000Z</time>
      </trkpt>
      <trkpt lat="44.28845" lon="6.74289">
        <ele>1906.4000244141</ele>
        <time>2020-08-13T13:40:44.000Z</time>
      </trkpt>
      <trkpt lat="44.28832" lon="6.74279">
        <ele>1907</ele>
        <time>2020-08-13T13:40:49.000Z</time>
      </trkpt>
      <trkpt lat="44.28818" lon="6.74271">
        <ele>1907.4000244141</ele>
        <time>2020-08-13T13:40:54.000Z</time>
      </trkpt>
      <trkpt lat="44.28815" lon="6.74269">
        <ele>1907.8000488281</ele>
        <time>2020-08-13T13:40:55.000Z</time>
      </trkpt>
      <trkpt lat="44.28799" lon="6.7426">
        <ele>1908.4000244141</ele>
        <time>2020-08-13T13:41:01.000Z</time>
      </trkpt>
      <trkpt lat="44.28796" lon="6.74258">
        <ele>1908.5999755859</ele>
        <time>2020-08-13T13:41:02.000Z</time>
      </trkpt>
      <trkpt lat="44.28775" lon="6.74247">
        <ele>1909.5999755859</ele>
        <time>2020-08-13T13:41:10.000Z</time>
      </trkpt>
      <trkpt lat="44.28772" lon="6.74246">
        <ele>1909.8000488281</ele>
        <time>2020-08-13T13:41:11.000Z</time>
      </trkpt>
      <trkpt lat="44.28759" lon="6.74239">
        <ele>1910.4000244141</ele>
        <time>2020-08-13T13:41:16.000Z</time>
      </trkpt>
      <trkpt lat="44.2875" lon="6.74233">
        <ele>1910.8000488281</ele>
        <time>2020-08-13T13:41:19.000Z</time>
      </trkpt>
      <trkpt lat="44.2874" lon="6.74228">
        <ele>1911.1999511719</ele>
        <time>2020-08-13T13:41:23.000Z</time>
      </trkpt>
      <trkpt lat="44.28731" lon="6.74226">
        <ele>1911.8000488281</ele>
        <time>2020-08-13T13:41:26.000Z</time>
      </trkpt>
      <trkpt lat="44.28718" lon="6.74225">
        <ele>1912.1999511719</ele>
        <time>2020-08-13T13:41:30.000Z</time>
      </trkpt>
      <trkpt lat="44.28694" lon="6.74232">
        <ele>1912.8000488281</ele>
        <time>2020-08-13T13:41:38.000Z</time>
      </trkpt>
      <trkpt lat="44.28691" lon="6.74233">
        <ele>1913</ele>
        <time>2020-08-13T13:41:39.000Z</time>
      </trkpt>
      <trkpt lat="44.2867" lon="6.74239">
        <ele>1913.8000488281</ele>
        <time>2020-08-13T13:41:46.000Z</time>
      </trkpt>
      <trkpt lat="44.28664" lon="6.74239">
        <ele>1914.1999511719</ele>
        <time>2020-08-13T13:41:48.000Z</time>
      </trkpt>
      <trkpt lat="44.28645" lon="6.7424">
        <ele>1915</ele>
        <time>2020-08-13T13:41:54.000Z</time>
      </trkpt>
      <trkpt lat="44.28631" lon="6.7424">
        <ele>1915.5999755859</ele>
        <time>2020-08-13T13:41:59.000Z</time>
      </trkpt>
      <trkpt lat="44.28622" lon="6.74239">
        <ele>1916</ele>
        <time>2020-08-13T13:42:02.000Z</time>
      </trkpt>
      <trkpt lat="44.28601" lon="6.74237">
        <ele>1916.8000488281</ele>
        <time>2020-08-13T13:42:09.000Z</time>
      </trkpt>
      <trkpt lat="44.28593" lon="6.74235">
        <ele>1917.1999511719</ele>
        <time>2020-08-13T13:42:12.000Z</time>
      </trkpt>
      <trkpt lat="44.28575" lon="6.7423">
        <ele>1918</ele>
        <time>2020-08-13T13:42:18.000Z</time>
      </trkpt>
      <trkpt lat="44.28572" lon="6.74229">
        <ele>1918.1999511719</ele>
        <time>2020-08-13T13:42:19.000Z</time>
      </trkpt>
      <trkpt lat="44.28549" lon="6.74219">
        <ele>1919</ele>
        <time>2020-08-13T13:42:27.000Z</time>
      </trkpt>
      <trkpt lat="44.28541" lon="6.74214">
        <ele>1919.1999511719</ele>
        <time>2020-08-13T13:42:30.000Z</time>
      </trkpt>
      <trkpt lat="44.28525" lon="6.74205">
        <ele>1920</ele>
        <time>2020-08-13T13:42:36.000Z</time>
      </trkpt>
      <trkpt lat="44.28519" lon="6.74204">
        <ele>1920.4000244141</ele>
        <time>2020-08-13T13:42:38.000Z</time>
      </trkpt>
      <trkpt lat="44.285" lon="6.74205">
        <ele>1921.1999511719</ele>
        <time>2020-08-13T13:42:44.000Z</time>
      </trkpt>
      <trkpt lat="44.28493" lon="6.74207">
        <ele>1921.4000244141</ele>
        <time>2020-08-13T13:42:46.000Z</time>
      </trkpt>
      <trkpt lat="44.28472" lon="6.74215">
        <ele>1922</ele>
        <time>2020-08-13T13:42:53.000Z</time>
      </trkpt>
      <trkpt lat="44.2846" lon="6.74219">
        <ele>1922.5999755859</ele>
        <time>2020-08-13T13:42:57.000Z</time>
      </trkpt>
      <trkpt lat="44.28436" lon="6.74226">
        <ele>1923.5999755859</ele>
        <time>2020-08-13T13:43:05.000Z</time>
      </trkpt>
      <trkpt lat="44.2841" lon="6.74237">
        <ele>1924.8000488281</ele>
        <time>2020-08-13T13:43:14.000Z</time>
      </trkpt>
      <trkpt lat="44.28388" lon="6.7425">
        <ele>1925.8000488281</ele>
        <time>2020-08-13T13:43:22.000Z</time>
      </trkpt>
      <trkpt lat="44.28382" lon="6.74253">
        <ele>1926</ele>
        <time>2020-08-13T13:43:24.000Z</time>
      </trkpt>
      <trkpt lat="44.28362" lon="6.74273">
        <ele>1926.8000488281</ele>
        <time>2020-08-13T13:43:32.000Z</time>
      </trkpt>
      <trkpt lat="44.28357" lon="6.74284">
        <ele>1927</ele>
        <time>2020-08-13T13:43:35.000Z</time>
      </trkpt>
      <trkpt lat="44.28355" lon="6.74297">
        <ele>1927.4000244141</ele>
        <time>2020-08-13T13:43:38.000Z</time>
      </trkpt>
      <trkpt lat="44.28358" lon="6.74318">
        <ele>1928</ele>
        <time>2020-08-13T13:43:43.000Z</time>
      </trkpt>
      <trkpt lat="44.28359" lon="6.74328">
        <ele>1928.4000244141</ele>
        <time>2020-08-13T13:43:45.000Z</time>
      </trkpt>
      <trkpt lat="44.28367" lon="6.74369">
        <ele>1928.8000488281</ele>
        <time>2020-08-13T13:43:54.000Z</time>
      </trkpt>
      <trkpt lat="44.28372" lon="6.74382">
        <ele>1929.1999511719</ele>
        <time>2020-08-13T13:43:57.000Z</time>
      </trkpt>
      <trkpt lat="44.2838" lon="6.74389">
        <ele>1929.4000244141</ele>
        <time>2020-08-13T13:44:00.000Z</time>
      </trkpt>
      <trkpt lat="44.28395" lon="6.74394">
        <ele>1930.1999511719</ele>
        <time>2020-08-13T13:44:05.000Z</time>
      </trkpt>
      <trkpt lat="44.28401" lon="6.74395">
        <ele>1930.1999511719</ele>
        <time>2020-08-13T13:44:07.000Z</time>
      </trkpt>
      <trkpt lat="44.28418" lon="6.74397">
        <ele>1931.4000244141</ele>
        <time>2020-08-13T13:44:13.000Z</time>
      </trkpt>
      <trkpt lat="44.28421" lon="6.74397">
        <ele>1931.5999755859</ele>
        <time>2020-08-13T13:44:14.000Z</time>
      </trkpt>
      <trkpt lat="44.28437" lon="6.74397">
        <ele>1932.4000244141</ele>
        <time>2020-08-13T13:44:20.000Z</time>
      </trkpt>
      <trkpt lat="44.2844" lon="6.74397">
        <ele>1932.4000244141</ele>
        <time>2020-08-13T13:44:21.000Z</time>
      </trkpt>
      <trkpt lat="44.28449" lon="6.74398">
        <ele>1933.4000244141</ele>
        <time>2020-08-13T13:44:25.000Z</time>
      </trkpt>
      <trkpt lat="44.28455" lon="6.74398">
        <ele>1934</ele>
        <time>2020-08-13T13:44:28.000Z</time>
      </trkpt>
      <trkpt lat="44.2846" lon="6.74398">
        <ele>1934.4000244141</ele>
        <time>2020-08-13T13:44:30.000Z</time>
      </trkpt>
      <trkpt lat="44.28471" lon="6.74398">
        <ele>1935.4000244141</ele>
        <time>2020-08-13T13:44:34.000Z</time>
      </trkpt>
      <trkpt lat="44.28474" lon="6.74398">
        <ele>1935.5999755859</ele>
        <time>2020-08-13T13:44:35.000Z</time>
      </trkpt>
      <trkpt lat="44.28487" lon="6.74397">
        <ele>1936.8000488281</ele>
        <time>2020-08-13T13:44:41.000Z</time>
      </trkpt>
      <trkpt lat="44.2849" lon="6.74397">
        <ele>1937</ele>
        <time>2020-08-13T13:44:42.000Z</time>
      </trkpt>
      <trkpt lat="44.285" lon="6.74397">
        <ele>1937.8000488281</ele>
        <time>2020-08-13T13:44:47.000Z</time>
      </trkpt>
      <trkpt lat="44.28511" lon="6.74398">
        <ele>1938.5999755859</ele>
        <time>2020-08-13T13:44:52.000Z</time>
      </trkpt>
      <trkpt lat="44.28513" lon="6.74399">
        <ele>1938.8000488281</ele>
        <time>2020-08-13T13:44:53.000Z</time>
      </trkpt>
      <trkpt lat="44.28523" lon="6.74402">
        <ele>1939.8000488281</ele>
        <time>2020-08-13T13:44:58.000Z</time>
      </trkpt>
      <trkpt lat="44.2853" lon="6.74405">
        <ele>1940.1999511719</ele>
        <time>2020-08-13T13:45:01.000Z</time>
      </trkpt>
      <trkpt lat="44.28539" lon="6.74411">
        <ele>1940.8000488281</ele>
        <time>2020-08-13T13:45:06.000Z</time>
      </trkpt>
      <trkpt lat="44.28546" lon="6.74417">
        <ele>1941.4000244141</ele>
        <time>2020-08-13T13:45:10.000Z</time>
      </trkpt>
      <trkpt lat="44.2855" lon="6.74423">
        <ele>1941.8000488281</ele>
        <time>2020-08-13T13:45:13.000Z</time>
      </trkpt>
      <trkpt lat="44.28552" lon="6.74432">
        <ele>1942.5999755859</ele>
        <time>2020-08-13T13:45:16.000Z</time>
      </trkpt>
      <trkpt lat="44.28551" lon="6.74439">
        <ele>1943</ele>
        <time>2020-08-13T13:45:18.000Z</time>
      </trkpt>
      <trkpt lat="44.28545" lon="6.74453">
        <ele>1943.4000244141</ele>
        <time>2020-08-13T13:45:23.000Z</time>
      </trkpt>
      <trkpt lat="44.28537" lon="6.74464">
        <ele>1944.1999511719</ele>
        <time>2020-08-13T13:45:28.000Z</time>
      </trkpt>
      <trkpt lat="44.28533" lon="6.74466">
        <ele>1944.4000244141</ele>
        <time>2020-08-13T13:45:30.000Z</time>
      </trkpt>
      <trkpt lat="44.28523" lon="6.74472">
        <ele>1945.1999511719</ele>
        <time>2020-08-13T13:45:35.000Z</time>
      </trkpt>
      <trkpt lat="44.2852" lon="6.74474">
        <ele>1945.5999755859</ele>
        <time>2020-08-13T13:45:37.000Z</time>
      </trkpt>
      <trkpt lat="44.28511" lon="6.74479">
        <ele>1946.1999511719</ele>
        <time>2020-08-13T13:45:41.000Z</time>
      </trkpt>
      <trkpt lat="44.28504" lon="6.74486">
        <ele>1946.8000488281</ele>
        <time>2020-08-13T13:45:45.000Z</time>
      </trkpt>
      <trkpt lat="44.28496" lon="6.74498">
        <ele>1947.1999511719</ele>
        <time>2020-08-13T13:45:50.000Z</time>
      </trkpt>
      <trkpt lat="44.28495" lon="6.74504">
        <ele>1947.5999755859</ele>
        <time>2020-08-13T13:45:52.000Z</time>
      </trkpt>
      <trkpt lat="44.28495" lon="6.74514">
        <ele>1947.8000488281</ele>
        <time>2020-08-13T13:45:55.000Z</time>
      </trkpt>
      <trkpt lat="44.28496" lon="6.74523">
        <ele>1948.4000244141</ele>
        <time>2020-08-13T13:45:58.000Z</time>
      </trkpt>
      <trkpt lat="44.285" lon="6.74535">
        <ele>1949.4000244141</ele>
        <time>2020-08-13T13:46:02.000Z</time>
      </trkpt>
      <trkpt lat="44.28504" lon="6.74547">
        <ele>1950.5999755859</ele>
        <time>2020-08-13T13:46:06.000Z</time>
      </trkpt>
      <trkpt lat="44.28508" lon="6.74558">
        <ele>1951</ele>
        <time>2020-08-13T13:46:10.000Z</time>
      </trkpt>
      <trkpt lat="44.28513" lon="6.74582">
        <ele>1951.4000244141</ele>
        <time>2020-08-13T13:46:18.000Z</time>
      </trkpt>
      <trkpt lat="44.28513" lon="6.74588">
        <ele>1951.5999755859</ele>
        <time>2020-08-13T13:46:20.000Z</time>
      </trkpt>
      <trkpt lat="44.28508" lon="6.74601">
        <ele>1952.8000488281</ele>
        <time>2020-08-13T13:46:25.000Z</time>
      </trkpt>
      <trkpt lat="44.28497" lon="6.74608">
        <ele>1953.5999755859</ele>
        <time>2020-08-13T13:46:31.000Z</time>
      </trkpt>
      <trkpt lat="44.28493" lon="6.74608">
        <ele>1954</ele>
        <time>2020-08-13T13:46:33.000Z</time>
      </trkpt>
      <trkpt lat="44.28481" lon="6.74604">
        <ele>1955</ele>
        <time>2020-08-13T13:46:39.000Z</time>
      </trkpt>
      <trkpt lat="44.28471" lon="6.74597">
        <ele>1955.8000488281</ele>
        <time>2020-08-13T13:46:47.000Z</time>
      </trkpt>
      <trkpt lat="44.2847" lon="6.74596">
        <ele>1955.8000488281</ele>
        <time>2020-08-13T13:46:56.000Z</time>
      </trkpt>
      <trkpt lat="44.2847" lon="6.74595">
        <ele>1955.4000244141</ele>
        <time>2020-08-13T13:47:08.000Z</time>
      </trkpt>
      <trkpt lat="44.28469" lon="6.74594">
        <ele>1955</ele>
        <time>2020-08-13T13:47:20.000Z</time>
      </trkpt>
      <trkpt lat="44.28466" lon="6.74591">
        <ele>1954.8000488281</ele>
        <time>2020-08-13T13:47:28.000Z</time>
      </trkpt>
      <trkpt lat="44.28454" lon="6.74583">
        <ele>1955.1999511719</ele>
        <time>2020-08-13T13:47:35.000Z</time>
      </trkpt>
      <trkpt lat="44.2844" lon="6.74574">
        <ele>1955.8000488281</ele>
        <time>2020-08-13T13:47:42.000Z</time>
      </trkpt>
      <trkpt lat="44.28437" lon="6.7457">
        <ele>1956</ele>
        <time>2020-08-13T13:47:44.000Z</time>
      </trkpt>
      <trkpt lat="44.28427" lon="6.74562">
        <ele>1956.8000488281</ele>
        <time>2020-08-13T13:47:49.000Z</time>
      </trkpt>
      <trkpt lat="44.28424" lon="6.74559">
        <ele>1957.1999511719</ele>
        <time>2020-08-13T13:47:51.000Z</time>
      </trkpt>
      <trkpt lat="44.28417" lon="6.74554">
        <ele>1958</ele>
        <time>2020-08-13T13:47:55.000Z</time>
      </trkpt>
      <trkpt lat="44.28414" lon="6.74552">
        <ele>1958.4000244141</ele>
        <time>2020-08-13T13:47:57.000Z</time>
      </trkpt>
      <trkpt lat="44.28399" lon="6.74545">
        <ele>1959.1999511719</ele>
        <time>2020-08-13T13:48:04.000Z</time>
      </trkpt>
      <trkpt lat="44.28397" lon="6.74543">
        <ele>1959.4000244141</ele>
        <time>2020-08-13T13:48:05.000Z</time>
      </trkpt>
      <trkpt lat="44.28394" lon="6.74543">
        <ele>1959.5999755859</ele>
        <time>2020-08-13T13:48:06.000Z</time>
      </trkpt>
      <trkpt lat="44.2839" lon="6.74543">
        <ele>1960</ele>
        <time>2020-08-13T13:48:08.000Z</time>
      </trkpt>
      <trkpt lat="44.28383" lon="6.74543">
        <ele>1960.4000244141</ele>
        <time>2020-08-13T13:48:11.000Z</time>
      </trkpt>
      <trkpt lat="44.28374" lon="6.74545">
        <ele>1960.8000488281</ele>
        <time>2020-08-13T13:48:15.000Z</time>
      </trkpt>
      <trkpt lat="44.28365" lon="6.74549">
        <ele>1961.4000244141</ele>
        <time>2020-08-13T13:48:19.000Z</time>
      </trkpt>
      <trkpt lat="44.28352" lon="6.74558">
        <ele>1962.1999511719</ele>
        <time>2020-08-13T13:48:25.000Z</time>
      </trkpt>
      <trkpt lat="44.28348" lon="6.74563">
        <ele>1962.5999755859</ele>
        <time>2020-08-13T13:48:27.000Z</time>
      </trkpt>
      <trkpt lat="44.28339" lon="6.74576">
        <ele>1963.5999755859</ele>
        <time>2020-08-13T13:48:33.000Z</time>
      </trkpt>
      <trkpt lat="44.28329" lon="6.7459">
        <ele>1964.4000244141</ele>
        <time>2020-08-13T13:48:39.000Z</time>
      </trkpt>
      <trkpt lat="44.28326" lon="6.74595">
        <ele>1964.8000488281</ele>
        <time>2020-08-13T13:48:41.000Z</time>
      </trkpt>
      <trkpt lat="44.28317" lon="6.74605">
        <ele>1965.4000244141</ele>
        <time>2020-08-13T13:48:46.000Z</time>
      </trkpt>
      <trkpt lat="44.28314" lon="6.74608">
        <ele>1965.8000488281</ele>
        <time>2020-08-13T13:48:48.000Z</time>
      </trkpt>
      <trkpt lat="44.28312" lon="6.7461">
        <ele>1966</ele>
        <time>2020-08-13T13:48:49.000Z</time>
      </trkpt>
      <trkpt lat="44.28291" lon="6.74622">
        <ele>1967</ele>
        <time>2020-08-13T13:48:59.000Z</time>
      </trkpt>
      <trkpt lat="44.28281" lon="6.74624">
        <ele>1968</ele>
        <time>2020-08-13T13:49:04.000Z</time>
      </trkpt>
      <trkpt lat="44.28274" lon="6.74625">
        <ele>1969.4000244141</ele>
        <time>2020-08-13T13:49:07.000Z</time>
      </trkpt>
      <trkpt lat="44.2827" lon="6.74625">
        <ele>1969.5999755859</ele>
        <time>2020-08-13T13:49:09.000Z</time>
      </trkpt>
      <trkpt lat="44.28252" lon="6.74625">
        <ele>1970.4000244141</ele>
        <time>2020-08-13T13:49:17.000Z</time>
      </trkpt>
      <trkpt lat="44.28247" lon="6.74625">
        <ele>1970.4000244141</ele>
        <time>2020-08-13T13:49:19.000Z</time>
      </trkpt>
      <trkpt lat="44.28234" lon="6.74626">
        <ele>1971.4000244141</ele>
        <time>2020-08-13T13:49:25.000Z</time>
      </trkpt>
      <trkpt lat="44.28228" lon="6.74627">
        <ele>1972</ele>
        <time>2020-08-13T13:49:28.000Z</time>
      </trkpt>
      <trkpt lat="44.28222" lon="6.74628">
        <ele>1972.5999755859</ele>
        <time>2020-08-13T13:49:31.000Z</time>
      </trkpt>
      <trkpt lat="44.28207" lon="6.74628">
        <ele>1973.5999755859</ele>
        <time>2020-08-13T13:49:38.000Z</time>
      </trkpt>
      <trkpt lat="44.28193" lon="6.74627">
        <ele>1974.8000488281</ele>
        <time>2020-08-13T13:49:44.000Z</time>
      </trkpt>
      <trkpt lat="44.28189" lon="6.74625">
        <ele>1975</ele>
        <time>2020-08-13T13:49:46.000Z</time>
      </trkpt>
      <trkpt lat="44.28178" lon="6.74621">
        <ele>1976</ele>
        <time>2020-08-13T13:49:51.000Z</time>
      </trkpt>
      <trkpt lat="44.28172" lon="6.74617">
        <ele>1976.4000244141</ele>
        <time>2020-08-13T13:49:54.000Z</time>
      </trkpt>
      <trkpt lat="44.28166" lon="6.74614">
        <ele>1977</ele>
        <time>2020-08-13T13:49:57.000Z</time>
      </trkpt>
      <trkpt lat="44.28158" lon="6.7461">
        <ele>1977.5999755859</ele>
        <time>2020-08-13T13:50:01.000Z</time>
      </trkpt>
      <trkpt lat="44.28154" lon="6.74607">
        <ele>1978</ele>
        <time>2020-08-13T13:50:03.000Z</time>
      </trkpt>
      <trkpt lat="44.28142" lon="6.746">
        <ele>1979</ele>
        <time>2020-08-13T13:50:09.000Z</time>
      </trkpt>
      <trkpt lat="44.28136" lon="6.74595">
        <ele>1979.8000488281</ele>
        <time>2020-08-13T13:50:12.000Z</time>
      </trkpt>
      <trkpt lat="44.28131" lon="6.74592">
        <ele>1980.1999511719</ele>
        <time>2020-08-13T13:50:14.000Z</time>
      </trkpt>
      <trkpt lat="44.28121" lon="6.74585">
        <ele>1981.4000244141</ele>
        <time>2020-08-13T13:50:19.000Z</time>
      </trkpt>
      <trkpt lat="44.28119" lon="6.74585">
        <ele>1981.5999755859</ele>
        <time>2020-08-13T13:50:20.000Z</time>
      </trkpt>
      <trkpt lat="44.2811" lon="6.74579">
        <ele>1982.5999755859</ele>
        <time>2020-08-13T13:50:24.000Z</time>
      </trkpt>
      <trkpt lat="44.28102" lon="6.74574">
        <ele>1983.4000244141</ele>
        <time>2020-08-13T13:50:28.000Z</time>
      </trkpt>
      <trkpt lat="44.281" lon="6.74573">
        <ele>1983.5999755859</ele>
        <time>2020-08-13T13:50:29.000Z</time>
      </trkpt>
      <trkpt lat="44.28089" lon="6.74567">
        <ele>1984.5999755859</ele>
        <time>2020-08-13T13:50:34.000Z</time>
      </trkpt>
      <trkpt lat="44.28082" lon="6.74562">
        <ele>1985.4000244141</ele>
        <time>2020-08-13T13:50:37.000Z</time>
      </trkpt>
      <trkpt lat="44.28079" lon="6.7456">
        <ele>1985.5999755859</ele>
        <time>2020-08-13T13:50:38.000Z</time>
      </trkpt>
      <trkpt lat="44.28068" lon="6.74554">
        <ele>1986.8000488281</ele>
        <time>2020-08-13T13:50:43.000Z</time>
      </trkpt>
      <trkpt lat="44.28062" lon="6.74554">
        <ele>1987.5999755859</ele>
        <time>2020-08-13T13:50:46.000Z</time>
      </trkpt>
      <trkpt lat="44.2806" lon="6.74554">
        <ele>1987.8000488281</ele>
        <time>2020-08-13T13:50:47.000Z</time>
      </trkpt>
      <trkpt lat="44.28053" lon="6.74548">
        <ele>1988.8000488281</ele>
        <time>2020-08-13T13:50:51.000Z</time>
      </trkpt>
      <trkpt lat="44.28051" lon="6.74547">
        <ele>1989</ele>
        <time>2020-08-13T13:50:52.000Z</time>
      </trkpt>
      <trkpt lat="44.28044" lon="6.74542">
        <ele>1989.8000488281</ele>
        <time>2020-08-13T13:50:56.000Z</time>
      </trkpt>
      <trkpt lat="44.2804" lon="6.74539">
        <ele>1990.1999511719</ele>
        <time>2020-08-13T13:50:58.000Z</time>
      </trkpt>
      <trkpt lat="44.28031" lon="6.74529">
        <ele>1991</ele>
        <time>2020-08-13T13:51:03.000Z</time>
      </trkpt>
      <trkpt lat="44.28028" lon="6.74522">
        <ele>1991.4000244141</ele>
        <time>2020-08-13T13:51:05.000Z</time>
      </trkpt>
      <trkpt lat="44.28024" lon="6.74503">
        <ele>1991.5999755859</ele>
        <time>2020-08-13T13:51:10.000Z</time>
      </trkpt>
      <trkpt lat="44.2803" lon="6.74488">
        <ele>1992</ele>
        <time>2020-08-13T13:51:15.000Z</time>
      </trkpt>
      <trkpt lat="44.28033" lon="6.74484">
        <ele>1992.4000244141</ele>
        <time>2020-08-13T13:51:17.000Z</time>
      </trkpt>
      <trkpt lat="44.28041" lon="6.74469">
        <ele>1993.4000244141</ele>
        <time>2020-08-13T13:51:23.000Z</time>
      </trkpt>
      <trkpt lat="44.28042" lon="6.74467">
        <ele>1993.5999755859</ele>
        <time>2020-08-13T13:51:24.000Z</time>
      </trkpt>
      <trkpt lat="44.28048" lon="6.74454">
        <ele>1994.4000244141</ele>
        <time>2020-08-13T13:51:29.000Z</time>
      </trkpt>
      <trkpt lat="44.28053" lon="6.74446">
        <ele>1995.1999511719</ele>
        <time>2020-08-13T13:51:32.000Z</time>
      </trkpt>
      <trkpt lat="44.28055" lon="6.7444">
        <ele>1995.5999755859</ele>
        <time>2020-08-13T13:51:34.000Z</time>
      </trkpt>
      <trkpt lat="44.28064" lon="6.74423">
        <ele>1995.8000488281</ele>
        <time>2020-08-13T13:51:40.000Z</time>
      </trkpt>
      <trkpt lat="44.28076" lon="6.74401">
        <ele>1996.8000488281</ele>
        <time>2020-08-13T13:51:48.000Z</time>
      </trkpt>
      <trkpt lat="44.28079" lon="6.74395">
        <ele>1997.1999511719</ele>
        <time>2020-08-13T13:51:50.000Z</time>
      </trkpt>
      <trkpt lat="44.28086" lon="6.74383">
        <ele>1997.8000488281</ele>
        <time>2020-08-13T13:51:55.000Z</time>
      </trkpt>
      <trkpt lat="44.28089" lon="6.74377">
        <ele>1998.1999511719</ele>
        <time>2020-08-13T13:51:57.000Z</time>
      </trkpt>
      <trkpt lat="44.28096" lon="6.74363">
        <ele>1999</ele>
        <time>2020-08-13T13:52:03.000Z</time>
      </trkpt>
      <trkpt lat="44.28098" lon="6.7436">
        <ele>1999</ele>
        <time>2020-08-13T13:52:04.000Z</time>
      </trkpt>
      <trkpt lat="44.28106" lon="6.74346">
        <ele>2000</ele>
        <time>2020-08-13T13:52:10.000Z</time>
      </trkpt>
      <trkpt lat="44.28107" lon="6.74343">
        <ele>2000.1999511719</ele>
        <time>2020-08-13T13:52:11.000Z</time>
      </trkpt>
      <trkpt lat="44.2811" lon="6.74329">
        <ele>2001</ele>
        <time>2020-08-13T13:52:16.000Z</time>
      </trkpt>
      <trkpt lat="44.2811" lon="6.7432">
        <ele>2001.8000488281</ele>
        <time>2020-08-13T13:52:19.000Z</time>
      </trkpt>
      <trkpt lat="44.2811" lon="6.74314">
        <ele>2002.1999511719</ele>
        <time>2020-08-13T13:52:21.000Z</time>
      </trkpt>
      <trkpt lat="44.28106" lon="6.74299">
        <ele>2003.4000244141</ele>
        <time>2020-08-13T13:52:26.000Z</time>
      </trkpt>
      <trkpt lat="44.28105" lon="6.74297">
        <ele>2003.5999755859</ele>
        <time>2020-08-13T13:52:27.000Z</time>
      </trkpt>
      <trkpt lat="44.28098" lon="6.74286">
        <ele>2004.5999755859</ele>
        <time>2020-08-13T13:52:32.000Z</time>
      </trkpt>
      <trkpt lat="44.28092" lon="6.7428">
        <ele>2005.1999511719</ele>
        <time>2020-08-13T13:52:35.000Z</time>
      </trkpt>
      <trkpt lat="44.28087" lon="6.74278">
        <ele>2005.5999755859</ele>
        <time>2020-08-13T13:52:37.000Z</time>
      </trkpt>
      <trkpt lat="44.28077" lon="6.7427">
        <ele>2006.8000488281</ele>
        <time>2020-08-13T13:52:42.000Z</time>
      </trkpt>
      <trkpt lat="44.28075" lon="6.74269">
        <ele>2007.1999511719</ele>
        <time>2020-08-13T13:52:43.000Z</time>
      </trkpt>
      <trkpt lat="44.28067" lon="6.74264">
        <ele>2008</ele>
        <time>2020-08-13T13:52:47.000Z</time>
      </trkpt>
      <trkpt lat="44.28057" lon="6.74254">
        <ele>2008.8000488281</ele>
        <time>2020-08-13T13:52:52.000Z</time>
      </trkpt>
      <trkpt lat="44.28056" lon="6.74252">
        <ele>2009</ele>
        <time>2020-08-13T13:52:53.000Z</time>
      </trkpt>
      <trkpt lat="44.28046" lon="6.7424">
        <ele>2010.1999511719</ele>
        <time>2020-08-13T13:52:59.000Z</time>
      </trkpt>
      <trkpt lat="44.28044" lon="6.74235">
        <ele>2010.5999755859</ele>
        <time>2020-08-13T13:53:01.000Z</time>
      </trkpt>
      <trkpt lat="44.2804" lon="6.74224">
        <ele>2011.1999511719</ele>
        <time>2020-08-13T13:53:05.000Z</time>
      </trkpt>
      <trkpt lat="44.28038" lon="6.74213">
        <ele>2012.1999511719</ele>
        <time>2020-08-13T13:53:09.000Z</time>
      </trkpt>
      <trkpt lat="44.28037" lon="6.7421">
        <ele>2012.4000244141</ele>
        <time>2020-08-13T13:53:10.000Z</time>
      </trkpt>
      <trkpt lat="44.28034" lon="6.74195">
        <ele>2013.4000244141</ele>
        <time>2020-08-13T13:53:15.000Z</time>
      </trkpt>
      <trkpt lat="44.28032" lon="6.74183">
        <ele>2014.1999511719</ele>
        <time>2020-08-13T13:53:19.000Z</time>
      </trkpt>
      <trkpt lat="44.2803" lon="6.74177">
        <ele>2014.5999755859</ele>
        <time>2020-08-13T13:53:21.000Z</time>
      </trkpt>
      <trkpt lat="44.28025" lon="6.74159">
        <ele>2015.5999755859</ele>
        <time>2020-08-13T13:53:27.000Z</time>
      </trkpt>
      <trkpt lat="44.28024" lon="6.74156">
        <ele>2015.5999755859</ele>
        <time>2020-08-13T13:53:28.000Z</time>
      </trkpt>
      <trkpt lat="44.28013" lon="6.74148">
        <ele>2016.4000244141</ele>
        <time>2020-08-13T13:53:33.000Z</time>
      </trkpt>
      <trkpt lat="44.28006" lon="6.74144">
        <ele>2016.8000488281</ele>
        <time>2020-08-13T13:53:36.000Z</time>
      </trkpt>
      <trkpt lat="44.27994" lon="6.74138">
        <ele>2017</ele>
        <time>2020-08-13T13:53:41.000Z</time>
      </trkpt>
      <trkpt lat="44.27979" lon="6.74141">
        <ele>2017.4000244141</ele>
        <time>2020-08-13T13:53:47.000Z</time>
      </trkpt>
      <trkpt lat="44.27972" lon="6.74146">
        <ele>2017.8000488281</ele>
        <time>2020-08-13T13:53:50.000Z</time>
      </trkpt>
      <trkpt lat="44.27966" lon="6.74152">
        <ele>2018.1999511719</ele>
        <time>2020-08-13T13:53:53.000Z</time>
      </trkpt>
      <trkpt lat="44.27961" lon="6.74156">
        <ele>2018.5999755859</ele>
        <time>2020-08-13T13:53:56.000Z</time>
      </trkpt>
      <trkpt lat="44.27958" lon="6.74161">
        <ele>2018.8000488281</ele>
        <time>2020-08-13T13:53:58.000Z</time>
      </trkpt>
      <trkpt lat="44.27956" lon="6.74162">
        <ele>2018.8000488281</ele>
        <time>2020-08-13T13:53:59.000Z</time>
      </trkpt>
      <trkpt lat="44.27949" lon="6.74169">
        <ele>2019.5999755859</ele>
        <time>2020-08-13T13:54:03.000Z</time>
      </trkpt>
      <trkpt lat="44.27945" lon="6.74172">
        <ele>2020</ele>
        <time>2020-08-13T13:54:05.000Z</time>
      </trkpt>
      <trkpt lat="44.27938" lon="6.74178">
        <ele>2020.5999755859</ele>
        <time>2020-08-13T13:54:09.000Z</time>
      </trkpt>
      <trkpt lat="44.27936" lon="6.7418">
        <ele>2021</ele>
        <time>2020-08-13T13:54:10.000Z</time>
      </trkpt>
      <trkpt lat="44.27927" lon="6.74187">
        <ele>2022</ele>
        <time>2020-08-13T13:54:15.000Z</time>
      </trkpt>
      <trkpt lat="44.27924" lon="6.74189">
        <ele>2022.5999755859</ele>
        <time>2020-08-13T13:54:17.000Z</time>
      </trkpt>
      <trkpt lat="44.27918" lon="6.74193">
        <ele>2023.1999511719</ele>
        <time>2020-08-13T13:54:20.000Z</time>
      </trkpt>
      <trkpt lat="44.27905" lon="6.74203">
        <ele>2024</ele>
        <time>2020-08-13T13:54:27.000Z</time>
      </trkpt>
      <trkpt lat="44.27901" lon="6.74206">
        <ele>2024.4000244141</ele>
        <time>2020-08-13T13:54:29.000Z</time>
      </trkpt>
      <trkpt lat="44.27889" lon="6.74213">
        <ele>2025.5999755859</ele>
        <time>2020-08-13T13:54:36.000Z</time>
      </trkpt>
      <trkpt lat="44.27883" lon="6.74216">
        <ele>2026</ele>
        <time>2020-08-13T13:54:39.000Z</time>
      </trkpt>
      <trkpt lat="44.27878" lon="6.7422">
        <ele>2026.5999755859</ele>
        <time>2020-08-13T13:54:42.000Z</time>
      </trkpt>
      <trkpt lat="44.27868" lon="6.74226">
        <ele>2027.8000488281</ele>
        <time>2020-08-13T13:54:48.000Z</time>
      </trkpt>
      <trkpt lat="44.27861" lon="6.7423">
        <ele>2028.8000488281</ele>
        <time>2020-08-13T13:54:52.000Z</time>
      </trkpt>
      <trkpt lat="44.2786" lon="6.74233">
        <ele>2029</ele>
        <time>2020-08-13T13:54:53.000Z</time>
      </trkpt>
      <trkpt lat="44.27853" lon="6.74247">
        <ele>2030</ele>
        <time>2020-08-13T13:54:58.000Z</time>
      </trkpt>
      <trkpt lat="44.27849" lon="6.74266">
        <ele>2030.5999755859</ele>
        <time>2020-08-13T13:55:05.000Z</time>
      </trkpt>
      <trkpt lat="44.27848" lon="6.74271">
        <ele>2031.1999511719</ele>
        <time>2020-08-13T13:55:07.000Z</time>
      </trkpt>
      <trkpt lat="44.27849" lon="6.74276">
        <ele>2031.5999755859</ele>
        <time>2020-08-13T13:55:09.000Z</time>
      </trkpt>
      <trkpt lat="44.2785" lon="6.74284">
        <ele>2032.4000244141</ele>
        <time>2020-08-13T13:55:12.000Z</time>
      </trkpt>
      <trkpt lat="44.27853" lon="6.74298">
        <ele>2033.5999755859</ele>
        <time>2020-08-13T13:55:17.000Z</time>
      </trkpt>
      <trkpt lat="44.27855" lon="6.74306">
        <ele>2034.1999511719</ele>
        <time>2020-08-13T13:55:20.000Z</time>
      </trkpt>
      <trkpt lat="44.27857" lon="6.7431">
        <ele>2034.5999755859</ele>
        <time>2020-08-13T13:55:22.000Z</time>
      </trkpt>
      <trkpt lat="44.27861" lon="6.7432">
        <ele>2035.4000244141</ele>
        <time>2020-08-13T13:55:26.000Z</time>
      </trkpt>
      <trkpt lat="44.27862" lon="6.74323">
        <ele>2035.5999755859</ele>
        <time>2020-08-13T13:55:27.000Z</time>
      </trkpt>
      <trkpt lat="44.27869" lon="6.74338">
        <ele>2036.8000488281</ele>
        <time>2020-08-13T13:55:34.000Z</time>
      </trkpt>
      <trkpt lat="44.27875" lon="6.74349">
        <ele>2037.8000488281</ele>
        <time>2020-08-13T13:55:39.000Z</time>
      </trkpt>
      <trkpt lat="44.27879" lon="6.74357">
        <ele>2038.5999755859</ele>
        <time>2020-08-13T13:55:43.000Z</time>
      </trkpt>
      <trkpt lat="44.27881" lon="6.7436">
        <ele>2039</ele>
        <time>2020-08-13T13:55:44.000Z</time>
      </trkpt>
      <trkpt lat="44.27888" lon="6.74374">
        <ele>2040</ele>
        <time>2020-08-13T13:55:50.000Z</time>
      </trkpt>
      <trkpt lat="44.27889" lon="6.74376">
        <ele>2040</ele>
        <time>2020-08-13T13:55:51.000Z</time>
      </trkpt>
      <trkpt lat="44.27896" lon="6.7439">
        <ele>2041</ele>
        <time>2020-08-13T13:55:57.000Z</time>
      </trkpt>
      <trkpt lat="44.27899" lon="6.74395">
        <ele>2041.4000244141</ele>
        <time>2020-08-13T13:55:59.000Z</time>
      </trkpt>
      <trkpt lat="44.27902" lon="6.744">
        <ele>2042.1999511719</ele>
        <time>2020-08-13T13:56:01.000Z</time>
      </trkpt>
      <trkpt lat="44.2791" lon="6.74415">
        <ele>2043.1999511719</ele>
        <time>2020-08-13T13:56:07.000Z</time>
      </trkpt>
      <trkpt lat="44.27916" lon="6.74427">
        <ele>2044.4000244141</ele>
        <time>2020-08-13T13:56:13.000Z</time>
      </trkpt>
      <trkpt lat="44.27918" lon="6.74429">
        <ele>2044.5999755859</ele>
        <time>2020-08-13T13:56:14.000Z</time>
      </trkpt>
      <trkpt lat="44.27921" lon="6.74436">
        <ele>2045</ele>
        <time>2020-08-13T13:56:17.000Z</time>
      </trkpt>
      <trkpt lat="44.27923" lon="6.74443">
        <ele>2045.5999755859</ele>
        <time>2020-08-13T13:56:20.000Z</time>
      </trkpt>
      <trkpt lat="44.27923" lon="6.74453">
        <ele>2046.4000244141</ele>
        <time>2020-08-13T13:56:24.000Z</time>
      </trkpt>
      <trkpt lat="44.27923" lon="6.74459">
        <ele>2046.8000488281</ele>
        <time>2020-08-13T13:56:26.000Z</time>
      </trkpt>
      <trkpt lat="44.27923" lon="6.74464">
        <ele>2047</ele>
        <time>2020-08-13T13:56:28.000Z</time>
      </trkpt>
      <trkpt lat="44.27922" lon="6.74474">
        <ele>2047.8000488281</ele>
        <time>2020-08-13T13:56:32.000Z</time>
      </trkpt>
      <trkpt lat="44.27922" lon="6.74484">
        <ele>2048.6000976562</ele>
        <time>2020-08-13T13:56:36.000Z</time>
      </trkpt>
      <trkpt lat="44.27922" lon="6.74489">
        <ele>2049</ele>
        <time>2020-08-13T13:56:38.000Z</time>
      </trkpt>
      <trkpt lat="44.27923" lon="6.74506">
        <ele>2049.8000488281</ele>
        <time>2020-08-13T13:56:44.000Z</time>
      </trkpt>
      <trkpt lat="44.27924" lon="6.74513">
        <ele>2050</ele>
        <time>2020-08-13T13:56:47.000Z</time>
      </trkpt>
      <trkpt lat="44.27925" lon="6.7452">
        <ele>2050.3999023438</ele>
        <time>2020-08-13T13:56:50.000Z</time>
      </trkpt>
      <trkpt lat="44.27925" lon="6.7453">
        <ele>2051.1999511719</ele>
        <time>2020-08-13T13:56:54.000Z</time>
      </trkpt>
      <trkpt lat="44.27926" lon="6.74538">
        <ele>2052</ele>
        <time>2020-08-13T13:56:57.000Z</time>
      </trkpt>
      <trkpt lat="44.27926" lon="6.74544">
        <ele>2052.3999023438</ele>
        <time>2020-08-13T13:56:59.000Z</time>
      </trkpt>
      <trkpt lat="44.27925" lon="6.74555">
        <ele>2053.1999511719</ele>
        <time>2020-08-13T13:57:03.000Z</time>
      </trkpt>
      <trkpt lat="44.27923" lon="6.74564">
        <ele>2053.3999023438</ele>
        <time>2020-08-13T13:57:06.000Z</time>
      </trkpt>
      <trkpt lat="44.27922" lon="6.74573">
        <ele>2053.8000488281</ele>
        <time>2020-08-13T13:57:09.000Z</time>
      </trkpt>
      <trkpt lat="44.27921" lon="6.74587">
        <ele>2054.3999023438</ele>
        <time>2020-08-13T13:57:14.000Z</time>
      </trkpt>
      <trkpt lat="44.2792" lon="6.74592">
        <ele>2054.8000488281</ele>
        <time>2020-08-13T13:57:16.000Z</time>
      </trkpt>
      <trkpt lat="44.27919" lon="6.746">
        <ele>2055.3999023438</ele>
        <time>2020-08-13T13:57:19.000Z</time>
      </trkpt>
      <trkpt lat="44.27915" lon="6.7461">
        <ele>2056.1999511719</ele>
        <time>2020-08-13T13:57:23.000Z</time>
      </trkpt>
      <trkpt lat="44.27913" lon="6.74615">
        <ele>2056.6000976562</ele>
        <time>2020-08-13T13:57:25.000Z</time>
      </trkpt>
      <trkpt lat="44.27905" lon="6.74623">
        <ele>2057.1999511719</ele>
        <time>2020-08-13T13:57:30.000Z</time>
      </trkpt>
      <trkpt lat="44.27899" lon="6.74625">
        <ele>2057.6000976562</ele>
        <time>2020-08-13T13:57:33.000Z</time>
      </trkpt>
      <trkpt lat="44.27891" lon="6.74626">
        <ele>2058</ele>
        <time>2020-08-13T13:57:37.000Z</time>
      </trkpt>
      <trkpt lat="44.27883" lon="6.74625">
        <ele>2058.8000488281</ele>
        <time>2020-08-13T13:57:41.000Z</time>
      </trkpt>
      <trkpt lat="44.27877" lon="6.74624">
        <ele>2059.3999023438</ele>
        <time>2020-08-13T13:57:44.000Z</time>
      </trkpt>
      <trkpt lat="44.27873" lon="6.74624">
        <ele>2059.8000488281</ele>
        <time>2020-08-13T13:57:46.000Z</time>
      </trkpt>
      <trkpt lat="44.27859" lon="6.74626">
        <ele>2060.3999023438</ele>
        <time>2020-08-13T13:57:53.000Z</time>
      </trkpt>
      <trkpt lat="44.27855" lon="6.74626">
        <ele>2060.8000488281</ele>
        <time>2020-08-13T13:57:55.000Z</time>
      </trkpt>
      <trkpt lat="44.27845" lon="6.74629">
        <ele>2061.8000488281</ele>
        <time>2020-08-13T13:58:00.000Z</time>
      </trkpt>
      <trkpt lat="44.27833" lon="6.74633">
        <ele>2062.8000488281</ele>
        <time>2020-08-13T13:58:06.000Z</time>
      </trkpt>
      <trkpt lat="44.27821" lon="6.74633">
        <ele>2064</ele>
        <time>2020-08-13T13:58:12.000Z</time>
      </trkpt>
      <trkpt lat="44.27811" lon="6.74635">
        <ele>2064.6000976562</ele>
        <time>2020-08-13T13:58:17.000Z</time>
      </trkpt>
      <trkpt lat="44.27803" lon="6.74637">
        <ele>2065</ele>
        <time>2020-08-13T13:58:21.000Z</time>
      </trkpt>
      <trkpt lat="44.27794" lon="6.74638">
        <ele>2065.8000488281</ele>
        <time>2020-08-13T13:58:25.000Z</time>
      </trkpt>
      <trkpt lat="44.27788" lon="6.74639">
        <ele>2066.1999511719</ele>
        <time>2020-08-13T13:58:28.000Z</time>
      </trkpt>
      <trkpt lat="44.27776" lon="6.74638">
        <ele>2067.1999511719</ele>
        <time>2020-08-13T13:58:34.000Z</time>
      </trkpt>
      <trkpt lat="44.27774" lon="6.74637">
        <ele>2067.1999511719</ele>
        <time>2020-08-13T13:58:35.000Z</time>
      </trkpt>
      <trkpt lat="44.27764" lon="6.74631">
        <ele>2068.1999511719</ele>
        <time>2020-08-13T13:58:40.000Z</time>
      </trkpt>
      <trkpt lat="44.2776" lon="6.74629">
        <ele>2068.6000976562</ele>
        <time>2020-08-13T13:58:42.000Z</time>
      </trkpt>
      <trkpt lat="44.27747" lon="6.74622">
        <ele>2069.3999023438</ele>
        <time>2020-08-13T13:58:49.000Z</time>
      </trkpt>
      <trkpt lat="44.27735" lon="6.74614">
        <ele>2070.3999023438</ele>
        <time>2020-08-13T13:58:56.000Z</time>
      </trkpt>
      <trkpt lat="44.27731" lon="6.74613">
        <ele>2070.6000976562</ele>
        <time>2020-08-13T13:58:58.000Z</time>
      </trkpt>
      <trkpt lat="44.27715" lon="6.74608">
        <ele>2071.3999023438</ele>
        <time>2020-08-13T13:59:05.000Z</time>
      </trkpt>
      <trkpt lat="44.27712" lon="6.74608">
        <ele>2071.3999023438</ele>
        <time>2020-08-13T13:59:06.000Z</time>
      </trkpt>
      <trkpt lat="44.277" lon="6.7461">
        <ele>2072.3999023438</ele>
        <time>2020-08-13T13:59:11.000Z</time>
      </trkpt>
      <trkpt lat="44.27691" lon="6.74613">
        <ele>2073.1999511719</ele>
        <time>2020-08-13T13:59:14.000Z</time>
      </trkpt>
      <trkpt lat="44.27684" lon="6.74617">
        <ele>2073.6000976562</ele>
        <time>2020-08-13T13:59:17.000Z</time>
      </trkpt>
      <trkpt lat="44.27671" lon="6.74621">
        <ele>2074.8000488281</ele>
        <time>2020-08-13T13:59:22.000Z</time>
      </trkpt>
      <trkpt lat="44.27653" lon="6.74624">
        <ele>2075.6000976562</ele>
        <time>2020-08-13T13:59:30.000Z</time>
      </trkpt>
      <trkpt lat="44.27651" lon="6.74623">
        <ele>2076</ele>
        <time>2020-08-13T13:59:31.000Z</time>
      </trkpt>
      <trkpt lat="44.27646" lon="6.74614">
        <ele>2076.8000488281</ele>
        <time>2020-08-13T13:59:35.000Z</time>
      </trkpt>
      <trkpt lat="44.27646" lon="6.74611">
        <ele>2077</ele>
        <time>2020-08-13T13:59:36.000Z</time>
      </trkpt>
      <trkpt lat="44.27648" lon="6.74597">
        <ele>2077.8000488281</ele>
        <time>2020-08-13T13:59:41.000Z</time>
      </trkpt>
      <trkpt lat="44.2765" lon="6.74592">
        <ele>2078.1999511719</ele>
        <time>2020-08-13T13:59:43.000Z</time>
      </trkpt>
      <trkpt lat="44.27657" lon="6.74584">
        <ele>2078.6000976562</ele>
        <time>2020-08-13T13:59:48.000Z</time>
      </trkpt>
      <trkpt lat="44.27665" lon="6.7458">
        <ele>2079.1999511719</ele>
        <time>2020-08-13T13:59:52.000Z</time>
      </trkpt>
      <trkpt lat="44.27672" lon="6.74577">
        <ele>2079.8000488281</ele>
        <time>2020-08-13T13:59:56.000Z</time>
      </trkpt>
      <trkpt lat="44.2768" lon="6.74574">
        <ele>2080.3999023438</ele>
        <time>2020-08-13T14:00:00.000Z</time>
      </trkpt>
      <trkpt lat="44.27692" lon="6.74569">
        <ele>2081.1999511719</ele>
        <time>2020-08-13T14:00:06.000Z</time>
      </trkpt>
      <trkpt lat="44.27696" lon="6.74567">
        <ele>2081.3999023438</ele>
        <time>2020-08-13T14:00:08.000Z</time>
      </trkpt>
      <trkpt lat="44.27709" lon="6.7456">
        <ele>2082.6000976562</ele>
        <time>2020-08-13T14:00:15.000Z</time>
      </trkpt>
      <trkpt lat="44.27722" lon="6.74555">
        <ele>2083.6000976562</ele>
        <time>2020-08-13T14:00:21.000Z</time>
      </trkpt>
      <trkpt lat="44.27731" lon="6.74549">
        <ele>2084.3999023438</ele>
        <time>2020-08-13T14:00:26.000Z</time>
      </trkpt>
      <trkpt lat="44.27739" lon="6.74545">
        <ele>2084.8000488281</ele>
        <time>2020-08-13T14:00:29.000Z</time>
      </trkpt>
      <trkpt lat="44.27749" lon="6.74539">
        <ele>2085.3999023438</ele>
        <time>2020-08-13T14:00:34.000Z</time>
      </trkpt>
      <trkpt lat="44.27755" lon="6.74536">
        <ele>2086</ele>
        <time>2020-08-13T14:00:36.000Z</time>
      </trkpt>
      <trkpt lat="44.27765" lon="6.74528">
        <ele>2087.1999511719</ele>
        <time>2020-08-13T14:00:41.000Z</time>
      </trkpt>
      <trkpt lat="44.27771" lon="6.74521">
        <ele>2087.8000488281</ele>
        <time>2020-08-13T14:00:44.000Z</time>
      </trkpt>
      <trkpt lat="44.27776" lon="6.74515">
        <ele>2088.1999511719</ele>
        <time>2020-08-13T14:00:47.000Z</time>
      </trkpt>
      <trkpt lat="44.27782" lon="6.74503">
        <ele>2088.8000488281</ele>
        <time>2020-08-13T14:00:52.000Z</time>
      </trkpt>
      <trkpt lat="44.27785" lon="6.74496">
        <ele>2089.1999511719</ele>
        <time>2020-08-13T14:00:54.000Z</time>
      </trkpt>
      <trkpt lat="44.27788" lon="6.74484">
        <ele>2090.6000976562</ele>
        <time>2020-08-13T14:00:58.000Z</time>
      </trkpt>
      <trkpt lat="44.27789" lon="6.74477">
        <ele>2091.1999511719</ele>
        <time>2020-08-13T14:01:00.000Z</time>
      </trkpt>
      <trkpt lat="44.27787" lon="6.74453">
        <ele>2091.6000976562</ele>
        <time>2020-08-13T14:01:07.000Z</time>
      </trkpt>
      <trkpt lat="44.27786" lon="6.7445">
        <ele>2092</ele>
        <time>2020-08-13T14:01:08.000Z</time>
      </trkpt>
      <trkpt lat="44.27782" lon="6.74442">
        <ele>2092.8000488281</ele>
        <time>2020-08-13T14:01:11.000Z</time>
      </trkpt>
      <trkpt lat="44.27779" lon="6.74436">
        <ele>2093.1999511719</ele>
        <time>2020-08-13T14:01:13.000Z</time>
      </trkpt>
      <trkpt lat="44.27773" lon="6.74428">
        <ele>2093.8000488281</ele>
        <time>2020-08-13T14:01:16.000Z</time>
      </trkpt>
      <trkpt lat="44.27763" lon="6.74418">
        <ele>2094.3999023438</ele>
        <time>2020-08-13T14:01:21.000Z</time>
      </trkpt>
      <trkpt lat="44.27749" lon="6.74411">
        <ele>2094.8000488281</ele>
        <time>2020-08-13T14:01:27.000Z</time>
      </trkpt>
      <trkpt lat="44.27747" lon="6.7441">
        <ele>2095</ele>
        <time>2020-08-13T14:01:28.000Z</time>
      </trkpt>
      <trkpt lat="44.27738" lon="6.74407">
        <ele>2096</ele>
        <time>2020-08-13T14:01:32.000Z</time>
      </trkpt>
      <trkpt lat="44.27733" lon="6.74407">
        <ele>2096.8000488281</ele>
        <time>2020-08-13T14:01:34.000Z</time>
      </trkpt>
      <trkpt lat="44.27729" lon="6.74411">
        <ele>2097.1999511719</ele>
        <time>2020-08-13T14:01:36.000Z</time>
      </trkpt>
      <trkpt lat="44.27722" lon="6.74417">
        <ele>2098.1999511719</ele>
        <time>2020-08-13T14:01:40.000Z</time>
      </trkpt>
      <trkpt lat="44.2772" lon="6.74418">
        <ele>2098.1999511719</ele>
        <time>2020-08-13T14:01:41.000Z</time>
      </trkpt>
      <trkpt lat="44.27712" lon="6.74428">
        <ele>2099.3999023438</ele>
        <time>2020-08-13T14:01:46.000Z</time>
      </trkpt>
      <trkpt lat="44.27706" lon="6.74437">
        <ele>2100.1999511719</ele>
        <time>2020-08-13T14:01:50.000Z</time>
      </trkpt>
      <trkpt lat="44.27703" lon="6.74441">
        <ele>2100.3999023438</ele>
        <time>2020-08-13T14:01:52.000Z</time>
      </trkpt>
      <trkpt lat="44.27695" lon="6.74454">
        <ele>2101.6000976562</ele>
        <time>2020-08-13T14:01:58.000Z</time>
      </trkpt>
      <trkpt lat="44.27693" lon="6.74458">
        <ele>2101.8000488281</ele>
        <time>2020-08-13T14:01:59.000Z</time>
      </trkpt>
      <trkpt lat="44.27685" lon="6.74469">
        <ele>2102.6000976562</ele>
        <time>2020-08-13T14:02:04.000Z</time>
      </trkpt>
      <trkpt lat="44.2768" lon="6.74475">
        <ele>2103</ele>
        <time>2020-08-13T14:02:07.000Z</time>
      </trkpt>
      <trkpt lat="44.27675" lon="6.7448">
        <ele>2103.6000976562</ele>
        <time>2020-08-13T14:02:10.000Z</time>
      </trkpt>
      <trkpt lat="44.27668" lon="6.74486">
        <ele>2104.6000976562</ele>
        <time>2020-08-13T14:02:14.000Z</time>
      </trkpt>
      <trkpt lat="44.27654" lon="6.74495">
        <ele>2105.8000488281</ele>
        <time>2020-08-13T14:02:21.000Z</time>
      </trkpt>
      <trkpt lat="44.27652" lon="6.74496">
        <ele>2105.8000488281</ele>
        <time>2020-08-13T14:02:22.000Z</time>
      </trkpt>
      <trkpt lat="44.27644" lon="6.74501">
        <ele>2106.8000488281</ele>
        <time>2020-08-13T14:02:26.000Z</time>
      </trkpt>
      <trkpt lat="44.27634" lon="6.74506">
        <ele>2107.6000976562</ele>
        <time>2020-08-13T14:02:31.000Z</time>
      </trkpt>
      <trkpt lat="44.27632" lon="6.74506">
        <ele>2108</ele>
        <time>2020-08-13T14:02:32.000Z</time>
      </trkpt>
      <trkpt lat="44.27621" lon="6.74508">
        <ele>2108.6000976562</ele>
        <time>2020-08-13T14:02:38.000Z</time>
      </trkpt>
      <trkpt lat="44.27615" lon="6.74508">
        <ele>2109.1999511719</ele>
        <time>2020-08-13T14:02:41.000Z</time>
      </trkpt>
      <trkpt lat="44.27607" lon="6.74509">
        <ele>2110.1999511719</ele>
        <time>2020-08-13T14:02:45.000Z</time>
      </trkpt>
      <trkpt lat="44.27601" lon="6.74508">
        <ele>2110.8000488281</ele>
        <time>2020-08-13T14:02:48.000Z</time>
      </trkpt>
      <trkpt lat="44.27592" lon="6.74507">
        <ele>2111.3999023438</ele>
        <time>2020-08-13T14:02:52.000Z</time>
      </trkpt>
      <trkpt lat="44.27583" lon="6.74507">
        <ele>2111.8000488281</ele>
        <time>2020-08-13T14:02:56.000Z</time>
      </trkpt>
      <trkpt lat="44.27573" lon="6.74507">
        <ele>2112.3999023438</ele>
        <time>2020-08-13T14:03:00.000Z</time>
      </trkpt>
      <trkpt lat="44.27567" lon="6.74506">
        <ele>2113.1999511719</ele>
        <time>2020-08-13T14:03:03.000Z</time>
      </trkpt>
      <trkpt lat="44.27562" lon="6.74505">
        <ele>2113.3999023438</ele>
        <time>2020-08-13T14:03:05.000Z</time>
      </trkpt>
      <trkpt lat="44.27554" lon="6.74503">
        <ele>2114.3999023438</ele>
        <time>2020-08-13T14:03:09.000Z</time>
      </trkpt>
      <trkpt lat="44.27545" lon="6.74502">
        <ele>2115.1999511719</ele>
        <time>2020-08-13T14:03:13.000Z</time>
      </trkpt>
      <trkpt lat="44.2754" lon="6.74501">
        <ele>2115.6000976562</ele>
        <time>2020-08-13T14:03:15.000Z</time>
      </trkpt>
      <trkpt lat="44.27527" lon="6.745">
        <ele>2116.6000976562</ele>
        <time>2020-08-13T14:03:21.000Z</time>
      </trkpt>
      <trkpt lat="44.27516" lon="6.74498">
        <ele>2117.6000976562</ele>
        <time>2020-08-13T14:03:26.000Z</time>
      </trkpt>
      <trkpt lat="44.27514" lon="6.74498">
        <ele>2117.8000488281</ele>
        <time>2020-08-13T14:03:27.000Z</time>
      </trkpt>
      <trkpt lat="44.27497" lon="6.74496">
        <ele>2119</ele>
        <time>2020-08-13T14:03:35.000Z</time>
      </trkpt>
      <trkpt lat="44.27492" lon="6.74496">
        <ele>2119.3999023438</ele>
        <time>2020-08-13T14:03:37.000Z</time>
      </trkpt>
      <trkpt lat="44.27486" lon="6.74498">
        <ele>2120</ele>
        <time>2020-08-13T14:03:40.000Z</time>
      </trkpt>
      <trkpt lat="44.27473" lon="6.74501">
        <ele>2121</ele>
        <time>2020-08-13T14:03:46.000Z</time>
      </trkpt>
      <trkpt lat="44.27471" lon="6.74502">
        <ele>2121.1999511719</ele>
        <time>2020-08-13T14:03:47.000Z</time>
      </trkpt>
      <trkpt lat="44.27454" lon="6.745">
        <ele>2122.1999511719</ele>
        <time>2020-08-13T14:03:55.000Z</time>
      </trkpt>
      <trkpt lat="44.27452" lon="6.745">
        <ele>2122.3999023438</ele>
        <time>2020-08-13T14:03:56.000Z</time>
      </trkpt>
      <trkpt lat="44.27442" lon="6.74497">
        <ele>2123.3999023438</ele>
        <time>2020-08-13T14:04:01.000Z</time>
      </trkpt>
      <trkpt lat="44.27431" lon="6.74491">
        <ele>2124</ele>
        <time>2020-08-13T14:04:06.000Z</time>
      </trkpt>
      <trkpt lat="44.27425" lon="6.74489">
        <ele>2124.3999023438</ele>
        <time>2020-08-13T14:04:09.000Z</time>
      </trkpt>
      <trkpt lat="44.27412" lon="6.74488">
        <ele>2125.6000976562</ele>
        <time>2020-08-13T14:04:14.000Z</time>
      </trkpt>
      <trkpt lat="44.27396" lon="6.74496">
        <ele>2126.1999511719</ele>
        <time>2020-08-13T14:04:21.000Z</time>
      </trkpt>
      <trkpt lat="44.27392" lon="6.74498">
        <ele>2126.6000976562</ele>
        <time>2020-08-13T14:04:23.000Z</time>
      </trkpt>
      <trkpt lat="44.2738" lon="6.74505">
        <ele>2127.8000488281</ele>
        <time>2020-08-13T14:04:29.000Z</time>
      </trkpt>
      <trkpt lat="44.27361" lon="6.74513">
        <ele>2128.8000488281</ele>
        <time>2020-08-13T14:04:38.000Z</time>
      </trkpt>
      <trkpt lat="44.27359" lon="6.74514">
        <ele>2129</ele>
        <time>2020-08-13T14:04:39.000Z</time>
      </trkpt>
      <trkpt lat="44.2735" lon="6.74514">
        <ele>2130</ele>
        <time>2020-08-13T14:04:43.000Z</time>
      </trkpt>
      <trkpt lat="44.27342" lon="6.74512">
        <ele>2130.6000976562</ele>
        <time>2020-08-13T14:04:47.000Z</time>
      </trkpt>
      <trkpt lat="44.27333" lon="6.74509">
        <ele>2131</ele>
        <time>2020-08-13T14:04:51.000Z</time>
      </trkpt>
      <trkpt lat="44.27324" lon="6.74505">
        <ele>2131.8000488281</ele>
        <time>2020-08-13T14:04:55.000Z</time>
      </trkpt>
      <trkpt lat="44.27318" lon="6.74502">
        <ele>2132.1999511719</ele>
        <time>2020-08-13T14:04:58.000Z</time>
      </trkpt>
      <trkpt lat="44.2731" lon="6.74497">
        <ele>2133.3999023438</ele>
        <time>2020-08-13T14:05:03.000Z</time>
      </trkpt>
      <trkpt lat="44.27306" lon="6.74495">
        <ele>2133.6000976562</ele>
        <time>2020-08-13T14:05:04.000Z</time>
      </trkpt>
      <trkpt lat="44.273" lon="6.74493">
        <ele>2134.6000976562</ele>
        <time>2020-08-13T14:05:07.000Z</time>
      </trkpt>
      <trkpt lat="44.27289" lon="6.74487">
        <ele>2134.8000488281</ele>
        <time>2020-08-13T14:05:12.000Z</time>
      </trkpt>
      <trkpt lat="44.27278" lon="6.74485">
        <ele>2135.6000976562</ele>
        <time>2020-08-13T14:05:17.000Z</time>
      </trkpt>
      <trkpt lat="44.2727" lon="6.74485">
        <ele>2136.3999023438</ele>
        <time>2020-08-13T14:05:21.000Z</time>
      </trkpt>
      <trkpt lat="44.27263" lon="6.74485">
        <ele>2136.8000488281</ele>
        <time>2020-08-13T14:05:24.000Z</time>
      </trkpt>
      <trkpt lat="44.27251" lon="6.74485">
        <ele>2138</ele>
        <time>2020-08-13T14:05:29.000Z</time>
      </trkpt>
      <trkpt lat="44.27248" lon="6.74486">
        <ele>2138.1999511719</ele>
        <time>2020-08-13T14:05:30.000Z</time>
      </trkpt>
      <trkpt lat="44.27239" lon="6.74488">
        <ele>2139</ele>
        <time>2020-08-13T14:05:34.000Z</time>
      </trkpt>
      <trkpt lat="44.27231" lon="6.74489">
        <ele>2139.6000976562</ele>
        <time>2020-08-13T14:05:38.000Z</time>
      </trkpt>
      <trkpt lat="44.27226" lon="6.7449">
        <ele>2140</ele>
        <time>2020-08-13T14:05:40.000Z</time>
      </trkpt>
      <trkpt lat="44.27215" lon="6.74492">
        <ele>2141</ele>
        <time>2020-08-13T14:05:45.000Z</time>
      </trkpt>
      <trkpt lat="44.27211" lon="6.74494">
        <ele>2141.3999023438</ele>
        <time>2020-08-13T14:05:47.000Z</time>
      </trkpt>
      <trkpt lat="44.27204" lon="6.74495">
        <ele>2142.1999511719</ele>
        <time>2020-08-13T14:05:50.000Z</time>
      </trkpt>
      <trkpt lat="44.27196" lon="6.74498">
        <ele>2142.8000488281</ele>
        <time>2020-08-13T14:05:54.000Z</time>
      </trkpt>
      <trkpt lat="44.27192" lon="6.745">
        <ele>2143.1999511719</ele>
        <time>2020-08-13T14:05:56.000Z</time>
      </trkpt>
      <trkpt lat="44.27179" lon="6.74508">
        <ele>2144.1999511719</ele>
        <time>2020-08-13T14:06:02.000Z</time>
      </trkpt>
      <trkpt lat="44.27177" lon="6.74509">
        <ele>2144.3999023438</ele>
        <time>2020-08-13T14:06:03.000Z</time>
      </trkpt>
      <trkpt lat="44.27166" lon="6.74521">
        <ele>2145.3999023438</ele>
        <time>2020-08-13T14:06:09.000Z</time>
      </trkpt>
      <trkpt lat="44.27164" lon="6.74523">
        <ele>2145.6000976562</ele>
        <time>2020-08-13T14:06:10.000Z</time>
      </trkpt>
      <trkpt lat="44.27158" lon="6.74534">
        <ele>2146.6000976562</ele>
        <time>2020-08-13T14:06:14.000Z</time>
      </trkpt>
      <trkpt lat="44.27155" lon="6.74539">
        <ele>2146.8000488281</ele>
        <time>2020-08-13T14:06:16.000Z</time>
      </trkpt>
      <trkpt lat="44.2715" lon="6.74558">
        <ele>2147.6000976562</ele>
        <time>2020-08-13T14:06:22.000Z</time>
      </trkpt>
      <trkpt lat="44.27149" lon="6.7456">
        <ele>2147.6000976562</ele>
        <time>2020-08-13T14:06:23.000Z</time>
      </trkpt>
      <trkpt lat="44.27147" lon="6.74573">
        <ele>2148.6000976562</ele>
        <time>2020-08-13T14:06:27.000Z</time>
      </trkpt>
      <trkpt lat="44.27145" lon="6.74585">
        <ele>2149.3999023438</ele>
        <time>2020-08-13T14:06:31.000Z</time>
      </trkpt>
      <trkpt lat="44.27144" lon="6.74591">
        <ele>2149.8000488281</ele>
        <time>2020-08-13T14:06:33.000Z</time>
      </trkpt>
      <trkpt lat="44.27138" lon="6.74608">
        <ele>2151</ele>
        <time>2020-08-13T14:06:39.000Z</time>
      </trkpt>
      <trkpt lat="44.27128" lon="6.74624">
        <ele>2152</ele>
        <time>2020-08-13T14:06:46.000Z</time>
      </trkpt>
      <trkpt lat="44.27126" lon="6.74627">
        <ele>2152.1999511719</ele>
        <time>2020-08-13T14:06:47.000Z</time>
      </trkpt>
      <trkpt lat="44.2712" lon="6.74634">
        <ele>2153</ele>
        <time>2020-08-13T14:06:51.000Z</time>
      </trkpt>
      <trkpt lat="44.27114" lon="6.74638">
        <ele>2153.3999023438</ele>
        <time>2020-08-13T14:06:54.000Z</time>
      </trkpt>
      <trkpt lat="44.27109" lon="6.74643">
        <ele>2154</ele>
        <time>2020-08-13T14:06:57.000Z</time>
      </trkpt>
      <trkpt lat="44.27098" lon="6.74653">
        <ele>2155.1999511719</ele>
        <time>2020-08-13T14:07:03.000Z</time>
      </trkpt>
      <trkpt lat="44.27096" lon="6.74654">
        <ele>2155.1999511719</ele>
        <time>2020-08-13T14:07:04.000Z</time>
      </trkpt>
      <trkpt lat="44.27089" lon="6.74661">
        <ele>2156.1999511719</ele>
        <time>2020-08-13T14:07:08.000Z</time>
      </trkpt>
      <trkpt lat="44.27079" lon="6.74669">
        <ele>2157.1999511719</ele>
        <time>2020-08-13T14:07:13.000Z</time>
      </trkpt>
      <trkpt lat="44.2707" lon="6.74674">
        <ele>2158.3999023438</ele>
        <time>2020-08-13T14:07:18.000Z</time>
      </trkpt>
      <trkpt lat="44.27064" lon="6.74678">
        <ele>2159.1999511719</ele>
        <time>2020-08-13T14:07:21.000Z</time>
      </trkpt>
      <trkpt lat="44.27062" lon="6.74679">
        <ele>2159.3999023438</ele>
        <time>2020-08-13T14:07:22.000Z</time>
      </trkpt>
      <trkpt lat="44.27051" lon="6.74682">
        <ele>2160.3999023438</ele>
        <time>2020-08-13T14:07:27.000Z</time>
      </trkpt>
      <trkpt lat="44.27049" lon="6.74682">
        <ele>2160.6000976562</ele>
        <time>2020-08-13T14:07:28.000Z</time>
      </trkpt>
      <trkpt lat="44.27038" lon="6.74684">
        <ele>2161.6000976562</ele>
        <time>2020-08-13T14:07:34.000Z</time>
      </trkpt>
      <trkpt lat="44.27028" lon="6.74684">
        <ele>2162.6000976562</ele>
        <time>2020-08-13T14:07:39.000Z</time>
      </trkpt>
      <trkpt lat="44.27026" lon="6.74683">
        <ele>2162.6000976562</ele>
        <time>2020-08-13T14:07:40.000Z</time>
      </trkpt>
      <trkpt lat="44.27016" lon="6.74682">
        <ele>2163.8000488281</ele>
        <time>2020-08-13T14:07:45.000Z</time>
      </trkpt>
      <trkpt lat="44.27014" lon="6.74682">
        <ele>2164</ele>
        <time>2020-08-13T14:07:46.000Z</time>
      </trkpt>
      <trkpt lat="44.27003" lon="6.74677">
        <ele>2165</ele>
        <time>2020-08-13T14:07:52.000Z</time>
      </trkpt>
      <trkpt lat="44.26999" lon="6.74676">
        <ele>2165.3999023438</ele>
        <time>2020-08-13T14:07:54.000Z</time>
      </trkpt>
      <trkpt lat="44.26986" lon="6.74672">
        <ele>2166</ele>
        <time>2020-08-13T14:08:00.000Z</time>
      </trkpt>
      <trkpt lat="44.2698" lon="6.7467">
        <ele>2166.3999023438</ele>
        <time>2020-08-13T14:08:03.000Z</time>
      </trkpt>
      <trkpt lat="44.26966" lon="6.74665">
        <ele>2167</ele>
        <time>2020-08-13T14:08:09.000Z</time>
      </trkpt>
      <trkpt lat="44.26959" lon="6.7466">
        <ele>2168</ele>
        <time>2020-08-13T14:08:13.000Z</time>
      </trkpt>
      <trkpt lat="44.26957" lon="6.74658">
        <ele>2168.1999511719</ele>
        <time>2020-08-13T14:08:14.000Z</time>
      </trkpt>
      <trkpt lat="44.26947" lon="6.74647">
        <ele>2169.3999023438</ele>
        <time>2020-08-13T14:08:20.000Z</time>
      </trkpt>
      <trkpt lat="44.26943" lon="6.74643">
        <ele>2169.6000976562</ele>
        <time>2020-08-13T14:08:22.000Z</time>
      </trkpt>
      <trkpt lat="44.26937" lon="6.74635">
        <ele>2170.6000976562</ele>
        <time>2020-08-13T14:08:26.000Z</time>
      </trkpt>
      <trkpt lat="44.2693" lon="6.74629">
        <ele>2171.3999023438</ele>
        <time>2020-08-13T14:08:30.000Z</time>
      </trkpt>
      <trkpt lat="44.26928" lon="6.74628">
        <ele>2171.6000976562</ele>
        <time>2020-08-13T14:08:31.000Z</time>
      </trkpt>
      <trkpt lat="44.26915" lon="6.74625">
        <ele>2172</ele>
        <time>2020-08-13T14:08:37.000Z</time>
      </trkpt>
      <trkpt lat="44.26907" lon="6.74625">
        <ele>2172.6000976562</ele>
        <time>2020-08-13T14:08:41.000Z</time>
      </trkpt>
      <trkpt lat="44.26899" lon="6.74628">
        <ele>2173.3999023438</ele>
        <time>2020-08-13T14:08:45.000Z</time>
      </trkpt>
      <trkpt lat="44.26894" lon="6.74629">
        <ele>2173.8000488281</ele>
        <time>2020-08-13T14:08:47.000Z</time>
      </trkpt>
      <trkpt lat="44.26881" lon="6.74632">
        <ele>2174.6000976562</ele>
        <time>2020-08-13T14:08:53.000Z</time>
      </trkpt>
      <trkpt lat="44.26879" lon="6.74633">
        <ele>2175</ele>
        <time>2020-08-13T14:08:54.000Z</time>
      </trkpt>
      <trkpt lat="44.26861" lon="6.74638">
        <ele>2175.8000488281</ele>
        <time>2020-08-13T14:09:02.000Z</time>
      </trkpt>
      <trkpt lat="44.26854" lon="6.7464">
        <ele>2176</ele>
        <time>2020-08-13T14:09:05.000Z</time>
      </trkpt>
      <trkpt lat="44.26844" lon="6.74642">
        <ele>2176.6000976562</ele>
        <time>2020-08-13T14:09:09.000Z</time>
      </trkpt>
      <trkpt lat="44.26837" lon="6.74644">
        <ele>2177</ele>
        <time>2020-08-13T14:09:12.000Z</time>
      </trkpt>
      <trkpt lat="44.26826" lon="6.74646">
        <ele>2177.8000488281</ele>
        <time>2020-08-13T14:09:17.000Z</time>
      </trkpt>
      <trkpt lat="44.26816" lon="6.74646">
        <ele>2178.1999511719</ele>
        <time>2020-08-13T14:09:21.000Z</time>
      </trkpt>
      <trkpt lat="44.26814" lon="6.74645">
        <ele>2178.1999511719</ele>
        <time>2020-08-13T14:09:22.000Z</time>
      </trkpt>
      <trkpt lat="44.268" lon="6.74644">
        <ele>2179.3999023438</ele>
        <time>2020-08-13T14:09:29.000Z</time>
      </trkpt>
      <trkpt lat="44.26798" lon="6.74644">
        <ele>2179.6000976562</ele>
        <time>2020-08-13T14:09:30.000Z</time>
      </trkpt>
      <trkpt lat="44.26785" lon="6.74642">
        <ele>2180.3999023438</ele>
        <time>2020-08-13T14:09:36.000Z</time>
      </trkpt>
      <trkpt lat="44.26781" lon="6.74641">
        <ele>2181</ele>
        <time>2020-08-13T14:09:38.000Z</time>
      </trkpt>
      <trkpt lat="44.26774" lon="6.7464">
        <ele>2181.6000976562</ele>
        <time>2020-08-13T14:09:41.000Z</time>
      </trkpt>
      <trkpt lat="44.26764" lon="6.74636">
        <ele>2182.6000976562</ele>
        <time>2020-08-13T14:09:46.000Z</time>
      </trkpt>
      <trkpt lat="44.26762" lon="6.74635">
        <ele>2182.8000488281</ele>
        <time>2020-08-13T14:09:47.000Z</time>
      </trkpt>
      <trkpt lat="44.26752" lon="6.7463">
        <ele>2183.8000488281</ele>
        <time>2020-08-13T14:09:52.000Z</time>
      </trkpt>
      <trkpt lat="44.26748" lon="6.74627">
        <ele>2184.1999511719</ele>
        <time>2020-08-13T14:09:54.000Z</time>
      </trkpt>
      <trkpt lat="44.26738" lon="6.74621">
        <ele>2185</ele>
        <time>2020-08-13T14:09:59.000Z</time>
      </trkpt>
      <trkpt lat="44.26728" lon="6.74616">
        <ele>2185.8000488281</ele>
        <time>2020-08-13T14:10:04.000Z</time>
      </trkpt>
      <trkpt lat="44.26726" lon="6.74615">
        <ele>2186</ele>
        <time>2020-08-13T14:10:05.000Z</time>
      </trkpt>
      <trkpt lat="44.26714" lon="6.74611">
        <ele>2187.1999511719</ele>
        <time>2020-08-13T14:10:11.000Z</time>
      </trkpt>
      <trkpt lat="44.26707" lon="6.74609">
        <ele>2187.6000976562</ele>
        <time>2020-08-13T14:10:14.000Z</time>
      </trkpt>
      <trkpt lat="44.26701" lon="6.74608">
        <ele>2188.1999511719</ele>
        <time>2020-08-13T14:10:17.000Z</time>
      </trkpt>
      <trkpt lat="44.26688" lon="6.74608">
        <ele>2189.1999511719</ele>
        <time>2020-08-13T14:10:23.000Z</time>
      </trkpt>
      <trkpt lat="44.26676" lon="6.74613">
        <ele>2190.1999511719</ele>
        <time>2020-08-13T14:10:29.000Z</time>
      </trkpt>
      <trkpt lat="44.26674" lon="6.74613">
        <ele>2190.3999023438</ele>
        <time>2020-08-13T14:10:30.000Z</time>
      </trkpt>
      <trkpt lat="44.26662" lon="6.74617">
        <ele>2191.3999023438</ele>
        <time>2020-08-13T14:10:36.000Z</time>
      </trkpt>
      <trkpt lat="44.26661" lon="6.74617">
        <ele>2191.6000976562</ele>
        <time>2020-08-13T14:10:37.000Z</time>
      </trkpt>
      <trkpt lat="44.26652" lon="6.74618">
        <ele>2192.8000488281</ele>
        <time>2020-08-13T14:10:41.000Z</time>
      </trkpt>
      <trkpt lat="44.26644" lon="6.74617">
        <ele>2193.1999511719</ele>
        <time>2020-08-13T14:10:45.000Z</time>
      </trkpt>
      <trkpt lat="44.26636" lon="6.74615">
        <ele>2193.8000488281</ele>
        <time>2020-08-13T14:10:49.000Z</time>
      </trkpt>
      <trkpt lat="44.26625" lon="6.74614">
        <ele>2194.8000488281</ele>
        <time>2020-08-13T14:10:54.000Z</time>
      </trkpt>
      <trkpt lat="44.26623" lon="6.74613">
        <ele>2195</ele>
        <time>2020-08-13T14:10:55.000Z</time>
      </trkpt>
      <trkpt lat="44.26612" lon="6.74611">
        <ele>2196</ele>
        <time>2020-08-13T14:11:00.000Z</time>
      </trkpt>
      <trkpt lat="44.26606" lon="6.74609">
        <ele>2196.3999023438</ele>
        <time>2020-08-13T14:11:03.000Z</time>
      </trkpt>
      <trkpt lat="44.26596" lon="6.74605">
        <ele>2197.3999023438</ele>
        <time>2020-08-13T14:11:08.000Z</time>
      </trkpt>
      <trkpt lat="44.2659" lon="6.74603">
        <ele>2197.8000488281</ele>
        <time>2020-08-13T14:11:11.000Z</time>
      </trkpt>
      <trkpt lat="44.26582" lon="6.74601">
        <ele>2198.3999023438</ele>
        <time>2020-08-13T14:11:15.000Z</time>
      </trkpt>
      <trkpt lat="44.26576" lon="6.746">
        <ele>2199</ele>
        <time>2020-08-13T14:11:18.000Z</time>
      </trkpt>
      <trkpt lat="44.26568" lon="6.746">
        <ele>2199.6000976562</ele>
        <time>2020-08-13T14:11:22.000Z</time>
      </trkpt>
      <trkpt lat="44.26556" lon="6.74601">
        <ele>2200.6000976562</ele>
        <time>2020-08-13T14:11:28.000Z</time>
      </trkpt>
      <trkpt lat="44.26543" lon="6.74601">
        <ele>2201.6000976562</ele>
        <time>2020-08-13T14:11:34.000Z</time>
      </trkpt>
      <trkpt lat="44.26539" lon="6.74602">
        <ele>2202</ele>
        <time>2020-08-13T14:11:36.000Z</time>
      </trkpt>
      <trkpt lat="44.26533" lon="6.74603">
        <ele>2202.8000488281</ele>
        <time>2020-08-13T14:11:39.000Z</time>
      </trkpt>
      <trkpt lat="44.26515" lon="6.74605">
        <ele>2204</ele>
        <time>2020-08-13T14:11:47.000Z</time>
      </trkpt>
      <trkpt lat="44.26513" lon="6.74605">
        <ele>2204.1999511719</ele>
        <time>2020-08-13T14:11:48.000Z</time>
      </trkpt>
      <trkpt lat="44.26496" lon="6.74608">
        <ele>2205</ele>
        <time>2020-08-13T14:11:56.000Z</time>
      </trkpt>
      <trkpt lat="44.26479" lon="6.74614">
        <ele>2206</ele>
        <time>2020-08-13T14:12:04.000Z</time>
      </trkpt>
      <trkpt lat="44.26475" lon="6.74615">
        <ele>2206.1999511719</ele>
        <time>2020-08-13T14:12:06.000Z</time>
      </trkpt>
      <trkpt lat="44.26463" lon="6.74616">
        <ele>2207</ele>
        <time>2020-08-13T14:12:11.000Z</time>
      </trkpt>
      <trkpt lat="44.26455" lon="6.74616">
        <ele>2207.8000488281</ele>
        <time>2020-08-13T14:12:15.000Z</time>
      </trkpt>
      <trkpt lat="44.2645" lon="6.74616">
        <ele>2208.1999511719</ele>
        <time>2020-08-13T14:12:17.000Z</time>
      </trkpt>
      <trkpt lat="44.26434" lon="6.74613">
        <ele>2208.8000488281</ele>
        <time>2020-08-13T14:12:24.000Z</time>
      </trkpt>
      <trkpt lat="44.2643" lon="6.74613">
        <ele>2209.3999023438</ele>
        <time>2020-08-13T14:12:26.000Z</time>
      </trkpt>
      <trkpt lat="44.26419" lon="6.74612">
        <ele>2210.3999023438</ele>
        <time>2020-08-13T14:12:31.000Z</time>
      </trkpt>
      <trkpt lat="44.26417" lon="6.74612">
        <ele>2210.6000976562</ele>
        <time>2020-08-13T14:12:32.000Z</time>
      </trkpt>
      <trkpt lat="44.26406" lon="6.74611">
        <ele>2211.3999023438</ele>
        <time>2020-08-13T14:12:37.000Z</time>
      </trkpt>
      <trkpt lat="44.26401" lon="6.74609">
        <ele>2211.8000488281</ele>
        <time>2020-08-13T14:12:40.000Z</time>
      </trkpt>
      <trkpt lat="44.26396" lon="6.74608">
        <ele>2212</ele>
        <time>2020-08-13T14:12:42.000Z</time>
      </trkpt>
      <trkpt lat="44.26392" lon="6.74605">
        <ele>2212.3999023438</ele>
        <time>2020-08-13T14:12:44.000Z</time>
      </trkpt>
      <trkpt lat="44.26378" lon="6.74595">
        <ele>2213.3999023438</ele>
        <time>2020-08-13T14:12:52.000Z</time>
      </trkpt>
      <trkpt lat="44.26376" lon="6.74594">
        <ele>2213.6000976562</ele>
        <time>2020-08-13T14:12:53.000Z</time>
      </trkpt>
      <trkpt lat="44.26365" lon="6.7458">
        <ele>2214.6000976562</ele>
        <time>2020-08-13T14:12:59.000Z</time>
      </trkpt>
      <trkpt lat="44.2636" lon="6.7457">
        <ele>2215.6000976562</ele>
        <time>2020-08-13T14:13:04.000Z</time>
      </trkpt>
      <trkpt lat="44.26359" lon="6.74564">
        <ele>2216</ele>
        <time>2020-08-13T14:13:06.000Z</time>
      </trkpt>
      <trkpt lat="44.26359" lon="6.74553">
        <ele>2216.6000976562</ele>
        <time>2020-08-13T14:13:10.000Z</time>
      </trkpt>
      <trkpt lat="44.26361" lon="6.74542">
        <ele>2217.3999023438</ele>
        <time>2020-08-13T14:13:14.000Z</time>
      </trkpt>
      <trkpt lat="44.26362" lon="6.74536">
        <ele>2217.6000976562</ele>
        <time>2020-08-13T14:13:16.000Z</time>
      </trkpt>
      <trkpt lat="44.26371" lon="6.74521">
        <ele>2218.3999023438</ele>
        <time>2020-08-13T14:13:23.000Z</time>
      </trkpt>
      <trkpt lat="44.26376" lon="6.74518">
        <ele>2218.8000488281</ele>
        <time>2020-08-13T14:13:25.000Z</time>
      </trkpt>
      <trkpt lat="44.26381" lon="6.74514">
        <ele>2219</ele>
        <time>2020-08-13T14:13:28.000Z</time>
      </trkpt>
      <trkpt lat="44.26389" lon="6.7451">
        <ele>2219.8000488281</ele>
        <time>2020-08-13T14:13:32.000Z</time>
      </trkpt>
      <trkpt lat="44.264" lon="6.74508">
        <ele>2220.8000488281</ele>
        <time>2020-08-13T14:13:37.000Z</time>
      </trkpt>
      <trkpt lat="44.26402" lon="6.74508">
        <ele>2221</ele>
        <time>2020-08-13T14:13:38.000Z</time>
      </trkpt>
      <trkpt lat="44.26415" lon="6.74508">
        <ele>2221.8000488281</ele>
        <time>2020-08-13T14:13:44.000Z</time>
      </trkpt>
      <trkpt lat="44.26424" lon="6.74508">
        <ele>2222.3999023438</ele>
        <time>2020-08-13T14:13:48.000Z</time>
      </trkpt>
      <trkpt lat="44.26433" lon="6.74505">
        <ele>2223</ele>
        <time>2020-08-13T14:13:52.000Z</time>
      </trkpt>
      <trkpt lat="44.26439" lon="6.745">
        <ele>2223.1999511719</ele>
        <time>2020-08-13T14:13:55.000Z</time>
      </trkpt>
      <trkpt lat="44.26443" lon="6.74485">
        <ele>2223.8000488281</ele>
        <time>2020-08-13T14:14:00.000Z</time>
      </trkpt>
      <trkpt lat="44.26442" lon="6.74475">
        <ele>2224</ele>
        <time>2020-08-13T14:14:03.000Z</time>
      </trkpt>
      <trkpt lat="44.26439" lon="6.74466">
        <ele>2224.1999511719</ele>
        <time>2020-08-13T14:14:06.000Z</time>
      </trkpt>
      <trkpt lat="44.26429" lon="6.7445">
        <ele>2225.1999511719</ele>
        <time>2020-08-13T14:14:13.000Z</time>
      </trkpt>
      <trkpt lat="44.26427" lon="6.74447">
        <ele>2225.1999511719</ele>
        <time>2020-08-13T14:14:14.000Z</time>
      </trkpt>
      <trkpt lat="44.26416" lon="6.74435">
        <ele>2226.1999511719</ele>
        <time>2020-08-13T14:14:20.000Z</time>
      </trkpt>
      <trkpt lat="44.26413" lon="6.74431">
        <ele>2226.3999023438</ele>
        <time>2020-08-13T14:14:22.000Z</time>
      </trkpt>
      <trkpt lat="44.26411" lon="6.74423">
        <ele>2227.1999511719</ele>
        <time>2020-08-13T14:14:25.000Z</time>
      </trkpt>
      <trkpt lat="44.26409" lon="6.74411">
        <ele>2228</ele>
        <time>2020-08-13T14:14:29.000Z</time>
      </trkpt>
      <trkpt lat="44.26409" lon="6.74408">
        <ele>2228.1999511719</ele>
        <time>2020-08-13T14:14:30.000Z</time>
      </trkpt>
      <trkpt lat="44.26409" lon="6.74385">
        <ele>2229.3999023438</ele>
        <time>2020-08-13T14:14:37.000Z</time>
      </trkpt>
      <trkpt lat="44.26408" lon="6.74383">
        <ele>2229.3999023438</ele>
        <time>2020-08-13T14:14:38.000Z</time>
      </trkpt>
      <trkpt lat="44.26406" lon="6.74365">
        <ele>2230.6000976562</ele>
        <time>2020-08-13T14:14:44.000Z</time>
      </trkpt>
      <trkpt lat="44.26404" lon="6.74357">
        <ele>2231.1999511719</ele>
        <time>2020-08-13T14:14:47.000Z</time>
      </trkpt>
      <trkpt lat="44.26401" lon="6.74346">
        <ele>2231.6000976562</ele>
        <time>2020-08-13T14:14:51.000Z</time>
      </trkpt>
      <trkpt lat="44.26395" lon="6.7433">
        <ele>2232.6000976562</ele>
        <time>2020-08-13T14:14:57.000Z</time>
      </trkpt>
      <trkpt lat="44.26386" lon="6.74311">
        <ele>2233.8000488281</ele>
        <time>2020-08-13T14:15:04.000Z</time>
      </trkpt>
      <trkpt lat="44.26381" lon="6.74302">
        <ele>2235</ele>
        <time>2020-08-13T14:15:08.000Z</time>
      </trkpt>
      <trkpt lat="44.26377" lon="6.74291">
        <ele>2235.6000976562</ele>
        <time>2020-08-13T14:15:12.000Z</time>
      </trkpt>
      <trkpt lat="44.26375" lon="6.74283">
        <ele>2236.1999511719</ele>
        <time>2020-08-13T14:15:15.000Z</time>
      </trkpt>
      <trkpt lat="44.26372" lon="6.74267">
        <ele>2237.3999023438</ele>
        <time>2020-08-13T14:15:21.000Z</time>
      </trkpt>
      <trkpt lat="44.26371" lon="6.7425">
        <ele>2238.3999023438</ele>
        <time>2020-08-13T14:15:27.000Z</time>
      </trkpt>
      <trkpt lat="44.26371" lon="6.74238">
        <ele>2239</ele>
        <time>2020-08-13T14:15:31.000Z</time>
      </trkpt>
      <trkpt lat="44.26371" lon="6.74232">
        <ele>2239.3999023438</ele>
        <time>2020-08-13T14:15:33.000Z</time>
      </trkpt>
      <trkpt lat="44.26365" lon="6.74217">
        <ele>2239.8000488281</ele>
        <time>2020-08-13T14:15:38.000Z</time>
      </trkpt>
      <trkpt lat="44.26352" lon="6.74211">
        <ele>2240</ele>
        <time>2020-08-13T14:15:43.000Z</time>
      </trkpt>
      <trkpt lat="44.26339" lon="6.74215">
        <ele>2240.3999023438</ele>
        <time>2020-08-13T14:15:48.000Z</time>
      </trkpt>
      <trkpt lat="44.26337" lon="6.74218">
        <ele>2240.6000976562</ele>
        <time>2020-08-13T14:15:49.000Z</time>
      </trkpt>
      <trkpt lat="44.26328" lon="6.74234">
        <ele>2241.3999023438</ele>
        <time>2020-08-13T14:15:55.000Z</time>
      </trkpt>
      <trkpt lat="44.26326" lon="6.74239">
        <ele>2241.6000976562</ele>
        <time>2020-08-13T14:15:57.000Z</time>
      </trkpt>
      <trkpt lat="44.26315" lon="6.74249">
        <ele>2242.6000976562</ele>
        <time>2020-08-13T14:16:03.000Z</time>
      </trkpt>
      <trkpt lat="44.26312" lon="6.74251">
        <ele>2243</ele>
        <time>2020-08-13T14:16:05.000Z</time>
      </trkpt>
      <trkpt lat="44.26301" lon="6.74253">
        <ele>2243.6000976562</ele>
        <time>2020-08-13T14:16:10.000Z</time>
      </trkpt>
      <trkpt lat="44.26296" lon="6.74253">
        <ele>2243.8000488281</ele>
        <time>2020-08-13T14:16:12.000Z</time>
      </trkpt>
      <trkpt lat="44.26286" lon="6.74254">
        <ele>2244.8000488281</ele>
        <time>2020-08-13T14:16:16.000Z</time>
      </trkpt>
      <trkpt lat="44.26278" lon="6.74254">
        <ele>2245.6000976562</ele>
        <time>2020-08-13T14:16:20.000Z</time>
      </trkpt>
      <trkpt lat="44.26276" lon="6.74254">
        <ele>2246.1999511719</ele>
        <time>2020-08-13T14:16:21.000Z</time>
      </trkpt>
      <trkpt lat="44.26263" lon="6.74254">
        <ele>2247.1999511719</ele>
        <time>2020-08-13T14:16:27.000Z</time>
      </trkpt>
      <trkpt lat="44.26255" lon="6.74255">
        <ele>2247.8000488281</ele>
        <time>2020-08-13T14:16:31.000Z</time>
      </trkpt>
      <trkpt lat="44.26249" lon="6.74254">
        <ele>2248.1999511719</ele>
        <time>2020-08-13T14:16:34.000Z</time>
      </trkpt>
      <trkpt lat="44.26235" lon="6.74253">
        <ele>2249.3999023438</ele>
        <time>2020-08-13T14:16:40.000Z</time>
      </trkpt>
      <trkpt lat="44.26233" lon="6.74252">
        <ele>2249.6000976562</ele>
        <time>2020-08-13T14:16:41.000Z</time>
      </trkpt>
      <trkpt lat="44.26219" lon="6.7425">
        <ele>2250.6000976562</ele>
        <time>2020-08-13T14:16:47.000Z</time>
      </trkpt>
      <trkpt lat="44.26215" lon="6.74249">
        <ele>2250.8000488281</ele>
        <time>2020-08-13T14:16:49.000Z</time>
      </trkpt>
      <trkpt lat="44.26202" lon="6.74245">
        <ele>2251.8000488281</ele>
        <time>2020-08-13T14:16:55.000Z</time>
      </trkpt>
      <trkpt lat="44.26198" lon="6.74244">
        <ele>2252.1999511719</ele>
        <time>2020-08-13T14:16:57.000Z</time>
      </trkpt>
      <trkpt lat="44.26186" lon="6.74241">
        <ele>2252.8000488281</ele>
        <time>2020-08-13T14:17:03.000Z</time>
      </trkpt>
      <trkpt lat="44.26177" lon="6.74241">
        <ele>2253.6000976562</ele>
        <time>2020-08-13T14:17:07.000Z</time>
      </trkpt>
      <trkpt lat="44.26175" lon="6.74241">
        <ele>2254</ele>
        <time>2020-08-13T14:17:08.000Z</time>
      </trkpt>
      <trkpt lat="44.26162" lon="6.74242">
        <ele>2254.6000976562</ele>
        <time>2020-08-13T14:17:14.000Z</time>
      </trkpt>
      <trkpt lat="44.2616" lon="6.74242">
        <ele>2255</ele>
        <time>2020-08-13T14:17:15.000Z</time>
      </trkpt>
      <trkpt lat="44.26148" lon="6.74246">
        <ele>2256</ele>
        <time>2020-08-13T14:17:21.000Z</time>
      </trkpt>
      <trkpt lat="44.26142" lon="6.74249">
        <ele>2256.3999023438</ele>
        <time>2020-08-13T14:17:24.000Z</time>
      </trkpt>
      <trkpt lat="44.26135" lon="6.74252">
        <ele>2257</ele>
        <time>2020-08-13T14:17:27.000Z</time>
      </trkpt>
      <trkpt lat="44.26123" lon="6.74257">
        <ele>2258</ele>
        <time>2020-08-13T14:17:33.000Z</time>
      </trkpt>
      <trkpt lat="44.26121" lon="6.74259">
        <ele>2258</ele>
        <time>2020-08-13T14:17:34.000Z</time>
      </trkpt>
      <trkpt lat="44.26109" lon="6.74265">
        <ele>2259</ele>
        <time>2020-08-13T14:17:40.000Z</time>
      </trkpt>
      <trkpt lat="44.26103" lon="6.74268">
        <ele>2259.6000976562</ele>
        <time>2020-08-13T14:17:43.000Z</time>
      </trkpt>
      <trkpt lat="44.26091" lon="6.74276">
        <ele>2260.1999511719</ele>
        <time>2020-08-13T14:17:49.000Z</time>
      </trkpt>
      <trkpt lat="44.26088" lon="6.74278">
        <ele>2260.6000976562</ele>
        <time>2020-08-13T14:17:51.000Z</time>
      </trkpt>
      <trkpt lat="44.26075" lon="6.74286">
        <ele>2261.3999023438</ele>
        <time>2020-08-13T14:17:57.000Z</time>
      </trkpt>
      <trkpt lat="44.26069" lon="6.74291">
        <ele>2262</ele>
        <time>2020-08-13T14:18:00.000Z</time>
      </trkpt>
      <trkpt lat="44.26061" lon="6.74297">
        <ele>2262.6000976562</ele>
        <time>2020-08-13T14:18:04.000Z</time>
      </trkpt>
      <trkpt lat="44.26052" lon="6.74307">
        <ele>2263.1999511719</ele>
        <time>2020-08-13T14:18:09.000Z</time>
      </trkpt>
      <trkpt lat="44.26048" lon="6.74311">
        <ele>2263.6000976562</ele>
        <time>2020-08-13T14:18:11.000Z</time>
      </trkpt>
      <trkpt lat="44.26038" lon="6.74322">
        <ele>2264.6000976562</ele>
        <time>2020-08-13T14:18:17.000Z</time>
      </trkpt>
      <trkpt lat="44.26036" lon="6.74324">
        <ele>2265</ele>
        <time>2020-08-13T14:18:18.000Z</time>
      </trkpt>
      <trkpt lat="44.26031" lon="6.74331">
        <ele>2265.6000976562</ele>
        <time>2020-08-13T14:18:21.000Z</time>
      </trkpt>
      <trkpt lat="44.26026" lon="6.7434">
        <ele>2266.6000976562</ele>
        <time>2020-08-13T14:18:25.000Z</time>
      </trkpt>
      <trkpt lat="44.26015" lon="6.74351">
        <ele>2268</ele>
        <time>2020-08-13T14:18:31.000Z</time>
      </trkpt>
      <trkpt lat="44.26014" lon="6.74353">
        <ele>2268.1999511719</ele>
        <time>2020-08-13T14:18:32.000Z</time>
      </trkpt>
      <trkpt lat="44.26001" lon="6.74365">
        <ele>2269</ele>
        <time>2020-08-13T14:18:39.000Z</time>
      </trkpt>
      <trkpt lat="44.25997" lon="6.74367">
        <ele>2269.6000976562</ele>
        <time>2020-08-13T14:18:41.000Z</time>
      </trkpt>
      <trkpt lat="44.25993" lon="6.74369">
        <ele>2270.1999511719</ele>
        <time>2020-08-13T14:18:43.000Z</time>
      </trkpt>
      <trkpt lat="44.25981" lon="6.74374">
        <ele>2270.8000488281</ele>
        <time>2020-08-13T14:18:49.000Z</time>
      </trkpt>
      <trkpt lat="44.25977" lon="6.74375">
        <ele>2271.1999511719</ele>
        <time>2020-08-13T14:18:51.000Z</time>
      </trkpt>
      <trkpt lat="44.25966" lon="6.74379">
        <ele>2272.1999511719</ele>
        <time>2020-08-13T14:18:56.000Z</time>
      </trkpt>
      <trkpt lat="44.25965" lon="6.74379">
        <ele>2272.3999023438</ele>
        <time>2020-08-13T14:18:57.000Z</time>
      </trkpt>
      <trkpt lat="44.25952" lon="6.74385">
        <ele>2273.3999023438</ele>
        <time>2020-08-13T14:19:03.000Z</time>
      </trkpt>
      <trkpt lat="44.25946" lon="6.74388">
        <ele>2273.8000488281</ele>
        <time>2020-08-13T14:19:06.000Z</time>
      </trkpt>
      <trkpt lat="44.25938" lon="6.7439">
        <ele>2274.6000976562</ele>
        <time>2020-08-13T14:19:10.000Z</time>
      </trkpt>
      <trkpt lat="44.25929" lon="6.74393">
        <ele>2275</ele>
        <time>2020-08-13T14:19:15.000Z</time>
      </trkpt>
      <trkpt lat="44.25925" lon="6.74394">
        <ele>2275.6000976562</ele>
        <time>2020-08-13T14:19:17.000Z</time>
      </trkpt>
      <trkpt lat="44.25914" lon="6.74397">
        <ele>2276.1999511719</ele>
        <time>2020-08-13T14:19:24.000Z</time>
      </trkpt>
      <trkpt lat="44.25913" lon="6.74397">
        <ele>2276.6000976562</ele>
        <time>2020-08-13T14:19:29.000Z</time>
      </trkpt>
      <trkpt lat="44.25913" lon="6.74397">
        <ele>2276.6000976562</ele>
        <time>2020-08-13T14:19:30.000Z</time>
      </trkpt>
      <trkpt lat="44.25913" lon="6.74397">
        <ele>2276.8000488281</ele>
        <time>2020-08-13T14:19:37.000Z</time>
      </trkpt>
      <trkpt lat="44.25913" lon="6.74397">
        <ele>2277</ele>
        <time>2020-08-13T14:19:45.000Z</time>
      </trkpt>
      <trkpt lat="44.25913" lon="6.74397">
        <ele>2277.1999511719</ele>
        <time>2020-08-13T14:19:57.000Z</time>
      </trkpt>
      <trkpt lat="44.25913" lon="6.74397">
        <ele>2276.8000488281</ele>
        <time>2020-08-13T14:20:03.000Z</time>
      </trkpt>
      <trkpt lat="44.25913" lon="6.74398">
        <ele>2276.6000976562</ele>
        <time>2020-08-13T14:20:10.000Z</time>
      </trkpt>
      <trkpt lat="44.25913" lon="6.74398">
        <ele>2276.6000976562</ele>
        <time>2020-08-13T14:20:18.000Z</time>
      </trkpt>
      <trkpt lat="44.25913" lon="6.74398">
        <ele>2276.1999511719</ele>
        <time>2020-08-13T14:20:29.000Z</time>
      </trkpt>
      <trkpt lat="44.25914" lon="6.74398">
        <ele>2276.1999511719</ele>
        <time>2020-08-13T14:20:37.000Z</time>
      </trkpt>
      <trkpt lat="44.25914" lon="6.74398">
        <ele>2277</ele>
        <time>2020-08-13T14:20:46.000Z</time>
      </trkpt>
      <trkpt lat="44.25914" lon="6.74398">
        <ele>2276.8000488281</ele>
        <time>2020-08-13T14:20:56.000Z</time>
      </trkpt>
      <trkpt lat="44.25913" lon="6.74398">
        <ele>2276.1999511719</ele>
        <time>2020-08-13T14:21:05.000Z</time>
      </trkpt>
      <trkpt lat="44.25914" lon="6.74399">
        <ele>2276.8000488281</ele>
        <time>2020-08-13T14:21:10.000Z</time>
      </trkpt>
      <trkpt lat="44.25913" lon="6.74399">
        <ele>2277</ele>
        <time>2020-08-13T14:21:15.000Z</time>
      </trkpt>
      <trkpt lat="44.25913" lon="6.744">
        <ele>2276.6000976562</ele>
        <time>2020-08-13T14:21:21.000Z</time>
      </trkpt>
      <trkpt lat="44.25913" lon="6.74399">
        <ele>2276.6000976562</ele>
        <time>2020-08-13T14:21:28.000Z</time>
      </trkpt>
      <trkpt lat="44.25913" lon="6.74399">
        <ele>2276.8000488281</ele>
        <time>2020-08-13T14:21:36.000Z</time>
      </trkpt>
      <trkpt lat="44.25913" lon="6.74399">
        <ele>2277</ele>
        <time>2020-08-13T14:21:43.000Z</time>
      </trkpt>
      <trkpt lat="44.25913" lon="6.74398">
        <ele>2277.3999023438</ele>
        <time>2020-08-13T14:21:53.000Z</time>
      </trkpt>
      <trkpt lat="44.25913" lon="6.74398">
        <ele>2277.3999023438</ele>
        <time>2020-08-13T14:22:04.000Z</time>
      </trkpt>
      <trkpt lat="44.25913" lon="6.74397">
        <ele>2277.1999511719</ele>
        <time>2020-08-13T14:22:07.000Z</time>
      </trkpt>
      <trkpt lat="44.25913" lon="6.74397">
        <ele>2277</ele>
        <time>2020-08-13T14:22:10.000Z</time>
      </trkpt>
      <trkpt lat="44.25914" lon="6.74397">
        <ele>2276.8000488281</ele>
        <time>2020-08-13T14:22:19.000Z</time>
      </trkpt>
      <trkpt lat="44.25914" lon="6.74397">
        <ele>2277.1999511719</ele>
        <time>2020-08-13T14:22:25.000Z</time>
      </trkpt>
      <trkpt lat="44.25913" lon="6.74394">
        <ele>2277.3999023438</ele>
        <time>2020-08-13T14:22:28.000Z</time>
      </trkpt>
      <trkpt lat="44.25914" lon="6.74395">
        <ele>2277.3999023438</ele>
        <time>2020-08-13T14:22:30.000Z</time>
      </trkpt>
      <trkpt lat="44.25914" lon="6.74394">
        <ele>2277</ele>
        <time>2020-08-13T14:22:37.000Z</time>
      </trkpt>
      <trkpt lat="44.25913" lon="6.74396">
        <ele>2277</ele>
        <time>2020-08-13T14:22:44.000Z</time>
      </trkpt>
      <trkpt lat="44.25913" lon="6.74396">
        <ele>2277.3999023438</ele>
        <time>2020-08-13T14:22:52.000Z</time>
      </trkpt>
      <trkpt lat="44.25913" lon="6.74396">
        <ele>2277.3999023438</ele>
        <time>2020-08-13T14:23:03.000Z</time>
      </trkpt>
      <trkpt lat="44.25913" lon="6.74396">
        <ele>2277.1999511719</ele>
        <time>2020-08-13T14:23:15.000Z</time>
      </trkpt>
      <trkpt lat="44.25913" lon="6.74395">
        <ele>2277.1999511719</ele>
        <time>2020-08-13T14:23:24.000Z</time>
      </trkpt>
      <trkpt lat="44.25913" lon="6.74395">
        <ele>2277.3999023438</ele>
        <time>2020-08-13T14:23:31.000Z</time>
      </trkpt>
      <trkpt lat="44.25913" lon="6.74395">
        <ele>2277</ele>
        <time>2020-08-13T14:23:38.000Z</time>
      </trkpt>
      <trkpt lat="44.25913" lon="6.74395">
        <ele>2277</ele>
        <time>2020-08-13T14:23:47.000Z</time>
      </trkpt>
      <trkpt lat="44.25913" lon="6.74395">
        <ele>2277.1999511719</ele>
        <time>2020-08-13T14:23:54.000Z</time>
      </trkpt>
      <trkpt lat="44.25914" lon="6.74397">
        <ele>2277.3999023438</ele>
        <time>2020-08-13T14:24:00.000Z</time>
      </trkpt>
      <trkpt lat="44.25915" lon="6.74397">
        <ele>2277.3999023438</ele>
        <time>2020-08-13T14:24:11.000Z</time>
      </trkpt>
      <trkpt lat="44.25915" lon="6.74397">
        <ele>2277.6000976562</ele>
        <time>2020-08-13T14:24:12.000Z</time>
      </trkpt>
      <trkpt lat="44.25915" lon="6.74397">
        <ele>2278.1999511719</ele>
        <time>2020-08-13T14:24:25.000Z</time>
      </trkpt>
      <trkpt lat="44.25913" lon="6.74397">
        <ele>2277.3999023438</ele>
        <time>2020-08-13T14:24:36.000Z</time>
      </trkpt>
      <trkpt lat="44.25913" lon="6.74396">
        <ele>2277.8000488281</ele>
        <time>2020-08-13T14:24:44.000Z</time>
      </trkpt>
      <trkpt lat="44.25912" lon="6.74399">
        <ele>2277.8000488281</ele>
        <time>2020-08-13T14:24:49.000Z</time>
      </trkpt>
      <trkpt lat="44.25912" lon="6.74399">
        <ele>2277.6000976562</ele>
        <time>2020-08-13T14:24:56.000Z</time>
      </trkpt>
      <trkpt lat="44.25907" lon="6.74404">
        <ele>2277.6000976562</ele>
        <time>2020-08-13T14:25:02.000Z</time>
      </trkpt>
      <trkpt lat="44.25899" lon="6.74407">
        <ele>2277.1999511719</ele>
        <time>2020-08-13T14:25:06.000Z</time>
      </trkpt>
      <trkpt lat="44.25885" lon="6.74418">
        <ele>2277.3999023438</ele>
        <time>2020-08-13T14:25:12.000Z</time>
      </trkpt>
      <trkpt lat="44.25866" lon="6.74434">
        <ele>2276.8000488281</ele>
        <time>2020-08-13T14:25:18.000Z</time>
      </trkpt>
      <trkpt lat="44.25857" lon="6.74443">
        <ele>2276</ele>
        <time>2020-08-13T14:25:20.000Z</time>
      </trkpt>
      <trkpt lat="44.25843" lon="6.74458">
        <ele>2275.3999023438</ele>
        <time>2020-08-13T14:25:23.000Z</time>
      </trkpt>
      <trkpt lat="44.25811" lon="6.74487">
        <ele>2274.1999511719</ele>
        <time>2020-08-13T14:25:28.000Z</time>
      </trkpt>
      <trkpt lat="44.25786" lon="6.74507">
        <ele>2272.8000488281</ele>
        <time>2020-08-13T14:25:31.000Z</time>
      </trkpt>
      <trkpt lat="44.25769" lon="6.74517">
        <ele>2272</ele>
        <time>2020-08-13T14:25:33.000Z</time>
      </trkpt>
      <trkpt lat="44.25761" lon="6.74521">
        <ele>2271.1999511719</ele>
        <time>2020-08-13T14:25:34.000Z</time>
      </trkpt>
      <trkpt lat="44.25735" lon="6.74529">
        <ele>2269.3999023438</ele>
        <time>2020-08-13T14:25:37.000Z</time>
      </trkpt>
      <trkpt lat="44.25727" lon="6.74529">
        <ele>2268.6000976562</ele>
        <time>2020-08-13T14:25:38.000Z</time>
      </trkpt>
      <trkpt lat="44.25717" lon="6.74528">
        <ele>2267.8000488281</ele>
        <time>2020-08-13T14:25:39.000Z</time>
      </trkpt>
      <trkpt lat="44.25701" lon="6.7452">
        <ele>2266</ele>
        <time>2020-08-13T14:25:41.000Z</time>
      </trkpt>
      <trkpt lat="44.25677" lon="6.74512">
        <ele>2264.3999023438</ele>
        <time>2020-08-13T14:25:44.000Z</time>
      </trkpt>
      <trkpt lat="44.25668" lon="6.74514">
        <ele>2263.6000976562</ele>
        <time>2020-08-13T14:25:45.000Z</time>
      </trkpt>
      <trkpt lat="44.25661" lon="6.74519">
        <ele>2263.3999023438</ele>
        <time>2020-08-13T14:25:46.000Z</time>
      </trkpt>
      <trkpt lat="44.25645" lon="6.74531">
        <ele>2262</ele>
        <time>2020-08-13T14:25:48.000Z</time>
      </trkpt>
      <trkpt lat="44.25637" lon="6.74538">
        <ele>2261.8000488281</ele>
        <time>2020-08-13T14:25:49.000Z</time>
      </trkpt>
      <trkpt lat="44.25622" lon="6.74552">
        <ele>2260.8000488281</ele>
        <time>2020-08-13T14:25:51.000Z</time>
      </trkpt>
      <trkpt lat="44.25609" lon="6.74564">
        <ele>2259.3999023438</ele>
        <time>2020-08-13T14:25:53.000Z</time>
      </trkpt>
      <trkpt lat="44.256" lon="6.7457">
        <ele>2258.3999023438</ele>
        <time>2020-08-13T14:25:54.000Z</time>
      </trkpt>
      <trkpt lat="44.25592" lon="6.74573">
        <ele>2257.3999023438</ele>
        <time>2020-08-13T14:25:55.000Z</time>
      </trkpt>
      <trkpt lat="44.25584" lon="6.74574">
        <ele>2256</ele>
        <time>2020-08-13T14:25:56.000Z</time>
      </trkpt>
      <trkpt lat="44.25575" lon="6.74573">
        <ele>2255</ele>
        <time>2020-08-13T14:25:57.000Z</time>
      </trkpt>
      <trkpt lat="44.25559" lon="6.74566">
        <ele>2253.6000976562</ele>
        <time>2020-08-13T14:25:59.000Z</time>
      </trkpt>
      <trkpt lat="44.25549" lon="6.74561">
        <ele>2253.1999511719</ele>
        <time>2020-08-13T14:26:00.000Z</time>
      </trkpt>
      <trkpt lat="44.2554" lon="6.74555">
        <ele>2252.6000976562</ele>
        <time>2020-08-13T14:26:01.000Z</time>
      </trkpt>
      <trkpt lat="44.25532" lon="6.7455">
        <ele>2252.1999511719</ele>
        <time>2020-08-13T14:26:02.000Z</time>
      </trkpt>
      <trkpt lat="44.25525" lon="6.74545">
        <ele>2251.3999023438</ele>
        <time>2020-08-13T14:26:03.000Z</time>
      </trkpt>
      <trkpt lat="44.25511" lon="6.74532">
        <ele>2250</ele>
        <time>2020-08-13T14:26:05.000Z</time>
      </trkpt>
      <trkpt lat="44.25502" lon="6.74515">
        <ele>2248</ele>
        <time>2020-08-13T14:26:07.000Z</time>
      </trkpt>
      <trkpt lat="44.255" lon="6.74507">
        <ele>2246.8000488281</ele>
        <time>2020-08-13T14:26:08.000Z</time>
      </trkpt>
      <trkpt lat="44.25495" lon="6.74498">
        <ele>2245.8000488281</ele>
        <time>2020-08-13T14:26:09.000Z</time>
      </trkpt>
      <trkpt lat="44.25491" lon="6.74491">
        <ele>2245</ele>
        <time>2020-08-13T14:26:10.000Z</time>
      </trkpt>
      <trkpt lat="44.25485" lon="6.74488">
        <ele>2244.1999511719</ele>
        <time>2020-08-13T14:26:11.000Z</time>
      </trkpt>
      <trkpt lat="44.2548" lon="6.74488">
        <ele>2243.8000488281</ele>
        <time>2020-08-13T14:26:12.000Z</time>
      </trkpt>
      <trkpt lat="44.25471" lon="6.74496">
        <ele>2243</ele>
        <time>2020-08-13T14:26:14.000Z</time>
      </trkpt>
      <trkpt lat="44.2547" lon="6.74504">
        <ele>2242.6000976562</ele>
        <time>2020-08-13T14:26:15.000Z</time>
      </trkpt>
      <trkpt lat="44.25476" lon="6.74524">
        <ele>2242.1999511719</ele>
        <time>2020-08-13T14:26:18.000Z</time>
      </trkpt>
      <trkpt lat="44.25492" lon="6.74541">
        <ele>2242</ele>
        <time>2020-08-13T14:26:21.000Z</time>
      </trkpt>
      <trkpt lat="44.25497" lon="6.74547">
        <ele>2241.8000488281</ele>
        <time>2020-08-13T14:26:22.000Z</time>
      </trkpt>
      <trkpt lat="44.25516" lon="6.74567">
        <ele>2240.8000488281</ele>
        <time>2020-08-13T14:26:25.000Z</time>
      </trkpt>
      <trkpt lat="44.25532" lon="6.74583">
        <ele>2239.3999023438</ele>
        <time>2020-08-13T14:26:28.000Z</time>
      </trkpt>
      <trkpt lat="44.25538" lon="6.74591">
        <ele>2238.8000488281</ele>
        <time>2020-08-13T14:26:29.000Z</time>
      </trkpt>
      <trkpt lat="44.25542" lon="6.74598">
        <ele>2238</ele>
        <time>2020-08-13T14:26:30.000Z</time>
      </trkpt>
      <trkpt lat="44.25547" lon="6.74609">
        <ele>2236.8000488281</ele>
        <time>2020-08-13T14:26:31.000Z</time>
      </trkpt>
      <trkpt lat="44.25551" lon="6.74619">
        <ele>2235.8000488281</ele>
        <time>2020-08-13T14:26:32.000Z</time>
      </trkpt>
      <trkpt lat="44.25553" lon="6.74628">
        <ele>2235.1999511719</ele>
        <time>2020-08-13T14:26:33.000Z</time>
      </trkpt>
      <trkpt lat="44.25555" lon="6.74638">
        <ele>2234.1999511719</ele>
        <time>2020-08-13T14:26:34.000Z</time>
      </trkpt>
      <trkpt lat="44.25556" lon="6.7466">
        <ele>2232.8000488281</ele>
        <time>2020-08-13T14:26:36.000Z</time>
      </trkpt>
      <trkpt lat="44.25552" lon="6.74681">
        <ele>2231.1999511719</ele>
        <time>2020-08-13T14:26:38.000Z</time>
      </trkpt>
      <trkpt lat="44.25548" lon="6.74703">
        <ele>2230</ele>
        <time>2020-08-13T14:26:40.000Z</time>
      </trkpt>
      <trkpt lat="44.25547" lon="6.74722">
        <ele>2229</ele>
        <time>2020-08-13T14:26:42.000Z</time>
      </trkpt>
      <trkpt lat="44.25548" lon="6.74742">
        <ele>2227.8000488281</ele>
        <time>2020-08-13T14:26:44.000Z</time>
      </trkpt>
      <trkpt lat="44.2555" lon="6.74762">
        <ele>2226.6000976562</ele>
        <time>2020-08-13T14:26:46.000Z</time>
      </trkpt>
      <trkpt lat="44.25553" lon="6.74782">
        <ele>2225.3999023438</ele>
        <time>2020-08-13T14:26:48.000Z</time>
      </trkpt>
      <trkpt lat="44.25556" lon="6.74803">
        <ele>2224</ele>
        <time>2020-08-13T14:26:50.000Z</time>
      </trkpt>
      <trkpt lat="44.25557" lon="6.74813">
        <ele>2223.3999023438</ele>
        <time>2020-08-13T14:26:51.000Z</time>
      </trkpt>
      <trkpt lat="44.25559" lon="6.74823">
        <ele>2222.8000488281</ele>
        <time>2020-08-13T14:26:52.000Z</time>
      </trkpt>
      <trkpt lat="44.25561" lon="6.74846">
        <ele>2220.8000488281</ele>
        <time>2020-08-13T14:26:54.000Z</time>
      </trkpt>
      <trkpt lat="44.25561" lon="6.74868">
        <ele>2219.1999511719</ele>
        <time>2020-08-13T14:26:56.000Z</time>
      </trkpt>
      <trkpt lat="44.2556" lon="6.74879">
        <ele>2218.3999023438</ele>
        <time>2020-08-13T14:26:57.000Z</time>
      </trkpt>
      <trkpt lat="44.25559" lon="6.7489">
        <ele>2218</ele>
        <time>2020-08-13T14:26:58.000Z</time>
      </trkpt>
      <trkpt lat="44.25555" lon="6.74915">
        <ele>2216.3999023438</ele>
        <time>2020-08-13T14:27:00.000Z</time>
      </trkpt>
      <trkpt lat="44.25553" lon="6.74927">
        <ele>2215.1999511719</ele>
        <time>2020-08-13T14:27:01.000Z</time>
      </trkpt>
      <trkpt lat="44.25552" lon="6.74938">
        <ele>2214.3999023438</ele>
        <time>2020-08-13T14:27:02.000Z</time>
      </trkpt>
      <trkpt lat="44.25552" lon="6.74948">
        <ele>2213.8000488281</ele>
        <time>2020-08-13T14:27:03.000Z</time>
      </trkpt>
      <trkpt lat="44.25552" lon="6.74969">
        <ele>2212.1999511719</ele>
        <time>2020-08-13T14:27:05.000Z</time>
      </trkpt>
      <trkpt lat="44.25554" lon="6.74979">
        <ele>2211.6000976562</ele>
        <time>2020-08-13T14:27:06.000Z</time>
      </trkpt>
      <trkpt lat="44.25557" lon="6.74989">
        <ele>2210.8000488281</ele>
        <time>2020-08-13T14:27:07.000Z</time>
      </trkpt>
      <trkpt lat="44.25563" lon="6.7501">
        <ele>2209.3999023438</ele>
        <time>2020-08-13T14:27:09.000Z</time>
      </trkpt>
      <trkpt lat="44.25568" lon="6.75031">
        <ele>2208</ele>
        <time>2020-08-13T14:27:11.000Z</time>
      </trkpt>
      <trkpt lat="44.25569" lon="6.75053">
        <ele>2206.3999023438</ele>
        <time>2020-08-13T14:27:13.000Z</time>
      </trkpt>
      <trkpt lat="44.25568" lon="6.75064">
        <ele>2205.8000488281</ele>
        <time>2020-08-13T14:27:14.000Z</time>
      </trkpt>
      <trkpt lat="44.25565" lon="6.75073">
        <ele>2205.1999511719</ele>
        <time>2020-08-13T14:27:15.000Z</time>
      </trkpt>
      <trkpt lat="44.25559" lon="6.75091">
        <ele>2204</ele>
        <time>2020-08-13T14:27:17.000Z</time>
      </trkpt>
      <trkpt lat="44.25557" lon="6.751">
        <ele>2204</ele>
        <time>2020-08-13T14:27:18.000Z</time>
      </trkpt>
      <trkpt lat="44.25555" lon="6.7511">
        <ele>2203.6000976562</ele>
        <time>2020-08-13T14:27:19.000Z</time>
      </trkpt>
      <trkpt lat="44.25557" lon="6.7513">
        <ele>2202.6000976562</ele>
        <time>2020-08-13T14:27:21.000Z</time>
      </trkpt>
      <trkpt lat="44.25569" lon="6.7515">
        <ele>2201.3999023438</ele>
        <time>2020-08-13T14:27:24.000Z</time>
      </trkpt>
      <trkpt lat="44.25586" lon="6.7516">
        <ele>2200</ele>
        <time>2020-08-13T14:27:27.000Z</time>
      </trkpt>
      <trkpt lat="44.2559" lon="6.75162">
        <ele>2199.6000976562</ele>
        <time>2020-08-13T14:27:28.000Z</time>
      </trkpt>
      <trkpt lat="44.25594" lon="6.75167">
        <ele>2198.8000488281</ele>
        <time>2020-08-13T14:27:29.000Z</time>
      </trkpt>
      <trkpt lat="44.25594" lon="6.75174">
        <ele>2198.3999023438</ele>
        <time>2020-08-13T14:27:30.000Z</time>
      </trkpt>
      <trkpt lat="44.25586" lon="6.75182">
        <ele>2197.3999023438</ele>
        <time>2020-08-13T14:27:32.000Z</time>
      </trkpt>
      <trkpt lat="44.25575" lon="6.75177">
        <ele>2196.6000976562</ele>
        <time>2020-08-13T14:27:34.000Z</time>
      </trkpt>
      <trkpt lat="44.2557" lon="6.75173">
        <ele>2196.1999511719</ele>
        <time>2020-08-13T14:27:35.000Z</time>
      </trkpt>
      <trkpt lat="44.25556" lon="6.75155">
        <ele>2195.1999511719</ele>
        <time>2020-08-13T14:27:38.000Z</time>
      </trkpt>
      <trkpt lat="44.25542" lon="6.75119">
        <ele>2194.1999511719</ele>
        <time>2020-08-13T14:27:42.000Z</time>
      </trkpt>
      <trkpt lat="44.2554" lon="6.75098">
        <ele>2192.8000488281</ele>
        <time>2020-08-13T14:27:44.000Z</time>
      </trkpt>
      <trkpt lat="44.25539" lon="6.75087">
        <ele>2191.6000976562</ele>
        <time>2020-08-13T14:27:45.000Z</time>
      </trkpt>
      <trkpt lat="44.25536" lon="6.75077">
        <ele>2190.6000976562</ele>
        <time>2020-08-13T14:27:46.000Z</time>
      </trkpt>
      <trkpt lat="44.2553" lon="6.75058">
        <ele>2189.1999511719</ele>
        <time>2020-08-13T14:27:48.000Z</time>
      </trkpt>
      <trkpt lat="44.25519" lon="6.75027">
        <ele>2187.8000488281</ele>
        <time>2020-08-13T14:27:51.000Z</time>
      </trkpt>
      <trkpt lat="44.25515" lon="6.75006">
        <ele>2186.3999023438</ele>
        <time>2020-08-13T14:27:53.000Z</time>
      </trkpt>
      <trkpt lat="44.2551" lon="6.74981">
        <ele>2185.1999511719</ele>
        <time>2020-08-13T14:27:55.000Z</time>
      </trkpt>
      <trkpt lat="44.25509" lon="6.74968">
        <ele>2184.3999023438</ele>
        <time>2020-08-13T14:27:56.000Z</time>
      </trkpt>
      <trkpt lat="44.25507" lon="6.74957">
        <ele>2183.8000488281</ele>
        <time>2020-08-13T14:27:57.000Z</time>
      </trkpt>
      <trkpt lat="44.25503" lon="6.74932">
        <ele>2182.6000976562</ele>
        <time>2020-08-13T14:27:59.000Z</time>
      </trkpt>
      <trkpt lat="44.25499" lon="6.74908">
        <ele>2181.1999511719</ele>
        <time>2020-08-13T14:28:01.000Z</time>
      </trkpt>
      <trkpt lat="44.25494" lon="6.74885">
        <ele>2179.8000488281</ele>
        <time>2020-08-13T14:28:03.000Z</time>
      </trkpt>
      <trkpt lat="44.2549" lon="6.74874">
        <ele>2179.1999511719</ele>
        <time>2020-08-13T14:28:04.000Z</time>
      </trkpt>
      <trkpt lat="44.25485" lon="6.74863">
        <ele>2178.6000976562</ele>
        <time>2020-08-13T14:28:05.000Z</time>
      </trkpt>
      <trkpt lat="44.25473" lon="6.74843">
        <ele>2177</ele>
        <time>2020-08-13T14:28:07.000Z</time>
      </trkpt>
      <trkpt lat="44.25467" lon="6.74834">
        <ele>2176.6000976562</ele>
        <time>2020-08-13T14:28:08.000Z</time>
      </trkpt>
      <trkpt lat="44.25461" lon="6.74823">
        <ele>2175.6000976562</ele>
        <time>2020-08-13T14:28:09.000Z</time>
      </trkpt>
      <trkpt lat="44.2545" lon="6.74804">
        <ele>2174.3999023438</ele>
        <time>2020-08-13T14:28:11.000Z</time>
      </trkpt>
      <trkpt lat="44.25439" lon="6.74786">
        <ele>2172.6000976562</ele>
        <time>2020-08-13T14:28:13.000Z</time>
      </trkpt>
      <trkpt lat="44.25428" lon="6.74767">
        <ele>2171.1999511719</ele>
        <time>2020-08-13T14:28:15.000Z</time>
      </trkpt>
      <trkpt lat="44.25423" lon="6.74759">
        <ele>2170.3999023438</ele>
        <time>2020-08-13T14:28:16.000Z</time>
      </trkpt>
      <trkpt lat="44.25416" lon="6.74752">
        <ele>2169.8000488281</ele>
        <time>2020-08-13T14:28:17.000Z</time>
      </trkpt>
      <trkpt lat="44.25401" lon="6.74743">
        <ele>2167.6000976562</ele>
        <time>2020-08-13T14:28:19.000Z</time>
      </trkpt>
      <trkpt lat="44.25386" lon="6.74743">
        <ele>2166</ele>
        <time>2020-08-13T14:28:21.000Z</time>
      </trkpt>
      <trkpt lat="44.25379" lon="6.74745">
        <ele>2165.3999023438</ele>
        <time>2020-08-13T14:28:22.000Z</time>
      </trkpt>
      <trkpt lat="44.25365" lon="6.74753">
        <ele>2164.3999023438</ele>
        <time>2020-08-13T14:28:24.000Z</time>
      </trkpt>
      <trkpt lat="44.25358" lon="6.74757">
        <ele>2163.8000488281</ele>
        <time>2020-08-13T14:28:25.000Z</time>
      </trkpt>
      <trkpt lat="44.25352" lon="6.74761">
        <ele>2163</ele>
        <time>2020-08-13T14:28:26.000Z</time>
      </trkpt>
      <trkpt lat="44.25341" lon="6.7477">
        <ele>2161.1999511719</ele>
        <time>2020-08-13T14:28:28.000Z</time>
      </trkpt>
      <trkpt lat="44.25334" lon="6.74785">
        <ele>2159.6000976562</ele>
        <time>2020-08-13T14:28:30.000Z</time>
      </trkpt>
      <trkpt lat="44.25337" lon="6.74799">
        <ele>2158.3999023438</ele>
        <time>2020-08-13T14:28:32.000Z</time>
      </trkpt>
      <trkpt lat="44.25347" lon="6.74804">
        <ele>2157.8000488281</ele>
        <time>2020-08-13T14:28:34.000Z</time>
      </trkpt>
      <trkpt lat="44.25353" lon="6.74803">
        <ele>2157.3999023438</ele>
        <time>2020-08-13T14:28:35.000Z</time>
      </trkpt>
      <trkpt lat="44.25365" lon="6.74797">
        <ele>2156.8000488281</ele>
        <time>2020-08-13T14:28:37.000Z</time>
      </trkpt>
      <trkpt lat="44.25379" lon="6.74792">
        <ele>2156.1999511719</ele>
        <time>2020-08-13T14:28:39.000Z</time>
      </trkpt>
      <trkpt lat="44.25387" lon="6.74791">
        <ele>2155.8000488281</ele>
        <time>2020-08-13T14:28:40.000Z</time>
      </trkpt>
      <trkpt lat="44.25395" lon="6.74792">
        <ele>2155.1999511719</ele>
        <time>2020-08-13T14:28:41.000Z</time>
      </trkpt>
      <trkpt lat="44.25402" lon="6.74795">
        <ele>2154.8000488281</ele>
        <time>2020-08-13T14:28:42.000Z</time>
      </trkpt>
      <trkpt lat="44.25415" lon="6.74808">
        <ele>2154</ele>
        <time>2020-08-13T14:28:44.000Z</time>
      </trkpt>
      <trkpt lat="44.25419" lon="6.74816">
        <ele>2153.3999023438</ele>
        <time>2020-08-13T14:28:45.000Z</time>
      </trkpt>
      <trkpt lat="44.25427" lon="6.74835">
        <ele>2152.8000488281</ele>
        <time>2020-08-13T14:28:47.000Z</time>
      </trkpt>
      <trkpt lat="44.25431" lon="6.74844">
        <ele>2152.6000976562</ele>
        <time>2020-08-13T14:28:48.000Z</time>
      </trkpt>
      <trkpt lat="44.25435" lon="6.74855">
        <ele>2152</ele>
        <time>2020-08-13T14:28:49.000Z</time>
      </trkpt>
      <trkpt lat="44.25443" lon="6.74877">
        <ele>2150.8000488281</ele>
        <time>2020-08-13T14:28:51.000Z</time>
      </trkpt>
      <trkpt lat="44.25448" lon="6.74898">
        <ele>2149.1999511719</ele>
        <time>2020-08-13T14:28:53.000Z</time>
      </trkpt>
      <trkpt lat="44.25452" lon="6.74921">
        <ele>2147.6000976562</ele>
        <time>2020-08-13T14:28:55.000Z</time>
      </trkpt>
      <trkpt lat="44.25451" lon="6.74943">
        <ele>2145.8000488281</ele>
        <time>2020-08-13T14:28:57.000Z</time>
      </trkpt>
      <trkpt lat="44.25449" lon="6.74963">
        <ele>2144.3999023438</ele>
        <time>2020-08-13T14:28:59.000Z</time>
      </trkpt>
      <trkpt lat="44.25448" lon="6.74985">
        <ele>2143</ele>
        <time>2020-08-13T14:29:01.000Z</time>
      </trkpt>
      <trkpt lat="44.2545" lon="6.75006">
        <ele>2141.8000488281</ele>
        <time>2020-08-13T14:29:03.000Z</time>
      </trkpt>
      <trkpt lat="44.25454" lon="6.75029">
        <ele>2140.8000488281</ele>
        <time>2020-08-13T14:29:05.000Z</time>
      </trkpt>
      <trkpt lat="44.2546" lon="6.7505">
        <ele>2139.6000976562</ele>
        <time>2020-08-13T14:29:07.000Z</time>
      </trkpt>
      <trkpt lat="44.25466" lon="6.75072">
        <ele>2138</ele>
        <time>2020-08-13T14:29:09.000Z</time>
      </trkpt>
      <trkpt lat="44.2547" lon="6.75095">
        <ele>2136.1999511719</ele>
        <time>2020-08-13T14:29:11.000Z</time>
      </trkpt>
      <trkpt lat="44.25474" lon="6.75118">
        <ele>2134.6000976562</ele>
        <time>2020-08-13T14:29:13.000Z</time>
      </trkpt>
      <trkpt lat="44.25476" lon="6.75141">
        <ele>2133</ele>
        <time>2020-08-13T14:29:15.000Z</time>
      </trkpt>
      <trkpt lat="44.25477" lon="6.75162">
        <ele>2131.8000488281</ele>
        <time>2020-08-13T14:29:17.000Z</time>
      </trkpt>
      <trkpt lat="44.25475" lon="6.75172">
        <ele>2131</ele>
        <time>2020-08-13T14:29:18.000Z</time>
      </trkpt>
      <trkpt lat="44.25472" lon="6.75182">
        <ele>2130.6000976562</ele>
        <time>2020-08-13T14:29:19.000Z</time>
      </trkpt>
      <trkpt lat="44.25462" lon="6.75201">
        <ele>2129</ele>
        <time>2020-08-13T14:29:21.000Z</time>
      </trkpt>
      <trkpt lat="44.25452" lon="6.75219">
        <ele>2127.3999023438</ele>
        <time>2020-08-13T14:29:23.000Z</time>
      </trkpt>
      <trkpt lat="44.25445" lon="6.75228">
        <ele>2126.6000976562</ele>
        <time>2020-08-13T14:29:24.000Z</time>
      </trkpt>
      <trkpt lat="44.25438" lon="6.75235">
        <ele>2126</ele>
        <time>2020-08-13T14:29:25.000Z</time>
      </trkpt>
      <trkpt lat="44.2543" lon="6.75243">
        <ele>2125.1999511719</ele>
        <time>2020-08-13T14:29:26.000Z</time>
      </trkpt>
      <trkpt lat="44.25423" lon="6.75251">
        <ele>2124.3999023438</ele>
        <time>2020-08-13T14:29:27.000Z</time>
      </trkpt>
      <trkpt lat="44.25409" lon="6.75266">
        <ele>2123.1999511719</ele>
        <time>2020-08-13T14:29:29.000Z</time>
      </trkpt>
      <trkpt lat="44.25398" lon="6.75285">
        <ele>2121.6000976562</ele>
        <time>2020-08-13T14:29:31.000Z</time>
      </trkpt>
      <trkpt lat="44.25389" lon="6.75304">
        <ele>2120</ele>
        <time>2020-08-13T14:29:33.000Z</time>
      </trkpt>
      <trkpt lat="44.25382" lon="6.75321">
        <ele>2118</ele>
        <time>2020-08-13T14:29:35.000Z</time>
      </trkpt>
      <trkpt lat="44.2538" lon="6.75329">
        <ele>2116.6000976562</ele>
        <time>2020-08-13T14:29:36.000Z</time>
      </trkpt>
      <trkpt lat="44.25379" lon="6.75348">
        <ele>2115.3999023438</ele>
        <time>2020-08-13T14:29:38.000Z</time>
      </trkpt>
      <trkpt lat="44.2538" lon="6.75367">
        <ele>2114.3999023438</ele>
        <time>2020-08-13T14:29:40.000Z</time>
      </trkpt>
      <trkpt lat="44.25382" lon="6.75386">
        <ele>2113.3999023438</ele>
        <time>2020-08-13T14:29:42.000Z</time>
      </trkpt>
      <trkpt lat="44.25384" lon="6.75405">
        <ele>2112.1999511719</ele>
        <time>2020-08-13T14:29:44.000Z</time>
      </trkpt>
      <trkpt lat="44.25384" lon="6.75423">
        <ele>2110.8000488281</ele>
        <time>2020-08-13T14:29:46.000Z</time>
      </trkpt>
      <trkpt lat="44.25384" lon="6.75437">
        <ele>2109.6000976562</ele>
        <time>2020-08-13T14:29:48.000Z</time>
      </trkpt>
      <trkpt lat="44.25381" lon="6.75443">
        <ele>2109</ele>
        <time>2020-08-13T14:29:49.000Z</time>
      </trkpt>
      <trkpt lat="44.25377" lon="6.75445">
        <ele>2108.6000976562</ele>
        <time>2020-08-13T14:29:50.000Z</time>
      </trkpt>
      <trkpt lat="44.25373" lon="6.75443">
        <ele>2107.6000976562</ele>
        <time>2020-08-13T14:29:51.000Z</time>
      </trkpt>
      <trkpt lat="44.25371" lon="6.75437">
        <ele>2107</ele>
        <time>2020-08-13T14:29:52.000Z</time>
      </trkpt>
      <trkpt lat="44.25368" lon="6.75431">
        <ele>2106.8000488281</ele>
        <time>2020-08-13T14:29:53.000Z</time>
      </trkpt>
      <trkpt lat="44.2537" lon="6.75424">
        <ele>2106</ele>
        <time>2020-08-13T14:29:54.000Z</time>
      </trkpt>
      <trkpt lat="44.25371" lon="6.75416">
        <ele>2105.1999511719</ele>
        <time>2020-08-13T14:29:55.000Z</time>
      </trkpt>
      <trkpt lat="44.25371" lon="6.75402">
        <ele>2104.3999023438</ele>
        <time>2020-08-13T14:29:57.000Z</time>
      </trkpt>
      <trkpt lat="44.25371" lon="6.75395">
        <ele>2104</ele>
        <time>2020-08-13T14:29:58.000Z</time>
      </trkpt>
      <trkpt lat="44.25369" lon="6.75378">
        <ele>2103.6000976562</ele>
        <time>2020-08-13T14:30:00.000Z</time>
      </trkpt>
      <trkpt lat="44.25358" lon="6.75345">
        <ele>2102.8000488281</ele>
        <time>2020-08-13T14:30:04.000Z</time>
      </trkpt>
      <trkpt lat="44.25353" lon="6.75324">
        <ele>2101.8000488281</ele>
        <time>2020-08-13T14:30:06.000Z</time>
      </trkpt>
      <trkpt lat="44.25352" lon="6.75304">
        <ele>2100.8000488281</ele>
        <time>2020-08-13T14:30:08.000Z</time>
      </trkpt>
      <trkpt lat="44.25351" lon="6.75282">
        <ele>2099.6000976562</ele>
        <time>2020-08-13T14:30:10.000Z</time>
      </trkpt>
      <trkpt lat="44.2535" lon="6.75258">
        <ele>2098.6000976562</ele>
        <time>2020-08-13T14:30:12.000Z</time>
      </trkpt>
      <trkpt lat="44.25348" lon="6.75235">
        <ele>2097.3999023438</ele>
        <time>2020-08-13T14:30:14.000Z</time>
      </trkpt>
      <trkpt lat="44.25348" lon="6.75224">
        <ele>2096.8000488281</ele>
        <time>2020-08-13T14:30:15.000Z</time>
      </trkpt>
      <trkpt lat="44.25347" lon="6.75213">
        <ele>2096.1999511719</ele>
        <time>2020-08-13T14:30:16.000Z</time>
      </trkpt>
      <trkpt lat="44.25345" lon="6.75193">
        <ele>2094.8000488281</ele>
        <time>2020-08-13T14:30:18.000Z</time>
      </trkpt>
      <trkpt lat="44.25345" lon="6.75181">
        <ele>2094.1999511719</ele>
        <time>2020-08-13T14:30:19.000Z</time>
      </trkpt>
      <trkpt lat="44.25346" lon="6.75172">
        <ele>2093.6000976562</ele>
        <time>2020-08-13T14:30:20.000Z</time>
      </trkpt>
      <trkpt lat="44.25347" lon="6.75163">
        <ele>2092.6000976562</ele>
        <time>2020-08-13T14:30:21.000Z</time>
      </trkpt>
      <trkpt lat="44.25351" lon="6.75154">
        <ele>2092</ele>
        <time>2020-08-13T14:30:22.000Z</time>
      </trkpt>
      <trkpt lat="44.25359" lon="6.75137">
        <ele>2090.8000488281</ele>
        <time>2020-08-13T14:30:24.000Z</time>
      </trkpt>
      <trkpt lat="44.25373" lon="6.7511">
        <ele>2089.3999023438</ele>
        <time>2020-08-13T14:30:27.000Z</time>
      </trkpt>
      <trkpt lat="44.2538" lon="6.75092">
        <ele>2088.1999511719</ele>
        <time>2020-08-13T14:30:29.000Z</time>
      </trkpt>
      <trkpt lat="44.25382" lon="6.75081">
        <ele>2087.6000976562</ele>
        <time>2020-08-13T14:30:30.000Z</time>
      </trkpt>
      <trkpt lat="44.25382" lon="6.75072">
        <ele>2087</ele>
        <time>2020-08-13T14:30:31.000Z</time>
      </trkpt>
      <trkpt lat="44.25381" lon="6.75052">
        <ele>2085.6000976562</ele>
        <time>2020-08-13T14:30:33.000Z</time>
      </trkpt>
      <trkpt lat="44.25377" lon="6.75034">
        <ele>2084</ele>
        <time>2020-08-13T14:30:35.000Z</time>
      </trkpt>
      <trkpt lat="44.25369" lon="6.75017">
        <ele>2082.6000976562</ele>
        <time>2020-08-13T14:30:37.000Z</time>
      </trkpt>
      <trkpt lat="44.25358" lon="6.75008">
        <ele>2081.6000976562</ele>
        <time>2020-08-13T14:30:39.000Z</time>
      </trkpt>
      <trkpt lat="44.25352" lon="6.75005">
        <ele>2080.8000488281</ele>
        <time>2020-08-13T14:30:40.000Z</time>
      </trkpt>
      <trkpt lat="44.25345" lon="6.75004">
        <ele>2080</ele>
        <time>2020-08-13T14:30:41.000Z</time>
      </trkpt>
      <trkpt lat="44.25339" lon="6.75002">
        <ele>2079.6000976562</ele>
        <time>2020-08-13T14:30:42.000Z</time>
      </trkpt>
      <trkpt lat="44.25333" lon="6.75">
        <ele>2078.8000488281</ele>
        <time>2020-08-13T14:30:43.000Z</time>
      </trkpt>
      <trkpt lat="44.25322" lon="6.74995">
        <ele>2078</ele>
        <time>2020-08-13T14:30:45.000Z</time>
      </trkpt>
      <trkpt lat="44.25317" lon="6.74992">
        <ele>2077.3999023438</ele>
        <time>2020-08-13T14:30:46.000Z</time>
      </trkpt>
      <trkpt lat="44.25312" lon="6.74989">
        <ele>2076.8000488281</ele>
        <time>2020-08-13T14:30:47.000Z</time>
      </trkpt>
      <trkpt lat="44.25307" lon="6.7499">
        <ele>2076.3999023438</ele>
        <time>2020-08-13T14:30:48.000Z</time>
      </trkpt>
      <trkpt lat="44.25303" lon="6.74994">
        <ele>2075.8000488281</ele>
        <time>2020-08-13T14:30:49.000Z</time>
      </trkpt>
      <trkpt lat="44.25301" lon="6.75">
        <ele>2075.1999511719</ele>
        <time>2020-08-13T14:30:50.000Z</time>
      </trkpt>
      <trkpt lat="44.25302" lon="6.75006">
        <ele>2074.8000488281</ele>
        <time>2020-08-13T14:30:51.000Z</time>
      </trkpt>
      <trkpt lat="44.25307" lon="6.75018">
        <ele>2073.6000976562</ele>
        <time>2020-08-13T14:30:53.000Z</time>
      </trkpt>
      <trkpt lat="44.25312" lon="6.75024">
        <ele>2073.1999511719</ele>
        <time>2020-08-13T14:30:54.000Z</time>
      </trkpt>
      <trkpt lat="44.25327" lon="6.7504">
        <ele>2072.3999023438</ele>
        <time>2020-08-13T14:30:57.000Z</time>
      </trkpt>
      <trkpt lat="44.25336" lon="6.75051">
        <ele>2071.8000488281</ele>
        <time>2020-08-13T14:30:59.000Z</time>
      </trkpt>
      <trkpt lat="44.25341" lon="6.75068">
        <ele>2071</ele>
        <time>2020-08-13T14:31:01.000Z</time>
      </trkpt>
      <trkpt lat="44.25341" lon="6.75077">
        <ele>2070.6000976562</ele>
        <time>2020-08-13T14:31:02.000Z</time>
      </trkpt>
      <trkpt lat="44.2534" lon="6.75096">
        <ele>2070</ele>
        <time>2020-08-13T14:31:04.000Z</time>
      </trkpt>
      <trkpt lat="44.25336" lon="6.75114">
        <ele>2069.1999511719</ele>
        <time>2020-08-13T14:31:06.000Z</time>
      </trkpt>
      <trkpt lat="44.25332" lon="6.75122">
        <ele>2068.8000488281</ele>
        <time>2020-08-13T14:31:07.000Z</time>
      </trkpt>
      <trkpt lat="44.25322" lon="6.75136">
        <ele>2067.6000976562</ele>
        <time>2020-08-13T14:31:09.000Z</time>
      </trkpt>
      <trkpt lat="44.25316" lon="6.75143">
        <ele>2067.1999511719</ele>
        <time>2020-08-13T14:31:10.000Z</time>
      </trkpt>
      <trkpt lat="44.2531" lon="6.7515">
        <ele>2066.6000976562</ele>
        <time>2020-08-13T14:31:11.000Z</time>
      </trkpt>
      <trkpt lat="44.25304" lon="6.75157">
        <ele>2065.8000488281</ele>
        <time>2020-08-13T14:31:12.000Z</time>
      </trkpt>
      <trkpt lat="44.25291" lon="6.75171">
        <ele>2064.3999023438</ele>
        <time>2020-08-13T14:31:14.000Z</time>
      </trkpt>
      <trkpt lat="44.2528" lon="6.75184">
        <ele>2062.8000488281</ele>
        <time>2020-08-13T14:31:16.000Z</time>
      </trkpt>
      <trkpt lat="44.25274" lon="6.75192">
        <ele>2062.1999511719</ele>
        <time>2020-08-13T14:31:17.000Z</time>
      </trkpt>
      <trkpt lat="44.25269" lon="6.752">
        <ele>2061.1999511719</ele>
        <time>2020-08-13T14:31:18.000Z</time>
      </trkpt>
      <trkpt lat="44.25264" lon="6.7521">
        <ele>2060.6000976562</ele>
        <time>2020-08-13T14:31:19.000Z</time>
      </trkpt>
      <trkpt lat="44.25259" lon="6.75219">
        <ele>2059.8000488281</ele>
        <time>2020-08-13T14:31:20.000Z</time>
      </trkpt>
      <trkpt lat="44.25255" lon="6.75229">
        <ele>2059.1999511719</ele>
        <time>2020-08-13T14:31:21.000Z</time>
      </trkpt>
      <trkpt lat="44.25251" lon="6.75238">
        <ele>2058.6000976562</ele>
        <time>2020-08-13T14:31:22.000Z</time>
      </trkpt>
      <trkpt lat="44.25237" lon="6.75268">
        <ele>2057.1999511719</ele>
        <time>2020-08-13T14:31:25.000Z</time>
      </trkpt>
      <trkpt lat="44.2523" lon="6.75287">
        <ele>2055.8000488281</ele>
        <time>2020-08-13T14:31:27.000Z</time>
      </trkpt>
      <trkpt lat="44.25228" lon="6.75296">
        <ele>2055.1999511719</ele>
        <time>2020-08-13T14:31:28.000Z</time>
      </trkpt>
      <trkpt lat="44.25226" lon="6.75308">
        <ele>2054.6000976562</ele>
        <time>2020-08-13T14:31:29.000Z</time>
      </trkpt>
      <trkpt lat="44.25227" lon="6.75328">
        <ele>2052.8000488281</ele>
        <time>2020-08-13T14:31:31.000Z</time>
      </trkpt>
      <trkpt lat="44.25233" lon="6.75343">
        <ele>2051.3999023438</ele>
        <time>2020-08-13T14:31:33.000Z</time>
      </trkpt>
      <trkpt lat="44.25237" lon="6.75352">
        <ele>2050.6000976562</ele>
        <time>2020-08-13T14:31:34.000Z</time>
      </trkpt>
      <trkpt lat="44.25241" lon="6.7536">
        <ele>2050</ele>
        <time>2020-08-13T14:31:35.000Z</time>
      </trkpt>
      <trkpt lat="44.25245" lon="6.75368">
        <ele>2049.1999511719</ele>
        <time>2020-08-13T14:31:36.000Z</time>
      </trkpt>
      <trkpt lat="44.25248" lon="6.75378">
        <ele>2048.8000488281</ele>
        <time>2020-08-13T14:31:37.000Z</time>
      </trkpt>
      <trkpt lat="44.25249" lon="6.75389">
        <ele>2048</ele>
        <time>2020-08-13T14:31:38.000Z</time>
      </trkpt>
      <trkpt lat="44.25248" lon="6.754">
        <ele>2047.4000244141</ele>
        <time>2020-08-13T14:31:39.000Z</time>
      </trkpt>
      <trkpt lat="44.25243" lon="6.7542">
        <ele>2046</ele>
        <time>2020-08-13T14:31:41.000Z</time>
      </trkpt>
      <trkpt lat="44.25236" lon="6.75437">
        <ele>2044.8000488281</ele>
        <time>2020-08-13T14:31:43.000Z</time>
      </trkpt>
      <trkpt lat="44.25227" lon="6.75451">
        <ele>2043.4000244141</ele>
        <time>2020-08-13T14:31:45.000Z</time>
      </trkpt>
      <trkpt lat="44.25216" lon="6.75457">
        <ele>2042</ele>
        <time>2020-08-13T14:31:47.000Z</time>
      </trkpt>
      <trkpt lat="44.2521" lon="6.75459">
        <ele>2041.4000244141</ele>
        <time>2020-08-13T14:31:48.000Z</time>
      </trkpt>
      <trkpt lat="44.25203" lon="6.7546">
        <ele>2041</ele>
        <time>2020-08-13T14:31:49.000Z</time>
      </trkpt>
      <trkpt lat="44.25191" lon="6.75463">
        <ele>2039.8000488281</ele>
        <time>2020-08-13T14:31:51.000Z</time>
      </trkpt>
      <trkpt lat="44.25181" lon="6.75474">
        <ele>2038.5999755859</ele>
        <time>2020-08-13T14:31:53.000Z</time>
      </trkpt>
      <trkpt lat="44.25173" lon="6.75492">
        <ele>2037.5999755859</ele>
        <time>2020-08-13T14:31:55.000Z</time>
      </trkpt>
      <trkpt lat="44.25164" lon="6.75511">
        <ele>2036.5999755859</ele>
        <time>2020-08-13T14:31:57.000Z</time>
      </trkpt>
      <trkpt lat="44.25149" lon="6.75536">
        <ele>2035</ele>
        <time>2020-08-13T14:32:00.000Z</time>
      </trkpt>
      <trkpt lat="44.25138" lon="6.75551">
        <ele>2033.5999755859</ele>
        <time>2020-08-13T14:32:02.000Z</time>
      </trkpt>
      <trkpt lat="44.25127" lon="6.75562">
        <ele>2032.4000244141</ele>
        <time>2020-08-13T14:32:04.000Z</time>
      </trkpt>
      <trkpt lat="44.25114" lon="6.75571">
        <ele>2031.4000244141</ele>
        <time>2020-08-13T14:32:06.000Z</time>
      </trkpt>
      <trkpt lat="44.25108" lon="6.75576">
        <ele>2030.5999755859</ele>
        <time>2020-08-13T14:32:07.000Z</time>
      </trkpt>
      <trkpt lat="44.25095" lon="6.75587">
        <ele>2029.4000244141</ele>
        <time>2020-08-13T14:32:09.000Z</time>
      </trkpt>
      <trkpt lat="44.25082" lon="6.75598">
        <ele>2028.4000244141</ele>
        <time>2020-08-13T14:32:11.000Z</time>
      </trkpt>
      <trkpt lat="44.25069" lon="6.75609">
        <ele>2027.1999511719</ele>
        <time>2020-08-13T14:32:13.000Z</time>
      </trkpt>
      <trkpt lat="44.25057" lon="6.75619">
        <ele>2025.5999755859</ele>
        <time>2020-08-13T14:32:15.000Z</time>
      </trkpt>
      <trkpt lat="44.25044" lon="6.75623">
        <ele>2024.1999511719</ele>
        <time>2020-08-13T14:32:17.000Z</time>
      </trkpt>
      <trkpt lat="44.2503" lon="6.75627">
        <ele>2023.4000244141</ele>
        <time>2020-08-13T14:32:19.000Z</time>
      </trkpt>
      <trkpt lat="44.25023" lon="6.75631">
        <ele>2023</ele>
        <time>2020-08-13T14:32:20.000Z</time>
      </trkpt>
      <trkpt lat="44.25017" lon="6.75636">
        <ele>2022.4000244141</ele>
        <time>2020-08-13T14:32:21.000Z</time>
      </trkpt>
      <trkpt lat="44.25005" lon="6.75648">
        <ele>2021.5999755859</ele>
        <time>2020-08-13T14:32:23.000Z</time>
      </trkpt>
      <trkpt lat="44.24992" lon="6.75659">
        <ele>2020.4000244141</ele>
        <time>2020-08-13T14:32:25.000Z</time>
      </trkpt>
      <trkpt lat="44.24977" lon="6.75663">
        <ele>2019.1999511719</ele>
        <time>2020-08-13T14:32:27.000Z</time>
      </trkpt>
      <trkpt lat="44.24971" lon="6.75662">
        <ele>2019</ele>
        <time>2020-08-13T14:32:28.000Z</time>
      </trkpt>
      <trkpt lat="44.24963" lon="6.75661">
        <ele>2018.1999511719</ele>
        <time>2020-08-13T14:32:29.000Z</time>
      </trkpt>
      <trkpt lat="44.24955" lon="6.75661">
        <ele>2017.8000488281</ele>
        <time>2020-08-13T14:32:30.000Z</time>
      </trkpt>
      <trkpt lat="44.24941" lon="6.75666">
        <ele>2016.5999755859</ele>
        <time>2020-08-13T14:32:32.000Z</time>
      </trkpt>
      <trkpt lat="44.24926" lon="6.75673">
        <ele>2015.1999511719</ele>
        <time>2020-08-13T14:32:34.000Z</time>
      </trkpt>
      <trkpt lat="44.24911" lon="6.75678">
        <ele>2013.8000488281</ele>
        <time>2020-08-13T14:32:36.000Z</time>
      </trkpt>
      <trkpt lat="44.24905" lon="6.75678">
        <ele>2013.1999511719</ele>
        <time>2020-08-13T14:32:37.000Z</time>
      </trkpt>
      <trkpt lat="44.24899" lon="6.75677">
        <ele>2012.5999755859</ele>
        <time>2020-08-13T14:32:38.000Z</time>
      </trkpt>
      <trkpt lat="44.24888" lon="6.75673">
        <ele>2011</ele>
        <time>2020-08-13T14:32:40.000Z</time>
      </trkpt>
      <trkpt lat="44.24882" lon="6.75674">
        <ele>2010.5999755859</ele>
        <time>2020-08-13T14:32:41.000Z</time>
      </trkpt>
      <trkpt lat="44.24876" lon="6.75675">
        <ele>2010</ele>
        <time>2020-08-13T14:32:42.000Z</time>
      </trkpt>
      <trkpt lat="44.24863" lon="6.7568">
        <ele>2009.4000244141</ele>
        <time>2020-08-13T14:32:44.000Z</time>
      </trkpt>
      <trkpt lat="44.24857" lon="6.75683">
        <ele>2009</ele>
        <time>2020-08-13T14:32:45.000Z</time>
      </trkpt>
      <trkpt lat="44.24851" lon="6.75686">
        <ele>2008.5999755859</ele>
        <time>2020-08-13T14:32:46.000Z</time>
      </trkpt>
      <trkpt lat="44.24837" lon="6.75693">
        <ele>2007.4000244141</ele>
        <time>2020-08-13T14:32:48.000Z</time>
      </trkpt>
      <trkpt lat="44.24829" lon="6.75784">
        <ele>2003</ele>
        <time>2020-08-13T14:33:00.000Z</time>
      </trkpt>
      <trkpt lat="44.24832" lon="6.758">
        <ele>2002.4000244141</ele>
        <time>2020-08-13T14:33:02.000Z</time>
      </trkpt>
      <trkpt lat="44.24841" lon="6.7581">
        <ele>2001.8000488281</ele>
        <time>2020-08-13T14:33:04.000Z</time>
      </trkpt>
      <trkpt lat="44.24847" lon="6.75813">
        <ele>2001.1999511719</ele>
        <time>2020-08-13T14:33:05.000Z</time>
      </trkpt>
      <trkpt lat="44.2486" lon="6.75825">
        <ele>1999.8000488281</ele>
        <time>2020-08-13T14:33:07.000Z</time>
      </trkpt>
      <trkpt lat="44.24871" lon="6.75836">
        <ele>1998.5999755859</ele>
        <time>2020-08-13T14:33:09.000Z</time>
      </trkpt>
      <trkpt lat="44.24882" lon="6.7585">
        <ele>1997.5999755859</ele>
        <time>2020-08-13T14:33:11.000Z</time>
      </trkpt>
      <trkpt lat="44.24897" lon="6.75875">
        <ele>1996</ele>
        <time>2020-08-13T14:33:14.000Z</time>
      </trkpt>
      <trkpt lat="44.24903" lon="6.75893">
        <ele>1994.8000488281</ele>
        <time>2020-08-13T14:33:16.000Z</time>
      </trkpt>
      <trkpt lat="44.24908" lon="6.75914">
        <ele>1993.1999511719</ele>
        <time>2020-08-13T14:33:18.000Z</time>
      </trkpt>
      <trkpt lat="44.2491" lon="6.75925">
        <ele>1992.5999755859</ele>
        <time>2020-08-13T14:33:19.000Z</time>
      </trkpt>
      <trkpt lat="44.24913" lon="6.75936">
        <ele>1991.5999755859</ele>
        <time>2020-08-13T14:33:20.000Z</time>
      </trkpt>
      <trkpt lat="44.24919" lon="6.75959">
        <ele>1990.4000244141</ele>
        <time>2020-08-13T14:33:22.000Z</time>
      </trkpt>
      <trkpt lat="44.24926" lon="6.75982">
        <ele>1989.1999511719</ele>
        <time>2020-08-13T14:33:24.000Z</time>
      </trkpt>
      <trkpt lat="44.24934" lon="6.76004">
        <ele>1988</ele>
        <time>2020-08-13T14:33:26.000Z</time>
      </trkpt>
      <trkpt lat="44.24942" lon="6.76025">
        <ele>1986.1999511719</ele>
        <time>2020-08-13T14:33:28.000Z</time>
      </trkpt>
      <trkpt lat="44.24945" lon="6.76035">
        <ele>1985.4000244141</ele>
        <time>2020-08-13T14:33:29.000Z</time>
      </trkpt>
      <trkpt lat="44.24947" lon="6.76047">
        <ele>1984.1999511719</ele>
        <time>2020-08-13T14:33:30.000Z</time>
      </trkpt>
      <trkpt lat="44.2495" lon="6.76072">
        <ele>1982.8000488281</ele>
        <time>2020-08-13T14:33:32.000Z</time>
      </trkpt>
      <trkpt lat="44.24951" lon="6.76083">
        <ele>1982.1999511719</ele>
        <time>2020-08-13T14:33:33.000Z</time>
      </trkpt>
      <trkpt lat="44.24952" lon="6.76096">
        <ele>1981.5999755859</ele>
        <time>2020-08-13T14:33:34.000Z</time>
      </trkpt>
      <trkpt lat="44.24952" lon="6.76108">
        <ele>1981</ele>
        <time>2020-08-13T14:33:35.000Z</time>
      </trkpt>
      <trkpt lat="44.24953" lon="6.7612">
        <ele>1980.4000244141</ele>
        <time>2020-08-13T14:33:36.000Z</time>
      </trkpt>
      <trkpt lat="44.24955" lon="6.76142">
        <ele>1979.1999511719</ele>
        <time>2020-08-13T14:33:38.000Z</time>
      </trkpt>
      <trkpt lat="44.24961" lon="6.76167">
        <ele>1977.5999755859</ele>
        <time>2020-08-13T14:33:40.000Z</time>
      </trkpt>
      <trkpt lat="44.24968" lon="6.76191">
        <ele>1976</ele>
        <time>2020-08-13T14:33:42.000Z</time>
      </trkpt>
      <trkpt lat="44.24974" lon="6.76216">
        <ele>1974.8000488281</ele>
        <time>2020-08-13T14:33:44.000Z</time>
      </trkpt>
      <trkpt lat="44.24978" lon="6.76242">
        <ele>1973</ele>
        <time>2020-08-13T14:33:46.000Z</time>
      </trkpt>
      <trkpt lat="44.2498" lon="6.76267">
        <ele>1971.4000244141</ele>
        <time>2020-08-13T14:33:48.000Z</time>
      </trkpt>
      <trkpt lat="44.24981" lon="6.7628">
        <ele>1970.4000244141</ele>
        <time>2020-08-13T14:33:49.000Z</time>
      </trkpt>
      <trkpt lat="44.24983" lon="6.76304">
        <ele>1968.8000488281</ele>
        <time>2020-08-13T14:33:51.000Z</time>
      </trkpt>
      <trkpt lat="44.24983" lon="6.76315">
        <ele>1967.8000488281</ele>
        <time>2020-08-13T14:33:52.000Z</time>
      </trkpt>
      <trkpt lat="44.24984" lon="6.76326">
        <ele>1967</ele>
        <time>2020-08-13T14:33:53.000Z</time>
      </trkpt>
      <trkpt lat="44.24985" lon="6.76338">
        <ele>1966</ele>
        <time>2020-08-13T14:33:54.000Z</time>
      </trkpt>
      <trkpt lat="44.24988" lon="6.7635">
        <ele>1965.4000244141</ele>
        <time>2020-08-13T14:33:55.000Z</time>
      </trkpt>
      <trkpt lat="44.24991" lon="6.76361">
        <ele>1964.5999755859</ele>
        <time>2020-08-13T14:33:56.000Z</time>
      </trkpt>
      <trkpt lat="44.24994" lon="6.76372">
        <ele>1964.1999511719</ele>
        <time>2020-08-13T14:33:57.000Z</time>
      </trkpt>
      <trkpt lat="44.25001" lon="6.76404">
        <ele>1962.5999755859</ele>
        <time>2020-08-13T14:34:00.000Z</time>
      </trkpt>
      <trkpt lat="44.25002" lon="6.76416">
        <ele>1962</ele>
        <time>2020-08-13T14:34:01.000Z</time>
      </trkpt>
      <trkpt lat="44.25002" lon="6.76427">
        <ele>1961</ele>
        <time>2020-08-13T14:34:02.000Z</time>
      </trkpt>
      <trkpt lat="44.25002" lon="6.76438">
        <ele>1960</ele>
        <time>2020-08-13T14:34:03.000Z</time>
      </trkpt>
      <trkpt lat="44.24999" lon="6.76461">
        <ele>1959.5999755859</ele>
        <time>2020-08-13T14:34:05.000Z</time>
      </trkpt>
      <trkpt lat="44.24997" lon="6.76473">
        <ele>1958.8000488281</ele>
        <time>2020-08-13T14:34:06.000Z</time>
      </trkpt>
      <trkpt lat="44.24994" lon="6.76494">
        <ele>1957.4000244141</ele>
        <time>2020-08-13T14:34:08.000Z</time>
      </trkpt>
      <trkpt lat="44.24991" lon="6.76515">
        <ele>1956.4000244141</ele>
        <time>2020-08-13T14:34:10.000Z</time>
      </trkpt>
      <trkpt lat="44.24987" lon="6.76534">
        <ele>1955.4000244141</ele>
        <time>2020-08-13T14:34:12.000Z</time>
      </trkpt>
      <trkpt lat="44.24985" lon="6.76542">
        <ele>1955.1999511719</ele>
        <time>2020-08-13T14:34:13.000Z</time>
      </trkpt>
      <trkpt lat="44.24976" lon="6.76556">
        <ele>1954.8000488281</ele>
        <time>2020-08-13T14:34:15.000Z</time>
      </trkpt>
      <trkpt lat="44.24957" lon="6.76558">
        <ele>1954</ele>
        <time>2020-08-13T14:34:18.000Z</time>
      </trkpt>
      <trkpt lat="44.24944" lon="6.76537">
        <ele>1952.1999511719</ele>
        <time>2020-08-13T14:34:21.000Z</time>
      </trkpt>
      <trkpt lat="44.24942" lon="6.76511">
        <ele>1950.8000488281</ele>
        <time>2020-08-13T14:34:24.000Z</time>
      </trkpt>
      <trkpt lat="44.24942" lon="6.76502">
        <ele>1950.4000244141</ele>
        <time>2020-08-13T14:34:25.000Z</time>
      </trkpt>
      <trkpt lat="44.24942" lon="6.76481">
        <ele>1950</ele>
        <time>2020-08-13T14:34:27.000Z</time>
      </trkpt>
      <trkpt lat="44.24943" lon="6.76461">
        <ele>1949.4000244141</ele>
        <time>2020-08-13T14:34:29.000Z</time>
      </trkpt>
      <trkpt lat="44.24943" lon="6.76451">
        <ele>1948.5999755859</ele>
        <time>2020-08-13T14:34:30.000Z</time>
      </trkpt>
      <trkpt lat="44.24942" lon="6.76441">
        <ele>1947.8000488281</ele>
        <time>2020-08-13T14:34:31.000Z</time>
      </trkpt>
      <trkpt lat="44.24934" lon="6.76414">
        <ele>1946.4000244141</ele>
        <time>2020-08-13T14:34:34.000Z</time>
      </trkpt>
      <trkpt lat="44.24925" lon="6.76398">
        <ele>1945.1999511719</ele>
        <time>2020-08-13T14:34:36.000Z</time>
      </trkpt>
      <trkpt lat="44.24914" lon="6.76384">
        <ele>1944.1999511719</ele>
        <time>2020-08-13T14:34:38.000Z</time>
      </trkpt>
      <trkpt lat="44.24908" lon="6.76376">
        <ele>1943.5999755859</ele>
        <time>2020-08-13T14:34:39.000Z</time>
      </trkpt>
      <trkpt lat="44.24896" lon="6.7636">
        <ele>1942.1999511719</ele>
        <time>2020-08-13T14:34:41.000Z</time>
      </trkpt>
      <trkpt lat="44.24884" lon="6.76342">
        <ele>1940.8000488281</ele>
        <time>2020-08-13T14:34:43.000Z</time>
      </trkpt>
      <trkpt lat="44.24879" lon="6.76332">
        <ele>1939.8000488281</ele>
        <time>2020-08-13T14:34:44.000Z</time>
      </trkpt>
      <trkpt lat="44.24872" lon="6.76311">
        <ele>1937.5999755859</ele>
        <time>2020-08-13T14:34:46.000Z</time>
      </trkpt>
      <trkpt lat="44.24866" lon="6.7629">
        <ele>1935.8000488281</ele>
        <time>2020-08-13T14:34:48.000Z</time>
      </trkpt>
      <trkpt lat="44.24863" lon="6.76277">
        <ele>1934.5999755859</ele>
        <time>2020-08-13T14:34:49.000Z</time>
      </trkpt>
      <trkpt lat="44.24858" lon="6.76254">
        <ele>1932.8000488281</ele>
        <time>2020-08-13T14:34:51.000Z</time>
      </trkpt>
      <trkpt lat="44.24855" lon="6.76243">
        <ele>1931.8000488281</ele>
        <time>2020-08-13T14:34:52.000Z</time>
      </trkpt>
      <trkpt lat="44.2485" lon="6.76218">
        <ele>1930.4000244141</ele>
        <time>2020-08-13T14:34:54.000Z</time>
      </trkpt>
      <trkpt lat="44.24844" lon="6.76194">
        <ele>1929.1999511719</ele>
        <time>2020-08-13T14:34:56.000Z</time>
      </trkpt>
      <trkpt lat="44.24838" lon="6.76175">
        <ele>1928</ele>
        <time>2020-08-13T14:34:58.000Z</time>
      </trkpt>
      <trkpt lat="44.24829" lon="6.76149">
        <ele>1926.1999511719</ele>
        <time>2020-08-13T14:35:00.000Z</time>
      </trkpt>
      <trkpt lat="44.24826" lon="6.76139">
        <ele>1925</ele>
        <time>2020-08-13T14:35:01.000Z</time>
      </trkpt>
      <trkpt lat="44.24822" lon="6.7613">
        <ele>1924.4000244141</ele>
        <time>2020-08-13T14:35:02.000Z</time>
      </trkpt>
      <trkpt lat="44.24819" lon="6.76122">
        <ele>1923.4000244141</ele>
        <time>2020-08-13T14:35:03.000Z</time>
      </trkpt>
      <trkpt lat="44.24811" lon="6.76105">
        <ele>1922</ele>
        <time>2020-08-13T14:35:05.000Z</time>
      </trkpt>
      <trkpt lat="44.24804" lon="6.76088">
        <ele>1921</ele>
        <time>2020-08-13T14:35:07.000Z</time>
      </trkpt>
      <trkpt lat="44.24801" lon="6.7608">
        <ele>1920.4000244141</ele>
        <time>2020-08-13T14:35:08.000Z</time>
      </trkpt>
      <trkpt lat="44.24797" lon="6.76072">
        <ele>1919.5999755859</ele>
        <time>2020-08-13T14:35:09.000Z</time>
      </trkpt>
      <trkpt lat="44.24791" lon="6.76058">
        <ele>1918.4000244141</ele>
        <time>2020-08-13T14:35:11.000Z</time>
      </trkpt>
      <trkpt lat="44.24786" lon="6.76046">
        <ele>1917</ele>
        <time>2020-08-13T14:35:13.000Z</time>
      </trkpt>
      <trkpt lat="44.24783" lon="6.76041">
        <ele>1916.4000244141</ele>
        <time>2020-08-13T14:35:14.000Z</time>
      </trkpt>
      <trkpt lat="44.2478" lon="6.76038">
        <ele>1915.8000488281</ele>
        <time>2020-08-13T14:35:15.000Z</time>
      </trkpt>
      <trkpt lat="44.24775" lon="6.76034">
        <ele>1914.5999755859</ele>
        <time>2020-08-13T14:35:17.000Z</time>
      </trkpt>
      <trkpt lat="44.24774" lon="6.76033">
        <ele>1914.1999511719</ele>
        <time>2020-08-13T14:35:18.000Z</time>
      </trkpt>
      <trkpt lat="44.24774" lon="6.76033">
        <ele>1913.4000244141</ele>
        <time>2020-08-13T14:35:20.000Z</time>
      </trkpt>
      <trkpt lat="44.24774" lon="6.76033">
        <ele>1913</ele>
        <time>2020-08-13T14:35:22.000Z</time>
      </trkpt>
      <trkpt lat="44.24774" lon="6.76034">
        <ele>1913.4000244141</ele>
        <time>2020-08-13T14:35:31.000Z</time>
      </trkpt>
      <trkpt lat="44.24774" lon="6.76035">
        <ele>1913.4000244141</ele>
        <time>2020-08-13T14:35:49.000Z</time>
      </trkpt>
      <trkpt lat="44.24774" lon="6.76036">
        <ele>1913.5999755859</ele>
        <time>2020-08-13T14:36:03.000Z</time>
      </trkpt>
      <trkpt lat="44.24774" lon="6.76036">
        <ele>1913.5999755859</ele>
        <time>2020-08-13T14:36:15.000Z</time>
      </trkpt>
      <trkpt lat="44.24775" lon="6.76036">
        <ele>1913.5999755859</ele>
        <time>2020-08-13T14:36:36.000Z</time>
      </trkpt>
      <trkpt lat="44.24774" lon="6.76037">
        <ele>1913.4000244141</ele>
        <time>2020-08-13T14:36:45.000Z</time>
      </trkpt>
      <trkpt lat="44.24774" lon="6.7604">
        <ele>1913.4000244141</ele>
        <time>2020-08-13T14:36:59.000Z</time>
      </trkpt>
      <trkpt lat="44.24772" lon="6.76041">
        <ele>1913.4000244141</ele>
        <time>2020-08-13T14:37:04.000Z</time>
      </trkpt>
      <trkpt lat="44.24767" lon="6.76039">
        <ele>1913.4000244141</ele>
        <time>2020-08-13T14:37:06.000Z</time>
      </trkpt>
      <trkpt lat="44.2476" lon="6.76036">
        <ele>1913.4000244141</ele>
        <time>2020-08-13T14:37:08.000Z</time>
      </trkpt>
      <trkpt lat="44.24754" lon="6.76034">
        <ele>1913.1999511719</ele>
        <time>2020-08-13T14:37:09.000Z</time>
      </trkpt>
      <trkpt lat="44.24749" lon="6.76032">
        <ele>1913</ele>
        <time>2020-08-13T14:37:10.000Z</time>
      </trkpt>
      <trkpt lat="44.24732" lon="6.76021">
        <ele>1912.1999511719</ele>
        <time>2020-08-13T14:37:13.000Z</time>
      </trkpt>
      <trkpt lat="44.24719" lon="6.76011">
        <ele>1911.4000244141</ele>
        <time>2020-08-13T14:37:15.000Z</time>
      </trkpt>
      <trkpt lat="44.24713" lon="6.76006">
        <ele>1911</ele>
        <time>2020-08-13T14:37:16.000Z</time>
      </trkpt>
      <trkpt lat="44.24697" lon="6.75989">
        <ele>1910.1999511719</ele>
        <time>2020-08-13T14:37:19.000Z</time>
      </trkpt>
      <trkpt lat="44.24694" lon="6.75981">
        <ele>1909.5999755859</ele>
        <time>2020-08-13T14:37:20.000Z</time>
      </trkpt>
      <trkpt lat="44.24688" lon="6.75963">
        <ele>1908.5999755859</ele>
        <time>2020-08-13T14:37:22.000Z</time>
      </trkpt>
      <trkpt lat="44.24685" lon="6.75942">
        <ele>1907.4000244141</ele>
        <time>2020-08-13T14:37:24.000Z</time>
      </trkpt>
      <trkpt lat="44.24685" lon="6.75931">
        <ele>1907</ele>
        <time>2020-08-13T14:37:25.000Z</time>
      </trkpt>
      <trkpt lat="44.24684" lon="6.7592">
        <ele>1906.4000244141</ele>
        <time>2020-08-13T14:37:26.000Z</time>
      </trkpt>
      <trkpt lat="44.24682" lon="6.75898">
        <ele>1905.4000244141</ele>
        <time>2020-08-13T14:37:28.000Z</time>
      </trkpt>
      <trkpt lat="44.24681" lon="6.75874">
        <ele>1904</ele>
        <time>2020-08-13T14:37:30.000Z</time>
      </trkpt>
      <trkpt lat="44.2468" lon="6.75863">
        <ele>1903.4000244141</ele>
        <time>2020-08-13T14:37:31.000Z</time>
      </trkpt>
      <trkpt lat="44.2468" lon="6.75852">
        <ele>1902.8000488281</ele>
        <time>2020-08-13T14:37:32.000Z</time>
      </trkpt>
      <trkpt lat="44.24679" lon="6.75829">
        <ele>1901.4000244141</ele>
        <time>2020-08-13T14:37:34.000Z</time>
      </trkpt>
      <trkpt lat="44.24677" lon="6.75806">
        <ele>1900.1999511719</ele>
        <time>2020-08-13T14:37:36.000Z</time>
      </trkpt>
      <trkpt lat="44.24674" lon="6.75784">
        <ele>1898.8000488281</ele>
        <time>2020-08-13T14:37:38.000Z</time>
      </trkpt>
      <trkpt lat="44.24672" lon="6.75759">
        <ele>1897.1999511719</ele>
        <time>2020-08-13T14:37:40.000Z</time>
      </trkpt>
      <trkpt lat="44.2467" lon="6.75747">
        <ele>1896.1999511719</ele>
        <time>2020-08-13T14:37:41.000Z</time>
      </trkpt>
      <trkpt lat="44.24668" lon="6.75725">
        <ele>1894.5999755859</ele>
        <time>2020-08-13T14:37:43.000Z</time>
      </trkpt>
      <trkpt lat="44.24666" lon="6.75702">
        <ele>1893.1999511719</ele>
        <time>2020-08-13T14:37:45.000Z</time>
      </trkpt>
      <trkpt lat="44.24664" lon="6.75681">
        <ele>1891.5999755859</ele>
        <time>2020-08-13T14:37:47.000Z</time>
      </trkpt>
      <trkpt lat="44.2466" lon="6.75661">
        <ele>1890.4000244141</ele>
        <time>2020-08-13T14:37:49.000Z</time>
      </trkpt>
      <trkpt lat="44.24657" lon="6.75651">
        <ele>1889.8000488281</ele>
        <time>2020-08-13T14:37:50.000Z</time>
      </trkpt>
      <trkpt lat="44.24653" lon="6.75642">
        <ele>1889.1999511719</ele>
        <time>2020-08-13T14:37:51.000Z</time>
      </trkpt>
      <trkpt lat="44.24636" lon="6.75619">
        <ele>1887.5999755859</ele>
        <time>2020-08-13T14:37:54.000Z</time>
      </trkpt>
      <trkpt lat="44.24615" lon="6.75598">
        <ele>1886.4000244141</ele>
        <time>2020-08-13T14:37:57.000Z</time>
      </trkpt>
      <trkpt lat="44.24601" lon="6.75584">
        <ele>1885</ele>
        <time>2020-08-13T14:37:59.000Z</time>
      </trkpt>
      <trkpt lat="44.24593" lon="6.75577">
        <ele>1884</ele>
        <time>2020-08-13T14:38:00.000Z</time>
      </trkpt>
      <trkpt lat="44.24585" lon="6.7557">
        <ele>1883</ele>
        <time>2020-08-13T14:38:01.000Z</time>
      </trkpt>
      <trkpt lat="44.24571" lon="6.75556">
        <ele>1881.1999511719</ele>
        <time>2020-08-13T14:38:03.000Z</time>
      </trkpt>
      <trkpt lat="44.24563" lon="6.75548">
        <ele>1880.4000244141</ele>
        <time>2020-08-13T14:38:04.000Z</time>
      </trkpt>
      <trkpt lat="44.24555" lon="6.75542">
        <ele>1879.5999755859</ele>
        <time>2020-08-13T14:38:05.000Z</time>
      </trkpt>
      <trkpt lat="44.24547" lon="6.75536">
        <ele>1879</ele>
        <time>2020-08-13T14:38:06.000Z</time>
      </trkpt>
      <trkpt lat="44.24539" lon="6.75529">
        <ele>1878.1999511719</ele>
        <time>2020-08-13T14:38:07.000Z</time>
      </trkpt>
      <trkpt lat="44.24522" lon="6.75517">
        <ele>1876.4000244141</ele>
        <time>2020-08-13T14:38:09.000Z</time>
      </trkpt>
      <trkpt lat="44.24505" lon="6.75506">
        <ele>1875.1999511719</ele>
        <time>2020-08-13T14:38:11.000Z</time>
      </trkpt>
      <trkpt lat="44.24489" lon="6.75496">
        <ele>1874</ele>
        <time>2020-08-13T14:38:13.000Z</time>
      </trkpt>
      <trkpt lat="44.24463" lon="6.75481">
        <ele>1872</ele>
        <time>2020-08-13T14:38:16.000Z</time>
      </trkpt>
      <trkpt lat="44.24448" lon="6.7547">
        <ele>1870.4000244141</ele>
        <time>2020-08-13T14:38:18.000Z</time>
      </trkpt>
      <trkpt lat="44.24441" lon="6.75463">
        <ele>1869.5999755859</ele>
        <time>2020-08-13T14:38:19.000Z</time>
      </trkpt>
      <trkpt lat="44.24434" lon="6.75455">
        <ele>1868.8000488281</ele>
        <time>2020-08-13T14:38:20.000Z</time>
      </trkpt>
      <trkpt lat="44.24425" lon="6.75439">
        <ele>1867</ele>
        <time>2020-08-13T14:38:22.000Z</time>
      </trkpt>
      <trkpt lat="44.24421" lon="6.75431">
        <ele>1866.1999511719</ele>
        <time>2020-08-13T14:38:23.000Z</time>
      </trkpt>
      <trkpt lat="44.24419" lon="6.75421">
        <ele>1865.1999511719</ele>
        <time>2020-08-13T14:38:24.000Z</time>
      </trkpt>
      <trkpt lat="44.24416" lon="6.75412">
        <ele>1864.5999755859</ele>
        <time>2020-08-13T14:38:25.000Z</time>
      </trkpt>
      <trkpt lat="44.24413" lon="6.75406">
        <ele>1864.1999511719</ele>
        <time>2020-08-13T14:38:26.000Z</time>
      </trkpt>
      <trkpt lat="44.2441" lon="6.75401">
        <ele>1863.5999755859</ele>
        <time>2020-08-13T14:38:27.000Z</time>
      </trkpt>
      <trkpt lat="44.24406" lon="6.75401">
        <ele>1863.1999511719</ele>
        <time>2020-08-13T14:38:28.000Z</time>
      </trkpt>
      <trkpt lat="44.24402" lon="6.75403">
        <ele>1863</ele>
        <time>2020-08-13T14:38:29.000Z</time>
      </trkpt>
      <trkpt lat="44.24401" lon="6.75416">
        <ele>1861.8000488281</ele>
        <time>2020-08-13T14:38:31.000Z</time>
      </trkpt>
      <trkpt lat="44.2441" lon="6.75435">
        <ele>1861</ele>
        <time>2020-08-13T14:38:34.000Z</time>
      </trkpt>
      <trkpt lat="44.24413" lon="6.75442">
        <ele>1860.8000488281</ele>
        <time>2020-08-13T14:38:35.000Z</time>
      </trkpt>
      <trkpt lat="44.24435" lon="6.75483">
        <ele>1859.5999755859</ele>
        <time>2020-08-13T14:38:40.000Z</time>
      </trkpt>
      <trkpt lat="44.24444" lon="6.75501">
        <ele>1858.4000244141</ele>
        <time>2020-08-13T14:38:42.000Z</time>
      </trkpt>
      <trkpt lat="44.24454" lon="6.75519">
        <ele>1857.1999511719</ele>
        <time>2020-08-13T14:38:44.000Z</time>
      </trkpt>
      <trkpt lat="44.24457" lon="6.75529">
        <ele>1856.5999755859</ele>
        <time>2020-08-13T14:38:45.000Z</time>
      </trkpt>
      <trkpt lat="44.24459" lon="6.7555">
        <ele>1855.8000488281</ele>
        <time>2020-08-13T14:38:47.000Z</time>
      </trkpt>
      <trkpt lat="44.24459" lon="6.75561">
        <ele>1855.5999755859</ele>
        <time>2020-08-13T14:38:48.000Z</time>
      </trkpt>
      <trkpt lat="44.24453" lon="6.75584">
        <ele>1854.5999755859</ele>
        <time>2020-08-13T14:38:50.000Z</time>
      </trkpt>
      <trkpt lat="44.24448" lon="6.75594">
        <ele>1854.4000244141</ele>
        <time>2020-08-13T14:38:51.000Z</time>
      </trkpt>
      <trkpt lat="44.24444" lon="6.75603">
        <ele>1854.4000244141</ele>
        <time>2020-08-13T14:38:52.000Z</time>
      </trkpt>
      <trkpt lat="44.24435" lon="6.75619">
        <ele>1853.4000244141</ele>
        <time>2020-08-13T14:38:54.000Z</time>
      </trkpt>
      <trkpt lat="44.24433" lon="6.75639">
        <ele>1852.4000244141</ele>
        <time>2020-08-13T14:38:56.000Z</time>
      </trkpt>
      <trkpt lat="44.24435" lon="6.7565">
        <ele>1851.5999755859</ele>
        <time>2020-08-13T14:38:57.000Z</time>
      </trkpt>
      <trkpt lat="44.24444" lon="6.75668">
        <ele>1850</ele>
        <time>2020-08-13T14:38:59.000Z</time>
      </trkpt>
      <trkpt lat="44.24458" lon="6.75682">
        <ele>1848.8000488281</ele>
        <time>2020-08-13T14:39:01.000Z</time>
      </trkpt>
      <trkpt lat="44.24465" lon="6.75687">
        <ele>1848.1999511719</ele>
        <time>2020-08-13T14:39:02.000Z</time>
      </trkpt>
      <trkpt lat="44.24471" lon="6.75692">
        <ele>1847.5999755859</ele>
        <time>2020-08-13T14:39:03.000Z</time>
      </trkpt>
      <trkpt lat="44.24481" lon="6.75702">
        <ele>1846.4000244141</ele>
        <time>2020-08-13T14:39:05.000Z</time>
      </trkpt>
      <trkpt lat="44.24484" lon="6.75708">
        <ele>1846</ele>
        <time>2020-08-13T14:39:06.000Z</time>
      </trkpt>
      <trkpt lat="44.24484" lon="6.75715">
        <ele>1845.4000244141</ele>
        <time>2020-08-13T14:39:07.000Z</time>
      </trkpt>
      <trkpt lat="44.2448" lon="6.75719">
        <ele>1845</ele>
        <time>2020-08-13T14:39:08.000Z</time>
      </trkpt>
      <trkpt lat="44.24469" lon="6.7572">
        <ele>1844.4000244141</ele>
        <time>2020-08-13T14:39:10.000Z</time>
      </trkpt>
      <trkpt lat="44.24463" lon="6.75718">
        <ele>1844</ele>
        <time>2020-08-13T14:39:11.000Z</time>
      </trkpt>
      <trkpt lat="44.24434" lon="6.7571">
        <ele>1843</ele>
        <time>2020-08-13T14:39:15.000Z</time>
      </trkpt>
      <trkpt lat="44.2441" lon="6.75703">
        <ele>1841.8000488281</ele>
        <time>2020-08-13T14:39:18.000Z</time>
      </trkpt>
      <trkpt lat="44.244" lon="6.757">
        <ele>1841.1999511719</ele>
        <time>2020-08-13T14:39:19.000Z</time>
      </trkpt>
      <trkpt lat="44.24391" lon="6.75696">
        <ele>1840.4000244141</ele>
        <time>2020-08-13T14:39:20.000Z</time>
      </trkpt>
      <trkpt lat="44.24373" lon="6.75686">
        <ele>1839.1999511719</ele>
        <time>2020-08-13T14:39:22.000Z</time>
      </trkpt>
      <trkpt lat="44.24365" lon="6.7568">
        <ele>1838.4000244141</ele>
        <time>2020-08-13T14:39:23.000Z</time>
      </trkpt>
      <trkpt lat="44.24357" lon="6.75671">
        <ele>1838</ele>
        <time>2020-08-13T14:39:24.000Z</time>
      </trkpt>
      <trkpt lat="44.24343" lon="6.75651">
        <ele>1836.5999755859</ele>
        <time>2020-08-13T14:39:26.000Z</time>
      </trkpt>
      <trkpt lat="44.24333" lon="6.7563">
        <ele>1835.1999511719</ele>
        <time>2020-08-13T14:39:28.000Z</time>
      </trkpt>
      <trkpt lat="44.24325" lon="6.75605">
        <ele>1834.1999511719</ele>
        <time>2020-08-13T14:39:30.000Z</time>
      </trkpt>
      <trkpt lat="44.24319" lon="6.75584">
        <ele>1833.1999511719</ele>
        <time>2020-08-13T14:39:32.000Z</time>
      </trkpt>
      <trkpt lat="44.24313" lon="6.75565">
        <ele>1831.1999511719</ele>
        <time>2020-08-13T14:39:34.000Z</time>
      </trkpt>
      <trkpt lat="44.24311" lon="6.75556">
        <ele>1830</ele>
        <time>2020-08-13T14:39:35.000Z</time>
      </trkpt>
      <trkpt lat="44.24308" lon="6.75549">
        <ele>1828.8000488281</ele>
        <time>2020-08-13T14:39:36.000Z</time>
      </trkpt>
      <trkpt lat="44.24306" lon="6.75543">
        <ele>1827.5999755859</ele>
        <time>2020-08-13T14:39:37.000Z</time>
      </trkpt>
      <trkpt lat="44.24305" lon="6.75538">
        <ele>1826.1999511719</ele>
        <time>2020-08-13T14:39:38.000Z</time>
      </trkpt>
      <trkpt lat="44.24303" lon="6.75533">
        <ele>1825</ele>
        <time>2020-08-13T14:39:39.000Z</time>
      </trkpt>
      <trkpt lat="44.24301" lon="6.75527">
        <ele>1823.5999755859</ele>
        <time>2020-08-13T14:39:41.000Z</time>
      </trkpt>
      <trkpt lat="44.243" lon="6.75524">
        <ele>1822.8000488281</ele>
        <time>2020-08-13T14:39:43.000Z</time>
      </trkpt>
      <trkpt lat="44.24301" lon="6.75524">
        <ele>1822.5999755859</ele>
        <time>2020-08-13T14:39:44.000Z</time>
      </trkpt>
      <trkpt lat="44.243" lon="6.75524">
        <ele>1822.1999511719</ele>
        <time>2020-08-13T14:39:47.000Z</time>
      </trkpt>
      <trkpt lat="44.243" lon="6.75524">
        <ele>1822.1999511719</ele>
        <time>2020-08-13T14:39:53.000Z</time>
      </trkpt>
      <trkpt lat="44.243" lon="6.75523">
        <ele>1822.1999511719</ele>
        <time>2020-08-13T14:40:00.000Z</time>
      </trkpt>
      <trkpt lat="44.24299" lon="6.7552">
        <ele>1822</ele>
        <time>2020-08-13T14:40:06.000Z</time>
      </trkpt>
      <trkpt lat="44.24298" lon="6.75517">
        <ele>1822.1999511719</ele>
        <time>2020-08-13T14:40:13.000Z</time>
      </trkpt>
      <trkpt lat="44.24299" lon="6.75519">
        <ele>1822.1999511719</ele>
        <time>2020-08-13T14:40:18.000Z</time>
      </trkpt>
      <trkpt lat="44.243" lon="6.75521">
        <ele>1822.1999511719</ele>
        <time>2020-08-13T14:40:19.000Z</time>
      </trkpt>
      <trkpt lat="44.24304" lon="6.75529">
        <ele>1822.1999511719</ele>
        <time>2020-08-13T14:40:23.000Z</time>
      </trkpt>
      <trkpt lat="44.24304" lon="6.75532">
        <ele>1822.1999511719</ele>
        <time>2020-08-13T14:40:26.000Z</time>
      </trkpt>
      <trkpt lat="44.24303" lon="6.75536">
        <ele>1822.4000244141</ele>
        <time>2020-08-13T14:40:30.000Z</time>
      </trkpt>
      <trkpt lat="44.24304" lon="6.75536">
        <ele>1822.5999755859</ele>
        <time>2020-08-13T14:40:36.000Z</time>
      </trkpt>
      <trkpt lat="44.24307" lon="6.75529">
        <ele>1822.4000244141</ele>
        <time>2020-08-13T14:40:41.000Z</time>
      </trkpt>
      <trkpt lat="44.24308" lon="6.75524">
        <ele>1822</ele>
        <time>2020-08-13T14:40:46.000Z</time>
      </trkpt>
      <trkpt lat="44.24308" lon="6.7552">
        <ele>1822</ele>
        <time>2020-08-13T14:40:51.000Z</time>
      </trkpt>
      <trkpt lat="44.24308" lon="6.75518">
        <ele>1821.5999755859</ele>
        <time>2020-08-13T14:40:57.000Z</time>
      </trkpt>
      <trkpt lat="44.24312" lon="6.75522">
        <ele>1822</ele>
        <time>2020-08-13T14:41:01.000Z</time>
      </trkpt>
      <trkpt lat="44.24316" lon="6.75519">
        <ele>1822.1999511719</ele>
        <time>2020-08-13T14:41:03.000Z</time>
      </trkpt>
      <trkpt lat="44.24315" lon="6.75517">
        <ele>1821.8000488281</ele>
        <time>2020-08-13T14:41:08.000Z</time>
      </trkpt>
      <trkpt lat="44.24312" lon="6.75515">
        <ele>1821.8000488281</ele>
        <time>2020-08-13T14:41:10.000Z</time>
      </trkpt>
      <trkpt lat="44.24304" lon="6.75513">
        <ele>1821.8000488281</ele>
        <time>2020-08-13T14:41:12.000Z</time>
      </trkpt>
      <trkpt lat="44.24299" lon="6.75514">
        <ele>1821.8000488281</ele>
        <time>2020-08-13T14:41:14.000Z</time>
      </trkpt>
      <trkpt lat="44.24297" lon="6.75513">
        <ele>1822</ele>
        <time>2020-08-13T14:41:15.000Z</time>
      </trkpt>
      <trkpt lat="44.24294" lon="6.75513">
        <ele>1822</ele>
        <time>2020-08-13T14:41:17.000Z</time>
      </trkpt>
      <trkpt lat="44.24294" lon="6.7551">
        <ele>1822.4000244141</ele>
        <time>2020-08-13T14:41:23.000Z</time>
      </trkpt>
      <trkpt lat="44.24298" lon="6.75509">
        <ele>1822</ele>
        <time>2020-08-13T14:41:29.000Z</time>
      </trkpt>
      <trkpt lat="44.24299" lon="6.75508">
        <ele>1821.8000488281</ele>
        <time>2020-08-13T14:41:30.000Z</time>
      </trkpt>
      <trkpt lat="44.24299" lon="6.75509">
        <ele>1821.4000244141</ele>
        <time>2020-08-13T14:41:32.000Z</time>
      </trkpt>
      <trkpt lat="44.24299" lon="6.75509">
        <ele>1821.4000244141</ele>
        <time>2020-08-13T14:41:34.000Z</time>
      </trkpt>
      <trkpt lat="44.24298" lon="6.7551">
        <ele>1821.8000488281</ele>
        <time>2020-08-13T14:41:40.000Z</time>
      </trkpt>
      <trkpt lat="44.243" lon="6.75509">
        <ele>1822</ele>
        <time>2020-08-13T14:41:46.000Z</time>
      </trkpt>
      <trkpt lat="44.24305" lon="6.75507">
        <ele>1822</ele>
        <time>2020-08-13T14:41:51.000Z</time>
      </trkpt>
      <trkpt lat="44.24306" lon="6.75508">
        <ele>1822</ele>
        <time>2020-08-13T14:41:52.000Z</time>
      </trkpt>
      <trkpt lat="44.24307" lon="6.75513">
        <ele>1821.4000244141</ele>
        <time>2020-08-13T14:41:56.000Z</time>
      </trkpt>
      <trkpt lat="44.24307" lon="6.7551">
        <ele>1821.8000488281</ele>
        <time>2020-08-13T14:42:00.000Z</time>
      </trkpt>
      <trkpt lat="44.24305" lon="6.75511">
        <ele>1821.8000488281</ele>
        <time>2020-08-13T14:42:01.000Z</time>
      </trkpt>
      <trkpt lat="44.24301" lon="6.75514">
        <ele>1821.5999755859</ele>
        <time>2020-08-13T14:42:05.000Z</time>
      </trkpt>
      <trkpt lat="44.24297" lon="6.75517">
        <ele>1821.8000488281</ele>
        <time>2020-08-13T14:42:09.000Z</time>
      </trkpt>
      <trkpt lat="44.24294" lon="6.75511">
        <ele>1822</ele>
        <time>2020-08-13T14:42:14.000Z</time>
      </trkpt>
      <trkpt lat="44.24294" lon="6.75512">
        <ele>1821.8000488281</ele>
        <time>2020-08-13T14:42:20.000Z</time>
      </trkpt>
      <trkpt lat="44.24293" lon="6.75511">
        <ele>1821.1999511719</ele>
        <time>2020-08-13T14:42:26.000Z</time>
      </trkpt>
      <trkpt lat="44.24295" lon="6.75511">
        <ele>1821.4000244141</ele>
        <time>2020-08-13T14:42:33.000Z</time>
      </trkpt>
      <trkpt lat="44.24295" lon="6.75512">
        <ele>1821.4000244141</ele>
        <time>2020-08-13T14:42:40.000Z</time>
      </trkpt>
      <trkpt lat="44.24295" lon="6.75513">
        <ele>1821.4000244141</ele>
        <time>2020-08-13T14:42:47.000Z</time>
      </trkpt>
      <trkpt lat="44.24294" lon="6.75514">
        <ele>1821.4000244141</ele>
        <time>2020-08-13T14:42:58.000Z</time>
      </trkpt>
      <trkpt lat="44.24295" lon="6.75515">
        <ele>1821.4000244141</ele>
        <time>2020-08-13T14:42:59.000Z</time>
      </trkpt>
      <trkpt lat="44.24288" lon="6.75521">
        <ele>1820.8000488281</ele>
        <time>2020-08-13T14:43:09.000Z</time>
      </trkpt>
      <trkpt lat="44.24296" lon="6.75518">
        <ele>1820.8000488281</ele>
        <time>2020-08-13T14:43:10.000Z</time>
      </trkpt>
      <trkpt lat="44.24302" lon="6.7552">
        <ele>1820.8000488281</ele>
        <time>2020-08-13T14:43:12.000Z</time>
      </trkpt>
      <trkpt lat="44.24316" lon="6.7552">
        <ele>1820.8000488281</ele>
        <time>2020-08-13T14:43:18.000Z</time>
      </trkpt>
      <trkpt lat="44.24316" lon="6.75521">
        <ele>1820.8000488281</ele>
        <time>2020-08-13T14:43:19.000Z</time>
      </trkpt>
      <trkpt lat="44.24315" lon="6.75532">
        <ele>1821</ele>
        <time>2020-08-13T14:43:22.000Z</time>
      </trkpt>
      <trkpt lat="44.24314" lon="6.75539">
        <ele>1821.1999511719</ele>
        <time>2020-08-13T14:43:27.000Z</time>
      </trkpt>
      <trkpt lat="44.24304" lon="6.75537">
        <ele>1821.1999511719</ele>
        <time>2020-08-13T14:43:31.000Z</time>
      </trkpt>
      <trkpt lat="44.24298" lon="6.75537">
        <ele>1821.1999511719</ele>
        <time>2020-08-13T14:43:33.000Z</time>
      </trkpt>
      <trkpt lat="44.24308" lon="6.75536">
        <ele>1820.8000488281</ele>
        <time>2020-08-13T14:43:50.000Z</time>
      </trkpt>
      <trkpt lat="44.24302" lon="6.75529">
        <ele>1820.8000488281</ele>
        <time>2020-08-13T14:43:57.000Z</time>
      </trkpt>
      <trkpt lat="44.24304" lon="6.75534">
        <ele>1820.8000488281</ele>
        <time>2020-08-13T14:44:00.000Z</time>
      </trkpt>
      <trkpt lat="44.24306" lon="6.75534">
        <ele>1821</ele>
        <time>2020-08-13T14:44:02.000Z</time>
      </trkpt>
      <trkpt lat="44.24309" lon="6.75533">
        <ele>1820.5999755859</ele>
        <time>2020-08-13T14:44:06.000Z</time>
      </trkpt>
      <trkpt lat="44.24311" lon="6.75532">
        <ele>1820.5999755859</ele>
        <time>2020-08-13T14:44:07.000Z</time>
      </trkpt>
      <trkpt lat="44.24312" lon="6.7553">
        <ele>1821</ele>
        <time>2020-08-13T14:44:10.000Z</time>
      </trkpt>
      <trkpt lat="44.2431" lon="6.75529">
        <ele>1820.8000488281</ele>
        <time>2020-08-13T14:44:12.000Z</time>
      </trkpt>
      <trkpt lat="44.24308" lon="6.75527">
        <ele>1820.8000488281</ele>
        <time>2020-08-13T14:44:13.000Z</time>
      </trkpt>
      <trkpt lat="44.24305" lon="6.75524">
        <ele>1821.1999511719</ele>
        <time>2020-08-13T14:44:17.000Z</time>
      </trkpt>
      <trkpt lat="44.24307" lon="6.75523">
        <ele>1821.1999511719</ele>
        <time>2020-08-13T14:44:22.000Z</time>
      </trkpt>
      <trkpt lat="44.24307" lon="6.75521">
        <ele>1821.1999511719</ele>
        <time>2020-08-13T14:44:23.000Z</time>
      </trkpt>
      <trkpt lat="44.24305" lon="6.75515">
        <ele>1821.4000244141</ele>
        <time>2020-08-13T14:44:26.000Z</time>
      </trkpt>
      <trkpt lat="44.24301" lon="6.75512">
        <ele>1821.4000244141</ele>
        <time>2020-08-13T14:44:31.000Z</time>
      </trkpt>
      <trkpt lat="44.243" lon="6.7551">
        <ele>1821.4000244141</ele>
        <time>2020-08-13T14:44:35.000Z</time>
      </trkpt>
      <trkpt lat="44.243" lon="6.7551">
        <ele>1821.1999511719</ele>
        <time>2020-08-13T14:44:36.000Z</time>
      </trkpt>
      <trkpt lat="44.24301" lon="6.7551">
        <ele>1821.1999511719</ele>
        <time>2020-08-13T14:44:41.000Z</time>
      </trkpt>
      <trkpt lat="44.24303" lon="6.75511">
        <ele>1821.1999511719</ele>
        <time>2020-08-13T14:44:42.000Z</time>
      </trkpt>
      <trkpt lat="44.24305" lon="6.75513">
        <ele>1821</ele>
        <time>2020-08-13T14:44:45.000Z</time>
      </trkpt>
      <trkpt lat="44.24307" lon="6.75513">
        <ele>1821</ele>
        <time>2020-08-13T14:44:50.000Z</time>
      </trkpt>
      <trkpt lat="44.24305" lon="6.75514">
        <ele>1821</ele>
        <time>2020-08-13T14:44:56.000Z</time>
      </trkpt>
      <trkpt lat="44.24305" lon="6.75511">
        <ele>1820.8000488281</ele>
        <time>2020-08-13T14:44:59.000Z</time>
      </trkpt>
      <trkpt lat="44.24306" lon="6.75511">
        <ele>1820.8000488281</ele>
        <time>2020-08-13T14:45:01.000Z</time>
      </trkpt>
      <trkpt lat="44.24304" lon="6.7551">
        <ele>1820.8000488281</ele>
        <time>2020-08-13T14:45:03.000Z</time>
      </trkpt>
      <trkpt lat="44.24303" lon="6.75512">
        <ele>1820.8000488281</ele>
        <time>2020-08-13T14:45:05.000Z</time>
      </trkpt>
      <trkpt lat="44.24303" lon="6.75517">
        <ele>1820.5999755859</ele>
        <time>2020-08-13T14:45:10.000Z</time>
      </trkpt>
      <trkpt lat="44.24304" lon="6.75516">
        <ele>1820.8000488281</ele>
        <time>2020-08-13T14:45:14.000Z</time>
      </trkpt>
      <trkpt lat="44.24305" lon="6.75516">
        <ele>1820.8000488281</ele>
        <time>2020-08-13T14:45:19.000Z</time>
      </trkpt>
      <trkpt lat="44.24309" lon="6.75521">
        <ele>1820.4000244141</ele>
        <time>2020-08-13T14:45:26.000Z</time>
      </trkpt>
      <trkpt lat="44.24309" lon="6.75526">
        <ele>1820</ele>
        <time>2020-08-13T14:45:29.000Z</time>
      </trkpt>
      <trkpt lat="44.2431" lon="6.75525">
        <ele>1820</ele>
        <time>2020-08-13T14:45:31.000Z</time>
      </trkpt>
      <trkpt lat="44.24313" lon="6.75525">
        <ele>1820</ele>
        <time>2020-08-13T14:45:38.000Z</time>
      </trkpt>
      <trkpt lat="44.2431" lon="6.75525">
        <ele>1820.4000244141</ele>
        <time>2020-08-13T14:45:41.000Z</time>
      </trkpt>
      <trkpt lat="44.24309" lon="6.75528">
        <ele>1820.5999755859</ele>
        <time>2020-08-13T14:45:44.000Z</time>
      </trkpt>
      <trkpt lat="44.24309" lon="6.75528">
        <ele>1820.5999755859</ele>
        <time>2020-08-13T14:45:46.000Z</time>
      </trkpt>
      <trkpt lat="44.24304" lon="6.75528">
        <ele>1820.4000244141</ele>
        <time>2020-08-13T14:45:53.000Z</time>
      </trkpt>
      <trkpt lat="44.24304" lon="6.75525">
        <ele>1820.5999755859</ele>
        <time>2020-08-13T14:45:58.000Z</time>
      </trkpt>
      <trkpt lat="44.24308" lon="6.75523">
        <ele>1820.5999755859</ele>
        <time>2020-08-13T14:46:05.000Z</time>
      </trkpt>
      <trkpt lat="44.24309" lon="6.75523">
        <ele>1820.5999755859</ele>
        <time>2020-08-13T14:46:09.000Z</time>
      </trkpt>
      <trkpt lat="44.24311" lon="6.75525">
        <ele>1820.8000488281</ele>
        <time>2020-08-13T14:46:10.000Z</time>
      </trkpt>
      <trkpt lat="44.24315" lon="6.75525">
        <ele>1820.5999755859</ele>
        <time>2020-08-13T14:46:15.000Z</time>
      </trkpt>
      <trkpt lat="44.24313" lon="6.75523">
        <ele>1820.5999755859</ele>
        <time>2020-08-13T14:46:20.000Z</time>
      </trkpt>
      <trkpt lat="44.24312" lon="6.75526">
        <ele>1820.5999755859</ele>
        <time>2020-08-13T14:46:25.000Z</time>
      </trkpt>
      <trkpt lat="44.2431" lon="6.75527">
        <ele>1820.5999755859</ele>
        <time>2020-08-13T14:46:27.000Z</time>
      </trkpt>
      <trkpt lat="44.24307" lon="6.75528">
        <ele>1820.8000488281</ele>
        <time>2020-08-13T14:46:48.000Z</time>
      </trkpt>
      <trkpt lat="44.24308" lon="6.75513">
        <ele>1820.5999755859</ele>
        <time>2020-08-13T14:46:53.000Z</time>
      </trkpt>
      <trkpt lat="44.24308" lon="6.75512">
        <ele>1820.5999755859</ele>
        <time>2020-08-13T14:46:55.000Z</time>
      </trkpt>
      <trkpt lat="44.24307" lon="6.75511">
        <ele>1820.5999755859</ele>
        <time>2020-08-13T14:47:01.000Z</time>
      </trkpt>
      <trkpt lat="44.24307" lon="6.75508">
        <ele>1820.5999755859</ele>
        <time>2020-08-13T14:47:07.000Z</time>
      </trkpt>
      <trkpt lat="44.24298" lon="6.75508">
        <ele>1820.5999755859</ele>
        <time>2020-08-13T14:47:12.000Z</time>
      </trkpt>
      <trkpt lat="44.24296" lon="6.75508">
        <ele>1820.5999755859</ele>
        <time>2020-08-13T14:47:13.000Z</time>
      </trkpt>
      <trkpt lat="44.24292" lon="6.7551">
        <ele>1820.5999755859</ele>
        <time>2020-08-13T14:47:16.000Z</time>
      </trkpt>
      <trkpt lat="44.24293" lon="6.7551">
        <ele>1820.5999755859</ele>
        <time>2020-08-13T14:47:18.000Z</time>
      </trkpt>
      <trkpt lat="44.2429" lon="6.75516">
        <ele>1820.8000488281</ele>
        <time>2020-08-13T14:47:22.000Z</time>
      </trkpt>
      <trkpt lat="44.24293" lon="6.75526">
        <ele>1820.5999755859</ele>
        <time>2020-08-13T14:47:29.000Z</time>
      </trkpt>
      <trkpt lat="44.24301" lon="6.75535">
        <ele>1820.5999755859</ele>
        <time>2020-08-13T14:47:33.000Z</time>
      </trkpt>
      <trkpt lat="44.24311" lon="6.75525">
        <ele>1820.4000244141</ele>
        <time>2020-08-13T14:47:42.000Z</time>
      </trkpt>
      <trkpt lat="44.24315" lon="6.75515">
        <ele>1820.5999755859</ele>
        <time>2020-08-13T14:47:47.000Z</time>
      </trkpt>
      <trkpt lat="44.24313" lon="6.75512">
        <ele>1820.1999511719</ele>
        <time>2020-08-13T14:47:54.000Z</time>
      </trkpt>
      <trkpt lat="44.2431" lon="6.7551">
        <ele>1819.8000488281</ele>
        <time>2020-08-13T14:47:59.000Z</time>
      </trkpt>
      <trkpt lat="44.24313" lon="6.75515">
        <ele>1820</ele>
        <time>2020-08-13T14:48:03.000Z</time>
      </trkpt>
      <trkpt lat="44.24312" lon="6.75518">
        <ele>1820</ele>
        <time>2020-08-13T14:48:04.000Z</time>
      </trkpt>
      <trkpt lat="44.24311" lon="6.75517">
        <ele>1820</ele>
        <time>2020-08-13T14:48:08.000Z</time>
      </trkpt>
      <trkpt lat="44.24313" lon="6.75514">
        <ele>1820.4000244141</ele>
        <time>2020-08-13T14:48:14.000Z</time>
      </trkpt>
      <trkpt lat="44.24312" lon="6.75515">
        <ele>1820.5999755859</ele>
        <time>2020-08-13T14:48:19.000Z</time>
      </trkpt>
      <trkpt lat="44.24309" lon="6.75519">
        <ele>1820.8000488281</ele>
        <time>2020-08-13T14:48:25.000Z</time>
      </trkpt>
      <trkpt lat="44.24307" lon="6.75518">
        <ele>1820.8000488281</ele>
        <time>2020-08-13T14:48:30.000Z</time>
      </trkpt>
      <trkpt lat="44.2431" lon="6.75515">
        <ele>1820.8000488281</ele>
        <time>2020-08-13T14:48:36.000Z</time>
      </trkpt>
      <trkpt lat="44.24312" lon="6.75516">
        <ele>1820.8000488281</ele>
        <time>2020-08-13T14:48:37.000Z</time>
      </trkpt>
      <trkpt lat="44.24314" lon="6.75515">
        <ele>1820.8000488281</ele>
        <time>2020-08-13T14:48:39.000Z</time>
      </trkpt>
      <trkpt lat="44.24314" lon="6.75514">
        <ele>1820.8000488281</ele>
        <time>2020-08-13T14:48:41.000Z</time>
      </trkpt>
      <trkpt lat="44.24316" lon="6.75512">
        <ele>1820.8000488281</ele>
        <time>2020-08-13T14:48:44.000Z</time>
      </trkpt>
      <trkpt lat="44.24316" lon="6.75508">
        <ele>1820.5999755859</ele>
        <time>2020-08-13T14:48:46.000Z</time>
      </trkpt>
      <trkpt lat="44.24315" lon="6.75503">
        <ele>1820.1999511719</ele>
        <time>2020-08-13T14:48:51.000Z</time>
      </trkpt>
      <trkpt lat="44.24314" lon="6.75506">
        <ele>1820.1999511719</ele>
        <time>2020-08-13T14:48:55.000Z</time>
      </trkpt>
      <trkpt lat="44.24311" lon="6.75508">
        <ele>1820.4000244141</ele>
        <time>2020-08-13T14:48:58.000Z</time>
      </trkpt>
      <trkpt lat="44.2431" lon="6.75514">
        <ele>1820.4000244141</ele>
        <time>2020-08-13T14:49:01.000Z</time>
      </trkpt>
      <trkpt lat="44.2431" lon="6.75511">
        <ele>1820.1999511719</ele>
        <time>2020-08-13T14:49:06.000Z</time>
      </trkpt>
      <trkpt lat="44.24311" lon="6.75509">
        <ele>1820.1999511719</ele>
        <time>2020-08-13T14:49:07.000Z</time>
      </trkpt>
      <trkpt lat="44.2431" lon="6.75507">
        <ele>1820.1999511719</ele>
        <time>2020-08-13T14:49:11.000Z</time>
      </trkpt>
      <trkpt lat="44.2431" lon="6.75507">
        <ele>1820.1999511719</ele>
        <time>2020-08-13T14:49:12.000Z</time>
      </trkpt>
      <trkpt lat="44.24306" lon="6.75506">
        <ele>1820.5999755859</ele>
        <time>2020-08-13T14:49:18.000Z</time>
      </trkpt>
      <trkpt lat="44.24304" lon="6.75507">
        <ele>1820.4000244141</ele>
        <time>2020-08-13T14:49:24.000Z</time>
      </trkpt>
      <trkpt lat="44.24304" lon="6.7551">
        <ele>1820.4000244141</ele>
        <time>2020-08-13T14:49:27.000Z</time>
      </trkpt>
      <trkpt lat="44.24306" lon="6.75516">
        <ele>1820.4000244141</ele>
        <time>2020-08-13T14:49:29.000Z</time>
      </trkpt>
      <trkpt lat="44.24312" lon="6.75533">
        <ele>1820.4000244141</ele>
        <time>2020-08-13T14:49:35.000Z</time>
      </trkpt>
      <trkpt lat="44.24316" lon="6.75541">
        <ele>1820.4000244141</ele>
        <time>2020-08-13T14:49:48.000Z</time>
      </trkpt>
      <trkpt lat="44.24314" lon="6.75529">
        <ele>1820.4000244141</ele>
        <time>2020-08-13T14:49:50.000Z</time>
      </trkpt>
      <trkpt lat="44.24311" lon="6.75524">
        <ele>1820.4000244141</ele>
        <time>2020-08-13T14:49:52.000Z</time>
      </trkpt>
      <trkpt lat="44.24309" lon="6.75527">
        <ele>1820.4000244141</ele>
        <time>2020-08-13T14:49:55.000Z</time>
      </trkpt>
      <trkpt lat="44.24307" lon="6.75525">
        <ele>1820.1999511719</ele>
        <time>2020-08-13T14:50:00.000Z</time>
      </trkpt>
      <trkpt lat="44.24304" lon="6.75516">
        <ele>1820.1999511719</ele>
        <time>2020-08-13T14:50:24.000Z</time>
      </trkpt>
      <trkpt lat="44.24301" lon="6.75516">
        <ele>1820.1999511719</ele>
        <time>2020-08-13T14:50:28.000Z</time>
      </trkpt>
      <trkpt lat="44.243" lon="6.75515">
        <ele>1820.1999511719</ele>
        <time>2020-08-13T14:50:29.000Z</time>
      </trkpt>
      <trkpt lat="44.24299" lon="6.75514">
        <ele>1820.1999511719</ele>
        <time>2020-08-13T14:50:32.000Z</time>
      </trkpt>
      <trkpt lat="44.24298" lon="6.75518">
        <ele>1820</ele>
        <time>2020-08-13T14:50:34.000Z</time>
      </trkpt>
      <trkpt lat="44.243" lon="6.75515">
        <ele>1820</ele>
        <time>2020-08-13T14:50:38.000Z</time>
      </trkpt>
      <trkpt lat="44.24301" lon="6.75516">
        <ele>1820</ele>
        <time>2020-08-13T14:50:43.000Z</time>
      </trkpt>
      <trkpt lat="44.24301" lon="6.75519">
        <ele>1820.1999511719</ele>
        <time>2020-08-13T14:50:49.000Z</time>
      </trkpt>
      <trkpt lat="44.24299" lon="6.75521">
        <ele>1820</ele>
        <time>2020-08-13T14:50:52.000Z</time>
      </trkpt>
      <trkpt lat="44.24295" lon="6.75525">
        <ele>1820</ele>
        <time>2020-08-13T14:50:55.000Z</time>
      </trkpt>
      <trkpt lat="44.24287" lon="6.75531">
        <ele>1819.8000488281</ele>
        <time>2020-08-13T14:51:01.000Z</time>
      </trkpt>
      <trkpt lat="44.24288" lon="6.75539">
        <ele>1819.8000488281</ele>
        <time>2020-08-13T14:51:05.000Z</time>
      </trkpt>
      <trkpt lat="44.24291" lon="6.7554">
        <ele>1819.8000488281</ele>
        <time>2020-08-13T14:51:07.000Z</time>
      </trkpt>
      <trkpt lat="44.24293" lon="6.75539">
        <ele>1819.8000488281</ele>
        <time>2020-08-13T14:51:09.000Z</time>
      </trkpt>
      <trkpt lat="44.24293" lon="6.75538">
        <ele>1819.8000488281</ele>
        <time>2020-08-13T14:51:13.000Z</time>
      </trkpt>
      <trkpt lat="44.24292" lon="6.75536">
        <ele>1820</ele>
        <time>2020-08-13T14:51:14.000Z</time>
      </trkpt>
      <trkpt lat="44.24293" lon="6.75533">
        <ele>1820</ele>
        <time>2020-08-13T14:51:19.000Z</time>
      </trkpt>
      <trkpt lat="44.24297" lon="6.75532">
        <ele>1820.1999511719</ele>
        <time>2020-08-13T14:51:26.000Z</time>
      </trkpt>
      <trkpt lat="44.24298" lon="6.75531">
        <ele>1820</ele>
        <time>2020-08-13T14:51:31.000Z</time>
      </trkpt>
      <trkpt lat="44.243" lon="6.7553">
        <ele>1820</ele>
        <time>2020-08-13T14:51:33.000Z</time>
      </trkpt>
      <trkpt lat="44.24302" lon="6.75532">
        <ele>1820.1999511719</ele>
        <time>2020-08-13T14:51:36.000Z</time>
      </trkpt>
      <trkpt lat="44.24302" lon="6.75531">
        <ele>1820.1999511719</ele>
        <time>2020-08-13T14:51:38.000Z</time>
      </trkpt>
      <trkpt lat="44.24301" lon="6.75528">
        <ele>1820.1999511719</ele>
        <time>2020-08-13T14:51:44.000Z</time>
      </trkpt>
      <trkpt lat="44.24298" lon="6.75489">
        <ele>1820</ele>
        <time>2020-08-13T14:51:59.000Z</time>
      </trkpt>
      <trkpt lat="44.24263" lon="6.75508">
        <ele>1820.8000488281</ele>
        <time>2020-08-13T14:53:50.000Z</time>
      </trkpt>
      <trkpt lat="44.24263" lon="6.75508">
        <ele>1820.5999755859</ele>
        <time>2020-08-13T14:53:51.000Z</time>
      </trkpt>
      <trkpt lat="44.24294" lon="6.75524">
        <ele>1820.5999755859</ele>
        <time>2020-08-13T14:53:52.000Z</time>
      </trkpt>
      <trkpt lat="44.24306" lon="6.75526">
        <ele>1820.4000244141</ele>
        <time>2020-08-13T14:53:56.000Z</time>
      </trkpt>
      <trkpt lat="44.243" lon="6.75521">
        <ele>1820.4000244141</ele>
        <time>2020-08-13T14:54:01.000Z</time>
      </trkpt>
      <trkpt lat="44.24309" lon="6.75519">
        <ele>1820.5999755859</ele>
        <time>2020-08-13T14:54:06.000Z</time>
      </trkpt>
      <trkpt lat="44.24302" lon="6.75519">
        <ele>1820.5999755859</ele>
        <time>2020-08-13T14:54:13.000Z</time>
      </trkpt>
      <trkpt lat="44.24302" lon="6.75522">
        <ele>1820.8000488281</ele>
        <time>2020-08-13T14:54:20.000Z</time>
      </trkpt>
      <trkpt lat="44.24304" lon="6.75521">
        <ele>1820.8000488281</ele>
        <time>2020-08-13T14:54:26.000Z</time>
      </trkpt>
      <trkpt lat="44.24303" lon="6.75481">
        <ele>1820.5999755859</ele>
        <time>2020-08-13T14:55:03.000Z</time>
      </trkpt>
      <trkpt lat="44.24305" lon="6.75503">
        <ele>1820.8000488281</ele>
        <time>2020-08-13T14:55:06.000Z</time>
      </trkpt>
      <trkpt lat="44.24309" lon="6.75506">
        <ele>1820.8000488281</ele>
        <time>2020-08-13T14:55:09.000Z</time>
      </trkpt>
      <trkpt lat="44.24312" lon="6.75508">
        <ele>1821</ele>
        <time>2020-08-13T14:55:12.000Z</time>
      </trkpt>
      <trkpt lat="44.2432" lon="6.75504">
        <ele>1820.8000488281</ele>
        <time>2020-08-13T14:55:16.000Z</time>
      </trkpt>
      <trkpt lat="44.2432" lon="6.75504">
        <ele>1821</ele>
        <time>2020-08-13T14:55:18.000Z</time>
      </trkpt>
      <trkpt lat="44.24317" lon="6.75502">
        <ele>1821</ele>
        <time>2020-08-13T14:55:20.000Z</time>
      </trkpt>
      <trkpt lat="44.24315" lon="6.75504">
        <ele>1820.8000488281</ele>
        <time>2020-08-13T14:55:23.000Z</time>
      </trkpt>
      <trkpt lat="44.24318" lon="6.75513">
        <ele>1821.1999511719</ele>
        <time>2020-08-13T14:55:31.000Z</time>
      </trkpt>
      <trkpt lat="44.24318" lon="6.75514">
        <ele>1821</ele>
        <time>2020-08-13T14:55:38.000Z</time>
      </trkpt>
      <trkpt lat="44.24314" lon="6.75515">
        <ele>1821</ele>
        <time>2020-08-13T14:55:44.000Z</time>
      </trkpt>
      <trkpt lat="44.24314" lon="6.75517">
        <ele>1821</ele>
        <time>2020-08-13T14:55:45.000Z</time>
      </trkpt>
      <trkpt lat="44.24315" lon="6.75519">
        <ele>1820.8000488281</ele>
        <time>2020-08-13T14:55:49.000Z</time>
      </trkpt>
      <trkpt lat="44.2431" lon="6.75521">
        <ele>1820.8000488281</ele>
        <time>2020-08-13T14:55:52.000Z</time>
      </trkpt>
      <trkpt lat="44.24307" lon="6.75521">
        <ele>1820.8000488281</ele>
        <time>2020-08-13T14:55:54.000Z</time>
      </trkpt>
      <trkpt lat="44.24305" lon="6.7552">
        <ele>1820.8000488281</ele>
        <time>2020-08-13T14:56:00.000Z</time>
      </trkpt>
      <trkpt lat="44.24304" lon="6.75522">
        <ele>1820.8000488281</ele>
        <time>2020-08-13T14:56:03.000Z</time>
      </trkpt>
      <trkpt lat="44.24304" lon="6.75523">
        <ele>1820.8000488281</ele>
        <time>2020-08-13T14:56:06.000Z</time>
      </trkpt>
      <trkpt lat="44.24305" lon="6.75524">
        <ele>1820.5999755859</ele>
        <time>2020-08-13T14:56:08.000Z</time>
      </trkpt>
      <trkpt lat="44.24306" lon="6.75523">
        <ele>1820.8000488281</ele>
        <time>2020-08-13T14:56:10.000Z</time>
      </trkpt>
      <trkpt lat="44.24307" lon="6.75522">
        <ele>1820.8000488281</ele>
        <time>2020-08-13T14:56:11.000Z</time>
      </trkpt>
      <trkpt lat="44.24308" lon="6.75522">
        <ele>1821.1999511719</ele>
        <time>2020-08-13T14:56:14.000Z</time>
      </trkpt>
      <trkpt lat="44.24308" lon="6.75522">
        <ele>1821.1999511719</ele>
        <time>2020-08-13T14:56:15.000Z</time>
      </trkpt>
      <trkpt lat="44.2431" lon="6.75523">
        <ele>1821.1999511719</ele>
        <time>2020-08-13T14:56:20.000Z</time>
      </trkpt>
      <trkpt lat="44.24309" lon="6.75521">
        <ele>1821</ele>
        <time>2020-08-13T14:56:27.000Z</time>
      </trkpt>
      <trkpt lat="44.24307" lon="6.75518">
        <ele>1821.1999511719</ele>
        <time>2020-08-13T14:56:33.000Z</time>
      </trkpt>
      <trkpt lat="44.24308" lon="6.75519">
        <ele>1821</ele>
        <time>2020-08-13T14:56:38.000Z</time>
      </trkpt>
      <trkpt lat="44.24312" lon="6.7552">
        <ele>1821</ele>
        <time>2020-08-13T14:56:43.000Z</time>
      </trkpt>
      <trkpt lat="44.2431" lon="6.75519">
        <ele>1821</ele>
        <time>2020-08-13T14:56:47.000Z</time>
      </trkpt>
      <trkpt lat="44.24308" lon="6.75519">
        <ele>1821</ele>
        <time>2020-08-13T14:56:48.000Z</time>
      </trkpt>
      <trkpt lat="44.24306" lon="6.75518">
        <ele>1821</ele>
        <time>2020-08-13T14:56:54.000Z</time>
      </trkpt>
      <trkpt lat="44.24306" lon="6.7552">
        <ele>1821</ele>
        <time>2020-08-13T14:57:01.000Z</time>
      </trkpt>
      <trkpt lat="44.24306" lon="6.7552">
        <ele>1821</ele>
        <time>2020-08-13T14:57:02.000Z</time>
      </trkpt>
      <trkpt lat="44.24308" lon="6.75522">
        <ele>1820.8000488281</ele>
        <time>2020-08-13T14:57:07.000Z</time>
      </trkpt>
      <trkpt lat="44.2431" lon="6.75528">
        <ele>1820.8000488281</ele>
        <time>2020-08-13T14:57:12.000Z</time>
      </trkpt>
      <trkpt lat="44.24307" lon="6.75517">
        <ele>1821</ele>
        <time>2020-08-13T14:57:16.000Z</time>
      </trkpt>
      <trkpt lat="44.24304" lon="6.75514">
        <ele>1821.4000244141</ele>
        <time>2020-08-13T14:57:18.000Z</time>
      </trkpt>
      <trkpt lat="44.24301" lon="6.75514">
        <ele>1821.1999511719</ele>
        <time>2020-08-13T14:57:20.000Z</time>
      </trkpt>
      <trkpt lat="44.243" lon="6.75513">
        <ele>1821.1999511719</ele>
        <time>2020-08-13T14:57:24.000Z</time>
      </trkpt>
      <trkpt lat="44.24302" lon="6.75515">
        <ele>1821.4000244141</ele>
        <time>2020-08-13T14:57:28.000Z</time>
      </trkpt>
      <trkpt lat="44.24302" lon="6.75517">
        <ele>1821.4000244141</ele>
        <time>2020-08-13T14:57:30.000Z</time>
      </trkpt>
      <trkpt lat="44.24302" lon="6.75521">
        <ele>1821.1999511719</ele>
        <time>2020-08-13T14:57:34.000Z</time>
      </trkpt>
      <trkpt lat="44.24302" lon="6.75521">
        <ele>1821.4000244141</ele>
        <time>2020-08-13T14:57:36.000Z</time>
      </trkpt>
      <trkpt lat="44.24303" lon="6.75525">
        <ele>1821.4000244141</ele>
        <time>2020-08-13T14:57:37.000Z</time>
      </trkpt>
      <trkpt lat="44.24305" lon="6.75524">
        <ele>1821.1999511719</ele>
        <time>2020-08-13T14:57:40.000Z</time>
      </trkpt>
      <trkpt lat="44.24305" lon="6.75519">
        <ele>1821.5999755859</ele>
        <time>2020-08-13T14:57:46.000Z</time>
      </trkpt>
      <trkpt lat="44.24307" lon="6.75519">
        <ele>1821.1999511719</ele>
        <time>2020-08-13T14:57:51.000Z</time>
      </trkpt>
      <trkpt lat="44.24305" lon="6.7552">
        <ele>1821.1999511719</ele>
        <time>2020-08-13T14:57:57.000Z</time>
      </trkpt>
      <trkpt lat="44.24306" lon="6.75516">
        <ele>1821.1999511719</ele>
        <time>2020-08-13T14:58:00.000Z</time>
      </trkpt>
      <trkpt lat="44.24307" lon="6.75514">
        <ele>1821.1999511719</ele>
        <time>2020-08-13T14:58:01.000Z</time>
      </trkpt>
      <trkpt lat="44.24309" lon="6.75515">
        <ele>1821</ele>
        <time>2020-08-13T14:58:03.000Z</time>
      </trkpt>
      <trkpt lat="44.24307" lon="6.75511">
        <ele>1821</ele>
        <time>2020-08-13T14:58:06.000Z</time>
      </trkpt>
      <trkpt lat="44.24305" lon="6.75508">
        <ele>1821.1999511719</ele>
        <time>2020-08-13T14:58:11.000Z</time>
      </trkpt>
      <trkpt lat="44.24305" lon="6.75511">
        <ele>1821.1999511719</ele>
        <time>2020-08-13T14:58:13.000Z</time>
      </trkpt>
      <trkpt lat="44.24306" lon="6.75513">
        <ele>1821</ele>
        <time>2020-08-13T14:58:16.000Z</time>
      </trkpt>
      <trkpt lat="44.24308" lon="6.75516">
        <ele>1821</ele>
        <time>2020-08-13T14:58:22.000Z</time>
      </trkpt>
      <trkpt lat="44.24305" lon="6.7552">
        <ele>1821.1999511719</ele>
        <time>2020-08-13T14:58:28.000Z</time>
      </trkpt>
      <trkpt lat="44.24308" lon="6.75519">
        <ele>1821.1999511719</ele>
        <time>2020-08-13T14:58:31.000Z</time>
      </trkpt>
      <trkpt lat="44.24308" lon="6.7552">
        <ele>1821.1999511719</ele>
        <time>2020-08-13T14:58:32.000Z</time>
      </trkpt>
      <trkpt lat="44.24311" lon="6.75511">
        <ele>1821</ele>
        <time>2020-08-13T14:58:39.000Z</time>
      </trkpt>
      <trkpt lat="44.24313" lon="6.75512">
        <ele>1821</ele>
        <time>2020-08-13T14:58:42.000Z</time>
      </trkpt>
      <trkpt lat="44.24313" lon="6.75512">
        <ele>1821</ele>
        <time>2020-08-13T14:58:45.000Z</time>
      </trkpt>
      <trkpt lat="44.24312" lon="6.75509">
        <ele>1821</ele>
        <time>2020-08-13T14:58:46.000Z</time>
      </trkpt>
      <trkpt lat="44.24311" lon="6.75508">
        <ele>1821</ele>
        <time>2020-08-13T14:58:49.000Z</time>
      </trkpt>
      <trkpt lat="44.2431" lon="6.75509">
        <ele>1821</ele>
        <time>2020-08-13T14:58:52.000Z</time>
      </trkpt>
      <trkpt lat="44.2431" lon="6.75511">
        <ele>1821</ele>
        <time>2020-08-13T14:58:54.000Z</time>
      </trkpt>
      <trkpt lat="44.24307" lon="6.75514">
        <ele>1821</ele>
        <time>2020-08-13T14:59:00.000Z</time>
      </trkpt>
      <trkpt lat="44.24307" lon="6.75517">
        <ele>1821</ele>
        <time>2020-08-13T14:59:07.000Z</time>
      </trkpt>
      <trkpt lat="44.2431" lon="6.75518">
        <ele>1821</ele>
        <time>2020-08-13T14:59:09.000Z</time>
      </trkpt>
      <trkpt lat="44.2431" lon="6.75519">
        <ele>1820.8000488281</ele>
        <time>2020-08-13T14:59:13.000Z</time>
      </trkpt>
      <trkpt lat="44.2431" lon="6.75518">
        <ele>1820.8000488281</ele>
        <time>2020-08-13T14:59:14.000Z</time>
      </trkpt>
      <trkpt lat="44.2431" lon="6.75514">
        <ele>1820.5999755859</ele>
        <time>2020-08-13T14:59:17.000Z</time>
      </trkpt>
      <trkpt lat="44.24311" lon="6.75512">
        <ele>1820.5999755859</ele>
        <time>2020-08-13T14:59:18.000Z</time>
      </trkpt>
      <trkpt lat="44.24306" lon="6.75524">
        <ele>1821.1999511719</ele>
        <time>2020-08-13T14:59:48.000Z</time>
      </trkpt>
      <trkpt lat="44.24308" lon="6.75522">
        <ele>1821.1999511719</ele>
        <time>2020-08-13T14:59:49.000Z</time>
      </trkpt>
      <trkpt lat="44.24317" lon="6.75507">
        <ele>1821.1999511719</ele>
        <time>2020-08-13T14:59:53.000Z</time>
      </trkpt>
      <trkpt lat="44.24314" lon="6.75504">
        <ele>1821.1999511719</ele>
        <time>2020-08-13T14:59:57.000Z</time>
      </trkpt>
      <trkpt lat="44.24306" lon="6.755">
        <ele>1820.8000488281</ele>
        <time>2020-08-13T15:00:00.000Z</time>
      </trkpt>
      <trkpt lat="44.24306" lon="6.75502">
        <ele>1820.8000488281</ele>
        <time>2020-08-13T15:00:08.000Z</time>
      </trkpt>
      <trkpt lat="44.24306" lon="6.75508">
        <ele>1820.8000488281</ele>
        <time>2020-08-13T15:00:15.000Z</time>
      </trkpt>
      <trkpt lat="44.24301" lon="6.7552">
        <ele>1821</ele>
        <time>2020-08-13T15:00:20.000Z</time>
      </trkpt>
      <trkpt lat="44.24301" lon="6.75524">
        <ele>1821</ele>
        <time>2020-08-13T15:00:21.000Z</time>
      </trkpt>
      <trkpt lat="44.24302" lon="6.75523">
        <ele>1820.8000488281</ele>
        <time>2020-08-13T15:00:26.000Z</time>
      </trkpt>
      <trkpt lat="44.24303" lon="6.75521">
        <ele>1820.5999755859</ele>
        <time>2020-08-13T15:00:34.000Z</time>
      </trkpt>
      <trkpt lat="44.24306" lon="6.7552">
        <ele>1820.5999755859</ele>
        <time>2020-08-13T15:00:36.000Z</time>
      </trkpt>
      <trkpt lat="44.24304" lon="6.75518">
        <ele>1820.8000488281</ele>
        <time>2020-08-13T15:00:41.000Z</time>
      </trkpt>
      <trkpt lat="44.24304" lon="6.75514">
        <ele>1821.1999511719</ele>
        <time>2020-08-13T15:00:45.000Z</time>
      </trkpt>
      <trkpt lat="44.24306" lon="6.75512">
        <ele>1821.1999511719</ele>
        <time>2020-08-13T15:00:47.000Z</time>
      </trkpt>
      <trkpt lat="44.24306" lon="6.75512">
        <ele>1821.1999511719</ele>
        <time>2020-08-13T15:00:52.000Z</time>
      </trkpt>
      <trkpt lat="44.24303" lon="6.75516">
        <ele>1821</ele>
        <time>2020-08-13T15:00:58.000Z</time>
      </trkpt>
      <trkpt lat="44.243" lon="6.7552">
        <ele>1820.8000488281</ele>
        <time>2020-08-13T15:01:06.000Z</time>
      </trkpt>
      <trkpt lat="44.243" lon="6.75527">
        <ele>1821</ele>
        <time>2020-08-13T15:01:13.000Z</time>
      </trkpt>
      <trkpt lat="44.24298" lon="6.75528">
        <ele>1820.5999755859</ele>
        <time>2020-08-13T15:01:20.000Z</time>
      </trkpt>
      <trkpt lat="44.24298" lon="6.75525">
        <ele>1820.8000488281</ele>
        <time>2020-08-13T15:01:29.000Z</time>
      </trkpt>
      <trkpt lat="44.24299" lon="6.75524">
        <ele>1821</ele>
        <time>2020-08-13T15:01:41.000Z</time>
      </trkpt>
      <trkpt lat="44.24298" lon="6.75525">
        <ele>1821.1999511719</ele>
        <time>2020-08-13T15:01:50.000Z</time>
      </trkpt>
      <trkpt lat="44.24298" lon="6.75526">
        <ele>1821</ele>
        <time>2020-08-13T15:01:57.000Z</time>
      </trkpt>
      <trkpt lat="44.24297" lon="6.75525">
        <ele>1821</ele>
        <time>2020-08-13T15:02:05.000Z</time>
      </trkpt>
      <trkpt lat="44.24292" lon="6.75512">
        <ele>1820.8000488281</ele>
        <time>2020-08-13T15:02:09.000Z</time>
      </trkpt>
      <trkpt lat="44.24289" lon="6.755">
        <ele>1820.1999511719</ele>
        <time>2020-08-13T15:02:11.000Z</time>
      </trkpt>
      <trkpt lat="44.24284" lon="6.75485">
        <ele>1819.4000244141</ele>
        <time>2020-08-13T15:02:13.000Z</time>
      </trkpt>
      <trkpt lat="44.24282" lon="6.75476">
        <ele>1818.8000488281</ele>
        <time>2020-08-13T15:02:14.000Z</time>
      </trkpt>
      <trkpt lat="44.24275" lon="6.75449">
        <ele>1817.5999755859</ele>
        <time>2020-08-13T15:02:17.000Z</time>
      </trkpt>
      <trkpt lat="44.24272" lon="6.75436">
        <ele>1817.1999511719</ele>
        <time>2020-08-13T15:02:18.000Z</time>
      </trkpt>
      <trkpt lat="44.24268" lon="6.75425">
        <ele>1816.4000244141</ele>
        <time>2020-08-13T15:02:19.000Z</time>
      </trkpt>
      <trkpt lat="44.24261" lon="6.75401">
        <ele>1814.1999511719</ele>
        <time>2020-08-13T15:02:21.000Z</time>
      </trkpt>
      <trkpt lat="44.24258" lon="6.75392">
        <ele>1812.8000488281</ele>
        <time>2020-08-13T15:02:22.000Z</time>
      </trkpt>
      <trkpt lat="44.24254" lon="6.7538">
        <ele>1811.8000488281</ele>
        <time>2020-08-13T15:02:23.000Z</time>
      </trkpt>
      <trkpt lat="44.2425" lon="6.75369">
        <ele>1810.8000488281</ele>
        <time>2020-08-13T15:02:24.000Z</time>
      </trkpt>
      <trkpt lat="44.24243" lon="6.75348">
        <ele>1809.8000488281</ele>
        <time>2020-08-13T15:02:26.000Z</time>
      </trkpt>
      <trkpt lat="44.24237" lon="6.7533">
        <ele>1808.4000244141</ele>
        <time>2020-08-13T15:02:28.000Z</time>
      </trkpt>
      <trkpt lat="44.24234" lon="6.7532">
        <ele>1808</ele>
        <time>2020-08-13T15:02:29.000Z</time>
      </trkpt>
      <trkpt lat="44.24231" lon="6.7531">
        <ele>1807</ele>
        <time>2020-08-13T15:02:30.000Z</time>
      </trkpt>
      <trkpt lat="44.24222" lon="6.75282">
        <ele>1805.5999755859</ele>
        <time>2020-08-13T15:02:33.000Z</time>
      </trkpt>
      <trkpt lat="44.24217" lon="6.75274">
        <ele>1805</ele>
        <time>2020-08-13T15:02:34.000Z</time>
      </trkpt>
      <trkpt lat="44.2421" lon="6.75263">
        <ele>1804.1999511719</ele>
        <time>2020-08-13T15:02:36.000Z</time>
      </trkpt>
      <trkpt lat="44.24193" lon="6.75249">
        <ele>1803</ele>
        <time>2020-08-13T15:02:38.000Z</time>
      </trkpt>
      <trkpt lat="44.24186" lon="6.75245">
        <ele>1802</ele>
        <time>2020-08-13T15:02:39.000Z</time>
      </trkpt>
      <trkpt lat="44.24182" lon="6.75244">
        <ele>1801.4000244141</ele>
        <time>2020-08-13T15:02:40.000Z</time>
      </trkpt>
      <trkpt lat="44.2417" lon="6.75243">
        <ele>1800.4000244141</ele>
        <time>2020-08-13T15:02:41.000Z</time>
      </trkpt>
      <trkpt lat="44.24162" lon="6.75243">
        <ele>1799.5999755859</ele>
        <time>2020-08-13T15:02:42.000Z</time>
      </trkpt>
      <trkpt lat="44.24153" lon="6.75244">
        <ele>1799</ele>
        <time>2020-08-13T15:02:43.000Z</time>
      </trkpt>
      <trkpt lat="44.24145" lon="6.75245">
        <ele>1798.5999755859</ele>
        <time>2020-08-13T15:02:44.000Z</time>
      </trkpt>
      <trkpt lat="44.24137" lon="6.75246">
        <ele>1797.5999755859</ele>
        <time>2020-08-13T15:02:45.000Z</time>
      </trkpt>
      <trkpt lat="44.24121" lon="6.75248">
        <ele>1796.1999511719</ele>
        <time>2020-08-13T15:02:47.000Z</time>
      </trkpt>
      <trkpt lat="44.24111" lon="6.75248">
        <ele>1795.5999755859</ele>
        <time>2020-08-13T15:02:48.000Z</time>
      </trkpt>
      <trkpt lat="44.24102" lon="6.75246">
        <ele>1794.8000488281</ele>
        <time>2020-08-13T15:02:49.000Z</time>
      </trkpt>
      <trkpt lat="44.24085" lon="6.75239">
        <ele>1793.5999755859</ele>
        <time>2020-08-13T15:02:51.000Z</time>
      </trkpt>
      <trkpt lat="44.24077" lon="6.75235">
        <ele>1793.1999511719</ele>
        <time>2020-08-13T15:02:52.000Z</time>
      </trkpt>
      <trkpt lat="44.24067" lon="6.75229">
        <ele>1792.5999755859</ele>
        <time>2020-08-13T15:02:53.000Z</time>
      </trkpt>
      <trkpt lat="44.24049" lon="6.75217">
        <ele>1790.4000244141</ele>
        <time>2020-08-13T15:02:55.000Z</time>
      </trkpt>
      <trkpt lat="44.24032" lon="6.75206">
        <ele>1788.1999511719</ele>
        <time>2020-08-13T15:02:57.000Z</time>
      </trkpt>
      <trkpt lat="44.24022" lon="6.75201">
        <ele>1787.4000244141</ele>
        <time>2020-08-13T15:02:58.000Z</time>
      </trkpt>
      <trkpt lat="44.24012" lon="6.75197">
        <ele>1786.4000244141</ele>
        <time>2020-08-13T15:02:59.000Z</time>
      </trkpt>
      <trkpt lat="44.23993" lon="6.7519">
        <ele>1784.4000244141</ele>
        <time>2020-08-13T15:03:01.000Z</time>
      </trkpt>
      <trkpt lat="44.23983" lon="6.75187">
        <ele>1783.4000244141</ele>
        <time>2020-08-13T15:03:02.000Z</time>
      </trkpt>
      <trkpt lat="44.23973" lon="6.75184">
        <ele>1782.4000244141</ele>
        <time>2020-08-13T15:03:03.000Z</time>
      </trkpt>
      <trkpt lat="44.23964" lon="6.75182">
        <ele>1781.5999755859</ele>
        <time>2020-08-13T15:03:04.000Z</time>
      </trkpt>
      <trkpt lat="44.23944" lon="6.75176">
        <ele>1780.1999511719</ele>
        <time>2020-08-13T15:03:06.000Z</time>
      </trkpt>
      <trkpt lat="44.23925" lon="6.7517">
        <ele>1778.5999755859</ele>
        <time>2020-08-13T15:03:08.000Z</time>
      </trkpt>
      <trkpt lat="44.23908" lon="6.7516">
        <ele>1777</ele>
        <time>2020-08-13T15:03:10.000Z</time>
      </trkpt>
      <trkpt lat="44.239" lon="6.75153">
        <ele>1776</ele>
        <time>2020-08-13T15:03:11.000Z</time>
      </trkpt>
      <trkpt lat="44.23893" lon="6.75145">
        <ele>1775.5999755859</ele>
        <time>2020-08-13T15:03:12.000Z</time>
      </trkpt>
      <trkpt lat="44.23885" lon="6.75135">
        <ele>1774.8000488281</ele>
        <time>2020-08-13T15:03:13.000Z</time>
      </trkpt>
      <trkpt lat="44.23879" lon="6.75127">
        <ele>1774.1999511719</ele>
        <time>2020-08-13T15:03:14.000Z</time>
      </trkpt>
      <trkpt lat="44.23872" lon="6.75119">
        <ele>1773.1999511719</ele>
        <time>2020-08-13T15:03:15.000Z</time>
      </trkpt>
      <trkpt lat="44.23864" lon="6.75114">
        <ele>1772.5999755859</ele>
        <time>2020-08-13T15:03:16.000Z</time>
      </trkpt>
      <trkpt lat="44.23857" lon="6.7511">
        <ele>1772</ele>
        <time>2020-08-13T15:03:17.000Z</time>
      </trkpt>
      <trkpt lat="44.23831" lon="6.75115">
        <ele>1770.5999755859</ele>
        <time>2020-08-13T15:03:20.000Z</time>
      </trkpt>
      <trkpt lat="44.2381" lon="6.75133">
        <ele>1769.5999755859</ele>
        <time>2020-08-13T15:03:23.000Z</time>
      </trkpt>
      <trkpt lat="44.23803" lon="6.75141">
        <ele>1769</ele>
        <time>2020-08-13T15:03:24.000Z</time>
      </trkpt>
      <trkpt lat="44.23788" lon="6.75154">
        <ele>1768.1999511719</ele>
        <time>2020-08-13T15:03:26.000Z</time>
      </trkpt>
      <trkpt lat="44.23772" lon="6.75161">
        <ele>1767</ele>
        <time>2020-08-13T15:03:28.000Z</time>
      </trkpt>
      <trkpt lat="44.23744" lon="6.75161">
        <ele>1765.8000488281</ele>
        <time>2020-08-13T15:03:31.000Z</time>
      </trkpt>
      <trkpt lat="44.23716" lon="6.75158">
        <ele>1764</ele>
        <time>2020-08-13T15:03:34.000Z</time>
      </trkpt>
      <trkpt lat="44.23698" lon="6.75154">
        <ele>1762.5999755859</ele>
        <time>2020-08-13T15:03:36.000Z</time>
      </trkpt>
      <trkpt lat="44.2369" lon="6.7515">
        <ele>1761.5999755859</ele>
        <time>2020-08-13T15:03:37.000Z</time>
      </trkpt>
      <trkpt lat="44.23671" lon="6.75142">
        <ele>1760.1999511719</ele>
        <time>2020-08-13T15:03:39.000Z</time>
      </trkpt>
      <trkpt lat="44.23653" lon="6.75133">
        <ele>1759</ele>
        <time>2020-08-13T15:03:41.000Z</time>
      </trkpt>
      <trkpt lat="44.23634" lon="6.75124">
        <ele>1757.8000488281</ele>
        <time>2020-08-13T15:03:43.000Z</time>
      </trkpt>
      <trkpt lat="44.23625" lon="6.75119">
        <ele>1756.8000488281</ele>
        <time>2020-08-13T15:03:44.000Z</time>
      </trkpt>
      <trkpt lat="44.23617" lon="6.75115">
        <ele>1756.1999511719</ele>
        <time>2020-08-13T15:03:45.000Z</time>
      </trkpt>
      <trkpt lat="44.2361" lon="6.75112">
        <ele>1755.8000488281</ele>
        <time>2020-08-13T15:03:46.000Z</time>
      </trkpt>
      <trkpt lat="44.23602" lon="6.75111">
        <ele>1755.1999511719</ele>
        <time>2020-08-13T15:03:47.000Z</time>
      </trkpt>
      <trkpt lat="44.23593" lon="6.75112">
        <ele>1754.8000488281</ele>
        <time>2020-08-13T15:03:48.000Z</time>
      </trkpt>
      <trkpt lat="44.23579" lon="6.75122">
        <ele>1754.1999511719</ele>
        <time>2020-08-13T15:03:50.000Z</time>
      </trkpt>
      <trkpt lat="44.23573" lon="6.7513">
        <ele>1754</ele>
        <time>2020-08-13T15:03:51.000Z</time>
      </trkpt>
      <trkpt lat="44.23562" lon="6.75147">
        <ele>1754</ele>
        <time>2020-08-13T15:03:53.000Z</time>
      </trkpt>
      <trkpt lat="44.23545" lon="6.75174">
        <ele>1753.1999511719</ele>
        <time>2020-08-13T15:03:56.000Z</time>
      </trkpt>
      <trkpt lat="44.23541" lon="6.75181">
        <ele>1752.5999755859</ele>
        <time>2020-08-13T15:03:57.000Z</time>
      </trkpt>
      <trkpt lat="44.23525" lon="6.75206">
        <ele>1751.4000244141</ele>
        <time>2020-08-13T15:04:00.000Z</time>
      </trkpt>
      <trkpt lat="44.23516" lon="6.75221">
        <ele>1751</ele>
        <time>2020-08-13T15:04:02.000Z</time>
      </trkpt>
      <trkpt lat="44.23501" lon="6.75239">
        <ele>1751.1999511719</ele>
        <time>2020-08-13T15:04:05.000Z</time>
      </trkpt>
      <trkpt lat="44.23489" lon="6.75244">
        <ele>1751.4000244141</ele>
        <time>2020-08-13T15:04:07.000Z</time>
      </trkpt>
      <trkpt lat="44.23477" lon="6.75245">
        <ele>1752</ele>
        <time>2020-08-13T15:04:09.000Z</time>
      </trkpt>
      <trkpt lat="44.23456" lon="6.75245">
        <ele>1751.5999755859</ele>
        <time>2020-08-13T15:04:12.000Z</time>
      </trkpt>
      <trkpt lat="44.23433" lon="6.75246">
        <ele>1750.1999511719</ele>
        <time>2020-08-13T15:04:15.000Z</time>
      </trkpt>
      <trkpt lat="44.23407" lon="6.75246">
        <ele>1748.8000488281</ele>
        <time>2020-08-13T15:04:18.000Z</time>
      </trkpt>
      <trkpt lat="44.2339" lon="6.75245">
        <ele>1747.4000244141</ele>
        <time>2020-08-13T15:04:20.000Z</time>
      </trkpt>
      <trkpt lat="44.23373" lon="6.75242">
        <ele>1746.4000244141</ele>
        <time>2020-08-13T15:04:22.000Z</time>
      </trkpt>
      <trkpt lat="44.23353" lon="6.75237">
        <ele>1745</ele>
        <time>2020-08-13T15:04:24.000Z</time>
      </trkpt>
      <trkpt lat="44.23344" lon="6.75234">
        <ele>1744</ele>
        <time>2020-08-13T15:04:25.000Z</time>
      </trkpt>
      <trkpt lat="44.23336" lon="6.7523">
        <ele>1742.8000488281</ele>
        <time>2020-08-13T15:04:26.000Z</time>
      </trkpt>
      <trkpt lat="44.23328" lon="6.75226">
        <ele>1741.8000488281</ele>
        <time>2020-08-13T15:04:27.000Z</time>
      </trkpt>
      <trkpt lat="44.23311" lon="6.75217">
        <ele>1740.4000244141</ele>
        <time>2020-08-13T15:04:29.000Z</time>
      </trkpt>
      <trkpt lat="44.23293" lon="6.75209">
        <ele>1739</ele>
        <time>2020-08-13T15:04:31.000Z</time>
      </trkpt>
      <trkpt lat="44.23277" lon="6.75201">
        <ele>1737.8000488281</ele>
        <time>2020-08-13T15:04:33.000Z</time>
      </trkpt>
      <trkpt lat="44.23271" lon="6.75196">
        <ele>1737</ele>
        <time>2020-08-13T15:04:34.000Z</time>
      </trkpt>
      <trkpt lat="44.23265" lon="6.7519">
        <ele>1736.5999755859</ele>
        <time>2020-08-13T15:04:35.000Z</time>
      </trkpt>
      <trkpt lat="44.23256" lon="6.75161">
        <ele>1735.1999511719</ele>
        <time>2020-08-13T15:04:38.000Z</time>
      </trkpt>
      <trkpt lat="44.23254" lon="6.75151">
        <ele>1734.5999755859</ele>
        <time>2020-08-13T15:04:39.000Z</time>
      </trkpt>
      <trkpt lat="44.23252" lon="6.7514">
        <ele>1733.8000488281</ele>
        <time>2020-08-13T15:04:40.000Z</time>
      </trkpt>
      <trkpt lat="44.23248" lon="6.7513">
        <ele>1733.1999511719</ele>
        <time>2020-08-13T15:04:41.000Z</time>
      </trkpt>
      <trkpt lat="44.23244" lon="6.75122">
        <ele>1732.8000488281</ele>
        <time>2020-08-13T15:04:42.000Z</time>
      </trkpt>
      <trkpt lat="44.23232" lon="6.75108">
        <ele>1731.1999511719</ele>
        <time>2020-08-13T15:04:44.000Z</time>
      </trkpt>
      <trkpt lat="44.23224" lon="6.75105">
        <ele>1730.5999755859</ele>
        <time>2020-08-13T15:04:45.000Z</time>
      </trkpt>
      <trkpt lat="44.23216" lon="6.75104">
        <ele>1730</ele>
        <time>2020-08-13T15:04:46.000Z</time>
      </trkpt>
      <trkpt lat="44.23198" lon="6.75106">
        <ele>1728.1999511719</ele>
        <time>2020-08-13T15:04:48.000Z</time>
      </trkpt>
      <trkpt lat="44.23181" lon="6.75109">
        <ele>1726.1999511719</ele>
        <time>2020-08-13T15:04:50.000Z</time>
      </trkpt>
      <trkpt lat="44.23172" lon="6.75108">
        <ele>1725.1999511719</ele>
        <time>2020-08-13T15:04:51.000Z</time>
      </trkpt>
      <trkpt lat="44.23165" lon="6.75106">
        <ele>1724.5999755859</ele>
        <time>2020-08-13T15:04:52.000Z</time>
      </trkpt>
      <trkpt lat="44.23158" lon="6.75102">
        <ele>1723.5999755859</ele>
        <time>2020-08-13T15:04:53.000Z</time>
      </trkpt>
      <trkpt lat="44.2315" lon="6.75087">
        <ele>1722.8000488281</ele>
        <time>2020-08-13T15:04:55.000Z</time>
      </trkpt>
      <trkpt lat="44.23148" lon="6.75077">
        <ele>1722.4000244141</ele>
        <time>2020-08-13T15:04:56.000Z</time>
      </trkpt>
      <trkpt lat="44.23148" lon="6.75056">
        <ele>1721.1999511719</ele>
        <time>2020-08-13T15:04:58.000Z</time>
      </trkpt>
      <trkpt lat="44.23146" lon="6.75045">
        <ele>1720.8000488281</ele>
        <time>2020-08-13T15:04:59.000Z</time>
      </trkpt>
      <trkpt lat="44.23144" lon="6.75034">
        <ele>1720</ele>
        <time>2020-08-13T15:05:00.000Z</time>
      </trkpt>
      <trkpt lat="44.2314" lon="6.75023">
        <ele>1718.8000488281</ele>
        <time>2020-08-13T15:05:01.000Z</time>
      </trkpt>
      <trkpt lat="44.2313" lon="6.75005">
        <ele>1717.1999511719</ele>
        <time>2020-08-13T15:05:03.000Z</time>
      </trkpt>
      <trkpt lat="44.23123" lon="6.74998">
        <ele>1716.4000244141</ele>
        <time>2020-08-13T15:05:04.000Z</time>
      </trkpt>
      <trkpt lat="44.23115" lon="6.74992">
        <ele>1715.5999755859</ele>
        <time>2020-08-13T15:05:05.000Z</time>
      </trkpt>
      <trkpt lat="44.23099" lon="6.74983">
        <ele>1713.8000488281</ele>
        <time>2020-08-13T15:05:07.000Z</time>
      </trkpt>
      <trkpt lat="44.23082" lon="6.74977">
        <ele>1712.4000244141</ele>
        <time>2020-08-13T15:05:09.000Z</time>
      </trkpt>
      <trkpt lat="44.23067" lon="6.74971">
        <ele>1711</ele>
        <time>2020-08-13T15:05:11.000Z</time>
      </trkpt>
      <trkpt lat="44.23056" lon="6.74956">
        <ele>1709.8000488281</ele>
        <time>2020-08-13T15:05:13.000Z</time>
      </trkpt>
      <trkpt lat="44.23053" lon="6.74946">
        <ele>1709</ele>
        <time>2020-08-13T15:05:14.000Z</time>
      </trkpt>
      <trkpt lat="44.23051" lon="6.74935">
        <ele>1708.1999511719</ele>
        <time>2020-08-13T15:05:15.000Z</time>
      </trkpt>
      <trkpt lat="44.23046" lon="6.74916">
        <ele>1707</ele>
        <time>2020-08-13T15:05:17.000Z</time>
      </trkpt>
      <trkpt lat="44.23042" lon="6.74905">
        <ele>1706.4000244141</ele>
        <time>2020-08-13T15:05:18.000Z</time>
      </trkpt>
      <trkpt lat="44.23037" lon="6.74896">
        <ele>1705.5999755859</ele>
        <time>2020-08-13T15:05:19.000Z</time>
      </trkpt>
      <trkpt lat="44.23024" lon="6.74882">
        <ele>1704.1999511719</ele>
        <time>2020-08-13T15:05:21.000Z</time>
      </trkpt>
      <trkpt lat="44.23007" lon="6.74874">
        <ele>1702.4000244141</ele>
        <time>2020-08-13T15:05:23.000Z</time>
      </trkpt>
      <trkpt lat="44.22998" lon="6.74873">
        <ele>1701.5999755859</ele>
        <time>2020-08-13T15:05:24.000Z</time>
      </trkpt>
      <trkpt lat="44.22988" lon="6.74873">
        <ele>1701</ele>
        <time>2020-08-13T15:05:25.000Z</time>
      </trkpt>
      <trkpt lat="44.22968" lon="6.74878">
        <ele>1699.1999511719</ele>
        <time>2020-08-13T15:05:27.000Z</time>
      </trkpt>
      <trkpt lat="44.22948" lon="6.74884">
        <ele>1697.8000488281</ele>
        <time>2020-08-13T15:05:29.000Z</time>
      </trkpt>
      <trkpt lat="44.22938" lon="6.74888">
        <ele>1696.8000488281</ele>
        <time>2020-08-13T15:05:30.000Z</time>
      </trkpt>
      <trkpt lat="44.22928" lon="6.74892">
        <ele>1695.5999755859</ele>
        <time>2020-08-13T15:05:31.000Z</time>
      </trkpt>
      <trkpt lat="44.22909" lon="6.74899">
        <ele>1694</ele>
        <time>2020-08-13T15:05:33.000Z</time>
      </trkpt>
      <trkpt lat="44.22892" lon="6.74904">
        <ele>1692</ele>
        <time>2020-08-13T15:05:35.000Z</time>
      </trkpt>
      <trkpt lat="44.22884" lon="6.74905">
        <ele>1691.4000244141</ele>
        <time>2020-08-13T15:05:36.000Z</time>
      </trkpt>
      <trkpt lat="44.22877" lon="6.74905">
        <ele>1690.4000244141</ele>
        <time>2020-08-13T15:05:37.000Z</time>
      </trkpt>
      <trkpt lat="44.22861" lon="6.74897">
        <ele>1689</ele>
        <time>2020-08-13T15:05:39.000Z</time>
      </trkpt>
      <trkpt lat="44.22854" lon="6.74892">
        <ele>1688.1999511719</ele>
        <time>2020-08-13T15:05:40.000Z</time>
      </trkpt>
      <trkpt lat="44.2284" lon="6.74883">
        <ele>1687.1999511719</ele>
        <time>2020-08-13T15:05:42.000Z</time>
      </trkpt>
      <trkpt lat="44.22831" lon="6.74881">
        <ele>1686.4000244141</ele>
        <time>2020-08-13T15:05:43.000Z</time>
      </trkpt>
      <trkpt lat="44.22822" lon="6.74881">
        <ele>1685.8000488281</ele>
        <time>2020-08-13T15:05:44.000Z</time>
      </trkpt>
      <trkpt lat="44.22805" lon="6.74885">
        <ele>1684</ele>
        <time>2020-08-13T15:05:46.000Z</time>
      </trkpt>
      <trkpt lat="44.22796" lon="6.74887">
        <ele>1683.1999511719</ele>
        <time>2020-08-13T15:05:47.000Z</time>
      </trkpt>
      <trkpt lat="44.22786" lon="6.74888">
        <ele>1682.1999511719</ele>
        <time>2020-08-13T15:05:48.000Z</time>
      </trkpt>
      <trkpt lat="44.22778" lon="6.74887">
        <ele>1681.1999511719</ele>
        <time>2020-08-13T15:05:49.000Z</time>
      </trkpt>
      <trkpt lat="44.2277" lon="6.74884">
        <ele>1680.1999511719</ele>
        <time>2020-08-13T15:05:50.000Z</time>
      </trkpt>
      <trkpt lat="44.22754" lon="6.74874">
        <ele>1678.4000244141</ele>
        <time>2020-08-13T15:05:52.000Z</time>
      </trkpt>
      <trkpt lat="44.22738" lon="6.74866">
        <ele>1677.4000244141</ele>
        <time>2020-08-13T15:05:54.000Z</time>
      </trkpt>
      <trkpt lat="44.22729" lon="6.74865">
        <ele>1676.8000488281</ele>
        <time>2020-08-13T15:05:55.000Z</time>
      </trkpt>
      <trkpt lat="44.22713" lon="6.74868">
        <ele>1676</ele>
        <time>2020-08-13T15:05:57.000Z</time>
      </trkpt>
      <trkpt lat="44.22703" lon="6.74872">
        <ele>1675.4000244141</ele>
        <time>2020-08-13T15:05:58.000Z</time>
      </trkpt>
      <trkpt lat="44.22694" lon="6.74876">
        <ele>1674.8000488281</ele>
        <time>2020-08-13T15:05:59.000Z</time>
      </trkpt>
      <trkpt lat="44.22685" lon="6.7488">
        <ele>1674</ele>
        <time>2020-08-13T15:06:00.000Z</time>
      </trkpt>
      <trkpt lat="44.22669" lon="6.74884">
        <ele>1672.5999755859</ele>
        <time>2020-08-13T15:06:02.000Z</time>
      </trkpt>
      <trkpt lat="44.22652" lon="6.74884">
        <ele>1671.1999511719</ele>
        <time>2020-08-13T15:06:04.000Z</time>
      </trkpt>
      <trkpt lat="44.22644" lon="6.7488">
        <ele>1670.4000244141</ele>
        <time>2020-08-13T15:06:05.000Z</time>
      </trkpt>
      <trkpt lat="44.22636" lon="6.74875">
        <ele>1669.5999755859</ele>
        <time>2020-08-13T15:06:06.000Z</time>
      </trkpt>
      <trkpt lat="44.22622" lon="6.74863">
        <ele>1668.4000244141</ele>
        <time>2020-08-13T15:06:08.000Z</time>
      </trkpt>
      <trkpt lat="44.22614" lon="6.74857">
        <ele>1667.5999755859</ele>
        <time>2020-08-13T15:06:09.000Z</time>
      </trkpt>
      <trkpt lat="44.22607" lon="6.74854">
        <ele>1666.8000488281</ele>
        <time>2020-08-13T15:06:10.000Z</time>
      </trkpt>
      <trkpt lat="44.22589" lon="6.74852">
        <ele>1665.4000244141</ele>
        <time>2020-08-13T15:06:12.000Z</time>
      </trkpt>
      <trkpt lat="44.2257" lon="6.74856">
        <ele>1663.8000488281</ele>
        <time>2020-08-13T15:06:14.000Z</time>
      </trkpt>
      <trkpt lat="44.22561" lon="6.74858">
        <ele>1663.1999511719</ele>
        <time>2020-08-13T15:06:15.000Z</time>
      </trkpt>
      <trkpt lat="44.22552" lon="6.74861">
        <ele>1662.4000244141</ele>
        <time>2020-08-13T15:06:16.000Z</time>
      </trkpt>
      <trkpt lat="44.22536" lon="6.74864">
        <ele>1660.5999755859</ele>
        <time>2020-08-13T15:06:18.000Z</time>
      </trkpt>
      <trkpt lat="44.2252" lon="6.74861">
        <ele>1659</ele>
        <time>2020-08-13T15:06:20.000Z</time>
      </trkpt>
      <trkpt lat="44.22499" lon="6.74844">
        <ele>1657.1999511719</ele>
        <time>2020-08-13T15:06:23.000Z</time>
      </trkpt>
      <trkpt lat="44.22484" lon="6.74832">
        <ele>1655.8000488281</ele>
        <time>2020-08-13T15:06:25.000Z</time>
      </trkpt>
      <trkpt lat="44.22467" lon="6.74826">
        <ele>1654.5999755859</ele>
        <time>2020-08-13T15:06:27.000Z</time>
      </trkpt>
      <trkpt lat="44.22448" lon="6.74824">
        <ele>1653.1999511719</ele>
        <time>2020-08-13T15:06:29.000Z</time>
      </trkpt>
      <trkpt lat="44.22428" lon="6.74822">
        <ele>1652</ele>
        <time>2020-08-13T15:06:31.000Z</time>
      </trkpt>
      <trkpt lat="44.22418" lon="6.74821">
        <ele>1650.5999755859</ele>
        <time>2020-08-13T15:06:32.000Z</time>
      </trkpt>
      <trkpt lat="44.22398" lon="6.74819">
        <ele>1649</ele>
        <time>2020-08-13T15:06:34.000Z</time>
      </trkpt>
      <trkpt lat="44.22375" lon="6.74818">
        <ele>1647</ele>
        <time>2020-08-13T15:06:36.000Z</time>
      </trkpt>
      <trkpt lat="44.22365" lon="6.74817">
        <ele>1646</ele>
        <time>2020-08-13T15:06:37.000Z</time>
      </trkpt>
      <trkpt lat="44.22352" lon="6.74815">
        <ele>1645</ele>
        <time>2020-08-13T15:06:38.000Z</time>
      </trkpt>
      <trkpt lat="44.22341" lon="6.74814">
        <ele>1644</ele>
        <time>2020-08-13T15:06:39.000Z</time>
      </trkpt>
      <trkpt lat="44.2233" lon="6.74814">
        <ele>1642.8000488281</ele>
        <time>2020-08-13T15:06:40.000Z</time>
      </trkpt>
      <trkpt lat="44.22319" lon="6.74813">
        <ele>1641.5999755859</ele>
        <time>2020-08-13T15:06:41.000Z</time>
      </trkpt>
      <trkpt lat="44.22297" lon="6.74815">
        <ele>1639.5999755859</ele>
        <time>2020-08-13T15:06:43.000Z</time>
      </trkpt>
      <trkpt lat="44.22286" lon="6.74816">
        <ele>1638.8000488281</ele>
        <time>2020-08-13T15:06:44.000Z</time>
      </trkpt>
      <trkpt lat="44.22276" lon="6.74817">
        <ele>1638</ele>
        <time>2020-08-13T15:06:45.000Z</time>
      </trkpt>
      <trkpt lat="44.22244" lon="6.74818">
        <ele>1636.1999511719</ele>
        <time>2020-08-13T15:06:48.000Z</time>
      </trkpt>
      <trkpt lat="44.22223" lon="6.74817">
        <ele>1634.5999755859</ele>
        <time>2020-08-13T15:06:50.000Z</time>
      </trkpt>
      <trkpt lat="44.22213" lon="6.74816">
        <ele>1633.4000244141</ele>
        <time>2020-08-13T15:06:51.000Z</time>
      </trkpt>
      <trkpt lat="44.22204" lon="6.74815">
        <ele>1632.1999511719</ele>
        <time>2020-08-13T15:06:52.000Z</time>
      </trkpt>
      <trkpt lat="44.22183" lon="6.74812">
        <ele>1630</ele>
        <time>2020-08-13T15:06:54.000Z</time>
      </trkpt>
      <trkpt lat="44.22165" lon="6.74807">
        <ele>1628.1999511719</ele>
        <time>2020-08-13T15:06:56.000Z</time>
      </trkpt>
      <trkpt lat="44.22157" lon="6.74804">
        <ele>1627.1999511719</ele>
        <time>2020-08-13T15:06:57.000Z</time>
      </trkpt>
      <trkpt lat="44.22141" lon="6.74791">
        <ele>1625.5999755859</ele>
        <time>2020-08-13T15:06:59.000Z</time>
      </trkpt>
      <trkpt lat="44.22125" lon="6.74774">
        <ele>1623.5999755859</ele>
        <time>2020-08-13T15:07:01.000Z</time>
      </trkpt>
      <trkpt lat="44.2211" lon="6.74757">
        <ele>1622.4000244141</ele>
        <time>2020-08-13T15:07:03.000Z</time>
      </trkpt>
      <trkpt lat="44.22103" lon="6.74749">
        <ele>1621.5999755859</ele>
        <time>2020-08-13T15:07:04.000Z</time>
      </trkpt>
      <trkpt lat="44.22096" lon="6.74741">
        <ele>1621</ele>
        <time>2020-08-13T15:07:05.000Z</time>
      </trkpt>
      <trkpt lat="44.22081" lon="6.74723">
        <ele>1619.4000244141</ele>
        <time>2020-08-13T15:07:07.000Z</time>
      </trkpt>
      <trkpt lat="44.22074" lon="6.74711">
        <ele>1618</ele>
        <time>2020-08-13T15:07:08.000Z</time>
      </trkpt>
      <trkpt lat="44.22068" lon="6.747">
        <ele>1617.1999511719</ele>
        <time>2020-08-13T15:07:09.000Z</time>
      </trkpt>
      <trkpt lat="44.22063" lon="6.7469">
        <ele>1615.8000488281</ele>
        <time>2020-08-13T15:07:10.000Z</time>
      </trkpt>
      <trkpt lat="44.22058" lon="6.74678">
        <ele>1614.4000244141</ele>
        <time>2020-08-13T15:07:11.000Z</time>
      </trkpt>
      <trkpt lat="44.22053" lon="6.74666">
        <ele>1613.1999511719</ele>
        <time>2020-08-13T15:07:12.000Z</time>
      </trkpt>
      <trkpt lat="44.22047" lon="6.74652">
        <ele>1612.1999511719</ele>
        <time>2020-08-13T15:07:13.000Z</time>
      </trkpt>
      <trkpt lat="44.22041" lon="6.7464">
        <ele>1611</ele>
        <time>2020-08-13T15:07:14.000Z</time>
      </trkpt>
      <trkpt lat="44.22035" lon="6.74628">
        <ele>1610</ele>
        <time>2020-08-13T15:07:15.000Z</time>
      </trkpt>
      <trkpt lat="44.2203" lon="6.74617">
        <ele>1609.4000244141</ele>
        <time>2020-08-13T15:07:16.000Z</time>
      </trkpt>
      <trkpt lat="44.22018" lon="6.74595">
        <ele>1607.8000488281</ele>
        <time>2020-08-13T15:07:18.000Z</time>
      </trkpt>
      <trkpt lat="44.22011" lon="6.74586">
        <ele>1607.1999511719</ele>
        <time>2020-08-13T15:07:19.000Z</time>
      </trkpt>
      <trkpt lat="44.22003" lon="6.74579">
        <ele>1606.4000244141</ele>
        <time>2020-08-13T15:07:20.000Z</time>
      </trkpt>
      <trkpt lat="44.21987" lon="6.7457">
        <ele>1605.4000244141</ele>
        <time>2020-08-13T15:07:22.000Z</time>
      </trkpt>
      <trkpt lat="44.21956" lon="6.74563">
        <ele>1603.8000488281</ele>
        <time>2020-08-13T15:07:25.000Z</time>
      </trkpt>
      <trkpt lat="44.21947" lon="6.74561">
        <ele>1602.4000244141</ele>
        <time>2020-08-13T15:07:26.000Z</time>
      </trkpt>
      <trkpt lat="44.21929" lon="6.74558">
        <ele>1601</ele>
        <time>2020-08-13T15:07:28.000Z</time>
      </trkpt>
      <trkpt lat="44.21913" lon="6.74553">
        <ele>1599.1999511719</ele>
        <time>2020-08-13T15:07:30.000Z</time>
      </trkpt>
      <trkpt lat="44.21906" lon="6.74549">
        <ele>1599</ele>
        <time>2020-08-13T15:07:31.000Z</time>
      </trkpt>
      <trkpt lat="44.21892" lon="6.74539">
        <ele>1598.1999511719</ele>
        <time>2020-08-13T15:07:34.000Z</time>
      </trkpt>
      <trkpt lat="44.2188" lon="6.74546">
        <ele>1597.1999511719</ele>
        <time>2020-08-13T15:07:37.000Z</time>
      </trkpt>
      <trkpt lat="44.21879" lon="6.74553">
        <ele>1597</ele>
        <time>2020-08-13T15:07:38.000Z</time>
      </trkpt>
      <trkpt lat="44.2188" lon="6.7456">
        <ele>1596.5999755859</ele>
        <time>2020-08-13T15:07:39.000Z</time>
      </trkpt>
      <trkpt lat="44.21893" lon="6.74574">
        <ele>1596</ele>
        <time>2020-08-13T15:07:42.000Z</time>
      </trkpt>
      <trkpt lat="44.21907" lon="6.74579">
        <ele>1595</ele>
        <time>2020-08-13T15:07:44.000Z</time>
      </trkpt>
      <trkpt lat="44.2192" lon="6.74583">
        <ele>1593.8000488281</ele>
        <time>2020-08-13T15:07:46.000Z</time>
      </trkpt>
      <trkpt lat="44.21927" lon="6.74584">
        <ele>1593.1999511719</ele>
        <time>2020-08-13T15:07:47.000Z</time>
      </trkpt>
      <trkpt lat="44.21943" lon="6.74589">
        <ele>1592</ele>
        <time>2020-08-13T15:07:49.000Z</time>
      </trkpt>
      <trkpt lat="44.21958" lon="6.74599">
        <ele>1590.8000488281</ele>
        <time>2020-08-13T15:07:51.000Z</time>
      </trkpt>
      <trkpt lat="44.21971" lon="6.74613">
        <ele>1589.1999511719</ele>
        <time>2020-08-13T15:07:53.000Z</time>
      </trkpt>
      <trkpt lat="44.21981" lon="6.74633">
        <ele>1587</ele>
        <time>2020-08-13T15:07:55.000Z</time>
      </trkpt>
      <trkpt lat="44.21983" lon="6.74643">
        <ele>1586</ele>
        <time>2020-08-13T15:07:56.000Z</time>
      </trkpt>
      <trkpt lat="44.21984" lon="6.74653">
        <ele>1584.5999755859</ele>
        <time>2020-08-13T15:07:57.000Z</time>
      </trkpt>
      <trkpt lat="44.21985" lon="6.74664">
        <ele>1583.5999755859</ele>
        <time>2020-08-13T15:07:58.000Z</time>
      </trkpt>
      <trkpt lat="44.21985" lon="6.74674">
        <ele>1582.8000488281</ele>
        <time>2020-08-13T15:07:59.000Z</time>
      </trkpt>
      <trkpt lat="44.21983" lon="6.74695">
        <ele>1582</ele>
        <time>2020-08-13T15:08:01.000Z</time>
      </trkpt>
      <trkpt lat="44.2198" lon="6.74704">
        <ele>1581.5999755859</ele>
        <time>2020-08-13T15:08:02.000Z</time>
      </trkpt>
      <trkpt lat="44.21977" lon="6.74715">
        <ele>1581.1999511719</ele>
        <time>2020-08-13T15:08:03.000Z</time>
      </trkpt>
      <trkpt lat="44.21973" lon="6.74725">
        <ele>1580.5999755859</ele>
        <time>2020-08-13T15:08:04.000Z</time>
      </trkpt>
      <trkpt lat="44.21966" lon="6.74748">
        <ele>1579.4000244141</ele>
        <time>2020-08-13T15:08:06.000Z</time>
      </trkpt>
      <trkpt lat="44.21962" lon="6.7476">
        <ele>1579</ele>
        <time>2020-08-13T15:08:07.000Z</time>
      </trkpt>
      <trkpt lat="44.21958" lon="6.74772">
        <ele>1578</ele>
        <time>2020-08-13T15:08:08.000Z</time>
      </trkpt>
      <trkpt lat="44.21949" lon="6.74792">
        <ele>1576</ele>
        <time>2020-08-13T15:08:10.000Z</time>
      </trkpt>
      <trkpt lat="44.21945" lon="6.748">
        <ele>1574.8000488281</ele>
        <time>2020-08-13T15:08:11.000Z</time>
      </trkpt>
      <trkpt lat="44.21934" lon="6.74811">
        <ele>1573.4000244141</ele>
        <time>2020-08-13T15:08:13.000Z</time>
      </trkpt>
      <trkpt lat="44.21928" lon="6.74813">
        <ele>1573</ele>
        <time>2020-08-13T15:08:14.000Z</time>
      </trkpt>
      <trkpt lat="44.21909" lon="6.74806">
        <ele>1572.4000244141</ele>
        <time>2020-08-13T15:08:17.000Z</time>
      </trkpt>
      <trkpt lat="44.21903" lon="6.74802">
        <ele>1572.1999511719</ele>
        <time>2020-08-13T15:08:18.000Z</time>
      </trkpt>
      <trkpt lat="44.21872" lon="6.74786">
        <ele>1571.1999511719</ele>
        <time>2020-08-13T15:08:23.000Z</time>
      </trkpt>
      <trkpt lat="44.21864" lon="6.74782">
        <ele>1571</ele>
        <time>2020-08-13T15:08:24.000Z</time>
      </trkpt>
      <trkpt lat="44.21857" lon="6.74781">
        <ele>1570.8000488281</ele>
        <time>2020-08-13T15:08:25.000Z</time>
      </trkpt>
      <trkpt lat="44.21839" lon="6.74787">
        <ele>1570.4000244141</ele>
        <time>2020-08-13T15:08:28.000Z</time>
      </trkpt>
      <trkpt lat="44.21798" lon="6.74811">
        <ele>1569</ele>
        <time>2020-08-13T15:08:35.000Z</time>
      </trkpt>
      <trkpt lat="44.21786" lon="6.74823">
        <ele>1568.5999755859</ele>
        <time>2020-08-13T15:08:37.000Z</time>
      </trkpt>
      <trkpt lat="44.21707" lon="6.74886">
        <ele>1567.5999755859</ele>
        <time>2020-08-13T15:08:50.000Z</time>
      </trkpt>
      <trkpt lat="44.21685" lon="6.74887">
        <ele>1567.4000244141</ele>
        <time>2020-08-13T15:08:52.000Z</time>
      </trkpt>
      <trkpt lat="44.21655" lon="6.74909">
        <ele>1566.8000488281</ele>
        <time>2020-08-13T15:08:57.000Z</time>
      </trkpt>
      <trkpt lat="44.21648" lon="6.74912">
        <ele>1566.4000244141</ele>
        <time>2020-08-13T15:08:58.000Z</time>
      </trkpt>
      <trkpt lat="44.21633" lon="6.74914">
        <ele>1565.8000488281</ele>
        <time>2020-08-13T15:09:00.000Z</time>
      </trkpt>
      <trkpt lat="44.21627" lon="6.74912">
        <ele>1565.8000488281</ele>
        <time>2020-08-13T15:09:01.000Z</time>
      </trkpt>
      <trkpt lat="44.21609" lon="6.74893">
        <ele>1565.4000244141</ele>
        <time>2020-08-13T15:09:04.000Z</time>
      </trkpt>
      <trkpt lat="44.21605" lon="6.74873">
        <ele>1564.8000488281</ele>
        <time>2020-08-13T15:09:06.000Z</time>
      </trkpt>
      <trkpt lat="44.21597" lon="6.74846">
        <ele>1564.1999511719</ele>
        <time>2020-08-13T15:09:09.000Z</time>
      </trkpt>
      <trkpt lat="44.2158" lon="6.74829">
        <ele>1563.5999755859</ele>
        <time>2020-08-13T15:09:12.000Z</time>
      </trkpt>
      <trkpt lat="44.21573" lon="6.74825">
        <ele>1562.8000488281</ele>
        <time>2020-08-13T15:09:13.000Z</time>
      </trkpt>
      <trkpt lat="44.21566" lon="6.74822">
        <ele>1562.8000488281</ele>
        <time>2020-08-13T15:09:14.000Z</time>
      </trkpt>
      <trkpt lat="44.21552" lon="6.74816">
        <ele>1562.4000244141</ele>
        <time>2020-08-13T15:09:16.000Z</time>
      </trkpt>
      <trkpt lat="44.21536" lon="6.74811">
        <ele>1562</ele>
        <time>2020-08-13T15:09:18.000Z</time>
      </trkpt>
      <trkpt lat="44.21529" lon="6.74807">
        <ele>1561.8000488281</ele>
        <time>2020-08-13T15:09:19.000Z</time>
      </trkpt>
      <trkpt lat="44.21509" lon="6.74789">
        <ele>1561.4000244141</ele>
        <time>2020-08-13T15:09:22.000Z</time>
      </trkpt>
      <trkpt lat="44.21502" lon="6.74784">
        <ele>1561.1999511719</ele>
        <time>2020-08-13T15:09:23.000Z</time>
      </trkpt>
      <trkpt lat="44.21488" lon="6.74775">
        <ele>1560.4000244141</ele>
        <time>2020-08-13T15:09:25.000Z</time>
      </trkpt>
      <trkpt lat="44.21481" lon="6.74773">
        <ele>1560.1999511719</ele>
        <time>2020-08-13T15:09:26.000Z</time>
      </trkpt>
      <trkpt lat="44.2145" lon="6.7477">
        <ele>1560.4000244141</ele>
        <time>2020-08-13T15:09:30.000Z</time>
      </trkpt>
      <trkpt lat="44.21433" lon="6.74772">
        <ele>1560</ele>
        <time>2020-08-13T15:09:32.000Z</time>
      </trkpt>
      <trkpt lat="44.21393" lon="6.74774">
        <ele>1558.5999755859</ele>
        <time>2020-08-13T15:09:37.000Z</time>
      </trkpt>
      <trkpt lat="44.21385" lon="6.74773">
        <ele>1558.1999511719</ele>
        <time>2020-08-13T15:09:38.000Z</time>
      </trkpt>
      <trkpt lat="44.21369" lon="6.74773">
        <ele>1557.8000488281</ele>
        <time>2020-08-13T15:09:40.000Z</time>
      </trkpt>
      <trkpt lat="44.21353" lon="6.74777">
        <ele>1558.1999511719</ele>
        <time>2020-08-13T15:09:42.000Z</time>
      </trkpt>
      <trkpt lat="44.21345" lon="6.74778">
        <ele>1558.1999511719</ele>
        <time>2020-08-13T15:09:43.000Z</time>
      </trkpt>
      <trkpt lat="44.2133" lon="6.74773">
        <ele>1558.1999511719</ele>
        <time>2020-08-13T15:09:45.000Z</time>
      </trkpt>
      <trkpt lat="44.21311" lon="6.74752">
        <ele>1558</ele>
        <time>2020-08-13T15:09:48.000Z</time>
      </trkpt>
      <trkpt lat="44.2129" lon="6.74736">
        <ele>1557.5999755859</ele>
        <time>2020-08-13T15:09:51.000Z</time>
      </trkpt>
      <trkpt lat="44.21282" lon="6.74732">
        <ele>1557.1999511719</ele>
        <time>2020-08-13T15:09:52.000Z</time>
      </trkpt>
      <trkpt lat="44.21265" lon="6.74727">
        <ele>1556.4000244141</ele>
        <time>2020-08-13T15:09:54.000Z</time>
      </trkpt>
      <trkpt lat="44.21248" lon="6.74727">
        <ele>1555.5999755859</ele>
        <time>2020-08-13T15:09:56.000Z</time>
      </trkpt>
      <trkpt lat="44.21239" lon="6.74727">
        <ele>1555.1999511719</ele>
        <time>2020-08-13T15:09:57.000Z</time>
      </trkpt>
      <trkpt lat="44.2123" lon="6.74726">
        <ele>1555</ele>
        <time>2020-08-13T15:09:58.000Z</time>
      </trkpt>
      <trkpt lat="44.21214" lon="6.74719">
        <ele>1554.5999755859</ele>
        <time>2020-08-13T15:10:00.000Z</time>
      </trkpt>
      <trkpt lat="44.21206" lon="6.74714">
        <ele>1554.1999511719</ele>
        <time>2020-08-13T15:10:01.000Z</time>
      </trkpt>
      <trkpt lat="44.21181" lon="6.74707">
        <ele>1553.4000244141</ele>
        <time>2020-08-13T15:10:04.000Z</time>
      </trkpt>
      <trkpt lat="44.21171" lon="6.74706">
        <ele>1553.4000244141</ele>
        <time>2020-08-13T15:10:05.000Z</time>
      </trkpt>
      <trkpt lat="44.21152" lon="6.74706">
        <ele>1552.5999755859</ele>
        <time>2020-08-13T15:10:07.000Z</time>
      </trkpt>
      <trkpt lat="44.21135" lon="6.74705">
        <ele>1551.1999511719</ele>
        <time>2020-08-13T15:10:09.000Z</time>
      </trkpt>
      <trkpt lat="44.21122" lon="6.74695">
        <ele>1549</ele>
        <time>2020-08-13T15:10:11.000Z</time>
      </trkpt>
      <trkpt lat="44.21116" lon="6.74685">
        <ele>1548.5999755859</ele>
        <time>2020-08-13T15:10:12.000Z</time>
      </trkpt>
      <trkpt lat="44.21112" lon="6.74676">
        <ele>1547.8000488281</ele>
        <time>2020-08-13T15:10:13.000Z</time>
      </trkpt>
      <trkpt lat="44.21107" lon="6.74666">
        <ele>1547.1999511719</ele>
        <time>2020-08-13T15:10:14.000Z</time>
      </trkpt>
      <trkpt lat="44.21101" lon="6.74658">
        <ele>1546.8000488281</ele>
        <time>2020-08-13T15:10:15.000Z</time>
      </trkpt>
      <trkpt lat="44.21095" lon="6.74652">
        <ele>1546.1999511719</ele>
        <time>2020-08-13T15:10:16.000Z</time>
      </trkpt>
      <trkpt lat="44.21086" lon="6.74647">
        <ele>1545.5999755859</ele>
        <time>2020-08-13T15:10:17.000Z</time>
      </trkpt>
      <trkpt lat="44.21068" lon="6.74645">
        <ele>1544.4000244141</ele>
        <time>2020-08-13T15:10:19.000Z</time>
      </trkpt>
      <trkpt lat="44.2105" lon="6.74649">
        <ele>1542.5999755859</ele>
        <time>2020-08-13T15:10:21.000Z</time>
      </trkpt>
      <trkpt lat="44.2104" lon="6.74651">
        <ele>1541.1999511719</ele>
        <time>2020-08-13T15:10:22.000Z</time>
      </trkpt>
      <trkpt lat="44.21031" lon="6.7465">
        <ele>1540.4000244141</ele>
        <time>2020-08-13T15:10:23.000Z</time>
      </trkpt>
      <trkpt lat="44.21023" lon="6.74648">
        <ele>1539.4000244141</ele>
        <time>2020-08-13T15:10:24.000Z</time>
      </trkpt>
      <trkpt lat="44.21009" lon="6.74636">
        <ele>1538.1999511719</ele>
        <time>2020-08-13T15:10:26.000Z</time>
      </trkpt>
      <trkpt lat="44.20998" lon="6.74616">
        <ele>1537</ele>
        <time>2020-08-13T15:10:28.000Z</time>
      </trkpt>
      <trkpt lat="44.20992" lon="6.74605">
        <ele>1536.4000244141</ele>
        <time>2020-08-13T15:10:29.000Z</time>
      </trkpt>
      <trkpt lat="44.20987" lon="6.74595">
        <ele>1535.8000488281</ele>
        <time>2020-08-13T15:10:30.000Z</time>
      </trkpt>
      <trkpt lat="44.20971" lon="6.74564">
        <ele>1534</ele>
        <time>2020-08-13T15:10:33.000Z</time>
      </trkpt>
      <trkpt lat="44.20961" lon="6.74543">
        <ele>1532</ele>
        <time>2020-08-13T15:10:35.000Z</time>
      </trkpt>
      <trkpt lat="44.2095" lon="6.74521">
        <ele>1530.4000244141</ele>
        <time>2020-08-13T15:10:37.000Z</time>
      </trkpt>
      <trkpt lat="44.20938" lon="6.745">
        <ele>1529</ele>
        <time>2020-08-13T15:10:39.000Z</time>
      </trkpt>
      <trkpt lat="44.20926" lon="6.74481">
        <ele>1527.4000244141</ele>
        <time>2020-08-13T15:10:41.000Z</time>
      </trkpt>
      <trkpt lat="44.2092" lon="6.74471">
        <ele>1526.4000244141</ele>
        <time>2020-08-13T15:10:42.000Z</time>
      </trkpt>
      <trkpt lat="44.20913" lon="6.74464">
        <ele>1525.5999755859</ele>
        <time>2020-08-13T15:10:43.000Z</time>
      </trkpt>
      <trkpt lat="44.20907" lon="6.74458">
        <ele>1524.8000488281</ele>
        <time>2020-08-13T15:10:44.000Z</time>
      </trkpt>
      <trkpt lat="44.20893" lon="6.74455">
        <ele>1523.5999755859</ele>
        <time>2020-08-13T15:10:46.000Z</time>
      </trkpt>
      <trkpt lat="44.20871" lon="6.74466">
        <ele>1522</ele>
        <time>2020-08-13T15:10:49.000Z</time>
      </trkpt>
      <trkpt lat="44.20856" lon="6.74478">
        <ele>1520.5999755859</ele>
        <time>2020-08-13T15:10:51.000Z</time>
      </trkpt>
      <trkpt lat="44.20841" lon="6.74496">
        <ele>1519.1999511719</ele>
        <time>2020-08-13T15:10:53.000Z</time>
      </trkpt>
      <trkpt lat="44.20829" lon="6.74517">
        <ele>1517.4000244141</ele>
        <time>2020-08-13T15:10:55.000Z</time>
      </trkpt>
      <trkpt lat="44.20823" lon="6.74527">
        <ele>1516.4000244141</ele>
        <time>2020-08-13T15:10:56.000Z</time>
      </trkpt>
      <trkpt lat="44.20817" lon="6.74538">
        <ele>1515.5999755859</ele>
        <time>2020-08-13T15:10:57.000Z</time>
      </trkpt>
      <trkpt lat="44.2081" lon="6.74547">
        <ele>1514.5999755859</ele>
        <time>2020-08-13T15:10:58.000Z</time>
      </trkpt>
      <trkpt lat="44.20795" lon="6.74564">
        <ele>1513</ele>
        <time>2020-08-13T15:11:00.000Z</time>
      </trkpt>
      <trkpt lat="44.20787" lon="6.74572">
        <ele>1511.8000488281</ele>
        <time>2020-08-13T15:11:01.000Z</time>
      </trkpt>
      <trkpt lat="44.2077" lon="6.74589">
        <ele>1510.1999511719</ele>
        <time>2020-08-13T15:11:03.000Z</time>
      </trkpt>
      <trkpt lat="44.20755" lon="6.74605">
        <ele>1508.4000244141</ele>
        <time>2020-08-13T15:11:05.000Z</time>
      </trkpt>
      <trkpt lat="44.20748" lon="6.7461">
        <ele>1507.5999755859</ele>
        <time>2020-08-13T15:11:06.000Z</time>
      </trkpt>
      <trkpt lat="44.20741" lon="6.74615">
        <ele>1507.1999511719</ele>
        <time>2020-08-13T15:11:07.000Z</time>
      </trkpt>
      <trkpt lat="44.20727" lon="6.74617">
        <ele>1506.1999511719</ele>
        <time>2020-08-13T15:11:09.000Z</time>
      </trkpt>
      <trkpt lat="44.2072" lon="6.74615">
        <ele>1506</ele>
        <time>2020-08-13T15:11:10.000Z</time>
      </trkpt>
      <trkpt lat="44.20708" lon="6.74601">
        <ele>1505</ele>
        <time>2020-08-13T15:11:12.000Z</time>
      </trkpt>
      <trkpt lat="44.20703" lon="6.74593">
        <ele>1504.1999511719</ele>
        <time>2020-08-13T15:11:13.000Z</time>
      </trkpt>
      <trkpt lat="44.20697" lon="6.74585">
        <ele>1503.8000488281</ele>
        <time>2020-08-13T15:11:14.000Z</time>
      </trkpt>
      <trkpt lat="44.2069" lon="6.74579">
        <ele>1503.1999511719</ele>
        <time>2020-08-13T15:11:15.000Z</time>
      </trkpt>
      <trkpt lat="44.20683" lon="6.74575">
        <ele>1502.8000488281</ele>
        <time>2020-08-13T15:11:16.000Z</time>
      </trkpt>
      <trkpt lat="44.20675" lon="6.74572">
        <ele>1501.8000488281</ele>
        <time>2020-08-13T15:11:17.000Z</time>
      </trkpt>
      <trkpt lat="44.20656" lon="6.74569">
        <ele>1499.8000488281</ele>
        <time>2020-08-13T15:11:19.000Z</time>
      </trkpt>
      <trkpt lat="44.20647" lon="6.74568">
        <ele>1498.4000244141</ele>
        <time>2020-08-13T15:11:20.000Z</time>
      </trkpt>
      <trkpt lat="44.20638" lon="6.74567">
        <ele>1497.1999511719</ele>
        <time>2020-08-13T15:11:21.000Z</time>
      </trkpt>
      <trkpt lat="44.20619" lon="6.74566">
        <ele>1495.8000488281</ele>
        <time>2020-08-13T15:11:23.000Z</time>
      </trkpt>
      <trkpt lat="44.2061" lon="6.74567">
        <ele>1495</ele>
        <time>2020-08-13T15:11:24.000Z</time>
      </trkpt>
      <trkpt lat="44.20598" lon="6.74571">
        <ele>1494</ele>
        <time>2020-08-13T15:11:25.000Z</time>
      </trkpt>
      <trkpt lat="44.20578" lon="6.7458">
        <ele>1492.5999755859</ele>
        <time>2020-08-13T15:11:27.000Z</time>
      </trkpt>
      <trkpt lat="44.20568" lon="6.74584">
        <ele>1491.5999755859</ele>
        <time>2020-08-13T15:11:28.000Z</time>
      </trkpt>
      <trkpt lat="44.20547" lon="6.74594">
        <ele>1489.4000244141</ele>
        <time>2020-08-13T15:11:30.000Z</time>
      </trkpt>
      <trkpt lat="44.20537" lon="6.74599">
        <ele>1488.4000244141</ele>
        <time>2020-08-13T15:11:31.000Z</time>
      </trkpt>
      <trkpt lat="44.20527" lon="6.74604">
        <ele>1487.4000244141</ele>
        <time>2020-08-13T15:11:32.000Z</time>
      </trkpt>
      <trkpt lat="44.20517" lon="6.74609">
        <ele>1486.1999511719</ele>
        <time>2020-08-13T15:11:33.000Z</time>
      </trkpt>
      <trkpt lat="44.20498" lon="6.74618">
        <ele>1484.4000244141</ele>
        <time>2020-08-13T15:11:35.000Z</time>
      </trkpt>
      <trkpt lat="44.20489" lon="6.74621">
        <ele>1483.5999755859</ele>
        <time>2020-08-13T15:11:36.000Z</time>
      </trkpt>
      <trkpt lat="44.20479" lon="6.74622">
        <ele>1482.5999755859</ele>
        <time>2020-08-13T15:11:37.000Z</time>
      </trkpt>
      <trkpt lat="44.20462" lon="6.74617">
        <ele>1480.1999511719</ele>
        <time>2020-08-13T15:11:39.000Z</time>
      </trkpt>
      <trkpt lat="44.20448" lon="6.74602">
        <ele>1479.1999511719</ele>
        <time>2020-08-13T15:11:41.000Z</time>
      </trkpt>
      <trkpt lat="44.20442" lon="6.74593">
        <ele>1478.5999755859</ele>
        <time>2020-08-13T15:11:42.000Z</time>
      </trkpt>
      <trkpt lat="44.20436" lon="6.74585">
        <ele>1478</ele>
        <time>2020-08-13T15:11:43.000Z</time>
      </trkpt>
      <trkpt lat="44.20423" lon="6.74573">
        <ele>1477.4000244141</ele>
        <time>2020-08-13T15:11:45.000Z</time>
      </trkpt>
      <trkpt lat="44.20416" lon="6.74571">
        <ele>1476.5999755859</ele>
        <time>2020-08-13T15:11:46.000Z</time>
      </trkpt>
      <trkpt lat="44.20401" lon="6.74575">
        <ele>1475.5999755859</ele>
        <time>2020-08-13T15:11:48.000Z</time>
      </trkpt>
      <trkpt lat="44.20395" lon="6.74582">
        <ele>1474.8000488281</ele>
        <time>2020-08-13T15:11:49.000Z</time>
      </trkpt>
      <trkpt lat="44.20391" lon="6.74592">
        <ele>1473.5999755859</ele>
        <time>2020-08-13T15:11:50.000Z</time>
      </trkpt>
      <trkpt lat="44.20386" lon="6.74614">
        <ele>1472.8000488281</ele>
        <time>2020-08-13T15:11:52.000Z</time>
      </trkpt>
      <trkpt lat="44.20383" lon="6.74626">
        <ele>1472.4000244141</ele>
        <time>2020-08-13T15:11:53.000Z</time>
      </trkpt>
      <trkpt lat="44.20374" lon="6.74649">
        <ele>1471.4000244141</ele>
        <time>2020-08-13T15:11:55.000Z</time>
      </trkpt>
      <trkpt lat="44.20369" lon="6.74658">
        <ele>1471</ele>
        <time>2020-08-13T15:11:56.000Z</time>
      </trkpt>
      <trkpt lat="44.20362" lon="6.74667">
        <ele>1470.4000244141</ele>
        <time>2020-08-13T15:11:57.000Z</time>
      </trkpt>
      <trkpt lat="44.20356" lon="6.74673">
        <ele>1469.4000244141</ele>
        <time>2020-08-13T15:11:58.000Z</time>
      </trkpt>
      <trkpt lat="44.20338" lon="6.74679">
        <ele>1468.1999511719</ele>
        <time>2020-08-13T15:12:00.000Z</time>
      </trkpt>
      <trkpt lat="44.20319" lon="6.74676">
        <ele>1466.1999511719</ele>
        <time>2020-08-13T15:12:02.000Z</time>
      </trkpt>
      <trkpt lat="44.20309" lon="6.74673">
        <ele>1465</ele>
        <time>2020-08-13T15:12:03.000Z</time>
      </trkpt>
      <trkpt lat="44.203" lon="6.74671">
        <ele>1463.5999755859</ele>
        <time>2020-08-13T15:12:04.000Z</time>
      </trkpt>
      <trkpt lat="44.2029" lon="6.74668">
        <ele>1462.5999755859</ele>
        <time>2020-08-13T15:12:05.000Z</time>
      </trkpt>
      <trkpt lat="44.20271" lon="6.74663">
        <ele>1460.4000244141</ele>
        <time>2020-08-13T15:12:07.000Z</time>
      </trkpt>
      <trkpt lat="44.20253" lon="6.74658">
        <ele>1458.5999755859</ele>
        <time>2020-08-13T15:12:09.000Z</time>
      </trkpt>
      <trkpt lat="44.20245" lon="6.74656">
        <ele>1458</ele>
        <time>2020-08-13T15:12:10.000Z</time>
      </trkpt>
      <trkpt lat="44.20237" lon="6.74654">
        <ele>1457.1999511719</ele>
        <time>2020-08-13T15:12:11.000Z</time>
      </trkpt>
      <trkpt lat="44.20229" lon="6.74655">
        <ele>1456.5999755859</ele>
        <time>2020-08-13T15:12:12.000Z</time>
      </trkpt>
      <trkpt lat="44.20222" lon="6.74658">
        <ele>1456</ele>
        <time>2020-08-13T15:12:13.000Z</time>
      </trkpt>
      <trkpt lat="44.20209" lon="6.74673">
        <ele>1454.8000488281</ele>
        <time>2020-08-13T15:12:15.000Z</time>
      </trkpt>
      <trkpt lat="44.20203" lon="6.74683">
        <ele>1454.1999511719</ele>
        <time>2020-08-13T15:12:16.000Z</time>
      </trkpt>
      <trkpt lat="44.20197" lon="6.74694">
        <ele>1453.1999511719</ele>
        <time>2020-08-13T15:12:17.000Z</time>
      </trkpt>
      <trkpt lat="44.20182" lon="6.74714">
        <ele>1451.4000244141</ele>
        <time>2020-08-13T15:12:19.000Z</time>
      </trkpt>
      <trkpt lat="44.20173" lon="6.74722">
        <ele>1450.1999511719</ele>
        <time>2020-08-13T15:12:20.000Z</time>
      </trkpt>
      <trkpt lat="44.20165" lon="6.74728">
        <ele>1449</ele>
        <time>2020-08-13T15:12:21.000Z</time>
      </trkpt>
      <trkpt lat="44.20148" lon="6.74736">
        <ele>1447.4000244141</ele>
        <time>2020-08-13T15:12:23.000Z</time>
      </trkpt>
      <trkpt lat="44.20123" lon="6.74732">
        <ele>1446.4000244141</ele>
        <time>2020-08-13T15:12:26.000Z</time>
      </trkpt>
      <trkpt lat="44.20107" lon="6.7473">
        <ele>1445.4000244141</ele>
        <time>2020-08-13T15:12:28.000Z</time>
      </trkpt>
      <trkpt lat="44.20099" lon="6.74733">
        <ele>1444.5999755859</ele>
        <time>2020-08-13T15:12:29.000Z</time>
      </trkpt>
      <trkpt lat="44.20091" lon="6.7474">
        <ele>1444</ele>
        <time>2020-08-13T15:12:30.000Z</time>
      </trkpt>
      <trkpt lat="44.20085" lon="6.74749">
        <ele>1443</ele>
        <time>2020-08-13T15:12:31.000Z</time>
      </trkpt>
      <trkpt lat="44.2008" lon="6.7476">
        <ele>1442.1999511719</ele>
        <time>2020-08-13T15:12:32.000Z</time>
      </trkpt>
      <trkpt lat="44.20073" lon="6.74771">
        <ele>1441.5999755859</ele>
        <time>2020-08-13T15:12:33.000Z</time>
      </trkpt>
      <trkpt lat="44.20066" lon="6.74782">
        <ele>1441</ele>
        <time>2020-08-13T15:12:34.000Z</time>
      </trkpt>
      <trkpt lat="44.20059" lon="6.74792">
        <ele>1440</ele>
        <time>2020-08-13T15:12:35.000Z</time>
      </trkpt>
      <trkpt lat="44.20051" lon="6.74799">
        <ele>1439</ele>
        <time>2020-08-13T15:12:36.000Z</time>
      </trkpt>
      <trkpt lat="44.20041" lon="6.74805">
        <ele>1437.8000488281</ele>
        <time>2020-08-13T15:12:37.000Z</time>
      </trkpt>
      <trkpt lat="44.20031" lon="6.7481">
        <ele>1437</ele>
        <time>2020-08-13T15:12:38.000Z</time>
      </trkpt>
      <trkpt lat="44.20021" lon="6.74813">
        <ele>1435.8000488281</ele>
        <time>2020-08-13T15:12:39.000Z</time>
      </trkpt>
      <trkpt lat="44.2" lon="6.74819">
        <ele>1434.1999511719</ele>
        <time>2020-08-13T15:12:41.000Z</time>
      </trkpt>
      <trkpt lat="44.19976" lon="6.74824">
        <ele>1432.4000244141</ele>
        <time>2020-08-13T15:12:43.000Z</time>
      </trkpt>
      <trkpt lat="44.19953" lon="6.74831">
        <ele>1431.1999511719</ele>
        <time>2020-08-13T15:12:45.000Z</time>
      </trkpt>
      <trkpt lat="44.19943" lon="6.74834">
        <ele>1430</ele>
        <time>2020-08-13T15:12:46.000Z</time>
      </trkpt>
      <trkpt lat="44.19932" lon="6.74837">
        <ele>1428.5999755859</ele>
        <time>2020-08-13T15:12:47.000Z</time>
      </trkpt>
      <trkpt lat="44.19922" lon="6.74838">
        <ele>1427.5999755859</ele>
        <time>2020-08-13T15:12:48.000Z</time>
      </trkpt>
      <trkpt lat="44.19913" lon="6.74839">
        <ele>1426.5999755859</ele>
        <time>2020-08-13T15:12:49.000Z</time>
      </trkpt>
      <trkpt lat="44.19904" lon="6.7484">
        <ele>1425.5999755859</ele>
        <time>2020-08-13T15:12:50.000Z</time>
      </trkpt>
      <trkpt lat="44.19896" lon="6.74841">
        <ele>1424.5999755859</ele>
        <time>2020-08-13T15:12:51.000Z</time>
      </trkpt>
      <trkpt lat="44.1988" lon="6.74845">
        <ele>1423.1999511719</ele>
        <time>2020-08-13T15:12:53.000Z</time>
      </trkpt>
      <trkpt lat="44.19865" lon="6.74859">
        <ele>1421.8000488281</ele>
        <time>2020-08-13T15:12:55.000Z</time>
      </trkpt>
      <trkpt lat="44.19859" lon="6.74868">
        <ele>1421</ele>
        <time>2020-08-13T15:12:56.000Z</time>
      </trkpt>
      <trkpt lat="44.19854" lon="6.74879">
        <ele>1420.1999511719</ele>
        <time>2020-08-13T15:12:57.000Z</time>
      </trkpt>
      <trkpt lat="44.19847" lon="6.749">
        <ele>1418.8000488281</ele>
        <time>2020-08-13T15:12:59.000Z</time>
      </trkpt>
      <trkpt lat="44.19845" lon="6.7491">
        <ele>1418.1999511719</ele>
        <time>2020-08-13T15:13:00.000Z</time>
      </trkpt>
      <trkpt lat="44.19843" lon="6.74919">
        <ele>1417.8000488281</ele>
        <time>2020-08-13T15:13:01.000Z</time>
      </trkpt>
      <trkpt lat="44.1984" lon="6.74929">
        <ele>1417.5999755859</ele>
        <time>2020-08-13T15:13:02.000Z</time>
      </trkpt>
      <trkpt lat="44.19831" lon="6.74939">
        <ele>1417</ele>
        <time>2020-08-13T15:13:04.000Z</time>
      </trkpt>
      <trkpt lat="44.19824" lon="6.74938">
        <ele>1416.5999755859</ele>
        <time>2020-08-13T15:13:05.000Z</time>
      </trkpt>
      <trkpt lat="44.19818" lon="6.74933">
        <ele>1416.1999511719</ele>
        <time>2020-08-13T15:13:06.000Z</time>
      </trkpt>
      <trkpt lat="44.19813" lon="6.74925">
        <ele>1415.5999755859</ele>
        <time>2020-08-13T15:13:07.000Z</time>
      </trkpt>
      <trkpt lat="44.19803" lon="6.74905">
        <ele>1414.5999755859</ele>
        <time>2020-08-13T15:13:09.000Z</time>
      </trkpt>
      <trkpt lat="44.19791" lon="6.74887">
        <ele>1412.8000488281</ele>
        <time>2020-08-13T15:13:11.000Z</time>
      </trkpt>
      <trkpt lat="44.19784" lon="6.74877">
        <ele>1411.8000488281</ele>
        <time>2020-08-13T15:13:12.000Z</time>
      </trkpt>
      <trkpt lat="44.19777" lon="6.74869">
        <ele>1410.5999755859</ele>
        <time>2020-08-13T15:13:13.000Z</time>
      </trkpt>
      <trkpt lat="44.19771" lon="6.74863">
        <ele>1409.4000244141</ele>
        <time>2020-08-13T15:13:14.000Z</time>
      </trkpt>
      <trkpt lat="44.19763" lon="6.7486">
        <ele>1408.1999511719</ele>
        <time>2020-08-13T15:13:15.000Z</time>
      </trkpt>
      <trkpt lat="44.19756" lon="6.74862">
        <ele>1407.4000244141</ele>
        <time>2020-08-13T15:13:16.000Z</time>
      </trkpt>
      <trkpt lat="44.19749" lon="6.74867">
        <ele>1407</ele>
        <time>2020-08-13T15:13:17.000Z</time>
      </trkpt>
      <trkpt lat="44.19743" lon="6.74874">
        <ele>1406.4000244141</ele>
        <time>2020-08-13T15:13:18.000Z</time>
      </trkpt>
      <trkpt lat="44.19738" lon="6.74884">
        <ele>1405.5999755859</ele>
        <time>2020-08-13T15:13:19.000Z</time>
      </trkpt>
      <trkpt lat="44.19734" lon="6.74894">
        <ele>1404.8000488281</ele>
        <time>2020-08-13T15:13:20.000Z</time>
      </trkpt>
      <trkpt lat="44.19728" lon="6.74902">
        <ele>1404</ele>
        <time>2020-08-13T15:13:21.000Z</time>
      </trkpt>
      <trkpt lat="44.19711" lon="6.74914">
        <ele>1402.4000244141</ele>
        <time>2020-08-13T15:13:23.000Z</time>
      </trkpt>
      <trkpt lat="44.19702" lon="6.7492">
        <ele>1401.5999755859</ele>
        <time>2020-08-13T15:13:24.000Z</time>
      </trkpt>
      <trkpt lat="44.19694" lon="6.74926">
        <ele>1400.8000488281</ele>
        <time>2020-08-13T15:13:25.000Z</time>
      </trkpt>
      <trkpt lat="44.19686" lon="6.7493">
        <ele>1400</ele>
        <time>2020-08-13T15:13:26.000Z</time>
      </trkpt>
      <trkpt lat="44.19677" lon="6.74931">
        <ele>1399</ele>
        <time>2020-08-13T15:13:27.000Z</time>
      </trkpt>
      <trkpt lat="44.19669" lon="6.74929">
        <ele>1398.1999511719</ele>
        <time>2020-08-13T15:13:28.000Z</time>
      </trkpt>
      <trkpt lat="44.19663" lon="6.74923">
        <ele>1397.4000244141</ele>
        <time>2020-08-13T15:13:29.000Z</time>
      </trkpt>
      <trkpt lat="44.19658" lon="6.74914">
        <ele>1396.5999755859</ele>
        <time>2020-08-13T15:13:30.000Z</time>
      </trkpt>
      <trkpt lat="44.19654" lon="6.74904">
        <ele>1395.8000488281</ele>
        <time>2020-08-13T15:13:31.000Z</time>
      </trkpt>
      <trkpt lat="44.19644" lon="6.74882">
        <ele>1394</ele>
        <time>2020-08-13T15:13:33.000Z</time>
      </trkpt>
      <trkpt lat="44.19641" lon="6.74872">
        <ele>1393.1999511719</ele>
        <time>2020-08-13T15:13:34.000Z</time>
      </trkpt>
      <trkpt lat="44.19638" lon="6.74862">
        <ele>1392.4000244141</ele>
        <time>2020-08-13T15:13:35.000Z</time>
      </trkpt>
      <trkpt lat="44.19634" lon="6.74853">
        <ele>1391.8000488281</ele>
        <time>2020-08-13T15:13:36.000Z</time>
      </trkpt>
      <trkpt lat="44.19624" lon="6.74838">
        <ele>1391</ele>
        <time>2020-08-13T15:13:38.000Z</time>
      </trkpt>
      <trkpt lat="44.19612" lon="6.74834">
        <ele>1390</ele>
        <time>2020-08-13T15:13:40.000Z</time>
      </trkpt>
      <trkpt lat="44.19606" lon="6.74838">
        <ele>1389.4000244141</ele>
        <time>2020-08-13T15:13:41.000Z</time>
      </trkpt>
      <trkpt lat="44.19599" lon="6.74846">
        <ele>1388.4000244141</ele>
        <time>2020-08-13T15:13:42.000Z</time>
      </trkpt>
      <trkpt lat="44.19588" lon="6.74862">
        <ele>1387.1999511719</ele>
        <time>2020-08-13T15:13:44.000Z</time>
      </trkpt>
      <trkpt lat="44.19574" lon="6.74876">
        <ele>1386.1999511719</ele>
        <time>2020-08-13T15:13:46.000Z</time>
      </trkpt>
      <trkpt lat="44.19566" lon="6.74885">
        <ele>1385.4000244141</ele>
        <time>2020-08-13T15:13:47.000Z</time>
      </trkpt>
      <trkpt lat="44.19556" lon="6.74907">
        <ele>1385.5999755859</ele>
        <time>2020-08-13T15:13:49.000Z</time>
      </trkpt>
      <trkpt lat="44.19551" lon="6.74918">
        <ele>1384.4000244141</ele>
        <time>2020-08-13T15:13:50.000Z</time>
      </trkpt>
      <trkpt lat="44.19545" lon="6.74926">
        <ele>1382.8000488281</ele>
        <time>2020-08-13T15:13:51.000Z</time>
      </trkpt>
      <trkpt lat="44.19537" lon="6.74934">
        <ele>1382.1999511719</ele>
        <time>2020-08-13T15:13:52.000Z</time>
      </trkpt>
      <trkpt lat="44.19529" lon="6.7494">
        <ele>1381.5999755859</ele>
        <time>2020-08-13T15:13:53.000Z</time>
      </trkpt>
      <trkpt lat="44.19514" lon="6.74946">
        <ele>1380.4000244141</ele>
        <time>2020-08-13T15:13:55.000Z</time>
      </trkpt>
      <trkpt lat="44.195" lon="6.74939">
        <ele>1379.1999511719</ele>
        <time>2020-08-13T15:13:57.000Z</time>
      </trkpt>
      <trkpt lat="44.19493" lon="6.74918">
        <ele>1377.8000488281</ele>
        <time>2020-08-13T15:13:59.000Z</time>
      </trkpt>
      <trkpt lat="44.19493" lon="6.74893">
        <ele>1376</ele>
        <time>2020-08-13T15:14:01.000Z</time>
      </trkpt>
      <trkpt lat="44.19494" lon="6.7488">
        <ele>1375</ele>
        <time>2020-08-13T15:14:02.000Z</time>
      </trkpt>
      <trkpt lat="44.19494" lon="6.74867">
        <ele>1373.5999755859</ele>
        <time>2020-08-13T15:14:03.000Z</time>
      </trkpt>
      <trkpt lat="44.19491" lon="6.74843">
        <ele>1372</ele>
        <time>2020-08-13T15:14:05.000Z</time>
      </trkpt>
      <trkpt lat="44.19484" lon="6.74821">
        <ele>1370.4000244141</ele>
        <time>2020-08-13T15:14:07.000Z</time>
      </trkpt>
      <trkpt lat="44.1948" lon="6.74814">
        <ele>1369.8000488281</ele>
        <time>2020-08-13T15:14:08.000Z</time>
      </trkpt>
      <trkpt lat="44.19475" lon="6.74808">
        <ele>1368.8000488281</ele>
        <time>2020-08-13T15:14:09.000Z</time>
      </trkpt>
      <trkpt lat="44.19463" lon="6.74804">
        <ele>1368.1999511719</ele>
        <time>2020-08-13T15:14:11.000Z</time>
      </trkpt>
      <trkpt lat="44.19448" lon="6.7481">
        <ele>1367.1999511719</ele>
        <time>2020-08-13T15:14:13.000Z</time>
      </trkpt>
      <trkpt lat="44.1944" lon="6.74814">
        <ele>1366.4000244141</ele>
        <time>2020-08-13T15:14:14.000Z</time>
      </trkpt>
      <trkpt lat="44.19433" lon="6.7482">
        <ele>1365.5999755859</ele>
        <time>2020-08-13T15:14:15.000Z</time>
      </trkpt>
      <trkpt lat="44.19427" lon="6.74824">
        <ele>1365</ele>
        <time>2020-08-13T15:14:16.000Z</time>
      </trkpt>
      <trkpt lat="44.1942" lon="6.7483">
        <ele>1364.4000244141</ele>
        <time>2020-08-13T15:14:17.000Z</time>
      </trkpt>
      <trkpt lat="44.19414" lon="6.74833">
        <ele>1363.5999755859</ele>
        <time>2020-08-13T15:14:18.000Z</time>
      </trkpt>
      <trkpt lat="44.19408" lon="6.74833">
        <ele>1363.1999511719</ele>
        <time>2020-08-13T15:14:19.000Z</time>
      </trkpt>
      <trkpt lat="44.194" lon="6.74823">
        <ele>1361.8000488281</ele>
        <time>2020-08-13T15:14:21.000Z</time>
      </trkpt>
      <trkpt lat="44.19404" lon="6.74808">
        <ele>1360.5999755859</ele>
        <time>2020-08-13T15:14:23.000Z</time>
      </trkpt>
      <trkpt lat="44.19416" lon="6.74797">
        <ele>1359.5999755859</ele>
        <time>2020-08-13T15:14:25.000Z</time>
      </trkpt>
      <trkpt lat="44.19423" lon="6.74793">
        <ele>1359.1999511719</ele>
        <time>2020-08-13T15:14:26.000Z</time>
      </trkpt>
      <trkpt lat="44.19431" lon="6.74788">
        <ele>1358.1999511719</ele>
        <time>2020-08-13T15:14:27.000Z</time>
      </trkpt>
      <trkpt lat="44.19455" lon="6.74773">
        <ele>1357</ele>
        <time>2020-08-13T15:14:30.000Z</time>
      </trkpt>
      <trkpt lat="44.19464" lon="6.74769">
        <ele>1356.4000244141</ele>
        <time>2020-08-13T15:14:31.000Z</time>
      </trkpt>
      <trkpt lat="44.19473" lon="6.74764">
        <ele>1355.8000488281</ele>
        <time>2020-08-13T15:14:32.000Z</time>
      </trkpt>
      <trkpt lat="44.19493" lon="6.74762">
        <ele>1354.5999755859</ele>
        <time>2020-08-13T15:14:34.000Z</time>
      </trkpt>
      <trkpt lat="44.19511" lon="6.74763">
        <ele>1353</ele>
        <time>2020-08-13T15:14:36.000Z</time>
      </trkpt>
      <trkpt lat="44.19528" lon="6.74766">
        <ele>1352</ele>
        <time>2020-08-13T15:14:38.000Z</time>
      </trkpt>
      <trkpt lat="44.19536" lon="6.74766">
        <ele>1351.1999511719</ele>
        <time>2020-08-13T15:14:39.000Z</time>
      </trkpt>
      <trkpt lat="44.19543" lon="6.74764">
        <ele>1350.8000488281</ele>
        <time>2020-08-13T15:14:40.000Z</time>
      </trkpt>
      <trkpt lat="44.19549" lon="6.74759">
        <ele>1350</ele>
        <time>2020-08-13T15:14:41.000Z</time>
      </trkpt>
      <trkpt lat="44.19554" lon="6.7475">
        <ele>1349.4000244141</ele>
        <time>2020-08-13T15:14:42.000Z</time>
      </trkpt>
      <trkpt lat="44.19555" lon="6.74741">
        <ele>1348.8000488281</ele>
        <time>2020-08-13T15:14:43.000Z</time>
      </trkpt>
      <trkpt lat="44.19556" lon="6.74729">
        <ele>1348</ele>
        <time>2020-08-13T15:14:44.000Z</time>
      </trkpt>
      <trkpt lat="44.19554" lon="6.74707">
        <ele>1346.5999755859</ele>
        <time>2020-08-13T15:14:46.000Z</time>
      </trkpt>
      <trkpt lat="44.19553" lon="6.74681">
        <ele>1345</ele>
        <time>2020-08-13T15:14:48.000Z</time>
      </trkpt>
      <trkpt lat="44.19555" lon="6.74657">
        <ele>1343.5999755859</ele>
        <time>2020-08-13T15:14:50.000Z</time>
      </trkpt>
      <trkpt lat="44.19556" lon="6.74648">
        <ele>1342.5999755859</ele>
        <time>2020-08-13T15:14:51.000Z</time>
      </trkpt>
      <trkpt lat="44.1956" lon="6.74639">
        <ele>1341.8000488281</ele>
        <time>2020-08-13T15:14:52.000Z</time>
      </trkpt>
      <trkpt lat="44.19571" lon="6.74628">
        <ele>1340.4000244141</ele>
        <time>2020-08-13T15:14:54.000Z</time>
      </trkpt>
      <trkpt lat="44.19587" lon="6.7463">
        <ele>1339.8000488281</ele>
        <time>2020-08-13T15:14:56.000Z</time>
      </trkpt>
      <trkpt lat="44.19595" lon="6.74634">
        <ele>1339.4000244141</ele>
        <time>2020-08-13T15:14:57.000Z</time>
      </trkpt>
      <trkpt lat="44.1961" lon="6.74645">
        <ele>1338</ele>
        <time>2020-08-13T15:14:59.000Z</time>
      </trkpt>
      <trkpt lat="44.19617" lon="6.74651">
        <ele>1337</ele>
        <time>2020-08-13T15:15:00.000Z</time>
      </trkpt>
      <trkpt lat="44.19622" lon="6.74658">
        <ele>1336.5999755859</ele>
        <time>2020-08-13T15:15:01.000Z</time>
      </trkpt>
      <trkpt lat="44.19628" lon="6.74665">
        <ele>1335.1999511719</ele>
        <time>2020-08-13T15:15:02.000Z</time>
      </trkpt>
      <trkpt lat="44.19634" lon="6.74669">
        <ele>1334.4000244141</ele>
        <time>2020-08-13T15:15:03.000Z</time>
      </trkpt>
      <trkpt lat="44.19639" lon="6.74669">
        <ele>1333.8000488281</ele>
        <time>2020-08-13T15:15:04.000Z</time>
      </trkpt>
      <trkpt lat="44.19644" lon="6.74657">
        <ele>1332.8000488281</ele>
        <time>2020-08-13T15:15:06.000Z</time>
      </trkpt>
      <trkpt lat="44.19636" lon="6.74644">
        <ele>1332.1999511719</ele>
        <time>2020-08-13T15:15:08.000Z</time>
      </trkpt>
      <trkpt lat="44.19623" lon="6.74635">
        <ele>1331.4000244141</ele>
        <time>2020-08-13T15:15:10.000Z</time>
      </trkpt>
      <trkpt lat="44.19609" lon="6.74623">
        <ele>1330.8000488281</ele>
        <time>2020-08-13T15:15:12.000Z</time>
      </trkpt>
      <trkpt lat="44.19594" lon="6.74609">
        <ele>1330.1999511719</ele>
        <time>2020-08-13T15:15:14.000Z</time>
      </trkpt>
      <trkpt lat="44.19579" lon="6.74596">
        <ele>1328.8000488281</ele>
        <time>2020-08-13T15:15:16.000Z</time>
      </trkpt>
      <trkpt lat="44.19571" lon="6.74589">
        <ele>1327.8000488281</ele>
        <time>2020-08-13T15:15:17.000Z</time>
      </trkpt>
      <trkpt lat="44.19564" lon="6.74585">
        <ele>1327</ele>
        <time>2020-08-13T15:15:18.000Z</time>
      </trkpt>
      <trkpt lat="44.19558" lon="6.74584">
        <ele>1326</ele>
        <time>2020-08-13T15:15:19.000Z</time>
      </trkpt>
      <trkpt lat="44.19551" lon="6.74586">
        <ele>1325</ele>
        <time>2020-08-13T15:15:20.000Z</time>
      </trkpt>
      <trkpt lat="44.19545" lon="6.74591">
        <ele>1324.4000244141</ele>
        <time>2020-08-13T15:15:21.000Z</time>
      </trkpt>
      <trkpt lat="44.1954" lon="6.746">
        <ele>1323.8000488281</ele>
        <time>2020-08-13T15:15:22.000Z</time>
      </trkpt>
      <trkpt lat="44.19535" lon="6.74609">
        <ele>1323.5999755859</ele>
        <time>2020-08-13T15:15:23.000Z</time>
      </trkpt>
      <trkpt lat="44.19535" lon="6.74622">
        <ele>1323</ele>
        <time>2020-08-13T15:15:24.000Z</time>
      </trkpt>
      <trkpt lat="44.19533" lon="6.74634">
        <ele>1322.4000244141</ele>
        <time>2020-08-13T15:15:25.000Z</time>
      </trkpt>
      <trkpt lat="44.1953" lon="6.74643">
        <ele>1321.8000488281</ele>
        <time>2020-08-13T15:15:26.000Z</time>
      </trkpt>
      <trkpt lat="44.19521" lon="6.74657">
        <ele>1320.4000244141</ele>
        <time>2020-08-13T15:15:28.000Z</time>
      </trkpt>
      <trkpt lat="44.19509" lon="6.74652">
        <ele>1319.5999755859</ele>
        <time>2020-08-13T15:15:30.000Z</time>
      </trkpt>
      <trkpt lat="44.19505" lon="6.74645">
        <ele>1318.8000488281</ele>
        <time>2020-08-13T15:15:31.000Z</time>
      </trkpt>
      <trkpt lat="44.19494" lon="6.74631">
        <ele>1317.5999755859</ele>
        <time>2020-08-13T15:15:33.000Z</time>
      </trkpt>
      <trkpt lat="44.19481" lon="6.74626">
        <ele>1316.1999511719</ele>
        <time>2020-08-13T15:15:35.000Z</time>
      </trkpt>
      <trkpt lat="44.19474" lon="6.74628">
        <ele>1315.8000488281</ele>
        <time>2020-08-13T15:15:36.000Z</time>
      </trkpt>
      <trkpt lat="44.19466" lon="6.74632">
        <ele>1315</ele>
        <time>2020-08-13T15:15:37.000Z</time>
      </trkpt>
      <trkpt lat="44.19457" lon="6.74636">
        <ele>1314.1999511719</ele>
        <time>2020-08-13T15:15:38.000Z</time>
      </trkpt>
      <trkpt lat="44.19448" lon="6.74639">
        <ele>1313.5999755859</ele>
        <time>2020-08-13T15:15:39.000Z</time>
      </trkpt>
      <trkpt lat="44.19439" lon="6.7464">
        <ele>1312.8000488281</ele>
        <time>2020-08-13T15:15:40.000Z</time>
      </trkpt>
      <trkpt lat="44.19431" lon="6.74639">
        <ele>1312</ele>
        <time>2020-08-13T15:15:41.000Z</time>
      </trkpt>
      <trkpt lat="44.19412" lon="6.74636">
        <ele>1310.5999755859</ele>
        <time>2020-08-13T15:15:43.000Z</time>
      </trkpt>
      <trkpt lat="44.19403" lon="6.74635">
        <ele>1309.8000488281</ele>
        <time>2020-08-13T15:15:44.000Z</time>
      </trkpt>
      <trkpt lat="44.19394" lon="6.74637">
        <ele>1309</ele>
        <time>2020-08-13T15:15:45.000Z</time>
      </trkpt>
      <trkpt lat="44.19377" lon="6.74649">
        <ele>1307.1999511719</ele>
        <time>2020-08-13T15:15:47.000Z</time>
      </trkpt>
      <trkpt lat="44.19367" lon="6.74656">
        <ele>1306.4000244141</ele>
        <time>2020-08-13T15:15:48.000Z</time>
      </trkpt>
      <trkpt lat="44.19357" lon="6.74662">
        <ele>1305.4000244141</ele>
        <time>2020-08-13T15:15:49.000Z</time>
      </trkpt>
      <trkpt lat="44.19347" lon="6.74667">
        <ele>1304.1999511719</ele>
        <time>2020-08-13T15:15:50.000Z</time>
      </trkpt>
      <trkpt lat="44.19337" lon="6.74673">
        <ele>1302.5999755859</ele>
        <time>2020-08-13T15:15:51.000Z</time>
      </trkpt>
      <trkpt lat="44.19317" lon="6.74687">
        <ele>1300.4000244141</ele>
        <time>2020-08-13T15:15:53.000Z</time>
      </trkpt>
      <trkpt lat="44.19308" lon="6.74696">
        <ele>1299.4000244141</ele>
        <time>2020-08-13T15:15:54.000Z</time>
      </trkpt>
      <trkpt lat="44.193" lon="6.74707">
        <ele>1298.5999755859</ele>
        <time>2020-08-13T15:15:55.000Z</time>
      </trkpt>
      <trkpt lat="44.19293" lon="6.74718">
        <ele>1297.4000244141</ele>
        <time>2020-08-13T15:15:56.000Z</time>
      </trkpt>
      <trkpt lat="44.19286" lon="6.74729">
        <ele>1296</ele>
        <time>2020-08-13T15:15:57.000Z</time>
      </trkpt>
      <trkpt lat="44.1928" lon="6.74739">
        <ele>1294.8000488281</ele>
        <time>2020-08-13T15:15:58.000Z</time>
      </trkpt>
      <trkpt lat="44.19273" lon="6.74747">
        <ele>1294</ele>
        <time>2020-08-13T15:15:59.000Z</time>
      </trkpt>
      <trkpt lat="44.19264" lon="6.74752">
        <ele>1293</ele>
        <time>2020-08-13T15:16:00.000Z</time>
      </trkpt>
      <trkpt lat="44.19255" lon="6.74753">
        <ele>1292.4000244141</ele>
        <time>2020-08-13T15:16:01.000Z</time>
      </trkpt>
      <trkpt lat="44.19244" lon="6.74753">
        <ele>1291.8000488281</ele>
        <time>2020-08-13T15:16:02.000Z</time>
      </trkpt>
      <trkpt lat="44.19234" lon="6.74753">
        <ele>1291.1999511719</ele>
        <time>2020-08-13T15:16:03.000Z</time>
      </trkpt>
      <trkpt lat="44.19223" lon="6.74751">
        <ele>1290.4000244141</ele>
        <time>2020-08-13T15:16:04.000Z</time>
      </trkpt>
      <trkpt lat="44.19213" lon="6.7475">
        <ele>1289.5999755859</ele>
        <time>2020-08-13T15:16:05.000Z</time>
      </trkpt>
      <trkpt lat="44.19202" lon="6.74748">
        <ele>1289</ele>
        <time>2020-08-13T15:16:06.000Z</time>
      </trkpt>
      <trkpt lat="44.19191" lon="6.74747">
        <ele>1288</ele>
        <time>2020-08-13T15:16:07.000Z</time>
      </trkpt>
      <trkpt lat="44.19181" lon="6.74747">
        <ele>1287.1999511719</ele>
        <time>2020-08-13T15:16:08.000Z</time>
      </trkpt>
      <trkpt lat="44.19173" lon="6.74748">
        <ele>1286.4000244141</ele>
        <time>2020-08-13T15:16:09.000Z</time>
      </trkpt>
      <trkpt lat="44.19164" lon="6.74752">
        <ele>1285.4000244141</ele>
        <time>2020-08-13T15:16:10.000Z</time>
      </trkpt>
      <trkpt lat="44.19157" lon="6.74758">
        <ele>1284.5999755859</ele>
        <time>2020-08-13T15:16:11.000Z</time>
      </trkpt>
      <trkpt lat="44.19143" lon="6.74775">
        <ele>1282.4000244141</ele>
        <time>2020-08-13T15:16:13.000Z</time>
      </trkpt>
      <trkpt lat="44.19128" lon="6.7479">
        <ele>1281</ele>
        <time>2020-08-13T15:16:15.000Z</time>
      </trkpt>
      <trkpt lat="44.19112" lon="6.74806">
        <ele>1279.5999755859</ele>
        <time>2020-08-13T15:16:17.000Z</time>
      </trkpt>
      <trkpt lat="44.19085" lon="6.74831">
        <ele>1278</ele>
        <time>2020-08-13T15:16:20.000Z</time>
      </trkpt>
      <trkpt lat="44.19067" lon="6.74845">
        <ele>1276.4000244141</ele>
        <time>2020-08-13T15:16:22.000Z</time>
      </trkpt>
      <trkpt lat="44.19056" lon="6.74852">
        <ele>1275</ele>
        <time>2020-08-13T15:16:23.000Z</time>
      </trkpt>
      <trkpt lat="44.19046" lon="6.7486">
        <ele>1273.8000488281</ele>
        <time>2020-08-13T15:16:24.000Z</time>
      </trkpt>
      <trkpt lat="44.19037" lon="6.74868">
        <ele>1272.8000488281</ele>
        <time>2020-08-13T15:16:25.000Z</time>
      </trkpt>
      <trkpt lat="44.19027" lon="6.74876">
        <ele>1271.5999755859</ele>
        <time>2020-08-13T15:16:26.000Z</time>
      </trkpt>
      <trkpt lat="44.19017" lon="6.74884">
        <ele>1270.8000488281</ele>
        <time>2020-08-13T15:16:27.000Z</time>
      </trkpt>
      <trkpt lat="44.19006" lon="6.74891">
        <ele>1270</ele>
        <time>2020-08-13T15:16:28.000Z</time>
      </trkpt>
      <trkpt lat="44.18985" lon="6.74903">
        <ele>1268</ele>
        <time>2020-08-13T15:16:30.000Z</time>
      </trkpt>
      <trkpt lat="44.18975" lon="6.74907">
        <ele>1268.4000244141</ele>
        <time>2020-08-13T15:16:31.000Z</time>
      </trkpt>
      <trkpt lat="44.18957" lon="6.74913">
        <ele>1266.8000488281</ele>
        <time>2020-08-13T15:16:33.000Z</time>
      </trkpt>
      <trkpt lat="44.18948" lon="6.74913">
        <ele>1266</ele>
        <time>2020-08-13T15:16:34.000Z</time>
      </trkpt>
      <trkpt lat="44.18939" lon="6.74912">
        <ele>1265</ele>
        <time>2020-08-13T15:16:35.000Z</time>
      </trkpt>
      <trkpt lat="44.18924" lon="6.74906">
        <ele>1263.4000244141</ele>
        <time>2020-08-13T15:16:37.000Z</time>
      </trkpt>
      <trkpt lat="44.18917" lon="6.74901">
        <ele>1263</ele>
        <time>2020-08-13T15:16:38.000Z</time>
      </trkpt>
      <trkpt lat="44.1891" lon="6.74896">
        <ele>1262.1999511719</ele>
        <time>2020-08-13T15:16:39.000Z</time>
      </trkpt>
      <trkpt lat="44.18896" lon="6.74887">
        <ele>1260.8000488281</ele>
        <time>2020-08-13T15:16:41.000Z</time>
      </trkpt>
      <trkpt lat="44.18879" lon="6.74879">
        <ele>1259.5999755859</ele>
        <time>2020-08-13T15:16:43.000Z</time>
      </trkpt>
      <trkpt lat="44.18871" lon="6.74875">
        <ele>1259</ele>
        <time>2020-08-13T15:16:44.000Z</time>
      </trkpt>
      <trkpt lat="44.18863" lon="6.74871">
        <ele>1258.4000244141</ele>
        <time>2020-08-13T15:16:45.000Z</time>
      </trkpt>
      <trkpt lat="44.18841" lon="6.74863">
        <ele>1257.4000244141</ele>
        <time>2020-08-13T15:16:48.000Z</time>
      </trkpt>
      <trkpt lat="44.18836" lon="6.74861">
        <ele>1257</ele>
        <time>2020-08-13T15:16:49.000Z</time>
      </trkpt>
      <trkpt lat="44.18826" lon="6.74857">
        <ele>1256.1999511719</ele>
        <time>2020-08-13T15:16:51.000Z</time>
      </trkpt>
      <trkpt lat="44.18815" lon="6.74853">
        <ele>1255.5999755859</ele>
        <time>2020-08-13T15:16:53.000Z</time>
      </trkpt>
      <trkpt lat="44.1881" lon="6.7485">
        <ele>1255.4000244141</ele>
        <time>2020-08-13T15:16:54.000Z</time>
      </trkpt>
      <trkpt lat="44.18804" lon="6.74848">
        <ele>1255.1999511719</ele>
        <time>2020-08-13T15:16:55.000Z</time>
      </trkpt>
      <trkpt lat="44.18784" lon="6.74837">
        <ele>1254.1999511719</ele>
        <time>2020-08-13T15:16:59.000Z</time>
      </trkpt>
      <trkpt lat="44.1878" lon="6.74835">
        <ele>1253.5999755859</ele>
        <time>2020-08-13T15:17:00.000Z</time>
      </trkpt>
      <trkpt lat="44.18776" lon="6.74832">
        <ele>1253.1999511719</ele>
        <time>2020-08-13T15:17:01.000Z</time>
      </trkpt>
      <trkpt lat="44.18772" lon="6.74828">
        <ele>1253</ele>
        <time>2020-08-13T15:17:02.000Z</time>
      </trkpt>
      <trkpt lat="44.18767" lon="6.7482">
        <ele>1251.8000488281</ele>
        <time>2020-08-13T15:17:04.000Z</time>
      </trkpt>
      <trkpt lat="44.18765" lon="6.74816">
        <ele>1251</ele>
        <time>2020-08-13T15:17:07.000Z</time>
      </trkpt>
      <trkpt lat="44.18765" lon="6.74815">
        <ele>1250.8000488281</ele>
        <time>2020-08-13T15:17:10.000Z</time>
      </trkpt>
      <trkpt lat="44.18765" lon="6.74814">
        <ele>1250.8000488281</ele>
        <time>2020-08-13T15:17:18.000Z</time>
      </trkpt>
      <trkpt lat="44.18765" lon="6.74814">
        <ele>1251.5999755859</ele>
        <time>2020-08-13T15:17:28.000Z</time>
      </trkpt>
      <trkpt lat="44.18765" lon="6.74813">
        <ele>1251.4000244141</ele>
        <time>2020-08-13T15:17:39.000Z</time>
      </trkpt>
      <trkpt lat="44.18765" lon="6.74813">
        <ele>1251.4000244141</ele>
        <time>2020-08-13T15:17:45.000Z</time>
      </trkpt>
      <trkpt lat="44.18765" lon="6.74813">
        <ele>1251.1999511719</ele>
        <time>2020-08-13T15:17:51.000Z</time>
      </trkpt>
      <trkpt lat="44.18765" lon="6.74813">
        <ele>1251.4000244141</ele>
        <time>2020-08-13T15:18:00.000Z</time>
      </trkpt>
      <trkpt lat="44.18765" lon="6.74813">
        <ele>1251.4000244141</ele>
        <time>2020-08-13T15:18:20.000Z</time>
      </trkpt>
      <trkpt lat="44.18765" lon="6.74812">
        <ele>1251.8000488281</ele>
        <time>2020-08-13T15:18:27.000Z</time>
      </trkpt>
      <trkpt lat="44.18765" lon="6.74812">
        <ele>1251.8000488281</ele>
        <time>2020-08-13T15:18:29.000Z</time>
      </trkpt>
      <trkpt lat="44.18765" lon="6.74812">
        <ele>1251.8000488281</ele>
        <time>2020-08-13T15:18:40.000Z</time>
      </trkpt>
      <trkpt lat="44.18766" lon="6.74812">
        <ele>1251.5999755859</ele>
        <time>2020-08-13T15:18:56.000Z</time>
      </trkpt>
      <trkpt lat="44.18766" lon="6.74812">
        <ele>1252</ele>
        <time>2020-08-13T15:19:09.000Z</time>
      </trkpt>
      <trkpt lat="44.18766" lon="6.7481">
        <ele>1252</ele>
        <time>2020-08-13T15:19:19.000Z</time>
      </trkpt>
      <trkpt lat="44.18758" lon="6.74803">
        <ele>1252</ele>
        <time>2020-08-13T15:19:24.000Z</time>
      </trkpt>
      <trkpt lat="44.18742" lon="6.74789">
        <ele>1251.5999755859</ele>
        <time>2020-08-13T15:19:29.000Z</time>
      </trkpt>
      <trkpt lat="44.18735" lon="6.74783">
        <ele>1251.1999511719</ele>
        <time>2020-08-13T15:19:31.000Z</time>
      </trkpt>
      <trkpt lat="44.18727" lon="6.74779">
        <ele>1250.8000488281</ele>
        <time>2020-08-13T15:19:33.000Z</time>
      </trkpt>
      <trkpt lat="44.18723" lon="6.74778">
        <ele>1250.5999755859</ele>
        <time>2020-08-13T15:19:34.000Z</time>
      </trkpt>
      <trkpt lat="44.18703" lon="6.74774">
        <ele>1250.5999755859</ele>
        <time>2020-08-13T15:19:38.000Z</time>
      </trkpt>
      <trkpt lat="44.18688" lon="6.74778">
        <ele>1249.8000488281</ele>
        <time>2020-08-13T15:19:41.000Z</time>
      </trkpt>
      <trkpt lat="44.18682" lon="6.74781">
        <ele>1249.4000244141</ele>
        <time>2020-08-13T15:19:42.000Z</time>
      </trkpt>
      <trkpt lat="44.18677" lon="6.74784">
        <ele>1249.1999511719</ele>
        <time>2020-08-13T15:19:43.000Z</time>
      </trkpt>
      <trkpt lat="44.18649" lon="6.74803">
        <ele>1248.4000244141</ele>
        <time>2020-08-13T15:19:48.000Z</time>
      </trkpt>
      <trkpt lat="44.18623" lon="6.74816">
        <ele>1247</ele>
        <time>2020-08-13T15:19:52.000Z</time>
      </trkpt>
      <trkpt lat="44.18609" lon="6.74822">
        <ele>1246.1999511719</ele>
        <time>2020-08-13T15:19:54.000Z</time>
      </trkpt>
      <trkpt lat="44.18603" lon="6.74825">
        <ele>1246</ele>
        <time>2020-08-13T15:19:55.000Z</time>
      </trkpt>
      <trkpt lat="44.18597" lon="6.74828">
        <ele>1245.8000488281</ele>
        <time>2020-08-13T15:19:56.000Z</time>
      </trkpt>
      <trkpt lat="44.18569" lon="6.74842">
        <ele>1244.8000488281</ele>
        <time>2020-08-13T15:20:00.000Z</time>
      </trkpt>
      <trkpt lat="44.18563" lon="6.74845">
        <ele>1244.5999755859</ele>
        <time>2020-08-13T15:20:01.000Z</time>
      </trkpt>
      <trkpt lat="44.18535" lon="6.74857">
        <ele>1243.4000244141</ele>
        <time>2020-08-13T15:20:05.000Z</time>
      </trkpt>
      <trkpt lat="44.18505" lon="6.7487">
        <ele>1242.4000244141</ele>
        <time>2020-08-13T15:20:09.000Z</time>
      </trkpt>
      <trkpt lat="44.18482" lon="6.7488">
        <ele>1242.4000244141</ele>
        <time>2020-08-13T15:20:12.000Z</time>
      </trkpt>
      <trkpt lat="44.18451" lon="6.74893">
        <ele>1240.8000488281</ele>
        <time>2020-08-13T15:20:16.000Z</time>
      </trkpt>
      <trkpt lat="44.18442" lon="6.74897">
        <ele>1239.8000488281</ele>
        <time>2020-08-13T15:20:17.000Z</time>
      </trkpt>
      <trkpt lat="44.18433" lon="6.749">
        <ele>1238.8000488281</ele>
        <time>2020-08-13T15:20:18.000Z</time>
      </trkpt>
      <trkpt lat="44.18425" lon="6.74902">
        <ele>1237.8000488281</ele>
        <time>2020-08-13T15:20:19.000Z</time>
      </trkpt>
      <trkpt lat="44.18399" lon="6.74907">
        <ele>1236.8000488281</ele>
        <time>2020-08-13T15:20:22.000Z</time>
      </trkpt>
      <trkpt lat="44.18392" lon="6.74908">
        <ele>1236</ele>
        <time>2020-08-13T15:20:23.000Z</time>
      </trkpt>
      <trkpt lat="44.18378" lon="6.74908">
        <ele>1235</ele>
        <time>2020-08-13T15:20:25.000Z</time>
      </trkpt>
      <trkpt lat="44.18372" lon="6.74908">
        <ele>1235</ele>
        <time>2020-08-13T15:20:26.000Z</time>
      </trkpt>
      <trkpt lat="44.18335" lon="6.74901">
        <ele>1234.5999755859</ele>
        <time>2020-08-13T15:20:32.000Z</time>
      </trkpt>
      <trkpt lat="44.18299" lon="6.74885">
        <ele>1233.4000244141</ele>
        <time>2020-08-13T15:20:37.000Z</time>
      </trkpt>
      <trkpt lat="44.18277" lon="6.74869">
        <ele>1232</ele>
        <time>2020-08-13T15:20:40.000Z</time>
      </trkpt>
      <trkpt lat="44.18262" lon="6.74859">
        <ele>1230.8000488281</ele>
        <time>2020-08-13T15:20:42.000Z</time>
      </trkpt>
      <trkpt lat="44.18239" lon="6.74843">
        <ele>1230</ele>
        <time>2020-08-13T15:20:45.000Z</time>
      </trkpt>
      <trkpt lat="44.18232" lon="6.74838">
        <ele>1229.8000488281</ele>
        <time>2020-08-13T15:20:46.000Z</time>
      </trkpt>
      <trkpt lat="44.18195" lon="6.74815">
        <ele>1229</ele>
        <time>2020-08-13T15:20:51.000Z</time>
      </trkpt>
      <trkpt lat="44.18179" lon="6.74815">
        <ele>1228.5999755859</ele>
        <time>2020-08-13T15:20:53.000Z</time>
      </trkpt>
      <trkpt lat="44.1817" lon="6.74818">
        <ele>1228.1999511719</ele>
        <time>2020-08-13T15:20:54.000Z</time>
      </trkpt>
      <trkpt lat="44.18162" lon="6.74822">
        <ele>1227.8000488281</ele>
        <time>2020-08-13T15:20:55.000Z</time>
      </trkpt>
      <trkpt lat="44.18147" lon="6.74832">
        <ele>1227.4000244141</ele>
        <time>2020-08-13T15:20:57.000Z</time>
      </trkpt>
      <trkpt lat="44.1814" lon="6.74839">
        <ele>1227.1999511719</ele>
        <time>2020-08-13T15:20:58.000Z</time>
      </trkpt>
      <trkpt lat="44.18117" lon="6.74858">
        <ele>1226.5999755859</ele>
        <time>2020-08-13T15:21:01.000Z</time>
      </trkpt>
      <trkpt lat="44.18107" lon="6.74862">
        <ele>1226.1999511719</ele>
        <time>2020-08-13T15:21:02.000Z</time>
      </trkpt>
      <trkpt lat="44.18081" lon="6.74873">
        <ele>1224.8000488281</ele>
        <time>2020-08-13T15:21:05.000Z</time>
      </trkpt>
      <trkpt lat="44.18064" lon="6.74884">
        <ele>1224</ele>
        <time>2020-08-13T15:21:07.000Z</time>
      </trkpt>
      <trkpt lat="44.18055" lon="6.74887">
        <ele>1223.8000488281</ele>
        <time>2020-08-13T15:21:08.000Z</time>
      </trkpt>
      <trkpt lat="44.18021" lon="6.74899">
        <ele>1223.8000488281</ele>
        <time>2020-08-13T15:21:12.000Z</time>
      </trkpt>
      <trkpt lat="44.18003" lon="6.74902">
        <ele>1223.8000488281</ele>
        <time>2020-08-13T15:21:14.000Z</time>
      </trkpt>
      <trkpt lat="44.17986" lon="6.74901">
        <ele>1223.1999511719</ele>
        <time>2020-08-13T15:21:16.000Z</time>
      </trkpt>
      <trkpt lat="44.17977" lon="6.74899">
        <ele>1223</ele>
        <time>2020-08-13T15:21:17.000Z</time>
      </trkpt>
      <trkpt lat="44.17967" lon="6.74896">
        <ele>1222.5999755859</ele>
        <time>2020-08-13T15:21:18.000Z</time>
      </trkpt>
      <trkpt lat="44.17939" lon="6.74892">
        <ele>1221.4000244141</ele>
        <time>2020-08-13T15:21:21.000Z</time>
      </trkpt>
      <trkpt lat="44.1791" lon="6.74896">
        <ele>1219.8000488281</ele>
        <time>2020-08-13T15:21:24.000Z</time>
      </trkpt>
      <trkpt lat="44.179" lon="6.74897">
        <ele>1219.5999755859</ele>
        <time>2020-08-13T15:21:25.000Z</time>
      </trkpt>
      <trkpt lat="44.17871" lon="6.74899">
        <ele>1218.8000488281</ele>
        <time>2020-08-13T15:21:28.000Z</time>
      </trkpt>
      <trkpt lat="44.17832" lon="6.74901">
        <ele>1218</ele>
        <time>2020-08-13T15:21:32.000Z</time>
      </trkpt>
      <trkpt lat="44.17822" lon="6.74898">
        <ele>1217.5999755859</ele>
        <time>2020-08-13T15:21:33.000Z</time>
      </trkpt>
      <trkpt lat="44.17806" lon="6.74887">
        <ele>1216.8000488281</ele>
        <time>2020-08-13T15:21:35.000Z</time>
      </trkpt>
      <trkpt lat="44.178" lon="6.74877">
        <ele>1216.5999755859</ele>
        <time>2020-08-13T15:21:36.000Z</time>
      </trkpt>
      <trkpt lat="44.1779" lon="6.74853">
        <ele>1216.1999511719</ele>
        <time>2020-08-13T15:21:38.000Z</time>
      </trkpt>
      <trkpt lat="44.17785" lon="6.74843">
        <ele>1215.8000488281</ele>
        <time>2020-08-13T15:21:39.000Z</time>
      </trkpt>
      <trkpt lat="44.1778" lon="6.74835">
        <ele>1215.4000244141</ele>
        <time>2020-08-13T15:21:40.000Z</time>
      </trkpt>
      <trkpt lat="44.17773" lon="6.74829">
        <ele>1215.1999511719</ele>
        <time>2020-08-13T15:21:41.000Z</time>
      </trkpt>
      <trkpt lat="44.17756" lon="6.74826">
        <ele>1214.8000488281</ele>
        <time>2020-08-13T15:21:43.000Z</time>
      </trkpt>
      <trkpt lat="44.17738" lon="6.7483">
        <ele>1214.8000488281</ele>
        <time>2020-08-13T15:21:45.000Z</time>
      </trkpt>
      <trkpt lat="44.17721" lon="6.74836">
        <ele>1214.4000244141</ele>
        <time>2020-08-13T15:21:47.000Z</time>
      </trkpt>
      <trkpt lat="44.17711" lon="6.74839">
        <ele>1214.4000244141</ele>
        <time>2020-08-13T15:21:48.000Z</time>
      </trkpt>
      <trkpt lat="44.17675" lon="6.7485">
        <ele>1213.1999511719</ele>
        <time>2020-08-13T15:21:52.000Z</time>
      </trkpt>
      <trkpt lat="44.17667" lon="6.74859">
        <ele>1212.8000488281</ele>
        <time>2020-08-13T15:21:53.000Z</time>
      </trkpt>
      <trkpt lat="44.17649" lon="6.74875">
        <ele>1211.8000488281</ele>
        <time>2020-08-13T15:21:55.000Z</time>
      </trkpt>
      <trkpt lat="44.17631" lon="6.74889">
        <ele>1210.8000488281</ele>
        <time>2020-08-13T15:21:57.000Z</time>
      </trkpt>
      <trkpt lat="44.17613" lon="6.74903">
        <ele>1210</ele>
        <time>2020-08-13T15:21:59.000Z</time>
      </trkpt>
      <trkpt lat="44.17594" lon="6.74916">
        <ele>1209.5999755859</ele>
        <time>2020-08-13T15:22:01.000Z</time>
      </trkpt>
      <trkpt lat="44.17573" lon="6.74924">
        <ele>1208.5999755859</ele>
        <time>2020-08-13T15:22:03.000Z</time>
      </trkpt>
      <trkpt lat="44.17544" lon="6.74934">
        <ele>1207.4000244141</ele>
        <time>2020-08-13T15:22:06.000Z</time>
      </trkpt>
      <trkpt lat="44.17525" lon="6.74943">
        <ele>1207.5999755859</ele>
        <time>2020-08-13T15:22:08.000Z</time>
      </trkpt>
      <trkpt lat="44.17515" lon="6.74946">
        <ele>1207.5999755859</ele>
        <time>2020-08-13T15:22:09.000Z</time>
      </trkpt>
      <trkpt lat="44.17496" lon="6.74948">
        <ele>1207.1999511719</ele>
        <time>2020-08-13T15:22:11.000Z</time>
      </trkpt>
      <trkpt lat="44.17484" lon="6.7495">
        <ele>1206.8000488281</ele>
        <time>2020-08-13T15:22:12.000Z</time>
      </trkpt>
      <trkpt lat="44.17473" lon="6.74954">
        <ele>1206.4000244141</ele>
        <time>2020-08-13T15:22:13.000Z</time>
      </trkpt>
      <trkpt lat="44.17464" lon="6.74961">
        <ele>1205.5999755859</ele>
        <time>2020-08-13T15:22:14.000Z</time>
      </trkpt>
      <trkpt lat="44.17454" lon="6.7497">
        <ele>1205</ele>
        <time>2020-08-13T15:22:15.000Z</time>
      </trkpt>
      <trkpt lat="44.17439" lon="6.74991">
        <ele>1203.5999755859</ele>
        <time>2020-08-13T15:22:17.000Z</time>
      </trkpt>
      <trkpt lat="44.17422" lon="6.75009">
        <ele>1202.1999511719</ele>
        <time>2020-08-13T15:22:19.000Z</time>
      </trkpt>
      <trkpt lat="44.17413" lon="6.75015">
        <ele>1201.5999755859</ele>
        <time>2020-08-13T15:22:20.000Z</time>
      </trkpt>
      <trkpt lat="44.17404" lon="6.75017">
        <ele>1201.1999511719</ele>
        <time>2020-08-13T15:22:21.000Z</time>
      </trkpt>
      <trkpt lat="44.17384" lon="6.75021">
        <ele>1200.1999511719</ele>
        <time>2020-08-13T15:22:23.000Z</time>
      </trkpt>
      <trkpt lat="44.17373" lon="6.75025">
        <ele>1199.4000244141</ele>
        <time>2020-08-13T15:22:24.000Z</time>
      </trkpt>
      <trkpt lat="44.17363" lon="6.75028">
        <ele>1199</ele>
        <time>2020-08-13T15:22:25.000Z</time>
      </trkpt>
      <trkpt lat="44.17353" lon="6.7503">
        <ele>1198.4000244141</ele>
        <time>2020-08-13T15:22:26.000Z</time>
      </trkpt>
      <trkpt lat="44.17341" lon="6.75029">
        <ele>1197.1999511719</ele>
        <time>2020-08-13T15:22:27.000Z</time>
      </trkpt>
      <trkpt lat="44.17321" lon="6.75019">
        <ele>1195.8000488281</ele>
        <time>2020-08-13T15:22:29.000Z</time>
      </trkpt>
      <trkpt lat="44.17309" lon="6.75012">
        <ele>1194.8000488281</ele>
        <time>2020-08-13T15:22:30.000Z</time>
      </trkpt>
      <trkpt lat="44.173" lon="6.75005">
        <ele>1193.8000488281</ele>
        <time>2020-08-13T15:22:31.000Z</time>
      </trkpt>
      <trkpt lat="44.17288" lon="6.75">
        <ele>1192.8000488281</ele>
        <time>2020-08-13T15:22:32.000Z</time>
      </trkpt>
      <trkpt lat="44.17277" lon="6.74996">
        <ele>1191.5999755859</ele>
        <time>2020-08-13T15:22:33.000Z</time>
      </trkpt>
      <trkpt lat="44.17266" lon="6.74995">
        <ele>1190.8000488281</ele>
        <time>2020-08-13T15:22:34.000Z</time>
      </trkpt>
      <trkpt lat="44.17255" lon="6.74994">
        <ele>1189.8000488281</ele>
        <time>2020-08-13T15:22:35.000Z</time>
      </trkpt>
      <trkpt lat="44.17232" lon="6.75">
        <ele>1188.8000488281</ele>
        <time>2020-08-13T15:22:37.000Z</time>
      </trkpt>
      <trkpt lat="44.17212" lon="6.75012">
        <ele>1187.8000488281</ele>
        <time>2020-08-13T15:22:39.000Z</time>
      </trkpt>
      <trkpt lat="44.17202" lon="6.75018">
        <ele>1187.1999511719</ele>
        <time>2020-08-13T15:22:40.000Z</time>
      </trkpt>
      <trkpt lat="44.17193" lon="6.75025">
        <ele>1186.8000488281</ele>
        <time>2020-08-13T15:22:41.000Z</time>
      </trkpt>
      <trkpt lat="44.17174" lon="6.75041">
        <ele>1186</ele>
        <time>2020-08-13T15:22:43.000Z</time>
      </trkpt>
      <trkpt lat="44.17165" lon="6.75051">
        <ele>1185.5999755859</ele>
        <time>2020-08-13T15:22:44.000Z</time>
      </trkpt>
      <trkpt lat="44.17158" lon="6.75062">
        <ele>1185.4000244141</ele>
        <time>2020-08-13T15:22:45.000Z</time>
      </trkpt>
      <trkpt lat="44.17142" lon="6.75082">
        <ele>1184.8000488281</ele>
        <time>2020-08-13T15:22:47.000Z</time>
      </trkpt>
      <trkpt lat="44.17134" lon="6.7509">
        <ele>1184.8000488281</ele>
        <time>2020-08-13T15:22:48.000Z</time>
      </trkpt>
      <trkpt lat="44.17124" lon="6.75097">
        <ele>1185</ele>
        <time>2020-08-13T15:22:49.000Z</time>
      </trkpt>
      <trkpt lat="44.17095" lon="6.75106">
        <ele>1184.4000244141</ele>
        <time>2020-08-13T15:22:52.000Z</time>
      </trkpt>
      <trkpt lat="44.17075" lon="6.75116">
        <ele>1183.4000244141</ele>
        <time>2020-08-13T15:22:54.000Z</time>
      </trkpt>
      <trkpt lat="44.17066" lon="6.75122">
        <ele>1182.5999755859</ele>
        <time>2020-08-13T15:22:55.000Z</time>
      </trkpt>
      <trkpt lat="44.17057" lon="6.75127">
        <ele>1181.8000488281</ele>
        <time>2020-08-13T15:22:56.000Z</time>
      </trkpt>
      <trkpt lat="44.17026" lon="6.7514">
        <ele>1180.5999755859</ele>
        <time>2020-08-13T15:22:59.000Z</time>
      </trkpt>
      <trkpt lat="44.17004" lon="6.75148">
        <ele>1179.8000488281</ele>
        <time>2020-08-13T15:23:01.000Z</time>
      </trkpt>
      <trkpt lat="44.16992" lon="6.75152">
        <ele>1179.1999511719</ele>
        <time>2020-08-13T15:23:02.000Z</time>
      </trkpt>
      <trkpt lat="44.1697" lon="6.75154">
        <ele>1177.4000244141</ele>
        <time>2020-08-13T15:23:04.000Z</time>
      </trkpt>
      <trkpt lat="44.16959" lon="6.75153">
        <ele>1177</ele>
        <time>2020-08-13T15:23:05.000Z</time>
      </trkpt>
      <trkpt lat="44.16935" lon="6.75153">
        <ele>1175.8000488281</ele>
        <time>2020-08-13T15:23:07.000Z</time>
      </trkpt>
      <trkpt lat="44.16902" lon="6.75156">
        <ele>1174.1999511719</ele>
        <time>2020-08-13T15:23:10.000Z</time>
      </trkpt>
      <trkpt lat="44.16868" lon="6.7516">
        <ele>1172.8000488281</ele>
        <time>2020-08-13T15:23:13.000Z</time>
      </trkpt>
      <trkpt lat="44.16836" lon="6.75165">
        <ele>1172</ele>
        <time>2020-08-13T15:23:16.000Z</time>
      </trkpt>
      <trkpt lat="44.16825" lon="6.7517">
        <ele>1171.4000244141</ele>
        <time>2020-08-13T15:23:17.000Z</time>
      </trkpt>
      <trkpt lat="44.16804" lon="6.75178">
        <ele>1170</ele>
        <time>2020-08-13T15:23:19.000Z</time>
      </trkpt>
      <trkpt lat="44.16772" lon="6.7519">
        <ele>1168.5999755859</ele>
        <time>2020-08-13T15:23:22.000Z</time>
      </trkpt>
      <trkpt lat="44.16752" lon="6.75198">
        <ele>1167.8000488281</ele>
        <time>2020-08-13T15:23:24.000Z</time>
      </trkpt>
      <trkpt lat="44.16742" lon="6.75204">
        <ele>1167.4000244141</ele>
        <time>2020-08-13T15:23:25.000Z</time>
      </trkpt>
      <trkpt lat="44.16716" lon="6.75228">
        <ele>1166.5999755859</ele>
        <time>2020-08-13T15:23:28.000Z</time>
      </trkpt>
      <trkpt lat="44.16707" lon="6.75236">
        <ele>1166.4000244141</ele>
        <time>2020-08-13T15:23:29.000Z</time>
      </trkpt>
      <trkpt lat="44.16677" lon="6.7526">
        <ele>1165</ele>
        <time>2020-08-13T15:23:32.000Z</time>
      </trkpt>
      <trkpt lat="44.16667" lon="6.75267">
        <ele>1164.1999511719</ele>
        <time>2020-08-13T15:23:33.000Z</time>
      </trkpt>
      <trkpt lat="44.16656" lon="6.75273">
        <ele>1163.4000244141</ele>
        <time>2020-08-13T15:23:34.000Z</time>
      </trkpt>
      <trkpt lat="44.16637" lon="6.75286">
        <ele>1162.1999511719</ele>
        <time>2020-08-13T15:23:36.000Z</time>
      </trkpt>
      <trkpt lat="44.16617" lon="6.75301">
        <ele>1161</ele>
        <time>2020-08-13T15:23:38.000Z</time>
      </trkpt>
      <trkpt lat="44.16597" lon="6.75317">
        <ele>1160</ele>
        <time>2020-08-13T15:23:40.000Z</time>
      </trkpt>
      <trkpt lat="44.16587" lon="6.75323">
        <ele>1159.5999755859</ele>
        <time>2020-08-13T15:23:41.000Z</time>
      </trkpt>
      <trkpt lat="44.16576" lon="6.75328">
        <ele>1159.1999511719</ele>
        <time>2020-08-13T15:23:42.000Z</time>
      </trkpt>
      <trkpt lat="44.16565" lon="6.75332">
        <ele>1158.8000488281</ele>
        <time>2020-08-13T15:23:43.000Z</time>
      </trkpt>
      <trkpt lat="44.16554" lon="6.75334">
        <ele>1158.1999511719</ele>
        <time>2020-08-13T15:23:44.000Z</time>
      </trkpt>
      <trkpt lat="44.16533" lon="6.75339">
        <ele>1157</ele>
        <time>2020-08-13T15:23:46.000Z</time>
      </trkpt>
      <trkpt lat="44.1651" lon="6.75346">
        <ele>1155.5999755859</ele>
        <time>2020-08-13T15:23:48.000Z</time>
      </trkpt>
      <trkpt lat="44.16499" lon="6.75349">
        <ele>1155.1999511719</ele>
        <time>2020-08-13T15:23:49.000Z</time>
      </trkpt>
      <trkpt lat="44.16488" lon="6.75353">
        <ele>1154.4000244141</ele>
        <time>2020-08-13T15:23:50.000Z</time>
      </trkpt>
      <trkpt lat="44.16456" lon="6.75365">
        <ele>1153</ele>
        <time>2020-08-13T15:23:53.000Z</time>
      </trkpt>
      <trkpt lat="44.16424" lon="6.75375">
        <ele>1151.5999755859</ele>
        <time>2020-08-13T15:23:56.000Z</time>
      </trkpt>
      <trkpt lat="44.16403" lon="6.75382">
        <ele>1150.4000244141</ele>
        <time>2020-08-13T15:23:58.000Z</time>
      </trkpt>
      <trkpt lat="44.16374" lon="6.75397">
        <ele>1149</ele>
        <time>2020-08-13T15:24:01.000Z</time>
      </trkpt>
      <trkpt lat="44.16363" lon="6.75401">
        <ele>1148.8000488281</ele>
        <time>2020-08-13T15:24:02.000Z</time>
      </trkpt>
      <trkpt lat="44.16337" lon="6.75392">
        <ele>1148.1999511719</ele>
        <time>2020-08-13T15:24:05.000Z</time>
      </trkpt>
      <trkpt lat="44.16324" lon="6.7537">
        <ele>1147.4000244141</ele>
        <time>2020-08-13T15:24:07.000Z</time>
      </trkpt>
      <trkpt lat="44.16318" lon="6.7536">
        <ele>1146.8000488281</ele>
        <time>2020-08-13T15:24:08.000Z</time>
      </trkpt>
      <trkpt lat="44.1631" lon="6.75352">
        <ele>1146.1999511719</ele>
        <time>2020-08-13T15:24:09.000Z</time>
      </trkpt>
      <trkpt lat="44.16294" lon="6.75345">
        <ele>1144.8000488281</ele>
        <time>2020-08-13T15:24:11.000Z</time>
      </trkpt>
      <trkpt lat="44.16277" lon="6.75352">
        <ele>1144</ele>
        <time>2020-08-13T15:24:13.000Z</time>
      </trkpt>
      <trkpt lat="44.16266" lon="6.75371">
        <ele>1143.8000488281</ele>
        <time>2020-08-13T15:24:15.000Z</time>
      </trkpt>
      <trkpt lat="44.16263" lon="6.75381">
        <ele>1143.5999755859</ele>
        <time>2020-08-13T15:24:16.000Z</time>
      </trkpt>
      <trkpt lat="44.16263" lon="6.75394">
        <ele>1143.8000488281</ele>
        <time>2020-08-13T15:24:17.000Z</time>
      </trkpt>
      <trkpt lat="44.16268" lon="6.75431">
        <ele>1143.4000244141</ele>
        <time>2020-08-13T15:24:20.000Z</time>
      </trkpt>
      <trkpt lat="44.1627" lon="6.75443">
        <ele>1143.4000244141</ele>
        <time>2020-08-13T15:24:21.000Z</time>
      </trkpt>
      <trkpt lat="44.16275" lon="6.75482">
        <ele>1142.5999755859</ele>
        <time>2020-08-13T15:24:24.000Z</time>
      </trkpt>
      <trkpt lat="44.16275" lon="6.75506">
        <ele>1141.8000488281</ele>
        <time>2020-08-13T15:24:26.000Z</time>
      </trkpt>
      <trkpt lat="44.16272" lon="6.75518">
        <ele>1141.5999755859</ele>
        <time>2020-08-13T15:24:27.000Z</time>
      </trkpt>
      <trkpt lat="44.16268" lon="6.75529">
        <ele>1141.4000244141</ele>
        <time>2020-08-13T15:24:28.000Z</time>
      </trkpt>
      <trkpt lat="44.16254" lon="6.75546">
        <ele>1140.5999755859</ele>
        <time>2020-08-13T15:24:30.000Z</time>
      </trkpt>
      <trkpt lat="44.16246" lon="6.75552">
        <ele>1140.4000244141</ele>
        <time>2020-08-13T15:24:31.000Z</time>
      </trkpt>
      <trkpt lat="44.16227" lon="6.7556">
        <ele>1139.1999511719</ele>
        <time>2020-08-13T15:24:33.000Z</time>
      </trkpt>
      <trkpt lat="44.16217" lon="6.75564">
        <ele>1138.5999755859</ele>
        <time>2020-08-13T15:24:34.000Z</time>
      </trkpt>
      <trkpt lat="44.16198" lon="6.75572">
        <ele>1137.8000488281</ele>
        <time>2020-08-13T15:24:36.000Z</time>
      </trkpt>
      <trkpt lat="44.16168" lon="6.75584">
        <ele>1136.5999755859</ele>
        <time>2020-08-13T15:24:39.000Z</time>
      </trkpt>
      <trkpt lat="44.16159" lon="6.7559">
        <ele>1136.1999511719</ele>
        <time>2020-08-13T15:24:40.000Z</time>
      </trkpt>
      <trkpt lat="44.1615" lon="6.75596">
        <ele>1135.8000488281</ele>
        <time>2020-08-13T15:24:41.000Z</time>
      </trkpt>
      <trkpt lat="44.16141" lon="6.75604">
        <ele>1135.4000244141</ele>
        <time>2020-08-13T15:24:42.000Z</time>
      </trkpt>
      <trkpt lat="44.16123" lon="6.75619">
        <ele>1134.5999755859</ele>
        <time>2020-08-13T15:24:44.000Z</time>
      </trkpt>
      <trkpt lat="44.16114" lon="6.75627">
        <ele>1134.1999511719</ele>
        <time>2020-08-13T15:24:45.000Z</time>
      </trkpt>
      <trkpt lat="44.16078" lon="6.75656">
        <ele>1133.1999511719</ele>
        <time>2020-08-13T15:24:49.000Z</time>
      </trkpt>
      <trkpt lat="44.16069" lon="6.75664">
        <ele>1132.8000488281</ele>
        <time>2020-08-13T15:24:50.000Z</time>
      </trkpt>
      <trkpt lat="44.16054" lon="6.75682">
        <ele>1131.8000488281</ele>
        <time>2020-08-13T15:24:52.000Z</time>
      </trkpt>
      <trkpt lat="44.16047" lon="6.75694">
        <ele>1131.4000244141</ele>
        <time>2020-08-13T15:24:53.000Z</time>
      </trkpt>
      <trkpt lat="44.16042" lon="6.75707">
        <ele>1130.8000488281</ele>
        <time>2020-08-13T15:24:54.000Z</time>
      </trkpt>
      <trkpt lat="44.16032" lon="6.75728">
        <ele>1129.8000488281</ele>
        <time>2020-08-13T15:24:56.000Z</time>
      </trkpt>
      <trkpt lat="44.16014" lon="6.75744">
        <ele>1129.5999755859</ele>
        <time>2020-08-13T15:24:58.000Z</time>
      </trkpt>
      <trkpt lat="44.16004" lon="6.75748">
        <ele>1129.1999511719</ele>
        <time>2020-08-13T15:24:59.000Z</time>
      </trkpt>
      <trkpt lat="44.15983" lon="6.7575">
        <ele>1128.1999511719</ele>
        <time>2020-08-13T15:25:01.000Z</time>
      </trkpt>
      <trkpt lat="44.15972" lon="6.75748">
        <ele>1127.5999755859</ele>
        <time>2020-08-13T15:25:02.000Z</time>
      </trkpt>
      <trkpt lat="44.15962" lon="6.75748">
        <ele>1127</ele>
        <time>2020-08-13T15:25:03.000Z</time>
      </trkpt>
      <trkpt lat="44.1593" lon="6.75751">
        <ele>1125.5999755859</ele>
        <time>2020-08-13T15:25:06.000Z</time>
      </trkpt>
      <trkpt lat="44.1591" lon="6.75753">
        <ele>1124.1999511719</ele>
        <time>2020-08-13T15:25:08.000Z</time>
      </trkpt>
      <trkpt lat="44.15901" lon="6.75751">
        <ele>1123.5999755859</ele>
        <time>2020-08-13T15:25:09.000Z</time>
      </trkpt>
      <trkpt lat="44.15893" lon="6.75747">
        <ele>1123.1999511719</ele>
        <time>2020-08-13T15:25:10.000Z</time>
      </trkpt>
      <trkpt lat="44.15863" lon="6.75737">
        <ele>1121.5999755859</ele>
        <time>2020-08-13T15:25:13.000Z</time>
      </trkpt>
      <trkpt lat="44.15851" lon="6.75735">
        <ele>1121.1999511719</ele>
        <time>2020-08-13T15:25:14.000Z</time>
      </trkpt>
      <trkpt lat="44.1584" lon="6.75734">
        <ele>1120.1999511719</ele>
        <time>2020-08-13T15:25:15.000Z</time>
      </trkpt>
      <trkpt lat="44.15819" lon="6.75732">
        <ele>1118.5999755859</ele>
        <time>2020-08-13T15:25:17.000Z</time>
      </trkpt>
      <trkpt lat="44.1557" lon="6.75692">
        <ele>1105.4000244141</ele>
        <time>2020-08-13T15:25:39.000Z</time>
      </trkpt>
      <trkpt lat="44.15549" lon="6.75704">
        <ele>1104.5999755859</ele>
        <time>2020-08-13T15:25:41.000Z</time>
      </trkpt>
      <trkpt lat="44.15539" lon="6.75709">
        <ele>1104</ele>
        <time>2020-08-13T15:25:42.000Z</time>
      </trkpt>
      <trkpt lat="44.15518" lon="6.75715">
        <ele>1103</ele>
        <time>2020-08-13T15:25:44.000Z</time>
      </trkpt>
      <trkpt lat="44.15507" lon="6.75713">
        <ele>1102.5999755859</ele>
        <time>2020-08-13T15:25:45.000Z</time>
      </trkpt>
      <trkpt lat="44.15479" lon="6.75699">
        <ele>1101.5999755859</ele>
        <time>2020-08-13T15:25:48.000Z</time>
      </trkpt>
      <trkpt lat="44.15468" lon="6.75693">
        <ele>1101.1999511719</ele>
        <time>2020-08-13T15:25:49.000Z</time>
      </trkpt>
      <trkpt lat="44.1542" lon="6.75673">
        <ele>1100.1999511719</ele>
        <time>2020-08-13T15:25:54.000Z</time>
      </trkpt>
      <trkpt lat="44.15411" lon="6.75669">
        <ele>1100</ele>
        <time>2020-08-13T15:25:55.000Z</time>
      </trkpt>
      <trkpt lat="44.15363" lon="6.75647">
        <ele>1098.8000488281</ele>
        <time>2020-08-13T15:26:00.000Z</time>
      </trkpt>
      <trkpt lat="44.15354" lon="6.75644">
        <ele>1098.4000244141</ele>
        <time>2020-08-13T15:26:01.000Z</time>
      </trkpt>
      <trkpt lat="44.15344" lon="6.75642">
        <ele>1098</ele>
        <time>2020-08-13T15:26:02.000Z</time>
      </trkpt>
      <trkpt lat="44.15324" lon="6.7564">
        <ele>1097.8000488281</ele>
        <time>2020-08-13T15:26:04.000Z</time>
      </trkpt>
      <trkpt lat="44.15314" lon="6.7564">
        <ele>1097.5999755859</ele>
        <time>2020-08-13T15:26:05.000Z</time>
      </trkpt>
      <trkpt lat="44.15294" lon="6.75639">
        <ele>1096.5999755859</ele>
        <time>2020-08-13T15:26:07.000Z</time>
      </trkpt>
      <trkpt lat="44.15264" lon="6.75637">
        <ele>1095.4000244141</ele>
        <time>2020-08-13T15:26:10.000Z</time>
      </trkpt>
      <trkpt lat="44.15255" lon="6.75636">
        <ele>1095.1999511719</ele>
        <time>2020-08-13T15:26:11.000Z</time>
      </trkpt>
      <trkpt lat="44.15235" lon="6.75638">
        <ele>1094.1999511719</ele>
        <time>2020-08-13T15:26:13.000Z</time>
      </trkpt>
      <trkpt lat="44.15214" lon="6.75642">
        <ele>1093.4000244141</ele>
        <time>2020-08-13T15:26:15.000Z</time>
      </trkpt>
      <trkpt lat="44.15194" lon="6.75648">
        <ele>1093.1999511719</ele>
        <time>2020-08-13T15:26:17.000Z</time>
      </trkpt>
      <trkpt lat="44.15153" lon="6.75655">
        <ele>1092.1999511719</ele>
        <time>2020-08-13T15:26:21.000Z</time>
      </trkpt>
      <trkpt lat="44.15134" lon="6.75659">
        <ele>1091</ele>
        <time>2020-08-13T15:26:23.000Z</time>
      </trkpt>
      <trkpt lat="44.15103" lon="6.75669">
        <ele>1089.5999755859</ele>
        <time>2020-08-13T15:26:26.000Z</time>
      </trkpt>
      <trkpt lat="44.15092" lon="6.7567">
        <ele>1089.4000244141</ele>
        <time>2020-08-13T15:26:27.000Z</time>
      </trkpt>
      <trkpt lat="44.15073" lon="6.75667">
        <ele>1089</ele>
        <time>2020-08-13T15:26:29.000Z</time>
      </trkpt>
      <trkpt lat="44.15064" lon="6.75658">
        <ele>1088.8000488281</ele>
        <time>2020-08-13T15:26:30.000Z</time>
      </trkpt>
      <trkpt lat="44.15056" lon="6.75651">
        <ele>1088.8000488281</ele>
        <time>2020-08-13T15:26:31.000Z</time>
      </trkpt>
      <trkpt lat="44.15048" lon="6.75644">
        <ele>1088.5999755859</ele>
        <time>2020-08-13T15:26:32.000Z</time>
      </trkpt>
      <trkpt lat="44.15039" lon="6.75639">
        <ele>1088.5999755859</ele>
        <time>2020-08-13T15:26:33.000Z</time>
      </trkpt>
      <trkpt lat="44.1502" lon="6.75637">
        <ele>1088.4000244141</ele>
        <time>2020-08-13T15:26:35.000Z</time>
      </trkpt>
      <trkpt lat="44.15" lon="6.75641">
        <ele>1088</ele>
        <time>2020-08-13T15:26:37.000Z</time>
      </trkpt>
      <trkpt lat="44.14991" lon="6.75643">
        <ele>1087.5999755859</ele>
        <time>2020-08-13T15:26:38.000Z</time>
      </trkpt>
      <trkpt lat="44.1497" lon="6.75647">
        <ele>1086.5999755859</ele>
        <time>2020-08-13T15:26:40.000Z</time>
      </trkpt>
      <trkpt lat="44.14961" lon="6.75649">
        <ele>1086</ele>
        <time>2020-08-13T15:26:41.000Z</time>
      </trkpt>
      <trkpt lat="44.14941" lon="6.75656">
        <ele>1085</ele>
        <time>2020-08-13T15:26:43.000Z</time>
      </trkpt>
      <trkpt lat="44.14931" lon="6.75661">
        <ele>1084.8000488281</ele>
        <time>2020-08-13T15:26:44.000Z</time>
      </trkpt>
      <trkpt lat="44.14922" lon="6.75666">
        <ele>1084.5999755859</ele>
        <time>2020-08-13T15:26:45.000Z</time>
      </trkpt>
      <trkpt lat="44.14874" lon="6.75695">
        <ele>1083.4000244141</ele>
        <time>2020-08-13T15:26:50.000Z</time>
      </trkpt>
      <trkpt lat="44.14855" lon="6.75706">
        <ele>1082.1999511719</ele>
        <time>2020-08-13T15:26:52.000Z</time>
      </trkpt>
      <trkpt lat="44.14834" lon="6.75715">
        <ele>1081.1999511719</ele>
        <time>2020-08-13T15:26:54.000Z</time>
      </trkpt>
      <trkpt lat="44.14803" lon="6.75727">
        <ele>1080</ele>
        <time>2020-08-13T15:26:57.000Z</time>
      </trkpt>
      <trkpt lat="44.14772" lon="6.75734">
        <ele>1079.1999511719</ele>
        <time>2020-08-13T15:27:00.000Z</time>
      </trkpt>
      <trkpt lat="44.14762" lon="6.75734">
        <ele>1078.5999755859</ele>
        <time>2020-08-13T15:27:01.000Z</time>
      </trkpt>
      <trkpt lat="44.14752" lon="6.75734">
        <ele>1078.4000244141</ele>
        <time>2020-08-13T15:27:02.000Z</time>
      </trkpt>
      <trkpt lat="44.14732" lon="6.75729">
        <ele>1078</ele>
        <time>2020-08-13T15:27:04.000Z</time>
      </trkpt>
      <trkpt lat="44.14722" lon="6.75727">
        <ele>1077.8000488281</ele>
        <time>2020-08-13T15:27:05.000Z</time>
      </trkpt>
      <trkpt lat="44.14711" lon="6.75725">
        <ele>1077.8000488281</ele>
        <time>2020-08-13T15:27:06.000Z</time>
      </trkpt>
      <trkpt lat="44.14701" lon="6.75726">
        <ele>1077.4000244141</ele>
        <time>2020-08-13T15:27:07.000Z</time>
      </trkpt>
      <trkpt lat="44.14691" lon="6.75729">
        <ele>1077.1999511719</ele>
        <time>2020-08-13T15:27:08.000Z</time>
      </trkpt>
      <trkpt lat="44.1467" lon="6.75737">
        <ele>1076.5999755859</ele>
        <time>2020-08-13T15:27:10.000Z</time>
      </trkpt>
      <trkpt lat="44.1466" lon="6.75741">
        <ele>1075.8000488281</ele>
        <time>2020-08-13T15:27:11.000Z</time>
      </trkpt>
      <trkpt lat="44.1464" lon="6.75748">
        <ele>1075</ele>
        <time>2020-08-13T15:27:13.000Z</time>
      </trkpt>
      <trkpt lat="44.14629" lon="6.75752">
        <ele>1074.5999755859</ele>
        <time>2020-08-13T15:27:14.000Z</time>
      </trkpt>
      <trkpt lat="44.14579" lon="6.75771">
        <ele>1073.4000244141</ele>
        <time>2020-08-13T15:27:19.000Z</time>
      </trkpt>
      <trkpt lat="44.14551" lon="6.75786">
        <ele>1071.8000488281</ele>
        <time>2020-08-13T15:27:22.000Z</time>
      </trkpt>
      <trkpt lat="44.14543" lon="6.75792">
        <ele>1071.5999755859</ele>
        <time>2020-08-13T15:27:23.000Z</time>
      </trkpt>
      <trkpt lat="44.14517" lon="6.75816">
        <ele>1070.1999511719</ele>
        <time>2020-08-13T15:27:26.000Z</time>
      </trkpt>
      <trkpt lat="44.1451" lon="6.75827">
        <ele>1069.8000488281</ele>
        <time>2020-08-13T15:27:27.000Z</time>
      </trkpt>
      <trkpt lat="44.14505" lon="6.75837">
        <ele>1069</ele>
        <time>2020-08-13T15:27:28.000Z</time>
      </trkpt>
      <trkpt lat="44.14486" lon="6.75873">
        <ele>1067.8000488281</ele>
        <time>2020-08-13T15:27:31.000Z</time>
      </trkpt>
      <trkpt lat="44.14451" lon="6.75926">
        <ele>1067.5999755859</ele>
        <time>2020-08-13T15:27:36.000Z</time>
      </trkpt>
      <trkpt lat="44.14428" lon="6.75957">
        <ele>1066.1999511719</ele>
        <time>2020-08-13T15:27:39.000Z</time>
      </trkpt>
      <trkpt lat="44.14413" lon="6.75976">
        <ele>1064.8000488281</ele>
        <time>2020-08-13T15:27:41.000Z</time>
      </trkpt>
      <trkpt lat="44.14397" lon="6.75994">
        <ele>1063.8000488281</ele>
        <time>2020-08-13T15:27:43.000Z</time>
      </trkpt>
      <trkpt lat="44.14388" lon="6.76003">
        <ele>1063.4000244141</ele>
        <time>2020-08-13T15:27:44.000Z</time>
      </trkpt>
      <trkpt lat="44.14356" lon="6.76036">
        <ele>1062</ele>
        <time>2020-08-13T15:27:48.000Z</time>
      </trkpt>
      <trkpt lat="44.14333" lon="6.76062">
        <ele>1061.1999511719</ele>
        <time>2020-08-13T15:27:51.000Z</time>
      </trkpt>
      <trkpt lat="44.14326" lon="6.76072">
        <ele>1061.1999511719</ele>
        <time>2020-08-13T15:27:52.000Z</time>
      </trkpt>
      <trkpt lat="44.14314" lon="6.76093">
        <ele>1060.5999755859</ele>
        <time>2020-08-13T15:27:54.000Z</time>
      </trkpt>
      <trkpt lat="44.14307" lon="6.76102">
        <ele>1060.5999755859</ele>
        <time>2020-08-13T15:27:55.000Z</time>
      </trkpt>
      <trkpt lat="44.14283" lon="6.76119">
        <ele>1059.5999755859</ele>
        <time>2020-08-13T15:27:58.000Z</time>
      </trkpt>
      <trkpt lat="44.14275" lon="6.76122">
        <ele>1059.4000244141</ele>
        <time>2020-08-13T15:27:59.000Z</time>
      </trkpt>
      <trkpt lat="44.14251" lon="6.76132">
        <ele>1058.4000244141</ele>
        <time>2020-08-13T15:28:02.000Z</time>
      </trkpt>
      <trkpt lat="44.14244" lon="6.76137">
        <ele>1058.1999511719</ele>
        <time>2020-08-13T15:28:03.000Z</time>
      </trkpt>
      <trkpt lat="44.14206" lon="6.76174">
        <ele>1058.8000488281</ele>
        <time>2020-08-13T15:28:09.000Z</time>
      </trkpt>
      <trkpt lat="44.14171" lon="6.76213">
        <ele>1058.4000244141</ele>
        <time>2020-08-13T15:28:15.000Z</time>
      </trkpt>
      <trkpt lat="44.14168" lon="6.76222">
        <ele>1058.1999511719</ele>
        <time>2020-08-13T15:28:16.000Z</time>
      </trkpt>
      <trkpt lat="44.14155" lon="6.76247">
        <ele>1057.5999755859</ele>
        <time>2020-08-13T15:28:19.000Z</time>
      </trkpt>
      <trkpt lat="44.14142" lon="6.76261">
        <ele>1057.8000488281</ele>
        <time>2020-08-13T15:28:22.000Z</time>
      </trkpt>
      <trkpt lat="44.14137" lon="6.76255">
        <ele>1058</ele>
        <time>2020-08-13T15:28:24.000Z</time>
      </trkpt>
      <trkpt lat="44.14142" lon="6.76246">
        <ele>1058.1999511719</ele>
        <time>2020-08-13T15:28:26.000Z</time>
      </trkpt>
      <trkpt lat="44.14149" lon="6.76236">
        <ele>1058.1999511719</ele>
        <time>2020-08-13T15:28:28.000Z</time>
      </trkpt>
      <trkpt lat="44.14157" lon="6.76225">
        <ele>1057.5999755859</ele>
        <time>2020-08-13T15:28:30.000Z</time>
      </trkpt>
      <trkpt lat="44.1416" lon="6.76219">
        <ele>1057.1999511719</ele>
        <time>2020-08-13T15:28:31.000Z</time>
      </trkpt>
      <trkpt lat="44.14168" lon="6.76206">
        <ele>1056.5999755859</ele>
        <time>2020-08-13T15:28:33.000Z</time>
      </trkpt>
      <trkpt lat="44.14184" lon="6.76189">
        <ele>1056.1999511719</ele>
        <time>2020-08-13T15:28:36.000Z</time>
      </trkpt>
      <trkpt lat="44.14188" lon="6.76184">
        <ele>1056</ele>
        <time>2020-08-13T15:28:37.000Z</time>
      </trkpt>
      <trkpt lat="44.14206" lon="6.76161">
        <ele>1054.5999755859</ele>
        <time>2020-08-13T15:28:41.000Z</time>
      </trkpt>
      <trkpt lat="44.14215" lon="6.76147">
        <ele>1053.8000488281</ele>
        <time>2020-08-13T15:28:43.000Z</time>
      </trkpt>
      <trkpt lat="44.1422" lon="6.7614">
        <ele>1053.4000244141</ele>
        <time>2020-08-13T15:28:44.000Z</time>
      </trkpt>
      <trkpt lat="44.14233" lon="6.7612">
        <ele>1052</ele>
        <time>2020-08-13T15:28:47.000Z</time>
      </trkpt>
      <trkpt lat="44.14239" lon="6.76106">
        <ele>1051.1999511719</ele>
        <time>2020-08-13T15:28:49.000Z</time>
      </trkpt>
      <trkpt lat="44.14241" lon="6.76098">
        <ele>1051</ele>
        <time>2020-08-13T15:28:50.000Z</time>
      </trkpt>
      <trkpt lat="44.14242" lon="6.76076">
        <ele>1050.4000244141</ele>
        <time>2020-08-13T15:28:53.000Z</time>
      </trkpt>
      <trkpt lat="44.14238" lon="6.76061">
        <ele>1049.8000488281</ele>
        <time>2020-08-13T15:28:55.000Z</time>
      </trkpt>
      <trkpt lat="44.14231" lon="6.7605">
        <ele>1049</ele>
        <time>2020-08-13T15:28:57.000Z</time>
      </trkpt>
      <trkpt lat="44.1421" lon="6.76039">
        <ele>1049.1999511719</ele>
        <time>2020-08-13T15:29:01.000Z</time>
      </trkpt>
      <trkpt lat="44.14199" lon="6.76041">
        <ele>1048.4000244141</ele>
        <time>2020-08-13T15:29:03.000Z</time>
      </trkpt>
      <trkpt lat="44.14193" lon="6.76045">
        <ele>1047.8000488281</ele>
        <time>2020-08-13T15:29:04.000Z</time>
      </trkpt>
      <trkpt lat="44.14183" lon="6.76055">
        <ele>1047.5999755859</ele>
        <time>2020-08-13T15:29:06.000Z</time>
      </trkpt>
      <trkpt lat="44.14178" lon="6.76062">
        <ele>1047.4000244141</ele>
        <time>2020-08-13T15:29:07.000Z</time>
      </trkpt>
      <trkpt lat="44.1415" lon="6.76098">
        <ele>1047.1999511719</ele>
        <time>2020-08-13T15:29:12.000Z</time>
      </trkpt>
      <trkpt lat="44.14135" lon="6.76109">
        <ele>1046.1999511719</ele>
        <time>2020-08-13T15:29:14.000Z</time>
      </trkpt>
      <trkpt lat="44.14118" lon="6.76117">
        <ele>1045</ele>
        <time>2020-08-13T15:29:16.000Z</time>
      </trkpt>
      <trkpt lat="44.14101" lon="6.76125">
        <ele>1043.5999755859</ele>
        <time>2020-08-13T15:29:18.000Z</time>
      </trkpt>
      <trkpt lat="44.14085" lon="6.76135">
        <ele>1042.4000244141</ele>
        <time>2020-08-13T15:29:20.000Z</time>
      </trkpt>
      <trkpt lat="44.14069" lon="6.7615">
        <ele>1041.4000244141</ele>
        <time>2020-08-13T15:29:22.000Z</time>
      </trkpt>
      <trkpt lat="44.14055" lon="6.76169">
        <ele>1040.1999511719</ele>
        <time>2020-08-13T15:29:24.000Z</time>
      </trkpt>
      <trkpt lat="44.14037" lon="6.76202">
        <ele>1039.8000488281</ele>
        <time>2020-08-13T15:29:27.000Z</time>
      </trkpt>
      <trkpt lat="44.14033" lon="6.76227">
        <ele>1039</ele>
        <time>2020-08-13T15:29:29.000Z</time>
      </trkpt>
      <trkpt lat="44.14033" lon="6.76238">
        <ele>1038.5999755859</ele>
        <time>2020-08-13T15:29:30.000Z</time>
      </trkpt>
      <trkpt lat="44.14035" lon="6.76254">
        <ele>1037.5999755859</ele>
        <time>2020-08-13T15:29:31.000Z</time>
      </trkpt>
      <trkpt lat="44.14036" lon="6.76267">
        <ele>1037</ele>
        <time>2020-08-13T15:29:32.000Z</time>
      </trkpt>
      <trkpt lat="44.14037" lon="6.7628">
        <ele>1036.4000244141</ele>
        <time>2020-08-13T15:29:33.000Z</time>
      </trkpt>
      <trkpt lat="44.14037" lon="6.76294">
        <ele>1035.8000488281</ele>
        <time>2020-08-13T15:29:34.000Z</time>
      </trkpt>
      <trkpt lat="44.14036" lon="6.76307">
        <ele>1035.5999755859</ele>
        <time>2020-08-13T15:29:35.000Z</time>
      </trkpt>
      <trkpt lat="44.14024" lon="6.76328">
        <ele>1035</ele>
        <time>2020-08-13T15:29:37.000Z</time>
      </trkpt>
      <trkpt lat="44.14006" lon="6.7634">
        <ele>1034</ele>
        <time>2020-08-13T15:29:39.000Z</time>
      </trkpt>
      <trkpt lat="44.13997" lon="6.76345">
        <ele>1033.4000244141</ele>
        <time>2020-08-13T15:29:40.000Z</time>
      </trkpt>
      <trkpt lat="44.13978" lon="6.76357">
        <ele>1032.5999755859</ele>
        <time>2020-08-13T15:29:42.000Z</time>
      </trkpt>
      <trkpt lat="44.13961" lon="6.7637">
        <ele>1031.4000244141</ele>
        <time>2020-08-13T15:29:44.000Z</time>
      </trkpt>
      <trkpt lat="44.13952" lon="6.76376">
        <ele>1031</ele>
        <time>2020-08-13T15:29:45.000Z</time>
      </trkpt>
      <trkpt lat="44.13936" lon="6.76391">
        <ele>1030</ele>
        <time>2020-08-13T15:29:47.000Z</time>
      </trkpt>
      <trkpt lat="44.13922" lon="6.76409">
        <ele>1030</ele>
        <time>2020-08-13T15:29:49.000Z</time>
      </trkpt>
      <trkpt lat="44.13899" lon="6.76435">
        <ele>1028.8000488281</ele>
        <time>2020-08-13T15:29:52.000Z</time>
      </trkpt>
      <trkpt lat="44.13883" lon="6.76449">
        <ele>1027.5999755859</ele>
        <time>2020-08-13T15:29:54.000Z</time>
      </trkpt>
      <trkpt lat="44.13835" lon="6.76487">
        <ele>1026.5999755859</ele>
        <time>2020-08-13T15:30:00.000Z</time>
      </trkpt>
      <trkpt lat="44.13819" lon="6.76499">
        <ele>1026.5999755859</ele>
        <time>2020-08-13T15:30:02.000Z</time>
      </trkpt>
      <trkpt lat="44.13804" lon="6.76511">
        <ele>1026.4000244141</ele>
        <time>2020-08-13T15:30:04.000Z</time>
      </trkpt>
      <trkpt lat="44.13773" lon="6.76543">
        <ele>1025.8000488281</ele>
        <time>2020-08-13T15:30:08.000Z</time>
      </trkpt>
      <trkpt lat="44.13765" lon="6.76552">
        <ele>1025.1999511719</ele>
        <time>2020-08-13T15:30:09.000Z</time>
      </trkpt>
      <trkpt lat="44.1375" lon="6.76568">
        <ele>1024.1999511719</ele>
        <time>2020-08-13T15:30:11.000Z</time>
      </trkpt>
      <trkpt lat="44.13725" lon="6.76592">
        <ele>1023.200012207</ele>
        <time>2020-08-13T15:30:14.000Z</time>
      </trkpt>
      <trkpt lat="44.13717" lon="6.76601">
        <ele>1023</ele>
        <time>2020-08-13T15:30:15.000Z</time>
      </trkpt>
      <trkpt lat="44.13697" lon="6.76629">
        <ele>1022.4000244141</ele>
        <time>2020-08-13T15:30:18.000Z</time>
      </trkpt>
      <trkpt lat="44.13691" lon="6.7664">
        <ele>1022.200012207</ele>
        <time>2020-08-13T15:30:19.000Z</time>
      </trkpt>
      <trkpt lat="44.13686" lon="6.76651">
        <ele>1021.799987793</ele>
        <time>2020-08-13T15:30:20.000Z</time>
      </trkpt>
      <trkpt lat="44.13672" lon="6.76686">
        <ele>1020.4000244141</ele>
        <time>2020-08-13T15:30:23.000Z</time>
      </trkpt>
      <trkpt lat="44.13666" lon="6.76699">
        <ele>1020.200012207</ele>
        <time>2020-08-13T15:30:24.000Z</time>
      </trkpt>
      <trkpt lat="44.13652" lon="6.76734">
        <ele>1019.200012207</ele>
        <time>2020-08-13T15:30:27.000Z</time>
      </trkpt>
      <trkpt lat="44.13631" lon="6.76779">
        <ele>1018.200012207</ele>
        <time>2020-08-13T15:30:31.000Z</time>
      </trkpt>
      <trkpt lat="44.13619" lon="6.76798">
        <ele>1018</ele>
        <time>2020-08-13T15:30:33.000Z</time>
      </trkpt>
      <trkpt lat="44.13595" lon="6.76818">
        <ele>1017.5999755859</ele>
        <time>2020-08-13T15:30:36.000Z</time>
      </trkpt>
      <trkpt lat="44.13586" lon="6.76824">
        <ele>1017.4000244141</ele>
        <time>2020-08-13T15:30:37.000Z</time>
      </trkpt>
      <trkpt lat="44.13579" lon="6.76828">
        <ele>1017.200012207</ele>
        <time>2020-08-13T15:30:38.000Z</time>
      </trkpt>
      <trkpt lat="44.13547" lon="6.76848">
        <ele>1016.5999755859</ele>
        <time>2020-08-13T15:30:42.000Z</time>
      </trkpt>
      <trkpt lat="44.13522" lon="6.76876">
        <ele>1016.200012207</ele>
        <time>2020-08-13T15:30:46.000Z</time>
      </trkpt>
      <trkpt lat="44.13515" lon="6.76883">
        <ele>1016.200012207</ele>
        <time>2020-08-13T15:30:47.000Z</time>
      </trkpt>
      <trkpt lat="44.13475" lon="6.76917">
        <ele>1016.799987793</ele>
        <time>2020-08-13T15:30:53.000Z</time>
      </trkpt>
      <trkpt lat="44.1343" lon="6.76938">
        <ele>1016.5999755859</ele>
        <time>2020-08-13T15:30:59.000Z</time>
      </trkpt>
      <trkpt lat="44.13381" lon="6.76956">
        <ele>1016.200012207</ele>
        <time>2020-08-13T15:31:06.000Z</time>
      </trkpt>
      <trkpt lat="44.13374" lon="6.76959">
        <ele>1016.200012207</ele>
        <time>2020-08-13T15:31:07.000Z</time>
      </trkpt>
      <trkpt lat="44.13362" lon="6.76972">
        <ele>1015.5999755859</ele>
        <time>2020-08-13T15:31:09.000Z</time>
      </trkpt>
      <trkpt lat="44.13357" lon="6.7698">
        <ele>1015.200012207</ele>
        <time>2020-08-13T15:31:10.000Z</time>
      </trkpt>
      <trkpt lat="44.13347" lon="6.76997">
        <ele>1014.5999755859</ele>
        <time>2020-08-13T15:31:12.000Z</time>
      </trkpt>
      <trkpt lat="44.13343" lon="6.77005">
        <ele>1014.799987793</ele>
        <time>2020-08-13T15:31:13.000Z</time>
      </trkpt>
      <trkpt lat="44.13311" lon="6.77071">
        <ele>1013.799987793</ele>
        <time>2020-08-13T15:31:20.000Z</time>
      </trkpt>
      <trkpt lat="44.13306" lon="6.77082">
        <ele>1013.4000244141</ele>
        <time>2020-08-13T15:31:21.000Z</time>
      </trkpt>
      <trkpt lat="44.13296" lon="6.771">
        <ele>1012.5999755859</ele>
        <time>2020-08-13T15:31:23.000Z</time>
      </trkpt>
      <trkpt lat="44.13275" lon="6.77143">
        <ele>1012.4000244141</ele>
        <time>2020-08-13T15:31:27.000Z</time>
      </trkpt>
      <trkpt lat="44.13261" lon="6.77177">
        <ele>1011.4000244141</ele>
        <time>2020-08-13T15:31:30.000Z</time>
      </trkpt>
      <trkpt lat="44.13254" lon="6.772">
        <ele>1010</ele>
        <time>2020-08-13T15:31:32.000Z</time>
      </trkpt>
      <trkpt lat="44.13251" lon="6.77212">
        <ele>1009.799987793</ele>
        <time>2020-08-13T15:31:33.000Z</time>
      </trkpt>
      <trkpt lat="44.13238" lon="6.77246">
        <ele>1009.799987793</ele>
        <time>2020-08-13T15:31:36.000Z</time>
      </trkpt>
      <trkpt lat="44.13228" lon="6.77265">
        <ele>1009.799987793</ele>
        <time>2020-08-13T15:31:38.000Z</time>
      </trkpt>
      <trkpt lat="44.1321" lon="6.77298">
        <ele>1008.799987793</ele>
        <time>2020-08-13T15:31:41.000Z</time>
      </trkpt>
      <trkpt lat="44.13192" lon="6.77331">
        <ele>1007.5999755859</ele>
        <time>2020-08-13T15:31:44.000Z</time>
      </trkpt>
      <trkpt lat="44.1318" lon="6.77353">
        <ele>1007</ele>
        <time>2020-08-13T15:31:46.000Z</time>
      </trkpt>
      <trkpt lat="44.13174" lon="6.77363">
        <ele>1006.4000244141</ele>
        <time>2020-08-13T15:31:47.000Z</time>
      </trkpt>
      <trkpt lat="44.13167" lon="6.77373">
        <ele>1006</ele>
        <time>2020-08-13T15:31:48.000Z</time>
      </trkpt>
      <trkpt lat="44.1315" lon="6.77388">
        <ele>1005.200012207</ele>
        <time>2020-08-13T15:31:50.000Z</time>
      </trkpt>
      <trkpt lat="44.13111" lon="6.77406">
        <ele>1004</ele>
        <time>2020-08-13T15:31:54.000Z</time>
      </trkpt>
      <trkpt lat="44.13081" lon="6.77404">
        <ele>1003</ele>
        <time>2020-08-13T15:31:57.000Z</time>
      </trkpt>
      <trkpt lat="44.13071" lon="6.77402">
        <ele>1002.5999755859</ele>
        <time>2020-08-13T15:31:58.000Z</time>
      </trkpt>
      <trkpt lat="44.1305" lon="6.77399">
        <ele>1001.5999755859</ele>
        <time>2020-08-13T15:32:00.000Z</time>
      </trkpt>
      <trkpt lat="44.13019" lon="6.77395">
        <ele>1000.200012207</ele>
        <time>2020-08-13T15:32:03.000Z</time>
      </trkpt>
      <trkpt lat="44.12998" lon="6.77394">
        <ele>999.59997558594</ele>
        <time>2020-08-13T15:32:05.000Z</time>
      </trkpt>
      <trkpt lat="44.12987" lon="6.77395">
        <ele>999.20001220703</ele>
        <time>2020-08-13T15:32:06.000Z</time>
      </trkpt>
      <trkpt lat="44.12969" lon="6.77404">
        <ele>998.79998779297</ele>
        <time>2020-08-13T15:32:08.000Z</time>
      </trkpt>
      <trkpt lat="44.12953" lon="6.77425">
        <ele>997.59997558594</ele>
        <time>2020-08-13T15:32:10.000Z</time>
      </trkpt>
      <trkpt lat="44.12949" lon="6.77437">
        <ele>997.20001220703</ele>
        <time>2020-08-13T15:32:11.000Z</time>
      </trkpt>
      <trkpt lat="44.12945" lon="6.77451">
        <ele>996.59997558594</ele>
        <time>2020-08-13T15:32:12.000Z</time>
      </trkpt>
      <trkpt lat="44.12942" lon="6.77479">
        <ele>995.40002441406</ele>
        <time>2020-08-13T15:32:14.000Z</time>
      </trkpt>
      <trkpt lat="44.12938" lon="6.77507">
        <ele>995</ele>
        <time>2020-08-13T15:32:16.000Z</time>
      </trkpt>
      <trkpt lat="44.12929" lon="6.7753">
        <ele>994.79998779297</ele>
        <time>2020-08-13T15:32:18.000Z</time>
      </trkpt>
      <trkpt lat="44.12906" lon="6.77558">
        <ele>994.40002441406</ele>
        <time>2020-08-13T15:32:21.000Z</time>
      </trkpt>
      <trkpt lat="44.12874" lon="6.77605">
        <ele>993.40002441406</ele>
        <time>2020-08-13T15:32:26.000Z</time>
      </trkpt>
      <trkpt lat="44.12869" lon="6.77615">
        <ele>993.40002441406</ele>
        <time>2020-08-13T15:32:27.000Z</time>
      </trkpt>
      <trkpt lat="44.12836" lon="6.7768">
        <ele>993</ele>
        <time>2020-08-13T15:32:33.000Z</time>
      </trkpt>
      <trkpt lat="44.12829" lon="6.77691">
        <ele>993</ele>
        <time>2020-08-13T15:32:34.000Z</time>
      </trkpt>
      <trkpt lat="44.12815" lon="6.77709">
        <ele>992</ele>
        <time>2020-08-13T15:32:36.000Z</time>
      </trkpt>
      <trkpt lat="44.12798" lon="6.77723">
        <ele>991</ele>
        <time>2020-08-13T15:32:38.000Z</time>
      </trkpt>
      <trkpt lat="44.1279" lon="6.77731">
        <ele>990.59997558594</ele>
        <time>2020-08-13T15:32:39.000Z</time>
      </trkpt>
      <trkpt lat="44.12783" lon="6.77741">
        <ele>990.20001220703</ele>
        <time>2020-08-13T15:32:40.000Z</time>
      </trkpt>
      <trkpt lat="44.12762" lon="6.77785">
        <ele>989.79998779297</ele>
        <time>2020-08-13T15:32:44.000Z</time>
      </trkpt>
      <trkpt lat="44.12756" lon="6.77795">
        <ele>989.59997558594</ele>
        <time>2020-08-13T15:32:45.000Z</time>
      </trkpt>
      <trkpt lat="44.12734" lon="6.77838">
        <ele>988.59997558594</ele>
        <time>2020-08-13T15:32:49.000Z</time>
      </trkpt>
      <trkpt lat="44.12731" lon="6.7785">
        <ele>988.20001220703</ele>
        <time>2020-08-13T15:32:50.000Z</time>
      </trkpt>
      <trkpt lat="44.12727" lon="6.77875">
        <ele>987.59997558594</ele>
        <time>2020-08-13T15:32:52.000Z</time>
      </trkpt>
      <trkpt lat="44.12726" lon="6.77887">
        <ele>987.40002441406</ele>
        <time>2020-08-13T15:32:53.000Z</time>
      </trkpt>
      <trkpt lat="44.1272" lon="6.77937">
        <ele>986.20001220703</ele>
        <time>2020-08-13T15:32:57.000Z</time>
      </trkpt>
      <trkpt lat="44.12718" lon="6.7796">
        <ele>985.59997558594</ele>
        <time>2020-08-13T15:32:59.000Z</time>
      </trkpt>
      <trkpt lat="44.12706" lon="6.78044">
        <ele>985.59997558594</ele>
        <time>2020-08-13T15:33:06.000Z</time>
      </trkpt>
      <trkpt lat="44.12703" lon="6.78055">
        <ele>985.40002441406</ele>
        <time>2020-08-13T15:33:07.000Z</time>
      </trkpt>
      <trkpt lat="44.12698" lon="6.78065">
        <ele>985</ele>
        <time>2020-08-13T15:33:08.000Z</time>
      </trkpt>
      <trkpt lat="44.12692" lon="6.78076">
        <ele>985</ele>
        <time>2020-08-13T15:33:09.000Z</time>
      </trkpt>
      <trkpt lat="44.12674" lon="6.78105">
        <ele>983.79998779297</ele>
        <time>2020-08-13T15:33:12.000Z</time>
      </trkpt>
      <trkpt lat="44.1267" lon="6.78116">
        <ele>983.40002441406</ele>
        <time>2020-08-13T15:33:13.000Z</time>
      </trkpt>
      <trkpt lat="44.12669" lon="6.78142">
        <ele>982.59997558594</ele>
        <time>2020-08-13T15:33:15.000Z</time>
      </trkpt>
      <trkpt lat="44.12671" lon="6.78155">
        <ele>982.20001220703</ele>
        <time>2020-08-13T15:33:16.000Z</time>
      </trkpt>
      <trkpt lat="44.12673" lon="6.78167">
        <ele>981.79998779297</ele>
        <time>2020-08-13T15:33:17.000Z</time>
      </trkpt>
      <trkpt lat="44.12675" lon="6.7818">
        <ele>981.40002441406</ele>
        <time>2020-08-13T15:33:18.000Z</time>
      </trkpt>
      <trkpt lat="44.12671" lon="6.78206">
        <ele>980.79998779297</ele>
        <time>2020-08-13T15:33:20.000Z</time>
      </trkpt>
      <trkpt lat="44.12665" lon="6.78217">
        <ele>980.40002441406</ele>
        <time>2020-08-13T15:33:21.000Z</time>
      </trkpt>
      <trkpt lat="44.12657" lon="6.78224">
        <ele>980</ele>
        <time>2020-08-13T15:33:22.000Z</time>
      </trkpt>
      <trkpt lat="44.12638" lon="6.78231">
        <ele>979</ele>
        <time>2020-08-13T15:33:24.000Z</time>
      </trkpt>
      <trkpt lat="44.12628" lon="6.78232">
        <ele>978.59997558594</ele>
        <time>2020-08-13T15:33:25.000Z</time>
      </trkpt>
      <trkpt lat="44.12619" lon="6.78235">
        <ele>978</ele>
        <time>2020-08-13T15:33:26.000Z</time>
      </trkpt>
      <trkpt lat="44.12603" lon="6.78248">
        <ele>977</ele>
        <time>2020-08-13T15:33:28.000Z</time>
      </trkpt>
      <trkpt lat="44.12596" lon="6.78257">
        <ele>976.59997558594</ele>
        <time>2020-08-13T15:33:29.000Z</time>
      </trkpt>
      <trkpt lat="44.12585" lon="6.78278">
        <ele>976</ele>
        <time>2020-08-13T15:33:31.000Z</time>
      </trkpt>
      <trkpt lat="44.12581" lon="6.7829">
        <ele>975.59997558594</ele>
        <time>2020-08-13T15:33:32.000Z</time>
      </trkpt>
      <trkpt lat="44.12571" lon="6.78311">
        <ele>975.40002441406</ele>
        <time>2020-08-13T15:33:34.000Z</time>
      </trkpt>
      <trkpt lat="44.12547" lon="6.78333">
        <ele>975.40002441406</ele>
        <time>2020-08-13T15:33:37.000Z</time>
      </trkpt>
      <trkpt lat="44.12533" lon="6.78348">
        <ele>975.20001220703</ele>
        <time>2020-08-13T15:33:39.000Z</time>
      </trkpt>
      <trkpt lat="44.12528" lon="6.78357">
        <ele>975.20001220703</ele>
        <time>2020-08-13T15:33:40.000Z</time>
      </trkpt>
      <trkpt lat="44.12519" lon="6.78379">
        <ele>974.40002441406</ele>
        <time>2020-08-13T15:33:42.000Z</time>
      </trkpt>
      <trkpt lat="44.12512" lon="6.78403">
        <ele>973.40002441406</ele>
        <time>2020-08-13T15:33:44.000Z</time>
      </trkpt>
      <trkpt lat="44.12504" lon="6.78425">
        <ele>972.79998779297</ele>
        <time>2020-08-13T15:33:46.000Z</time>
      </trkpt>
      <trkpt lat="44.1249" lon="6.78442">
        <ele>972.79998779297</ele>
        <time>2020-08-13T15:33:48.000Z</time>
      </trkpt>
      <trkpt lat="44.12462" lon="6.78454">
        <ele>972.20001220703</ele>
        <time>2020-08-13T15:33:51.000Z</time>
      </trkpt>
      <trkpt lat="44.12435" lon="6.78467">
        <ele>971</ele>
        <time>2020-08-13T15:33:54.000Z</time>
      </trkpt>
      <trkpt lat="44.12427" lon="6.78475">
        <ele>970.79998779297</ele>
        <time>2020-08-13T15:33:55.000Z</time>
      </trkpt>
      <trkpt lat="44.12413" lon="6.78495">
        <ele>970</ele>
        <time>2020-08-13T15:33:57.000Z</time>
      </trkpt>
      <trkpt lat="44.12408" lon="6.78504">
        <ele>969.59997558594</ele>
        <time>2020-08-13T15:33:58.000Z</time>
      </trkpt>
      <trkpt lat="44.12395" lon="6.78525">
        <ele>968.79998779297</ele>
        <time>2020-08-13T15:34:00.000Z</time>
      </trkpt>
      <trkpt lat="44.1238" lon="6.78556">
        <ele>967.59997558594</ele>
        <time>2020-08-13T15:34:03.000Z</time>
      </trkpt>
      <trkpt lat="44.12377" lon="6.78569">
        <ele>967.40002441406</ele>
        <time>2020-08-13T15:34:04.000Z</time>
      </trkpt>
      <trkpt lat="44.12375" lon="6.78619">
        <ele>966.40002441406</ele>
        <time>2020-08-13T15:34:08.000Z</time>
      </trkpt>
      <trkpt lat="44.12369" lon="6.78678">
        <ele>965.59997558594</ele>
        <time>2020-08-13T15:34:13.000Z</time>
      </trkpt>
      <trkpt lat="44.12362" lon="6.78711">
        <ele>966</ele>
        <time>2020-08-13T15:34:16.000Z</time>
      </trkpt>
      <trkpt lat="44.12358" lon="6.7872">
        <ele>966.20001220703</ele>
        <time>2020-08-13T15:34:17.000Z</time>
      </trkpt>
      <trkpt lat="44.12339" lon="6.78737">
        <ele>966.79998779297</ele>
        <time>2020-08-13T15:34:20.000Z</time>
      </trkpt>
      <trkpt lat="44.12332" lon="6.78741">
        <ele>966.59997558594</ele>
        <time>2020-08-13T15:34:21.000Z</time>
      </trkpt>
      <trkpt lat="44.12303" lon="6.78753">
        <ele>967</ele>
        <time>2020-08-13T15:34:25.000Z</time>
      </trkpt>
      <trkpt lat="44.12297" lon="6.78757">
        <ele>967.20001220703</ele>
        <time>2020-08-13T15:34:26.000Z</time>
      </trkpt>
      <trkpt lat="44.12282" lon="6.78777">
        <ele>966.40002441406</ele>
        <time>2020-08-13T15:34:29.000Z</time>
      </trkpt>
      <trkpt lat="44.12277" lon="6.78805">
        <ele>966.20001220703</ele>
        <time>2020-08-13T15:34:32.000Z</time>
      </trkpt>
      <trkpt lat="44.12276" lon="6.78824">
        <ele>966.40002441406</ele>
        <time>2020-08-13T15:34:34.000Z</time>
      </trkpt>
      <trkpt lat="44.12278" lon="6.78853">
        <ele>966.40002441406</ele>
        <time>2020-08-13T15:34:37.000Z</time>
      </trkpt>
      <trkpt lat="44.12287" lon="6.78888">
        <ele>966.59997558594</ele>
        <time>2020-08-13T15:34:41.000Z</time>
      </trkpt>
      <trkpt lat="44.12297" lon="6.78915">
        <ele>966.40002441406</ele>
        <time>2020-08-13T15:34:44.000Z</time>
      </trkpt>
      <trkpt lat="44.12299" lon="6.78935">
        <ele>966.40002441406</ele>
        <time>2020-08-13T15:34:46.000Z</time>
      </trkpt>
      <trkpt lat="44.12291" lon="6.78963">
        <ele>966.40002441406</ele>
        <time>2020-08-13T15:34:49.000Z</time>
      </trkpt>
      <trkpt lat="44.12287" lon="6.78972">
        <ele>966.59997558594</ele>
        <time>2020-08-13T15:34:50.000Z</time>
      </trkpt>
      <trkpt lat="44.12265" lon="6.79024">
        <ele>966.20001220703</ele>
        <time>2020-08-13T15:34:56.000Z</time>
      </trkpt>
      <trkpt lat="44.12259" lon="6.79062">
        <ele>965.20001220703</ele>
        <time>2020-08-13T15:35:00.000Z</time>
      </trkpt>
      <trkpt lat="44.12258" lon="6.79072">
        <ele>965</ele>
        <time>2020-08-13T15:35:01.000Z</time>
      </trkpt>
      <trkpt lat="44.1225" lon="6.7912">
        <ele>965.79998779297</ele>
        <time>2020-08-13T15:35:06.000Z</time>
      </trkpt>
      <trkpt lat="44.12246" lon="6.79129">
        <ele>966.20001220703</ele>
        <time>2020-08-13T15:35:07.000Z</time>
      </trkpt>
      <trkpt lat="44.1223" lon="6.79148">
        <ele>966</ele>
        <time>2020-08-13T15:35:10.000Z</time>
      </trkpt>
      <trkpt lat="44.12225" lon="6.79155">
        <ele>965.59997558594</ele>
        <time>2020-08-13T15:35:11.000Z</time>
      </trkpt>
      <trkpt lat="44.1222" lon="6.79163">
        <ele>965.59997558594</ele>
        <time>2020-08-13T15:35:12.000Z</time>
      </trkpt>
      <trkpt lat="44.12212" lon="6.79188">
        <ele>966.20001220703</ele>
        <time>2020-08-13T15:35:15.000Z</time>
      </trkpt>
      <trkpt lat="44.1221" lon="6.79216">
        <ele>966.20001220703</ele>
        <time>2020-08-13T15:35:18.000Z</time>
      </trkpt>
      <trkpt lat="44.12211" lon="6.79226">
        <ele>966.40002441406</ele>
        <time>2020-08-13T15:35:19.000Z</time>
      </trkpt>
      <trkpt lat="44.12211" lon="6.79256">
        <ele>966.79998779297</ele>
        <time>2020-08-13T15:35:22.000Z</time>
      </trkpt>
      <trkpt lat="44.12206" lon="6.79274">
        <ele>966.59997558594</ele>
        <time>2020-08-13T15:35:24.000Z</time>
      </trkpt>
      <trkpt lat="44.1219" lon="6.79295">
        <ele>965.59997558594</ele>
        <time>2020-08-13T15:35:27.000Z</time>
      </trkpt>
      <trkpt lat="44.12152" lon="6.79341">
        <ele>966</ele>
        <time>2020-08-13T15:35:34.000Z</time>
      </trkpt>
      <trkpt lat="44.12115" lon="6.79401">
        <ele>965.20001220703</ele>
        <time>2020-08-13T15:35:42.000Z</time>
      </trkpt>
      <trkpt lat="44.1211" lon="6.79408">
        <ele>965.59997558594</ele>
        <time>2020-08-13T15:35:43.000Z</time>
      </trkpt>
      <trkpt lat="44.12084" lon="6.79454">
        <ele>965.20001220703</ele>
        <time>2020-08-13T15:35:49.000Z</time>
      </trkpt>
      <trkpt lat="44.12075" lon="6.79469">
        <ele>965.20001220703</ele>
        <time>2020-08-13T15:35:51.000Z</time>
      </trkpt>
      <trkpt lat="44.1207" lon="6.79476">
        <ele>964.79998779297</ele>
        <time>2020-08-13T15:35:52.000Z</time>
      </trkpt>
      <trkpt lat="44.12039" lon="6.79515">
        <ele>964.59997558594</ele>
        <time>2020-08-13T15:35:58.000Z</time>
      </trkpt>
      <trkpt lat="44.12011" lon="6.7956">
        <ele>963.79998779297</ele>
        <time>2020-08-13T15:36:04.000Z</time>
      </trkpt>
      <trkpt lat="44.11979" lon="6.79614">
        <ele>963.59997558594</ele>
        <time>2020-08-13T15:36:11.000Z</time>
      </trkpt>
      <trkpt lat="44.11962" lon="6.79635">
        <ele>962.59997558594</ele>
        <time>2020-08-13T15:36:14.000Z</time>
      </trkpt>
      <trkpt lat="44.11951" lon="6.79649">
        <ele>961.40002441406</ele>
        <time>2020-08-13T15:36:16.000Z</time>
      </trkpt>
      <trkpt lat="44.11933" lon="6.79673">
        <ele>960.59997558594</ele>
        <time>2020-08-13T15:36:19.000Z</time>
      </trkpt>
      <trkpt lat="44.11927" lon="6.7968">
        <ele>960.20001220703</ele>
        <time>2020-08-13T15:36:20.000Z</time>
      </trkpt>
      <trkpt lat="44.11902" lon="6.79711">
        <ele>958.59997558594</ele>
        <time>2020-08-13T15:36:24.000Z</time>
      </trkpt>
      <trkpt lat="44.11889" lon="6.79727">
        <ele>957.79998779297</ele>
        <time>2020-08-13T15:36:26.000Z</time>
      </trkpt>
      <trkpt lat="44.11882" lon="6.79734">
        <ele>957.59997558594</ele>
        <time>2020-08-13T15:36:27.000Z</time>
      </trkpt>
      <trkpt lat="44.1186" lon="6.79767">
        <ele>957.40002441406</ele>
        <time>2020-08-13T15:36:31.000Z</time>
      </trkpt>
      <trkpt lat="44.11835" lon="6.79826">
        <ele>957.20001220703</ele>
        <time>2020-08-13T15:36:37.000Z</time>
      </trkpt>
      <trkpt lat="44.11828" lon="6.79848">
        <ele>956.40002441406</ele>
        <time>2020-08-13T15:36:39.000Z</time>
      </trkpt>
      <trkpt lat="44.11821" lon="6.79872">
        <ele>955.20001220703</ele>
        <time>2020-08-13T15:36:41.000Z</time>
      </trkpt>
      <trkpt lat="44.11818" lon="6.79886">
        <ele>954.40002441406</ele>
        <time>2020-08-13T15:36:42.000Z</time>
      </trkpt>
      <trkpt lat="44.11816" lon="6.79898">
        <ele>953.40002441406</ele>
        <time>2020-08-13T15:36:43.000Z</time>
      </trkpt>
      <trkpt lat="44.11813" lon="6.79926">
        <ele>952.20001220703</ele>
        <time>2020-08-13T15:36:45.000Z</time>
      </trkpt>
      <trkpt lat="44.1181" lon="6.79953">
        <ele>950.59997558594</ele>
        <time>2020-08-13T15:36:47.000Z</time>
      </trkpt>
      <trkpt lat="44.11808" lon="6.79981">
        <ele>949.20001220703</ele>
        <time>2020-08-13T15:36:49.000Z</time>
      </trkpt>
      <trkpt lat="44.11808" lon="6.80009">
        <ele>948</ele>
        <time>2020-08-13T15:36:51.000Z</time>
      </trkpt>
      <trkpt lat="44.1181" lon="6.80021">
        <ele>947.40002441406</ele>
        <time>2020-08-13T15:36:52.000Z</time>
      </trkpt>
      <trkpt lat="44.1182" lon="6.8006">
        <ele>947</ele>
        <time>2020-08-13T15:36:55.000Z</time>
      </trkpt>
      <trkpt lat="44.11824" lon="6.80072">
        <ele>946.79998779297</ele>
        <time>2020-08-13T15:36:56.000Z</time>
      </trkpt>
      <trkpt lat="44.11826" lon="6.80086">
        <ele>946.59997558594</ele>
        <time>2020-08-13T15:36:57.000Z</time>
      </trkpt>
      <trkpt lat="44.11826" lon="6.80098">
        <ele>946.40002441406</ele>
        <time>2020-08-13T15:36:58.000Z</time>
      </trkpt>
      <trkpt lat="44.11818" lon="6.80124">
        <ele>945</ele>
        <time>2020-08-13T15:37:00.000Z</time>
      </trkpt>
      <trkpt lat="44.11807" lon="6.80146">
        <ele>943.79998779297</ele>
        <time>2020-08-13T15:37:02.000Z</time>
      </trkpt>
      <trkpt lat="44.11795" lon="6.80168">
        <ele>942.20001220703</ele>
        <time>2020-08-13T15:37:04.000Z</time>
      </trkpt>
      <trkpt lat="44.11791" lon="6.8018">
        <ele>941.40002441406</ele>
        <time>2020-08-13T15:37:05.000Z</time>
      </trkpt>
      <trkpt lat="44.11786" lon="6.80193">
        <ele>940.40002441406</ele>
        <time>2020-08-13T15:37:06.000Z</time>
      </trkpt>
      <trkpt lat="44.11782" lon="6.80206">
        <ele>939.59997558594</ele>
        <time>2020-08-13T15:37:07.000Z</time>
      </trkpt>
      <trkpt lat="44.1178" lon="6.80219">
        <ele>939</ele>
        <time>2020-08-13T15:37:08.000Z</time>
      </trkpt>
      <trkpt lat="44.11779" lon="6.80234">
        <ele>938.20001220703</ele>
        <time>2020-08-13T15:37:09.000Z</time>
      </trkpt>
      <trkpt lat="44.11782" lon="6.80247">
        <ele>937.59997558594</ele>
        <time>2020-08-13T15:37:10.000Z</time>
      </trkpt>
      <trkpt lat="44.11787" lon="6.80258">
        <ele>937.40002441406</ele>
        <time>2020-08-13T15:37:11.000Z</time>
      </trkpt>
      <trkpt lat="44.11804" lon="6.80274">
        <ele>936.59997558594</ele>
        <time>2020-08-13T15:37:13.000Z</time>
      </trkpt>
      <trkpt lat="44.11824" lon="6.80285">
        <ele>935.79998779297</ele>
        <time>2020-08-13T15:37:15.000Z</time>
      </trkpt>
      <trkpt lat="44.11833" lon="6.80292">
        <ele>935.59997558594</ele>
        <time>2020-08-13T15:37:16.000Z</time>
      </trkpt>
      <trkpt lat="44.11842" lon="6.803">
        <ele>935.20001220703</ele>
        <time>2020-08-13T15:37:17.000Z</time>
      </trkpt>
      <trkpt lat="44.1185" lon="6.80311">
        <ele>934.20001220703</ele>
        <time>2020-08-13T15:37:18.000Z</time>
      </trkpt>
      <trkpt lat="44.11856" lon="6.80324">
        <ele>933.40002441406</ele>
        <time>2020-08-13T15:37:19.000Z</time>
      </trkpt>
      <trkpt lat="44.1186" lon="6.80339">
        <ele>932.59997558594</ele>
        <time>2020-08-13T15:37:20.000Z</time>
      </trkpt>
      <trkpt lat="44.11861" lon="6.80354">
        <ele>931.20001220703</ele>
        <time>2020-08-13T15:37:21.000Z</time>
      </trkpt>
      <trkpt lat="44.11858" lon="6.80369">
        <ele>930</ele>
        <time>2020-08-13T15:37:22.000Z</time>
      </trkpt>
      <trkpt lat="44.11852" lon="6.80381">
        <ele>929.40002441406</ele>
        <time>2020-08-13T15:37:23.000Z</time>
      </trkpt>
      <trkpt lat="44.11844" lon="6.80394">
        <ele>928.59997558594</ele>
        <time>2020-08-13T15:37:24.000Z</time>
      </trkpt>
      <trkpt lat="44.11835" lon="6.80402">
        <ele>928</ele>
        <time>2020-08-13T15:37:25.000Z</time>
      </trkpt>
      <trkpt lat="44.11815" lon="6.8041">
        <ele>927.40002441406</ele>
        <time>2020-08-13T15:37:27.000Z</time>
      </trkpt>
      <trkpt lat="44.11806" lon="6.80413">
        <ele>927.59997558594</ele>
        <time>2020-08-13T15:37:28.000Z</time>
      </trkpt>
      <trkpt lat="44.11768" lon="6.80425">
        <ele>927.59997558594</ele>
        <time>2020-08-13T15:37:32.000Z</time>
      </trkpt>
      <trkpt lat="44.1176" lon="6.8043">
        <ele>927.59997558594</ele>
        <time>2020-08-13T15:37:33.000Z</time>
      </trkpt>
      <trkpt lat="44.11722" lon="6.80463">
        <ele>926.79998779297</ele>
        <time>2020-08-13T15:37:38.000Z</time>
      </trkpt>
      <trkpt lat="44.11716" lon="6.80472">
        <ele>926.79998779297</ele>
        <time>2020-08-13T15:37:39.000Z</time>
      </trkpt>
      <trkpt lat="44.11704" lon="6.8049">
        <ele>926.40002441406</ele>
        <time>2020-08-13T15:37:41.000Z</time>
      </trkpt>
      <trkpt lat="44.11688" lon="6.8052">
        <ele>926</ele>
        <time>2020-08-13T15:37:44.000Z</time>
      </trkpt>
      <trkpt lat="44.11678" lon="6.80541">
        <ele>925.40002441406</ele>
        <time>2020-08-13T15:37:46.000Z</time>
      </trkpt>
      <trkpt lat="44.11674" lon="6.80549">
        <ele>925.20001220703</ele>
        <time>2020-08-13T15:37:47.000Z</time>
      </trkpt>
      <trkpt lat="44.11654" lon="6.80575">
        <ele>925</ele>
        <time>2020-08-13T15:37:50.000Z</time>
      </trkpt>
      <trkpt lat="44.11643" lon="6.80592">
        <ele>925.20001220703</ele>
        <time>2020-08-13T15:37:52.000Z</time>
      </trkpt>
      <trkpt lat="44.11634" lon="6.80612">
        <ele>925</ele>
        <time>2020-08-13T15:37:54.000Z</time>
      </trkpt>
      <trkpt lat="44.11627" lon="6.80633">
        <ele>924.59997558594</ele>
        <time>2020-08-13T15:37:56.000Z</time>
      </trkpt>
      <trkpt lat="44.1162" lon="6.80653">
        <ele>924.20001220703</ele>
        <time>2020-08-13T15:37:58.000Z</time>
      </trkpt>
      <trkpt lat="44.11616" lon="6.80664">
        <ele>924</ele>
        <time>2020-08-13T15:37:59.000Z</time>
      </trkpt>
      <trkpt lat="44.11607" lon="6.80684">
        <ele>923.20001220703</ele>
        <time>2020-08-13T15:38:01.000Z</time>
      </trkpt>
      <trkpt lat="44.1159" lon="6.80733">
        <ele>923</ele>
        <time>2020-08-13T15:38:06.000Z</time>
      </trkpt>
      <trkpt lat="44.11575" lon="6.8081">
        <ele>922.40002441406</ele>
        <time>2020-08-13T15:38:13.000Z</time>
      </trkpt>
      <trkpt lat="44.11572" lon="6.80822">
        <ele>922.40002441406</ele>
        <time>2020-08-13T15:38:14.000Z</time>
      </trkpt>
      <trkpt lat="44.11568" lon="6.80832">
        <ele>922.40002441406</ele>
        <time>2020-08-13T15:38:15.000Z</time>
      </trkpt>
      <trkpt lat="44.11559" lon="6.80852">
        <ele>922</ele>
        <time>2020-08-13T15:38:17.000Z</time>
      </trkpt>
      <trkpt lat="44.11554" lon="6.80862">
        <ele>921.59997558594</ele>
        <time>2020-08-13T15:38:18.000Z</time>
      </trkpt>
      <trkpt lat="44.11548" lon="6.80872">
        <ele>921.20001220703</ele>
        <time>2020-08-13T15:38:19.000Z</time>
      </trkpt>
      <trkpt lat="44.11536" lon="6.8089">
        <ele>920.79998779297</ele>
        <time>2020-08-13T15:38:21.000Z</time>
      </trkpt>
      <trkpt lat="44.1152" lon="6.80918">
        <ele>920.79998779297</ele>
        <time>2020-08-13T15:38:24.000Z</time>
      </trkpt>
      <trkpt lat="44.1151" lon="6.80952">
        <ele>920.40002441406</ele>
        <time>2020-08-13T15:38:27.000Z</time>
      </trkpt>
      <trkpt lat="44.11509" lon="6.80963">
        <ele>919.79998779297</ele>
        <time>2020-08-13T15:38:28.000Z</time>
      </trkpt>
      <trkpt lat="44.11507" lon="6.80976">
        <ele>918.79998779297</ele>
        <time>2020-08-13T15:38:29.000Z</time>
      </trkpt>
      <trkpt lat="44.11504" lon="6.81014">
        <ele>917.79998779297</ele>
        <time>2020-08-13T15:38:32.000Z</time>
      </trkpt>
      <trkpt lat="44.115" lon="6.81052">
        <ele>916.59997558594</ele>
        <time>2020-08-13T15:38:35.000Z</time>
      </trkpt>
      <trkpt lat="44.11497" lon="6.81091">
        <ele>915.59997558594</ele>
        <time>2020-08-13T15:38:38.000Z</time>
      </trkpt>
      <trkpt lat="44.11494" lon="6.81117">
        <ele>915</ele>
        <time>2020-08-13T15:38:40.000Z</time>
      </trkpt>
      <trkpt lat="44.11492" lon="6.8113">
        <ele>914.59997558594</ele>
        <time>2020-08-13T15:38:41.000Z</time>
      </trkpt>
      <trkpt lat="44.1148" lon="6.8118">
        <ele>913.40002441406</ele>
        <time>2020-08-13T15:38:45.000Z</time>
      </trkpt>
      <trkpt lat="44.11477" lon="6.81192">
        <ele>913</ele>
        <time>2020-08-13T15:38:46.000Z</time>
      </trkpt>
      <trkpt lat="44.11475" lon="6.81205">
        <ele>912.40002441406</ele>
        <time>2020-08-13T15:38:47.000Z</time>
      </trkpt>
      <trkpt lat="44.11469" lon="6.81232">
        <ele>911</ele>
        <time>2020-08-13T15:38:49.000Z</time>
      </trkpt>
      <trkpt lat="44.11462" lon="6.8126">
        <ele>909.40002441406</ele>
        <time>2020-08-13T15:38:51.000Z</time>
      </trkpt>
      <trkpt lat="44.11459" lon="6.81275">
        <ele>908.79998779297</ele>
        <time>2020-08-13T15:38:52.000Z</time>
      </trkpt>
      <trkpt lat="44.11452" lon="6.81306">
        <ele>907.79998779297</ele>
        <time>2020-08-13T15:38:54.000Z</time>
      </trkpt>
      <trkpt lat="44.11445" lon="6.81337">
        <ele>906</ele>
        <time>2020-08-13T15:38:56.000Z</time>
      </trkpt>
      <trkpt lat="44.11441" lon="6.81352">
        <ele>904.79998779297</ele>
        <time>2020-08-13T15:38:57.000Z</time>
      </trkpt>
      <trkpt lat="44.11432" lon="6.81383">
        <ele>903.59997558594</ele>
        <time>2020-08-13T15:38:59.000Z</time>
      </trkpt>
      <trkpt lat="44.11418" lon="6.81429">
        <ele>902</ele>
        <time>2020-08-13T15:39:02.000Z</time>
      </trkpt>
      <trkpt lat="44.11409" lon="6.81458">
        <ele>900.59997558594</ele>
        <time>2020-08-13T15:39:04.000Z</time>
      </trkpt>
      <trkpt lat="44.11405" lon="6.81472">
        <ele>899.79998779297</ele>
        <time>2020-08-13T15:39:05.000Z</time>
      </trkpt>
      <trkpt lat="44.114" lon="6.81486">
        <ele>899</ele>
        <time>2020-08-13T15:39:06.000Z</time>
      </trkpt>
      <trkpt lat="44.1138" lon="6.81569">
        <ele>897.79998779297</ele>
        <time>2020-08-13T15:39:12.000Z</time>
      </trkpt>
      <trkpt lat="44.11362" lon="6.81643">
        <ele>897.40002441406</ele>
        <time>2020-08-13T15:39:18.000Z</time>
      </trkpt>
      <trkpt lat="44.11357" lon="6.81654">
        <ele>897.59997558594</ele>
        <time>2020-08-13T15:39:19.000Z</time>
      </trkpt>
      <trkpt lat="44.11334" lon="6.81701">
        <ele>898.40002441406</ele>
        <time>2020-08-13T15:39:24.000Z</time>
      </trkpt>
      <trkpt lat="44.11319" lon="6.81727">
        <ele>898.79998779297</ele>
        <time>2020-08-13T15:39:27.000Z</time>
      </trkpt>
      <trkpt lat="44.11294" lon="6.81768">
        <ele>898.40002441406</ele>
        <time>2020-08-13T15:39:32.000Z</time>
      </trkpt>
      <trkpt lat="44.11256" lon="6.81817">
        <ele>898.79998779297</ele>
        <time>2020-08-13T15:39:39.000Z</time>
      </trkpt>
      <trkpt lat="44.11228" lon="6.8185">
        <ele>897.59997558594</ele>
        <time>2020-08-13T15:39:44.000Z</time>
      </trkpt>
      <trkpt lat="44.11212" lon="6.81871">
        <ele>897.40002441406</ele>
        <time>2020-08-13T15:39:47.000Z</time>
      </trkpt>
      <trkpt lat="44.11189" lon="6.8191">
        <ele>896.59997558594</ele>
        <time>2020-08-13T15:39:52.000Z</time>
      </trkpt>
      <trkpt lat="44.11186" lon="6.81918">
        <ele>896.20001220703</ele>
        <time>2020-08-13T15:39:53.000Z</time>
      </trkpt>
      <trkpt lat="44.11187" lon="6.8195">
        <ele>896.20001220703</ele>
        <time>2020-08-13T15:39:56.000Z</time>
      </trkpt>
      <trkpt lat="44.11193" lon="6.81968">
        <ele>896</ele>
        <time>2020-08-13T15:39:58.000Z</time>
      </trkpt>
      <trkpt lat="44.11199" lon="6.81988">
        <ele>896.20001220703</ele>
        <time>2020-08-13T15:40:00.000Z</time>
      </trkpt>
      <trkpt lat="44.11194" lon="6.82017">
        <ele>897</ele>
        <time>2020-08-13T15:40:03.000Z</time>
      </trkpt>
      <trkpt lat="44.1118" lon="6.82033">
        <ele>897.40002441406</ele>
        <time>2020-08-13T15:40:06.000Z</time>
      </trkpt>
      <trkpt lat="44.11175" lon="6.82036">
        <ele>897.79998779297</ele>
        <time>2020-08-13T15:40:07.000Z</time>
      </trkpt>
      <trkpt lat="44.11165" lon="6.82041">
        <ele>898.40002441406</ele>
        <time>2020-08-13T15:40:09.000Z</time>
      </trkpt>
      <trkpt lat="44.1116" lon="6.82043">
        <ele>899</ele>
        <time>2020-08-13T15:40:10.000Z</time>
      </trkpt>
      <trkpt lat="44.11155" lon="6.82045">
        <ele>899.20001220703</ele>
        <time>2020-08-13T15:40:11.000Z</time>
      </trkpt>
      <trkpt lat="44.11127" lon="6.82055">
        <ele>900.20001220703</ele>
        <time>2020-08-13T15:40:17.000Z</time>
      </trkpt>
      <trkpt lat="44.11119" lon="6.8206">
        <ele>901</ele>
        <time>2020-08-13T15:40:19.000Z</time>
      </trkpt>
      <trkpt lat="44.11114" lon="6.82062">
        <ele>901.40002441406</ele>
        <time>2020-08-13T15:40:20.000Z</time>
      </trkpt>
      <trkpt lat="44.11103" lon="6.82071">
        <ele>902.59997558594</ele>
        <time>2020-08-13T15:40:23.000Z</time>
      </trkpt>
      <trkpt lat="44.11096" lon="6.82078">
        <ele>903</ele>
        <time>2020-08-13T15:40:25.000Z</time>
      </trkpt>
      <trkpt lat="44.11093" lon="6.82082">
        <ele>903.20001220703</ele>
        <time>2020-08-13T15:40:26.000Z</time>
      </trkpt>
      <trkpt lat="44.11076" lon="6.82107">
        <ele>903.59997558594</ele>
        <time>2020-08-13T15:40:32.000Z</time>
      </trkpt>
      <trkpt lat="44.11073" lon="6.82111">
        <ele>904.20001220703</ele>
        <time>2020-08-13T15:40:33.000Z</time>
      </trkpt>
      <trkpt lat="44.11071" lon="6.82115">
        <ele>904.79998779297</ele>
        <time>2020-08-13T15:40:34.000Z</time>
      </trkpt>
      <trkpt lat="44.11065" lon="6.82123">
        <ele>905.79998779297</ele>
        <time>2020-08-13T15:40:36.000Z</time>
      </trkpt>
      <trkpt lat="44.11053" lon="6.82147">
        <ele>906.59997558594</ele>
        <time>2020-08-13T15:40:41.000Z</time>
      </trkpt>
      <trkpt lat="44.11044" lon="6.82178">
        <ele>906.79998779297</ele>
        <time>2020-08-13T15:40:46.000Z</time>
      </trkpt>
      <trkpt lat="44.11043" lon="6.82184">
        <ele>907</ele>
        <time>2020-08-13T15:40:47.000Z</time>
      </trkpt>
      <trkpt lat="44.11028" lon="6.8222">
        <ele>907.59997558594</ele>
        <time>2020-08-13T15:40:53.000Z</time>
      </trkpt>
      <trkpt lat="44.11011" lon="6.82265">
        <ele>907.79998779297</ele>
        <time>2020-08-13T15:41:00.000Z</time>
      </trkpt>
      <trkpt lat="44.11008" lon="6.82271">
        <ele>908</ele>
        <time>2020-08-13T15:41:01.000Z</time>
      </trkpt>
      <trkpt lat="44.11005" lon="6.82272">
        <ele>908.20001220703</ele>
        <time>2020-08-13T15:41:02.000Z</time>
      </trkpt>
      <trkpt lat="44.10993" lon="6.8228">
        <ele>908</ele>
        <time>2020-08-13T15:41:04.000Z</time>
      </trkpt>
      <trkpt lat="44.10978" lon="6.8229">
        <ele>907.59997558594</ele>
        <time>2020-08-13T15:41:07.000Z</time>
      </trkpt>
      <trkpt lat="44.10965" lon="6.82303">
        <ele>907.59997558594</ele>
        <time>2020-08-13T15:41:10.000Z</time>
      </trkpt>
      <trkpt lat="44.10934" lon="6.82345">
        <ele>907.79998779297</ele>
        <time>2020-08-13T15:41:18.000Z</time>
      </trkpt>
      <trkpt lat="44.10924" lon="6.82366">
        <ele>907.40002441406</ele>
        <time>2020-08-13T15:41:21.000Z</time>
      </trkpt>
      <trkpt lat="44.1092" lon="6.82381">
        <ele>907.20001220703</ele>
        <time>2020-08-13T15:41:23.000Z</time>
      </trkpt>
      <trkpt lat="44.10906" lon="6.82456">
        <ele>907</ele>
        <time>2020-08-13T15:41:32.000Z</time>
      </trkpt>
      <trkpt lat="44.10905" lon="6.82506">
        <ele>907.20001220703</ele>
        <time>2020-08-13T15:41:38.000Z</time>
      </trkpt>
      <trkpt lat="44.10904" lon="6.82524">
        <ele>907</ele>
        <time>2020-08-13T15:41:40.000Z</time>
      </trkpt>
      <trkpt lat="44.10904" lon="6.82576">
        <ele>907.20001220703</ele>
        <time>2020-08-13T15:41:46.000Z</time>
      </trkpt>
      <trkpt lat="44.10912" lon="6.82627">
        <ele>907.59997558594</ele>
        <time>2020-08-13T15:41:52.000Z</time>
      </trkpt>
      <trkpt lat="44.10918" lon="6.82662">
        <ele>907</ele>
        <time>2020-08-13T15:41:56.000Z</time>
      </trkpt>
      <trkpt lat="44.10917" lon="6.82672">
        <ele>906.79998779297</ele>
        <time>2020-08-13T15:41:57.000Z</time>
      </trkpt>
      <trkpt lat="44.1091" lon="6.82698">
        <ele>907</ele>
        <time>2020-08-13T15:42:00.000Z</time>
      </trkpt>
      <trkpt lat="44.10907" lon="6.82706">
        <ele>906.79998779297</ele>
        <time>2020-08-13T15:42:01.000Z</time>
      </trkpt>
      <trkpt lat="44.10888" lon="6.82765">
        <ele>906.79998779297</ele>
        <time>2020-08-13T15:42:08.000Z</time>
      </trkpt>
      <trkpt lat="44.10884" lon="6.82784">
        <ele>906.79998779297</ele>
        <time>2020-08-13T15:42:10.000Z</time>
      </trkpt>
      <trkpt lat="44.10879" lon="6.82822">
        <ele>906</ele>
        <time>2020-08-13T15:42:14.000Z</time>
      </trkpt>
      <trkpt lat="44.10875" lon="6.82891">
        <ele>905.79998779297</ele>
        <time>2020-08-13T15:42:21.000Z</time>
      </trkpt>
      <trkpt lat="44.10874" lon="6.82911">
        <ele>905.20001220703</ele>
        <time>2020-08-13T15:42:23.000Z</time>
      </trkpt>
      <trkpt lat="44.10874" lon="6.82922">
        <ele>904.79998779297</ele>
        <time>2020-08-13T15:42:24.000Z</time>
      </trkpt>
      <trkpt lat="44.10879" lon="6.8296">
        <ele>903.59997558594</ele>
        <time>2020-08-13T15:42:28.000Z</time>
      </trkpt>
      <trkpt lat="44.10887" lon="6.83008">
        <ele>904</ele>
        <time>2020-08-13T15:42:33.000Z</time>
      </trkpt>
      <trkpt lat="44.10887" lon="6.83028">
        <ele>904.20001220703</ele>
        <time>2020-08-13T15:42:35.000Z</time>
      </trkpt>
      <trkpt lat="44.10879" lon="6.83111">
        <ele>903.59997558594</ele>
        <time>2020-08-13T15:42:43.000Z</time>
      </trkpt>
      <trkpt lat="44.10878" lon="6.83122">
        <ele>903.40002441406</ele>
        <time>2020-08-13T15:42:44.000Z</time>
      </trkpt>
      <trkpt lat="44.10881" lon="6.83154">
        <ele>902.79998779297</ele>
        <time>2020-08-13T15:42:47.000Z</time>
      </trkpt>
      <trkpt lat="44.10882" lon="6.83164">
        <ele>902.40002441406</ele>
        <time>2020-08-13T15:42:48.000Z</time>
      </trkpt>
      <trkpt lat="44.10889" lon="6.8323">
        <ele>902.79998779297</ele>
        <time>2020-08-13T15:42:55.000Z</time>
      </trkpt>
      <trkpt lat="44.10904" lon="6.83302">
        <ele>902.79998779297</ele>
        <time>2020-08-13T15:43:03.000Z</time>
      </trkpt>
      <trkpt lat="44.10923" lon="6.83348">
        <ele>901.79998779297</ele>
        <time>2020-08-13T15:43:08.000Z</time>
      </trkpt>
      <trkpt lat="44.10929" lon="6.83357">
        <ele>901.59997558594</ele>
        <time>2020-08-13T15:43:09.000Z</time>
      </trkpt>
      <trkpt lat="44.10942" lon="6.83371">
        <ele>901.20001220703</ele>
        <time>2020-08-13T15:43:11.000Z</time>
      </trkpt>
      <trkpt lat="44.1095" lon="6.83377">
        <ele>900.79998779297</ele>
        <time>2020-08-13T15:43:12.000Z</time>
      </trkpt>
      <trkpt lat="44.10957" lon="6.83383">
        <ele>900.20001220703</ele>
        <time>2020-08-13T15:43:13.000Z</time>
      </trkpt>
      <trkpt lat="44.10972" lon="6.83394">
        <ele>898.79998779297</ele>
        <time>2020-08-13T15:43:15.000Z</time>
      </trkpt>
      <trkpt lat="44.10995" lon="6.83406">
        <ele>897.79998779297</ele>
        <time>2020-08-13T15:43:18.000Z</time>
      </trkpt>
      <trkpt lat="44.1103" lon="6.83413">
        <ele>896.40002441406</ele>
        <time>2020-08-13T15:43:22.000Z</time>
      </trkpt>
      <trkpt lat="44.11065" lon="6.83419">
        <ele>895.20001220703</ele>
        <time>2020-08-13T15:43:26.000Z</time>
      </trkpt>
      <trkpt lat="44.11092" lon="6.83425">
        <ele>894.40002441406</ele>
        <time>2020-08-13T15:43:29.000Z</time>
      </trkpt>
      <trkpt lat="44.11101" lon="6.83431">
        <ele>894</ele>
        <time>2020-08-13T15:43:30.000Z</time>
      </trkpt>
      <trkpt lat="44.11116" lon="6.83444">
        <ele>893.20001220703</ele>
        <time>2020-08-13T15:43:32.000Z</time>
      </trkpt>
      <trkpt lat="44.11123" lon="6.8345">
        <ele>892.79998779297</ele>
        <time>2020-08-13T15:43:33.000Z</time>
      </trkpt>
      <trkpt lat="44.11153" lon="6.83477">
        <ele>891.40002441406</ele>
        <time>2020-08-13T15:43:37.000Z</time>
      </trkpt>
      <trkpt lat="44.11181" lon="6.83507">
        <ele>890.20001220703</ele>
        <time>2020-08-13T15:43:41.000Z</time>
      </trkpt>
      <trkpt lat="44.11219" lon="6.83555">
        <ele>889.40002441406</ele>
        <time>2020-08-13T15:43:47.000Z</time>
      </trkpt>
      <trkpt lat="44.11222" lon="6.83565">
        <ele>889.20001220703</ele>
        <time>2020-08-13T15:43:48.000Z</time>
      </trkpt>
      <trkpt lat="44.11223" lon="6.83585">
        <ele>889.59997558594</ele>
        <time>2020-08-13T15:43:50.000Z</time>
      </trkpt>
      <trkpt lat="44.11222" lon="6.83596">
        <ele>889.59997558594</ele>
        <time>2020-08-13T15:43:51.000Z</time>
      </trkpt>
      <trkpt lat="44.11218" lon="6.83642">
        <ele>890</ele>
        <time>2020-08-13T15:43:56.000Z</time>
      </trkpt>
      <trkpt lat="44.11214" lon="6.8366">
        <ele>890.40002441406</ele>
        <time>2020-08-13T15:43:58.000Z</time>
      </trkpt>
      <trkpt lat="44.11206" lon="6.83676">
        <ele>890.20001220703</ele>
        <time>2020-08-13T15:44:00.000Z</time>
      </trkpt>
      <trkpt lat="44.11185" lon="6.83686">
        <ele>889.59997558594</ele>
        <time>2020-08-13T15:44:03.000Z</time>
      </trkpt>
      <trkpt lat="44.11177" lon="6.83688">
        <ele>889.40002441406</ele>
        <time>2020-08-13T15:44:04.000Z</time>
      </trkpt>
      <trkpt lat="44.11119" lon="6.83698">
        <ele>888.79998779297</ele>
        <time>2020-08-13T15:44:11.000Z</time>
      </trkpt>
      <trkpt lat="44.11104" lon="6.83697">
        <ele>888.20001220703</ele>
        <time>2020-08-13T15:44:13.000Z</time>
      </trkpt>
      <trkpt lat="44.11074" lon="6.83702">
        <ele>887.79998779297</ele>
        <time>2020-08-13T15:44:17.000Z</time>
      </trkpt>
      <trkpt lat="44.11017" lon="6.83724">
        <ele>887.79998779297</ele>
        <time>2020-08-13T15:44:25.000Z</time>
      </trkpt>
      <trkpt lat="44.10964" lon="6.83758">
        <ele>887.59997558594</ele>
        <time>2020-08-13T15:44:33.000Z</time>
      </trkpt>
      <trkpt lat="44.10924" lon="6.8378">
        <ele>888.59997558594</ele>
        <time>2020-08-13T15:44:39.000Z</time>
      </trkpt>
      <trkpt lat="44.10917" lon="6.83782">
        <ele>888.40002441406</ele>
        <time>2020-08-13T15:44:40.000Z</time>
      </trkpt>
      <trkpt lat="44.10876" lon="6.83799">
        <ele>888.20001220703</ele>
        <time>2020-08-13T15:44:46.000Z</time>
      </trkpt>
      <trkpt lat="44.10856" lon="6.83812">
        <ele>888</ele>
        <time>2020-08-13T15:44:49.000Z</time>
      </trkpt>
      <trkpt lat="44.10838" lon="6.8383">
        <ele>888</ele>
        <time>2020-08-13T15:44:52.000Z</time>
      </trkpt>
      <trkpt lat="44.10816" lon="6.83853">
        <ele>888</ele>
        <time>2020-08-13T15:44:56.000Z</time>
      </trkpt>
      <trkpt lat="44.10812" lon="6.83861">
        <ele>887.79998779297</ele>
        <time>2020-08-13T15:44:57.000Z</time>
      </trkpt>
      <trkpt lat="44.10802" lon="6.83898">
        <ele>887.59997558594</ele>
        <time>2020-08-13T15:45:01.000Z</time>
      </trkpt>
      <trkpt lat="44.10786" lon="6.83942">
        <ele>887.79998779297</ele>
        <time>2020-08-13T15:45:06.000Z</time>
      </trkpt>
      <trkpt lat="44.10784" lon="6.83952">
        <ele>888</ele>
        <time>2020-08-13T15:45:07.000Z</time>
      </trkpt>
      <trkpt lat="44.10785" lon="6.83972">
        <ele>887.79998779297</ele>
        <time>2020-08-13T15:45:09.000Z</time>
      </trkpt>
      <trkpt lat="44.10783" lon="6.83991">
        <ele>887.59997558594</ele>
        <time>2020-08-13T15:45:11.000Z</time>
      </trkpt>
      <trkpt lat="44.10778" lon="6.84011">
        <ele>887.59997558594</ele>
        <time>2020-08-13T15:45:13.000Z</time>
      </trkpt>
      <trkpt lat="44.10771" lon="6.84029">
        <ele>887.59997558594</ele>
        <time>2020-08-13T15:45:15.000Z</time>
      </trkpt>
      <trkpt lat="44.1076" lon="6.84056">
        <ele>887</ele>
        <time>2020-08-13T15:45:18.000Z</time>
      </trkpt>
      <trkpt lat="44.10731" lon="6.84117">
        <ele>887</ele>
        <time>2020-08-13T15:45:25.000Z</time>
      </trkpt>
      <trkpt lat="44.10724" lon="6.84134">
        <ele>886.59997558594</ele>
        <time>2020-08-13T15:45:27.000Z</time>
      </trkpt>
      <trkpt lat="44.1072" lon="6.84153">
        <ele>886.59997558594</ele>
        <time>2020-08-13T15:45:29.000Z</time>
      </trkpt>
      <trkpt lat="44.10718" lon="6.84175">
        <ele>886.20001220703</ele>
        <time>2020-08-13T15:45:31.000Z</time>
      </trkpt>
      <trkpt lat="44.10716" lon="6.84195">
        <ele>885.59997558594</ele>
        <time>2020-08-13T15:45:33.000Z</time>
      </trkpt>
      <trkpt lat="44.10714" lon="6.84207">
        <ele>885.40002441406</ele>
        <time>2020-08-13T15:45:34.000Z</time>
      </trkpt>
      <trkpt lat="44.10707" lon="6.84227">
        <ele>884.59997558594</ele>
        <time>2020-08-13T15:45:36.000Z</time>
      </trkpt>
      <trkpt lat="44.10703" lon="6.84236">
        <ele>884</ele>
        <time>2020-08-13T15:45:37.000Z</time>
      </trkpt>
      <trkpt lat="44.107" lon="6.84245">
        <ele>883.59997558594</ele>
        <time>2020-08-13T15:45:38.000Z</time>
      </trkpt>
      <trkpt lat="44.10697" lon="6.84255">
        <ele>883</ele>
        <time>2020-08-13T15:45:39.000Z</time>
      </trkpt>
      <trkpt lat="44.10689" lon="6.84273">
        <ele>882.20001220703</ele>
        <time>2020-08-13T15:45:41.000Z</time>
      </trkpt>
      <trkpt lat="44.10677" lon="6.84312">
        <ele>882.40002441406</ele>
        <time>2020-08-13T15:45:45.000Z</time>
      </trkpt>
      <trkpt lat="44.10662" lon="6.84357">
        <ele>881.40002441406</ele>
        <time>2020-08-13T15:45:50.000Z</time>
      </trkpt>
      <trkpt lat="44.10662" lon="6.84367">
        <ele>881.59997558594</ele>
        <time>2020-08-13T15:45:51.000Z</time>
      </trkpt>
      <trkpt lat="44.10667" lon="6.84397">
        <ele>881.59997558594</ele>
        <time>2020-08-13T15:45:54.000Z</time>
      </trkpt>
      <trkpt lat="44.10661" lon="6.84433">
        <ele>881.59997558594</ele>
        <time>2020-08-13T15:45:58.000Z</time>
      </trkpt>
      <trkpt lat="44.10646" lon="6.84452">
        <ele>882.20001220703</ele>
        <time>2020-08-13T15:46:01.000Z</time>
      </trkpt>
      <trkpt lat="44.10642" lon="6.84479">
        <ele>882</ele>
        <time>2020-08-13T15:46:04.000Z</time>
      </trkpt>
      <trkpt lat="44.10641" lon="6.84489">
        <ele>882</ele>
        <time>2020-08-13T15:46:05.000Z</time>
      </trkpt>
      <trkpt lat="44.10639" lon="6.845">
        <ele>882</ele>
        <time>2020-08-13T15:46:06.000Z</time>
      </trkpt>
      <trkpt lat="44.10631" lon="6.84528">
        <ele>881.79998779297</ele>
        <time>2020-08-13T15:46:09.000Z</time>
      </trkpt>
      <trkpt lat="44.10618" lon="6.84564">
        <ele>881</ele>
        <time>2020-08-13T15:46:13.000Z</time>
      </trkpt>
      <trkpt lat="44.10612" lon="6.84582">
        <ele>880.79998779297</ele>
        <time>2020-08-13T15:46:15.000Z</time>
      </trkpt>
      <trkpt lat="44.10596" lon="6.84613">
        <ele>881</ele>
        <time>2020-08-13T15:46:19.000Z</time>
      </trkpt>
      <trkpt lat="44.10591" lon="6.84618">
        <ele>880.79998779297</ele>
        <time>2020-08-13T15:46:20.000Z</time>
      </trkpt>
      <trkpt lat="44.1058" lon="6.84626">
        <ele>880.40002441406</ele>
        <time>2020-08-13T15:46:22.000Z</time>
      </trkpt>
      <trkpt lat="44.1057" lon="6.84639">
        <ele>880.20001220703</ele>
        <time>2020-08-13T15:46:24.000Z</time>
      </trkpt>
      <trkpt lat="44.10559" lon="6.84651">
        <ele>880</ele>
        <time>2020-08-13T15:46:26.000Z</time>
      </trkpt>
      <trkpt lat="44.10526" lon="6.84692">
        <ele>879.20001220703</ele>
        <time>2020-08-13T15:46:32.000Z</time>
      </trkpt>
      <trkpt lat="44.10521" lon="6.847">
        <ele>878.79998779297</ele>
        <time>2020-08-13T15:46:33.000Z</time>
      </trkpt>
      <trkpt lat="44.10505" lon="6.84725">
        <ele>877.40002441406</ele>
        <time>2020-08-13T15:46:36.000Z</time>
      </trkpt>
      <trkpt lat="44.10501" lon="6.84734">
        <ele>877</ele>
        <time>2020-08-13T15:46:37.000Z</time>
      </trkpt>
      <trkpt lat="44.1049" lon="6.84751">
        <ele>876</ele>
        <time>2020-08-13T15:46:39.000Z</time>
      </trkpt>
      <trkpt lat="44.10482" lon="6.8476">
        <ele>875.59997558594</ele>
        <time>2020-08-13T15:46:40.000Z</time>
      </trkpt>
      <trkpt lat="44.10475" lon="6.84768">
        <ele>875.20001220703</ele>
        <time>2020-08-13T15:46:41.000Z</time>
      </trkpt>
      <trkpt lat="44.10461" lon="6.84785">
        <ele>874.59997558594</ele>
        <time>2020-08-13T15:46:43.000Z</time>
      </trkpt>
      <trkpt lat="44.10455" lon="6.84796">
        <ele>874</ele>
        <time>2020-08-13T15:46:44.000Z</time>
      </trkpt>
      <trkpt lat="44.1045" lon="6.84807">
        <ele>873.40002441406</ele>
        <time>2020-08-13T15:46:45.000Z</time>
      </trkpt>
      <trkpt lat="44.10437" lon="6.84825">
        <ele>872.59997558594</ele>
        <time>2020-08-13T15:46:47.000Z</time>
      </trkpt>
      <trkpt lat="44.1043" lon="6.84833">
        <ele>871.79998779297</ele>
        <time>2020-08-13T15:46:48.000Z</time>
      </trkpt>
      <trkpt lat="44.10422" lon="6.84841">
        <ele>871.40002441406</ele>
        <time>2020-08-13T15:46:49.000Z</time>
      </trkpt>
      <trkpt lat="44.10411" lon="6.84857">
        <ele>870.40002441406</ele>
        <time>2020-08-13T15:46:51.000Z</time>
      </trkpt>
      <trkpt lat="44.10402" lon="6.84877">
        <ele>869.59997558594</ele>
        <time>2020-08-13T15:46:53.000Z</time>
      </trkpt>
      <trkpt lat="44.10399" lon="6.84891">
        <ele>868.79998779297</ele>
        <time>2020-08-13T15:46:54.000Z</time>
      </trkpt>
      <trkpt lat="44.10395" lon="6.84915">
        <ele>867.59997558594</ele>
        <time>2020-08-13T15:46:56.000Z</time>
      </trkpt>
      <trkpt lat="44.1039" lon="6.84934">
        <ele>866.59997558594</ele>
        <time>2020-08-13T15:46:58.000Z</time>
      </trkpt>
      <trkpt lat="44.10378" lon="6.84946">
        <ele>866</ele>
        <time>2020-08-13T15:47:00.000Z</time>
      </trkpt>
      <trkpt lat="44.10364" lon="6.84946">
        <ele>865.59997558594</ele>
        <time>2020-08-13T15:47:02.000Z</time>
      </trkpt>
      <trkpt lat="44.1035" lon="6.84943">
        <ele>865.40002441406</ele>
        <time>2020-08-13T15:47:04.000Z</time>
      </trkpt>
      <trkpt lat="44.10327" lon="6.84939">
        <ele>864.79998779297</ele>
        <time>2020-08-13T15:47:07.000Z</time>
      </trkpt>
      <trkpt lat="44.10319" lon="6.84937">
        <ele>864.40002441406</ele>
        <time>2020-08-13T15:47:08.000Z</time>
      </trkpt>
      <trkpt lat="44.10294" lon="6.84933">
        <ele>863.20001220703</ele>
        <time>2020-08-13T15:47:11.000Z</time>
      </trkpt>
      <trkpt lat="44.10268" lon="6.84929">
        <ele>862.40002441406</ele>
        <time>2020-08-13T15:47:14.000Z</time>
      </trkpt>
      <trkpt lat="44.10259" lon="6.84927">
        <ele>862.20001220703</ele>
        <time>2020-08-13T15:47:15.000Z</time>
      </trkpt>
      <trkpt lat="44.10235" lon="6.84922">
        <ele>861</ele>
        <time>2020-08-13T15:47:18.000Z</time>
      </trkpt>
      <trkpt lat="44.10222" lon="6.84919">
        <ele>860.20001220703</ele>
        <time>2020-08-13T15:47:20.000Z</time>
      </trkpt>
      <trkpt lat="44.10207" lon="6.84914">
        <ele>859.79998779297</ele>
        <time>2020-08-13T15:47:24.000Z</time>
      </trkpt>
      <trkpt lat="44.10205" lon="6.84912">
        <ele>859.59997558594</ele>
        <time>2020-08-13T15:47:28.000Z</time>
      </trkpt>
      <trkpt lat="44.10207" lon="6.84907">
        <ele>859.59997558594</ele>
        <time>2020-08-13T15:47:33.000Z</time>
      </trkpt>
      <trkpt lat="44.10208" lon="6.84905">
        <ele>859.59997558594</ele>
        <time>2020-08-13T15:47:40.000Z</time>
      </trkpt>
      <trkpt lat="44.10209" lon="6.84903">
        <ele>859.20001220703</ele>
        <time>2020-08-13T15:48:00.000Z</time>
      </trkpt>
      <trkpt lat="44.1021" lon="6.84902">
        <ele>859.20001220703</ele>
        <time>2020-08-13T15:48:18.000Z</time>
      </trkpt>
      <trkpt lat="44.1021" lon="6.84905">
        <ele>859.40002441406</ele>
        <time>2020-08-13T15:48:31.000Z</time>
      </trkpt>
      <trkpt lat="44.1021" lon="6.84906">
        <ele>859.40002441406</ele>
        <time>2020-08-13T15:48:32.000Z</time>
      </trkpt>
      <trkpt lat="44.1021" lon="6.8491">
        <ele>859.79998779297</ele>
        <time>2020-08-13T15:48:39.000Z</time>
      </trkpt>
      <trkpt lat="44.1021" lon="6.84911">
        <ele>860</ele>
        <time>2020-08-13T15:48:48.000Z</time>
      </trkpt>
      <trkpt lat="44.1021" lon="6.84912">
        <ele>859.40002441406</ele>
        <time>2020-08-13T15:48:55.000Z</time>
      </trkpt>
      <trkpt lat="44.1021" lon="6.84914">
        <ele>859.59997558594</ele>
        <time>2020-08-13T15:49:05.000Z</time>
      </trkpt>
      <trkpt lat="44.10207" lon="6.84913">
        <ele>859.59997558594</ele>
        <time>2020-08-13T15:49:14.000Z</time>
      </trkpt>
      <trkpt lat="44.10205" lon="6.84913">
        <ele>859.59997558594</ele>
        <time>2020-08-13T15:49:16.000Z</time>
      </trkpt>
      <trkpt lat="44.10198" lon="6.84911">
        <ele>859.40002441406</ele>
        <time>2020-08-13T15:49:19.000Z</time>
      </trkpt>
      <trkpt lat="44.10179" lon="6.849">
        <ele>858.79998779297</ele>
        <time>2020-08-13T15:49:25.000Z</time>
      </trkpt>
      <trkpt lat="44.10175" lon="6.84898">
        <ele>858.59997558594</ele>
        <time>2020-08-13T15:49:26.000Z</time>
      </trkpt>
      <trkpt lat="44.10154" lon="6.84888">
        <ele>857.59997558594</ele>
        <time>2020-08-13T15:49:30.000Z</time>
      </trkpt>
      <trkpt lat="44.10149" lon="6.84885">
        <ele>857.40002441406</ele>
        <time>2020-08-13T15:49:31.000Z</time>
      </trkpt>
      <trkpt lat="44.1013" lon="6.84875">
        <ele>856.59997558594</ele>
        <time>2020-08-13T15:49:34.000Z</time>
      </trkpt>
      <trkpt lat="44.10124" lon="6.84871">
        <ele>856.20001220703</ele>
        <time>2020-08-13T15:49:35.000Z</time>
      </trkpt>
      <trkpt lat="44.10106" lon="6.84856">
        <ele>855.20001220703</ele>
        <time>2020-08-13T15:49:38.000Z</time>
      </trkpt>
      <trkpt lat="44.10095" lon="6.84847">
        <ele>854.79998779297</ele>
        <time>2020-08-13T15:49:40.000Z</time>
      </trkpt>
      <trkpt lat="44.1009" lon="6.84844">
        <ele>854.59997558594</ele>
        <time>2020-08-13T15:49:41.000Z</time>
      </trkpt>
      <trkpt lat="44.10071" lon="6.84844">
        <ele>854.59997558594</ele>
        <time>2020-08-13T15:49:45.000Z</time>
      </trkpt>
      <trkpt lat="44.10061" lon="6.84848">
        <ele>854.20001220703</ele>
        <time>2020-08-13T15:49:47.000Z</time>
      </trkpt>
      <trkpt lat="44.10055" lon="6.84851">
        <ele>854</ele>
        <time>2020-08-13T15:49:48.000Z</time>
      </trkpt>
      <trkpt lat="44.10043" lon="6.8486">
        <ele>854.20001220703</ele>
        <time>2020-08-13T15:49:50.000Z</time>
      </trkpt>
      <trkpt lat="44.10038" lon="6.84865">
        <ele>854.20001220703</ele>
        <time>2020-08-13T15:49:51.000Z</time>
      </trkpt>
      <trkpt lat="44.10012" lon="6.84884">
        <ele>853</ele>
        <time>2020-08-13T15:49:55.000Z</time>
      </trkpt>
      <trkpt lat="44.09997" lon="6.84885">
        <ele>852</ele>
        <time>2020-08-13T15:49:57.000Z</time>
      </trkpt>
      <trkpt lat="44.09989" lon="6.84886">
        <ele>851.20001220703</ele>
        <time>2020-08-13T15:49:58.000Z</time>
      </trkpt>
      <trkpt lat="44.09954" lon="6.84894">
        <ele>849.20001220703</ele>
        <time>2020-08-13T15:50:02.000Z</time>
      </trkpt>
      <trkpt lat="44.09935" lon="6.84898">
        <ele>848</ele>
        <time>2020-08-13T15:50:04.000Z</time>
      </trkpt>
      <trkpt lat="44.09915" lon="6.84903">
        <ele>847</ele>
        <time>2020-08-13T15:50:06.000Z</time>
      </trkpt>
      <trkpt lat="44.09897" lon="6.84912">
        <ele>845.79998779297</ele>
        <time>2020-08-13T15:50:08.000Z</time>
      </trkpt>
      <trkpt lat="44.09879" lon="6.8492">
        <ele>845.40002441406</ele>
        <time>2020-08-13T15:50:10.000Z</time>
      </trkpt>
      <trkpt lat="44.09851" lon="6.84919">
        <ele>845</ele>
        <time>2020-08-13T15:50:13.000Z</time>
      </trkpt>
      <trkpt lat="44.09841" lon="6.8492">
        <ele>844.59997558594</ele>
        <time>2020-08-13T15:50:14.000Z</time>
      </trkpt>
      <trkpt lat="44.09832" lon="6.84922">
        <ele>844.40002441406</ele>
        <time>2020-08-13T15:50:15.000Z</time>
      </trkpt>
      <trkpt lat="44.09815" lon="6.84931">
        <ele>843.59997558594</ele>
        <time>2020-08-13T15:50:17.000Z</time>
      </trkpt>
      <trkpt lat="44.09807" lon="6.84936">
        <ele>843.40002441406</ele>
        <time>2020-08-13T15:50:18.000Z</time>
      </trkpt>
      <trkpt lat="44.09754" lon="6.84961">
        <ele>842.79998779297</ele>
        <time>2020-08-13T15:50:24.000Z</time>
      </trkpt>
      <trkpt lat="44.09736" lon="6.84971">
        <ele>842.40002441406</ele>
        <time>2020-08-13T15:50:26.000Z</time>
      </trkpt>
      <trkpt lat="44.09702" lon="6.84995">
        <ele>841</ele>
        <time>2020-08-13T15:50:30.000Z</time>
      </trkpt>
      <trkpt lat="44.09694" lon="6.85002">
        <ele>840.40002441406</ele>
        <time>2020-08-13T15:50:31.000Z</time>
      </trkpt>
      <trkpt lat="44.09686" lon="6.8501">
        <ele>840</ele>
        <time>2020-08-13T15:50:32.000Z</time>
      </trkpt>
      <trkpt lat="44.09665" lon="6.85037">
        <ele>838.79998779297</ele>
        <time>2020-08-13T15:50:35.000Z</time>
      </trkpt>
      <trkpt lat="44.09658" lon="6.85048">
        <ele>838.59997558594</ele>
        <time>2020-08-13T15:50:36.000Z</time>
      </trkpt>
      <trkpt lat="44.09645" lon="6.85069">
        <ele>837.79998779297</ele>
        <time>2020-08-13T15:50:38.000Z</time>
      </trkpt>
      <trkpt lat="44.09637" lon="6.85078">
        <ele>837.20001220703</ele>
        <time>2020-08-13T15:50:39.000Z</time>
      </trkpt>
      <trkpt lat="44.09628" lon="6.85087">
        <ele>836.79998779297</ele>
        <time>2020-08-13T15:50:40.000Z</time>
      </trkpt>
      <trkpt lat="44.0962" lon="6.85094">
        <ele>836.20001220703</ele>
        <time>2020-08-13T15:50:41.000Z</time>
      </trkpt>
      <trkpt lat="44.09606" lon="6.85107">
        <ele>835.20001220703</ele>
        <time>2020-08-13T15:50:43.000Z</time>
      </trkpt>
      <trkpt lat="44.09598" lon="6.85116">
        <ele>834.59997558594</ele>
        <time>2020-08-13T15:50:44.000Z</time>
      </trkpt>
      <trkpt lat="44.09517" lon="6.85184">
        <ele>831.59997558594</ele>
        <time>2020-08-13T15:50:56.000Z</time>
      </trkpt>
      <trkpt lat="44.09481" lon="6.85206">
        <ele>831</ele>
        <time>2020-08-13T15:50:58.000Z</time>
      </trkpt>
      <trkpt lat="44.09473" lon="6.85209">
        <ele>830.40002441406</ele>
        <time>2020-08-13T15:50:59.000Z</time>
      </trkpt>
      <trkpt lat="44.09431" lon="6.85234">
        <ele>828.79998779297</ele>
        <time>2020-08-13T15:51:03.000Z</time>
      </trkpt>
      <trkpt lat="44.09404" lon="6.85241">
        <ele>828.40002441406</ele>
        <time>2020-08-13T15:51:06.000Z</time>
      </trkpt>
      <trkpt lat="44.09345" lon="6.85247">
        <ele>826</ele>
        <time>2020-08-13T15:51:12.000Z</time>
      </trkpt>
      <trkpt lat="44.09313" lon="6.85251">
        <ele>824.59997558594</ele>
        <time>2020-08-13T15:51:15.000Z</time>
      </trkpt>
      <trkpt lat="44.09304" lon="6.85248">
        <ele>824.20001220703</ele>
        <time>2020-08-13T15:51:16.000Z</time>
      </trkpt>
      <trkpt lat="44.09294" lon="6.85242">
        <ele>823.40002441406</ele>
        <time>2020-08-13T15:51:17.000Z</time>
      </trkpt>
      <trkpt lat="44.09276" lon="6.85231">
        <ele>822</ele>
        <time>2020-08-13T15:51:19.000Z</time>
      </trkpt>
      <trkpt lat="44.09258" lon="6.85221">
        <ele>820.59997558594</ele>
        <time>2020-08-13T15:51:21.000Z</time>
      </trkpt>
      <trkpt lat="44.09248" lon="6.85219">
        <ele>820.20001220703</ele>
        <time>2020-08-13T15:51:22.000Z</time>
      </trkpt>
      <trkpt lat="44.09239" lon="6.8522">
        <ele>819.79998779297</ele>
        <time>2020-08-13T15:51:23.000Z</time>
      </trkpt>
      <trkpt lat="44.09229" lon="6.85224">
        <ele>818.79998779297</ele>
        <time>2020-08-13T15:51:24.000Z</time>
      </trkpt>
      <trkpt lat="44.0921" lon="6.85233">
        <ele>818</ele>
        <time>2020-08-13T15:51:26.000Z</time>
      </trkpt>
      <trkpt lat="44.09201" lon="6.85238">
        <ele>817.40002441406</ele>
        <time>2020-08-13T15:51:27.000Z</time>
      </trkpt>
      <trkpt lat="44.09165" lon="6.85257">
        <ele>816.20001220703</ele>
        <time>2020-08-13T15:51:31.000Z</time>
      </trkpt>
      <trkpt lat="44.09138" lon="6.85269">
        <ele>814.79998779297</ele>
        <time>2020-08-13T15:51:34.000Z</time>
      </trkpt>
      <trkpt lat="44.0908" lon="6.853">
        <ele>814.20001220703</ele>
        <time>2020-08-13T15:51:41.000Z</time>
      </trkpt>
      <trkpt lat="44.09063" lon="6.85309">
        <ele>813.79998779297</ele>
        <time>2020-08-13T15:51:43.000Z</time>
      </trkpt>
      <trkpt lat="44.09021" lon="6.85333">
        <ele>813.79998779297</ele>
        <time>2020-08-13T15:51:49.000Z</time>
      </trkpt>
      <trkpt lat="44.0899" lon="6.85341">
        <ele>812.59997558594</ele>
        <time>2020-08-13T15:51:54.000Z</time>
      </trkpt>
      <trkpt lat="44.08966" lon="6.85343">
        <ele>813.20001220703</ele>
        <time>2020-08-13T15:51:59.000Z</time>
      </trkpt>
      <trkpt lat="44.08962" lon="6.85345">
        <ele>813.40002441406</ele>
        <time>2020-08-13T15:52:00.000Z</time>
      </trkpt>
      <trkpt lat="44.08958" lon="6.85348">
        <ele>813.79998779297</ele>
        <time>2020-08-13T15:52:01.000Z</time>
      </trkpt>
      <trkpt lat="44.08946" lon="6.85353">
        <ele>814</ele>
        <time>2020-08-13T15:52:04.000Z</time>
      </trkpt>
      <trkpt lat="44.08925" lon="6.85359">
        <ele>814.59997558594</ele>
        <time>2020-08-13T15:52:10.000Z</time>
      </trkpt>
      <trkpt lat="44.08922" lon="6.8536">
        <ele>814.79998779297</ele>
        <time>2020-08-13T15:52:11.000Z</time>
      </trkpt>
      <trkpt lat="44.08908" lon="6.85364">
        <ele>815.40002441406</ele>
        <time>2020-08-13T15:52:16.000Z</time>
      </trkpt>
      <trkpt lat="44.08893" lon="6.85367">
        <ele>816</ele>
        <time>2020-08-13T15:52:21.000Z</time>
      </trkpt>
      <trkpt lat="44.08886" lon="6.8537">
        <ele>816.20001220703</ele>
        <time>2020-08-13T15:52:23.000Z</time>
      </trkpt>
      <trkpt lat="44.08872" lon="6.8538">
        <ele>817</ele>
        <time>2020-08-13T15:52:28.000Z</time>
      </trkpt>
      <trkpt lat="44.08872" lon="6.85383">
        <ele>817</ele>
        <time>2020-08-13T15:52:29.000Z</time>
      </trkpt>
      <trkpt lat="44.08871" lon="6.85384">
        <ele>817.40002441406</ele>
        <time>2020-08-13T15:52:32.000Z</time>
      </trkpt>
      <trkpt lat="44.08871" lon="6.85386">
        <ele>817.40002441406</ele>
        <time>2020-08-13T15:52:42.000Z</time>
      </trkpt>
      <trkpt lat="44.08871" lon="6.85386">
        <ele>817.59997558594</ele>
        <time>2020-08-13T15:52:45.000Z</time>
      </trkpt>
    </trkseg>
  </trk>
</gpx>